<?xml version="1.0" encoding="UTF-8" standalone="no" ?>
<gpx xmlns="http://www.topografix.com/GPX/1/1" xmlns:xsi="http://www.w3.org/2001/XMLSchema-instance" xsi:schemaLocation="http://www.topografix.com/GPX/1/1 http://www.topografix.com/GPX/1/1/gpx.xsd" version="1.1" creator="VisuGPX - https://www.visugpx.com">
  <metadata>
    <name>Yzeux </name>
  </metadata>
  <trk>
    <name><![CDATA[Yzeux _1]]></name>
    <trkseg>
      <trkpt lat="49.96748" lon="2.13599">
        <ele>46.4</ele>
        <time>2024-04-17T12:03:04Z</time>
      </trkpt>
      <trkpt lat="49.96749" lon="2.13599">
        <ele>46.4</ele>
        <time>2024-04-17T12:03:05Z</time>
      </trkpt>
      <trkpt lat="49.96749" lon="2.13601">
        <ele>46.4</ele>
        <time>2024-04-17T12:03:07Z</time>
      </trkpt>
      <trkpt lat="49.96749" lon="2.13601">
        <ele>46.4</ele>
        <time>2024-04-17T12:03:08Z</time>
      </trkpt>
      <trkpt lat="49.9675" lon="2.13602">
        <ele>46.4</ele>
        <time>2024-04-17T12:03:09Z</time>
      </trkpt>
      <trkpt lat="49.96751" lon="2.13602">
        <ele>46.5</ele>
        <time>2024-04-17T12:03:10Z</time>
      </trkpt>
      <trkpt lat="49.96751" lon="2.13602">
        <ele>46.5</ele>
        <time>2024-04-17T12:03:11Z</time>
      </trkpt>
      <trkpt lat="49.96752" lon="2.13603">
        <ele>46.5</ele>
        <time>2024-04-17T12:03:12Z</time>
      </trkpt>
      <trkpt lat="49.96752" lon="2.13604">
        <ele>46.5</ele>
        <time>2024-04-17T12:03:13Z</time>
      </trkpt>
      <trkpt lat="49.96753" lon="2.13605">
        <ele>46.5</ele>
        <time>2024-04-17T12:03:14Z</time>
      </trkpt>
      <trkpt lat="49.96754" lon="2.13606">
        <ele>46.5</ele>
        <time>2024-04-17T12:03:15Z</time>
      </trkpt>
      <trkpt lat="49.96754" lon="2.13607">
        <ele>46.6</ele>
        <time>2024-04-17T12:03:16Z</time>
      </trkpt>
      <trkpt lat="49.96755" lon="2.13608">
        <ele>46.6</ele>
        <time>2024-04-17T12:03:17Z</time>
      </trkpt>
      <trkpt lat="49.96755" lon="2.13609">
        <ele>46.6</ele>
        <time>2024-04-17T12:03:18Z</time>
      </trkpt>
      <trkpt lat="49.96756" lon="2.1361">
        <ele>46.6</ele>
        <time>2024-04-17T12:03:19Z</time>
      </trkpt>
      <trkpt lat="49.96756" lon="2.1361">
        <ele>46.6</ele>
        <time>2024-04-17T12:03:20Z</time>
      </trkpt>
      <trkpt lat="49.96756" lon="2.1361">
        <ele>46.6</ele>
        <time>2024-04-17T12:03:21Z</time>
      </trkpt>
      <trkpt lat="49.96757" lon="2.1361">
        <ele>46.7</ele>
        <time>2024-04-17T12:03:22Z</time>
      </trkpt>
      <trkpt lat="49.96757" lon="2.1361">
        <ele>46.7</ele>
        <time>2024-04-17T12:03:23Z</time>
      </trkpt>
      <trkpt lat="49.96758" lon="2.1361">
        <ele>46.7</ele>
        <time>2024-04-17T12:03:24Z</time>
      </trkpt>
      <trkpt lat="49.96759" lon="2.1361">
        <ele>46.7</ele>
        <time>2024-04-17T12:03:25Z</time>
      </trkpt>
      <trkpt lat="49.96759" lon="2.13611">
        <ele>46.7</ele>
        <time>2024-04-17T12:03:26Z</time>
      </trkpt>
      <trkpt lat="49.9676" lon="2.13611">
        <ele>46.7</ele>
        <time>2024-04-17T12:03:27Z</time>
      </trkpt>
      <trkpt lat="49.96761" lon="2.13612">
        <ele>46.7</ele>
        <time>2024-04-17T12:03:28Z</time>
      </trkpt>
      <trkpt lat="49.96762" lon="2.13613">
        <ele>46.8</ele>
        <time>2024-04-17T12:03:29Z</time>
      </trkpt>
      <trkpt lat="49.96763" lon="2.13614">
        <ele>46.8</ele>
        <time>2024-04-17T12:03:30Z</time>
      </trkpt>
      <trkpt lat="49.96763" lon="2.13613">
        <ele>46.8</ele>
        <time>2024-04-17T12:03:31Z</time>
      </trkpt>
      <trkpt lat="49.96764" lon="2.13612">
        <ele>46.8</ele>
        <time>2024-04-17T12:03:32Z</time>
      </trkpt>
      <trkpt lat="49.96765" lon="2.13612">
        <ele>46.9</ele>
        <time>2024-04-17T12:03:33Z</time>
      </trkpt>
      <trkpt lat="49.96766" lon="2.13613">
        <ele>46.9</ele>
        <time>2024-04-17T12:03:34Z</time>
      </trkpt>
      <trkpt lat="49.96767" lon="2.13613">
        <ele>46.9</ele>
        <time>2024-04-17T12:03:35Z</time>
      </trkpt>
      <trkpt lat="49.96768" lon="2.13613">
        <ele>46.9</ele>
        <time>2024-04-17T12:03:36Z</time>
      </trkpt>
      <trkpt lat="49.96769" lon="2.13613">
        <ele>47</ele>
        <time>2024-04-17T12:03:37Z</time>
      </trkpt>
      <trkpt lat="49.9677" lon="2.13614">
        <ele>47</ele>
        <time>2024-04-17T12:03:38Z</time>
      </trkpt>
      <trkpt lat="49.96771" lon="2.13614">
        <ele>47</ele>
        <time>2024-04-17T12:03:39Z</time>
      </trkpt>
      <trkpt lat="49.96772" lon="2.13614">
        <ele>47</ele>
        <time>2024-04-17T12:03:40Z</time>
      </trkpt>
      <trkpt lat="49.96773" lon="2.13615">
        <ele>47.1</ele>
        <time>2024-04-17T12:03:41Z</time>
      </trkpt>
      <trkpt lat="49.96775" lon="2.13615">
        <ele>47.1</ele>
        <time>2024-04-17T12:03:42Z</time>
      </trkpt>
      <trkpt lat="49.96775" lon="2.13615">
        <ele>47.1</ele>
        <time>2024-04-17T12:03:43Z</time>
      </trkpt>
      <trkpt lat="49.96776" lon="2.13616">
        <ele>47.1</ele>
        <time>2024-04-17T12:03:44Z</time>
      </trkpt>
      <trkpt lat="49.96777" lon="2.13616">
        <ele>47.2</ele>
        <time>2024-04-17T12:03:45Z</time>
      </trkpt>
      <trkpt lat="49.96778" lon="2.13616">
        <ele>47.2</ele>
        <time>2024-04-17T12:03:46Z</time>
      </trkpt>
      <trkpt lat="49.96779" lon="2.13617">
        <ele>47.2</ele>
        <time>2024-04-17T12:03:47Z</time>
      </trkpt>
      <trkpt lat="49.9678" lon="2.13617">
        <ele>47.2</ele>
        <time>2024-04-17T12:03:48Z</time>
      </trkpt>
      <trkpt lat="49.96781" lon="2.13617">
        <ele>47.3</ele>
        <time>2024-04-17T12:03:49Z</time>
      </trkpt>
      <trkpt lat="49.96782" lon="2.13617">
        <ele>47.3</ele>
        <time>2024-04-17T12:03:50Z</time>
      </trkpt>
      <trkpt lat="49.96783" lon="2.13617">
        <ele>47.3</ele>
        <time>2024-04-17T12:03:51Z</time>
      </trkpt>
      <trkpt lat="49.96784" lon="2.13616">
        <ele>47.3</ele>
        <time>2024-04-17T12:03:52Z</time>
      </trkpt>
      <trkpt lat="49.96785" lon="2.13617">
        <ele>47.4</ele>
        <time>2024-04-17T12:03:53Z</time>
      </trkpt>
      <trkpt lat="49.96785" lon="2.13617">
        <ele>47.4</ele>
        <time>2024-04-17T12:03:54Z</time>
      </trkpt>
      <trkpt lat="49.96786" lon="2.13618">
        <ele>47.4</ele>
        <time>2024-04-17T12:03:55Z</time>
      </trkpt>
      <trkpt lat="49.96787" lon="2.13619">
        <ele>47.4</ele>
        <time>2024-04-17T12:03:56Z</time>
      </trkpt>
      <trkpt lat="49.96787" lon="2.13621">
        <ele>47.5</ele>
        <time>2024-04-17T12:03:57Z</time>
      </trkpt>
      <trkpt lat="49.96787" lon="2.13622">
        <ele>47.5</ele>
        <time>2024-04-17T12:03:58Z</time>
      </trkpt>
      <trkpt lat="49.96788" lon="2.13622">
        <ele>47.5</ele>
        <time>2024-04-17T12:03:59Z</time>
      </trkpt>
      <trkpt lat="49.96789" lon="2.13623">
        <ele>47.6</ele>
        <time>2024-04-17T12:04:00Z</time>
      </trkpt>
      <trkpt lat="49.96789" lon="2.13624">
        <ele>47.6</ele>
        <time>2024-04-17T12:04:01Z</time>
      </trkpt>
      <trkpt lat="49.96789" lon="2.13624">
        <ele>47.6</ele>
        <time>2024-04-17T12:04:02Z</time>
      </trkpt>
      <trkpt lat="49.96789" lon="2.13625">
        <ele>47.6</ele>
        <time>2024-04-17T12:04:03Z</time>
      </trkpt>
      <trkpt lat="49.9679" lon="2.13626">
        <ele>47.6</ele>
        <time>2024-04-17T12:04:04Z</time>
      </trkpt>
      <trkpt lat="49.96789" lon="2.13627">
        <ele>47.6</ele>
        <time>2024-04-17T12:04:05Z</time>
      </trkpt>
      <trkpt lat="49.9679" lon="2.13628">
        <ele>47.7</ele>
        <time>2024-04-17T12:04:06Z</time>
      </trkpt>
      <trkpt lat="49.9679" lon="2.13627">
        <ele>47.7</ele>
        <time>2024-04-17T12:04:07Z</time>
      </trkpt>
      <trkpt lat="49.96791" lon="2.13627">
        <ele>47.7</ele>
        <time>2024-04-17T12:04:08Z</time>
      </trkpt>
      <trkpt lat="49.96792" lon="2.13626">
        <ele>47.7</ele>
        <time>2024-04-17T12:04:09Z</time>
      </trkpt>
      <trkpt lat="49.96793" lon="2.13625">
        <ele>47.8</ele>
        <time>2024-04-17T12:04:10Z</time>
      </trkpt>
      <trkpt lat="49.96794" lon="2.13625">
        <ele>47.8</ele>
        <time>2024-04-17T12:04:11Z</time>
      </trkpt>
      <trkpt lat="49.96795" lon="2.13625">
        <ele>47.8</ele>
        <time>2024-04-17T12:04:12Z</time>
      </trkpt>
      <trkpt lat="49.96795" lon="2.13625">
        <ele>47.9</ele>
        <time>2024-04-17T12:04:13Z</time>
      </trkpt>
      <trkpt lat="49.96796" lon="2.13626">
        <ele>47.9</ele>
        <time>2024-04-17T12:04:14Z</time>
      </trkpt>
      <trkpt lat="49.96796" lon="2.13627">
        <ele>47.9</ele>
        <time>2024-04-17T12:04:15Z</time>
      </trkpt>
      <trkpt lat="49.96797" lon="2.13627">
        <ele>47.9</ele>
        <time>2024-04-17T12:04:16Z</time>
      </trkpt>
      <trkpt lat="49.96798" lon="2.13628">
        <ele>47.9</ele>
        <time>2024-04-17T12:04:17Z</time>
      </trkpt>
      <trkpt lat="49.96798" lon="2.13628">
        <ele>48</ele>
        <time>2024-04-17T12:04:18Z</time>
      </trkpt>
      <trkpt lat="49.96799" lon="2.13629">
        <ele>48</ele>
        <time>2024-04-17T12:04:19Z</time>
      </trkpt>
      <trkpt lat="49.96799" lon="2.13631">
        <ele>48</ele>
        <time>2024-04-17T12:04:20Z</time>
      </trkpt>
      <trkpt lat="49.968" lon="2.13632">
        <ele>48</ele>
        <time>2024-04-17T12:04:21Z</time>
      </trkpt>
      <trkpt lat="49.968" lon="2.13633">
        <ele>48.1</ele>
        <time>2024-04-17T12:04:22Z</time>
      </trkpt>
      <trkpt lat="49.96801" lon="2.13633">
        <ele>48.1</ele>
        <time>2024-04-17T12:04:23Z</time>
      </trkpt>
      <trkpt lat="49.96802" lon="2.13633">
        <ele>48.1</ele>
        <time>2024-04-17T12:04:24Z</time>
      </trkpt>
      <trkpt lat="49.96802" lon="2.13632">
        <ele>48.1</ele>
        <time>2024-04-17T12:04:25Z</time>
      </trkpt>
      <trkpt lat="49.96803" lon="2.13633">
        <ele>48.1</ele>
        <time>2024-04-17T12:04:26Z</time>
      </trkpt>
      <trkpt lat="49.96803" lon="2.13633">
        <ele>48.1</ele>
        <time>2024-04-17T12:04:27Z</time>
      </trkpt>
      <trkpt lat="49.96804" lon="2.13634">
        <ele>48.2</ele>
        <time>2024-04-17T12:04:28Z</time>
      </trkpt>
      <trkpt lat="49.96805" lon="2.13635">
        <ele>48.2</ele>
        <time>2024-04-17T12:04:29Z</time>
      </trkpt>
      <trkpt lat="49.96806" lon="2.13635">
        <ele>48.2</ele>
        <time>2024-04-17T12:04:30Z</time>
      </trkpt>
      <trkpt lat="49.96806" lon="2.13635">
        <ele>48.2</ele>
        <time>2024-04-17T12:04:31Z</time>
      </trkpt>
      <trkpt lat="49.96807" lon="2.13635">
        <ele>48.3</ele>
        <time>2024-04-17T12:04:32Z</time>
      </trkpt>
      <trkpt lat="49.96807" lon="2.13634">
        <ele>48.3</ele>
        <time>2024-04-17T12:04:33Z</time>
      </trkpt>
      <trkpt lat="49.96807" lon="2.13634">
        <ele>48.3</ele>
        <time>2024-04-17T12:04:34Z</time>
      </trkpt>
      <trkpt lat="49.96808" lon="2.13633">
        <ele>48.3</ele>
        <time>2024-04-17T12:04:35Z</time>
      </trkpt>
      <trkpt lat="49.96808" lon="2.13632">
        <ele>48.3</ele>
        <time>2024-04-17T12:04:36Z</time>
      </trkpt>
      <trkpt lat="49.9681" lon="2.13631">
        <ele>48.4</ele>
        <time>2024-04-17T12:04:37Z</time>
      </trkpt>
      <trkpt lat="49.96811" lon="2.13631">
        <ele>48.4</ele>
        <time>2024-04-17T12:04:38Z</time>
      </trkpt>
      <trkpt lat="49.96813" lon="2.1363">
        <ele>48.4</ele>
        <time>2024-04-17T12:04:39Z</time>
      </trkpt>
      <trkpt lat="49.96814" lon="2.1363">
        <ele>48.5</ele>
        <time>2024-04-17T12:04:40Z</time>
      </trkpt>
      <trkpt lat="49.96816" lon="2.13629">
        <ele>48.5</ele>
        <time>2024-04-17T12:04:41Z</time>
      </trkpt>
      <trkpt lat="49.96818" lon="2.13629">
        <ele>48.6</ele>
        <time>2024-04-17T12:04:42Z</time>
      </trkpt>
      <trkpt lat="49.96819" lon="2.13629">
        <ele>48.6</ele>
        <time>2024-04-17T12:04:43Z</time>
      </trkpt>
      <trkpt lat="49.9682" lon="2.13629">
        <ele>48.6</ele>
        <time>2024-04-17T12:04:44Z</time>
      </trkpt>
      <trkpt lat="49.96821" lon="2.13628">
        <ele>48.6</ele>
        <time>2024-04-17T12:04:45Z</time>
      </trkpt>
      <trkpt lat="49.96822" lon="2.13628">
        <ele>48.7</ele>
        <time>2024-04-17T12:04:46Z</time>
      </trkpt>
      <trkpt lat="49.96822" lon="2.13627">
        <ele>48.7</ele>
        <time>2024-04-17T12:04:47Z</time>
      </trkpt>
      <trkpt lat="49.96823" lon="2.13626">
        <ele>48.7</ele>
        <time>2024-04-17T12:04:48Z</time>
      </trkpt>
      <trkpt lat="49.96824" lon="2.13626">
        <ele>48.7</ele>
        <time>2024-04-17T12:04:49Z</time>
      </trkpt>
      <trkpt lat="49.96825" lon="2.13625">
        <ele>48.8</ele>
        <time>2024-04-17T12:04:50Z</time>
      </trkpt>
      <trkpt lat="49.96825" lon="2.13625">
        <ele>48.8</ele>
        <time>2024-04-17T12:04:51Z</time>
      </trkpt>
      <trkpt lat="49.96826" lon="2.13624">
        <ele>48.8</ele>
        <time>2024-04-17T12:04:52Z</time>
      </trkpt>
      <trkpt lat="49.96827" lon="2.13624">
        <ele>48.8</ele>
        <time>2024-04-17T12:04:53Z</time>
      </trkpt>
      <trkpt lat="49.96827" lon="2.13624">
        <ele>48.8</ele>
        <time>2024-04-17T12:04:54Z</time>
      </trkpt>
      <trkpt lat="49.96828" lon="2.13623">
        <ele>48.8</ele>
        <time>2024-04-17T12:04:55Z</time>
      </trkpt>
      <trkpt lat="49.96831" lon="2.13622">
        <ele>48.9</ele>
        <time>2024-04-17T12:04:56Z</time>
      </trkpt>
      <trkpt lat="49.96832" lon="2.13622">
        <ele>48.9</ele>
        <time>2024-04-17T12:04:57Z</time>
      </trkpt>
      <trkpt lat="49.96835" lon="2.1362">
        <ele>49</ele>
        <time>2024-04-17T12:04:58Z</time>
      </trkpt>
      <trkpt lat="49.96836" lon="2.1362">
        <ele>49</ele>
        <time>2024-04-17T12:04:59Z</time>
      </trkpt>
      <trkpt lat="49.96839" lon="2.13619">
        <ele>49.1</ele>
        <time>2024-04-17T12:05:00Z</time>
      </trkpt>
      <trkpt lat="49.9684" lon="2.13619">
        <ele>49.1</ele>
        <time>2024-04-17T12:05:01Z</time>
      </trkpt>
      <trkpt lat="49.96842" lon="2.13618">
        <ele>49.2</ele>
        <time>2024-04-17T12:05:02Z</time>
      </trkpt>
      <trkpt lat="49.96843" lon="2.13617">
        <ele>49.2</ele>
        <time>2024-04-17T12:05:03Z</time>
      </trkpt>
      <trkpt lat="49.96845" lon="2.13615">
        <ele>49.2</ele>
        <time>2024-04-17T12:05:04Z</time>
      </trkpt>
      <trkpt lat="49.96846" lon="2.13614">
        <ele>49.3</ele>
        <time>2024-04-17T12:05:05Z</time>
      </trkpt>
      <trkpt lat="49.96847" lon="2.13613">
        <ele>49.3</ele>
        <time>2024-04-17T12:05:06Z</time>
      </trkpt>
      <trkpt lat="49.96848" lon="2.13612">
        <ele>49.3</ele>
        <time>2024-04-17T12:05:07Z</time>
      </trkpt>
      <trkpt lat="49.96849" lon="2.1361">
        <ele>49.4</ele>
        <time>2024-04-17T12:05:08Z</time>
      </trkpt>
      <trkpt lat="49.9685" lon="2.13609">
        <ele>49.4</ele>
        <time>2024-04-17T12:05:09Z</time>
      </trkpt>
      <trkpt lat="49.96851" lon="2.13608">
        <ele>49.4</ele>
        <time>2024-04-17T12:05:10Z</time>
      </trkpt>
      <trkpt lat="49.96853" lon="2.13608">
        <ele>49.5</ele>
        <time>2024-04-17T12:05:11Z</time>
      </trkpt>
      <trkpt lat="49.96854" lon="2.13607">
        <ele>49.5</ele>
        <time>2024-04-17T12:05:12Z</time>
      </trkpt>
      <trkpt lat="49.96856" lon="2.13606">
        <ele>49.6</ele>
        <time>2024-04-17T12:05:13Z</time>
      </trkpt>
      <trkpt lat="49.96857" lon="2.13605">
        <ele>49.6</ele>
        <time>2024-04-17T12:05:14Z</time>
      </trkpt>
      <trkpt lat="49.96858" lon="2.13604">
        <ele>49.6</ele>
        <time>2024-04-17T12:05:15Z</time>
      </trkpt>
      <trkpt lat="49.9686" lon="2.13603">
        <ele>49.7</ele>
        <time>2024-04-17T12:05:16Z</time>
      </trkpt>
      <trkpt lat="49.96862" lon="2.13602">
        <ele>49.7</ele>
        <time>2024-04-17T12:05:17Z</time>
      </trkpt>
      <trkpt lat="49.96862" lon="2.13602">
        <ele>49.8</ele>
        <time>2024-04-17T12:05:18Z</time>
      </trkpt>
      <trkpt lat="49.96863" lon="2.13601">
        <ele>49.8</ele>
        <time>2024-04-17T12:05:19Z</time>
      </trkpt>
      <trkpt lat="49.96865" lon="2.136">
        <ele>49.8</ele>
        <time>2024-04-17T12:05:20Z</time>
      </trkpt>
      <trkpt lat="49.96866" lon="2.13599">
        <ele>49.9</ele>
        <time>2024-04-17T12:05:21Z</time>
      </trkpt>
      <trkpt lat="49.96867" lon="2.13599">
        <ele>49.9</ele>
        <time>2024-04-17T12:05:22Z</time>
      </trkpt>
      <trkpt lat="49.96869" lon="2.13597">
        <ele>49.9</ele>
        <time>2024-04-17T12:05:23Z</time>
      </trkpt>
      <trkpt lat="49.96869" lon="2.13596">
        <ele>50</ele>
        <time>2024-04-17T12:05:24Z</time>
      </trkpt>
      <trkpt lat="49.9687" lon="2.13596">
        <ele>50</ele>
        <time>2024-04-17T12:05:25Z</time>
      </trkpt>
      <trkpt lat="49.96872" lon="2.13594">
        <ele>50</ele>
        <time>2024-04-17T12:05:26Z</time>
      </trkpt>
      <trkpt lat="49.96873" lon="2.13593">
        <ele>50.1</ele>
        <time>2024-04-17T12:05:27Z</time>
      </trkpt>
      <trkpt lat="49.96873" lon="2.13592">
        <ele>50.1</ele>
        <time>2024-04-17T12:05:28Z</time>
      </trkpt>
      <trkpt lat="49.96875" lon="2.13591">
        <ele>50.1</ele>
        <time>2024-04-17T12:05:29Z</time>
      </trkpt>
      <trkpt lat="49.96876" lon="2.1359">
        <ele>50.2</ele>
        <time>2024-04-17T12:05:30Z</time>
      </trkpt>
      <trkpt lat="49.96877" lon="2.13589">
        <ele>50.2</ele>
        <time>2024-04-17T12:05:31Z</time>
      </trkpt>
      <trkpt lat="49.96878" lon="2.13588">
        <ele>50.2</ele>
        <time>2024-04-17T12:05:32Z</time>
      </trkpt>
      <trkpt lat="49.96879" lon="2.13587">
        <ele>50.3</ele>
        <time>2024-04-17T12:05:33Z</time>
      </trkpt>
      <trkpt lat="49.9688" lon="2.13586">
        <ele>50.3</ele>
        <time>2024-04-17T12:05:34Z</time>
      </trkpt>
      <trkpt lat="49.96881" lon="2.13585">
        <ele>50.3</ele>
        <time>2024-04-17T12:05:35Z</time>
      </trkpt>
      <trkpt lat="49.96882" lon="2.13583">
        <ele>50.4</ele>
        <time>2024-04-17T12:05:36Z</time>
      </trkpt>
      <trkpt lat="49.96883" lon="2.13582">
        <ele>50.4</ele>
        <time>2024-04-17T12:05:37Z</time>
      </trkpt>
      <trkpt lat="49.96885" lon="2.1358">
        <ele>50.5</ele>
        <time>2024-04-17T12:05:38Z</time>
      </trkpt>
      <trkpt lat="49.96886" lon="2.1358">
        <ele>50.5</ele>
        <time>2024-04-17T12:05:39Z</time>
      </trkpt>
      <trkpt lat="49.96887" lon="2.13579">
        <ele>50.5</ele>
        <time>2024-04-17T12:05:40Z</time>
      </trkpt>
      <trkpt lat="49.96888" lon="2.13578">
        <ele>50.5</ele>
        <time>2024-04-17T12:05:41Z</time>
      </trkpt>
      <trkpt lat="49.96888" lon="2.13577">
        <ele>50.5</ele>
        <time>2024-04-17T12:05:42Z</time>
      </trkpt>
      <trkpt lat="49.96889" lon="2.13577">
        <ele>50.6</ele>
        <time>2024-04-17T12:05:43Z</time>
      </trkpt>
      <trkpt lat="49.9689" lon="2.13576">
        <ele>50.6</ele>
        <time>2024-04-17T12:05:44Z</time>
      </trkpt>
      <trkpt lat="49.96891" lon="2.13575">
        <ele>50.6</ele>
        <time>2024-04-17T12:05:45Z</time>
      </trkpt>
      <trkpt lat="49.96892" lon="2.13574">
        <ele>50.7</ele>
        <time>2024-04-17T12:05:46Z</time>
      </trkpt>
      <trkpt lat="49.96893" lon="2.13573">
        <ele>50.7</ele>
        <time>2024-04-17T12:05:47Z</time>
      </trkpt>
      <trkpt lat="49.96894" lon="2.13572">
        <ele>50.7</ele>
        <time>2024-04-17T12:05:48Z</time>
      </trkpt>
      <trkpt lat="49.96895" lon="2.13571">
        <ele>50.7</ele>
        <time>2024-04-17T12:05:49Z</time>
      </trkpt>
      <trkpt lat="49.96896" lon="2.1357">
        <ele>50.8</ele>
        <time>2024-04-17T12:05:50Z</time>
      </trkpt>
      <trkpt lat="49.96896" lon="2.13569">
        <ele>50.8</ele>
        <time>2024-04-17T12:05:51Z</time>
      </trkpt>
      <trkpt lat="49.96897" lon="2.13568">
        <ele>50.8</ele>
        <time>2024-04-17T12:05:52Z</time>
      </trkpt>
      <trkpt lat="49.96898" lon="2.13567">
        <ele>50.8</ele>
        <time>2024-04-17T12:05:53Z</time>
      </trkpt>
      <trkpt lat="49.96898" lon="2.13566">
        <ele>50.8</ele>
        <time>2024-04-17T12:05:54Z</time>
      </trkpt>
      <trkpt lat="49.96899" lon="2.13565">
        <ele>50.9</ele>
        <time>2024-04-17T12:05:55Z</time>
      </trkpt>
      <trkpt lat="49.969" lon="2.13564">
        <ele>50.9</ele>
        <time>2024-04-17T12:05:56Z</time>
      </trkpt>
      <trkpt lat="49.96901" lon="2.13563">
        <ele>50.9</ele>
        <time>2024-04-17T12:05:57Z</time>
      </trkpt>
      <trkpt lat="49.96902" lon="2.13562">
        <ele>50.9</ele>
        <time>2024-04-17T12:05:58Z</time>
      </trkpt>
      <trkpt lat="49.96903" lon="2.1356">
        <ele>51</ele>
        <time>2024-04-17T12:05:59Z</time>
      </trkpt>
      <trkpt lat="49.96904" lon="2.13559">
        <ele>51</ele>
        <time>2024-04-17T12:06:00Z</time>
      </trkpt>
      <trkpt lat="49.96905" lon="2.13558">
        <ele>51</ele>
        <time>2024-04-17T12:06:01Z</time>
      </trkpt>
      <trkpt lat="49.96906" lon="2.13557">
        <ele>51</ele>
        <time>2024-04-17T12:06:02Z</time>
      </trkpt>
      <trkpt lat="49.96907" lon="2.13555">
        <ele>51.1</ele>
        <time>2024-04-17T12:06:03Z</time>
      </trkpt>
      <trkpt lat="49.96908" lon="2.13554">
        <ele>51.1</ele>
        <time>2024-04-17T12:06:04Z</time>
      </trkpt>
      <trkpt lat="49.96909" lon="2.13553">
        <ele>51.1</ele>
        <time>2024-04-17T12:06:05Z</time>
      </trkpt>
      <trkpt lat="49.9691" lon="2.13551">
        <ele>51.2</ele>
        <time>2024-04-17T12:06:06Z</time>
      </trkpt>
      <trkpt lat="49.96911" lon="2.1355">
        <ele>51.2</ele>
        <time>2024-04-17T12:06:07Z</time>
      </trkpt>
      <trkpt lat="49.96912" lon="2.13549">
        <ele>51.2</ele>
        <time>2024-04-17T12:06:08Z</time>
      </trkpt>
      <trkpt lat="49.96913" lon="2.13547">
        <ele>51.3</ele>
        <time>2024-04-17T12:06:09Z</time>
      </trkpt>
      <trkpt lat="49.96915" lon="2.13546">
        <ele>51.3</ele>
        <time>2024-04-17T12:06:10Z</time>
      </trkpt>
      <trkpt lat="49.96916" lon="2.13545">
        <ele>51.3</ele>
        <time>2024-04-17T12:06:11Z</time>
      </trkpt>
      <trkpt lat="49.96917" lon="2.13544">
        <ele>51.3</ele>
        <time>2024-04-17T12:06:12Z</time>
      </trkpt>
      <trkpt lat="49.96918" lon="2.13543">
        <ele>51.3</ele>
        <time>2024-04-17T12:06:13Z</time>
      </trkpt>
      <trkpt lat="49.9692" lon="2.13541">
        <ele>51.4</ele>
        <time>2024-04-17T12:06:14Z</time>
      </trkpt>
      <trkpt lat="49.9692" lon="2.1354">
        <ele>51.4</ele>
        <time>2024-04-17T12:06:15Z</time>
      </trkpt>
      <trkpt lat="49.96921" lon="2.1354">
        <ele>51.4</ele>
        <time>2024-04-17T12:06:16Z</time>
      </trkpt>
      <trkpt lat="49.96922" lon="2.13538">
        <ele>51.4</ele>
        <time>2024-04-17T12:06:17Z</time>
      </trkpt>
      <trkpt lat="49.96923" lon="2.13537">
        <ele>51.5</ele>
        <time>2024-04-17T12:06:18Z</time>
      </trkpt>
      <trkpt lat="49.96923" lon="2.13536">
        <ele>51.5</ele>
        <time>2024-04-17T12:06:19Z</time>
      </trkpt>
      <trkpt lat="49.96924" lon="2.13535">
        <ele>51.5</ele>
        <time>2024-04-17T12:06:20Z</time>
      </trkpt>
      <trkpt lat="49.96925" lon="2.13534">
        <ele>51.5</ele>
        <time>2024-04-17T12:06:21Z</time>
      </trkpt>
      <trkpt lat="49.96926" lon="2.13533">
        <ele>51.5</ele>
        <time>2024-04-17T12:06:22Z</time>
      </trkpt>
      <trkpt lat="49.96926" lon="2.13532">
        <ele>51.5</ele>
        <time>2024-04-17T12:06:23Z</time>
      </trkpt>
      <trkpt lat="49.96927" lon="2.13531">
        <ele>51.6</ele>
        <time>2024-04-17T12:06:24Z</time>
      </trkpt>
      <trkpt lat="49.96928" lon="2.13531">
        <ele>51.6</ele>
        <time>2024-04-17T12:06:25Z</time>
      </trkpt>
      <trkpt lat="49.96929" lon="2.1353">
        <ele>51.6</ele>
        <time>2024-04-17T12:06:26Z</time>
      </trkpt>
      <trkpt lat="49.9693" lon="2.1353">
        <ele>51.6</ele>
        <time>2024-04-17T12:06:27Z</time>
      </trkpt>
      <trkpt lat="49.96931" lon="2.13529">
        <ele>51.6</ele>
        <time>2024-04-17T12:06:28Z</time>
      </trkpt>
      <trkpt lat="49.96932" lon="2.13529">
        <ele>51.7</ele>
        <time>2024-04-17T12:06:29Z</time>
      </trkpt>
      <trkpt lat="49.96933" lon="2.13528">
        <ele>51.7</ele>
        <time>2024-04-17T12:06:30Z</time>
      </trkpt>
      <trkpt lat="49.96934" lon="2.13527">
        <ele>51.7</ele>
        <time>2024-04-17T12:06:31Z</time>
      </trkpt>
      <trkpt lat="49.96934" lon="2.13527">
        <ele>51.7</ele>
        <time>2024-04-17T12:06:32Z</time>
      </trkpt>
      <trkpt lat="49.96935" lon="2.13526">
        <ele>51.7</ele>
        <time>2024-04-17T12:06:33Z</time>
      </trkpt>
      <trkpt lat="49.96936" lon="2.13525">
        <ele>51.8</ele>
        <time>2024-04-17T12:06:34Z</time>
      </trkpt>
      <trkpt lat="49.96937" lon="2.13524">
        <ele>51.8</ele>
        <time>2024-04-17T12:06:35Z</time>
      </trkpt>
      <trkpt lat="49.96938" lon="2.13523">
        <ele>51.8</ele>
        <time>2024-04-17T12:06:36Z</time>
      </trkpt>
      <trkpt lat="49.96938" lon="2.13522">
        <ele>51.8</ele>
        <time>2024-04-17T12:06:37Z</time>
      </trkpt>
      <trkpt lat="49.9694" lon="2.1352">
        <ele>51.8</ele>
        <time>2024-04-17T12:06:38Z</time>
      </trkpt>
      <trkpt lat="49.9694" lon="2.1352">
        <ele>51.9</ele>
        <time>2024-04-17T12:06:39Z</time>
      </trkpt>
      <trkpt lat="49.96941" lon="2.13519">
        <ele>51.9</ele>
        <time>2024-04-17T12:06:40Z</time>
      </trkpt>
      <trkpt lat="49.96941" lon="2.13518">
        <ele>51.9</ele>
        <time>2024-04-17T12:06:41Z</time>
      </trkpt>
      <trkpt lat="49.96942" lon="2.13517">
        <ele>51.9</ele>
        <time>2024-04-17T12:06:42Z</time>
      </trkpt>
      <trkpt lat="49.96943" lon="2.13516">
        <ele>51.9</ele>
        <time>2024-04-17T12:06:43Z</time>
      </trkpt>
      <trkpt lat="49.96944" lon="2.13516">
        <ele>51.9</ele>
        <time>2024-04-17T12:06:44Z</time>
      </trkpt>
      <trkpt lat="49.96945" lon="2.13515">
        <ele>52</ele>
        <time>2024-04-17T12:06:45Z</time>
      </trkpt>
      <trkpt lat="49.96946" lon="2.13515">
        <ele>52</ele>
        <time>2024-04-17T12:06:46Z</time>
      </trkpt>
      <trkpt lat="49.96947" lon="2.13514">
        <ele>52</ele>
        <time>2024-04-17T12:06:47Z</time>
      </trkpt>
      <trkpt lat="49.96948" lon="2.13513">
        <ele>52</ele>
        <time>2024-04-17T12:06:48Z</time>
      </trkpt>
      <trkpt lat="49.96949" lon="2.13512">
        <ele>52</ele>
        <time>2024-04-17T12:06:49Z</time>
      </trkpt>
      <trkpt lat="49.9695" lon="2.13512">
        <ele>52.1</ele>
        <time>2024-04-17T12:06:50Z</time>
      </trkpt>
      <trkpt lat="49.96951" lon="2.13511">
        <ele>52.1</ele>
        <time>2024-04-17T12:06:51Z</time>
      </trkpt>
      <trkpt lat="49.96952" lon="2.1351">
        <ele>52.1</ele>
        <time>2024-04-17T12:06:52Z</time>
      </trkpt>
      <trkpt lat="49.96954" lon="2.13509">
        <ele>52.2</ele>
        <time>2024-04-17T12:06:53Z</time>
      </trkpt>
      <trkpt lat="49.96955" lon="2.13508">
        <ele>52.2</ele>
        <time>2024-04-17T12:06:54Z</time>
      </trkpt>
      <trkpt lat="49.96956" lon="2.13508">
        <ele>52.2</ele>
        <time>2024-04-17T12:06:55Z</time>
      </trkpt>
      <trkpt lat="49.96957" lon="2.13507">
        <ele>52.2</ele>
        <time>2024-04-17T12:06:56Z</time>
      </trkpt>
      <trkpt lat="49.96958" lon="2.13507">
        <ele>52.2</ele>
        <time>2024-04-17T12:06:57Z</time>
      </trkpt>
      <trkpt lat="49.96959" lon="2.13506">
        <ele>52.2</ele>
        <time>2024-04-17T12:06:58Z</time>
      </trkpt>
      <trkpt lat="49.9696" lon="2.13505">
        <ele>52.3</ele>
        <time>2024-04-17T12:06:59Z</time>
      </trkpt>
      <trkpt lat="49.96961" lon="2.13504">
        <ele>52.3</ele>
        <time>2024-04-17T12:07:00Z</time>
      </trkpt>
      <trkpt lat="49.96962" lon="2.13503">
        <ele>52.3</ele>
        <time>2024-04-17T12:07:01Z</time>
      </trkpt>
      <trkpt lat="49.96963" lon="2.13501">
        <ele>52.3</ele>
        <time>2024-04-17T12:07:02Z</time>
      </trkpt>
      <trkpt lat="49.96964" lon="2.13501">
        <ele>52.3</ele>
        <time>2024-04-17T12:07:03Z</time>
      </trkpt>
      <trkpt lat="49.96965" lon="2.135">
        <ele>52.3</ele>
        <time>2024-04-17T12:07:04Z</time>
      </trkpt>
      <trkpt lat="49.96966" lon="2.13499">
        <ele>52.3</ele>
        <time>2024-04-17T12:07:05Z</time>
      </trkpt>
      <trkpt lat="49.96967" lon="2.13499">
        <ele>52.3</ele>
        <time>2024-04-17T12:07:06Z</time>
      </trkpt>
      <trkpt lat="49.96968" lon="2.13498">
        <ele>52.3</ele>
        <time>2024-04-17T12:07:07Z</time>
      </trkpt>
      <trkpt lat="49.96969" lon="2.13497">
        <ele>52.4</ele>
        <time>2024-04-17T12:07:08Z</time>
      </trkpt>
      <trkpt lat="49.9697" lon="2.13496">
        <ele>52.4</ele>
        <time>2024-04-17T12:07:09Z</time>
      </trkpt>
      <trkpt lat="49.96971" lon="2.13496">
        <ele>52.4</ele>
        <time>2024-04-17T12:07:10Z</time>
      </trkpt>
      <trkpt lat="49.96972" lon="2.13495">
        <ele>52.4</ele>
        <time>2024-04-17T12:07:11Z</time>
      </trkpt>
      <trkpt lat="49.96973" lon="2.13495">
        <ele>52.4</ele>
        <time>2024-04-17T12:07:12Z</time>
      </trkpt>
      <trkpt lat="49.96974" lon="2.13494">
        <ele>52.4</ele>
        <time>2024-04-17T12:07:13Z</time>
      </trkpt>
      <trkpt lat="49.96975" lon="2.13493">
        <ele>52.4</ele>
        <time>2024-04-17T12:07:14Z</time>
      </trkpt>
      <trkpt lat="49.96976" lon="2.13493">
        <ele>52.5</ele>
        <time>2024-04-17T12:07:15Z</time>
      </trkpt>
      <trkpt lat="49.96977" lon="2.13492">
        <ele>52.5</ele>
        <time>2024-04-17T12:07:16Z</time>
      </trkpt>
      <trkpt lat="49.96979" lon="2.13491">
        <ele>52.5</ele>
        <time>2024-04-17T12:07:17Z</time>
      </trkpt>
      <trkpt lat="49.9698" lon="2.1349">
        <ele>52.5</ele>
        <time>2024-04-17T12:07:18Z</time>
      </trkpt>
      <trkpt lat="49.9698" lon="2.13489">
        <ele>52.5</ele>
        <time>2024-04-17T12:07:19Z</time>
      </trkpt>
      <trkpt lat="49.96982" lon="2.13488">
        <ele>52.6</ele>
        <time>2024-04-17T12:07:20Z</time>
      </trkpt>
      <trkpt lat="49.96983" lon="2.13487">
        <ele>52.6</ele>
        <time>2024-04-17T12:07:21Z</time>
      </trkpt>
      <trkpt lat="49.96984" lon="2.13487">
        <ele>52.6</ele>
        <time>2024-04-17T12:07:22Z</time>
      </trkpt>
      <trkpt lat="49.96986" lon="2.13485">
        <ele>52.6</ele>
        <time>2024-04-17T12:07:23Z</time>
      </trkpt>
      <trkpt lat="49.96986" lon="2.13484">
        <ele>52.6</ele>
        <time>2024-04-17T12:07:24Z</time>
      </trkpt>
      <trkpt lat="49.96987" lon="2.13484">
        <ele>52.6</ele>
        <time>2024-04-17T12:07:25Z</time>
      </trkpt>
      <trkpt lat="49.96989" lon="2.13482">
        <ele>52.7</ele>
        <time>2024-04-17T12:07:26Z</time>
      </trkpt>
      <trkpt lat="49.96989" lon="2.13481">
        <ele>52.7</ele>
        <time>2024-04-17T12:07:27Z</time>
      </trkpt>
      <trkpt lat="49.9699" lon="2.13481">
        <ele>52.7</ele>
        <time>2024-04-17T12:07:28Z</time>
      </trkpt>
      <trkpt lat="49.96992" lon="2.13479">
        <ele>52.7</ele>
        <time>2024-04-17T12:07:29Z</time>
      </trkpt>
      <trkpt lat="49.96993" lon="2.13479">
        <ele>52.7</ele>
        <time>2024-04-17T12:07:30Z</time>
      </trkpt>
      <trkpt lat="49.96993" lon="2.13478">
        <ele>52.7</ele>
        <time>2024-04-17T12:07:31Z</time>
      </trkpt>
      <trkpt lat="49.96995" lon="2.13476">
        <ele>52.7</ele>
        <time>2024-04-17T12:07:32Z</time>
      </trkpt>
      <trkpt lat="49.96996" lon="2.13476">
        <ele>52.7</ele>
        <time>2024-04-17T12:07:33Z</time>
      </trkpt>
      <trkpt lat="49.96997" lon="2.13475">
        <ele>52.7</ele>
        <time>2024-04-17T12:07:34Z</time>
      </trkpt>
      <trkpt lat="49.96998" lon="2.13473">
        <ele>52.8</ele>
        <time>2024-04-17T12:07:35Z</time>
      </trkpt>
      <trkpt lat="49.96999" lon="2.13472">
        <ele>52.8</ele>
        <time>2024-04-17T12:07:36Z</time>
      </trkpt>
      <trkpt lat="49.97" lon="2.13472">
        <ele>52.8</ele>
        <time>2024-04-17T12:07:37Z</time>
      </trkpt>
      <trkpt lat="49.97001" lon="2.13471">
        <ele>52.8</ele>
        <time>2024-04-17T12:07:38Z</time>
      </trkpt>
      <trkpt lat="49.97002" lon="2.1347">
        <ele>52.8</ele>
        <time>2024-04-17T12:07:39Z</time>
      </trkpt>
      <trkpt lat="49.97003" lon="2.13469">
        <ele>52.8</ele>
        <time>2024-04-17T12:07:40Z</time>
      </trkpt>
      <trkpt lat="49.97004" lon="2.13467">
        <ele>52.8</ele>
        <time>2024-04-17T12:07:41Z</time>
      </trkpt>
      <trkpt lat="49.97005" lon="2.13466">
        <ele>52.8</ele>
        <time>2024-04-17T12:07:42Z</time>
      </trkpt>
      <trkpt lat="49.97006" lon="2.13465">
        <ele>52.8</ele>
        <time>2024-04-17T12:07:43Z</time>
      </trkpt>
      <trkpt lat="49.97006" lon="2.13464">
        <ele>52.8</ele>
        <time>2024-04-17T12:07:44Z</time>
      </trkpt>
      <trkpt lat="49.97007" lon="2.13463">
        <ele>52.8</ele>
        <time>2024-04-17T12:07:45Z</time>
      </trkpt>
      <trkpt lat="49.97008" lon="2.13462">
        <ele>52.9</ele>
        <time>2024-04-17T12:07:46Z</time>
      </trkpt>
      <trkpt lat="49.9701" lon="2.13459">
        <ele>52.9</ele>
        <time>2024-04-17T12:07:47Z</time>
      </trkpt>
      <trkpt lat="49.9701" lon="2.13459">
        <ele>52.9</ele>
        <time>2024-04-17T12:07:48Z</time>
      </trkpt>
      <trkpt lat="49.97011" lon="2.13458">
        <ele>52.9</ele>
        <time>2024-04-17T12:07:49Z</time>
      </trkpt>
      <trkpt lat="49.97013" lon="2.13455">
        <ele>52.9</ele>
        <time>2024-04-17T12:07:50Z</time>
      </trkpt>
      <trkpt lat="49.97013" lon="2.13454">
        <ele>52.9</ele>
        <time>2024-04-17T12:07:51Z</time>
      </trkpt>
      <trkpt lat="49.97014" lon="2.13454">
        <ele>52.9</ele>
        <time>2024-04-17T12:07:52Z</time>
      </trkpt>
      <trkpt lat="49.97015" lon="2.13452">
        <ele>52.9</ele>
        <time>2024-04-17T12:07:53Z</time>
      </trkpt>
      <trkpt lat="49.97016" lon="2.13451">
        <ele>52.9</ele>
        <time>2024-04-17T12:07:54Z</time>
      </trkpt>
      <trkpt lat="49.97017" lon="2.1345">
        <ele>52.9</ele>
        <time>2024-04-17T12:07:55Z</time>
      </trkpt>
      <trkpt lat="49.97018" lon="2.13449">
        <ele>52.9</ele>
        <time>2024-04-17T12:07:56Z</time>
      </trkpt>
      <trkpt lat="49.9702" lon="2.13447">
        <ele>52.9</ele>
        <time>2024-04-17T12:07:57Z</time>
      </trkpt>
      <trkpt lat="49.97021" lon="2.13446">
        <ele>53</ele>
        <time>2024-04-17T12:07:58Z</time>
      </trkpt>
      <trkpt lat="49.97022" lon="2.13446">
        <ele>53</ele>
        <time>2024-04-17T12:07:59Z</time>
      </trkpt>
      <trkpt lat="49.97023" lon="2.13445">
        <ele>53</ele>
        <time>2024-04-17T12:08:00Z</time>
      </trkpt>
      <trkpt lat="49.97024" lon="2.13444">
        <ele>53</ele>
        <time>2024-04-17T12:08:01Z</time>
      </trkpt>
      <trkpt lat="49.97026" lon="2.13442">
        <ele>53</ele>
        <time>2024-04-17T12:08:02Z</time>
      </trkpt>
      <trkpt lat="49.97027" lon="2.13441">
        <ele>53</ele>
        <time>2024-04-17T12:08:03Z</time>
      </trkpt>
      <trkpt lat="49.97028" lon="2.13441">
        <ele>53</ele>
        <time>2024-04-17T12:08:04Z</time>
      </trkpt>
      <trkpt lat="49.97029" lon="2.13439">
        <ele>53</ele>
        <time>2024-04-17T12:08:05Z</time>
      </trkpt>
      <trkpt lat="49.9703" lon="2.13438">
        <ele>53</ele>
        <time>2024-04-17T12:08:06Z</time>
      </trkpt>
      <trkpt lat="49.97031" lon="2.13437">
        <ele>53</ele>
        <time>2024-04-17T12:08:07Z</time>
      </trkpt>
      <trkpt lat="49.97032" lon="2.13437">
        <ele>53</ele>
        <time>2024-04-17T12:08:08Z</time>
      </trkpt>
      <trkpt lat="49.97033" lon="2.13436">
        <ele>53</ele>
        <time>2024-04-17T12:08:09Z</time>
      </trkpt>
      <trkpt lat="49.97034" lon="2.13435">
        <ele>53</ele>
        <time>2024-04-17T12:08:10Z</time>
      </trkpt>
      <trkpt lat="49.97035" lon="2.13434">
        <ele>53</ele>
        <time>2024-04-17T12:08:11Z</time>
      </trkpt>
      <trkpt lat="49.97036" lon="2.13433">
        <ele>53</ele>
        <time>2024-04-17T12:08:12Z</time>
      </trkpt>
      <trkpt lat="49.97037" lon="2.13432">
        <ele>53</ele>
        <time>2024-04-17T12:08:13Z</time>
      </trkpt>
      <trkpt lat="49.97038" lon="2.13431">
        <ele>53</ele>
        <time>2024-04-17T12:08:14Z</time>
      </trkpt>
      <trkpt lat="49.97039" lon="2.13431">
        <ele>53</ele>
        <time>2024-04-17T12:08:15Z</time>
      </trkpt>
      <trkpt lat="49.97039" lon="2.1343">
        <ele>53</ele>
        <time>2024-04-17T12:08:16Z</time>
      </trkpt>
      <trkpt lat="49.9704" lon="2.13429">
        <ele>53</ele>
        <time>2024-04-17T12:08:17Z</time>
      </trkpt>
      <trkpt lat="49.97041" lon="2.13428">
        <ele>53</ele>
        <time>2024-04-17T12:08:18Z</time>
      </trkpt>
      <trkpt lat="49.97042" lon="2.13428">
        <ele>53</ele>
        <time>2024-04-17T12:08:19Z</time>
      </trkpt>
      <trkpt lat="49.97042" lon="2.13427">
        <ele>53</ele>
        <time>2024-04-17T12:08:20Z</time>
      </trkpt>
      <trkpt lat="49.97043" lon="2.13426">
        <ele>53</ele>
        <time>2024-04-17T12:08:21Z</time>
      </trkpt>
      <trkpt lat="49.97044" lon="2.13426">
        <ele>53</ele>
        <time>2024-04-17T12:08:22Z</time>
      </trkpt>
      <trkpt lat="49.97045" lon="2.13425">
        <ele>53.1</ele>
        <time>2024-04-17T12:08:23Z</time>
      </trkpt>
      <trkpt lat="49.97046" lon="2.13425">
        <ele>53.1</ele>
        <time>2024-04-17T12:08:24Z</time>
      </trkpt>
      <trkpt lat="49.97047" lon="2.13424">
        <ele>53.1</ele>
        <time>2024-04-17T12:08:25Z</time>
      </trkpt>
      <trkpt lat="49.97048" lon="2.13423">
        <ele>53.1</ele>
        <time>2024-04-17T12:08:26Z</time>
      </trkpt>
      <trkpt lat="49.97049" lon="2.13422">
        <ele>53.1</ele>
        <time>2024-04-17T12:08:27Z</time>
      </trkpt>
      <trkpt lat="49.9705" lon="2.13421">
        <ele>53.1</ele>
        <time>2024-04-17T12:08:28Z</time>
      </trkpt>
      <trkpt lat="49.97051" lon="2.13421">
        <ele>53.1</ele>
        <time>2024-04-17T12:08:29Z</time>
      </trkpt>
      <trkpt lat="49.97052" lon="2.1342">
        <ele>53.1</ele>
        <time>2024-04-17T12:08:30Z</time>
      </trkpt>
      <trkpt lat="49.97054" lon="2.1342">
        <ele>53.1</ele>
        <time>2024-04-17T12:08:31Z</time>
      </trkpt>
      <trkpt lat="49.97056" lon="2.13419">
        <ele>53.1</ele>
        <time>2024-04-17T12:08:32Z</time>
      </trkpt>
      <trkpt lat="49.97056" lon="2.13419">
        <ele>53.1</ele>
        <time>2024-04-17T12:08:33Z</time>
      </trkpt>
      <trkpt lat="49.97057" lon="2.13419">
        <ele>53.1</ele>
        <time>2024-04-17T12:08:34Z</time>
      </trkpt>
      <trkpt lat="49.97058" lon="2.13419">
        <ele>53.1</ele>
        <time>2024-04-17T12:08:35Z</time>
      </trkpt>
      <trkpt lat="49.97059" lon="2.13418">
        <ele>53.1</ele>
        <time>2024-04-17T12:08:36Z</time>
      </trkpt>
      <trkpt lat="49.9706" lon="2.13418">
        <ele>53.1</ele>
        <time>2024-04-17T12:08:37Z</time>
      </trkpt>
      <trkpt lat="49.97061" lon="2.13417">
        <ele>53.1</ele>
        <time>2024-04-17T12:08:38Z</time>
      </trkpt>
      <trkpt lat="49.97062" lon="2.13416">
        <ele>53.1</ele>
        <time>2024-04-17T12:08:39Z</time>
      </trkpt>
      <trkpt lat="49.97063" lon="2.13415">
        <ele>53.1</ele>
        <time>2024-04-17T12:08:40Z</time>
      </trkpt>
      <trkpt lat="49.97064" lon="2.13415">
        <ele>53.1</ele>
        <time>2024-04-17T12:08:41Z</time>
      </trkpt>
      <trkpt lat="49.97065" lon="2.13414">
        <ele>53.1</ele>
        <time>2024-04-17T12:08:42Z</time>
      </trkpt>
      <trkpt lat="49.97066" lon="2.13414">
        <ele>53.1</ele>
        <time>2024-04-17T12:08:43Z</time>
      </trkpt>
      <trkpt lat="49.97068" lon="2.13414">
        <ele>53.1</ele>
        <time>2024-04-17T12:08:44Z</time>
      </trkpt>
      <trkpt lat="49.97069" lon="2.13414">
        <ele>53.1</ele>
        <time>2024-04-17T12:08:45Z</time>
      </trkpt>
      <trkpt lat="49.9707" lon="2.13414">
        <ele>53.1</ele>
        <time>2024-04-17T12:08:46Z</time>
      </trkpt>
      <trkpt lat="49.97072" lon="2.13415">
        <ele>53.1</ele>
        <time>2024-04-17T12:08:47Z</time>
      </trkpt>
      <trkpt lat="49.97073" lon="2.13415">
        <ele>53.2</ele>
        <time>2024-04-17T12:08:48Z</time>
      </trkpt>
      <trkpt lat="49.97074" lon="2.13415">
        <ele>53.2</ele>
        <time>2024-04-17T12:08:49Z</time>
      </trkpt>
      <trkpt lat="49.97075" lon="2.13415">
        <ele>53.2</ele>
        <time>2024-04-17T12:08:50Z</time>
      </trkpt>
      <trkpt lat="49.97077" lon="2.13415">
        <ele>53.2</ele>
        <time>2024-04-17T12:08:51Z</time>
      </trkpt>
      <trkpt lat="49.97078" lon="2.13416">
        <ele>53.2</ele>
        <time>2024-04-17T12:08:52Z</time>
      </trkpt>
      <trkpt lat="49.97079" lon="2.13416">
        <ele>53.2</ele>
        <time>2024-04-17T12:08:53Z</time>
      </trkpt>
      <trkpt lat="49.97081" lon="2.13416">
        <ele>53.2</ele>
        <time>2024-04-17T12:08:54Z</time>
      </trkpt>
      <trkpt lat="49.97082" lon="2.13417">
        <ele>53.2</ele>
        <time>2024-04-17T12:08:55Z</time>
      </trkpt>
      <trkpt lat="49.97084" lon="2.13417">
        <ele>53.2</ele>
        <time>2024-04-17T12:08:56Z</time>
      </trkpt>
      <trkpt lat="49.97085" lon="2.13417">
        <ele>53.2</ele>
        <time>2024-04-17T12:08:57Z</time>
      </trkpt>
      <trkpt lat="49.97086" lon="2.13417">
        <ele>53.2</ele>
        <time>2024-04-17T12:08:58Z</time>
      </trkpt>
      <trkpt lat="49.97088" lon="2.13417">
        <ele>53.3</ele>
        <time>2024-04-17T12:08:59Z</time>
      </trkpt>
      <trkpt lat="49.97089" lon="2.13418">
        <ele>53.3</ele>
        <time>2024-04-17T12:09:00Z</time>
      </trkpt>
      <trkpt lat="49.97091" lon="2.13418">
        <ele>53.3</ele>
        <time>2024-04-17T12:09:01Z</time>
      </trkpt>
      <trkpt lat="49.97093" lon="2.13419">
        <ele>53.3</ele>
        <time>2024-04-17T12:09:02Z</time>
      </trkpt>
      <trkpt lat="49.97094" lon="2.13419">
        <ele>53.3</ele>
        <time>2024-04-17T12:09:03Z</time>
      </trkpt>
      <trkpt lat="49.97094" lon="2.13419">
        <ele>53.3</ele>
        <time>2024-04-17T12:09:04Z</time>
      </trkpt>
      <trkpt lat="49.97096" lon="2.13419">
        <ele>53.3</ele>
        <time>2024-04-17T12:09:05Z</time>
      </trkpt>
      <trkpt lat="49.97097" lon="2.1342">
        <ele>53.3</ele>
        <time>2024-04-17T12:09:06Z</time>
      </trkpt>
      <trkpt lat="49.97098" lon="2.13421">
        <ele>53.4</ele>
        <time>2024-04-17T12:09:07Z</time>
      </trkpt>
      <trkpt lat="49.971" lon="2.13421">
        <ele>53.4</ele>
        <time>2024-04-17T12:09:08Z</time>
      </trkpt>
      <trkpt lat="49.971" lon="2.13421">
        <ele>53.4</ele>
        <time>2024-04-17T12:09:09Z</time>
      </trkpt>
      <trkpt lat="49.97101" lon="2.1342">
        <ele>53.4</ele>
        <time>2024-04-17T12:09:10Z</time>
      </trkpt>
      <trkpt lat="49.97102" lon="2.1342">
        <ele>53.4</ele>
        <time>2024-04-17T12:09:11Z</time>
      </trkpt>
      <trkpt lat="49.97103" lon="2.1342">
        <ele>53.4</ele>
        <time>2024-04-17T12:09:12Z</time>
      </trkpt>
      <trkpt lat="49.97104" lon="2.1342">
        <ele>53.4</ele>
        <time>2024-04-17T12:09:13Z</time>
      </trkpt>
      <trkpt lat="49.97106" lon="2.1342">
        <ele>53.5</ele>
        <time>2024-04-17T12:09:14Z</time>
      </trkpt>
      <trkpt lat="49.97107" lon="2.13421">
        <ele>53.5</ele>
        <time>2024-04-17T12:09:15Z</time>
      </trkpt>
      <trkpt lat="49.97108" lon="2.13421">
        <ele>53.5</ele>
        <time>2024-04-17T12:09:16Z</time>
      </trkpt>
      <trkpt lat="49.97109" lon="2.13421">
        <ele>53.5</ele>
        <time>2024-04-17T12:09:17Z</time>
      </trkpt>
      <trkpt lat="49.9711" lon="2.13421">
        <ele>53.5</ele>
        <time>2024-04-17T12:09:18Z</time>
      </trkpt>
      <trkpt lat="49.97111" lon="2.13421">
        <ele>53.5</ele>
        <time>2024-04-17T12:09:19Z</time>
      </trkpt>
      <trkpt lat="49.97112" lon="2.13421">
        <ele>53.5</ele>
        <time>2024-04-17T12:09:20Z</time>
      </trkpt>
      <trkpt lat="49.97113" lon="2.13421">
        <ele>53.5</ele>
        <time>2024-04-17T12:09:21Z</time>
      </trkpt>
      <trkpt lat="49.97114" lon="2.13421">
        <ele>53.5</ele>
        <time>2024-04-17T12:09:22Z</time>
      </trkpt>
      <trkpt lat="49.97115" lon="2.13422">
        <ele>53.6</ele>
        <time>2024-04-17T12:09:23Z</time>
      </trkpt>
      <trkpt lat="49.97116" lon="2.13422">
        <ele>53.6</ele>
        <time>2024-04-17T12:09:24Z</time>
      </trkpt>
      <trkpt lat="49.97117" lon="2.13422">
        <ele>53.6</ele>
        <time>2024-04-17T12:09:25Z</time>
      </trkpt>
      <trkpt lat="49.97119" lon="2.13422">
        <ele>53.6</ele>
        <time>2024-04-17T12:09:26Z</time>
      </trkpt>
      <trkpt lat="49.9712" lon="2.13422">
        <ele>53.6</ele>
        <time>2024-04-17T12:09:27Z</time>
      </trkpt>
      <trkpt lat="49.97121" lon="2.13422">
        <ele>53.6</ele>
        <time>2024-04-17T12:09:28Z</time>
      </trkpt>
      <trkpt lat="49.97122" lon="2.13422">
        <ele>53.6</ele>
        <time>2024-04-17T12:09:29Z</time>
      </trkpt>
      <trkpt lat="49.97123" lon="2.13422">
        <ele>53.6</ele>
        <time>2024-04-17T12:09:30Z</time>
      </trkpt>
      <trkpt lat="49.97124" lon="2.13421">
        <ele>53.7</ele>
        <time>2024-04-17T12:09:31Z</time>
      </trkpt>
      <trkpt lat="49.97125" lon="2.13421">
        <ele>53.7</ele>
        <time>2024-04-17T12:09:32Z</time>
      </trkpt>
      <trkpt lat="49.97126" lon="2.13421">
        <ele>53.7</ele>
        <time>2024-04-17T12:09:33Z</time>
      </trkpt>
      <trkpt lat="49.97127" lon="2.13421">
        <ele>53.7</ele>
        <time>2024-04-17T12:09:34Z</time>
      </trkpt>
      <trkpt lat="49.97128" lon="2.13421">
        <ele>53.7</ele>
        <time>2024-04-17T12:09:35Z</time>
      </trkpt>
      <trkpt lat="49.97129" lon="2.13421">
        <ele>53.7</ele>
        <time>2024-04-17T12:09:36Z</time>
      </trkpt>
      <trkpt lat="49.9713" lon="2.13422">
        <ele>53.7</ele>
        <time>2024-04-17T12:09:37Z</time>
      </trkpt>
      <trkpt lat="49.97131" lon="2.13423">
        <ele>53.7</ele>
        <time>2024-04-17T12:09:38Z</time>
      </trkpt>
      <trkpt lat="49.97131" lon="2.13423">
        <ele>53.7</ele>
        <time>2024-04-17T12:09:39Z</time>
      </trkpt>
      <trkpt lat="49.97132" lon="2.13424">
        <ele>53.7</ele>
        <time>2024-04-17T12:09:40Z</time>
      </trkpt>
      <trkpt lat="49.97133" lon="2.13424">
        <ele>53.8</ele>
        <time>2024-04-17T12:09:41Z</time>
      </trkpt>
      <trkpt lat="49.97134" lon="2.13425">
        <ele>53.8</ele>
        <time>2024-04-17T12:09:42Z</time>
      </trkpt>
      <trkpt lat="49.97134" lon="2.13425">
        <ele>53.8</ele>
        <time>2024-04-17T12:09:43Z</time>
      </trkpt>
      <trkpt lat="49.97135" lon="2.13425">
        <ele>53.8</ele>
        <time>2024-04-17T12:09:44Z</time>
      </trkpt>
      <trkpt lat="49.97135" lon="2.13426">
        <ele>53.8</ele>
        <time>2024-04-17T12:09:45Z</time>
      </trkpt>
      <trkpt lat="49.97136" lon="2.13426">
        <ele>53.8</ele>
        <time>2024-04-17T12:09:46Z</time>
      </trkpt>
      <trkpt lat="49.97136" lon="2.13427">
        <ele>53.8</ele>
        <time>2024-04-17T12:09:47Z</time>
      </trkpt>
      <trkpt lat="49.97136" lon="2.13428">
        <ele>53.8</ele>
        <time>2024-04-17T12:09:48Z</time>
      </trkpt>
      <trkpt lat="49.97137" lon="2.13428">
        <ele>53.8</ele>
        <time>2024-04-17T12:09:49Z</time>
      </trkpt>
      <trkpt lat="49.97137" lon="2.13428">
        <ele>53.8</ele>
        <time>2024-04-17T12:09:50Z</time>
      </trkpt>
      <trkpt lat="49.97138" lon="2.13429">
        <ele>53.8</ele>
        <time>2024-04-17T12:09:51Z</time>
      </trkpt>
      <trkpt lat="49.97139" lon="2.13429">
        <ele>53.8</ele>
        <time>2024-04-17T12:09:52Z</time>
      </trkpt>
      <trkpt lat="49.9714" lon="2.13429">
        <ele>53.8</ele>
        <time>2024-04-17T12:09:53Z</time>
      </trkpt>
      <trkpt lat="49.97141" lon="2.13428">
        <ele>53.8</ele>
        <time>2024-04-17T12:09:54Z</time>
      </trkpt>
      <trkpt lat="49.97142" lon="2.13428">
        <ele>53.8</ele>
        <time>2024-04-17T12:09:55Z</time>
      </trkpt>
      <trkpt lat="49.97144" lon="2.13427">
        <ele>53.8</ele>
        <time>2024-04-17T12:09:56Z</time>
      </trkpt>
      <trkpt lat="49.97145" lon="2.13427">
        <ele>53.8</ele>
        <time>2024-04-17T12:09:57Z</time>
      </trkpt>
      <trkpt lat="49.97146" lon="2.13427">
        <ele>53.8</ele>
        <time>2024-04-17T12:09:58Z</time>
      </trkpt>
      <trkpt lat="49.97148" lon="2.13427">
        <ele>53.8</ele>
        <time>2024-04-17T12:09:59Z</time>
      </trkpt>
      <trkpt lat="49.97149" lon="2.13427">
        <ele>53.8</ele>
        <time>2024-04-17T12:10:01Z</time>
      </trkpt>
      <trkpt lat="49.9715" lon="2.13427">
        <ele>53.8</ele>
        <time>2024-04-17T12:10:02Z</time>
      </trkpt>
      <trkpt lat="49.97151" lon="2.13426">
        <ele>53.8</ele>
        <time>2024-04-17T12:10:03Z</time>
      </trkpt>
      <trkpt lat="49.97152" lon="2.13426">
        <ele>53.7</ele>
        <time>2024-04-17T12:10:04Z</time>
      </trkpt>
      <trkpt lat="49.97153" lon="2.13426">
        <ele>53.7</ele>
        <time>2024-04-17T12:10:05Z</time>
      </trkpt>
      <trkpt lat="49.97154" lon="2.13426">
        <ele>53.7</ele>
        <time>2024-04-17T12:10:06Z</time>
      </trkpt>
      <trkpt lat="49.97156" lon="2.13426">
        <ele>53.7</ele>
        <time>2024-04-17T12:10:07Z</time>
      </trkpt>
      <trkpt lat="49.97157" lon="2.13426">
        <ele>53.7</ele>
        <time>2024-04-17T12:10:08Z</time>
      </trkpt>
      <trkpt lat="49.97159" lon="2.13426">
        <ele>53.7</ele>
        <time>2024-04-17T12:10:09Z</time>
      </trkpt>
      <trkpt lat="49.9716" lon="2.13426">
        <ele>53.7</ele>
        <time>2024-04-17T12:10:10Z</time>
      </trkpt>
      <trkpt lat="49.9716" lon="2.13426">
        <ele>53.7</ele>
        <time>2024-04-17T12:10:11Z</time>
      </trkpt>
      <trkpt lat="49.97162" lon="2.13426">
        <ele>53.7</ele>
        <time>2024-04-17T12:10:12Z</time>
      </trkpt>
      <trkpt lat="49.97163" lon="2.13427">
        <ele>53.7</ele>
        <time>2024-04-17T12:10:13Z</time>
      </trkpt>
      <trkpt lat="49.97164" lon="2.13427">
        <ele>53.7</ele>
        <time>2024-04-17T12:10:14Z</time>
      </trkpt>
      <trkpt lat="49.97166" lon="2.13427">
        <ele>53.7</ele>
        <time>2024-04-17T12:10:15Z</time>
      </trkpt>
      <trkpt lat="49.97167" lon="2.13426">
        <ele>53.6</ele>
        <time>2024-04-17T12:10:16Z</time>
      </trkpt>
      <trkpt lat="49.97169" lon="2.13426">
        <ele>53.6</ele>
        <time>2024-04-17T12:10:17Z</time>
      </trkpt>
      <trkpt lat="49.9717" lon="2.13426">
        <ele>53.6</ele>
        <time>2024-04-17T12:10:18Z</time>
      </trkpt>
      <trkpt lat="49.97171" lon="2.13426">
        <ele>53.6</ele>
        <time>2024-04-17T12:10:19Z</time>
      </trkpt>
      <trkpt lat="49.97172" lon="2.13426">
        <ele>53.6</ele>
        <time>2024-04-17T12:10:20Z</time>
      </trkpt>
      <trkpt lat="49.97173" lon="2.13425">
        <ele>53.6</ele>
        <time>2024-04-17T12:10:21Z</time>
      </trkpt>
      <trkpt lat="49.97174" lon="2.13425">
        <ele>53.6</ele>
        <time>2024-04-17T12:10:22Z</time>
      </trkpt>
      <trkpt lat="49.97175" lon="2.13425">
        <ele>53.7</ele>
        <time>2024-04-17T12:10:23Z</time>
      </trkpt>
      <trkpt lat="49.97176" lon="2.13425">
        <ele>53.7</ele>
        <time>2024-04-17T12:10:24Z</time>
      </trkpt>
      <trkpt lat="49.97177" lon="2.13425">
        <ele>53.7</ele>
        <time>2024-04-17T12:10:25Z</time>
      </trkpt>
      <trkpt lat="49.97178" lon="2.13426">
        <ele>53.7</ele>
        <time>2024-04-17T12:10:26Z</time>
      </trkpt>
      <trkpt lat="49.97179" lon="2.13426">
        <ele>53.7</ele>
        <time>2024-04-17T12:10:27Z</time>
      </trkpt>
      <trkpt lat="49.9718" lon="2.13426">
        <ele>53.7</ele>
        <time>2024-04-17T12:10:28Z</time>
      </trkpt>
      <trkpt lat="49.97181" lon="2.13426">
        <ele>53.7</ele>
        <time>2024-04-17T12:10:29Z</time>
      </trkpt>
      <trkpt lat="49.97182" lon="2.13427">
        <ele>53.7</ele>
        <time>2024-04-17T12:10:30Z</time>
      </trkpt>
      <trkpt lat="49.97183" lon="2.13427">
        <ele>53.7</ele>
        <time>2024-04-17T12:10:31Z</time>
      </trkpt>
      <trkpt lat="49.97185" lon="2.13427">
        <ele>53.7</ele>
        <time>2024-04-17T12:10:32Z</time>
      </trkpt>
      <trkpt lat="49.97186" lon="2.13427">
        <ele>53.7</ele>
        <time>2024-04-17T12:10:33Z</time>
      </trkpt>
      <trkpt lat="49.97187" lon="2.13427">
        <ele>53.7</ele>
        <time>2024-04-17T12:10:34Z</time>
      </trkpt>
      <trkpt lat="49.97188" lon="2.13427">
        <ele>53.7</ele>
        <time>2024-04-17T12:10:35Z</time>
      </trkpt>
      <trkpt lat="49.97189" lon="2.13427">
        <ele>53.7</ele>
        <time>2024-04-17T12:10:36Z</time>
      </trkpt>
      <trkpt lat="49.9719" lon="2.13427">
        <ele>53.7</ele>
        <time>2024-04-17T12:10:37Z</time>
      </trkpt>
      <trkpt lat="49.97191" lon="2.13427">
        <ele>53.7</ele>
        <time>2024-04-17T12:10:38Z</time>
      </trkpt>
      <trkpt lat="49.97192" lon="2.13427">
        <ele>53.7</ele>
        <time>2024-04-17T12:10:39Z</time>
      </trkpt>
      <trkpt lat="49.97193" lon="2.13427">
        <ele>53.7</ele>
        <time>2024-04-17T12:10:40Z</time>
      </trkpt>
      <trkpt lat="49.97194" lon="2.13428">
        <ele>53.7</ele>
        <time>2024-04-17T12:10:41Z</time>
      </trkpt>
      <trkpt lat="49.97196" lon="2.13428">
        <ele>53.7</ele>
        <time>2024-04-17T12:10:42Z</time>
      </trkpt>
      <trkpt lat="49.97197" lon="2.13428">
        <ele>53.7</ele>
        <time>2024-04-17T12:10:43Z</time>
      </trkpt>
      <trkpt lat="49.97198" lon="2.13428">
        <ele>53.8</ele>
        <time>2024-04-17T12:10:44Z</time>
      </trkpt>
      <trkpt lat="49.972" lon="2.13428">
        <ele>53.8</ele>
        <time>2024-04-17T12:10:45Z</time>
      </trkpt>
      <trkpt lat="49.97201" lon="2.13428">
        <ele>53.8</ele>
        <time>2024-04-17T12:10:46Z</time>
      </trkpt>
      <trkpt lat="49.97202" lon="2.13428">
        <ele>53.8</ele>
        <time>2024-04-17T12:10:47Z</time>
      </trkpt>
      <trkpt lat="49.97203" lon="2.13428">
        <ele>53.8</ele>
        <time>2024-04-17T12:10:48Z</time>
      </trkpt>
      <trkpt lat="49.97204" lon="2.13428">
        <ele>53.8</ele>
        <time>2024-04-17T12:10:49Z</time>
      </trkpt>
      <trkpt lat="49.97205" lon="2.13429">
        <ele>53.8</ele>
        <time>2024-04-17T12:10:50Z</time>
      </trkpt>
      <trkpt lat="49.97206" lon="2.13429">
        <ele>53.8</ele>
        <time>2024-04-17T12:10:51Z</time>
      </trkpt>
      <trkpt lat="49.97207" lon="2.13429">
        <ele>53.8</ele>
        <time>2024-04-17T12:10:52Z</time>
      </trkpt>
      <trkpt lat="49.97208" lon="2.13429">
        <ele>53.8</ele>
        <time>2024-04-17T12:10:53Z</time>
      </trkpt>
      <trkpt lat="49.9721" lon="2.1343">
        <ele>53.8</ele>
        <time>2024-04-17T12:10:54Z</time>
      </trkpt>
      <trkpt lat="49.97211" lon="2.1343">
        <ele>53.8</ele>
        <time>2024-04-17T12:10:55Z</time>
      </trkpt>
      <trkpt lat="49.97212" lon="2.1343">
        <ele>53.9</ele>
        <time>2024-04-17T12:10:56Z</time>
      </trkpt>
      <trkpt lat="49.97213" lon="2.13431">
        <ele>53.9</ele>
        <time>2024-04-17T12:10:57Z</time>
      </trkpt>
      <trkpt lat="49.97214" lon="2.13431">
        <ele>53.9</ele>
        <time>2024-04-17T12:10:58Z</time>
      </trkpt>
      <trkpt lat="49.97215" lon="2.13432">
        <ele>53.9</ele>
        <time>2024-04-17T12:10:59Z</time>
      </trkpt>
      <trkpt lat="49.97216" lon="2.13432">
        <ele>53.9</ele>
        <time>2024-04-17T12:11:00Z</time>
      </trkpt>
      <trkpt lat="49.97217" lon="2.13433">
        <ele>53.9</ele>
        <time>2024-04-17T12:11:01Z</time>
      </trkpt>
      <trkpt lat="49.97218" lon="2.13434">
        <ele>53.9</ele>
        <time>2024-04-17T12:11:02Z</time>
      </trkpt>
      <trkpt lat="49.9722" lon="2.13434">
        <ele>53.9</ele>
        <time>2024-04-17T12:11:03Z</time>
      </trkpt>
      <trkpt lat="49.97221" lon="2.13435">
        <ele>54</ele>
        <time>2024-04-17T12:11:04Z</time>
      </trkpt>
      <trkpt lat="49.97222" lon="2.13435">
        <ele>54</ele>
        <time>2024-04-17T12:11:05Z</time>
      </trkpt>
      <trkpt lat="49.97224" lon="2.13436">
        <ele>54</ele>
        <time>2024-04-17T12:11:06Z</time>
      </trkpt>
      <trkpt lat="49.97224" lon="2.13436">
        <ele>54</ele>
        <time>2024-04-17T12:11:07Z</time>
      </trkpt>
      <trkpt lat="49.97225" lon="2.13437">
        <ele>54</ele>
        <time>2024-04-17T12:11:08Z</time>
      </trkpt>
      <trkpt lat="49.97227" lon="2.13438">
        <ele>54</ele>
        <time>2024-04-17T12:11:09Z</time>
      </trkpt>
      <trkpt lat="49.97228" lon="2.13438">
        <ele>54</ele>
        <time>2024-04-17T12:11:10Z</time>
      </trkpt>
      <trkpt lat="49.97229" lon="2.13438">
        <ele>54</ele>
        <time>2024-04-17T12:11:11Z</time>
      </trkpt>
      <trkpt lat="49.97231" lon="2.13439">
        <ele>54.1</ele>
        <time>2024-04-17T12:11:12Z</time>
      </trkpt>
      <trkpt lat="49.97232" lon="2.1344">
        <ele>54.1</ele>
        <time>2024-04-17T12:11:13Z</time>
      </trkpt>
      <trkpt lat="49.97233" lon="2.1344">
        <ele>54.1</ele>
        <time>2024-04-17T12:11:14Z</time>
      </trkpt>
      <trkpt lat="49.97235" lon="2.1344">
        <ele>54.1</ele>
        <time>2024-04-17T12:11:16Z</time>
      </trkpt>
      <trkpt lat="49.97236" lon="2.13441">
        <ele>54.1</ele>
        <time>2024-04-17T12:11:17Z</time>
      </trkpt>
      <trkpt lat="49.97238" lon="2.13442">
        <ele>54.1</ele>
        <time>2024-04-17T12:11:18Z</time>
      </trkpt>
      <trkpt lat="49.97239" lon="2.13442">
        <ele>54.1</ele>
        <time>2024-04-17T12:11:19Z</time>
      </trkpt>
      <trkpt lat="49.9724" lon="2.13443">
        <ele>54.1</ele>
        <time>2024-04-17T12:11:20Z</time>
      </trkpt>
      <trkpt lat="49.97242" lon="2.13443">
        <ele>54.1</ele>
        <time>2024-04-17T12:11:21Z</time>
      </trkpt>
      <trkpt lat="49.97243" lon="2.13443">
        <ele>54.1</ele>
        <time>2024-04-17T12:11:22Z</time>
      </trkpt>
      <trkpt lat="49.97243" lon="2.13443">
        <ele>54.1</ele>
        <time>2024-04-17T12:11:23Z</time>
      </trkpt>
      <trkpt lat="49.97246" lon="2.13444">
        <ele>54.1</ele>
        <time>2024-04-17T12:11:24Z</time>
      </trkpt>
      <trkpt lat="49.97246" lon="2.13444">
        <ele>54.1</ele>
        <time>2024-04-17T12:11:25Z</time>
      </trkpt>
      <trkpt lat="49.97247" lon="2.13444">
        <ele>54.1</ele>
        <time>2024-04-17T12:11:26Z</time>
      </trkpt>
      <trkpt lat="49.97249" lon="2.13444">
        <ele>54.1</ele>
        <time>2024-04-17T12:11:27Z</time>
      </trkpt>
      <trkpt lat="49.9725" lon="2.13444">
        <ele>54.1</ele>
        <time>2024-04-17T12:11:28Z</time>
      </trkpt>
      <trkpt lat="49.97251" lon="2.13444">
        <ele>54.1</ele>
        <time>2024-04-17T12:11:29Z</time>
      </trkpt>
      <trkpt lat="49.97252" lon="2.13444">
        <ele>54.2</ele>
        <time>2024-04-17T12:11:30Z</time>
      </trkpt>
      <trkpt lat="49.97253" lon="2.13444">
        <ele>54.2</ele>
        <time>2024-04-17T12:11:31Z</time>
      </trkpt>
      <trkpt lat="49.97254" lon="2.13444">
        <ele>54.2</ele>
        <time>2024-04-17T12:11:32Z</time>
      </trkpt>
      <trkpt lat="49.97255" lon="2.13444">
        <ele>54.2</ele>
        <time>2024-04-17T12:11:33Z</time>
      </trkpt>
      <trkpt lat="49.97257" lon="2.13444">
        <ele>54.2</ele>
        <time>2024-04-17T12:11:34Z</time>
      </trkpt>
      <trkpt lat="49.97258" lon="2.13444">
        <ele>54.3</ele>
        <time>2024-04-17T12:11:35Z</time>
      </trkpt>
      <trkpt lat="49.97259" lon="2.13445">
        <ele>54.3</ele>
        <time>2024-04-17T12:11:36Z</time>
      </trkpt>
      <trkpt lat="49.9726" lon="2.13445">
        <ele>54.3</ele>
        <time>2024-04-17T12:11:37Z</time>
      </trkpt>
      <trkpt lat="49.97261" lon="2.13445">
        <ele>54.3</ele>
        <time>2024-04-17T12:11:38Z</time>
      </trkpt>
      <trkpt lat="49.97262" lon="2.13445">
        <ele>54.3</ele>
        <time>2024-04-17T12:11:39Z</time>
      </trkpt>
      <trkpt lat="49.97263" lon="2.13445">
        <ele>54.4</ele>
        <time>2024-04-17T12:11:40Z</time>
      </trkpt>
      <trkpt lat="49.97264" lon="2.13446">
        <ele>54.4</ele>
        <time>2024-04-17T12:11:41Z</time>
      </trkpt>
      <trkpt lat="49.97266" lon="2.13446">
        <ele>54.4</ele>
        <time>2024-04-17T12:11:42Z</time>
      </trkpt>
      <trkpt lat="49.97267" lon="2.13446">
        <ele>54.4</ele>
        <time>2024-04-17T12:11:43Z</time>
      </trkpt>
      <trkpt lat="49.97268" lon="2.13447">
        <ele>54.4</ele>
        <time>2024-04-17T12:11:44Z</time>
      </trkpt>
      <trkpt lat="49.97269" lon="2.13447">
        <ele>54.4</ele>
        <time>2024-04-17T12:11:45Z</time>
      </trkpt>
      <trkpt lat="49.9727" lon="2.13447">
        <ele>54.4</ele>
        <time>2024-04-17T12:11:46Z</time>
      </trkpt>
      <trkpt lat="49.97271" lon="2.13447">
        <ele>54.4</ele>
        <time>2024-04-17T12:11:47Z</time>
      </trkpt>
      <trkpt lat="49.97272" lon="2.13447">
        <ele>54.4</ele>
        <time>2024-04-17T12:11:48Z</time>
      </trkpt>
      <trkpt lat="49.97273" lon="2.13448">
        <ele>54.4</ele>
        <time>2024-04-17T12:11:49Z</time>
      </trkpt>
      <trkpt lat="49.97274" lon="2.13448">
        <ele>54.4</ele>
        <time>2024-04-17T12:11:50Z</time>
      </trkpt>
      <trkpt lat="49.97275" lon="2.13449">
        <ele>54.4</ele>
        <time>2024-04-17T12:11:51Z</time>
      </trkpt>
      <trkpt lat="49.97276" lon="2.13449">
        <ele>54.4</ele>
        <time>2024-04-17T12:11:52Z</time>
      </trkpt>
      <trkpt lat="49.97277" lon="2.1345">
        <ele>54.4</ele>
        <time>2024-04-17T12:11:53Z</time>
      </trkpt>
      <trkpt lat="49.97279" lon="2.1345">
        <ele>54.4</ele>
        <time>2024-04-17T12:11:54Z</time>
      </trkpt>
      <trkpt lat="49.9728" lon="2.1345">
        <ele>54.4</ele>
        <time>2024-04-17T12:11:55Z</time>
      </trkpt>
      <trkpt lat="49.97281" lon="2.13449">
        <ele>54.4</ele>
        <time>2024-04-17T12:11:56Z</time>
      </trkpt>
      <trkpt lat="49.97282" lon="2.1345">
        <ele>54.4</ele>
        <time>2024-04-17T12:11:57Z</time>
      </trkpt>
      <trkpt lat="49.97283" lon="2.1345">
        <ele>54.4</ele>
        <time>2024-04-17T12:11:58Z</time>
      </trkpt>
      <trkpt lat="49.97284" lon="2.1345">
        <ele>54.4</ele>
        <time>2024-04-17T12:11:59Z</time>
      </trkpt>
      <trkpt lat="49.97284" lon="2.1345">
        <ele>54.4</ele>
        <time>2024-04-17T12:12:00Z</time>
      </trkpt>
      <trkpt lat="49.97284" lon="2.1345">
        <ele>54.4</ele>
        <time>2024-04-17T12:12:01Z</time>
      </trkpt>
      <trkpt lat="49.97285" lon="2.1345">
        <ele>54.4</ele>
        <time>2024-04-17T12:12:02Z</time>
      </trkpt>
      <trkpt lat="49.97285" lon="2.13451">
        <ele>54.4</ele>
        <time>2024-04-17T12:12:03Z</time>
      </trkpt>
      <trkpt lat="49.97286" lon="2.13451">
        <ele>54.4</ele>
        <time>2024-04-17T12:12:04Z</time>
      </trkpt>
      <trkpt lat="49.97287" lon="2.13451">
        <ele>54.4</ele>
        <time>2024-04-17T12:12:05Z</time>
      </trkpt>
      <trkpt lat="49.97288" lon="2.13451">
        <ele>54.4</ele>
        <time>2024-04-17T12:12:06Z</time>
      </trkpt>
      <trkpt lat="49.97289" lon="2.13451">
        <ele>54.4</ele>
        <time>2024-04-17T12:12:07Z</time>
      </trkpt>
      <trkpt lat="49.97289" lon="2.13451">
        <ele>54.4</ele>
        <time>2024-04-17T12:12:08Z</time>
      </trkpt>
      <trkpt lat="49.9729" lon="2.13451">
        <ele>54.5</ele>
        <time>2024-04-17T12:12:09Z</time>
      </trkpt>
      <trkpt lat="49.97291" lon="2.1345">
        <ele>54.5</ele>
        <time>2024-04-17T12:12:10Z</time>
      </trkpt>
      <trkpt lat="49.97292" lon="2.1345">
        <ele>54.5</ele>
        <time>2024-04-17T12:12:11Z</time>
      </trkpt>
      <trkpt lat="49.97293" lon="2.13451">
        <ele>54.5</ele>
        <time>2024-04-17T12:12:12Z</time>
      </trkpt>
      <trkpt lat="49.97294" lon="2.13451">
        <ele>54.5</ele>
        <time>2024-04-17T12:12:13Z</time>
      </trkpt>
      <trkpt lat="49.97295" lon="2.1345">
        <ele>54.5</ele>
        <time>2024-04-17T12:12:14Z</time>
      </trkpt>
      <trkpt lat="49.97295" lon="2.13451">
        <ele>54.5</ele>
        <time>2024-04-17T12:12:15Z</time>
      </trkpt>
      <trkpt lat="49.97296" lon="2.13451">
        <ele>54.5</ele>
        <time>2024-04-17T12:12:16Z</time>
      </trkpt>
      <trkpt lat="49.97297" lon="2.13451">
        <ele>54.5</ele>
        <time>2024-04-17T12:12:17Z</time>
      </trkpt>
      <trkpt lat="49.97298" lon="2.13451">
        <ele>54.5</ele>
        <time>2024-04-17T12:12:18Z</time>
      </trkpt>
      <trkpt lat="49.97299" lon="2.13452">
        <ele>54.5</ele>
        <time>2024-04-17T12:12:19Z</time>
      </trkpt>
      <trkpt lat="49.973" lon="2.13452">
        <ele>54.5</ele>
        <time>2024-04-17T12:12:20Z</time>
      </trkpt>
      <trkpt lat="49.97301" lon="2.13452">
        <ele>54.6</ele>
        <time>2024-04-17T12:12:21Z</time>
      </trkpt>
      <trkpt lat="49.97302" lon="2.13452">
        <ele>54.6</ele>
        <time>2024-04-17T12:12:22Z</time>
      </trkpt>
      <trkpt lat="49.97303" lon="2.13452">
        <ele>54.6</ele>
        <time>2024-04-17T12:12:23Z</time>
      </trkpt>
      <trkpt lat="49.97305" lon="2.13453">
        <ele>54.6</ele>
        <time>2024-04-17T12:12:24Z</time>
      </trkpt>
      <trkpt lat="49.97306" lon="2.13453">
        <ele>54.6</ele>
        <time>2024-04-17T12:12:25Z</time>
      </trkpt>
      <trkpt lat="49.97307" lon="2.13453">
        <ele>54.6</ele>
        <time>2024-04-17T12:12:26Z</time>
      </trkpt>
      <trkpt lat="49.97309" lon="2.13453">
        <ele>54.6</ele>
        <time>2024-04-17T12:12:27Z</time>
      </trkpt>
      <trkpt lat="49.9731" lon="2.13454">
        <ele>54.6</ele>
        <time>2024-04-17T12:12:28Z</time>
      </trkpt>
      <trkpt lat="49.97311" lon="2.13454">
        <ele>54.6</ele>
        <time>2024-04-17T12:12:29Z</time>
      </trkpt>
      <trkpt lat="49.97313" lon="2.13455">
        <ele>54.6</ele>
        <time>2024-04-17T12:12:30Z</time>
      </trkpt>
      <trkpt lat="49.97314" lon="2.13455">
        <ele>54.6</ele>
        <time>2024-04-17T12:12:31Z</time>
      </trkpt>
      <trkpt lat="49.97317" lon="2.13455">
        <ele>54.7</ele>
        <time>2024-04-17T12:12:32Z</time>
      </trkpt>
      <trkpt lat="49.97318" lon="2.13455">
        <ele>54.7</ele>
        <time>2024-04-17T12:12:33Z</time>
      </trkpt>
      <trkpt lat="49.9732" lon="2.13456">
        <ele>54.7</ele>
        <time>2024-04-17T12:12:34Z</time>
      </trkpt>
      <trkpt lat="49.97321" lon="2.13456">
        <ele>54.7</ele>
        <time>2024-04-17T12:12:35Z</time>
      </trkpt>
      <trkpt lat="49.97323" lon="2.13456">
        <ele>54.7</ele>
        <time>2024-04-17T12:12:36Z</time>
      </trkpt>
      <trkpt lat="49.97324" lon="2.13456">
        <ele>54.7</ele>
        <time>2024-04-17T12:12:37Z</time>
      </trkpt>
      <trkpt lat="49.97326" lon="2.13456">
        <ele>54.7</ele>
        <time>2024-04-17T12:12:38Z</time>
      </trkpt>
      <trkpt lat="49.97328" lon="2.13456">
        <ele>54.7</ele>
        <time>2024-04-17T12:12:39Z</time>
      </trkpt>
      <trkpt lat="49.97329" lon="2.13456">
        <ele>54.8</ele>
        <time>2024-04-17T12:12:40Z</time>
      </trkpt>
      <trkpt lat="49.97331" lon="2.13456">
        <ele>54.8</ele>
        <time>2024-04-17T12:12:41Z</time>
      </trkpt>
      <trkpt lat="49.97332" lon="2.13457">
        <ele>54.8</ele>
        <time>2024-04-17T12:12:42Z</time>
      </trkpt>
      <trkpt lat="49.97333" lon="2.13457">
        <ele>54.8</ele>
        <time>2024-04-17T12:12:43Z</time>
      </trkpt>
      <trkpt lat="49.97335" lon="2.13457">
        <ele>54.8</ele>
        <time>2024-04-17T12:12:44Z</time>
      </trkpt>
      <trkpt lat="49.97336" lon="2.13457">
        <ele>54.8</ele>
        <time>2024-04-17T12:12:45Z</time>
      </trkpt>
      <trkpt lat="49.97338" lon="2.13457">
        <ele>54.8</ele>
        <time>2024-04-17T12:12:46Z</time>
      </trkpt>
      <trkpt lat="49.97339" lon="2.13457">
        <ele>54.9</ele>
        <time>2024-04-17T12:12:47Z</time>
      </trkpt>
      <trkpt lat="49.97342" lon="2.13457">
        <ele>54.9</ele>
        <time>2024-04-17T12:12:48Z</time>
      </trkpt>
      <trkpt lat="49.97342" lon="2.13457">
        <ele>54.9</ele>
        <time>2024-04-17T12:12:49Z</time>
      </trkpt>
      <trkpt lat="49.97343" lon="2.13457">
        <ele>54.9</ele>
        <time>2024-04-17T12:12:50Z</time>
      </trkpt>
      <trkpt lat="49.97345" lon="2.13457">
        <ele>54.9</ele>
        <time>2024-04-17T12:12:51Z</time>
      </trkpt>
      <trkpt lat="49.97346" lon="2.13457">
        <ele>54.9</ele>
        <time>2024-04-17T12:12:52Z</time>
      </trkpt>
      <trkpt lat="49.97347" lon="2.13457">
        <ele>54.9</ele>
        <time>2024-04-17T12:12:53Z</time>
      </trkpt>
      <trkpt lat="49.97348" lon="2.13457">
        <ele>54.9</ele>
        <time>2024-04-17T12:12:54Z</time>
      </trkpt>
      <trkpt lat="49.97349" lon="2.13458">
        <ele>55</ele>
        <time>2024-04-17T12:12:55Z</time>
      </trkpt>
      <trkpt lat="49.9735" lon="2.13458">
        <ele>55</ele>
        <time>2024-04-17T12:12:56Z</time>
      </trkpt>
      <trkpt lat="49.97351" lon="2.13457">
        <ele>55</ele>
        <time>2024-04-17T12:12:57Z</time>
      </trkpt>
      <trkpt lat="49.97353" lon="2.13457">
        <ele>55</ele>
        <time>2024-04-17T12:12:58Z</time>
      </trkpt>
      <trkpt lat="49.97354" lon="2.13457">
        <ele>55</ele>
        <time>2024-04-17T12:12:59Z</time>
      </trkpt>
      <trkpt lat="49.97356" lon="2.13457">
        <ele>55</ele>
        <time>2024-04-17T12:13:00Z</time>
      </trkpt>
      <trkpt lat="49.97357" lon="2.13457">
        <ele>55</ele>
        <time>2024-04-17T12:13:01Z</time>
      </trkpt>
      <trkpt lat="49.97357" lon="2.13457">
        <ele>55</ele>
        <time>2024-04-17T12:13:02Z</time>
      </trkpt>
      <trkpt lat="49.97359" lon="2.13457">
        <ele>55.1</ele>
        <time>2024-04-17T12:13:03Z</time>
      </trkpt>
      <trkpt lat="49.9736" lon="2.13457">
        <ele>55.1</ele>
        <time>2024-04-17T12:13:04Z</time>
      </trkpt>
      <trkpt lat="49.97361" lon="2.13457">
        <ele>55.1</ele>
        <time>2024-04-17T12:13:05Z</time>
      </trkpt>
      <trkpt lat="49.97362" lon="2.13457">
        <ele>55.1</ele>
        <time>2024-04-17T12:13:06Z</time>
      </trkpt>
      <trkpt lat="49.97363" lon="2.13457">
        <ele>55.1</ele>
        <time>2024-04-17T12:13:07Z</time>
      </trkpt>
      <trkpt lat="49.97364" lon="2.13457">
        <ele>55.1</ele>
        <time>2024-04-17T12:13:08Z</time>
      </trkpt>
      <trkpt lat="49.97365" lon="2.13458">
        <ele>55.1</ele>
        <time>2024-04-17T12:13:09Z</time>
      </trkpt>
      <trkpt lat="49.97366" lon="2.13458">
        <ele>55.1</ele>
        <time>2024-04-17T12:13:10Z</time>
      </trkpt>
      <trkpt lat="49.97367" lon="2.13458">
        <ele>55.2</ele>
        <time>2024-04-17T12:13:11Z</time>
      </trkpt>
      <trkpt lat="49.97368" lon="2.13458">
        <ele>55.2</ele>
        <time>2024-04-17T12:13:12Z</time>
      </trkpt>
      <trkpt lat="49.97369" lon="2.13458">
        <ele>55.2</ele>
        <time>2024-04-17T12:13:13Z</time>
      </trkpt>
      <trkpt lat="49.97371" lon="2.13458">
        <ele>55.2</ele>
        <time>2024-04-17T12:13:14Z</time>
      </trkpt>
      <trkpt lat="49.97372" lon="2.13458">
        <ele>55.2</ele>
        <time>2024-04-17T12:13:15Z</time>
      </trkpt>
      <trkpt lat="49.97373" lon="2.13457">
        <ele>55.2</ele>
        <time>2024-04-17T12:13:16Z</time>
      </trkpt>
      <trkpt lat="49.97374" lon="2.13457">
        <ele>55.2</ele>
        <time>2024-04-17T12:13:17Z</time>
      </trkpt>
      <trkpt lat="49.97375" lon="2.13456">
        <ele>55.3</ele>
        <time>2024-04-17T12:13:18Z</time>
      </trkpt>
      <trkpt lat="49.97376" lon="2.13456">
        <ele>55.3</ele>
        <time>2024-04-17T12:13:19Z</time>
      </trkpt>
      <trkpt lat="49.97377" lon="2.13456">
        <ele>55.3</ele>
        <time>2024-04-17T12:13:20Z</time>
      </trkpt>
      <trkpt lat="49.97379" lon="2.13455">
        <ele>55.3</ele>
        <time>2024-04-17T12:13:21Z</time>
      </trkpt>
      <trkpt lat="49.9738" lon="2.13455">
        <ele>55.3</ele>
        <time>2024-04-17T12:13:22Z</time>
      </trkpt>
      <trkpt lat="49.97381" lon="2.13455">
        <ele>55.3</ele>
        <time>2024-04-17T12:13:23Z</time>
      </trkpt>
      <trkpt lat="49.97382" lon="2.13456">
        <ele>55.4</ele>
        <time>2024-04-17T12:13:24Z</time>
      </trkpt>
      <trkpt lat="49.97383" lon="2.13456">
        <ele>55.4</ele>
        <time>2024-04-17T12:13:25Z</time>
      </trkpt>
      <trkpt lat="49.97384" lon="2.13456">
        <ele>55.4</ele>
        <time>2024-04-17T12:13:26Z</time>
      </trkpt>
      <trkpt lat="49.97386" lon="2.13456">
        <ele>55.4</ele>
        <time>2024-04-17T12:13:27Z</time>
      </trkpt>
      <trkpt lat="49.97387" lon="2.13456">
        <ele>55.4</ele>
        <time>2024-04-17T12:13:28Z</time>
      </trkpt>
      <trkpt lat="49.97388" lon="2.13456">
        <ele>55.5</ele>
        <time>2024-04-17T12:13:29Z</time>
      </trkpt>
      <trkpt lat="49.9739" lon="2.13455">
        <ele>55.5</ele>
        <time>2024-04-17T12:13:30Z</time>
      </trkpt>
      <trkpt lat="49.97391" lon="2.13455">
        <ele>55.5</ele>
        <time>2024-04-17T12:13:31Z</time>
      </trkpt>
      <trkpt lat="49.97392" lon="2.13455">
        <ele>55.5</ele>
        <time>2024-04-17T12:13:32Z</time>
      </trkpt>
      <trkpt lat="49.97393" lon="2.13455">
        <ele>55.6</ele>
        <time>2024-04-17T12:13:33Z</time>
      </trkpt>
      <trkpt lat="49.97394" lon="2.13455">
        <ele>55.6</ele>
        <time>2024-04-17T12:13:34Z</time>
      </trkpt>
      <trkpt lat="49.97395" lon="2.13455">
        <ele>55.6</ele>
        <time>2024-04-17T12:13:35Z</time>
      </trkpt>
      <trkpt lat="49.97396" lon="2.13455">
        <ele>55.6</ele>
        <time>2024-04-17T12:13:36Z</time>
      </trkpt>
      <trkpt lat="49.97397" lon="2.13455">
        <ele>55.7</ele>
        <time>2024-04-17T12:13:37Z</time>
      </trkpt>
      <trkpt lat="49.97398" lon="2.13454">
        <ele>55.7</ele>
        <time>2024-04-17T12:13:38Z</time>
      </trkpt>
      <trkpt lat="49.97399" lon="2.13454">
        <ele>55.7</ele>
        <time>2024-04-17T12:13:39Z</time>
      </trkpt>
      <trkpt lat="49.974" lon="2.13454">
        <ele>55.7</ele>
        <time>2024-04-17T12:13:40Z</time>
      </trkpt>
      <trkpt lat="49.97401" lon="2.13454">
        <ele>55.8</ele>
        <time>2024-04-17T12:13:41Z</time>
      </trkpt>
      <trkpt lat="49.97402" lon="2.13454">
        <ele>55.8</ele>
        <time>2024-04-17T12:13:42Z</time>
      </trkpt>
      <trkpt lat="49.97403" lon="2.13453">
        <ele>55.8</ele>
        <time>2024-04-17T12:13:43Z</time>
      </trkpt>
      <trkpt lat="49.97405" lon="2.13453">
        <ele>55.8</ele>
        <time>2024-04-17T12:13:44Z</time>
      </trkpt>
      <trkpt lat="49.97406" lon="2.13453">
        <ele>55.9</ele>
        <time>2024-04-17T12:13:45Z</time>
      </trkpt>
      <trkpt lat="49.97407" lon="2.13452">
        <ele>55.9</ele>
        <time>2024-04-17T12:13:46Z</time>
      </trkpt>
      <trkpt lat="49.97408" lon="2.13452">
        <ele>55.9</ele>
        <time>2024-04-17T12:13:47Z</time>
      </trkpt>
      <trkpt lat="49.97409" lon="2.13452">
        <ele>55.9</ele>
        <time>2024-04-17T12:13:48Z</time>
      </trkpt>
      <trkpt lat="49.9741" lon="2.13452">
        <ele>55.9</ele>
        <time>2024-04-17T12:13:49Z</time>
      </trkpt>
      <trkpt lat="49.97411" lon="2.13452">
        <ele>55.9</ele>
        <time>2024-04-17T12:13:50Z</time>
      </trkpt>
      <trkpt lat="49.97412" lon="2.13452">
        <ele>56</ele>
        <time>2024-04-17T12:13:51Z</time>
      </trkpt>
      <trkpt lat="49.97413" lon="2.13452">
        <ele>56</ele>
        <time>2024-04-17T12:13:52Z</time>
      </trkpt>
      <trkpt lat="49.97414" lon="2.13452">
        <ele>56</ele>
        <time>2024-04-17T12:13:53Z</time>
      </trkpt>
      <trkpt lat="49.97416" lon="2.13451">
        <ele>56</ele>
        <time>2024-04-17T12:13:54Z</time>
      </trkpt>
      <trkpt lat="49.97417" lon="2.13451">
        <ele>56</ele>
        <time>2024-04-17T12:13:55Z</time>
      </trkpt>
      <trkpt lat="49.97418" lon="2.13451">
        <ele>56.1</ele>
        <time>2024-04-17T12:13:56Z</time>
      </trkpt>
      <trkpt lat="49.97419" lon="2.13451">
        <ele>56.1</ele>
        <time>2024-04-17T12:13:57Z</time>
      </trkpt>
      <trkpt lat="49.9742" lon="2.1345">
        <ele>56.1</ele>
        <time>2024-04-17T12:13:58Z</time>
      </trkpt>
      <trkpt lat="49.97421" lon="2.1345">
        <ele>56.1</ele>
        <time>2024-04-17T12:13:59Z</time>
      </trkpt>
      <trkpt lat="49.97422" lon="2.1345">
        <ele>56.1</ele>
        <time>2024-04-17T12:14:00Z</time>
      </trkpt>
      <trkpt lat="49.97423" lon="2.1345">
        <ele>56.1</ele>
        <time>2024-04-17T12:14:01Z</time>
      </trkpt>
      <trkpt lat="49.97424" lon="2.1345">
        <ele>56.2</ele>
        <time>2024-04-17T12:14:02Z</time>
      </trkpt>
      <trkpt lat="49.97425" lon="2.1345">
        <ele>56.2</ele>
        <time>2024-04-17T12:14:03Z</time>
      </trkpt>
      <trkpt lat="49.97426" lon="2.1345">
        <ele>56.2</ele>
        <time>2024-04-17T12:14:04Z</time>
      </trkpt>
      <trkpt lat="49.97427" lon="2.1345">
        <ele>56.2</ele>
        <time>2024-04-17T12:14:05Z</time>
      </trkpt>
      <trkpt lat="49.97428" lon="2.13449">
        <ele>56.2</ele>
        <time>2024-04-17T12:14:06Z</time>
      </trkpt>
      <trkpt lat="49.9743" lon="2.13449">
        <ele>56.3</ele>
        <time>2024-04-17T12:14:07Z</time>
      </trkpt>
      <trkpt lat="49.97431" lon="2.13448">
        <ele>56.3</ele>
        <time>2024-04-17T12:14:08Z</time>
      </trkpt>
      <trkpt lat="49.97432" lon="2.13448">
        <ele>56.3</ele>
        <time>2024-04-17T12:14:09Z</time>
      </trkpt>
      <trkpt lat="49.97433" lon="2.13448">
        <ele>56.3</ele>
        <time>2024-04-17T12:14:10Z</time>
      </trkpt>
      <trkpt lat="49.97434" lon="2.13448">
        <ele>56.4</ele>
        <time>2024-04-17T12:14:11Z</time>
      </trkpt>
      <trkpt lat="49.97435" lon="2.13448">
        <ele>56.4</ele>
        <time>2024-04-17T12:14:12Z</time>
      </trkpt>
      <trkpt lat="49.97436" lon="2.13448">
        <ele>56.4</ele>
        <time>2024-04-17T12:14:13Z</time>
      </trkpt>
      <trkpt lat="49.97437" lon="2.13448">
        <ele>56.4</ele>
        <time>2024-04-17T12:14:14Z</time>
      </trkpt>
      <trkpt lat="49.97438" lon="2.13448">
        <ele>56.5</ele>
        <time>2024-04-17T12:14:15Z</time>
      </trkpt>
      <trkpt lat="49.97439" lon="2.13448">
        <ele>56.5</ele>
        <time>2024-04-17T12:14:16Z</time>
      </trkpt>
      <trkpt lat="49.97441" lon="2.13448">
        <ele>56.5</ele>
        <time>2024-04-17T12:14:17Z</time>
      </trkpt>
      <trkpt lat="49.97442" lon="2.13447">
        <ele>56.5</ele>
        <time>2024-04-17T12:14:18Z</time>
      </trkpt>
      <trkpt lat="49.97443" lon="2.13447">
        <ele>56.6</ele>
        <time>2024-04-17T12:14:19Z</time>
      </trkpt>
      <trkpt lat="49.97444" lon="2.13446">
        <ele>56.6</ele>
        <time>2024-04-17T12:14:20Z</time>
      </trkpt>
      <trkpt lat="49.97445" lon="2.13446">
        <ele>56.6</ele>
        <time>2024-04-17T12:14:21Z</time>
      </trkpt>
      <trkpt lat="49.97447" lon="2.13446">
        <ele>56.6</ele>
        <time>2024-04-17T12:14:22Z</time>
      </trkpt>
      <trkpt lat="49.97448" lon="2.13446">
        <ele>56.7</ele>
        <time>2024-04-17T12:14:23Z</time>
      </trkpt>
      <trkpt lat="49.97449" lon="2.13445">
        <ele>56.7</ele>
        <time>2024-04-17T12:14:24Z</time>
      </trkpt>
      <trkpt lat="49.9745" lon="2.13444">
        <ele>56.7</ele>
        <time>2024-04-17T12:14:25Z</time>
      </trkpt>
      <trkpt lat="49.97451" lon="2.13444">
        <ele>56.7</ele>
        <time>2024-04-17T12:14:26Z</time>
      </trkpt>
      <trkpt lat="49.97452" lon="2.13443">
        <ele>56.8</ele>
        <time>2024-04-17T12:14:27Z</time>
      </trkpt>
      <trkpt lat="49.97453" lon="2.13443">
        <ele>56.8</ele>
        <time>2024-04-17T12:14:28Z</time>
      </trkpt>
      <trkpt lat="49.97454" lon="2.13443">
        <ele>56.8</ele>
        <time>2024-04-17T12:14:29Z</time>
      </trkpt>
      <trkpt lat="49.97455" lon="2.13442">
        <ele>56.8</ele>
        <time>2024-04-17T12:14:30Z</time>
      </trkpt>
      <trkpt lat="49.97456" lon="2.13441">
        <ele>56.9</ele>
        <time>2024-04-17T12:14:31Z</time>
      </trkpt>
      <trkpt lat="49.97457" lon="2.13441">
        <ele>56.9</ele>
        <time>2024-04-17T12:14:32Z</time>
      </trkpt>
      <trkpt lat="49.97459" lon="2.13441">
        <ele>56.9</ele>
        <time>2024-04-17T12:14:33Z</time>
      </trkpt>
      <trkpt lat="49.9746" lon="2.13441">
        <ele>56.9</ele>
        <time>2024-04-17T12:14:34Z</time>
      </trkpt>
      <trkpt lat="49.97461" lon="2.13441">
        <ele>57</ele>
        <time>2024-04-17T12:14:35Z</time>
      </trkpt>
      <trkpt lat="49.97462" lon="2.13441">
        <ele>57</ele>
        <time>2024-04-17T12:14:36Z</time>
      </trkpt>
      <trkpt lat="49.97463" lon="2.13441">
        <ele>57</ele>
        <time>2024-04-17T12:14:37Z</time>
      </trkpt>
      <trkpt lat="49.97464" lon="2.13441">
        <ele>57</ele>
        <time>2024-04-17T12:14:38Z</time>
      </trkpt>
      <trkpt lat="49.97465" lon="2.1344">
        <ele>57.1</ele>
        <time>2024-04-17T12:14:39Z</time>
      </trkpt>
      <trkpt lat="49.97466" lon="2.1344">
        <ele>57.1</ele>
        <time>2024-04-17T12:14:40Z</time>
      </trkpt>
      <trkpt lat="49.97468" lon="2.1344">
        <ele>57.1</ele>
        <time>2024-04-17T12:14:41Z</time>
      </trkpt>
      <trkpt lat="49.97469" lon="2.1344">
        <ele>57.1</ele>
        <time>2024-04-17T12:14:42Z</time>
      </trkpt>
      <trkpt lat="49.9747" lon="2.13439">
        <ele>57.2</ele>
        <time>2024-04-17T12:14:43Z</time>
      </trkpt>
      <trkpt lat="49.97471" lon="2.13439">
        <ele>57.2</ele>
        <time>2024-04-17T12:14:44Z</time>
      </trkpt>
      <trkpt lat="49.97472" lon="2.13439">
        <ele>57.2</ele>
        <time>2024-04-17T12:14:45Z</time>
      </trkpt>
      <trkpt lat="49.97473" lon="2.13439">
        <ele>57.2</ele>
        <time>2024-04-17T12:14:46Z</time>
      </trkpt>
      <trkpt lat="49.97474" lon="2.13438">
        <ele>57.2</ele>
        <time>2024-04-17T12:14:47Z</time>
      </trkpt>
      <trkpt lat="49.97476" lon="2.13438">
        <ele>57.3</ele>
        <time>2024-04-17T12:14:48Z</time>
      </trkpt>
      <trkpt lat="49.97477" lon="2.13438">
        <ele>57.3</ele>
        <time>2024-04-17T12:14:49Z</time>
      </trkpt>
      <trkpt lat="49.97478" lon="2.13437">
        <ele>57.3</ele>
        <time>2024-04-17T12:14:50Z</time>
      </trkpt>
      <trkpt lat="49.97479" lon="2.13437">
        <ele>57.3</ele>
        <time>2024-04-17T12:14:51Z</time>
      </trkpt>
      <trkpt lat="49.97479" lon="2.13437">
        <ele>57.3</ele>
        <time>2024-04-17T12:14:52Z</time>
      </trkpt>
      <trkpt lat="49.9748" lon="2.13437">
        <ele>57.3</ele>
        <time>2024-04-17T12:14:53Z</time>
      </trkpt>
      <trkpt lat="49.97482" lon="2.13436">
        <ele>57.4</ele>
        <time>2024-04-17T12:14:54Z</time>
      </trkpt>
      <trkpt lat="49.97483" lon="2.13436">
        <ele>57.4</ele>
        <time>2024-04-17T12:14:55Z</time>
      </trkpt>
      <trkpt lat="49.97484" lon="2.13435">
        <ele>57.4</ele>
        <time>2024-04-17T12:14:56Z</time>
      </trkpt>
      <trkpt lat="49.97485" lon="2.13435">
        <ele>57.4</ele>
        <time>2024-04-17T12:14:57Z</time>
      </trkpt>
      <trkpt lat="49.97486" lon="2.13435">
        <ele>57.5</ele>
        <time>2024-04-17T12:14:58Z</time>
      </trkpt>
      <trkpt lat="49.97487" lon="2.13434">
        <ele>57.5</ele>
        <time>2024-04-17T12:14:59Z</time>
      </trkpt>
      <trkpt lat="49.97489" lon="2.13434">
        <ele>57.5</ele>
        <time>2024-04-17T12:15:00Z</time>
      </trkpt>
      <trkpt lat="49.9749" lon="2.13433">
        <ele>57.5</ele>
        <time>2024-04-17T12:15:01Z</time>
      </trkpt>
      <trkpt lat="49.97491" lon="2.13433">
        <ele>57.5</ele>
        <time>2024-04-17T12:15:02Z</time>
      </trkpt>
      <trkpt lat="49.97492" lon="2.13433">
        <ele>57.6</ele>
        <time>2024-04-17T12:15:03Z</time>
      </trkpt>
      <trkpt lat="49.97493" lon="2.13432">
        <ele>57.6</ele>
        <time>2024-04-17T12:15:04Z</time>
      </trkpt>
      <trkpt lat="49.97494" lon="2.13432">
        <ele>57.6</ele>
        <time>2024-04-17T12:15:05Z</time>
      </trkpt>
      <trkpt lat="49.97496" lon="2.13431">
        <ele>57.7</ele>
        <time>2024-04-17T12:15:06Z</time>
      </trkpt>
      <trkpt lat="49.97497" lon="2.13431">
        <ele>57.7</ele>
        <time>2024-04-17T12:15:07Z</time>
      </trkpt>
      <trkpt lat="49.97498" lon="2.13431">
        <ele>57.7</ele>
        <time>2024-04-17T12:15:08Z</time>
      </trkpt>
      <trkpt lat="49.975" lon="2.1343">
        <ele>57.8</ele>
        <time>2024-04-17T12:15:09Z</time>
      </trkpt>
      <trkpt lat="49.97501" lon="2.13429">
        <ele>57.8</ele>
        <time>2024-04-17T12:15:10Z</time>
      </trkpt>
      <trkpt lat="49.97502" lon="2.13429">
        <ele>57.8</ele>
        <time>2024-04-17T12:15:11Z</time>
      </trkpt>
      <trkpt lat="49.97503" lon="2.13428">
        <ele>57.8</ele>
        <time>2024-04-17T12:15:12Z</time>
      </trkpt>
      <trkpt lat="49.97504" lon="2.13428">
        <ele>57.8</ele>
        <time>2024-04-17T12:15:13Z</time>
      </trkpt>
      <trkpt lat="49.97505" lon="2.13427">
        <ele>57.9</ele>
        <time>2024-04-17T12:15:14Z</time>
      </trkpt>
      <trkpt lat="49.97506" lon="2.13426">
        <ele>57.9</ele>
        <time>2024-04-17T12:15:15Z</time>
      </trkpt>
      <trkpt lat="49.97507" lon="2.13426">
        <ele>57.9</ele>
        <time>2024-04-17T12:15:16Z</time>
      </trkpt>
      <trkpt lat="49.97508" lon="2.13426">
        <ele>57.9</ele>
        <time>2024-04-17T12:15:17Z</time>
      </trkpt>
      <trkpt lat="49.97509" lon="2.13426">
        <ele>58</ele>
        <time>2024-04-17T12:15:18Z</time>
      </trkpt>
      <trkpt lat="49.97511" lon="2.13425">
        <ele>58</ele>
        <time>2024-04-17T12:15:19Z</time>
      </trkpt>
      <trkpt lat="49.97512" lon="2.13425">
        <ele>58</ele>
        <time>2024-04-17T12:15:20Z</time>
      </trkpt>
      <trkpt lat="49.97513" lon="2.13425">
        <ele>58</ele>
        <time>2024-04-17T12:15:21Z</time>
      </trkpt>
      <trkpt lat="49.97514" lon="2.13424">
        <ele>58</ele>
        <time>2024-04-17T12:15:22Z</time>
      </trkpt>
      <trkpt lat="49.97515" lon="2.13424">
        <ele>58.1</ele>
        <time>2024-04-17T12:15:23Z</time>
      </trkpt>
      <trkpt lat="49.97516" lon="2.13423">
        <ele>58.1</ele>
        <time>2024-04-17T12:15:24Z</time>
      </trkpt>
      <trkpt lat="49.97517" lon="2.13423">
        <ele>58.1</ele>
        <time>2024-04-17T12:15:25Z</time>
      </trkpt>
      <trkpt lat="49.97518" lon="2.13422">
        <ele>58.1</ele>
        <time>2024-04-17T12:15:26Z</time>
      </trkpt>
      <trkpt lat="49.97519" lon="2.13422">
        <ele>58.1</ele>
        <time>2024-04-17T12:15:27Z</time>
      </trkpt>
      <trkpt lat="49.9752" lon="2.13421">
        <ele>58.1</ele>
        <time>2024-04-17T12:15:28Z</time>
      </trkpt>
      <trkpt lat="49.97521" lon="2.13421">
        <ele>58.2</ele>
        <time>2024-04-17T12:15:29Z</time>
      </trkpt>
      <trkpt lat="49.97522" lon="2.1342">
        <ele>58.2</ele>
        <time>2024-04-17T12:15:30Z</time>
      </trkpt>
      <trkpt lat="49.97523" lon="2.13419">
        <ele>58.2</ele>
        <time>2024-04-17T12:15:31Z</time>
      </trkpt>
      <trkpt lat="49.97524" lon="2.13418">
        <ele>58.2</ele>
        <time>2024-04-17T12:15:32Z</time>
      </trkpt>
      <trkpt lat="49.97525" lon="2.13418">
        <ele>58.2</ele>
        <time>2024-04-17T12:15:33Z</time>
      </trkpt>
      <trkpt lat="49.97526" lon="2.13417">
        <ele>58.2</ele>
        <time>2024-04-17T12:15:34Z</time>
      </trkpt>
      <trkpt lat="49.97527" lon="2.13417">
        <ele>58.2</ele>
        <time>2024-04-17T12:15:35Z</time>
      </trkpt>
      <trkpt lat="49.97528" lon="2.13416">
        <ele>58.2</ele>
        <time>2024-04-17T12:15:36Z</time>
      </trkpt>
      <trkpt lat="49.97529" lon="2.13416">
        <ele>58.3</ele>
        <time>2024-04-17T12:15:37Z</time>
      </trkpt>
      <trkpt lat="49.97531" lon="2.13415">
        <ele>58.3</ele>
        <time>2024-04-17T12:15:38Z</time>
      </trkpt>
      <trkpt lat="49.97533" lon="2.13416">
        <ele>58.3</ele>
        <time>2024-04-17T12:15:39Z</time>
      </trkpt>
      <trkpt lat="49.97533" lon="2.13416">
        <ele>58.3</ele>
        <time>2024-04-17T12:15:40Z</time>
      </trkpt>
      <trkpt lat="49.97534" lon="2.13416">
        <ele>58.3</ele>
        <time>2024-04-17T12:15:41Z</time>
      </trkpt>
      <trkpt lat="49.97536" lon="2.13416">
        <ele>58.3</ele>
        <time>2024-04-17T12:15:42Z</time>
      </trkpt>
      <trkpt lat="49.97537" lon="2.13416">
        <ele>58.3</ele>
        <time>2024-04-17T12:15:43Z</time>
      </trkpt>
      <trkpt lat="49.97538" lon="2.13416">
        <ele>58.3</ele>
        <time>2024-04-17T12:15:44Z</time>
      </trkpt>
      <trkpt lat="49.97539" lon="2.13416">
        <ele>58.3</ele>
        <time>2024-04-17T12:15:45Z</time>
      </trkpt>
      <trkpt lat="49.9754" lon="2.13416">
        <ele>58.4</ele>
        <time>2024-04-17T12:15:46Z</time>
      </trkpt>
      <trkpt lat="49.97541" lon="2.13416">
        <ele>58.4</ele>
        <time>2024-04-17T12:15:47Z</time>
      </trkpt>
      <trkpt lat="49.97543" lon="2.13415">
        <ele>58.4</ele>
        <time>2024-04-17T12:15:48Z</time>
      </trkpt>
      <trkpt lat="49.97544" lon="2.13415">
        <ele>58.4</ele>
        <time>2024-04-17T12:15:49Z</time>
      </trkpt>
      <trkpt lat="49.97545" lon="2.13415">
        <ele>58.4</ele>
        <time>2024-04-17T12:15:50Z</time>
      </trkpt>
      <trkpt lat="49.97547" lon="2.13415">
        <ele>58.4</ele>
        <time>2024-04-17T12:15:51Z</time>
      </trkpt>
      <trkpt lat="49.97548" lon="2.13415">
        <ele>58.4</ele>
        <time>2024-04-17T12:15:52Z</time>
      </trkpt>
      <trkpt lat="49.97548" lon="2.13415">
        <ele>58.4</ele>
        <time>2024-04-17T12:15:53Z</time>
      </trkpt>
      <trkpt lat="49.9755" lon="2.13415">
        <ele>58.4</ele>
        <time>2024-04-17T12:15:54Z</time>
      </trkpt>
      <trkpt lat="49.97551" lon="2.13415">
        <ele>58.5</ele>
        <time>2024-04-17T12:15:55Z</time>
      </trkpt>
      <trkpt lat="49.97552" lon="2.13415">
        <ele>58.5</ele>
        <time>2024-04-17T12:15:56Z</time>
      </trkpt>
      <trkpt lat="49.97553" lon="2.13415">
        <ele>58.5</ele>
        <time>2024-04-17T12:15:57Z</time>
      </trkpt>
      <trkpt lat="49.97554" lon="2.13415">
        <ele>58.5</ele>
        <time>2024-04-17T12:15:58Z</time>
      </trkpt>
      <trkpt lat="49.97555" lon="2.13415">
        <ele>58.5</ele>
        <time>2024-04-17T12:15:59Z</time>
      </trkpt>
      <trkpt lat="49.97556" lon="2.13414">
        <ele>58.5</ele>
        <time>2024-04-17T12:16:00Z</time>
      </trkpt>
      <trkpt lat="49.97557" lon="2.13414">
        <ele>58.5</ele>
        <time>2024-04-17T12:16:01Z</time>
      </trkpt>
      <trkpt lat="49.97558" lon="2.13414">
        <ele>58.5</ele>
        <time>2024-04-17T12:16:02Z</time>
      </trkpt>
      <trkpt lat="49.97559" lon="2.13415">
        <ele>58.5</ele>
        <time>2024-04-17T12:16:03Z</time>
      </trkpt>
      <trkpt lat="49.9756" lon="2.13415">
        <ele>58.6</ele>
        <time>2024-04-17T12:16:04Z</time>
      </trkpt>
      <trkpt lat="49.97562" lon="2.13415">
        <ele>58.6</ele>
        <time>2024-04-17T12:16:05Z</time>
      </trkpt>
      <trkpt lat="49.97564" lon="2.13414">
        <ele>58.6</ele>
        <time>2024-04-17T12:16:06Z</time>
      </trkpt>
      <trkpt lat="49.97565" lon="2.13414">
        <ele>58.6</ele>
        <time>2024-04-17T12:16:07Z</time>
      </trkpt>
      <trkpt lat="49.97566" lon="2.13414">
        <ele>58.6</ele>
        <time>2024-04-17T12:16:08Z</time>
      </trkpt>
      <trkpt lat="49.97567" lon="2.13414">
        <ele>58.6</ele>
        <time>2024-04-17T12:16:09Z</time>
      </trkpt>
      <trkpt lat="49.97568" lon="2.13414">
        <ele>58.6</ele>
        <time>2024-04-17T12:16:10Z</time>
      </trkpt>
      <trkpt lat="49.97569" lon="2.13414">
        <ele>58.6</ele>
        <time>2024-04-17T12:16:11Z</time>
      </trkpt>
      <trkpt lat="49.9757" lon="2.13414">
        <ele>58.7</ele>
        <time>2024-04-17T12:16:12Z</time>
      </trkpt>
      <trkpt lat="49.97572" lon="2.13415">
        <ele>58.7</ele>
        <time>2024-04-17T12:16:13Z</time>
      </trkpt>
      <trkpt lat="49.97573" lon="2.13415">
        <ele>58.7</ele>
        <time>2024-04-17T12:16:14Z</time>
      </trkpt>
      <trkpt lat="49.97575" lon="2.13415">
        <ele>58.7</ele>
        <time>2024-04-17T12:16:16Z</time>
      </trkpt>
      <trkpt lat="49.97576" lon="2.13415">
        <ele>58.7</ele>
        <time>2024-04-17T12:16:17Z</time>
      </trkpt>
      <trkpt lat="49.97576" lon="2.13415">
        <ele>58.7</ele>
        <time>2024-04-17T12:16:18Z</time>
      </trkpt>
      <trkpt lat="49.97578" lon="2.13416">
        <ele>58.7</ele>
        <time>2024-04-17T12:16:19Z</time>
      </trkpt>
      <trkpt lat="49.97579" lon="2.13416">
        <ele>58.7</ele>
        <time>2024-04-17T12:16:20Z</time>
      </trkpt>
      <trkpt lat="49.9758" lon="2.13416">
        <ele>58.7</ele>
        <time>2024-04-17T12:16:21Z</time>
      </trkpt>
      <trkpt lat="49.97581" lon="2.13416">
        <ele>58.7</ele>
        <time>2024-04-17T12:16:22Z</time>
      </trkpt>
      <trkpt lat="49.97582" lon="2.13416">
        <ele>58.7</ele>
        <time>2024-04-17T12:16:23Z</time>
      </trkpt>
      <trkpt lat="49.97584" lon="2.13416">
        <ele>58.7</ele>
        <time>2024-04-17T12:16:24Z</time>
      </trkpt>
      <trkpt lat="49.97585" lon="2.13417">
        <ele>58.7</ele>
        <time>2024-04-17T12:16:25Z</time>
      </trkpt>
      <trkpt lat="49.97586" lon="2.13417">
        <ele>58.7</ele>
        <time>2024-04-17T12:16:26Z</time>
      </trkpt>
      <trkpt lat="49.97587" lon="2.13417">
        <ele>58.7</ele>
        <time>2024-04-17T12:16:27Z</time>
      </trkpt>
      <trkpt lat="49.97588" lon="2.13417">
        <ele>58.7</ele>
        <time>2024-04-17T12:16:28Z</time>
      </trkpt>
      <trkpt lat="49.97589" lon="2.13417">
        <ele>58.7</ele>
        <time>2024-04-17T12:16:29Z</time>
      </trkpt>
      <trkpt lat="49.9759" lon="2.13418">
        <ele>58.7</ele>
        <time>2024-04-17T12:16:30Z</time>
      </trkpt>
      <trkpt lat="49.97592" lon="2.13418">
        <ele>58.7</ele>
        <time>2024-04-17T12:16:31Z</time>
      </trkpt>
      <trkpt lat="49.97593" lon="2.13419">
        <ele>58.7</ele>
        <time>2024-04-17T12:16:32Z</time>
      </trkpt>
      <trkpt lat="49.97594" lon="2.13419">
        <ele>58.7</ele>
        <time>2024-04-17T12:16:33Z</time>
      </trkpt>
      <trkpt lat="49.97596" lon="2.13419">
        <ele>58.7</ele>
        <time>2024-04-17T12:16:34Z</time>
      </trkpt>
      <trkpt lat="49.97597" lon="2.1342">
        <ele>58.7</ele>
        <time>2024-04-17T12:16:35Z</time>
      </trkpt>
      <trkpt lat="49.97597" lon="2.1342">
        <ele>58.7</ele>
        <time>2024-04-17T12:16:36Z</time>
      </trkpt>
      <trkpt lat="49.97599" lon="2.1342">
        <ele>58.7</ele>
        <time>2024-04-17T12:16:37Z</time>
      </trkpt>
      <trkpt lat="49.976" lon="2.1342">
        <ele>58.7</ele>
        <time>2024-04-17T12:16:38Z</time>
      </trkpt>
      <trkpt lat="49.97601" lon="2.1342">
        <ele>58.7</ele>
        <time>2024-04-17T12:16:39Z</time>
      </trkpt>
      <trkpt lat="49.97602" lon="2.1342">
        <ele>58.7</ele>
        <time>2024-04-17T12:16:40Z</time>
      </trkpt>
      <trkpt lat="49.97603" lon="2.1342">
        <ele>58.7</ele>
        <time>2024-04-17T12:16:41Z</time>
      </trkpt>
      <trkpt lat="49.97604" lon="2.13421">
        <ele>58.7</ele>
        <time>2024-04-17T12:16:42Z</time>
      </trkpt>
      <trkpt lat="49.97605" lon="2.13421">
        <ele>58.7</ele>
        <time>2024-04-17T12:16:43Z</time>
      </trkpt>
      <trkpt lat="49.97606" lon="2.13421">
        <ele>58.7</ele>
        <time>2024-04-17T12:16:44Z</time>
      </trkpt>
      <trkpt lat="49.97607" lon="2.13421">
        <ele>58.7</ele>
        <time>2024-04-17T12:16:45Z</time>
      </trkpt>
      <trkpt lat="49.97609" lon="2.13421">
        <ele>58.8</ele>
        <time>2024-04-17T12:16:46Z</time>
      </trkpt>
      <trkpt lat="49.9761" lon="2.13422">
        <ele>58.8</ele>
        <time>2024-04-17T12:16:47Z</time>
      </trkpt>
      <trkpt lat="49.97611" lon="2.13422">
        <ele>58.8</ele>
        <time>2024-04-17T12:16:48Z</time>
      </trkpt>
      <trkpt lat="49.97612" lon="2.13423">
        <ele>58.8</ele>
        <time>2024-04-17T12:16:49Z</time>
      </trkpt>
      <trkpt lat="49.97613" lon="2.13423">
        <ele>58.8</ele>
        <time>2024-04-17T12:16:50Z</time>
      </trkpt>
      <trkpt lat="49.97614" lon="2.13423">
        <ele>58.8</ele>
        <time>2024-04-17T12:16:51Z</time>
      </trkpt>
      <trkpt lat="49.97615" lon="2.13424">
        <ele>58.8</ele>
        <time>2024-04-17T12:16:52Z</time>
      </trkpt>
      <trkpt lat="49.97616" lon="2.13424">
        <ele>58.8</ele>
        <time>2024-04-17T12:16:53Z</time>
      </trkpt>
      <trkpt lat="49.97617" lon="2.13424">
        <ele>58.9</ele>
        <time>2024-04-17T12:16:54Z</time>
      </trkpt>
      <trkpt lat="49.97618" lon="2.13425">
        <ele>58.9</ele>
        <time>2024-04-17T12:16:55Z</time>
      </trkpt>
      <trkpt lat="49.97619" lon="2.13425">
        <ele>58.9</ele>
        <time>2024-04-17T12:16:56Z</time>
      </trkpt>
      <trkpt lat="49.9762" lon="2.13425">
        <ele>58.9</ele>
        <time>2024-04-17T12:16:57Z</time>
      </trkpt>
      <trkpt lat="49.97621" lon="2.13426">
        <ele>58.9</ele>
        <time>2024-04-17T12:16:58Z</time>
      </trkpt>
      <trkpt lat="49.97622" lon="2.13426">
        <ele>58.9</ele>
        <time>2024-04-17T12:16:59Z</time>
      </trkpt>
      <trkpt lat="49.97623" lon="2.13426">
        <ele>59</ele>
        <time>2024-04-17T12:17:00Z</time>
      </trkpt>
      <trkpt lat="49.97625" lon="2.13426">
        <ele>59</ele>
        <time>2024-04-17T12:17:01Z</time>
      </trkpt>
      <trkpt lat="49.97626" lon="2.13426">
        <ele>59</ele>
        <time>2024-04-17T12:17:02Z</time>
      </trkpt>
      <trkpt lat="49.97627" lon="2.13427">
        <ele>59</ele>
        <time>2024-04-17T12:17:03Z</time>
      </trkpt>
      <trkpt lat="49.97628" lon="2.13427">
        <ele>59</ele>
        <time>2024-04-17T12:17:04Z</time>
      </trkpt>
      <trkpt lat="49.97629" lon="2.13427">
        <ele>59.1</ele>
        <time>2024-04-17T12:17:05Z</time>
      </trkpt>
      <trkpt lat="49.97631" lon="2.13427">
        <ele>59.1</ele>
        <time>2024-04-17T12:17:06Z</time>
      </trkpt>
      <trkpt lat="49.97632" lon="2.13427">
        <ele>59.1</ele>
        <time>2024-04-17T12:17:07Z</time>
      </trkpt>
      <trkpt lat="49.97633" lon="2.13428">
        <ele>59.1</ele>
        <time>2024-04-17T12:17:08Z</time>
      </trkpt>
      <trkpt lat="49.97634" lon="2.13428">
        <ele>59.1</ele>
        <time>2024-04-17T12:17:09Z</time>
      </trkpt>
      <trkpt lat="49.97635" lon="2.13428">
        <ele>59.1</ele>
        <time>2024-04-17T12:17:10Z</time>
      </trkpt>
      <trkpt lat="49.97636" lon="2.13427">
        <ele>59.1</ele>
        <time>2024-04-17T12:17:11Z</time>
      </trkpt>
      <trkpt lat="49.97637" lon="2.13427">
        <ele>59.2</ele>
        <time>2024-04-17T12:17:12Z</time>
      </trkpt>
      <trkpt lat="49.97638" lon="2.13427">
        <ele>59.2</ele>
        <time>2024-04-17T12:17:13Z</time>
      </trkpt>
      <trkpt lat="49.9764" lon="2.13426">
        <ele>59.2</ele>
        <time>2024-04-17T12:17:14Z</time>
      </trkpt>
      <trkpt lat="49.97641" lon="2.13426">
        <ele>59.2</ele>
        <time>2024-04-17T12:17:15Z</time>
      </trkpt>
      <trkpt lat="49.97642" lon="2.13426">
        <ele>59.2</ele>
        <time>2024-04-17T12:17:16Z</time>
      </trkpt>
      <trkpt lat="49.97643" lon="2.13426">
        <ele>59.2</ele>
        <time>2024-04-17T12:17:17Z</time>
      </trkpt>
      <trkpt lat="49.97644" lon="2.13426">
        <ele>59.2</ele>
        <time>2024-04-17T12:17:18Z</time>
      </trkpt>
      <trkpt lat="49.97645" lon="2.13426">
        <ele>59.3</ele>
        <time>2024-04-17T12:17:19Z</time>
      </trkpt>
      <trkpt lat="49.97646" lon="2.13426">
        <ele>59.3</ele>
        <time>2024-04-17T12:17:20Z</time>
      </trkpt>
      <trkpt lat="49.97647" lon="2.13426">
        <ele>59.3</ele>
        <time>2024-04-17T12:17:21Z</time>
      </trkpt>
      <trkpt lat="49.97649" lon="2.13426">
        <ele>59.3</ele>
        <time>2024-04-17T12:17:22Z</time>
      </trkpt>
      <trkpt lat="49.9765" lon="2.13426">
        <ele>59.3</ele>
        <time>2024-04-17T12:17:23Z</time>
      </trkpt>
      <trkpt lat="49.97651" lon="2.13427">
        <ele>59.3</ele>
        <time>2024-04-17T12:17:24Z</time>
      </trkpt>
      <trkpt lat="49.97653" lon="2.13427">
        <ele>59.4</ele>
        <time>2024-04-17T12:17:25Z</time>
      </trkpt>
      <trkpt lat="49.97654" lon="2.13427">
        <ele>59.4</ele>
        <time>2024-04-17T12:17:26Z</time>
      </trkpt>
      <trkpt lat="49.97655" lon="2.13427">
        <ele>59.4</ele>
        <time>2024-04-17T12:17:27Z</time>
      </trkpt>
      <trkpt lat="49.97656" lon="2.13427">
        <ele>59.4</ele>
        <time>2024-04-17T12:17:28Z</time>
      </trkpt>
      <trkpt lat="49.97657" lon="2.13427">
        <ele>59.4</ele>
        <time>2024-04-17T12:17:29Z</time>
      </trkpt>
      <trkpt lat="49.97658" lon="2.13427">
        <ele>59.4</ele>
        <time>2024-04-17T12:17:30Z</time>
      </trkpt>
      <trkpt lat="49.9766" lon="2.13427">
        <ele>59.5</ele>
        <time>2024-04-17T12:17:31Z</time>
      </trkpt>
      <trkpt lat="49.97661" lon="2.13427">
        <ele>59.5</ele>
        <time>2024-04-17T12:17:32Z</time>
      </trkpt>
      <trkpt lat="49.97662" lon="2.13427">
        <ele>59.5</ele>
        <time>2024-04-17T12:17:33Z</time>
      </trkpt>
      <trkpt lat="49.97663" lon="2.13427">
        <ele>59.6</ele>
        <time>2024-04-17T12:17:34Z</time>
      </trkpt>
      <trkpt lat="49.97665" lon="2.13426">
        <ele>59.6</ele>
        <time>2024-04-17T12:17:35Z</time>
      </trkpt>
      <trkpt lat="49.97667" lon="2.13426">
        <ele>59.6</ele>
        <time>2024-04-17T12:17:36Z</time>
      </trkpt>
      <trkpt lat="49.97668" lon="2.13426">
        <ele>59.7</ele>
        <time>2024-04-17T12:17:38Z</time>
      </trkpt>
      <trkpt lat="49.97669" lon="2.13426">
        <ele>59.7</ele>
        <time>2024-04-17T12:17:39Z</time>
      </trkpt>
      <trkpt lat="49.9767" lon="2.13426">
        <ele>59.7</ele>
        <time>2024-04-17T12:17:40Z</time>
      </trkpt>
      <trkpt lat="49.97671" lon="2.13426">
        <ele>59.7</ele>
        <time>2024-04-17T12:17:41Z</time>
      </trkpt>
      <trkpt lat="49.97672" lon="2.13426">
        <ele>59.7</ele>
        <time>2024-04-17T12:17:42Z</time>
      </trkpt>
      <trkpt lat="49.97673" lon="2.13427">
        <ele>59.8</ele>
        <time>2024-04-17T12:17:43Z</time>
      </trkpt>
      <trkpt lat="49.97675" lon="2.13427">
        <ele>59.8</ele>
        <time>2024-04-17T12:17:44Z</time>
      </trkpt>
      <trkpt lat="49.97676" lon="2.13427">
        <ele>59.8</ele>
        <time>2024-04-17T12:17:45Z</time>
      </trkpt>
      <trkpt lat="49.97678" lon="2.13427">
        <ele>59.8</ele>
        <time>2024-04-17T12:17:46Z</time>
      </trkpt>
      <trkpt lat="49.97679" lon="2.13427">
        <ele>59.9</ele>
        <time>2024-04-17T12:17:47Z</time>
      </trkpt>
      <trkpt lat="49.97679" lon="2.13427">
        <ele>59.9</ele>
        <time>2024-04-17T12:17:48Z</time>
      </trkpt>
      <trkpt lat="49.97681" lon="2.13427">
        <ele>59.9</ele>
        <time>2024-04-17T12:17:49Z</time>
      </trkpt>
      <trkpt lat="49.97682" lon="2.13427">
        <ele>59.9</ele>
        <time>2024-04-17T12:17:50Z</time>
      </trkpt>
      <trkpt lat="49.97683" lon="2.13427">
        <ele>59.9</ele>
        <time>2024-04-17T12:17:51Z</time>
      </trkpt>
      <trkpt lat="49.97684" lon="2.13427">
        <ele>60</ele>
        <time>2024-04-17T12:17:52Z</time>
      </trkpt>
      <trkpt lat="49.97685" lon="2.13427">
        <ele>60</ele>
        <time>2024-04-17T12:17:53Z</time>
      </trkpt>
      <trkpt lat="49.97686" lon="2.13427">
        <ele>60</ele>
        <time>2024-04-17T12:17:54Z</time>
      </trkpt>
      <trkpt lat="49.97687" lon="2.13427">
        <ele>60</ele>
        <time>2024-04-17T12:17:55Z</time>
      </trkpt>
      <trkpt lat="49.97688" lon="2.13427">
        <ele>60</ele>
        <time>2024-04-17T12:17:56Z</time>
      </trkpt>
      <trkpt lat="49.97689" lon="2.13427">
        <ele>60</ele>
        <time>2024-04-17T12:17:57Z</time>
      </trkpt>
      <trkpt lat="49.9769" lon="2.13427">
        <ele>60.1</ele>
        <time>2024-04-17T12:17:58Z</time>
      </trkpt>
      <trkpt lat="49.97691" lon="2.13427">
        <ele>60.1</ele>
        <time>2024-04-17T12:17:59Z</time>
      </trkpt>
      <trkpt lat="49.97693" lon="2.13427">
        <ele>60.1</ele>
        <time>2024-04-17T12:18:00Z</time>
      </trkpt>
      <trkpt lat="49.97694" lon="2.13426">
        <ele>60.1</ele>
        <time>2024-04-17T12:18:01Z</time>
      </trkpt>
      <trkpt lat="49.97695" lon="2.13426">
        <ele>60.2</ele>
        <time>2024-04-17T12:18:02Z</time>
      </trkpt>
      <trkpt lat="49.97696" lon="2.13426">
        <ele>60.2</ele>
        <time>2024-04-17T12:18:03Z</time>
      </trkpt>
      <trkpt lat="49.97697" lon="2.13426">
        <ele>60.2</ele>
        <time>2024-04-17T12:18:04Z</time>
      </trkpt>
      <trkpt lat="49.97698" lon="2.13425">
        <ele>60.2</ele>
        <time>2024-04-17T12:18:05Z</time>
      </trkpt>
      <trkpt lat="49.97699" lon="2.13425">
        <ele>60.2</ele>
        <time>2024-04-17T12:18:06Z</time>
      </trkpt>
      <trkpt lat="49.97701" lon="2.13424">
        <ele>60.3</ele>
        <time>2024-04-17T12:18:07Z</time>
      </trkpt>
      <trkpt lat="49.97702" lon="2.13424">
        <ele>60.3</ele>
        <time>2024-04-17T12:18:08Z</time>
      </trkpt>
      <trkpt lat="49.97703" lon="2.13424">
        <ele>60.3</ele>
        <time>2024-04-17T12:18:09Z</time>
      </trkpt>
      <trkpt lat="49.97705" lon="2.13423">
        <ele>60.3</ele>
        <time>2024-04-17T12:18:10Z</time>
      </trkpt>
      <trkpt lat="49.97705" lon="2.13423">
        <ele>60.3</ele>
        <time>2024-04-17T12:18:11Z</time>
      </trkpt>
      <trkpt lat="49.97706" lon="2.13423">
        <ele>60.4</ele>
        <time>2024-04-17T12:18:12Z</time>
      </trkpt>
      <trkpt lat="49.97707" lon="2.13423">
        <ele>60.4</ele>
        <time>2024-04-17T12:18:13Z</time>
      </trkpt>
      <trkpt lat="49.97709" lon="2.13423">
        <ele>60.4</ele>
        <time>2024-04-17T12:18:14Z</time>
      </trkpt>
      <trkpt lat="49.9771" lon="2.13423">
        <ele>60.4</ele>
        <time>2024-04-17T12:18:15Z</time>
      </trkpt>
      <trkpt lat="49.97711" lon="2.13423">
        <ele>60.5</ele>
        <time>2024-04-17T12:18:16Z</time>
      </trkpt>
      <trkpt lat="49.97712" lon="2.13423">
        <ele>60.5</ele>
        <time>2024-04-17T12:18:17Z</time>
      </trkpt>
      <trkpt lat="49.97713" lon="2.13423">
        <ele>60.5</ele>
        <time>2024-04-17T12:18:18Z</time>
      </trkpt>
      <trkpt lat="49.97715" lon="2.13423">
        <ele>60.6</ele>
        <time>2024-04-17T12:18:19Z</time>
      </trkpt>
      <trkpt lat="49.97716" lon="2.13423">
        <ele>60.6</ele>
        <time>2024-04-17T12:18:20Z</time>
      </trkpt>
      <trkpt lat="49.97716" lon="2.13423">
        <ele>60.6</ele>
        <time>2024-04-17T12:18:21Z</time>
      </trkpt>
      <trkpt lat="49.97719" lon="2.13423">
        <ele>60.6</ele>
        <time>2024-04-17T12:18:22Z</time>
      </trkpt>
      <trkpt lat="49.97719" lon="2.13423">
        <ele>60.7</ele>
        <time>2024-04-17T12:18:23Z</time>
      </trkpt>
      <trkpt lat="49.9772" lon="2.13423">
        <ele>60.7</ele>
        <time>2024-04-17T12:18:24Z</time>
      </trkpt>
      <trkpt lat="49.97721" lon="2.13423">
        <ele>60.7</ele>
        <time>2024-04-17T12:18:25Z</time>
      </trkpt>
      <trkpt lat="49.97723" lon="2.13423">
        <ele>60.7</ele>
        <time>2024-04-17T12:18:26Z</time>
      </trkpt>
      <trkpt lat="49.97724" lon="2.13423">
        <ele>60.8</ele>
        <time>2024-04-17T12:18:27Z</time>
      </trkpt>
      <trkpt lat="49.97725" lon="2.13422">
        <ele>60.8</ele>
        <time>2024-04-17T12:18:28Z</time>
      </trkpt>
      <trkpt lat="49.97726" lon="2.13422">
        <ele>60.9</ele>
        <time>2024-04-17T12:18:29Z</time>
      </trkpt>
      <trkpt lat="49.97727" lon="2.13422">
        <ele>60.9</ele>
        <time>2024-04-17T12:18:30Z</time>
      </trkpt>
      <trkpt lat="49.97729" lon="2.13421">
        <ele>61</ele>
        <time>2024-04-17T12:18:31Z</time>
      </trkpt>
      <trkpt lat="49.9773" lon="2.13421">
        <ele>61</ele>
        <time>2024-04-17T12:18:32Z</time>
      </trkpt>
      <trkpt lat="49.97731" lon="2.13421">
        <ele>61</ele>
        <time>2024-04-17T12:18:33Z</time>
      </trkpt>
      <trkpt lat="49.97732" lon="2.1342">
        <ele>61.1</ele>
        <time>2024-04-17T12:18:34Z</time>
      </trkpt>
      <trkpt lat="49.97733" lon="2.1342">
        <ele>61.1</ele>
        <time>2024-04-17T12:18:35Z</time>
      </trkpt>
      <trkpt lat="49.97734" lon="2.1342">
        <ele>61.2</ele>
        <time>2024-04-17T12:18:36Z</time>
      </trkpt>
      <trkpt lat="49.97735" lon="2.13419">
        <ele>61.2</ele>
        <time>2024-04-17T12:18:37Z</time>
      </trkpt>
      <trkpt lat="49.97736" lon="2.13419">
        <ele>61.3</ele>
        <time>2024-04-17T12:18:38Z</time>
      </trkpt>
      <trkpt lat="49.97737" lon="2.13419">
        <ele>61.3</ele>
        <time>2024-04-17T12:18:39Z</time>
      </trkpt>
      <trkpt lat="49.97738" lon="2.13419">
        <ele>61.4</ele>
        <time>2024-04-17T12:18:40Z</time>
      </trkpt>
      <trkpt lat="49.97739" lon="2.13419">
        <ele>61.4</ele>
        <time>2024-04-17T12:18:41Z</time>
      </trkpt>
      <trkpt lat="49.97741" lon="2.13418">
        <ele>61.5</ele>
        <time>2024-04-17T12:18:42Z</time>
      </trkpt>
      <trkpt lat="49.97742" lon="2.13418">
        <ele>61.5</ele>
        <time>2024-04-17T12:18:43Z</time>
      </trkpt>
      <trkpt lat="49.97743" lon="2.13418">
        <ele>61.6</ele>
        <time>2024-04-17T12:18:44Z</time>
      </trkpt>
      <trkpt lat="49.97744" lon="2.13418">
        <ele>61.6</ele>
        <time>2024-04-17T12:18:45Z</time>
      </trkpt>
      <trkpt lat="49.97745" lon="2.13418">
        <ele>61.7</ele>
        <time>2024-04-17T12:18:46Z</time>
      </trkpt>
      <trkpt lat="49.97746" lon="2.13418">
        <ele>61.7</ele>
        <time>2024-04-17T12:18:47Z</time>
      </trkpt>
      <trkpt lat="49.97747" lon="2.13418">
        <ele>61.7</ele>
        <time>2024-04-17T12:18:48Z</time>
      </trkpt>
      <trkpt lat="49.97748" lon="2.13419">
        <ele>61.8</ele>
        <time>2024-04-17T12:18:49Z</time>
      </trkpt>
      <trkpt lat="49.97749" lon="2.13419">
        <ele>61.8</ele>
        <time>2024-04-17T12:18:50Z</time>
      </trkpt>
      <trkpt lat="49.9775" lon="2.13419">
        <ele>61.9</ele>
        <time>2024-04-17T12:18:51Z</time>
      </trkpt>
      <trkpt lat="49.97752" lon="2.13419">
        <ele>61.9</ele>
        <time>2024-04-17T12:18:52Z</time>
      </trkpt>
      <trkpt lat="49.97753" lon="2.13419">
        <ele>62</ele>
        <time>2024-04-17T12:18:53Z</time>
      </trkpt>
      <trkpt lat="49.97754" lon="2.13419">
        <ele>62</ele>
        <time>2024-04-17T12:18:54Z</time>
      </trkpt>
      <trkpt lat="49.97755" lon="2.13419">
        <ele>62.1</ele>
        <time>2024-04-17T12:18:55Z</time>
      </trkpt>
      <trkpt lat="49.97756" lon="2.13419">
        <ele>62.1</ele>
        <time>2024-04-17T12:18:56Z</time>
      </trkpt>
      <trkpt lat="49.97757" lon="2.13419">
        <ele>62.2</ele>
        <time>2024-04-17T12:18:57Z</time>
      </trkpt>
      <trkpt lat="49.97758" lon="2.13419">
        <ele>62.2</ele>
        <time>2024-04-17T12:18:58Z</time>
      </trkpt>
      <trkpt lat="49.97759" lon="2.13419">
        <ele>62.3</ele>
        <time>2024-04-17T12:18:59Z</time>
      </trkpt>
      <trkpt lat="49.9776" lon="2.1342">
        <ele>62.3</ele>
        <time>2024-04-17T12:19:00Z</time>
      </trkpt>
      <trkpt lat="49.97761" lon="2.1342">
        <ele>62.4</ele>
        <time>2024-04-17T12:19:01Z</time>
      </trkpt>
      <trkpt lat="49.97762" lon="2.1342">
        <ele>62.4</ele>
        <time>2024-04-17T12:19:02Z</time>
      </trkpt>
      <trkpt lat="49.97763" lon="2.1342">
        <ele>62.5</ele>
        <time>2024-04-17T12:19:03Z</time>
      </trkpt>
      <trkpt lat="49.97764" lon="2.1342">
        <ele>62.5</ele>
        <time>2024-04-17T12:19:04Z</time>
      </trkpt>
      <trkpt lat="49.97765" lon="2.1342">
        <ele>62.6</ele>
        <time>2024-04-17T12:19:05Z</time>
      </trkpt>
      <trkpt lat="49.97766" lon="2.1342">
        <ele>62.6</ele>
        <time>2024-04-17T12:19:06Z</time>
      </trkpt>
      <trkpt lat="49.97767" lon="2.1342">
        <ele>62.7</ele>
        <time>2024-04-17T12:19:07Z</time>
      </trkpt>
      <trkpt lat="49.97768" lon="2.1342">
        <ele>62.8</ele>
        <time>2024-04-17T12:19:08Z</time>
      </trkpt>
      <trkpt lat="49.97769" lon="2.1342">
        <ele>62.8</ele>
        <time>2024-04-17T12:19:09Z</time>
      </trkpt>
      <trkpt lat="49.97771" lon="2.1342">
        <ele>62.9</ele>
        <time>2024-04-17T12:19:10Z</time>
      </trkpt>
      <trkpt lat="49.97772" lon="2.1342">
        <ele>63</ele>
        <time>2024-04-17T12:19:11Z</time>
      </trkpt>
      <trkpt lat="49.97773" lon="2.1342">
        <ele>63</ele>
        <time>2024-04-17T12:19:12Z</time>
      </trkpt>
      <trkpt lat="49.97774" lon="2.1342">
        <ele>63.1</ele>
        <time>2024-04-17T12:19:13Z</time>
      </trkpt>
      <trkpt lat="49.97775" lon="2.1342">
        <ele>63.1</ele>
        <time>2024-04-17T12:19:14Z</time>
      </trkpt>
      <trkpt lat="49.97776" lon="2.1342">
        <ele>63.2</ele>
        <time>2024-04-17T12:19:15Z</time>
      </trkpt>
      <trkpt lat="49.97777" lon="2.1342">
        <ele>63.2</ele>
        <time>2024-04-17T12:19:16Z</time>
      </trkpt>
      <trkpt lat="49.97778" lon="2.1342">
        <ele>63.3</ele>
        <time>2024-04-17T12:19:17Z</time>
      </trkpt>
      <trkpt lat="49.97779" lon="2.1342">
        <ele>63.3</ele>
        <time>2024-04-17T12:19:18Z</time>
      </trkpt>
      <trkpt lat="49.97781" lon="2.1342">
        <ele>63.4</ele>
        <time>2024-04-17T12:19:19Z</time>
      </trkpt>
      <trkpt lat="49.97782" lon="2.13421">
        <ele>63.5</ele>
        <time>2024-04-17T12:19:20Z</time>
      </trkpt>
      <trkpt lat="49.97783" lon="2.13421">
        <ele>63.5</ele>
        <time>2024-04-17T12:19:21Z</time>
      </trkpt>
      <trkpt lat="49.97784" lon="2.13421">
        <ele>63.6</ele>
        <time>2024-04-17T12:19:22Z</time>
      </trkpt>
      <trkpt lat="49.97785" lon="2.13421">
        <ele>63.6</ele>
        <time>2024-04-17T12:19:23Z</time>
      </trkpt>
      <trkpt lat="49.97786" lon="2.13421">
        <ele>63.7</ele>
        <time>2024-04-17T12:19:24Z</time>
      </trkpt>
      <trkpt lat="49.97787" lon="2.13421">
        <ele>63.7</ele>
        <time>2024-04-17T12:19:25Z</time>
      </trkpt>
      <trkpt lat="49.97788" lon="2.13421">
        <ele>63.8</ele>
        <time>2024-04-17T12:19:26Z</time>
      </trkpt>
      <trkpt lat="49.97789" lon="2.13421">
        <ele>63.8</ele>
        <time>2024-04-17T12:19:27Z</time>
      </trkpt>
      <trkpt lat="49.9779" lon="2.13421">
        <ele>63.9</ele>
        <time>2024-04-17T12:19:28Z</time>
      </trkpt>
      <trkpt lat="49.97791" lon="2.13421">
        <ele>64</ele>
        <time>2024-04-17T12:19:29Z</time>
      </trkpt>
      <trkpt lat="49.97792" lon="2.13421">
        <ele>64</ele>
        <time>2024-04-17T12:19:30Z</time>
      </trkpt>
      <trkpt lat="49.97793" lon="2.1342">
        <ele>64.1</ele>
        <time>2024-04-17T12:19:31Z</time>
      </trkpt>
      <trkpt lat="49.97794" lon="2.1342">
        <ele>64.1</ele>
        <time>2024-04-17T12:19:32Z</time>
      </trkpt>
      <trkpt lat="49.97796" lon="2.1342">
        <ele>64.2</ele>
        <time>2024-04-17T12:19:33Z</time>
      </trkpt>
      <trkpt lat="49.97796" lon="2.1342">
        <ele>64.2</ele>
        <time>2024-04-17T12:19:34Z</time>
      </trkpt>
      <trkpt lat="49.97797" lon="2.1342">
        <ele>64.3</ele>
        <time>2024-04-17T12:19:35Z</time>
      </trkpt>
      <trkpt lat="49.97798" lon="2.1342">
        <ele>64.3</ele>
        <time>2024-04-17T12:19:36Z</time>
      </trkpt>
      <trkpt lat="49.97799" lon="2.1342">
        <ele>64.4</ele>
        <time>2024-04-17T12:19:37Z</time>
      </trkpt>
      <trkpt lat="49.978" lon="2.1342">
        <ele>64.5</ele>
        <time>2024-04-17T12:19:38Z</time>
      </trkpt>
      <trkpt lat="49.97801" lon="2.1342">
        <ele>64.5</ele>
        <time>2024-04-17T12:19:39Z</time>
      </trkpt>
      <trkpt lat="49.97802" lon="2.1342">
        <ele>64.6</ele>
        <time>2024-04-17T12:19:40Z</time>
      </trkpt>
      <trkpt lat="49.97804" lon="2.13421">
        <ele>64.6</ele>
        <time>2024-04-17T12:19:41Z</time>
      </trkpt>
      <trkpt lat="49.97805" lon="2.13421">
        <ele>64.7</ele>
        <time>2024-04-17T12:19:42Z</time>
      </trkpt>
      <trkpt lat="49.97806" lon="2.1342">
        <ele>64.7</ele>
        <time>2024-04-17T12:19:43Z</time>
      </trkpt>
      <trkpt lat="49.97807" lon="2.1342">
        <ele>64.8</ele>
        <time>2024-04-17T12:19:44Z</time>
      </trkpt>
      <trkpt lat="49.97808" lon="2.1342">
        <ele>64.8</ele>
        <time>2024-04-17T12:19:45Z</time>
      </trkpt>
      <trkpt lat="49.97809" lon="2.1342">
        <ele>64.9</ele>
        <time>2024-04-17T12:19:46Z</time>
      </trkpt>
      <trkpt lat="49.9781" lon="2.1342">
        <ele>64.9</ele>
        <time>2024-04-17T12:19:47Z</time>
      </trkpt>
      <trkpt lat="49.97811" lon="2.13419">
        <ele>65</ele>
        <time>2024-04-17T12:19:48Z</time>
      </trkpt>
      <trkpt lat="49.97812" lon="2.13419">
        <ele>65</ele>
        <time>2024-04-17T12:19:49Z</time>
      </trkpt>
      <trkpt lat="49.97813" lon="2.13419">
        <ele>65.1</ele>
        <time>2024-04-17T12:19:50Z</time>
      </trkpt>
      <trkpt lat="49.97814" lon="2.13418">
        <ele>65.1</ele>
        <time>2024-04-17T12:19:51Z</time>
      </trkpt>
      <trkpt lat="49.97815" lon="2.13418">
        <ele>65.2</ele>
        <time>2024-04-17T12:19:52Z</time>
      </trkpt>
      <trkpt lat="49.97817" lon="2.13418">
        <ele>65.2</ele>
        <time>2024-04-17T12:19:53Z</time>
      </trkpt>
      <trkpt lat="49.97818" lon="2.13418">
        <ele>65.3</ele>
        <time>2024-04-17T12:19:54Z</time>
      </trkpt>
      <trkpt lat="49.97819" lon="2.13417">
        <ele>65.3</ele>
        <time>2024-04-17T12:19:55Z</time>
      </trkpt>
      <trkpt lat="49.9782" lon="2.13417">
        <ele>65.4</ele>
        <time>2024-04-17T12:19:56Z</time>
      </trkpt>
      <trkpt lat="49.97821" lon="2.13417">
        <ele>65.4</ele>
        <time>2024-04-17T12:19:57Z</time>
      </trkpt>
      <trkpt lat="49.97822" lon="2.13417">
        <ele>65.5</ele>
        <time>2024-04-17T12:19:58Z</time>
      </trkpt>
      <trkpt lat="49.97823" lon="2.13416">
        <ele>65.5</ele>
        <time>2024-04-17T12:19:59Z</time>
      </trkpt>
      <trkpt lat="49.97824" lon="2.13416">
        <ele>65.6</ele>
        <time>2024-04-17T12:20:00Z</time>
      </trkpt>
      <trkpt lat="49.97825" lon="2.13415">
        <ele>65.7</ele>
        <time>2024-04-17T12:20:01Z</time>
      </trkpt>
      <trkpt lat="49.97826" lon="2.13415">
        <ele>65.7</ele>
        <time>2024-04-17T12:20:02Z</time>
      </trkpt>
      <trkpt lat="49.97827" lon="2.13414">
        <ele>65.8</ele>
        <time>2024-04-17T12:20:03Z</time>
      </trkpt>
      <trkpt lat="49.97828" lon="2.13414">
        <ele>65.8</ele>
        <time>2024-04-17T12:20:04Z</time>
      </trkpt>
      <trkpt lat="49.97829" lon="2.13414">
        <ele>65.9</ele>
        <time>2024-04-17T12:20:05Z</time>
      </trkpt>
      <trkpt lat="49.9783" lon="2.13413">
        <ele>65.9</ele>
        <time>2024-04-17T12:20:06Z</time>
      </trkpt>
      <trkpt lat="49.97832" lon="2.13413">
        <ele>66</ele>
        <time>2024-04-17T12:20:07Z</time>
      </trkpt>
      <trkpt lat="49.97833" lon="2.13413">
        <ele>66</ele>
        <time>2024-04-17T12:20:08Z</time>
      </trkpt>
      <trkpt lat="49.97834" lon="2.13413">
        <ele>66.1</ele>
        <time>2024-04-17T12:20:09Z</time>
      </trkpt>
      <trkpt lat="49.97835" lon="2.13413">
        <ele>66.1</ele>
        <time>2024-04-17T12:20:10Z</time>
      </trkpt>
      <trkpt lat="49.97836" lon="2.13413">
        <ele>66.2</ele>
        <time>2024-04-17T12:20:11Z</time>
      </trkpt>
      <trkpt lat="49.97837" lon="2.13412">
        <ele>66.3</ele>
        <time>2024-04-17T12:20:12Z</time>
      </trkpt>
      <trkpt lat="49.97838" lon="2.13412">
        <ele>66.3</ele>
        <time>2024-04-17T12:20:13Z</time>
      </trkpt>
      <trkpt lat="49.9784" lon="2.13412">
        <ele>66.4</ele>
        <time>2024-04-17T12:20:14Z</time>
      </trkpt>
      <trkpt lat="49.97841" lon="2.13412">
        <ele>66.4</ele>
        <time>2024-04-17T12:20:15Z</time>
      </trkpt>
      <trkpt lat="49.97842" lon="2.13412">
        <ele>66.5</ele>
        <time>2024-04-17T12:20:16Z</time>
      </trkpt>
      <trkpt lat="49.97843" lon="2.13412">
        <ele>66.5</ele>
        <time>2024-04-17T12:20:17Z</time>
      </trkpt>
      <trkpt lat="49.97844" lon="2.13412">
        <ele>66.6</ele>
        <time>2024-04-17T12:20:18Z</time>
      </trkpt>
      <trkpt lat="49.97845" lon="2.13412">
        <ele>66.6</ele>
        <time>2024-04-17T12:20:19Z</time>
      </trkpt>
      <trkpt lat="49.97846" lon="2.13411">
        <ele>66.7</ele>
        <time>2024-04-17T12:20:20Z</time>
      </trkpt>
      <trkpt lat="49.97847" lon="2.13411">
        <ele>66.7</ele>
        <time>2024-04-17T12:20:21Z</time>
      </trkpt>
      <trkpt lat="49.97848" lon="2.13411">
        <ele>66.8</ele>
        <time>2024-04-17T12:20:22Z</time>
      </trkpt>
      <trkpt lat="49.9785" lon="2.13411">
        <ele>66.8</ele>
        <time>2024-04-17T12:20:23Z</time>
      </trkpt>
      <trkpt lat="49.9785" lon="2.13411">
        <ele>66.9</ele>
        <time>2024-04-17T12:20:24Z</time>
      </trkpt>
      <trkpt lat="49.97852" lon="2.13411">
        <ele>66.9</ele>
        <time>2024-04-17T12:20:25Z</time>
      </trkpt>
      <trkpt lat="49.97853" lon="2.13411">
        <ele>67</ele>
        <time>2024-04-17T12:20:26Z</time>
      </trkpt>
      <trkpt lat="49.97854" lon="2.13411">
        <ele>67</ele>
        <time>2024-04-17T12:20:27Z</time>
      </trkpt>
      <trkpt lat="49.97855" lon="2.13411">
        <ele>67.1</ele>
        <time>2024-04-17T12:20:28Z</time>
      </trkpt>
      <trkpt lat="49.97856" lon="2.1341">
        <ele>67.1</ele>
        <time>2024-04-17T12:20:29Z</time>
      </trkpt>
      <trkpt lat="49.97857" lon="2.1341">
        <ele>67.2</ele>
        <time>2024-04-17T12:20:30Z</time>
      </trkpt>
      <trkpt lat="49.97859" lon="2.1341">
        <ele>67.3</ele>
        <time>2024-04-17T12:20:31Z</time>
      </trkpt>
      <trkpt lat="49.9786" lon="2.1341">
        <ele>67.3</ele>
        <time>2024-04-17T12:20:32Z</time>
      </trkpt>
      <trkpt lat="49.97861" lon="2.13409">
        <ele>67.3</ele>
        <time>2024-04-17T12:20:33Z</time>
      </trkpt>
      <trkpt lat="49.97862" lon="2.13409">
        <ele>67.4</ele>
        <time>2024-04-17T12:20:34Z</time>
      </trkpt>
      <trkpt lat="49.97863" lon="2.13409">
        <ele>67.4</ele>
        <time>2024-04-17T12:20:35Z</time>
      </trkpt>
      <trkpt lat="49.97864" lon="2.13409">
        <ele>67.5</ele>
        <time>2024-04-17T12:20:36Z</time>
      </trkpt>
      <trkpt lat="49.97865" lon="2.13409">
        <ele>67.5</ele>
        <time>2024-04-17T12:20:37Z</time>
      </trkpt>
      <trkpt lat="49.97867" lon="2.13409">
        <ele>67.6</ele>
        <time>2024-04-17T12:20:38Z</time>
      </trkpt>
      <trkpt lat="49.97868" lon="2.13409">
        <ele>67.6</ele>
        <time>2024-04-17T12:20:39Z</time>
      </trkpt>
      <trkpt lat="49.9787" lon="2.13409">
        <ele>67.7</ele>
        <time>2024-04-17T12:20:40Z</time>
      </trkpt>
      <trkpt lat="49.97871" lon="2.13409">
        <ele>67.8</ele>
        <time>2024-04-17T12:20:41Z</time>
      </trkpt>
      <trkpt lat="49.97871" lon="2.13408">
        <ele>67.8</ele>
        <time>2024-04-17T12:20:42Z</time>
      </trkpt>
      <trkpt lat="49.97873" lon="2.13408">
        <ele>67.9</ele>
        <time>2024-04-17T12:20:43Z</time>
      </trkpt>
      <trkpt lat="49.97874" lon="2.13408">
        <ele>68</ele>
        <time>2024-04-17T12:20:44Z</time>
      </trkpt>
      <trkpt lat="49.97875" lon="2.13407">
        <ele>68</ele>
        <time>2024-04-17T12:20:45Z</time>
      </trkpt>
      <trkpt lat="49.97876" lon="2.13407">
        <ele>68</ele>
        <time>2024-04-17T12:20:46Z</time>
      </trkpt>
      <trkpt lat="49.97877" lon="2.13407">
        <ele>68.1</ele>
        <time>2024-04-17T12:20:47Z</time>
      </trkpt>
      <trkpt lat="49.97878" lon="2.13407">
        <ele>68.2</ele>
        <time>2024-04-17T12:20:48Z</time>
      </trkpt>
      <trkpt lat="49.97879" lon="2.13407">
        <ele>68.2</ele>
        <time>2024-04-17T12:20:49Z</time>
      </trkpt>
      <trkpt lat="49.9788" lon="2.13407">
        <ele>68.3</ele>
        <time>2024-04-17T12:20:50Z</time>
      </trkpt>
      <trkpt lat="49.97881" lon="2.13407">
        <ele>68.3</ele>
        <time>2024-04-17T12:20:51Z</time>
      </trkpt>
      <trkpt lat="49.97882" lon="2.13407">
        <ele>68.4</ele>
        <time>2024-04-17T12:20:52Z</time>
      </trkpt>
      <trkpt lat="49.97883" lon="2.13407">
        <ele>68.5</ele>
        <time>2024-04-17T12:20:53Z</time>
      </trkpt>
      <trkpt lat="49.97884" lon="2.13408">
        <ele>68.5</ele>
        <time>2024-04-17T12:20:54Z</time>
      </trkpt>
      <trkpt lat="49.97885" lon="2.13408">
        <ele>68.6</ele>
        <time>2024-04-17T12:20:55Z</time>
      </trkpt>
      <trkpt lat="49.97886" lon="2.13408">
        <ele>68.6</ele>
        <time>2024-04-17T12:20:56Z</time>
      </trkpt>
      <trkpt lat="49.97887" lon="2.13408">
        <ele>68.7</ele>
        <time>2024-04-17T12:20:57Z</time>
      </trkpt>
      <trkpt lat="49.97888" lon="2.13408">
        <ele>68.8</ele>
        <time>2024-04-17T12:20:58Z</time>
      </trkpt>
      <trkpt lat="49.97889" lon="2.13408">
        <ele>68.8</ele>
        <time>2024-04-17T12:20:59Z</time>
      </trkpt>
      <trkpt lat="49.97891" lon="2.13408">
        <ele>68.9</ele>
        <time>2024-04-17T12:21:00Z</time>
      </trkpt>
      <trkpt lat="49.97892" lon="2.13408">
        <ele>69</ele>
        <time>2024-04-17T12:21:01Z</time>
      </trkpt>
      <trkpt lat="49.97893" lon="2.13408">
        <ele>69</ele>
        <time>2024-04-17T12:21:02Z</time>
      </trkpt>
      <trkpt lat="49.97894" lon="2.13408">
        <ele>69.1</ele>
        <time>2024-04-17T12:21:03Z</time>
      </trkpt>
      <trkpt lat="49.97895" lon="2.13408">
        <ele>69.2</ele>
        <time>2024-04-17T12:21:04Z</time>
      </trkpt>
      <trkpt lat="49.97896" lon="2.13408">
        <ele>69.3</ele>
        <time>2024-04-17T12:21:05Z</time>
      </trkpt>
      <trkpt lat="49.97897" lon="2.13408">
        <ele>69.4</ele>
        <time>2024-04-17T12:21:06Z</time>
      </trkpt>
      <trkpt lat="49.97899" lon="2.13408">
        <ele>69.4</ele>
        <time>2024-04-17T12:21:07Z</time>
      </trkpt>
      <trkpt lat="49.979" lon="2.13408">
        <ele>69.5</ele>
        <time>2024-04-17T12:21:08Z</time>
      </trkpt>
      <trkpt lat="49.97901" lon="2.13407">
        <ele>69.6</ele>
        <time>2024-04-17T12:21:09Z</time>
      </trkpt>
      <trkpt lat="49.97902" lon="2.13407">
        <ele>69.7</ele>
        <time>2024-04-17T12:21:10Z</time>
      </trkpt>
      <trkpt lat="49.97903" lon="2.13407">
        <ele>69.8</ele>
        <time>2024-04-17T12:21:11Z</time>
      </trkpt>
      <trkpt lat="49.97904" lon="2.13407">
        <ele>69.8</ele>
        <time>2024-04-17T12:21:12Z</time>
      </trkpt>
      <trkpt lat="49.97905" lon="2.13407">
        <ele>69.9</ele>
        <time>2024-04-17T12:21:13Z</time>
      </trkpt>
      <trkpt lat="49.97906" lon="2.13407">
        <ele>70</ele>
        <time>2024-04-17T12:21:14Z</time>
      </trkpt>
      <trkpt lat="49.97907" lon="2.13407">
        <ele>70</ele>
        <time>2024-04-17T12:21:15Z</time>
      </trkpt>
      <trkpt lat="49.97907" lon="2.13407">
        <ele>70.1</ele>
        <time>2024-04-17T12:21:16Z</time>
      </trkpt>
      <trkpt lat="49.97908" lon="2.13407">
        <ele>70.2</ele>
        <time>2024-04-17T12:21:17Z</time>
      </trkpt>
      <trkpt lat="49.9791" lon="2.13407">
        <ele>70.2</ele>
        <time>2024-04-17T12:21:18Z</time>
      </trkpt>
      <trkpt lat="49.9791" lon="2.13407">
        <ele>70.3</ele>
        <time>2024-04-17T12:21:19Z</time>
      </trkpt>
      <trkpt lat="49.97911" lon="2.13407">
        <ele>70.3</ele>
        <time>2024-04-17T12:21:20Z</time>
      </trkpt>
      <trkpt lat="49.97912" lon="2.13407">
        <ele>70.4</ele>
        <time>2024-04-17T12:21:21Z</time>
      </trkpt>
      <trkpt lat="49.97913" lon="2.13407">
        <ele>70.5</ele>
        <time>2024-04-17T12:21:22Z</time>
      </trkpt>
      <trkpt lat="49.97914" lon="2.13407">
        <ele>70.5</ele>
        <time>2024-04-17T12:21:23Z</time>
      </trkpt>
      <trkpt lat="49.97914" lon="2.13407">
        <ele>70.6</ele>
        <time>2024-04-17T12:21:24Z</time>
      </trkpt>
      <trkpt lat="49.97916" lon="2.13407">
        <ele>70.7</ele>
        <time>2024-04-17T12:21:25Z</time>
      </trkpt>
      <trkpt lat="49.97917" lon="2.13407">
        <ele>70.8</ele>
        <time>2024-04-17T12:21:26Z</time>
      </trkpt>
      <trkpt lat="49.97918" lon="2.13407">
        <ele>70.8</ele>
        <time>2024-04-17T12:21:27Z</time>
      </trkpt>
      <trkpt lat="49.97918" lon="2.13407">
        <ele>70.9</ele>
        <time>2024-04-17T12:21:28Z</time>
      </trkpt>
      <trkpt lat="49.97919" lon="2.13407">
        <ele>71</ele>
        <time>2024-04-17T12:21:29Z</time>
      </trkpt>
      <trkpt lat="49.9792" lon="2.13407">
        <ele>71</ele>
        <time>2024-04-17T12:21:30Z</time>
      </trkpt>
      <trkpt lat="49.97921" lon="2.13407">
        <ele>71.1</ele>
        <time>2024-04-17T12:21:31Z</time>
      </trkpt>
      <trkpt lat="49.97922" lon="2.13407">
        <ele>71.2</ele>
        <time>2024-04-17T12:21:32Z</time>
      </trkpt>
      <trkpt lat="49.97923" lon="2.13407">
        <ele>71.2</ele>
        <time>2024-04-17T12:21:33Z</time>
      </trkpt>
      <trkpt lat="49.97924" lon="2.13407">
        <ele>71.3</ele>
        <time>2024-04-17T12:21:34Z</time>
      </trkpt>
      <trkpt lat="49.97925" lon="2.13406">
        <ele>71.4</ele>
        <time>2024-04-17T12:21:35Z</time>
      </trkpt>
      <trkpt lat="49.97926" lon="2.13406">
        <ele>71.4</ele>
        <time>2024-04-17T12:21:36Z</time>
      </trkpt>
      <trkpt lat="49.97927" lon="2.13406">
        <ele>71.5</ele>
        <time>2024-04-17T12:21:37Z</time>
      </trkpt>
      <trkpt lat="49.97928" lon="2.13406">
        <ele>71.6</ele>
        <time>2024-04-17T12:21:38Z</time>
      </trkpt>
      <trkpt lat="49.97929" lon="2.13405">
        <ele>71.6</ele>
        <time>2024-04-17T12:21:39Z</time>
      </trkpt>
      <trkpt lat="49.9793" lon="2.13405">
        <ele>71.7</ele>
        <time>2024-04-17T12:21:40Z</time>
      </trkpt>
      <trkpt lat="49.97931" lon="2.13405">
        <ele>71.8</ele>
        <time>2024-04-17T12:21:41Z</time>
      </trkpt>
      <trkpt lat="49.97931" lon="2.13405">
        <ele>71.8</ele>
        <time>2024-04-17T12:21:42Z</time>
      </trkpt>
      <trkpt lat="49.97932" lon="2.13405">
        <ele>71.9</ele>
        <time>2024-04-17T12:21:43Z</time>
      </trkpt>
      <trkpt lat="49.97933" lon="2.13405">
        <ele>72</ele>
        <time>2024-04-17T12:21:44Z</time>
      </trkpt>
      <trkpt lat="49.97934" lon="2.13404">
        <ele>72</ele>
        <time>2024-04-17T12:21:45Z</time>
      </trkpt>
      <trkpt lat="49.97935" lon="2.13404">
        <ele>72.1</ele>
        <time>2024-04-17T12:21:46Z</time>
      </trkpt>
      <trkpt lat="49.97936" lon="2.13404">
        <ele>72.1</ele>
        <time>2024-04-17T12:21:47Z</time>
      </trkpt>
      <trkpt lat="49.97936" lon="2.13404">
        <ele>72.2</ele>
        <time>2024-04-17T12:21:48Z</time>
      </trkpt>
      <trkpt lat="49.97937" lon="2.13403">
        <ele>72.3</ele>
        <time>2024-04-17T12:21:49Z</time>
      </trkpt>
      <trkpt lat="49.97938" lon="2.13403">
        <ele>72.3</ele>
        <time>2024-04-17T12:21:50Z</time>
      </trkpt>
      <trkpt lat="49.97939" lon="2.13403">
        <ele>72.4</ele>
        <time>2024-04-17T12:21:51Z</time>
      </trkpt>
      <trkpt lat="49.9794" lon="2.13403">
        <ele>72.4</ele>
        <time>2024-04-17T12:21:52Z</time>
      </trkpt>
      <trkpt lat="49.97941" lon="2.13403">
        <ele>72.4</ele>
        <time>2024-04-17T12:21:53Z</time>
      </trkpt>
      <trkpt lat="49.97942" lon="2.13403">
        <ele>72.4</ele>
        <time>2024-04-17T12:21:54Z</time>
      </trkpt>
      <trkpt lat="49.97943" lon="2.13403">
        <ele>72.5</ele>
        <time>2024-04-17T12:21:55Z</time>
      </trkpt>
      <trkpt lat="49.97944" lon="2.13403">
        <ele>72.5</ele>
        <time>2024-04-17T12:21:56Z</time>
      </trkpt>
      <trkpt lat="49.97945" lon="2.13403">
        <ele>72.5</ele>
        <time>2024-04-17T12:21:57Z</time>
      </trkpt>
      <trkpt lat="49.97946" lon="2.13403">
        <ele>72.5</ele>
        <time>2024-04-17T12:21:58Z</time>
      </trkpt>
      <trkpt lat="49.97947" lon="2.13403">
        <ele>72.5</ele>
        <time>2024-04-17T12:21:59Z</time>
      </trkpt>
      <trkpt lat="49.97948" lon="2.13403">
        <ele>72.5</ele>
        <time>2024-04-17T12:22:00Z</time>
      </trkpt>
      <trkpt lat="49.97949" lon="2.13403">
        <ele>72.6</ele>
        <time>2024-04-17T12:22:01Z</time>
      </trkpt>
      <trkpt lat="49.9795" lon="2.13404">
        <ele>72.6</ele>
        <time>2024-04-17T12:22:02Z</time>
      </trkpt>
      <trkpt lat="49.97951" lon="2.13404">
        <ele>72.6</ele>
        <time>2024-04-17T12:22:03Z</time>
      </trkpt>
      <trkpt lat="49.97951" lon="2.13404">
        <ele>72.6</ele>
        <time>2024-04-17T12:22:04Z</time>
      </trkpt>
      <trkpt lat="49.97952" lon="2.13404">
        <ele>72.6</ele>
        <time>2024-04-17T12:22:05Z</time>
      </trkpt>
      <trkpt lat="49.97953" lon="2.13404">
        <ele>72.6</ele>
        <time>2024-04-17T12:22:06Z</time>
      </trkpt>
      <trkpt lat="49.97954" lon="2.13404">
        <ele>72.7</ele>
        <time>2024-04-17T12:22:07Z</time>
      </trkpt>
      <trkpt lat="49.97956" lon="2.13404">
        <ele>72.7</ele>
        <time>2024-04-17T12:22:08Z</time>
      </trkpt>
      <trkpt lat="49.97957" lon="2.13404">
        <ele>72.7</ele>
        <time>2024-04-17T12:22:09Z</time>
      </trkpt>
      <trkpt lat="49.97958" lon="2.13404">
        <ele>72.7</ele>
        <time>2024-04-17T12:22:10Z</time>
      </trkpt>
      <trkpt lat="49.97959" lon="2.13404">
        <ele>72.7</ele>
        <time>2024-04-17T12:22:11Z</time>
      </trkpt>
      <trkpt lat="49.9796" lon="2.13403">
        <ele>72.8</ele>
        <time>2024-04-17T12:22:12Z</time>
      </trkpt>
      <trkpt lat="49.97961" lon="2.13403">
        <ele>72.8</ele>
        <time>2024-04-17T12:22:13Z</time>
      </trkpt>
      <trkpt lat="49.97962" lon="2.13403">
        <ele>72.8</ele>
        <time>2024-04-17T12:22:14Z</time>
      </trkpt>
      <trkpt lat="49.97963" lon="2.13403">
        <ele>72.8</ele>
        <time>2024-04-17T12:22:15Z</time>
      </trkpt>
      <trkpt lat="49.97964" lon="2.13404">
        <ele>72.8</ele>
        <time>2024-04-17T12:22:16Z</time>
      </trkpt>
      <trkpt lat="49.97965" lon="2.13403">
        <ele>72.8</ele>
        <time>2024-04-17T12:22:17Z</time>
      </trkpt>
      <trkpt lat="49.97967" lon="2.13403">
        <ele>72.8</ele>
        <time>2024-04-17T12:22:18Z</time>
      </trkpt>
      <trkpt lat="49.97968" lon="2.13403">
        <ele>72.8</ele>
        <time>2024-04-17T12:22:19Z</time>
      </trkpt>
      <trkpt lat="49.97969" lon="2.13402">
        <ele>72.8</ele>
        <time>2024-04-17T12:22:20Z</time>
      </trkpt>
      <trkpt lat="49.9797" lon="2.13402">
        <ele>72.8</ele>
        <time>2024-04-17T12:22:21Z</time>
      </trkpt>
      <trkpt lat="49.97971" lon="2.13402">
        <ele>72.9</ele>
        <time>2024-04-17T12:22:22Z</time>
      </trkpt>
      <trkpt lat="49.97972" lon="2.13402">
        <ele>72.9</ele>
        <time>2024-04-17T12:22:23Z</time>
      </trkpt>
      <trkpt lat="49.97973" lon="2.13402">
        <ele>72.9</ele>
        <time>2024-04-17T12:22:24Z</time>
      </trkpt>
      <trkpt lat="49.97974" lon="2.13402">
        <ele>72.9</ele>
        <time>2024-04-17T12:22:25Z</time>
      </trkpt>
      <trkpt lat="49.97975" lon="2.13402">
        <ele>72.9</ele>
        <time>2024-04-17T12:22:26Z</time>
      </trkpt>
      <trkpt lat="49.97976" lon="2.13402">
        <ele>72.9</ele>
        <time>2024-04-17T12:22:27Z</time>
      </trkpt>
      <trkpt lat="49.97978" lon="2.13402">
        <ele>73</ele>
        <time>2024-04-17T12:22:28Z</time>
      </trkpt>
      <trkpt lat="49.97979" lon="2.13402">
        <ele>73</ele>
        <time>2024-04-17T12:22:29Z</time>
      </trkpt>
      <trkpt lat="49.9798" lon="2.13402">
        <ele>73</ele>
        <time>2024-04-17T12:22:30Z</time>
      </trkpt>
      <trkpt lat="49.97981" lon="2.13402">
        <ele>73</ele>
        <time>2024-04-17T12:22:31Z</time>
      </trkpt>
      <trkpt lat="49.97982" lon="2.13401">
        <ele>73</ele>
        <time>2024-04-17T12:22:32Z</time>
      </trkpt>
      <trkpt lat="49.97984" lon="2.13401">
        <ele>73</ele>
        <time>2024-04-17T12:22:33Z</time>
      </trkpt>
      <trkpt lat="49.97985" lon="2.13401">
        <ele>73</ele>
        <time>2024-04-17T12:22:34Z</time>
      </trkpt>
      <trkpt lat="49.97986" lon="2.13401">
        <ele>73</ele>
        <time>2024-04-17T12:22:35Z</time>
      </trkpt>
      <trkpt lat="49.97987" lon="2.13401">
        <ele>73</ele>
        <time>2024-04-17T12:22:36Z</time>
      </trkpt>
      <trkpt lat="49.97988" lon="2.134">
        <ele>73.1</ele>
        <time>2024-04-17T12:22:37Z</time>
      </trkpt>
      <trkpt lat="49.97989" lon="2.134">
        <ele>73.1</ele>
        <time>2024-04-17T12:22:38Z</time>
      </trkpt>
      <trkpt lat="49.9799" lon="2.134">
        <ele>73.1</ele>
        <time>2024-04-17T12:22:39Z</time>
      </trkpt>
      <trkpt lat="49.97991" lon="2.13399">
        <ele>73.1</ele>
        <time>2024-04-17T12:22:40Z</time>
      </trkpt>
      <trkpt lat="49.97993" lon="2.13399">
        <ele>73.1</ele>
        <time>2024-04-17T12:22:41Z</time>
      </trkpt>
      <trkpt lat="49.97994" lon="2.13399">
        <ele>73.1</ele>
        <time>2024-04-17T12:22:42Z</time>
      </trkpt>
      <trkpt lat="49.97995" lon="2.13398">
        <ele>73.1</ele>
        <time>2024-04-17T12:22:43Z</time>
      </trkpt>
      <trkpt lat="49.97996" lon="2.13398">
        <ele>73.1</ele>
        <time>2024-04-17T12:22:44Z</time>
      </trkpt>
      <trkpt lat="49.97997" lon="2.13398">
        <ele>73.1</ele>
        <time>2024-04-17T12:22:45Z</time>
      </trkpt>
      <trkpt lat="49.97997" lon="2.13398">
        <ele>73.1</ele>
        <time>2024-04-17T12:22:46Z</time>
      </trkpt>
      <trkpt lat="49.97999" lon="2.13398">
        <ele>73.1</ele>
        <time>2024-04-17T12:22:47Z</time>
      </trkpt>
      <trkpt lat="49.98" lon="2.13399">
        <ele>73.1</ele>
        <time>2024-04-17T12:22:48Z</time>
      </trkpt>
      <trkpt lat="49.98001" lon="2.13399">
        <ele>73.1</ele>
        <time>2024-04-17T12:22:49Z</time>
      </trkpt>
      <trkpt lat="49.98002" lon="2.13399">
        <ele>73.1</ele>
        <time>2024-04-17T12:22:50Z</time>
      </trkpt>
      <trkpt lat="49.98003" lon="2.13399">
        <ele>73.1</ele>
        <time>2024-04-17T12:22:51Z</time>
      </trkpt>
      <trkpt lat="49.98004" lon="2.134">
        <ele>73.1</ele>
        <time>2024-04-17T12:22:52Z</time>
      </trkpt>
      <trkpt lat="49.98005" lon="2.134">
        <ele>73.1</ele>
        <time>2024-04-17T12:22:53Z</time>
      </trkpt>
      <trkpt lat="49.98006" lon="2.134">
        <ele>73.1</ele>
        <time>2024-04-17T12:22:54Z</time>
      </trkpt>
      <trkpt lat="49.98008" lon="2.134">
        <ele>73.1</ele>
        <time>2024-04-17T12:22:55Z</time>
      </trkpt>
      <trkpt lat="49.98009" lon="2.134">
        <ele>73</ele>
        <time>2024-04-17T12:22:56Z</time>
      </trkpt>
      <trkpt lat="49.9801" lon="2.134">
        <ele>73</ele>
        <time>2024-04-17T12:22:57Z</time>
      </trkpt>
      <trkpt lat="49.98011" lon="2.134">
        <ele>73</ele>
        <time>2024-04-17T12:22:58Z</time>
      </trkpt>
      <trkpt lat="49.98012" lon="2.134">
        <ele>73</ele>
        <time>2024-04-17T12:22:59Z</time>
      </trkpt>
      <trkpt lat="49.98013" lon="2.134">
        <ele>73</ele>
        <time>2024-04-17T12:23:00Z</time>
      </trkpt>
      <trkpt lat="49.98014" lon="2.134">
        <ele>73</ele>
        <time>2024-04-17T12:23:01Z</time>
      </trkpt>
      <trkpt lat="49.98015" lon="2.134">
        <ele>73</ele>
        <time>2024-04-17T12:23:02Z</time>
      </trkpt>
      <trkpt lat="49.98017" lon="2.134">
        <ele>73</ele>
        <time>2024-04-17T12:23:03Z</time>
      </trkpt>
      <trkpt lat="49.98019" lon="2.134">
        <ele>72.9</ele>
        <time>2024-04-17T12:23:04Z</time>
      </trkpt>
      <trkpt lat="49.98019" lon="2.134">
        <ele>72.9</ele>
        <time>2024-04-17T12:23:05Z</time>
      </trkpt>
      <trkpt lat="49.9802" lon="2.13401">
        <ele>72.9</ele>
        <time>2024-04-17T12:23:06Z</time>
      </trkpt>
      <trkpt lat="49.98022" lon="2.13401">
        <ele>72.8</ele>
        <time>2024-04-17T12:23:07Z</time>
      </trkpt>
      <trkpt lat="49.98023" lon="2.13401">
        <ele>72.8</ele>
        <time>2024-04-17T12:23:08Z</time>
      </trkpt>
      <trkpt lat="49.98024" lon="2.13401">
        <ele>72.7</ele>
        <time>2024-04-17T12:23:09Z</time>
      </trkpt>
      <trkpt lat="49.98025" lon="2.13401">
        <ele>72.7</ele>
        <time>2024-04-17T12:23:10Z</time>
      </trkpt>
      <trkpt lat="49.98026" lon="2.13401">
        <ele>72.6</ele>
        <time>2024-04-17T12:23:11Z</time>
      </trkpt>
      <trkpt lat="49.98027" lon="2.13401">
        <ele>72.5</ele>
        <time>2024-04-17T12:23:12Z</time>
      </trkpt>
      <trkpt lat="49.98029" lon="2.13401">
        <ele>72.5</ele>
        <time>2024-04-17T12:23:13Z</time>
      </trkpt>
      <trkpt lat="49.9803" lon="2.13402">
        <ele>72.4</ele>
        <time>2024-04-17T12:23:14Z</time>
      </trkpt>
      <trkpt lat="49.98031" lon="2.13402">
        <ele>72.4</ele>
        <time>2024-04-17T12:23:15Z</time>
      </trkpt>
      <trkpt lat="49.98032" lon="2.13402">
        <ele>72.3</ele>
        <time>2024-04-17T12:23:16Z</time>
      </trkpt>
      <trkpt lat="49.98033" lon="2.13402">
        <ele>72.3</ele>
        <time>2024-04-17T12:23:17Z</time>
      </trkpt>
      <trkpt lat="49.98034" lon="2.13402">
        <ele>72.2</ele>
        <time>2024-04-17T12:23:18Z</time>
      </trkpt>
      <trkpt lat="49.98035" lon="2.13402">
        <ele>72.1</ele>
        <time>2024-04-17T12:23:19Z</time>
      </trkpt>
      <trkpt lat="49.98036" lon="2.13402">
        <ele>72.1</ele>
        <time>2024-04-17T12:23:20Z</time>
      </trkpt>
      <trkpt lat="49.98037" lon="2.13402">
        <ele>72</ele>
        <time>2024-04-17T12:23:21Z</time>
      </trkpt>
      <trkpt lat="49.98038" lon="2.13402">
        <ele>71.9</ele>
        <time>2024-04-17T12:23:22Z</time>
      </trkpt>
      <trkpt lat="49.98039" lon="2.13402">
        <ele>71.9</ele>
        <time>2024-04-17T12:23:23Z</time>
      </trkpt>
      <trkpt lat="49.9804" lon="2.13402">
        <ele>71.8</ele>
        <time>2024-04-17T12:23:24Z</time>
      </trkpt>
      <trkpt lat="49.98042" lon="2.13402">
        <ele>71.8</ele>
        <time>2024-04-17T12:23:25Z</time>
      </trkpt>
      <trkpt lat="49.98043" lon="2.13402">
        <ele>71.7</ele>
        <time>2024-04-17T12:23:26Z</time>
      </trkpt>
      <trkpt lat="49.98044" lon="2.13402">
        <ele>71.6</ele>
        <time>2024-04-17T12:23:27Z</time>
      </trkpt>
      <trkpt lat="49.98045" lon="2.13402">
        <ele>71.6</ele>
        <time>2024-04-17T12:23:28Z</time>
      </trkpt>
      <trkpt lat="49.98046" lon="2.13401">
        <ele>71.5</ele>
        <time>2024-04-17T12:23:29Z</time>
      </trkpt>
      <trkpt lat="49.98047" lon="2.13401">
        <ele>71.5</ele>
        <time>2024-04-17T12:23:30Z</time>
      </trkpt>
      <trkpt lat="49.98048" lon="2.13401">
        <ele>71.5</ele>
        <time>2024-04-17T12:23:31Z</time>
      </trkpt>
      <trkpt lat="49.98049" lon="2.134">
        <ele>71.4</ele>
        <time>2024-04-17T12:23:32Z</time>
      </trkpt>
      <trkpt lat="49.9805" lon="2.134">
        <ele>71.4</ele>
        <time>2024-04-17T12:23:33Z</time>
      </trkpt>
      <trkpt lat="49.98051" lon="2.13399">
        <ele>71.3</ele>
        <time>2024-04-17T12:23:34Z</time>
      </trkpt>
      <trkpt lat="49.98052" lon="2.13399">
        <ele>71.3</ele>
        <time>2024-04-17T12:23:35Z</time>
      </trkpt>
      <trkpt lat="49.98053" lon="2.13399">
        <ele>71.2</ele>
        <time>2024-04-17T12:23:36Z</time>
      </trkpt>
      <trkpt lat="49.98054" lon="2.13399">
        <ele>71.2</ele>
        <time>2024-04-17T12:23:37Z</time>
      </trkpt>
      <trkpt lat="49.98055" lon="2.13399">
        <ele>71.2</ele>
        <time>2024-04-17T12:23:38Z</time>
      </trkpt>
      <trkpt lat="49.98056" lon="2.13399">
        <ele>71.1</ele>
        <time>2024-04-17T12:23:39Z</time>
      </trkpt>
      <trkpt lat="49.98057" lon="2.13399">
        <ele>71.1</ele>
        <time>2024-04-17T12:23:40Z</time>
      </trkpt>
      <trkpt lat="49.98058" lon="2.13398">
        <ele>71</ele>
        <time>2024-04-17T12:23:41Z</time>
      </trkpt>
      <trkpt lat="49.9806" lon="2.13398">
        <ele>71</ele>
        <time>2024-04-17T12:23:42Z</time>
      </trkpt>
      <trkpt lat="49.98061" lon="2.13398">
        <ele>70.9</ele>
        <time>2024-04-17T12:23:43Z</time>
      </trkpt>
      <trkpt lat="49.98062" lon="2.13398">
        <ele>70.9</ele>
        <time>2024-04-17T12:23:44Z</time>
      </trkpt>
      <trkpt lat="49.98063" lon="2.13397">
        <ele>70.9</ele>
        <time>2024-04-17T12:23:45Z</time>
      </trkpt>
      <trkpt lat="49.98064" lon="2.13397">
        <ele>70.8</ele>
        <time>2024-04-17T12:23:46Z</time>
      </trkpt>
      <trkpt lat="49.98065" lon="2.13397">
        <ele>70.8</ele>
        <time>2024-04-17T12:23:47Z</time>
      </trkpt>
      <trkpt lat="49.98066" lon="2.13397">
        <ele>70.7</ele>
        <time>2024-04-17T12:23:48Z</time>
      </trkpt>
      <trkpt lat="49.98068" lon="2.13398">
        <ele>70.7</ele>
        <time>2024-04-17T12:23:49Z</time>
      </trkpt>
      <trkpt lat="49.98069" lon="2.13398">
        <ele>70.6</ele>
        <time>2024-04-17T12:23:50Z</time>
      </trkpt>
      <trkpt lat="49.9807" lon="2.13398">
        <ele>70.6</ele>
        <time>2024-04-17T12:23:51Z</time>
      </trkpt>
      <trkpt lat="49.98071" lon="2.13398">
        <ele>70.6</ele>
        <time>2024-04-17T12:23:52Z</time>
      </trkpt>
      <trkpt lat="49.98072" lon="2.13399">
        <ele>70.5</ele>
        <time>2024-04-17T12:23:53Z</time>
      </trkpt>
      <trkpt lat="49.98073" lon="2.13399">
        <ele>70.5</ele>
        <time>2024-04-17T12:23:54Z</time>
      </trkpt>
      <trkpt lat="49.98074" lon="2.13399">
        <ele>70.5</ele>
        <time>2024-04-17T12:23:55Z</time>
      </trkpt>
      <trkpt lat="49.98075" lon="2.13399">
        <ele>70.4</ele>
        <time>2024-04-17T12:23:56Z</time>
      </trkpt>
      <trkpt lat="49.98076" lon="2.13399">
        <ele>70.4</ele>
        <time>2024-04-17T12:23:57Z</time>
      </trkpt>
      <trkpt lat="49.98077" lon="2.13399">
        <ele>70.4</ele>
        <time>2024-04-17T12:23:58Z</time>
      </trkpt>
      <trkpt lat="49.98078" lon="2.13399">
        <ele>70.3</ele>
        <time>2024-04-17T12:23:59Z</time>
      </trkpt>
      <trkpt lat="49.98079" lon="2.13399">
        <ele>70.3</ele>
        <time>2024-04-17T12:24:00Z</time>
      </trkpt>
      <trkpt lat="49.9808" lon="2.13399">
        <ele>70.3</ele>
        <time>2024-04-17T12:24:01Z</time>
      </trkpt>
      <trkpt lat="49.98081" lon="2.13399">
        <ele>70.2</ele>
        <time>2024-04-17T12:24:02Z</time>
      </trkpt>
      <trkpt lat="49.98082" lon="2.13399">
        <ele>70.2</ele>
        <time>2024-04-17T12:24:03Z</time>
      </trkpt>
      <trkpt lat="49.98083" lon="2.13399">
        <ele>70.2</ele>
        <time>2024-04-17T12:24:04Z</time>
      </trkpt>
      <trkpt lat="49.98084" lon="2.13399">
        <ele>70.1</ele>
        <time>2024-04-17T12:24:05Z</time>
      </trkpt>
      <trkpt lat="49.98085" lon="2.13399">
        <ele>70.1</ele>
        <time>2024-04-17T12:24:06Z</time>
      </trkpt>
      <trkpt lat="49.98086" lon="2.13399">
        <ele>70.1</ele>
        <time>2024-04-17T12:24:07Z</time>
      </trkpt>
      <trkpt lat="49.98088" lon="2.13399">
        <ele>70</ele>
        <time>2024-04-17T12:24:08Z</time>
      </trkpt>
      <trkpt lat="49.98089" lon="2.13399">
        <ele>70</ele>
        <time>2024-04-17T12:24:09Z</time>
      </trkpt>
      <trkpt lat="49.9809" lon="2.13398">
        <ele>69.9</ele>
        <time>2024-04-17T12:24:10Z</time>
      </trkpt>
      <trkpt lat="49.98091" lon="2.13398">
        <ele>69.9</ele>
        <time>2024-04-17T12:24:11Z</time>
      </trkpt>
      <trkpt lat="49.98092" lon="2.13398">
        <ele>69.9</ele>
        <time>2024-04-17T12:24:12Z</time>
      </trkpt>
      <trkpt lat="49.98093" lon="2.13398">
        <ele>69.8</ele>
        <time>2024-04-17T12:24:13Z</time>
      </trkpt>
      <trkpt lat="49.98095" lon="2.13398">
        <ele>69.8</ele>
        <time>2024-04-17T12:24:14Z</time>
      </trkpt>
      <trkpt lat="49.98096" lon="2.13397">
        <ele>69.8</ele>
        <time>2024-04-17T12:24:15Z</time>
      </trkpt>
      <trkpt lat="49.98097" lon="2.13397">
        <ele>69.8</ele>
        <time>2024-04-17T12:24:16Z</time>
      </trkpt>
      <trkpt lat="49.98098" lon="2.13397">
        <ele>69.7</ele>
        <time>2024-04-17T12:24:17Z</time>
      </trkpt>
      <trkpt lat="49.98101" lon="2.13397">
        <ele>69.7</ele>
        <time>2024-04-17T12:24:18Z</time>
      </trkpt>
      <trkpt lat="49.98101" lon="2.13397">
        <ele>69.6</ele>
        <time>2024-04-17T12:24:19Z</time>
      </trkpt>
      <trkpt lat="49.98102" lon="2.13397">
        <ele>69.6</ele>
        <time>2024-04-17T12:24:20Z</time>
      </trkpt>
      <trkpt lat="49.98104" lon="2.13397">
        <ele>69.6</ele>
        <time>2024-04-17T12:24:22Z</time>
      </trkpt>
      <trkpt lat="49.98105" lon="2.13397">
        <ele>69.6</ele>
        <time>2024-04-17T12:24:23Z</time>
      </trkpt>
      <trkpt lat="49.98106" lon="2.13397">
        <ele>69.5</ele>
        <time>2024-04-17T12:24:24Z</time>
      </trkpt>
      <trkpt lat="49.98107" lon="2.13397">
        <ele>69.5</ele>
        <time>2024-04-17T12:24:25Z</time>
      </trkpt>
      <trkpt lat="49.98108" lon="2.13397">
        <ele>69.5</ele>
        <time>2024-04-17T12:24:26Z</time>
      </trkpt>
      <trkpt lat="49.98109" lon="2.13397">
        <ele>69.5</ele>
        <time>2024-04-17T12:24:27Z</time>
      </trkpt>
      <trkpt lat="49.9811" lon="2.13397">
        <ele>69.4</ele>
        <time>2024-04-17T12:24:28Z</time>
      </trkpt>
      <trkpt lat="49.98111" lon="2.13397">
        <ele>69.4</ele>
        <time>2024-04-17T12:24:29Z</time>
      </trkpt>
      <trkpt lat="49.98113" lon="2.13397">
        <ele>69.4</ele>
        <time>2024-04-17T12:24:30Z</time>
      </trkpt>
      <trkpt lat="49.98114" lon="2.13397">
        <ele>69.4</ele>
        <time>2024-04-17T12:24:31Z</time>
      </trkpt>
      <trkpt lat="49.98115" lon="2.13397">
        <ele>69.3</ele>
        <time>2024-04-17T12:24:32Z</time>
      </trkpt>
      <trkpt lat="49.98116" lon="2.13396">
        <ele>69.3</ele>
        <time>2024-04-17T12:24:33Z</time>
      </trkpt>
      <trkpt lat="49.98117" lon="2.13396">
        <ele>69.3</ele>
        <time>2024-04-17T12:24:34Z</time>
      </trkpt>
      <trkpt lat="49.98118" lon="2.13396">
        <ele>69.3</ele>
        <time>2024-04-17T12:24:35Z</time>
      </trkpt>
      <trkpt lat="49.98119" lon="2.13396">
        <ele>69.3</ele>
        <time>2024-04-17T12:24:36Z</time>
      </trkpt>
      <trkpt lat="49.9812" lon="2.13396">
        <ele>69.3</ele>
        <time>2024-04-17T12:24:37Z</time>
      </trkpt>
      <trkpt lat="49.98121" lon="2.13395">
        <ele>69.2</ele>
        <time>2024-04-17T12:24:38Z</time>
      </trkpt>
      <trkpt lat="49.98122" lon="2.13395">
        <ele>69.2</ele>
        <time>2024-04-17T12:24:39Z</time>
      </trkpt>
      <trkpt lat="49.98123" lon="2.13395">
        <ele>69.2</ele>
        <time>2024-04-17T12:24:40Z</time>
      </trkpt>
      <trkpt lat="49.98124" lon="2.13395">
        <ele>69.2</ele>
        <time>2024-04-17T12:24:41Z</time>
      </trkpt>
      <trkpt lat="49.98125" lon="2.13394">
        <ele>69.2</ele>
        <time>2024-04-17T12:24:42Z</time>
      </trkpt>
      <trkpt lat="49.98126" lon="2.13394">
        <ele>69.2</ele>
        <time>2024-04-17T12:24:43Z</time>
      </trkpt>
      <trkpt lat="49.98127" lon="2.13393">
        <ele>69.1</ele>
        <time>2024-04-17T12:24:44Z</time>
      </trkpt>
      <trkpt lat="49.98128" lon="2.13393">
        <ele>69.1</ele>
        <time>2024-04-17T12:24:45Z</time>
      </trkpt>
      <trkpt lat="49.98129" lon="2.13392">
        <ele>69.1</ele>
        <time>2024-04-17T12:24:46Z</time>
      </trkpt>
      <trkpt lat="49.9813" lon="2.13392">
        <ele>69.1</ele>
        <time>2024-04-17T12:24:47Z</time>
      </trkpt>
      <trkpt lat="49.98131" lon="2.13392">
        <ele>69.1</ele>
        <time>2024-04-17T12:24:48Z</time>
      </trkpt>
      <trkpt lat="49.98132" lon="2.13391">
        <ele>69</ele>
        <time>2024-04-17T12:24:49Z</time>
      </trkpt>
      <trkpt lat="49.98133" lon="2.13391">
        <ele>69</ele>
        <time>2024-04-17T12:24:50Z</time>
      </trkpt>
      <trkpt lat="49.98134" lon="2.13391">
        <ele>69</ele>
        <time>2024-04-17T12:24:51Z</time>
      </trkpt>
      <trkpt lat="49.98135" lon="2.13391">
        <ele>69</ele>
        <time>2024-04-17T12:24:52Z</time>
      </trkpt>
      <trkpt lat="49.98137" lon="2.13391">
        <ele>69</ele>
        <time>2024-04-17T12:24:53Z</time>
      </trkpt>
      <trkpt lat="49.98138" lon="2.13391">
        <ele>68.9</ele>
        <time>2024-04-17T12:24:54Z</time>
      </trkpt>
      <trkpt lat="49.98139" lon="2.13391">
        <ele>68.9</ele>
        <time>2024-04-17T12:24:55Z</time>
      </trkpt>
      <trkpt lat="49.9814" lon="2.13391">
        <ele>68.9</ele>
        <time>2024-04-17T12:24:56Z</time>
      </trkpt>
      <trkpt lat="49.98141" lon="2.13391">
        <ele>68.9</ele>
        <time>2024-04-17T12:24:57Z</time>
      </trkpt>
      <trkpt lat="49.98142" lon="2.13391">
        <ele>68.9</ele>
        <time>2024-04-17T12:24:58Z</time>
      </trkpt>
      <trkpt lat="49.98144" lon="2.13391">
        <ele>68.8</ele>
        <time>2024-04-17T12:24:59Z</time>
      </trkpt>
      <trkpt lat="49.98145" lon="2.13392">
        <ele>68.8</ele>
        <time>2024-04-17T12:25:00Z</time>
      </trkpt>
      <trkpt lat="49.98146" lon="2.13392">
        <ele>68.8</ele>
        <time>2024-04-17T12:25:01Z</time>
      </trkpt>
      <trkpt lat="49.98147" lon="2.13392">
        <ele>68.8</ele>
        <time>2024-04-17T12:25:02Z</time>
      </trkpt>
      <trkpt lat="49.98148" lon="2.13392">
        <ele>68.8</ele>
        <time>2024-04-17T12:25:03Z</time>
      </trkpt>
      <trkpt lat="49.98149" lon="2.13391">
        <ele>68.8</ele>
        <time>2024-04-17T12:25:04Z</time>
      </trkpt>
      <trkpt lat="49.98151" lon="2.13391">
        <ele>68.7</ele>
        <time>2024-04-17T12:25:05Z</time>
      </trkpt>
      <trkpt lat="49.98152" lon="2.13391">
        <ele>68.7</ele>
        <time>2024-04-17T12:25:06Z</time>
      </trkpt>
      <trkpt lat="49.98153" lon="2.13391">
        <ele>68.7</ele>
        <time>2024-04-17T12:25:07Z</time>
      </trkpt>
      <trkpt lat="49.98154" lon="2.13391">
        <ele>68.7</ele>
        <time>2024-04-17T12:25:08Z</time>
      </trkpt>
      <trkpt lat="49.98155" lon="2.13391">
        <ele>68.7</ele>
        <time>2024-04-17T12:25:09Z</time>
      </trkpt>
      <trkpt lat="49.98156" lon="2.13391">
        <ele>68.7</ele>
        <time>2024-04-17T12:25:10Z</time>
      </trkpt>
      <trkpt lat="49.98157" lon="2.1339">
        <ele>68.7</ele>
        <time>2024-04-17T12:25:11Z</time>
      </trkpt>
      <trkpt lat="49.98159" lon="2.1339">
        <ele>68.6</ele>
        <time>2024-04-17T12:25:12Z</time>
      </trkpt>
      <trkpt lat="49.98161" lon="2.1339">
        <ele>68.6</ele>
        <time>2024-04-17T12:25:13Z</time>
      </trkpt>
      <trkpt lat="49.98161" lon="2.1339">
        <ele>68.6</ele>
        <time>2024-04-17T12:25:14Z</time>
      </trkpt>
      <trkpt lat="49.98162" lon="2.1339">
        <ele>68.6</ele>
        <time>2024-04-17T12:25:15Z</time>
      </trkpt>
      <trkpt lat="49.98163" lon="2.1339">
        <ele>68.6</ele>
        <time>2024-04-17T12:25:16Z</time>
      </trkpt>
      <trkpt lat="49.98165" lon="2.1339">
        <ele>68.6</ele>
        <time>2024-04-17T12:25:17Z</time>
      </trkpt>
      <trkpt lat="49.98166" lon="2.1339">
        <ele>68.6</ele>
        <time>2024-04-17T12:25:18Z</time>
      </trkpt>
      <trkpt lat="49.98167" lon="2.1339">
        <ele>68.6</ele>
        <time>2024-04-17T12:25:19Z</time>
      </trkpt>
      <trkpt lat="49.98168" lon="2.1339">
        <ele>68.6</ele>
        <time>2024-04-17T12:25:20Z</time>
      </trkpt>
      <trkpt lat="49.98169" lon="2.1339">
        <ele>68.5</ele>
        <time>2024-04-17T12:25:21Z</time>
      </trkpt>
      <trkpt lat="49.9817" lon="2.1339">
        <ele>68.5</ele>
        <time>2024-04-17T12:25:22Z</time>
      </trkpt>
      <trkpt lat="49.98171" lon="2.1339">
        <ele>68.5</ele>
        <time>2024-04-17T12:25:23Z</time>
      </trkpt>
      <trkpt lat="49.98172" lon="2.1339">
        <ele>68.5</ele>
        <time>2024-04-17T12:25:24Z</time>
      </trkpt>
      <trkpt lat="49.98174" lon="2.1339">
        <ele>68.5</ele>
        <time>2024-04-17T12:25:25Z</time>
      </trkpt>
      <trkpt lat="49.98175" lon="2.13389">
        <ele>68.5</ele>
        <time>2024-04-17T12:25:26Z</time>
      </trkpt>
      <trkpt lat="49.98176" lon="2.13389">
        <ele>68.5</ele>
        <time>2024-04-17T12:25:27Z</time>
      </trkpt>
      <trkpt lat="49.98177" lon="2.13389">
        <ele>68.5</ele>
        <time>2024-04-17T12:25:28Z</time>
      </trkpt>
      <trkpt lat="49.98178" lon="2.13388">
        <ele>68.5</ele>
        <time>2024-04-17T12:25:29Z</time>
      </trkpt>
      <trkpt lat="49.98179" lon="2.13388">
        <ele>68.5</ele>
        <time>2024-04-17T12:25:30Z</time>
      </trkpt>
      <trkpt lat="49.9818" lon="2.13388">
        <ele>68.5</ele>
        <time>2024-04-17T12:25:31Z</time>
      </trkpt>
      <trkpt lat="49.98181" lon="2.13388">
        <ele>68.5</ele>
        <time>2024-04-17T12:25:32Z</time>
      </trkpt>
      <trkpt lat="49.98182" lon="2.13388">
        <ele>68.5</ele>
        <time>2024-04-17T12:25:33Z</time>
      </trkpt>
      <trkpt lat="49.98183" lon="2.13388">
        <ele>68.5</ele>
        <time>2024-04-17T12:25:34Z</time>
      </trkpt>
      <trkpt lat="49.98185" lon="2.13388">
        <ele>68.5</ele>
        <time>2024-04-17T12:25:35Z</time>
      </trkpt>
      <trkpt lat="49.98186" lon="2.13387">
        <ele>68.5</ele>
        <time>2024-04-17T12:25:36Z</time>
      </trkpt>
      <trkpt lat="49.98187" lon="2.13387">
        <ele>68.5</ele>
        <time>2024-04-17T12:25:37Z</time>
      </trkpt>
      <trkpt lat="49.98188" lon="2.13387">
        <ele>68.5</ele>
        <time>2024-04-17T12:25:38Z</time>
      </trkpt>
      <trkpt lat="49.98189" lon="2.13387">
        <ele>68.5</ele>
        <time>2024-04-17T12:25:39Z</time>
      </trkpt>
      <trkpt lat="49.9819" lon="2.13387">
        <ele>68.5</ele>
        <time>2024-04-17T12:25:40Z</time>
      </trkpt>
      <trkpt lat="49.98191" lon="2.13386">
        <ele>68.5</ele>
        <time>2024-04-17T12:25:41Z</time>
      </trkpt>
      <trkpt lat="49.98192" lon="2.13386">
        <ele>68.5</ele>
        <time>2024-04-17T12:25:42Z</time>
      </trkpt>
      <trkpt lat="49.98193" lon="2.13386">
        <ele>68.5</ele>
        <time>2024-04-17T12:25:43Z</time>
      </trkpt>
      <trkpt lat="49.98194" lon="2.13385">
        <ele>68.5</ele>
        <time>2024-04-17T12:25:44Z</time>
      </trkpt>
      <trkpt lat="49.98195" lon="2.13385">
        <ele>68.5</ele>
        <time>2024-04-17T12:25:45Z</time>
      </trkpt>
      <trkpt lat="49.98196" lon="2.13385">
        <ele>68.5</ele>
        <time>2024-04-17T12:25:46Z</time>
      </trkpt>
      <trkpt lat="49.98197" lon="2.13385">
        <ele>68.5</ele>
        <time>2024-04-17T12:25:47Z</time>
      </trkpt>
      <trkpt lat="49.98198" lon="2.13385">
        <ele>68.5</ele>
        <time>2024-04-17T12:25:48Z</time>
      </trkpt>
      <trkpt lat="49.98199" lon="2.13384">
        <ele>68.5</ele>
        <time>2024-04-17T12:25:49Z</time>
      </trkpt>
      <trkpt lat="49.982" lon="2.13384">
        <ele>68.5</ele>
        <time>2024-04-17T12:25:50Z</time>
      </trkpt>
      <trkpt lat="49.98201" lon="2.13384">
        <ele>68.5</ele>
        <time>2024-04-17T12:25:51Z</time>
      </trkpt>
      <trkpt lat="49.98202" lon="2.13384">
        <ele>68.5</ele>
        <time>2024-04-17T12:25:52Z</time>
      </trkpt>
      <trkpt lat="49.98203" lon="2.13383">
        <ele>68.5</ele>
        <time>2024-04-17T12:25:53Z</time>
      </trkpt>
      <trkpt lat="49.98204" lon="2.13383">
        <ele>68.5</ele>
        <time>2024-04-17T12:25:54Z</time>
      </trkpt>
      <trkpt lat="49.98205" lon="2.13383">
        <ele>68.5</ele>
        <time>2024-04-17T12:25:55Z</time>
      </trkpt>
      <trkpt lat="49.98206" lon="2.13383">
        <ele>68.5</ele>
        <time>2024-04-17T12:25:56Z</time>
      </trkpt>
      <trkpt lat="49.98207" lon="2.13383">
        <ele>68.4</ele>
        <time>2024-04-17T12:25:57Z</time>
      </trkpt>
      <trkpt lat="49.98209" lon="2.13383">
        <ele>68.4</ele>
        <time>2024-04-17T12:25:58Z</time>
      </trkpt>
      <trkpt lat="49.9821" lon="2.13383">
        <ele>68.4</ele>
        <time>2024-04-17T12:25:59Z</time>
      </trkpt>
      <trkpt lat="49.98211" lon="2.13383">
        <ele>68.4</ele>
        <time>2024-04-17T12:26:00Z</time>
      </trkpt>
      <trkpt lat="49.98212" lon="2.13383">
        <ele>68.4</ele>
        <time>2024-04-17T12:26:01Z</time>
      </trkpt>
      <trkpt lat="49.98213" lon="2.13383">
        <ele>68.4</ele>
        <time>2024-04-17T12:26:02Z</time>
      </trkpt>
      <trkpt lat="49.98214" lon="2.13383">
        <ele>68.4</ele>
        <time>2024-04-17T12:26:03Z</time>
      </trkpt>
      <trkpt lat="49.98215" lon="2.13383">
        <ele>68.4</ele>
        <time>2024-04-17T12:26:04Z</time>
      </trkpt>
      <trkpt lat="49.98216" lon="2.13383">
        <ele>68.4</ele>
        <time>2024-04-17T12:26:05Z</time>
      </trkpt>
      <trkpt lat="49.98217" lon="2.13382">
        <ele>68.4</ele>
        <time>2024-04-17T12:26:06Z</time>
      </trkpt>
      <trkpt lat="49.98218" lon="2.13382">
        <ele>68.4</ele>
        <time>2024-04-17T12:26:07Z</time>
      </trkpt>
      <trkpt lat="49.98219" lon="2.13382">
        <ele>68.4</ele>
        <time>2024-04-17T12:26:08Z</time>
      </trkpt>
      <trkpt lat="49.98221" lon="2.13382">
        <ele>68.4</ele>
        <time>2024-04-17T12:26:09Z</time>
      </trkpt>
      <trkpt lat="49.98222" lon="2.13382">
        <ele>68.4</ele>
        <time>2024-04-17T12:26:10Z</time>
      </trkpt>
      <trkpt lat="49.98223" lon="2.13383">
        <ele>68.4</ele>
        <time>2024-04-17T12:26:11Z</time>
      </trkpt>
      <trkpt lat="49.98224" lon="2.13383">
        <ele>68.4</ele>
        <time>2024-04-17T12:26:12Z</time>
      </trkpt>
      <trkpt lat="49.98225" lon="2.13382">
        <ele>68.4</ele>
        <time>2024-04-17T12:26:13Z</time>
      </trkpt>
      <trkpt lat="49.98226" lon="2.13382">
        <ele>68.4</ele>
        <time>2024-04-17T12:26:14Z</time>
      </trkpt>
      <trkpt lat="49.98227" lon="2.13382">
        <ele>68.4</ele>
        <time>2024-04-17T12:26:15Z</time>
      </trkpt>
      <trkpt lat="49.98228" lon="2.13382">
        <ele>68.5</ele>
        <time>2024-04-17T12:26:16Z</time>
      </trkpt>
      <trkpt lat="49.98229" lon="2.13382">
        <ele>68.5</ele>
        <time>2024-04-17T12:26:17Z</time>
      </trkpt>
      <trkpt lat="49.9823" lon="2.13382">
        <ele>68.5</ele>
        <time>2024-04-17T12:26:18Z</time>
      </trkpt>
      <trkpt lat="49.98231" lon="2.13382">
        <ele>68.5</ele>
        <time>2024-04-17T12:26:19Z</time>
      </trkpt>
      <trkpt lat="49.98233" lon="2.13382">
        <ele>68.5</ele>
        <time>2024-04-17T12:26:20Z</time>
      </trkpt>
      <trkpt lat="49.98234" lon="2.13382">
        <ele>68.5</ele>
        <time>2024-04-17T12:26:21Z</time>
      </trkpt>
      <trkpt lat="49.98235" lon="2.13382">
        <ele>68.5</ele>
        <time>2024-04-17T12:26:22Z</time>
      </trkpt>
      <trkpt lat="49.98236" lon="2.13382">
        <ele>68.5</ele>
        <time>2024-04-17T12:26:23Z</time>
      </trkpt>
      <trkpt lat="49.98237" lon="2.13382">
        <ele>68.5</ele>
        <time>2024-04-17T12:26:24Z</time>
      </trkpt>
      <trkpt lat="49.98238" lon="2.13382">
        <ele>68.5</ele>
        <time>2024-04-17T12:26:25Z</time>
      </trkpt>
      <trkpt lat="49.98239" lon="2.13382">
        <ele>68.5</ele>
        <time>2024-04-17T12:26:26Z</time>
      </trkpt>
      <trkpt lat="49.9824" lon="2.13382">
        <ele>68.5</ele>
        <time>2024-04-17T12:26:27Z</time>
      </trkpt>
      <trkpt lat="49.98241" lon="2.13382">
        <ele>68.5</ele>
        <time>2024-04-17T12:26:28Z</time>
      </trkpt>
      <trkpt lat="49.98242" lon="2.13382">
        <ele>68.5</ele>
        <time>2024-04-17T12:26:29Z</time>
      </trkpt>
      <trkpt lat="49.98244" lon="2.13382">
        <ele>68.6</ele>
        <time>2024-04-17T12:26:30Z</time>
      </trkpt>
      <trkpt lat="49.98245" lon="2.13381">
        <ele>68.6</ele>
        <time>2024-04-17T12:26:31Z</time>
      </trkpt>
      <trkpt lat="49.98246" lon="2.13381">
        <ele>68.6</ele>
        <time>2024-04-17T12:26:32Z</time>
      </trkpt>
      <trkpt lat="49.98247" lon="2.13381">
        <ele>68.6</ele>
        <time>2024-04-17T12:26:33Z</time>
      </trkpt>
      <trkpt lat="49.98249" lon="2.1338">
        <ele>68.6</ele>
        <time>2024-04-17T12:26:34Z</time>
      </trkpt>
      <trkpt lat="49.9825" lon="2.1338">
        <ele>68.6</ele>
        <time>2024-04-17T12:26:35Z</time>
      </trkpt>
      <trkpt lat="49.98251" lon="2.1338">
        <ele>68.6</ele>
        <time>2024-04-17T12:26:36Z</time>
      </trkpt>
      <trkpt lat="49.98252" lon="2.1338">
        <ele>68.7</ele>
        <time>2024-04-17T12:26:37Z</time>
      </trkpt>
      <trkpt lat="49.98253" lon="2.13379">
        <ele>68.7</ele>
        <time>2024-04-17T12:26:38Z</time>
      </trkpt>
      <trkpt lat="49.98254" lon="2.13379">
        <ele>68.7</ele>
        <time>2024-04-17T12:26:39Z</time>
      </trkpt>
      <trkpt lat="49.98255" lon="2.13379">
        <ele>68.7</ele>
        <time>2024-04-17T12:26:40Z</time>
      </trkpt>
      <trkpt lat="49.98256" lon="2.13378">
        <ele>68.7</ele>
        <time>2024-04-17T12:26:41Z</time>
      </trkpt>
      <trkpt lat="49.98258" lon="2.13378">
        <ele>68.7</ele>
        <time>2024-04-17T12:26:42Z</time>
      </trkpt>
      <trkpt lat="49.98259" lon="2.13378">
        <ele>68.8</ele>
        <time>2024-04-17T12:26:43Z</time>
      </trkpt>
      <trkpt lat="49.9826" lon="2.13378">
        <ele>68.8</ele>
        <time>2024-04-17T12:26:44Z</time>
      </trkpt>
      <trkpt lat="49.98261" lon="2.13378">
        <ele>68.8</ele>
        <time>2024-04-17T12:26:45Z</time>
      </trkpt>
      <trkpt lat="49.98262" lon="2.13378">
        <ele>68.8</ele>
        <time>2024-04-17T12:26:46Z</time>
      </trkpt>
      <trkpt lat="49.98263" lon="2.13378">
        <ele>68.8</ele>
        <time>2024-04-17T12:26:47Z</time>
      </trkpt>
      <trkpt lat="49.98264" lon="2.13377">
        <ele>68.9</ele>
        <time>2024-04-17T12:26:48Z</time>
      </trkpt>
      <trkpt lat="49.98265" lon="2.13377">
        <ele>68.9</ele>
        <time>2024-04-17T12:26:49Z</time>
      </trkpt>
      <trkpt lat="49.98266" lon="2.13378">
        <ele>68.9</ele>
        <time>2024-04-17T12:26:50Z</time>
      </trkpt>
      <trkpt lat="49.98268" lon="2.13377">
        <ele>68.9</ele>
        <time>2024-04-17T12:26:51Z</time>
      </trkpt>
      <trkpt lat="49.98269" lon="2.13377">
        <ele>68.9</ele>
        <time>2024-04-17T12:26:52Z</time>
      </trkpt>
      <trkpt lat="49.9827" lon="2.13377">
        <ele>69</ele>
        <time>2024-04-17T12:26:53Z</time>
      </trkpt>
      <trkpt lat="49.98271" lon="2.13377">
        <ele>69</ele>
        <time>2024-04-17T12:26:54Z</time>
      </trkpt>
      <trkpt lat="49.98272" lon="2.13377">
        <ele>69</ele>
        <time>2024-04-17T12:26:55Z</time>
      </trkpt>
      <trkpt lat="49.98273" lon="2.13377">
        <ele>69</ele>
        <time>2024-04-17T12:26:56Z</time>
      </trkpt>
      <trkpt lat="49.98274" lon="2.13377">
        <ele>69</ele>
        <time>2024-04-17T12:26:57Z</time>
      </trkpt>
      <trkpt lat="49.98276" lon="2.13377">
        <ele>69.1</ele>
        <time>2024-04-17T12:26:58Z</time>
      </trkpt>
      <trkpt lat="49.98276" lon="2.13377">
        <ele>69.1</ele>
        <time>2024-04-17T12:26:59Z</time>
      </trkpt>
      <trkpt lat="49.98277" lon="2.13377">
        <ele>69.1</ele>
        <time>2024-04-17T12:27:00Z</time>
      </trkpt>
      <trkpt lat="49.98278" lon="2.13377">
        <ele>69.1</ele>
        <time>2024-04-17T12:27:01Z</time>
      </trkpt>
      <trkpt lat="49.98279" lon="2.13376">
        <ele>69.2</ele>
        <time>2024-04-17T12:27:02Z</time>
      </trkpt>
      <trkpt lat="49.9828" lon="2.13376">
        <ele>69.2</ele>
        <time>2024-04-17T12:27:03Z</time>
      </trkpt>
      <trkpt lat="49.98281" lon="2.13376">
        <ele>69.2</ele>
        <time>2024-04-17T12:27:04Z</time>
      </trkpt>
      <trkpt lat="49.98282" lon="2.13376">
        <ele>69.3</ele>
        <time>2024-04-17T12:27:05Z</time>
      </trkpt>
      <trkpt lat="49.98284" lon="2.13376">
        <ele>69.3</ele>
        <time>2024-04-17T12:27:06Z</time>
      </trkpt>
      <trkpt lat="49.98285" lon="2.13376">
        <ele>69.3</ele>
        <time>2024-04-17T12:27:07Z</time>
      </trkpt>
      <trkpt lat="49.98286" lon="2.13375">
        <ele>69.4</ele>
        <time>2024-04-17T12:27:09Z</time>
      </trkpt>
      <trkpt lat="49.98287" lon="2.13375">
        <ele>69.4</ele>
        <time>2024-04-17T12:27:10Z</time>
      </trkpt>
      <trkpt lat="49.98288" lon="2.13374">
        <ele>69.4</ele>
        <time>2024-04-17T12:27:11Z</time>
      </trkpt>
      <trkpt lat="49.9829" lon="2.13374">
        <ele>69.5</ele>
        <time>2024-04-17T12:27:12Z</time>
      </trkpt>
      <trkpt lat="49.98291" lon="2.13374">
        <ele>69.5</ele>
        <time>2024-04-17T12:27:13Z</time>
      </trkpt>
      <trkpt lat="49.98292" lon="2.13373">
        <ele>69.5</ele>
        <time>2024-04-17T12:27:14Z</time>
      </trkpt>
      <trkpt lat="49.98294" lon="2.13373">
        <ele>69.6</ele>
        <time>2024-04-17T12:27:15Z</time>
      </trkpt>
      <trkpt lat="49.98295" lon="2.13373">
        <ele>69.6</ele>
        <time>2024-04-17T12:27:16Z</time>
      </trkpt>
      <trkpt lat="49.98296" lon="2.13373">
        <ele>69.6</ele>
        <time>2024-04-17T12:27:17Z</time>
      </trkpt>
      <trkpt lat="49.98297" lon="2.13373">
        <ele>69.7</ele>
        <time>2024-04-17T12:27:18Z</time>
      </trkpt>
      <trkpt lat="49.98298" lon="2.13373">
        <ele>69.7</ele>
        <time>2024-04-17T12:27:20Z</time>
      </trkpt>
      <trkpt lat="49.98299" lon="2.13372">
        <ele>69.7</ele>
        <time>2024-04-17T12:27:21Z</time>
      </trkpt>
      <trkpt lat="49.983" lon="2.13372">
        <ele>69.8</ele>
        <time>2024-04-17T12:27:22Z</time>
      </trkpt>
      <trkpt lat="49.98301" lon="2.13371">
        <ele>69.8</ele>
        <time>2024-04-17T12:27:23Z</time>
      </trkpt>
      <trkpt lat="49.98302" lon="2.13371">
        <ele>69.8</ele>
        <time>2024-04-17T12:27:24Z</time>
      </trkpt>
      <trkpt lat="49.98303" lon="2.1337">
        <ele>69.9</ele>
        <time>2024-04-17T12:27:25Z</time>
      </trkpt>
      <trkpt lat="49.98304" lon="2.1337">
        <ele>69.9</ele>
        <time>2024-04-17T12:27:26Z</time>
      </trkpt>
      <trkpt lat="49.98306" lon="2.13369">
        <ele>70</ele>
        <time>2024-04-17T12:27:27Z</time>
      </trkpt>
      <trkpt lat="49.98307" lon="2.13369">
        <ele>70</ele>
        <time>2024-04-17T12:27:28Z</time>
      </trkpt>
      <trkpt lat="49.98308" lon="2.13369">
        <ele>70</ele>
        <time>2024-04-17T12:27:29Z</time>
      </trkpt>
      <trkpt lat="49.98309" lon="2.13369">
        <ele>70.1</ele>
        <time>2024-04-17T12:27:30Z</time>
      </trkpt>
      <trkpt lat="49.9831" lon="2.13369">
        <ele>70.1</ele>
        <time>2024-04-17T12:27:31Z</time>
      </trkpt>
      <trkpt lat="49.98311" lon="2.13368">
        <ele>70.1</ele>
        <time>2024-04-17T12:27:32Z</time>
      </trkpt>
      <trkpt lat="49.98312" lon="2.13368">
        <ele>70.1</ele>
        <time>2024-04-17T12:27:33Z</time>
      </trkpt>
      <trkpt lat="49.98313" lon="2.13368">
        <ele>70.2</ele>
        <time>2024-04-17T12:27:34Z</time>
      </trkpt>
      <trkpt lat="49.98314" lon="2.13368">
        <ele>70.2</ele>
        <time>2024-04-17T12:27:35Z</time>
      </trkpt>
      <trkpt lat="49.98315" lon="2.13368">
        <ele>70.2</ele>
        <time>2024-04-17T12:27:36Z</time>
      </trkpt>
      <trkpt lat="49.98316" lon="2.13367">
        <ele>70.3</ele>
        <time>2024-04-17T12:27:37Z</time>
      </trkpt>
      <trkpt lat="49.98317" lon="2.13367">
        <ele>70.3</ele>
        <time>2024-04-17T12:27:38Z</time>
      </trkpt>
      <trkpt lat="49.98318" lon="2.13367">
        <ele>70.3</ele>
        <time>2024-04-17T12:27:39Z</time>
      </trkpt>
      <trkpt lat="49.98319" lon="2.13367">
        <ele>70.4</ele>
        <time>2024-04-17T12:27:40Z</time>
      </trkpt>
      <trkpt lat="49.9832" lon="2.13366">
        <ele>70.4</ele>
        <time>2024-04-17T12:27:41Z</time>
      </trkpt>
      <trkpt lat="49.98322" lon="2.13366">
        <ele>70.4</ele>
        <time>2024-04-17T12:27:42Z</time>
      </trkpt>
      <trkpt lat="49.98323" lon="2.13366">
        <ele>70.5</ele>
        <time>2024-04-17T12:27:43Z</time>
      </trkpt>
      <trkpt lat="49.98324" lon="2.13366">
        <ele>70.5</ele>
        <time>2024-04-17T12:27:44Z</time>
      </trkpt>
      <trkpt lat="49.98325" lon="2.13365">
        <ele>70.6</ele>
        <time>2024-04-17T12:27:45Z</time>
      </trkpt>
      <trkpt lat="49.98327" lon="2.13365">
        <ele>70.6</ele>
        <time>2024-04-17T12:27:46Z</time>
      </trkpt>
      <trkpt lat="49.98328" lon="2.13365">
        <ele>70.6</ele>
        <time>2024-04-17T12:27:47Z</time>
      </trkpt>
      <trkpt lat="49.98329" lon="2.13364">
        <ele>70.7</ele>
        <time>2024-04-17T12:27:48Z</time>
      </trkpt>
      <trkpt lat="49.9833" lon="2.13364">
        <ele>70.7</ele>
        <time>2024-04-17T12:27:49Z</time>
      </trkpt>
      <trkpt lat="49.98331" lon="2.13364">
        <ele>70.8</ele>
        <time>2024-04-17T12:27:50Z</time>
      </trkpt>
      <trkpt lat="49.98332" lon="2.13364">
        <ele>70.8</ele>
        <time>2024-04-17T12:27:51Z</time>
      </trkpt>
      <trkpt lat="49.98333" lon="2.13363">
        <ele>70.8</ele>
        <time>2024-04-17T12:27:52Z</time>
      </trkpt>
      <trkpt lat="49.98334" lon="2.13363">
        <ele>70.9</ele>
        <time>2024-04-17T12:27:53Z</time>
      </trkpt>
      <trkpt lat="49.98335" lon="2.13363">
        <ele>70.9</ele>
        <time>2024-04-17T12:27:54Z</time>
      </trkpt>
      <trkpt lat="49.98337" lon="2.13362">
        <ele>71</ele>
        <time>2024-04-17T12:27:55Z</time>
      </trkpt>
      <trkpt lat="49.98338" lon="2.13362">
        <ele>71</ele>
        <time>2024-04-17T12:27:56Z</time>
      </trkpt>
      <trkpt lat="49.98339" lon="2.13362">
        <ele>71.1</ele>
        <time>2024-04-17T12:27:57Z</time>
      </trkpt>
      <trkpt lat="49.9834" lon="2.13361">
        <ele>71.1</ele>
        <time>2024-04-17T12:27:58Z</time>
      </trkpt>
      <trkpt lat="49.98341" lon="2.13361">
        <ele>71.2</ele>
        <time>2024-04-17T12:27:59Z</time>
      </trkpt>
      <trkpt lat="49.98342" lon="2.1336">
        <ele>71.2</ele>
        <time>2024-04-17T12:28:00Z</time>
      </trkpt>
      <trkpt lat="49.98344" lon="2.1336">
        <ele>71.3</ele>
        <time>2024-04-17T12:28:01Z</time>
      </trkpt>
      <trkpt lat="49.98345" lon="2.13359">
        <ele>71.3</ele>
        <time>2024-04-17T12:28:02Z</time>
      </trkpt>
      <trkpt lat="49.98346" lon="2.13359">
        <ele>71.4</ele>
        <time>2024-04-17T12:28:03Z</time>
      </trkpt>
      <trkpt lat="49.98347" lon="2.13358">
        <ele>71.5</ele>
        <time>2024-04-17T12:28:04Z</time>
      </trkpt>
      <trkpt lat="49.98348" lon="2.13357">
        <ele>71.5</ele>
        <time>2024-04-17T12:28:05Z</time>
      </trkpt>
      <trkpt lat="49.98349" lon="2.13357">
        <ele>71.5</ele>
        <time>2024-04-17T12:28:06Z</time>
      </trkpt>
      <trkpt lat="49.9835" lon="2.13356">
        <ele>71.6</ele>
        <time>2024-04-17T12:28:07Z</time>
      </trkpt>
      <trkpt lat="49.98351" lon="2.13356">
        <ele>71.6</ele>
        <time>2024-04-17T12:28:08Z</time>
      </trkpt>
      <trkpt lat="49.98352" lon="2.13355">
        <ele>71.7</ele>
        <time>2024-04-17T12:28:09Z</time>
      </trkpt>
      <trkpt lat="49.98353" lon="2.13354">
        <ele>71.7</ele>
        <time>2024-04-17T12:28:10Z</time>
      </trkpt>
      <trkpt lat="49.98354" lon="2.13353">
        <ele>71.8</ele>
        <time>2024-04-17T12:28:11Z</time>
      </trkpt>
      <trkpt lat="49.98355" lon="2.13352">
        <ele>71.8</ele>
        <time>2024-04-17T12:28:12Z</time>
      </trkpt>
      <trkpt lat="49.98356" lon="2.13352">
        <ele>71.9</ele>
        <time>2024-04-17T12:28:13Z</time>
      </trkpt>
      <trkpt lat="49.98357" lon="2.13351">
        <ele>71.9</ele>
        <time>2024-04-17T12:28:14Z</time>
      </trkpt>
      <trkpt lat="49.98358" lon="2.1335">
        <ele>72</ele>
        <time>2024-04-17T12:28:15Z</time>
      </trkpt>
      <trkpt lat="49.98359" lon="2.1335">
        <ele>72</ele>
        <time>2024-04-17T12:28:16Z</time>
      </trkpt>
      <trkpt lat="49.9836" lon="2.13349">
        <ele>72</ele>
        <time>2024-04-17T12:28:17Z</time>
      </trkpt>
      <trkpt lat="49.98361" lon="2.13349">
        <ele>72.1</ele>
        <time>2024-04-17T12:28:18Z</time>
      </trkpt>
      <trkpt lat="49.98362" lon="2.13348">
        <ele>72.1</ele>
        <time>2024-04-17T12:28:19Z</time>
      </trkpt>
      <trkpt lat="49.98363" lon="2.13347">
        <ele>72.2</ele>
        <time>2024-04-17T12:28:20Z</time>
      </trkpt>
      <trkpt lat="49.98364" lon="2.13347">
        <ele>72.2</ele>
        <time>2024-04-17T12:28:21Z</time>
      </trkpt>
      <trkpt lat="49.98365" lon="2.13346">
        <ele>72.3</ele>
        <time>2024-04-17T12:28:22Z</time>
      </trkpt>
      <trkpt lat="49.98366" lon="2.13346">
        <ele>72.3</ele>
        <time>2024-04-17T12:28:23Z</time>
      </trkpt>
      <trkpt lat="49.98367" lon="2.13345">
        <ele>72.3</ele>
        <time>2024-04-17T12:28:24Z</time>
      </trkpt>
      <trkpt lat="49.98369" lon="2.13345">
        <ele>72.4</ele>
        <time>2024-04-17T12:28:25Z</time>
      </trkpt>
      <trkpt lat="49.98369" lon="2.13345">
        <ele>72.4</ele>
        <time>2024-04-17T12:28:26Z</time>
      </trkpt>
      <trkpt lat="49.9837" lon="2.13345">
        <ele>72.5</ele>
        <time>2024-04-17T12:28:27Z</time>
      </trkpt>
      <trkpt lat="49.9837" lon="2.13346">
        <ele>72.5</ele>
        <time>2024-04-17T12:28:28Z</time>
      </trkpt>
      <trkpt lat="49.98371" lon="2.13346">
        <ele>72.5</ele>
        <time>2024-04-17T12:28:29Z</time>
      </trkpt>
      <trkpt lat="49.98372" lon="2.13345">
        <ele>72.6</ele>
        <time>2024-04-17T12:28:30Z</time>
      </trkpt>
      <trkpt lat="49.98372" lon="2.13344">
        <ele>72.6</ele>
        <time>2024-04-17T12:28:31Z</time>
      </trkpt>
      <trkpt lat="49.98373" lon="2.13343">
        <ele>72.6</ele>
        <time>2024-04-17T12:28:32Z</time>
      </trkpt>
      <trkpt lat="49.98373" lon="2.13343">
        <ele>72.7</ele>
        <time>2024-04-17T12:28:33Z</time>
      </trkpt>
      <trkpt lat="49.98374" lon="2.13343">
        <ele>72.7</ele>
        <time>2024-04-17T12:28:34Z</time>
      </trkpt>
      <trkpt lat="49.98374" lon="2.13342">
        <ele>72.7</ele>
        <time>2024-04-17T12:28:35Z</time>
      </trkpt>
      <trkpt lat="49.98375" lon="2.13341">
        <ele>72.8</ele>
        <time>2024-04-17T12:28:36Z</time>
      </trkpt>
      <trkpt lat="49.98375" lon="2.1334">
        <ele>72.8</ele>
        <time>2024-04-17T12:28:37Z</time>
      </trkpt>
      <trkpt lat="49.98375" lon="2.13339">
        <ele>72.8</ele>
        <time>2024-04-17T12:28:38Z</time>
      </trkpt>
      <trkpt lat="49.98375" lon="2.13337">
        <ele>72.9</ele>
        <time>2024-04-17T12:28:39Z</time>
      </trkpt>
      <trkpt lat="49.98375" lon="2.13336">
        <ele>72.9</ele>
        <time>2024-04-17T12:28:40Z</time>
      </trkpt>
      <trkpt lat="49.98376" lon="2.13336">
        <ele>72.9</ele>
        <time>2024-04-17T12:28:41Z</time>
      </trkpt>
      <trkpt lat="49.98377" lon="2.13336">
        <ele>73</ele>
        <time>2024-04-17T12:28:42Z</time>
      </trkpt>
      <trkpt lat="49.98378" lon="2.13335">
        <ele>73</ele>
        <time>2024-04-17T12:28:43Z</time>
      </trkpt>
      <trkpt lat="49.98378" lon="2.13335">
        <ele>73.1</ele>
        <time>2024-04-17T12:28:44Z</time>
      </trkpt>
      <trkpt lat="49.98379" lon="2.13335">
        <ele>73.1</ele>
        <time>2024-04-17T12:28:45Z</time>
      </trkpt>
      <trkpt lat="49.9838" lon="2.13335">
        <ele>73.2</ele>
        <time>2024-04-17T12:28:46Z</time>
      </trkpt>
      <trkpt lat="49.98381" lon="2.13334">
        <ele>73.2</ele>
        <time>2024-04-17T12:28:47Z</time>
      </trkpt>
      <trkpt lat="49.98382" lon="2.13333">
        <ele>73.3</ele>
        <time>2024-04-17T12:28:48Z</time>
      </trkpt>
      <trkpt lat="49.98384" lon="2.13334">
        <ele>73.4</ele>
        <time>2024-04-17T12:28:49Z</time>
      </trkpt>
      <trkpt lat="49.98385" lon="2.13334">
        <ele>73.4</ele>
        <time>2024-04-17T12:28:50Z</time>
      </trkpt>
      <trkpt lat="49.98386" lon="2.13334">
        <ele>73.4</ele>
        <time>2024-04-17T12:28:51Z</time>
      </trkpt>
      <trkpt lat="49.98387" lon="2.13333">
        <ele>73.5</ele>
        <time>2024-04-17T12:28:52Z</time>
      </trkpt>
      <trkpt lat="49.98388" lon="2.13333">
        <ele>73.5</ele>
        <time>2024-04-17T12:28:53Z</time>
      </trkpt>
      <trkpt lat="49.98389" lon="2.13332">
        <ele>73.6</ele>
        <time>2024-04-17T12:28:54Z</time>
      </trkpt>
      <trkpt lat="49.9839" lon="2.13331">
        <ele>73.7</ele>
        <time>2024-04-17T12:28:55Z</time>
      </trkpt>
      <trkpt lat="49.98391" lon="2.1333">
        <ele>73.7</ele>
        <time>2024-04-17T12:28:56Z</time>
      </trkpt>
      <trkpt lat="49.98392" lon="2.13329">
        <ele>73.8</ele>
        <time>2024-04-17T12:28:57Z</time>
      </trkpt>
      <trkpt lat="49.98393" lon="2.13329">
        <ele>73.8</ele>
        <time>2024-04-17T12:28:58Z</time>
      </trkpt>
      <trkpt lat="49.98394" lon="2.13328">
        <ele>73.9</ele>
        <time>2024-04-17T12:28:59Z</time>
      </trkpt>
      <trkpt lat="49.98395" lon="2.13327">
        <ele>73.9</ele>
        <time>2024-04-17T12:29:00Z</time>
      </trkpt>
      <trkpt lat="49.98396" lon="2.13327">
        <ele>74</ele>
        <time>2024-04-17T12:29:01Z</time>
      </trkpt>
      <trkpt lat="49.98397" lon="2.13326">
        <ele>74</ele>
        <time>2024-04-17T12:29:02Z</time>
      </trkpt>
      <trkpt lat="49.98398" lon="2.13325">
        <ele>74.1</ele>
        <time>2024-04-17T12:29:03Z</time>
      </trkpt>
      <trkpt lat="49.984" lon="2.13324">
        <ele>74.2</ele>
        <time>2024-04-17T12:29:04Z</time>
      </trkpt>
      <trkpt lat="49.98401" lon="2.13323">
        <ele>74.2</ele>
        <time>2024-04-17T12:29:05Z</time>
      </trkpt>
      <trkpt lat="49.98402" lon="2.13322">
        <ele>74.3</ele>
        <time>2024-04-17T12:29:06Z</time>
      </trkpt>
      <trkpt lat="49.98403" lon="2.13321">
        <ele>74.4</ele>
        <time>2024-04-17T12:29:07Z</time>
      </trkpt>
      <trkpt lat="49.98404" lon="2.1332">
        <ele>74.4</ele>
        <time>2024-04-17T12:29:08Z</time>
      </trkpt>
      <trkpt lat="49.98405" lon="2.13319">
        <ele>74.5</ele>
        <time>2024-04-17T12:29:09Z</time>
      </trkpt>
      <trkpt lat="49.98406" lon="2.13319">
        <ele>74.5</ele>
        <time>2024-04-17T12:29:11Z</time>
      </trkpt>
      <trkpt lat="49.98407" lon="2.13318">
        <ele>74.6</ele>
        <time>2024-04-17T12:29:12Z</time>
      </trkpt>
      <trkpt lat="49.98408" lon="2.13318">
        <ele>74.6</ele>
        <time>2024-04-17T12:29:13Z</time>
      </trkpt>
      <trkpt lat="49.98408" lon="2.13318">
        <ele>74.7</ele>
        <time>2024-04-17T12:29:14Z</time>
      </trkpt>
      <trkpt lat="49.98409" lon="2.13317">
        <ele>74.7</ele>
        <time>2024-04-17T12:29:15Z</time>
      </trkpt>
      <trkpt lat="49.9841" lon="2.13317">
        <ele>74.8</ele>
        <time>2024-04-17T12:29:16Z</time>
      </trkpt>
      <trkpt lat="49.9841" lon="2.13316">
        <ele>74.8</ele>
        <time>2024-04-17T12:29:17Z</time>
      </trkpt>
      <trkpt lat="49.98411" lon="2.13315">
        <ele>74.8</ele>
        <time>2024-04-17T12:29:18Z</time>
      </trkpt>
      <trkpt lat="49.98412" lon="2.13314">
        <ele>74.9</ele>
        <time>2024-04-17T12:29:19Z</time>
      </trkpt>
      <trkpt lat="49.98413" lon="2.13313">
        <ele>75</ele>
        <time>2024-04-17T12:29:20Z</time>
      </trkpt>
      <trkpt lat="49.98414" lon="2.13312">
        <ele>75</ele>
        <time>2024-04-17T12:29:21Z</time>
      </trkpt>
      <trkpt lat="49.98415" lon="2.13311">
        <ele>75.1</ele>
        <time>2024-04-17T12:29:22Z</time>
      </trkpt>
      <trkpt lat="49.98416" lon="2.1331">
        <ele>75.2</ele>
        <time>2024-04-17T12:29:23Z</time>
      </trkpt>
      <trkpt lat="49.98417" lon="2.13309">
        <ele>75.3</ele>
        <time>2024-04-17T12:29:24Z</time>
      </trkpt>
      <trkpt lat="49.98418" lon="2.13307">
        <ele>75.3</ele>
        <time>2024-04-17T12:29:25Z</time>
      </trkpt>
      <trkpt lat="49.98419" lon="2.13307">
        <ele>75.4</ele>
        <time>2024-04-17T12:29:26Z</time>
      </trkpt>
      <trkpt lat="49.9842" lon="2.13306">
        <ele>75.5</ele>
        <time>2024-04-17T12:29:27Z</time>
      </trkpt>
      <trkpt lat="49.9842" lon="2.13305">
        <ele>75.5</ele>
        <time>2024-04-17T12:29:28Z</time>
      </trkpt>
      <trkpt lat="49.98421" lon="2.13303">
        <ele>75.6</ele>
        <time>2024-04-17T12:29:29Z</time>
      </trkpt>
      <trkpt lat="49.98422" lon="2.13302">
        <ele>75.6</ele>
        <time>2024-04-17T12:29:30Z</time>
      </trkpt>
      <trkpt lat="49.98422" lon="2.13301">
        <ele>75.7</ele>
        <time>2024-04-17T12:29:31Z</time>
      </trkpt>
      <trkpt lat="49.98423" lon="2.133">
        <ele>75.8</ele>
        <time>2024-04-17T12:29:32Z</time>
      </trkpt>
      <trkpt lat="49.98424" lon="2.13299">
        <ele>75.8</ele>
        <time>2024-04-17T12:29:33Z</time>
      </trkpt>
      <trkpt lat="49.98424" lon="2.13299">
        <ele>75.9</ele>
        <time>2024-04-17T12:29:34Z</time>
      </trkpt>
      <trkpt lat="49.98425" lon="2.13298">
        <ele>75.9</ele>
        <time>2024-04-17T12:29:35Z</time>
      </trkpt>
      <trkpt lat="49.98425" lon="2.13297">
        <ele>76</ele>
        <time>2024-04-17T12:29:36Z</time>
      </trkpt>
      <trkpt lat="49.98426" lon="2.13296">
        <ele>76</ele>
        <time>2024-04-17T12:29:37Z</time>
      </trkpt>
      <trkpt lat="49.98426" lon="2.13296">
        <ele>76.1</ele>
        <time>2024-04-17T12:29:38Z</time>
      </trkpt>
      <trkpt lat="49.98427" lon="2.13296">
        <ele>76.1</ele>
        <time>2024-04-17T12:29:39Z</time>
      </trkpt>
      <trkpt lat="49.98427" lon="2.13296">
        <ele>76.1</ele>
        <time>2024-04-17T12:29:40Z</time>
      </trkpt>
      <trkpt lat="49.98428" lon="2.13297">
        <ele>76.2</ele>
        <time>2024-04-17T12:29:41Z</time>
      </trkpt>
      <trkpt lat="49.98428" lon="2.13298">
        <ele>76.2</ele>
        <time>2024-04-17T12:29:42Z</time>
      </trkpt>
      <trkpt lat="49.98428" lon="2.13298">
        <ele>76.2</ele>
        <time>2024-04-17T12:29:43Z</time>
      </trkpt>
      <trkpt lat="49.98428" lon="2.13298">
        <ele>76.3</ele>
        <time>2024-04-17T12:29:44Z</time>
      </trkpt>
      <trkpt lat="49.98428" lon="2.13298">
        <ele>76.3</ele>
        <time>2024-04-17T12:29:45Z</time>
      </trkpt>
      <trkpt lat="49.98428" lon="2.13298">
        <ele>76.3</ele>
        <time>2024-04-17T12:29:46Z</time>
      </trkpt>
      <trkpt lat="49.98428" lon="2.13298">
        <ele>76.3</ele>
        <time>2024-04-17T12:29:47Z</time>
      </trkpt>
      <trkpt lat="49.98428" lon="2.13298">
        <ele>76.3</ele>
        <time>2024-04-17T12:29:48Z</time>
      </trkpt>
      <trkpt lat="49.98428" lon="2.13298">
        <ele>76.3</ele>
        <time>2024-04-17T12:29:49Z</time>
      </trkpt>
      <trkpt lat="49.98428" lon="2.13298">
        <ele>76.3</ele>
        <time>2024-04-17T12:29:50Z</time>
      </trkpt>
      <trkpt lat="49.98428" lon="2.13298">
        <ele>76.3</ele>
        <time>2024-04-17T12:29:51Z</time>
      </trkpt>
      <trkpt lat="49.98427" lon="2.13298">
        <ele>76.3</ele>
        <time>2024-04-17T12:29:52Z</time>
      </trkpt>
      <trkpt lat="49.98427" lon="2.13298">
        <ele>76.3</ele>
        <time>2024-04-17T12:29:53Z</time>
      </trkpt>
      <trkpt lat="49.98427" lon="2.13298">
        <ele>76.3</ele>
        <time>2024-04-17T12:29:54Z</time>
      </trkpt>
      <trkpt lat="49.98427" lon="2.13298">
        <ele>76.2</ele>
        <time>2024-04-17T12:29:55Z</time>
      </trkpt>
      <trkpt lat="49.98426" lon="2.13297">
        <ele>76.2</ele>
        <time>2024-04-17T12:29:56Z</time>
      </trkpt>
      <trkpt lat="49.98426" lon="2.13297">
        <ele>76.2</ele>
        <time>2024-04-17T12:29:57Z</time>
      </trkpt>
      <trkpt lat="49.98426" lon="2.13297">
        <ele>76.2</ele>
        <time>2024-04-17T12:29:58Z</time>
      </trkpt>
      <trkpt lat="49.98426" lon="2.13297">
        <ele>76.2</ele>
        <time>2024-04-17T12:29:59Z</time>
      </trkpt>
      <trkpt lat="49.98426" lon="2.13297">
        <ele>76.2</ele>
        <time>2024-04-17T12:30:00Z</time>
      </trkpt>
      <trkpt lat="49.98425" lon="2.13297">
        <ele>76.2</ele>
        <time>2024-04-17T12:30:01Z</time>
      </trkpt>
      <trkpt lat="49.98425" lon="2.13297">
        <ele>76.2</ele>
        <time>2024-04-17T12:30:02Z</time>
      </trkpt>
      <trkpt lat="49.98425" lon="2.13297">
        <ele>76.2</ele>
        <time>2024-04-17T12:30:03Z</time>
      </trkpt>
      <trkpt lat="49.98425" lon="2.13297">
        <ele>76.2</ele>
        <time>2024-04-17T12:30:04Z</time>
      </trkpt>
      <trkpt lat="49.98425" lon="2.13297">
        <ele>76.2</ele>
        <time>2024-04-17T12:30:05Z</time>
      </trkpt>
      <trkpt lat="49.98425" lon="2.13297">
        <ele>76.2</ele>
        <time>2024-04-17T12:30:06Z</time>
      </trkpt>
      <trkpt lat="49.98425" lon="2.13297">
        <ele>76.2</ele>
        <time>2024-04-17T12:30:07Z</time>
      </trkpt>
      <trkpt lat="49.98425" lon="2.13297">
        <ele>76.2</ele>
        <time>2024-04-17T12:30:08Z</time>
      </trkpt>
      <trkpt lat="49.98425" lon="2.13297">
        <ele>76.2</ele>
        <time>2024-04-17T12:30:09Z</time>
      </trkpt>
      <trkpt lat="49.98425" lon="2.13297">
        <ele>76.2</ele>
        <time>2024-04-17T12:30:10Z</time>
      </trkpt>
      <trkpt lat="49.98425" lon="2.13297">
        <ele>76.2</ele>
        <time>2024-04-17T12:30:11Z</time>
      </trkpt>
      <trkpt lat="49.98425" lon="2.13297">
        <ele>76.2</ele>
        <time>2024-04-17T12:30:12Z</time>
      </trkpt>
      <trkpt lat="49.98425" lon="2.13297">
        <ele>76.2</ele>
        <time>2024-04-17T12:30:13Z</time>
      </trkpt>
      <trkpt lat="49.98425" lon="2.13297">
        <ele>76.2</ele>
        <time>2024-04-17T12:30:14Z</time>
      </trkpt>
      <trkpt lat="49.98425" lon="2.13297">
        <ele>76.2</ele>
        <time>2024-04-17T12:30:15Z</time>
      </trkpt>
      <trkpt lat="49.98425" lon="2.13297">
        <ele>76.2</ele>
        <time>2024-04-17T12:30:16Z</time>
      </trkpt>
      <trkpt lat="49.98425" lon="2.13297">
        <ele>76.2</ele>
        <time>2024-04-17T12:30:17Z</time>
      </trkpt>
      <trkpt lat="49.98425" lon="2.13297">
        <ele>76.2</ele>
        <time>2024-04-17T12:30:18Z</time>
      </trkpt>
      <trkpt lat="49.98425" lon="2.13297">
        <ele>76.2</ele>
        <time>2024-04-17T12:30:19Z</time>
      </trkpt>
      <trkpt lat="49.98425" lon="2.13297">
        <ele>76.2</ele>
        <time>2024-04-17T12:30:20Z</time>
      </trkpt>
      <trkpt lat="49.98425" lon="2.13297">
        <ele>76.2</ele>
        <time>2024-04-17T12:30:21Z</time>
      </trkpt>
      <trkpt lat="49.98425" lon="2.13297">
        <ele>76.2</ele>
        <time>2024-04-17T12:30:22Z</time>
      </trkpt>
      <trkpt lat="49.98425" lon="2.13297">
        <ele>76.2</ele>
        <time>2024-04-17T12:30:23Z</time>
      </trkpt>
      <trkpt lat="49.98425" lon="2.13297">
        <ele>76.2</ele>
        <time>2024-04-17T12:30:24Z</time>
      </trkpt>
      <trkpt lat="49.98425" lon="2.13297">
        <ele>76.2</ele>
        <time>2024-04-17T12:30:25Z</time>
      </trkpt>
      <trkpt lat="49.98425" lon="2.13297">
        <ele>76.2</ele>
        <time>2024-04-17T12:30:26Z</time>
      </trkpt>
      <trkpt lat="49.98425" lon="2.13297">
        <ele>76.2</ele>
        <time>2024-04-17T12:30:27Z</time>
      </trkpt>
      <trkpt lat="49.98425" lon="2.13297">
        <ele>76.2</ele>
        <time>2024-04-17T12:30:28Z</time>
      </trkpt>
      <trkpt lat="49.98425" lon="2.13297">
        <ele>76.2</ele>
        <time>2024-04-17T12:30:29Z</time>
      </trkpt>
      <trkpt lat="49.98425" lon="2.13297">
        <ele>76.2</ele>
        <time>2024-04-17T12:30:30Z</time>
      </trkpt>
      <trkpt lat="49.98425" lon="2.13297">
        <ele>76.2</ele>
        <time>2024-04-17T12:30:31Z</time>
      </trkpt>
      <trkpt lat="49.98425" lon="2.13297">
        <ele>76.2</ele>
        <time>2024-04-17T12:30:32Z</time>
      </trkpt>
      <trkpt lat="49.98425" lon="2.13297">
        <ele>76.2</ele>
        <time>2024-04-17T12:30:33Z</time>
      </trkpt>
      <trkpt lat="49.98425" lon="2.13297">
        <ele>76.2</ele>
        <time>2024-04-17T12:30:34Z</time>
      </trkpt>
      <trkpt lat="49.98425" lon="2.13297">
        <ele>76.2</ele>
        <time>2024-04-17T12:30:35Z</time>
      </trkpt>
      <trkpt lat="49.98425" lon="2.13297">
        <ele>76.2</ele>
        <time>2024-04-17T12:30:36Z</time>
      </trkpt>
      <trkpt lat="49.98425" lon="2.13297">
        <ele>76.2</ele>
        <time>2024-04-17T12:30:37Z</time>
      </trkpt>
      <trkpt lat="49.98425" lon="2.13297">
        <ele>76.2</ele>
        <time>2024-04-17T12:30:38Z</time>
      </trkpt>
      <trkpt lat="49.98425" lon="2.13297">
        <ele>76.2</ele>
        <time>2024-04-17T12:30:39Z</time>
      </trkpt>
      <trkpt lat="49.98425" lon="2.13297">
        <ele>76.2</ele>
        <time>2024-04-17T12:30:40Z</time>
      </trkpt>
      <trkpt lat="49.98425" lon="2.13297">
        <ele>76.2</ele>
        <time>2024-04-17T12:30:41Z</time>
      </trkpt>
      <trkpt lat="49.98425" lon="2.13297">
        <ele>76.2</ele>
        <time>2024-04-17T12:30:42Z</time>
      </trkpt>
      <trkpt lat="49.98425" lon="2.13297">
        <ele>76.2</ele>
        <time>2024-04-17T12:30:44Z</time>
      </trkpt>
      <trkpt lat="49.98425" lon="2.13297">
        <ele>76.2</ele>
        <time>2024-04-17T12:30:45Z</time>
      </trkpt>
      <trkpt lat="49.98425" lon="2.13297">
        <ele>76.2</ele>
        <time>2024-04-17T12:30:46Z</time>
      </trkpt>
      <trkpt lat="49.98425" lon="2.13297">
        <ele>76.2</ele>
        <time>2024-04-17T12:30:47Z</time>
      </trkpt>
      <trkpt lat="49.98425" lon="2.13297">
        <ele>76.2</ele>
        <time>2024-04-17T12:30:48Z</time>
      </trkpt>
      <trkpt lat="49.98425" lon="2.13297">
        <ele>76.2</ele>
        <time>2024-04-17T12:30:49Z</time>
      </trkpt>
      <trkpt lat="49.98425" lon="2.13297">
        <ele>76.2</ele>
        <time>2024-04-17T12:30:50Z</time>
      </trkpt>
      <trkpt lat="49.98425" lon="2.13297">
        <ele>76.2</ele>
        <time>2024-04-17T12:30:51Z</time>
      </trkpt>
      <trkpt lat="49.98425" lon="2.13297">
        <ele>76.2</ele>
        <time>2024-04-17T12:30:52Z</time>
      </trkpt>
      <trkpt lat="49.98425" lon="2.13297">
        <ele>76.2</ele>
        <time>2024-04-17T12:30:53Z</time>
      </trkpt>
      <trkpt lat="49.98424" lon="2.13297">
        <ele>76.2</ele>
        <time>2024-04-17T12:30:54Z</time>
      </trkpt>
      <trkpt lat="49.98424" lon="2.13297">
        <ele>76.2</ele>
        <time>2024-04-17T12:30:55Z</time>
      </trkpt>
      <trkpt lat="49.98424" lon="2.13297">
        <ele>76.2</ele>
        <time>2024-04-17T12:30:56Z</time>
      </trkpt>
      <trkpt lat="49.98424" lon="2.13297">
        <ele>76.2</ele>
        <time>2024-04-17T12:30:57Z</time>
      </trkpt>
      <trkpt lat="49.98424" lon="2.13297">
        <ele>76.2</ele>
        <time>2024-04-17T12:30:58Z</time>
      </trkpt>
      <trkpt lat="49.98424" lon="2.13297">
        <ele>76.2</ele>
        <time>2024-04-17T12:30:59Z</time>
      </trkpt>
      <trkpt lat="49.98424" lon="2.13297">
        <ele>76.2</ele>
        <time>2024-04-17T12:31:00Z</time>
      </trkpt>
      <trkpt lat="49.98424" lon="2.13297">
        <ele>76.2</ele>
        <time>2024-04-17T12:31:01Z</time>
      </trkpt>
      <trkpt lat="49.98424" lon="2.13297">
        <ele>76.2</ele>
        <time>2024-04-17T12:31:02Z</time>
      </trkpt>
      <trkpt lat="49.98424" lon="2.13297">
        <ele>76.2</ele>
        <time>2024-04-17T12:31:03Z</time>
      </trkpt>
      <trkpt lat="49.98424" lon="2.13297">
        <ele>76.2</ele>
        <time>2024-04-17T12:31:04Z</time>
      </trkpt>
      <trkpt lat="49.98424" lon="2.13297">
        <ele>76.2</ele>
        <time>2024-04-17T12:31:05Z</time>
      </trkpt>
      <trkpt lat="49.98424" lon="2.13297">
        <ele>76.2</ele>
        <time>2024-04-17T12:31:06Z</time>
      </trkpt>
      <trkpt lat="49.98424" lon="2.13297">
        <ele>76.2</ele>
        <time>2024-04-17T12:31:07Z</time>
      </trkpt>
      <trkpt lat="49.98424" lon="2.13297">
        <ele>76.2</ele>
        <time>2024-04-17T12:31:08Z</time>
      </trkpt>
      <trkpt lat="49.98424" lon="2.13297">
        <ele>76.2</ele>
        <time>2024-04-17T12:31:09Z</time>
      </trkpt>
      <trkpt lat="49.98424" lon="2.13297">
        <ele>76.2</ele>
        <time>2024-04-17T12:31:10Z</time>
      </trkpt>
      <trkpt lat="49.98424" lon="2.13297">
        <ele>76.2</ele>
        <time>2024-04-17T12:31:11Z</time>
      </trkpt>
      <trkpt lat="49.98424" lon="2.13297">
        <ele>76.2</ele>
        <time>2024-04-17T12:31:12Z</time>
      </trkpt>
      <trkpt lat="49.98424" lon="2.13297">
        <ele>76.2</ele>
        <time>2024-04-17T12:31:13Z</time>
      </trkpt>
      <trkpt lat="49.98424" lon="2.13297">
        <ele>76.2</ele>
        <time>2024-04-17T12:31:14Z</time>
      </trkpt>
      <trkpt lat="49.98424" lon="2.13297">
        <ele>76.2</ele>
        <time>2024-04-17T12:31:15Z</time>
      </trkpt>
      <trkpt lat="49.98424" lon="2.13297">
        <ele>76.2</ele>
        <time>2024-04-17T12:31:16Z</time>
      </trkpt>
      <trkpt lat="49.98424" lon="2.13297">
        <ele>76.2</ele>
        <time>2024-04-17T12:31:17Z</time>
      </trkpt>
      <trkpt lat="49.98424" lon="2.13297">
        <ele>76.2</ele>
        <time>2024-04-17T12:31:18Z</time>
      </trkpt>
      <trkpt lat="49.98424" lon="2.13297">
        <ele>76.2</ele>
        <time>2024-04-17T12:31:19Z</time>
      </trkpt>
      <trkpt lat="49.98424" lon="2.13297">
        <ele>76.2</ele>
        <time>2024-04-17T12:31:20Z</time>
      </trkpt>
      <trkpt lat="49.98424" lon="2.13297">
        <ele>76.2</ele>
        <time>2024-04-17T12:31:21Z</time>
      </trkpt>
      <trkpt lat="49.98424" lon="2.13297">
        <ele>76.2</ele>
        <time>2024-04-17T12:31:22Z</time>
      </trkpt>
      <trkpt lat="49.98424" lon="2.13297">
        <ele>76.2</ele>
        <time>2024-04-17T12:31:23Z</time>
      </trkpt>
      <trkpt lat="49.98424" lon="2.13297">
        <ele>76.2</ele>
        <time>2024-04-17T12:31:24Z</time>
      </trkpt>
      <trkpt lat="49.98424" lon="2.13297">
        <ele>76.2</ele>
        <time>2024-04-17T12:31:25Z</time>
      </trkpt>
      <trkpt lat="49.98424" lon="2.13297">
        <ele>76.2</ele>
        <time>2024-04-17T12:31:26Z</time>
      </trkpt>
      <trkpt lat="49.98424" lon="2.13297">
        <ele>76.2</ele>
        <time>2024-04-17T12:31:27Z</time>
      </trkpt>
      <trkpt lat="49.98424" lon="2.13297">
        <ele>76.2</ele>
        <time>2024-04-17T12:31:28Z</time>
      </trkpt>
      <trkpt lat="49.98424" lon="2.13297">
        <ele>76.2</ele>
        <time>2024-04-17T12:31:29Z</time>
      </trkpt>
      <trkpt lat="49.98424" lon="2.13297">
        <ele>76.2</ele>
        <time>2024-04-17T12:31:30Z</time>
      </trkpt>
      <trkpt lat="49.98424" lon="2.13297">
        <ele>76.2</ele>
        <time>2024-04-17T12:31:31Z</time>
      </trkpt>
      <trkpt lat="49.98424" lon="2.13297">
        <ele>76.2</ele>
        <time>2024-04-17T12:31:32Z</time>
      </trkpt>
      <trkpt lat="49.98424" lon="2.13297">
        <ele>76.2</ele>
        <time>2024-04-17T12:31:33Z</time>
      </trkpt>
      <trkpt lat="49.98424" lon="2.13297">
        <ele>76.2</ele>
        <time>2024-04-17T12:31:34Z</time>
      </trkpt>
      <trkpt lat="49.98424" lon="2.13297">
        <ele>76.2</ele>
        <time>2024-04-17T12:31:35Z</time>
      </trkpt>
      <trkpt lat="49.98424" lon="2.13297">
        <ele>76.2</ele>
        <time>2024-04-17T12:31:36Z</time>
      </trkpt>
      <trkpt lat="49.98424" lon="2.13297">
        <ele>76.2</ele>
        <time>2024-04-17T12:31:37Z</time>
      </trkpt>
      <trkpt lat="49.98424" lon="2.13297">
        <ele>76.2</ele>
        <time>2024-04-17T12:31:38Z</time>
      </trkpt>
      <trkpt lat="49.98424" lon="2.13297">
        <ele>76.2</ele>
        <time>2024-04-17T12:31:39Z</time>
      </trkpt>
      <trkpt lat="49.98424" lon="2.13297">
        <ele>76.2</ele>
        <time>2024-04-17T12:31:40Z</time>
      </trkpt>
      <trkpt lat="49.98424" lon="2.13297">
        <ele>76.2</ele>
        <time>2024-04-17T12:31:41Z</time>
      </trkpt>
      <trkpt lat="49.98424" lon="2.13297">
        <ele>76.2</ele>
        <time>2024-04-17T12:31:42Z</time>
      </trkpt>
      <trkpt lat="49.98424" lon="2.13297">
        <ele>76.2</ele>
        <time>2024-04-17T12:31:43Z</time>
      </trkpt>
      <trkpt lat="49.98424" lon="2.13297">
        <ele>76.2</ele>
        <time>2024-04-17T12:31:44Z</time>
      </trkpt>
      <trkpt lat="49.98424" lon="2.13297">
        <ele>76.2</ele>
        <time>2024-04-17T12:31:45Z</time>
      </trkpt>
      <trkpt lat="49.98424" lon="2.13297">
        <ele>76.2</ele>
        <time>2024-04-17T12:31:46Z</time>
      </trkpt>
      <trkpt lat="49.98424" lon="2.13297">
        <ele>76.2</ele>
        <time>2024-04-17T12:31:47Z</time>
      </trkpt>
      <trkpt lat="49.98424" lon="2.13297">
        <ele>76.2</ele>
        <time>2024-04-17T12:31:48Z</time>
      </trkpt>
      <trkpt lat="49.98424" lon="2.13297">
        <ele>76.2</ele>
        <time>2024-04-17T12:31:49Z</time>
      </trkpt>
      <trkpt lat="49.98424" lon="2.13297">
        <ele>76.2</ele>
        <time>2024-04-17T12:31:50Z</time>
      </trkpt>
      <trkpt lat="49.98424" lon="2.13297">
        <ele>76.2</ele>
        <time>2024-04-17T12:31:52Z</time>
      </trkpt>
      <trkpt lat="49.98424" lon="2.13297">
        <ele>76.2</ele>
        <time>2024-04-17T12:31:53Z</time>
      </trkpt>
      <trkpt lat="49.98424" lon="2.13297">
        <ele>76.2</ele>
        <time>2024-04-17T12:31:54Z</time>
      </trkpt>
      <trkpt lat="49.98424" lon="2.13297">
        <ele>76.2</ele>
        <time>2024-04-17T12:31:55Z</time>
      </trkpt>
      <trkpt lat="49.98424" lon="2.13297">
        <ele>76.2</ele>
        <time>2024-04-17T12:31:56Z</time>
      </trkpt>
      <trkpt lat="49.98424" lon="2.13297">
        <ele>76.2</ele>
        <time>2024-04-17T12:31:57Z</time>
      </trkpt>
      <trkpt lat="49.98424" lon="2.13297">
        <ele>76.2</ele>
        <time>2024-04-17T12:31:58Z</time>
      </trkpt>
      <trkpt lat="49.98424" lon="2.13297">
        <ele>76.2</ele>
        <time>2024-04-17T12:31:59Z</time>
      </trkpt>
      <trkpt lat="49.98424" lon="2.13297">
        <ele>76.2</ele>
        <time>2024-04-17T12:32:00Z</time>
      </trkpt>
      <trkpt lat="49.98424" lon="2.13297">
        <ele>76.2</ele>
        <time>2024-04-17T12:32:01Z</time>
      </trkpt>
      <trkpt lat="49.98424" lon="2.13297">
        <ele>76.2</ele>
        <time>2024-04-17T12:32:02Z</time>
      </trkpt>
      <trkpt lat="49.98424" lon="2.13298">
        <ele>76.2</ele>
        <time>2024-04-17T12:32:03Z</time>
      </trkpt>
      <trkpt lat="49.98423" lon="2.13298">
        <ele>76.2</ele>
        <time>2024-04-17T12:32:04Z</time>
      </trkpt>
      <trkpt lat="49.98423" lon="2.13298">
        <ele>76.2</ele>
        <time>2024-04-17T12:32:05Z</time>
      </trkpt>
      <trkpt lat="49.98423" lon="2.13298">
        <ele>76.2</ele>
        <time>2024-04-17T12:32:06Z</time>
      </trkpt>
      <trkpt lat="49.98423" lon="2.13298">
        <ele>76.2</ele>
        <time>2024-04-17T12:32:07Z</time>
      </trkpt>
      <trkpt lat="49.98423" lon="2.13298">
        <ele>76.2</ele>
        <time>2024-04-17T12:32:08Z</time>
      </trkpt>
      <trkpt lat="49.98423" lon="2.13298">
        <ele>76.2</ele>
        <time>2024-04-17T12:32:09Z</time>
      </trkpt>
      <trkpt lat="49.98423" lon="2.13298">
        <ele>76.2</ele>
        <time>2024-04-17T12:32:10Z</time>
      </trkpt>
      <trkpt lat="49.98423" lon="2.13298">
        <ele>76.2</ele>
        <time>2024-04-17T12:32:11Z</time>
      </trkpt>
      <trkpt lat="49.98423" lon="2.13298">
        <ele>76.2</ele>
        <time>2024-04-17T12:32:12Z</time>
      </trkpt>
      <trkpt lat="49.98423" lon="2.13298">
        <ele>76.2</ele>
        <time>2024-04-17T12:32:13Z</time>
      </trkpt>
      <trkpt lat="49.98423" lon="2.13298">
        <ele>76.2</ele>
        <time>2024-04-17T12:32:14Z</time>
      </trkpt>
      <trkpt lat="49.98423" lon="2.13298">
        <ele>76.2</ele>
        <time>2024-04-17T12:32:15Z</time>
      </trkpt>
      <trkpt lat="49.98423" lon="2.13298">
        <ele>76.2</ele>
        <time>2024-04-17T12:32:16Z</time>
      </trkpt>
      <trkpt lat="49.98423" lon="2.13298">
        <ele>76.2</ele>
        <time>2024-04-17T12:32:17Z</time>
      </trkpt>
      <trkpt lat="49.98423" lon="2.13298">
        <ele>76.2</ele>
        <time>2024-04-17T12:32:18Z</time>
      </trkpt>
      <trkpt lat="49.98423" lon="2.13298">
        <ele>76.2</ele>
        <time>2024-04-17T12:32:19Z</time>
      </trkpt>
      <trkpt lat="49.98423" lon="2.13298">
        <ele>76.2</ele>
        <time>2024-04-17T12:32:20Z</time>
      </trkpt>
      <trkpt lat="49.98423" lon="2.13298">
        <ele>76.2</ele>
        <time>2024-04-17T12:32:21Z</time>
      </trkpt>
      <trkpt lat="49.98423" lon="2.13298">
        <ele>76.2</ele>
        <time>2024-04-17T12:32:22Z</time>
      </trkpt>
      <trkpt lat="49.98423" lon="2.13298">
        <ele>76.2</ele>
        <time>2024-04-17T12:32:23Z</time>
      </trkpt>
      <trkpt lat="49.98423" lon="2.13298">
        <ele>76.2</ele>
        <time>2024-04-17T12:32:24Z</time>
      </trkpt>
      <trkpt lat="49.98423" lon="2.13298">
        <ele>76.2</ele>
        <time>2024-04-17T12:32:25Z</time>
      </trkpt>
      <trkpt lat="49.98423" lon="2.13298">
        <ele>76.2</ele>
        <time>2024-04-17T12:32:26Z</time>
      </trkpt>
      <trkpt lat="49.98423" lon="2.13298">
        <ele>76.2</ele>
        <time>2024-04-17T12:32:27Z</time>
      </trkpt>
      <trkpt lat="49.98423" lon="2.13298">
        <ele>76.2</ele>
        <time>2024-04-17T12:32:28Z</time>
      </trkpt>
      <trkpt lat="49.98423" lon="2.13298">
        <ele>76.2</ele>
        <time>2024-04-17T12:32:29Z</time>
      </trkpt>
      <trkpt lat="49.98423" lon="2.13298">
        <ele>76.2</ele>
        <time>2024-04-17T12:32:30Z</time>
      </trkpt>
      <trkpt lat="49.98423" lon="2.13298">
        <ele>76.2</ele>
        <time>2024-04-17T12:32:31Z</time>
      </trkpt>
      <trkpt lat="49.98423" lon="2.13298">
        <ele>76.2</ele>
        <time>2024-04-17T12:32:32Z</time>
      </trkpt>
      <trkpt lat="49.98423" lon="2.13298">
        <ele>76.2</ele>
        <time>2024-04-17T12:32:33Z</time>
      </trkpt>
      <trkpt lat="49.98423" lon="2.13298">
        <ele>76.2</ele>
        <time>2024-04-17T12:32:34Z</time>
      </trkpt>
      <trkpt lat="49.98423" lon="2.13298">
        <ele>76.2</ele>
        <time>2024-04-17T12:32:35Z</time>
      </trkpt>
      <trkpt lat="49.98423" lon="2.13298">
        <ele>76.2</ele>
        <time>2024-04-17T12:32:36Z</time>
      </trkpt>
      <trkpt lat="49.98423" lon="2.13298">
        <ele>76.2</ele>
        <time>2024-04-17T12:32:37Z</time>
      </trkpt>
      <trkpt lat="49.98423" lon="2.13298">
        <ele>76.2</ele>
        <time>2024-04-17T12:32:38Z</time>
      </trkpt>
      <trkpt lat="49.98423" lon="2.13298">
        <ele>76.2</ele>
        <time>2024-04-17T12:32:39Z</time>
      </trkpt>
      <trkpt lat="49.98423" lon="2.13298">
        <ele>76.2</ele>
        <time>2024-04-17T12:32:40Z</time>
      </trkpt>
      <trkpt lat="49.98423" lon="2.13298">
        <ele>76.2</ele>
        <time>2024-04-17T12:32:41Z</time>
      </trkpt>
      <trkpt lat="49.98423" lon="2.13298">
        <ele>76.2</ele>
        <time>2024-04-17T12:32:42Z</time>
      </trkpt>
      <trkpt lat="49.98423" lon="2.13298">
        <ele>76.2</ele>
        <time>2024-04-17T12:32:43Z</time>
      </trkpt>
      <trkpt lat="49.98423" lon="2.13298">
        <ele>76.2</ele>
        <time>2024-04-17T12:32:44Z</time>
      </trkpt>
      <trkpt lat="49.98423" lon="2.13298">
        <ele>76.2</ele>
        <time>2024-04-17T12:32:45Z</time>
      </trkpt>
      <trkpt lat="49.98423" lon="2.13298">
        <ele>76.2</ele>
        <time>2024-04-17T12:32:46Z</time>
      </trkpt>
      <trkpt lat="49.98423" lon="2.13298">
        <ele>76.2</ele>
        <time>2024-04-17T12:32:47Z</time>
      </trkpt>
      <trkpt lat="49.98423" lon="2.13298">
        <ele>76.2</ele>
        <time>2024-04-17T12:32:48Z</time>
      </trkpt>
      <trkpt lat="49.98423" lon="2.13298">
        <ele>76.2</ele>
        <time>2024-04-17T12:32:49Z</time>
      </trkpt>
      <trkpt lat="49.98423" lon="2.13298">
        <ele>76.2</ele>
        <time>2024-04-17T12:32:50Z</time>
      </trkpt>
      <trkpt lat="49.98423" lon="2.13298">
        <ele>76.2</ele>
        <time>2024-04-17T12:32:51Z</time>
      </trkpt>
      <trkpt lat="49.98423" lon="2.13298">
        <ele>76.2</ele>
        <time>2024-04-17T12:32:52Z</time>
      </trkpt>
      <trkpt lat="49.98423" lon="2.13298">
        <ele>76.2</ele>
        <time>2024-04-17T12:32:53Z</time>
      </trkpt>
      <trkpt lat="49.98423" lon="2.13298">
        <ele>76.2</ele>
        <time>2024-04-17T12:32:54Z</time>
      </trkpt>
      <trkpt lat="49.98423" lon="2.13298">
        <ele>76.2</ele>
        <time>2024-04-17T12:32:55Z</time>
      </trkpt>
      <trkpt lat="49.98423" lon="2.13298">
        <ele>76.2</ele>
        <time>2024-04-17T12:32:56Z</time>
      </trkpt>
      <trkpt lat="49.98423" lon="2.13298">
        <ele>76.2</ele>
        <time>2024-04-17T12:32:57Z</time>
      </trkpt>
      <trkpt lat="49.98423" lon="2.13298">
        <ele>76.2</ele>
        <time>2024-04-17T12:32:58Z</time>
      </trkpt>
      <trkpt lat="49.98423" lon="2.13298">
        <ele>76.2</ele>
        <time>2024-04-17T12:32:59Z</time>
      </trkpt>
      <trkpt lat="49.98423" lon="2.13298">
        <ele>76.2</ele>
        <time>2024-04-17T12:33:00Z</time>
      </trkpt>
      <trkpt lat="49.98423" lon="2.13298">
        <ele>76.2</ele>
        <time>2024-04-17T12:33:01Z</time>
      </trkpt>
      <trkpt lat="49.98423" lon="2.13298">
        <ele>76.2</ele>
        <time>2024-04-17T12:33:02Z</time>
      </trkpt>
      <trkpt lat="49.98423" lon="2.13298">
        <ele>76.2</ele>
        <time>2024-04-17T12:33:03Z</time>
      </trkpt>
      <trkpt lat="49.98423" lon="2.13298">
        <ele>76.2</ele>
        <time>2024-04-17T12:33:04Z</time>
      </trkpt>
      <trkpt lat="49.98423" lon="2.13298">
        <ele>76.2</ele>
        <time>2024-04-17T12:33:05Z</time>
      </trkpt>
      <trkpt lat="49.98423" lon="2.13298">
        <ele>76.2</ele>
        <time>2024-04-17T12:33:06Z</time>
      </trkpt>
      <trkpt lat="49.98423" lon="2.13298">
        <ele>76.2</ele>
        <time>2024-04-17T12:33:07Z</time>
      </trkpt>
      <trkpt lat="49.98423" lon="2.13298">
        <ele>76.2</ele>
        <time>2024-04-17T12:33:08Z</time>
      </trkpt>
      <trkpt lat="49.98423" lon="2.13298">
        <ele>76.2</ele>
        <time>2024-04-17T12:33:09Z</time>
      </trkpt>
      <trkpt lat="49.98423" lon="2.13298">
        <ele>76.2</ele>
        <time>2024-04-17T12:33:10Z</time>
      </trkpt>
      <trkpt lat="49.98423" lon="2.13298">
        <ele>76.2</ele>
        <time>2024-04-17T12:33:11Z</time>
      </trkpt>
      <trkpt lat="49.98423" lon="2.13298">
        <ele>76.2</ele>
        <time>2024-04-17T12:33:12Z</time>
      </trkpt>
      <trkpt lat="49.98423" lon="2.13298">
        <ele>76.2</ele>
        <time>2024-04-17T12:33:13Z</time>
      </trkpt>
      <trkpt lat="49.98422" lon="2.13298">
        <ele>76.2</ele>
        <time>2024-04-17T12:33:14Z</time>
      </trkpt>
      <trkpt lat="49.98422" lon="2.13298">
        <ele>76.2</ele>
        <time>2024-04-17T12:33:15Z</time>
      </trkpt>
      <trkpt lat="49.98422" lon="2.13298">
        <ele>76.2</ele>
        <time>2024-04-17T12:33:16Z</time>
      </trkpt>
      <trkpt lat="49.98422" lon="2.13298">
        <ele>76.2</ele>
        <time>2024-04-17T12:33:17Z</time>
      </trkpt>
      <trkpt lat="49.98422" lon="2.13298">
        <ele>76.2</ele>
        <time>2024-04-17T12:33:18Z</time>
      </trkpt>
      <trkpt lat="49.98422" lon="2.13298">
        <ele>76.2</ele>
        <time>2024-04-17T12:33:19Z</time>
      </trkpt>
      <trkpt lat="49.98422" lon="2.13298">
        <ele>76.2</ele>
        <time>2024-04-17T12:33:20Z</time>
      </trkpt>
      <trkpt lat="49.98422" lon="2.13298">
        <ele>76.2</ele>
        <time>2024-04-17T12:33:21Z</time>
      </trkpt>
      <trkpt lat="49.98422" lon="2.13298">
        <ele>76.2</ele>
        <time>2024-04-17T12:33:22Z</time>
      </trkpt>
      <trkpt lat="49.98422" lon="2.13298">
        <ele>76.2</ele>
        <time>2024-04-17T12:33:23Z</time>
      </trkpt>
      <trkpt lat="49.98422" lon="2.13298">
        <ele>76.2</ele>
        <time>2024-04-17T12:33:24Z</time>
      </trkpt>
      <trkpt lat="49.98422" lon="2.13298">
        <ele>76.2</ele>
        <time>2024-04-17T12:33:25Z</time>
      </trkpt>
      <trkpt lat="49.98422" lon="2.13298">
        <ele>76.2</ele>
        <time>2024-04-17T12:33:26Z</time>
      </trkpt>
      <trkpt lat="49.98422" lon="2.13298">
        <ele>76.2</ele>
        <time>2024-04-17T12:33:27Z</time>
      </trkpt>
      <trkpt lat="49.98422" lon="2.13298">
        <ele>76.2</ele>
        <time>2024-04-17T12:33:28Z</time>
      </trkpt>
      <trkpt lat="49.98422" lon="2.13298">
        <ele>76.2</ele>
        <time>2024-04-17T12:33:29Z</time>
      </trkpt>
      <trkpt lat="49.98422" lon="2.13298">
        <ele>76.2</ele>
        <time>2024-04-17T12:33:30Z</time>
      </trkpt>
      <trkpt lat="49.98422" lon="2.13298">
        <ele>76.2</ele>
        <time>2024-04-17T12:33:31Z</time>
      </trkpt>
      <trkpt lat="49.98422" lon="2.13298">
        <ele>76.2</ele>
        <time>2024-04-17T12:33:32Z</time>
      </trkpt>
      <trkpt lat="49.98422" lon="2.13298">
        <ele>76.2</ele>
        <time>2024-04-17T12:33:33Z</time>
      </trkpt>
      <trkpt lat="49.98422" lon="2.13298">
        <ele>76.2</ele>
        <time>2024-04-17T12:33:34Z</time>
      </trkpt>
      <trkpt lat="49.98422" lon="2.13298">
        <ele>76.2</ele>
        <time>2024-04-17T12:33:35Z</time>
      </trkpt>
      <trkpt lat="49.98422" lon="2.13298">
        <ele>76.2</ele>
        <time>2024-04-17T12:33:36Z</time>
      </trkpt>
      <trkpt lat="49.98422" lon="2.13298">
        <ele>76.2</ele>
        <time>2024-04-17T12:33:37Z</time>
      </trkpt>
      <trkpt lat="49.98422" lon="2.13298">
        <ele>76.2</ele>
        <time>2024-04-17T12:33:38Z</time>
      </trkpt>
      <trkpt lat="49.98422" lon="2.13298">
        <ele>76.2</ele>
        <time>2024-04-17T12:33:39Z</time>
      </trkpt>
      <trkpt lat="49.98422" lon="2.13298">
        <ele>76.2</ele>
        <time>2024-04-17T12:33:40Z</time>
      </trkpt>
      <trkpt lat="49.98422" lon="2.13298">
        <ele>76.2</ele>
        <time>2024-04-17T12:33:41Z</time>
      </trkpt>
      <trkpt lat="49.98422" lon="2.13298">
        <ele>76.2</ele>
        <time>2024-04-17T12:33:42Z</time>
      </trkpt>
      <trkpt lat="49.98422" lon="2.13298">
        <ele>76.2</ele>
        <time>2024-04-17T12:33:43Z</time>
      </trkpt>
      <trkpt lat="49.98422" lon="2.13298">
        <ele>76.2</ele>
        <time>2024-04-17T12:33:44Z</time>
      </trkpt>
      <trkpt lat="49.98422" lon="2.13298">
        <ele>76.2</ele>
        <time>2024-04-17T12:33:45Z</time>
      </trkpt>
      <trkpt lat="49.98422" lon="2.13298">
        <ele>76.2</ele>
        <time>2024-04-17T12:33:46Z</time>
      </trkpt>
      <trkpt lat="49.98422" lon="2.13298">
        <ele>76.2</ele>
        <time>2024-04-17T12:33:47Z</time>
      </trkpt>
      <trkpt lat="49.98422" lon="2.13298">
        <ele>76.2</ele>
        <time>2024-04-17T12:33:48Z</time>
      </trkpt>
      <trkpt lat="49.98422" lon="2.13298">
        <ele>76.2</ele>
        <time>2024-04-17T12:33:49Z</time>
      </trkpt>
      <trkpt lat="49.98422" lon="2.13298">
        <ele>76.2</ele>
        <time>2024-04-17T12:33:50Z</time>
      </trkpt>
      <trkpt lat="49.98422" lon="2.13298">
        <ele>76.2</ele>
        <time>2024-04-17T12:33:51Z</time>
      </trkpt>
      <trkpt lat="49.98422" lon="2.13298">
        <ele>76.2</ele>
        <time>2024-04-17T12:33:52Z</time>
      </trkpt>
      <trkpt lat="49.98422" lon="2.13298">
        <ele>76.2</ele>
        <time>2024-04-17T12:33:53Z</time>
      </trkpt>
      <trkpt lat="49.98422" lon="2.13298">
        <ele>76.2</ele>
        <time>2024-04-17T12:33:54Z</time>
      </trkpt>
      <trkpt lat="49.98422" lon="2.13298">
        <ele>76.2</ele>
        <time>2024-04-17T12:33:55Z</time>
      </trkpt>
      <trkpt lat="49.98422" lon="2.13298">
        <ele>76.2</ele>
        <time>2024-04-17T12:33:56Z</time>
      </trkpt>
      <trkpt lat="49.98422" lon="2.13298">
        <ele>76.2</ele>
        <time>2024-04-17T12:33:57Z</time>
      </trkpt>
      <trkpt lat="49.98422" lon="2.13298">
        <ele>76.2</ele>
        <time>2024-04-17T12:33:58Z</time>
      </trkpt>
      <trkpt lat="49.98422" lon="2.13298">
        <ele>76.2</ele>
        <time>2024-04-17T12:33:59Z</time>
      </trkpt>
      <trkpt lat="49.98422" lon="2.13298">
        <ele>76.2</ele>
        <time>2024-04-17T12:34:00Z</time>
      </trkpt>
      <trkpt lat="49.98422" lon="2.13298">
        <ele>76.2</ele>
        <time>2024-04-17T12:34:01Z</time>
      </trkpt>
      <trkpt lat="49.98422" lon="2.13298">
        <ele>76.2</ele>
        <time>2024-04-17T12:34:02Z</time>
      </trkpt>
      <trkpt lat="49.98422" lon="2.13298">
        <ele>76.2</ele>
        <time>2024-04-17T12:34:03Z</time>
      </trkpt>
      <trkpt lat="49.98422" lon="2.13298">
        <ele>76.2</ele>
        <time>2024-04-17T12:34:04Z</time>
      </trkpt>
      <trkpt lat="49.98422" lon="2.13298">
        <ele>76.2</ele>
        <time>2024-04-17T12:34:05Z</time>
      </trkpt>
      <trkpt lat="49.98422" lon="2.13298">
        <ele>76.2</ele>
        <time>2024-04-17T12:34:06Z</time>
      </trkpt>
      <trkpt lat="49.98422" lon="2.13298">
        <ele>76.2</ele>
        <time>2024-04-17T12:34:07Z</time>
      </trkpt>
      <trkpt lat="49.98422" lon="2.13298">
        <ele>76.2</ele>
        <time>2024-04-17T12:34:08Z</time>
      </trkpt>
      <trkpt lat="49.98422" lon="2.13298">
        <ele>76.2</ele>
        <time>2024-04-17T12:34:09Z</time>
      </trkpt>
      <trkpt lat="49.98422" lon="2.13298">
        <ele>76.2</ele>
        <time>2024-04-17T12:34:10Z</time>
      </trkpt>
      <trkpt lat="49.98422" lon="2.13298">
        <ele>76.2</ele>
        <time>2024-04-17T12:34:11Z</time>
      </trkpt>
      <trkpt lat="49.98422" lon="2.13298">
        <ele>76.2</ele>
        <time>2024-04-17T12:34:12Z</time>
      </trkpt>
      <trkpt lat="49.98422" lon="2.13298">
        <ele>76.2</ele>
        <time>2024-04-17T12:34:13Z</time>
      </trkpt>
      <trkpt lat="49.98422" lon="2.13298">
        <ele>76.2</ele>
        <time>2024-04-17T12:34:14Z</time>
      </trkpt>
      <trkpt lat="49.98422" lon="2.13298">
        <ele>76.2</ele>
        <time>2024-04-17T12:34:15Z</time>
      </trkpt>
      <trkpt lat="49.98422" lon="2.13298">
        <ele>76.2</ele>
        <time>2024-04-17T12:34:16Z</time>
      </trkpt>
      <trkpt lat="49.98422" lon="2.13298">
        <ele>76.2</ele>
        <time>2024-04-17T12:34:17Z</time>
      </trkpt>
      <trkpt lat="49.98422" lon="2.13298">
        <ele>76.2</ele>
        <time>2024-04-17T12:34:18Z</time>
      </trkpt>
      <trkpt lat="49.98422" lon="2.13298">
        <ele>76.2</ele>
        <time>2024-04-17T12:34:19Z</time>
      </trkpt>
      <trkpt lat="49.98422" lon="2.13298">
        <ele>76.2</ele>
        <time>2024-04-17T12:34:20Z</time>
      </trkpt>
      <trkpt lat="49.98422" lon="2.13298">
        <ele>76.2</ele>
        <time>2024-04-17T12:34:21Z</time>
      </trkpt>
      <trkpt lat="49.98422" lon="2.13298">
        <ele>76.2</ele>
        <time>2024-04-17T12:34:22Z</time>
      </trkpt>
      <trkpt lat="49.98421" lon="2.13298">
        <ele>76.2</ele>
        <time>2024-04-17T12:34:23Z</time>
      </trkpt>
      <trkpt lat="49.98421" lon="2.13298">
        <ele>76.2</ele>
        <time>2024-04-17T12:34:24Z</time>
      </trkpt>
      <trkpt lat="49.98421" lon="2.13298">
        <ele>76.2</ele>
        <time>2024-04-17T12:34:25Z</time>
      </trkpt>
      <trkpt lat="49.98421" lon="2.13298">
        <ele>76.2</ele>
        <time>2024-04-17T12:34:26Z</time>
      </trkpt>
      <trkpt lat="49.98421" lon="2.13298">
        <ele>76.2</ele>
        <time>2024-04-17T12:34:27Z</time>
      </trkpt>
      <trkpt lat="49.98421" lon="2.13298">
        <ele>76.2</ele>
        <time>2024-04-17T12:34:28Z</time>
      </trkpt>
      <trkpt lat="49.98421" lon="2.13298">
        <ele>76.2</ele>
        <time>2024-04-17T12:34:29Z</time>
      </trkpt>
      <trkpt lat="49.98421" lon="2.13298">
        <ele>76.2</ele>
        <time>2024-04-17T12:34:30Z</time>
      </trkpt>
      <trkpt lat="49.98421" lon="2.13298">
        <ele>76.2</ele>
        <time>2024-04-17T12:34:32Z</time>
      </trkpt>
      <trkpt lat="49.98421" lon="2.13298">
        <ele>76.2</ele>
        <time>2024-04-17T12:34:33Z</time>
      </trkpt>
      <trkpt lat="49.98421" lon="2.13298">
        <ele>76.2</ele>
        <time>2024-04-17T12:34:34Z</time>
      </trkpt>
      <trkpt lat="49.98421" lon="2.13297">
        <ele>76.2</ele>
        <time>2024-04-17T12:34:35Z</time>
      </trkpt>
      <trkpt lat="49.98422" lon="2.13295">
        <ele>76.1</ele>
        <time>2024-04-17T12:34:36Z</time>
      </trkpt>
      <trkpt lat="49.98423" lon="2.13294">
        <ele>76.1</ele>
        <time>2024-04-17T12:34:37Z</time>
      </trkpt>
      <trkpt lat="49.98423" lon="2.13292">
        <ele>76.1</ele>
        <time>2024-04-17T12:34:38Z</time>
      </trkpt>
      <trkpt lat="49.98423" lon="2.13291">
        <ele>76.1</ele>
        <time>2024-04-17T12:34:39Z</time>
      </trkpt>
      <trkpt lat="49.98423" lon="2.13289">
        <ele>76.1</ele>
        <time>2024-04-17T12:34:40Z</time>
      </trkpt>
      <trkpt lat="49.98424" lon="2.13288">
        <ele>76.1</ele>
        <time>2024-04-17T12:34:41Z</time>
      </trkpt>
      <trkpt lat="49.98424" lon="2.13287">
        <ele>76.1</ele>
        <time>2024-04-17T12:34:42Z</time>
      </trkpt>
      <trkpt lat="49.98424" lon="2.13285">
        <ele>76.1</ele>
        <time>2024-04-17T12:34:43Z</time>
      </trkpt>
      <trkpt lat="49.98424" lon="2.13283">
        <ele>76</ele>
        <time>2024-04-17T12:34:44Z</time>
      </trkpt>
      <trkpt lat="49.98424" lon="2.13281">
        <ele>76</ele>
        <time>2024-04-17T12:34:45Z</time>
      </trkpt>
      <trkpt lat="49.98424" lon="2.1328">
        <ele>76</ele>
        <time>2024-04-17T12:34:46Z</time>
      </trkpt>
      <trkpt lat="49.98424" lon="2.13278">
        <ele>76</ele>
        <time>2024-04-17T12:34:47Z</time>
      </trkpt>
      <trkpt lat="49.98424" lon="2.13276">
        <ele>76</ele>
        <time>2024-04-17T12:34:48Z</time>
      </trkpt>
      <trkpt lat="49.98424" lon="2.13276">
        <ele>76</ele>
        <time>2024-04-17T12:34:49Z</time>
      </trkpt>
      <trkpt lat="49.98424" lon="2.13274">
        <ele>76</ele>
        <time>2024-04-17T12:34:50Z</time>
      </trkpt>
      <trkpt lat="49.98424" lon="2.13273">
        <ele>76</ele>
        <time>2024-04-17T12:34:51Z</time>
      </trkpt>
      <trkpt lat="49.98423" lon="2.13273">
        <ele>75.9</ele>
        <time>2024-04-17T12:34:52Z</time>
      </trkpt>
      <trkpt lat="49.98423" lon="2.13271">
        <ele>75.9</ele>
        <time>2024-04-17T12:34:53Z</time>
      </trkpt>
      <trkpt lat="49.98423" lon="2.1327">
        <ele>75.9</ele>
        <time>2024-04-17T12:34:54Z</time>
      </trkpt>
      <trkpt lat="49.98423" lon="2.13269">
        <ele>75.9</ele>
        <time>2024-04-17T12:34:55Z</time>
      </trkpt>
      <trkpt lat="49.98422" lon="2.13267">
        <ele>75.9</ele>
        <time>2024-04-17T12:34:56Z</time>
      </trkpt>
      <trkpt lat="49.98422" lon="2.13265">
        <ele>75.9</ele>
        <time>2024-04-17T12:34:57Z</time>
      </trkpt>
      <trkpt lat="49.98422" lon="2.13264">
        <ele>75.9</ele>
        <time>2024-04-17T12:34:58Z</time>
      </trkpt>
      <trkpt lat="49.98421" lon="2.13263">
        <ele>75.9</ele>
        <time>2024-04-17T12:34:59Z</time>
      </trkpt>
      <trkpt lat="49.98421" lon="2.13262">
        <ele>75.9</ele>
        <time>2024-04-17T12:35:00Z</time>
      </trkpt>
      <trkpt lat="49.98421" lon="2.1326">
        <ele>75.8</ele>
        <time>2024-04-17T12:35:01Z</time>
      </trkpt>
      <trkpt lat="49.9842" lon="2.13257">
        <ele>75.8</ele>
        <time>2024-04-17T12:35:02Z</time>
      </trkpt>
      <trkpt lat="49.98419" lon="2.13256">
        <ele>75.8</ele>
        <time>2024-04-17T12:35:03Z</time>
      </trkpt>
      <trkpt lat="49.98419" lon="2.13255">
        <ele>75.8</ele>
        <time>2024-04-17T12:35:04Z</time>
      </trkpt>
      <trkpt lat="49.98418" lon="2.13254">
        <ele>75.8</ele>
        <time>2024-04-17T12:35:05Z</time>
      </trkpt>
      <trkpt lat="49.98417" lon="2.13252">
        <ele>75.8</ele>
        <time>2024-04-17T12:35:06Z</time>
      </trkpt>
      <trkpt lat="49.98417" lon="2.13251">
        <ele>75.7</ele>
        <time>2024-04-17T12:35:07Z</time>
      </trkpt>
      <trkpt lat="49.98416" lon="2.13249">
        <ele>75.7</ele>
        <time>2024-04-17T12:35:08Z</time>
      </trkpt>
      <trkpt lat="49.98415" lon="2.13248">
        <ele>75.7</ele>
        <time>2024-04-17T12:35:09Z</time>
      </trkpt>
      <trkpt lat="49.98415" lon="2.13246">
        <ele>75.7</ele>
        <time>2024-04-17T12:35:10Z</time>
      </trkpt>
      <trkpt lat="49.98414" lon="2.13245">
        <ele>75.7</ele>
        <time>2024-04-17T12:35:11Z</time>
      </trkpt>
      <trkpt lat="49.98414" lon="2.13244">
        <ele>75.7</ele>
        <time>2024-04-17T12:35:12Z</time>
      </trkpt>
      <trkpt lat="49.98413" lon="2.13243">
        <ele>75.7</ele>
        <time>2024-04-17T12:35:13Z</time>
      </trkpt>
      <trkpt lat="49.98413" lon="2.13241">
        <ele>75.6</ele>
        <time>2024-04-17T12:35:14Z</time>
      </trkpt>
      <trkpt lat="49.98412" lon="2.1324">
        <ele>75.6</ele>
        <time>2024-04-17T12:35:15Z</time>
      </trkpt>
      <trkpt lat="49.98412" lon="2.13239">
        <ele>75.6</ele>
        <time>2024-04-17T12:35:16Z</time>
      </trkpt>
      <trkpt lat="49.98411" lon="2.13237">
        <ele>75.6</ele>
        <time>2024-04-17T12:35:17Z</time>
      </trkpt>
      <trkpt lat="49.98411" lon="2.13236">
        <ele>75.6</ele>
        <time>2024-04-17T12:35:18Z</time>
      </trkpt>
      <trkpt lat="49.98411" lon="2.13235">
        <ele>75.6</ele>
        <time>2024-04-17T12:35:19Z</time>
      </trkpt>
      <trkpt lat="49.9841" lon="2.13233">
        <ele>75.6</ele>
        <time>2024-04-17T12:35:20Z</time>
      </trkpt>
      <trkpt lat="49.9841" lon="2.13232">
        <ele>75.6</ele>
        <time>2024-04-17T12:35:21Z</time>
      </trkpt>
      <trkpt lat="49.98409" lon="2.1323">
        <ele>75.5</ele>
        <time>2024-04-17T12:35:22Z</time>
      </trkpt>
      <trkpt lat="49.98409" lon="2.13229">
        <ele>75.5</ele>
        <time>2024-04-17T12:35:23Z</time>
      </trkpt>
      <trkpt lat="49.98409" lon="2.13227">
        <ele>75.5</ele>
        <time>2024-04-17T12:35:24Z</time>
      </trkpt>
      <trkpt lat="49.98408" lon="2.13226">
        <ele>75.5</ele>
        <time>2024-04-17T12:35:25Z</time>
      </trkpt>
      <trkpt lat="49.98408" lon="2.13223">
        <ele>75.5</ele>
        <time>2024-04-17T12:35:26Z</time>
      </trkpt>
      <trkpt lat="49.98407" lon="2.13222">
        <ele>75.5</ele>
        <time>2024-04-17T12:35:27Z</time>
      </trkpt>
      <trkpt lat="49.98407" lon="2.13221">
        <ele>75.5</ele>
        <time>2024-04-17T12:35:28Z</time>
      </trkpt>
      <trkpt lat="49.98407" lon="2.1322">
        <ele>75.5</ele>
        <time>2024-04-17T12:35:29Z</time>
      </trkpt>
      <trkpt lat="49.98406" lon="2.13219">
        <ele>75.4</ele>
        <time>2024-04-17T12:35:30Z</time>
      </trkpt>
      <trkpt lat="49.98406" lon="2.13218">
        <ele>75.4</ele>
        <time>2024-04-17T12:35:31Z</time>
      </trkpt>
      <trkpt lat="49.98405" lon="2.13216">
        <ele>75.4</ele>
        <time>2024-04-17T12:35:32Z</time>
      </trkpt>
      <trkpt lat="49.98405" lon="2.13215">
        <ele>75.4</ele>
        <time>2024-04-17T12:35:33Z</time>
      </trkpt>
      <trkpt lat="49.98404" lon="2.13213">
        <ele>75.4</ele>
        <time>2024-04-17T12:35:34Z</time>
      </trkpt>
      <trkpt lat="49.98404" lon="2.13211">
        <ele>75.4</ele>
        <time>2024-04-17T12:35:35Z</time>
      </trkpt>
      <trkpt lat="49.98403" lon="2.1321">
        <ele>75.4</ele>
        <time>2024-04-17T12:35:36Z</time>
      </trkpt>
      <trkpt lat="49.98403" lon="2.13208">
        <ele>75.3</ele>
        <time>2024-04-17T12:35:37Z</time>
      </trkpt>
      <trkpt lat="49.98402" lon="2.13207">
        <ele>75.3</ele>
        <time>2024-04-17T12:35:38Z</time>
      </trkpt>
      <trkpt lat="49.98402" lon="2.13205">
        <ele>75.3</ele>
        <time>2024-04-17T12:35:39Z</time>
      </trkpt>
      <trkpt lat="49.98401" lon="2.13204">
        <ele>75.3</ele>
        <time>2024-04-17T12:35:40Z</time>
      </trkpt>
      <trkpt lat="49.98401" lon="2.13203">
        <ele>75.3</ele>
        <time>2024-04-17T12:35:41Z</time>
      </trkpt>
      <trkpt lat="49.984" lon="2.13201">
        <ele>75.3</ele>
        <time>2024-04-17T12:35:42Z</time>
      </trkpt>
      <trkpt lat="49.984" lon="2.132">
        <ele>75.3</ele>
        <time>2024-04-17T12:35:43Z</time>
      </trkpt>
      <trkpt lat="49.98399" lon="2.13198">
        <ele>75.2</ele>
        <time>2024-04-17T12:35:44Z</time>
      </trkpt>
      <trkpt lat="49.98398" lon="2.13197">
        <ele>75.2</ele>
        <time>2024-04-17T12:35:45Z</time>
      </trkpt>
      <trkpt lat="49.98398" lon="2.13195">
        <ele>75.2</ele>
        <time>2024-04-17T12:35:46Z</time>
      </trkpt>
      <trkpt lat="49.98397" lon="2.13193">
        <ele>75.2</ele>
        <time>2024-04-17T12:35:47Z</time>
      </trkpt>
      <trkpt lat="49.98397" lon="2.13192">
        <ele>75.2</ele>
        <time>2024-04-17T12:35:48Z</time>
      </trkpt>
      <trkpt lat="49.98396" lon="2.1319">
        <ele>75.2</ele>
        <time>2024-04-17T12:35:49Z</time>
      </trkpt>
      <trkpt lat="49.98395" lon="2.13189">
        <ele>75.2</ele>
        <time>2024-04-17T12:35:50Z</time>
      </trkpt>
      <trkpt lat="49.98395" lon="2.13188">
        <ele>75.1</ele>
        <time>2024-04-17T12:35:51Z</time>
      </trkpt>
      <trkpt lat="49.98394" lon="2.13186">
        <ele>75.1</ele>
        <time>2024-04-17T12:35:52Z</time>
      </trkpt>
      <trkpt lat="49.98394" lon="2.13185">
        <ele>75.1</ele>
        <time>2024-04-17T12:35:53Z</time>
      </trkpt>
      <trkpt lat="49.98393" lon="2.13183">
        <ele>75.1</ele>
        <time>2024-04-17T12:35:54Z</time>
      </trkpt>
      <trkpt lat="49.98393" lon="2.13182">
        <ele>75.1</ele>
        <time>2024-04-17T12:35:55Z</time>
      </trkpt>
      <trkpt lat="49.98392" lon="2.13181">
        <ele>75.1</ele>
        <time>2024-04-17T12:35:56Z</time>
      </trkpt>
      <trkpt lat="49.98392" lon="2.13179">
        <ele>75.1</ele>
        <time>2024-04-17T12:35:57Z</time>
      </trkpt>
      <trkpt lat="49.98391" lon="2.13178">
        <ele>75.1</ele>
        <time>2024-04-17T12:35:58Z</time>
      </trkpt>
      <trkpt lat="49.98392" lon="2.13177">
        <ele>75</ele>
        <time>2024-04-17T12:35:59Z</time>
      </trkpt>
      <trkpt lat="49.98391" lon="2.13175">
        <ele>75</ele>
        <time>2024-04-17T12:36:00Z</time>
      </trkpt>
      <trkpt lat="49.98391" lon="2.13173">
        <ele>75</ele>
        <time>2024-04-17T12:36:01Z</time>
      </trkpt>
      <trkpt lat="49.9839" lon="2.13172">
        <ele>75</ele>
        <time>2024-04-17T12:36:02Z</time>
      </trkpt>
      <trkpt lat="49.9839" lon="2.13171">
        <ele>75</ele>
        <time>2024-04-17T12:36:03Z</time>
      </trkpt>
      <trkpt lat="49.9839" lon="2.1317">
        <ele>75</ele>
        <time>2024-04-17T12:36:04Z</time>
      </trkpt>
      <trkpt lat="49.98389" lon="2.13168">
        <ele>75</ele>
        <time>2024-04-17T12:36:05Z</time>
      </trkpt>
      <trkpt lat="49.98389" lon="2.13167">
        <ele>75</ele>
        <time>2024-04-17T12:36:06Z</time>
      </trkpt>
      <trkpt lat="49.98388" lon="2.13166">
        <ele>74.9</ele>
        <time>2024-04-17T12:36:07Z</time>
      </trkpt>
      <trkpt lat="49.98388" lon="2.13164">
        <ele>74.9</ele>
        <time>2024-04-17T12:36:08Z</time>
      </trkpt>
      <trkpt lat="49.98387" lon="2.13163">
        <ele>74.9</ele>
        <time>2024-04-17T12:36:09Z</time>
      </trkpt>
      <trkpt lat="49.98386" lon="2.13162">
        <ele>74.9</ele>
        <time>2024-04-17T12:36:10Z</time>
      </trkpt>
      <trkpt lat="49.98386" lon="2.13161">
        <ele>74.9</ele>
        <time>2024-04-17T12:36:11Z</time>
      </trkpt>
      <trkpt lat="49.98385" lon="2.13159">
        <ele>74.9</ele>
        <time>2024-04-17T12:36:12Z</time>
      </trkpt>
      <trkpt lat="49.98384" lon="2.13158">
        <ele>74.9</ele>
        <time>2024-04-17T12:36:13Z</time>
      </trkpt>
      <trkpt lat="49.98383" lon="2.13157">
        <ele>74.8</ele>
        <time>2024-04-17T12:36:14Z</time>
      </trkpt>
      <trkpt lat="49.98383" lon="2.13155">
        <ele>74.8</ele>
        <time>2024-04-17T12:36:15Z</time>
      </trkpt>
      <trkpt lat="49.98382" lon="2.13154">
        <ele>74.8</ele>
        <time>2024-04-17T12:36:16Z</time>
      </trkpt>
      <trkpt lat="49.98381" lon="2.13153">
        <ele>74.8</ele>
        <time>2024-04-17T12:36:17Z</time>
      </trkpt>
      <trkpt lat="49.9838" lon="2.13151">
        <ele>74.8</ele>
        <time>2024-04-17T12:36:18Z</time>
      </trkpt>
      <trkpt lat="49.9838" lon="2.1315">
        <ele>74.8</ele>
        <time>2024-04-17T12:36:19Z</time>
      </trkpt>
      <trkpt lat="49.98379" lon="2.13149">
        <ele>74.8</ele>
        <time>2024-04-17T12:36:20Z</time>
      </trkpt>
      <trkpt lat="49.98378" lon="2.13148">
        <ele>74.7</ele>
        <time>2024-04-17T12:36:21Z</time>
      </trkpt>
      <trkpt lat="49.98378" lon="2.13146">
        <ele>74.7</ele>
        <time>2024-04-17T12:36:22Z</time>
      </trkpt>
      <trkpt lat="49.98377" lon="2.13145">
        <ele>74.7</ele>
        <time>2024-04-17T12:36:23Z</time>
      </trkpt>
      <trkpt lat="49.98376" lon="2.13143">
        <ele>74.7</ele>
        <time>2024-04-17T12:36:24Z</time>
      </trkpt>
      <trkpt lat="49.98376" lon="2.13142">
        <ele>74.7</ele>
        <time>2024-04-17T12:36:25Z</time>
      </trkpt>
      <trkpt lat="49.98375" lon="2.1314">
        <ele>74.7</ele>
        <time>2024-04-17T12:36:26Z</time>
      </trkpt>
      <trkpt lat="49.98375" lon="2.13139">
        <ele>74.7</ele>
        <time>2024-04-17T12:36:27Z</time>
      </trkpt>
      <trkpt lat="49.98374" lon="2.13137">
        <ele>74.6</ele>
        <time>2024-04-17T12:36:28Z</time>
      </trkpt>
      <trkpt lat="49.98374" lon="2.13136">
        <ele>74.6</ele>
        <time>2024-04-17T12:36:29Z</time>
      </trkpt>
      <trkpt lat="49.98373" lon="2.13134">
        <ele>74.6</ele>
        <time>2024-04-17T12:36:30Z</time>
      </trkpt>
      <trkpt lat="49.98373" lon="2.13133">
        <ele>74.6</ele>
        <time>2024-04-17T12:36:31Z</time>
      </trkpt>
      <trkpt lat="49.98372" lon="2.13131">
        <ele>74.6</ele>
        <time>2024-04-17T12:36:32Z</time>
      </trkpt>
      <trkpt lat="49.98372" lon="2.1313">
        <ele>74.6</ele>
        <time>2024-04-17T12:36:33Z</time>
      </trkpt>
      <trkpt lat="49.98371" lon="2.13129">
        <ele>74.6</ele>
        <time>2024-04-17T12:36:34Z</time>
      </trkpt>
      <trkpt lat="49.98371" lon="2.13128">
        <ele>74.6</ele>
        <time>2024-04-17T12:36:35Z</time>
      </trkpt>
      <trkpt lat="49.9837" lon="2.13127">
        <ele>74.5</ele>
        <time>2024-04-17T12:36:36Z</time>
      </trkpt>
      <trkpt lat="49.98369" lon="2.13125">
        <ele>74.5</ele>
        <time>2024-04-17T12:36:37Z</time>
      </trkpt>
      <trkpt lat="49.98369" lon="2.13124">
        <ele>74.5</ele>
        <time>2024-04-17T12:36:38Z</time>
      </trkpt>
      <trkpt lat="49.98369" lon="2.13122">
        <ele>74.5</ele>
        <time>2024-04-17T12:36:39Z</time>
      </trkpt>
      <trkpt lat="49.98368" lon="2.13121">
        <ele>74.5</ele>
        <time>2024-04-17T12:36:40Z</time>
      </trkpt>
      <trkpt lat="49.98368" lon="2.13119">
        <ele>74.5</ele>
        <time>2024-04-17T12:36:41Z</time>
      </trkpt>
      <trkpt lat="49.98367" lon="2.13118">
        <ele>74.5</ele>
        <time>2024-04-17T12:36:42Z</time>
      </trkpt>
      <trkpt lat="49.98367" lon="2.13117">
        <ele>74.4</ele>
        <time>2024-04-17T12:36:43Z</time>
      </trkpt>
      <trkpt lat="49.98366" lon="2.13115">
        <ele>74.4</ele>
        <time>2024-04-17T12:36:44Z</time>
      </trkpt>
      <trkpt lat="49.98366" lon="2.13114">
        <ele>74.4</ele>
        <time>2024-04-17T12:36:45Z</time>
      </trkpt>
      <trkpt lat="49.98365" lon="2.13113">
        <ele>74.4</ele>
        <time>2024-04-17T12:36:46Z</time>
      </trkpt>
      <trkpt lat="49.98365" lon="2.13111">
        <ele>74.4</ele>
        <time>2024-04-17T12:36:47Z</time>
      </trkpt>
      <trkpt lat="49.98364" lon="2.1311">
        <ele>74.4</ele>
        <time>2024-04-17T12:36:48Z</time>
      </trkpt>
      <trkpt lat="49.98364" lon="2.13109">
        <ele>74.4</ele>
        <time>2024-04-17T12:36:49Z</time>
      </trkpt>
      <trkpt lat="49.98363" lon="2.13108">
        <ele>74.4</ele>
        <time>2024-04-17T12:36:50Z</time>
      </trkpt>
      <trkpt lat="49.98363" lon="2.13106">
        <ele>74.3</ele>
        <time>2024-04-17T12:36:51Z</time>
      </trkpt>
      <trkpt lat="49.98362" lon="2.13105">
        <ele>74.3</ele>
        <time>2024-04-17T12:36:52Z</time>
      </trkpt>
      <trkpt lat="49.98361" lon="2.13103">
        <ele>74.3</ele>
        <time>2024-04-17T12:36:53Z</time>
      </trkpt>
      <trkpt lat="49.98361" lon="2.13102">
        <ele>74.3</ele>
        <time>2024-04-17T12:36:54Z</time>
      </trkpt>
      <trkpt lat="49.9836" lon="2.13101">
        <ele>74.3</ele>
        <time>2024-04-17T12:36:55Z</time>
      </trkpt>
      <trkpt lat="49.9836" lon="2.13099">
        <ele>74.3</ele>
        <time>2024-04-17T12:36:56Z</time>
      </trkpt>
      <trkpt lat="49.98359" lon="2.13098">
        <ele>74.3</ele>
        <time>2024-04-17T12:36:57Z</time>
      </trkpt>
      <trkpt lat="49.98358" lon="2.13096">
        <ele>74.2</ele>
        <time>2024-04-17T12:36:58Z</time>
      </trkpt>
      <trkpt lat="49.98357" lon="2.13094">
        <ele>74.2</ele>
        <time>2024-04-17T12:36:59Z</time>
      </trkpt>
      <trkpt lat="49.98357" lon="2.13093">
        <ele>74.2</ele>
        <time>2024-04-17T12:37:00Z</time>
      </trkpt>
      <trkpt lat="49.98356" lon="2.13092">
        <ele>74.2</ele>
        <time>2024-04-17T12:37:01Z</time>
      </trkpt>
      <trkpt lat="49.98355" lon="2.1309">
        <ele>74.2</ele>
        <time>2024-04-17T12:37:02Z</time>
      </trkpt>
      <trkpt lat="49.98354" lon="2.13089">
        <ele>74.2</ele>
        <time>2024-04-17T12:37:03Z</time>
      </trkpt>
      <trkpt lat="49.98354" lon="2.13088">
        <ele>74.2</ele>
        <time>2024-04-17T12:37:04Z</time>
      </trkpt>
      <trkpt lat="49.98353" lon="2.13086">
        <ele>74.1</ele>
        <time>2024-04-17T12:37:05Z</time>
      </trkpt>
      <trkpt lat="49.98352" lon="2.13085">
        <ele>74.1</ele>
        <time>2024-04-17T12:37:06Z</time>
      </trkpt>
      <trkpt lat="49.98352" lon="2.13083">
        <ele>74.1</ele>
        <time>2024-04-17T12:37:07Z</time>
      </trkpt>
      <trkpt lat="49.98351" lon="2.13082">
        <ele>74.1</ele>
        <time>2024-04-17T12:37:08Z</time>
      </trkpt>
      <trkpt lat="49.98351" lon="2.1308">
        <ele>74.1</ele>
        <time>2024-04-17T12:37:09Z</time>
      </trkpt>
      <trkpt lat="49.9835" lon="2.13079">
        <ele>74.1</ele>
        <time>2024-04-17T12:37:10Z</time>
      </trkpt>
      <trkpt lat="49.9835" lon="2.13078">
        <ele>74.1</ele>
        <time>2024-04-17T12:37:11Z</time>
      </trkpt>
      <trkpt lat="49.98349" lon="2.13077">
        <ele>74</ele>
        <time>2024-04-17T12:37:12Z</time>
      </trkpt>
      <trkpt lat="49.98348" lon="2.13075">
        <ele>74</ele>
        <time>2024-04-17T12:37:13Z</time>
      </trkpt>
      <trkpt lat="49.98348" lon="2.13074">
        <ele>74</ele>
        <time>2024-04-17T12:37:14Z</time>
      </trkpt>
      <trkpt lat="49.98347" lon="2.13073">
        <ele>74</ele>
        <time>2024-04-17T12:37:15Z</time>
      </trkpt>
      <trkpt lat="49.98347" lon="2.13071">
        <ele>74</ele>
        <time>2024-04-17T12:37:16Z</time>
      </trkpt>
      <trkpt lat="49.98346" lon="2.1307">
        <ele>74</ele>
        <time>2024-04-17T12:37:17Z</time>
      </trkpt>
      <trkpt lat="49.98346" lon="2.13069">
        <ele>74</ele>
        <time>2024-04-17T12:37:18Z</time>
      </trkpt>
      <trkpt lat="49.98345" lon="2.13068">
        <ele>74</ele>
        <time>2024-04-17T12:37:19Z</time>
      </trkpt>
      <trkpt lat="49.98345" lon="2.13067">
        <ele>73.9</ele>
        <time>2024-04-17T12:37:20Z</time>
      </trkpt>
      <trkpt lat="49.98344" lon="2.13065">
        <ele>73.9</ele>
        <time>2024-04-17T12:37:21Z</time>
      </trkpt>
      <trkpt lat="49.98344" lon="2.13064">
        <ele>73.9</ele>
        <time>2024-04-17T12:37:22Z</time>
      </trkpt>
      <trkpt lat="49.98343" lon="2.13062">
        <ele>73.9</ele>
        <time>2024-04-17T12:37:23Z</time>
      </trkpt>
      <trkpt lat="49.98343" lon="2.13061">
        <ele>73.9</ele>
        <time>2024-04-17T12:37:24Z</time>
      </trkpt>
      <trkpt lat="49.98343" lon="2.13059">
        <ele>73.9</ele>
        <time>2024-04-17T12:37:25Z</time>
      </trkpt>
      <trkpt lat="49.98342" lon="2.13058">
        <ele>73.9</ele>
        <time>2024-04-17T12:37:26Z</time>
      </trkpt>
      <trkpt lat="49.98342" lon="2.13056">
        <ele>73.8</ele>
        <time>2024-04-17T12:37:27Z</time>
      </trkpt>
      <trkpt lat="49.98341" lon="2.13055">
        <ele>73.8</ele>
        <time>2024-04-17T12:37:28Z</time>
      </trkpt>
      <trkpt lat="49.98341" lon="2.13053">
        <ele>73.8</ele>
        <time>2024-04-17T12:37:29Z</time>
      </trkpt>
      <trkpt lat="49.9834" lon="2.13052">
        <ele>73.8</ele>
        <time>2024-04-17T12:37:30Z</time>
      </trkpt>
      <trkpt lat="49.9834" lon="2.1305">
        <ele>73.8</ele>
        <time>2024-04-17T12:37:31Z</time>
      </trkpt>
      <trkpt lat="49.98339" lon="2.13049">
        <ele>73.8</ele>
        <time>2024-04-17T12:37:32Z</time>
      </trkpt>
      <trkpt lat="49.98339" lon="2.13048">
        <ele>73.8</ele>
        <time>2024-04-17T12:37:33Z</time>
      </trkpt>
      <trkpt lat="49.98338" lon="2.13046">
        <ele>73.8</ele>
        <time>2024-04-17T12:37:34Z</time>
      </trkpt>
      <trkpt lat="49.98338" lon="2.13044">
        <ele>73.7</ele>
        <time>2024-04-17T12:37:35Z</time>
      </trkpt>
      <trkpt lat="49.98337" lon="2.13041">
        <ele>73.7</ele>
        <time>2024-04-17T12:37:36Z</time>
      </trkpt>
      <trkpt lat="49.98337" lon="2.1304">
        <ele>73.7</ele>
        <time>2024-04-17T12:37:37Z</time>
      </trkpt>
      <trkpt lat="49.98336" lon="2.13039">
        <ele>73.7</ele>
        <time>2024-04-17T12:37:38Z</time>
      </trkpt>
      <trkpt lat="49.98336" lon="2.13038">
        <ele>73.7</ele>
        <time>2024-04-17T12:37:39Z</time>
      </trkpt>
      <trkpt lat="49.98335" lon="2.13036">
        <ele>73.7</ele>
        <time>2024-04-17T12:37:40Z</time>
      </trkpt>
      <trkpt lat="49.98334" lon="2.13035">
        <ele>73.6</ele>
        <time>2024-04-17T12:37:41Z</time>
      </trkpt>
      <trkpt lat="49.98334" lon="2.13033">
        <ele>73.6</ele>
        <time>2024-04-17T12:37:42Z</time>
      </trkpt>
      <trkpt lat="49.98333" lon="2.13032">
        <ele>73.6</ele>
        <time>2024-04-17T12:37:43Z</time>
      </trkpt>
      <trkpt lat="49.98332" lon="2.1303">
        <ele>73.6</ele>
        <time>2024-04-17T12:37:44Z</time>
      </trkpt>
      <trkpt lat="49.98332" lon="2.13028">
        <ele>73.6</ele>
        <time>2024-04-17T12:37:45Z</time>
      </trkpt>
      <trkpt lat="49.98332" lon="2.13027">
        <ele>73.6</ele>
        <time>2024-04-17T12:37:46Z</time>
      </trkpt>
      <trkpt lat="49.98331" lon="2.13025">
        <ele>73.6</ele>
        <time>2024-04-17T12:37:47Z</time>
      </trkpt>
      <trkpt lat="49.98331" lon="2.13024">
        <ele>73.5</ele>
        <time>2024-04-17T12:37:48Z</time>
      </trkpt>
      <trkpt lat="49.9833" lon="2.13022">
        <ele>73.5</ele>
        <time>2024-04-17T12:37:49Z</time>
      </trkpt>
      <trkpt lat="49.9833" lon="2.1302">
        <ele>73.5</ele>
        <time>2024-04-17T12:37:50Z</time>
      </trkpt>
      <trkpt lat="49.98329" lon="2.13019">
        <ele>73.5</ele>
        <time>2024-04-17T12:37:51Z</time>
      </trkpt>
      <trkpt lat="49.98329" lon="2.13017">
        <ele>73.5</ele>
        <time>2024-04-17T12:37:52Z</time>
      </trkpt>
      <trkpt lat="49.98329" lon="2.13016">
        <ele>73.5</ele>
        <time>2024-04-17T12:37:53Z</time>
      </trkpt>
      <trkpt lat="49.98328" lon="2.13015">
        <ele>73.5</ele>
        <time>2024-04-17T12:37:54Z</time>
      </trkpt>
      <trkpt lat="49.98328" lon="2.13013">
        <ele>73.4</ele>
        <time>2024-04-17T12:37:55Z</time>
      </trkpt>
      <trkpt lat="49.98327" lon="2.13012">
        <ele>73.4</ele>
        <time>2024-04-17T12:37:56Z</time>
      </trkpt>
      <trkpt lat="49.98327" lon="2.1301">
        <ele>73.4</ele>
        <time>2024-04-17T12:37:57Z</time>
      </trkpt>
      <trkpt lat="49.98326" lon="2.13008">
        <ele>73.4</ele>
        <time>2024-04-17T12:37:58Z</time>
      </trkpt>
      <trkpt lat="49.98326" lon="2.13007">
        <ele>73.4</ele>
        <time>2024-04-17T12:37:59Z</time>
      </trkpt>
      <trkpt lat="49.98325" lon="2.13006">
        <ele>73.4</ele>
        <time>2024-04-17T12:38:00Z</time>
      </trkpt>
      <trkpt lat="49.98325" lon="2.13004">
        <ele>73.4</ele>
        <time>2024-04-17T12:38:01Z</time>
      </trkpt>
      <trkpt lat="49.98324" lon="2.13003">
        <ele>73.4</ele>
        <time>2024-04-17T12:38:02Z</time>
      </trkpt>
      <trkpt lat="49.98323" lon="2.13">
        <ele>73.3</ele>
        <time>2024-04-17T12:38:03Z</time>
      </trkpt>
      <trkpt lat="49.98323" lon="2.12999">
        <ele>73.3</ele>
        <time>2024-04-17T12:38:04Z</time>
      </trkpt>
      <trkpt lat="49.98323" lon="2.12998">
        <ele>73.3</ele>
        <time>2024-04-17T12:38:05Z</time>
      </trkpt>
      <trkpt lat="49.98322" lon="2.12995">
        <ele>73.3</ele>
        <time>2024-04-17T12:38:06Z</time>
      </trkpt>
      <trkpt lat="49.98321" lon="2.12994">
        <ele>73.3</ele>
        <time>2024-04-17T12:38:07Z</time>
      </trkpt>
      <trkpt lat="49.98321" lon="2.12992">
        <ele>73.3</ele>
        <time>2024-04-17T12:38:08Z</time>
      </trkpt>
      <trkpt lat="49.9832" lon="2.12991">
        <ele>73.2</ele>
        <time>2024-04-17T12:38:09Z</time>
      </trkpt>
      <trkpt lat="49.9832" lon="2.12989">
        <ele>73.2</ele>
        <time>2024-04-17T12:38:10Z</time>
      </trkpt>
      <trkpt lat="49.98319" lon="2.12988">
        <ele>73.2</ele>
        <time>2024-04-17T12:38:11Z</time>
      </trkpt>
      <trkpt lat="49.98319" lon="2.12986">
        <ele>73.2</ele>
        <time>2024-04-17T12:38:12Z</time>
      </trkpt>
      <trkpt lat="49.98318" lon="2.12985">
        <ele>73.2</ele>
        <time>2024-04-17T12:38:13Z</time>
      </trkpt>
      <trkpt lat="49.98318" lon="2.12983">
        <ele>73.2</ele>
        <time>2024-04-17T12:38:14Z</time>
      </trkpt>
      <trkpt lat="49.98317" lon="2.12982">
        <ele>73.2</ele>
        <time>2024-04-17T12:38:15Z</time>
      </trkpt>
      <trkpt lat="49.98316" lon="2.12981">
        <ele>73.1</ele>
        <time>2024-04-17T12:38:16Z</time>
      </trkpt>
      <trkpt lat="49.98316" lon="2.12979">
        <ele>73.1</ele>
        <time>2024-04-17T12:38:17Z</time>
      </trkpt>
      <trkpt lat="49.98315" lon="2.12977">
        <ele>73.1</ele>
        <time>2024-04-17T12:38:18Z</time>
      </trkpt>
      <trkpt lat="49.98315" lon="2.12976">
        <ele>73.1</ele>
        <time>2024-04-17T12:38:19Z</time>
      </trkpt>
      <trkpt lat="49.98314" lon="2.12974">
        <ele>73.1</ele>
        <time>2024-04-17T12:38:20Z</time>
      </trkpt>
      <trkpt lat="49.98314" lon="2.12973">
        <ele>73.1</ele>
        <time>2024-04-17T12:38:21Z</time>
      </trkpt>
      <trkpt lat="49.98313" lon="2.12971">
        <ele>73.1</ele>
        <time>2024-04-17T12:38:22Z</time>
      </trkpt>
      <trkpt lat="49.98313" lon="2.12969">
        <ele>73</ele>
        <time>2024-04-17T12:38:23Z</time>
      </trkpt>
      <trkpt lat="49.98312" lon="2.12968">
        <ele>73</ele>
        <time>2024-04-17T12:38:24Z</time>
      </trkpt>
      <trkpt lat="49.98312" lon="2.12966">
        <ele>73</ele>
        <time>2024-04-17T12:38:25Z</time>
      </trkpt>
      <trkpt lat="49.98311" lon="2.12965">
        <ele>73</ele>
        <time>2024-04-17T12:38:26Z</time>
      </trkpt>
      <trkpt lat="49.98311" lon="2.12963">
        <ele>73</ele>
        <time>2024-04-17T12:38:27Z</time>
      </trkpt>
      <trkpt lat="49.9831" lon="2.12961">
        <ele>73</ele>
        <time>2024-04-17T12:38:28Z</time>
      </trkpt>
      <trkpt lat="49.9831" lon="2.1296">
        <ele>73</ele>
        <time>2024-04-17T12:38:29Z</time>
      </trkpt>
      <trkpt lat="49.98309" lon="2.12957">
        <ele>72.9</ele>
        <time>2024-04-17T12:38:30Z</time>
      </trkpt>
      <trkpt lat="49.98309" lon="2.12956">
        <ele>72.9</ele>
        <time>2024-04-17T12:38:31Z</time>
      </trkpt>
      <trkpt lat="49.98308" lon="2.12955">
        <ele>72.9</ele>
        <time>2024-04-17T12:38:32Z</time>
      </trkpt>
      <trkpt lat="49.98308" lon="2.12952">
        <ele>72.9</ele>
        <time>2024-04-17T12:38:33Z</time>
      </trkpt>
      <trkpt lat="49.98307" lon="2.12951">
        <ele>72.9</ele>
        <time>2024-04-17T12:38:34Z</time>
      </trkpt>
      <trkpt lat="49.98306" lon="2.12948">
        <ele>72.8</ele>
        <time>2024-04-17T12:38:35Z</time>
      </trkpt>
      <trkpt lat="49.98305" lon="2.12947">
        <ele>72.8</ele>
        <time>2024-04-17T12:38:36Z</time>
      </trkpt>
      <trkpt lat="49.98305" lon="2.12946">
        <ele>72.8</ele>
        <time>2024-04-17T12:38:37Z</time>
      </trkpt>
      <trkpt lat="49.98304" lon="2.12943">
        <ele>72.8</ele>
        <time>2024-04-17T12:38:39Z</time>
      </trkpt>
      <trkpt lat="49.98304" lon="2.12942">
        <ele>72.8</ele>
        <time>2024-04-17T12:38:40Z</time>
      </trkpt>
      <trkpt lat="49.98303" lon="2.12941">
        <ele>72.8</ele>
        <time>2024-04-17T12:38:41Z</time>
      </trkpt>
      <trkpt lat="49.98302" lon="2.12938">
        <ele>72.7</ele>
        <time>2024-04-17T12:38:42Z</time>
      </trkpt>
      <trkpt lat="49.98302" lon="2.12937">
        <ele>72.7</ele>
        <time>2024-04-17T12:38:43Z</time>
      </trkpt>
      <trkpt lat="49.98302" lon="2.12936">
        <ele>72.7</ele>
        <time>2024-04-17T12:38:44Z</time>
      </trkpt>
      <trkpt lat="49.98301" lon="2.12934">
        <ele>72.7</ele>
        <time>2024-04-17T12:38:45Z</time>
      </trkpt>
      <trkpt lat="49.983" lon="2.12933">
        <ele>72.7</ele>
        <time>2024-04-17T12:38:46Z</time>
      </trkpt>
      <trkpt lat="49.983" lon="2.12931">
        <ele>72.7</ele>
        <time>2024-04-17T12:38:47Z</time>
      </trkpt>
      <trkpt lat="49.983" lon="2.12929">
        <ele>72.7</ele>
        <time>2024-04-17T12:38:48Z</time>
      </trkpt>
      <trkpt lat="49.98299" lon="2.12928">
        <ele>72.7</ele>
        <time>2024-04-17T12:38:49Z</time>
      </trkpt>
      <trkpt lat="49.98299" lon="2.12927">
        <ele>72.6</ele>
        <time>2024-04-17T12:38:50Z</time>
      </trkpt>
      <trkpt lat="49.98299" lon="2.12925">
        <ele>72.6</ele>
        <time>2024-04-17T12:38:51Z</time>
      </trkpt>
      <trkpt lat="49.98298" lon="2.12924">
        <ele>72.6</ele>
        <time>2024-04-17T12:38:52Z</time>
      </trkpt>
      <trkpt lat="49.98298" lon="2.12922">
        <ele>72.6</ele>
        <time>2024-04-17T12:38:53Z</time>
      </trkpt>
      <trkpt lat="49.98297" lon="2.12921">
        <ele>72.6</ele>
        <time>2024-04-17T12:38:54Z</time>
      </trkpt>
      <trkpt lat="49.98297" lon="2.12919">
        <ele>72.6</ele>
        <time>2024-04-17T12:38:55Z</time>
      </trkpt>
      <trkpt lat="49.98296" lon="2.12918">
        <ele>72.6</ele>
        <time>2024-04-17T12:38:56Z</time>
      </trkpt>
      <trkpt lat="49.98295" lon="2.12916">
        <ele>72.5</ele>
        <time>2024-04-17T12:38:57Z</time>
      </trkpt>
      <trkpt lat="49.98295" lon="2.12915">
        <ele>72.5</ele>
        <time>2024-04-17T12:38:58Z</time>
      </trkpt>
      <trkpt lat="49.98294" lon="2.12913">
        <ele>72.5</ele>
        <time>2024-04-17T12:38:59Z</time>
      </trkpt>
      <trkpt lat="49.98293" lon="2.12912">
        <ele>72.5</ele>
        <time>2024-04-17T12:39:00Z</time>
      </trkpt>
      <trkpt lat="49.98293" lon="2.12911">
        <ele>72.5</ele>
        <time>2024-04-17T12:39:01Z</time>
      </trkpt>
      <trkpt lat="49.98292" lon="2.1291">
        <ele>72.5</ele>
        <time>2024-04-17T12:39:02Z</time>
      </trkpt>
      <trkpt lat="49.98291" lon="2.12908">
        <ele>72.5</ele>
        <time>2024-04-17T12:39:03Z</time>
      </trkpt>
      <trkpt lat="49.98291" lon="2.12907">
        <ele>72.4</ele>
        <time>2024-04-17T12:39:04Z</time>
      </trkpt>
      <trkpt lat="49.9829" lon="2.12905">
        <ele>72.4</ele>
        <time>2024-04-17T12:39:05Z</time>
      </trkpt>
      <trkpt lat="49.9829" lon="2.12904">
        <ele>72.4</ele>
        <time>2024-04-17T12:39:06Z</time>
      </trkpt>
      <trkpt lat="49.98289" lon="2.12903">
        <ele>72.4</ele>
        <time>2024-04-17T12:39:07Z</time>
      </trkpt>
      <trkpt lat="49.98289" lon="2.12901">
        <ele>72.4</ele>
        <time>2024-04-17T12:39:08Z</time>
      </trkpt>
      <trkpt lat="49.98288" lon="2.129">
        <ele>72.4</ele>
        <time>2024-04-17T12:39:09Z</time>
      </trkpt>
      <trkpt lat="49.98288" lon="2.12898">
        <ele>72.4</ele>
        <time>2024-04-17T12:39:10Z</time>
      </trkpt>
      <trkpt lat="49.98288" lon="2.12897">
        <ele>72.4</ele>
        <time>2024-04-17T12:39:11Z</time>
      </trkpt>
      <trkpt lat="49.98287" lon="2.12896">
        <ele>72.3</ele>
        <time>2024-04-17T12:39:12Z</time>
      </trkpt>
      <trkpt lat="49.98287" lon="2.12894">
        <ele>72.3</ele>
        <time>2024-04-17T12:39:13Z</time>
      </trkpt>
      <trkpt lat="49.98286" lon="2.12893">
        <ele>72.3</ele>
        <time>2024-04-17T12:39:14Z</time>
      </trkpt>
      <trkpt lat="49.98286" lon="2.12891">
        <ele>72.3</ele>
        <time>2024-04-17T12:39:15Z</time>
      </trkpt>
      <trkpt lat="49.98286" lon="2.1289">
        <ele>72.3</ele>
        <time>2024-04-17T12:39:16Z</time>
      </trkpt>
      <trkpt lat="49.98285" lon="2.12888">
        <ele>72.3</ele>
        <time>2024-04-17T12:39:17Z</time>
      </trkpt>
      <trkpt lat="49.98285" lon="2.12886">
        <ele>72.3</ele>
        <time>2024-04-17T12:39:18Z</time>
      </trkpt>
      <trkpt lat="49.98284" lon="2.12885">
        <ele>72.2</ele>
        <time>2024-04-17T12:39:19Z</time>
      </trkpt>
      <trkpt lat="49.98284" lon="2.12883">
        <ele>72.2</ele>
        <time>2024-04-17T12:39:20Z</time>
      </trkpt>
      <trkpt lat="49.98284" lon="2.12882">
        <ele>72.2</ele>
        <time>2024-04-17T12:39:21Z</time>
      </trkpt>
      <trkpt lat="49.98283" lon="2.12881">
        <ele>72.2</ele>
        <time>2024-04-17T12:39:22Z</time>
      </trkpt>
      <trkpt lat="49.98283" lon="2.1288">
        <ele>72.2</ele>
        <time>2024-04-17T12:39:23Z</time>
      </trkpt>
      <trkpt lat="49.98283" lon="2.12878">
        <ele>72.2</ele>
        <time>2024-04-17T12:39:24Z</time>
      </trkpt>
      <trkpt lat="49.98282" lon="2.12877">
        <ele>72.2</ele>
        <time>2024-04-17T12:39:25Z</time>
      </trkpt>
      <trkpt lat="49.98282" lon="2.12875">
        <ele>72.2</ele>
        <time>2024-04-17T12:39:26Z</time>
      </trkpt>
      <trkpt lat="49.98282" lon="2.12874">
        <ele>72.1</ele>
        <time>2024-04-17T12:39:27Z</time>
      </trkpt>
      <trkpt lat="49.98282" lon="2.12872">
        <ele>72.1</ele>
        <time>2024-04-17T12:39:28Z</time>
      </trkpt>
      <trkpt lat="49.98281" lon="2.12871">
        <ele>72.1</ele>
        <time>2024-04-17T12:39:29Z</time>
      </trkpt>
      <trkpt lat="49.98281" lon="2.12869">
        <ele>72.1</ele>
        <time>2024-04-17T12:39:30Z</time>
      </trkpt>
      <trkpt lat="49.9828" lon="2.12866">
        <ele>72.1</ele>
        <time>2024-04-17T12:39:31Z</time>
      </trkpt>
      <trkpt lat="49.9828" lon="2.12865">
        <ele>72.1</ele>
        <time>2024-04-17T12:39:32Z</time>
      </trkpt>
      <trkpt lat="49.98279" lon="2.12864">
        <ele>72.1</ele>
        <time>2024-04-17T12:39:33Z</time>
      </trkpt>
      <trkpt lat="49.98279" lon="2.12863">
        <ele>72</ele>
        <time>2024-04-17T12:39:34Z</time>
      </trkpt>
      <trkpt lat="49.98278" lon="2.12862">
        <ele>72</ele>
        <time>2024-04-17T12:39:35Z</time>
      </trkpt>
      <trkpt lat="49.98278" lon="2.1286">
        <ele>72</ele>
        <time>2024-04-17T12:39:36Z</time>
      </trkpt>
      <trkpt lat="49.98277" lon="2.12859">
        <ele>72</ele>
        <time>2024-04-17T12:39:37Z</time>
      </trkpt>
      <trkpt lat="49.98277" lon="2.12858">
        <ele>72</ele>
        <time>2024-04-17T12:39:38Z</time>
      </trkpt>
      <trkpt lat="49.98276" lon="2.12856">
        <ele>72</ele>
        <time>2024-04-17T12:39:39Z</time>
      </trkpt>
      <trkpt lat="49.98276" lon="2.12854">
        <ele>72</ele>
        <time>2024-04-17T12:39:40Z</time>
      </trkpt>
      <trkpt lat="49.98275" lon="2.12853">
        <ele>72</ele>
        <time>2024-04-17T12:39:41Z</time>
      </trkpt>
      <trkpt lat="49.98275" lon="2.12851">
        <ele>71.9</ele>
        <time>2024-04-17T12:39:42Z</time>
      </trkpt>
      <trkpt lat="49.98274" lon="2.1285">
        <ele>71.9</ele>
        <time>2024-04-17T12:39:43Z</time>
      </trkpt>
      <trkpt lat="49.98274" lon="2.12848">
        <ele>71.9</ele>
        <time>2024-04-17T12:39:44Z</time>
      </trkpt>
      <trkpt lat="49.98273" lon="2.12847">
        <ele>71.9</ele>
        <time>2024-04-17T12:39:45Z</time>
      </trkpt>
      <trkpt lat="49.98272" lon="2.12844">
        <ele>71.9</ele>
        <time>2024-04-17T12:39:46Z</time>
      </trkpt>
      <trkpt lat="49.98272" lon="2.12843">
        <ele>71.9</ele>
        <time>2024-04-17T12:39:47Z</time>
      </trkpt>
      <trkpt lat="49.98271" lon="2.12842">
        <ele>71.9</ele>
        <time>2024-04-17T12:39:48Z</time>
      </trkpt>
      <trkpt lat="49.98271" lon="2.1284">
        <ele>71.8</ele>
        <time>2024-04-17T12:39:49Z</time>
      </trkpt>
      <trkpt lat="49.9827" lon="2.12839">
        <ele>71.8</ele>
        <time>2024-04-17T12:39:50Z</time>
      </trkpt>
      <trkpt lat="49.98269" lon="2.12838">
        <ele>71.8</ele>
        <time>2024-04-17T12:39:51Z</time>
      </trkpt>
      <trkpt lat="49.98269" lon="2.12836">
        <ele>71.8</ele>
        <time>2024-04-17T12:39:52Z</time>
      </trkpt>
      <trkpt lat="49.98268" lon="2.12835">
        <ele>71.8</ele>
        <time>2024-04-17T12:39:53Z</time>
      </trkpt>
      <trkpt lat="49.98267" lon="2.12833">
        <ele>71.8</ele>
        <time>2024-04-17T12:39:54Z</time>
      </trkpt>
      <trkpt lat="49.98267" lon="2.12832">
        <ele>71.8</ele>
        <time>2024-04-17T12:39:55Z</time>
      </trkpt>
      <trkpt lat="49.98266" lon="2.12831">
        <ele>71.7</ele>
        <time>2024-04-17T12:39:56Z</time>
      </trkpt>
      <trkpt lat="49.98265" lon="2.12829">
        <ele>71.7</ele>
        <time>2024-04-17T12:39:57Z</time>
      </trkpt>
      <trkpt lat="49.98265" lon="2.12828">
        <ele>71.7</ele>
        <time>2024-04-17T12:39:58Z</time>
      </trkpt>
      <trkpt lat="49.98264" lon="2.12826">
        <ele>71.7</ele>
        <time>2024-04-17T12:39:59Z</time>
      </trkpt>
      <trkpt lat="49.98264" lon="2.12825">
        <ele>71.7</ele>
        <time>2024-04-17T12:40:00Z</time>
      </trkpt>
      <trkpt lat="49.98263" lon="2.12823">
        <ele>71.7</ele>
        <time>2024-04-17T12:40:01Z</time>
      </trkpt>
      <trkpt lat="49.98263" lon="2.12822">
        <ele>71.7</ele>
        <time>2024-04-17T12:40:02Z</time>
      </trkpt>
      <trkpt lat="49.98262" lon="2.12821">
        <ele>71.6</ele>
        <time>2024-04-17T12:40:03Z</time>
      </trkpt>
      <trkpt lat="49.98262" lon="2.1282">
        <ele>71.6</ele>
        <time>2024-04-17T12:40:04Z</time>
      </trkpt>
      <trkpt lat="49.98261" lon="2.12818">
        <ele>71.6</ele>
        <time>2024-04-17T12:40:05Z</time>
      </trkpt>
      <trkpt lat="49.98261" lon="2.12817">
        <ele>71.6</ele>
        <time>2024-04-17T12:40:06Z</time>
      </trkpt>
      <trkpt lat="49.98261" lon="2.12815">
        <ele>71.6</ele>
        <time>2024-04-17T12:40:07Z</time>
      </trkpt>
      <trkpt lat="49.9826" lon="2.12813">
        <ele>71.6</ele>
        <time>2024-04-17T12:40:08Z</time>
      </trkpt>
      <trkpt lat="49.98259" lon="2.12812">
        <ele>71.6</ele>
        <time>2024-04-17T12:40:09Z</time>
      </trkpt>
      <trkpt lat="49.98259" lon="2.12811">
        <ele>71.5</ele>
        <time>2024-04-17T12:40:10Z</time>
      </trkpt>
      <trkpt lat="49.98258" lon="2.12809">
        <ele>71.5</ele>
        <time>2024-04-17T12:40:11Z</time>
      </trkpt>
      <trkpt lat="49.98258" lon="2.12807">
        <ele>71.5</ele>
        <time>2024-04-17T12:40:12Z</time>
      </trkpt>
      <trkpt lat="49.98257" lon="2.12806">
        <ele>71.5</ele>
        <time>2024-04-17T12:40:13Z</time>
      </trkpt>
      <trkpt lat="49.98257" lon="2.12805">
        <ele>71.5</ele>
        <time>2024-04-17T12:40:14Z</time>
      </trkpt>
      <trkpt lat="49.98256" lon="2.12803">
        <ele>71.5</ele>
        <time>2024-04-17T12:40:15Z</time>
      </trkpt>
      <trkpt lat="49.98255" lon="2.12802">
        <ele>71.5</ele>
        <time>2024-04-17T12:40:16Z</time>
      </trkpt>
      <trkpt lat="49.98255" lon="2.128">
        <ele>71.4</ele>
        <time>2024-04-17T12:40:17Z</time>
      </trkpt>
      <trkpt lat="49.98255" lon="2.12799">
        <ele>71.4</ele>
        <time>2024-04-17T12:40:18Z</time>
      </trkpt>
      <trkpt lat="49.98254" lon="2.12798">
        <ele>71.4</ele>
        <time>2024-04-17T12:40:19Z</time>
      </trkpt>
      <trkpt lat="49.98254" lon="2.12796">
        <ele>71.4</ele>
        <time>2024-04-17T12:40:20Z</time>
      </trkpt>
      <trkpt lat="49.98253" lon="2.12795">
        <ele>71.4</ele>
        <time>2024-04-17T12:40:21Z</time>
      </trkpt>
      <trkpt lat="49.98253" lon="2.12794">
        <ele>71.4</ele>
        <time>2024-04-17T12:40:22Z</time>
      </trkpt>
      <trkpt lat="49.98253" lon="2.12792">
        <ele>71.4</ele>
        <time>2024-04-17T12:40:23Z</time>
      </trkpt>
      <trkpt lat="49.98252" lon="2.12791">
        <ele>71.4</ele>
        <time>2024-04-17T12:40:24Z</time>
      </trkpt>
      <trkpt lat="49.98252" lon="2.12789">
        <ele>71.3</ele>
        <time>2024-04-17T12:40:25Z</time>
      </trkpt>
      <trkpt lat="49.98252" lon="2.12788">
        <ele>71.3</ele>
        <time>2024-04-17T12:40:26Z</time>
      </trkpt>
      <trkpt lat="49.98251" lon="2.12786">
        <ele>71.3</ele>
        <time>2024-04-17T12:40:27Z</time>
      </trkpt>
      <trkpt lat="49.98251" lon="2.12785">
        <ele>71.3</ele>
        <time>2024-04-17T12:40:28Z</time>
      </trkpt>
      <trkpt lat="49.98251" lon="2.12783">
        <ele>71.3</ele>
        <time>2024-04-17T12:40:29Z</time>
      </trkpt>
      <trkpt lat="49.98251" lon="2.12783">
        <ele>71.3</ele>
        <time>2024-04-17T12:40:30Z</time>
      </trkpt>
      <trkpt lat="49.9825" lon="2.12781">
        <ele>71.3</ele>
        <time>2024-04-17T12:40:31Z</time>
      </trkpt>
      <trkpt lat="49.9825" lon="2.1278">
        <ele>71.3</ele>
        <time>2024-04-17T12:40:32Z</time>
      </trkpt>
      <trkpt lat="49.98249" lon="2.12779">
        <ele>71.3</ele>
        <time>2024-04-17T12:40:33Z</time>
      </trkpt>
      <trkpt lat="49.98249" lon="2.12777">
        <ele>71.2</ele>
        <time>2024-04-17T12:40:34Z</time>
      </trkpt>
      <trkpt lat="49.98248" lon="2.12774">
        <ele>71.2</ele>
        <time>2024-04-17T12:40:35Z</time>
      </trkpt>
      <trkpt lat="49.98248" lon="2.12773">
        <ele>71.2</ele>
        <time>2024-04-17T12:40:36Z</time>
      </trkpt>
      <trkpt lat="49.98247" lon="2.12772">
        <ele>71.2</ele>
        <time>2024-04-17T12:40:37Z</time>
      </trkpt>
      <trkpt lat="49.98246" lon="2.12769">
        <ele>71.2</ele>
        <time>2024-04-17T12:40:38Z</time>
      </trkpt>
      <trkpt lat="49.98246" lon="2.12768">
        <ele>71.2</ele>
        <time>2024-04-17T12:40:39Z</time>
      </trkpt>
      <trkpt lat="49.98245" lon="2.12767">
        <ele>71.1</ele>
        <time>2024-04-17T12:40:40Z</time>
      </trkpt>
      <trkpt lat="49.98244" lon="2.12765">
        <ele>71.1</ele>
        <time>2024-04-17T12:40:41Z</time>
      </trkpt>
      <trkpt lat="49.98244" lon="2.12764">
        <ele>71.1</ele>
        <time>2024-04-17T12:40:42Z</time>
      </trkpt>
      <trkpt lat="49.98243" lon="2.12763">
        <ele>71.1</ele>
        <time>2024-04-17T12:40:43Z</time>
      </trkpt>
      <trkpt lat="49.98242" lon="2.1276">
        <ele>71.1</ele>
        <time>2024-04-17T12:40:44Z</time>
      </trkpt>
      <trkpt lat="49.98241" lon="2.12759">
        <ele>71.1</ele>
        <time>2024-04-17T12:40:45Z</time>
      </trkpt>
      <trkpt lat="49.98241" lon="2.12758">
        <ele>71</ele>
        <time>2024-04-17T12:40:46Z</time>
      </trkpt>
      <trkpt lat="49.9824" lon="2.12757">
        <ele>71</ele>
        <time>2024-04-17T12:40:47Z</time>
      </trkpt>
      <trkpt lat="49.9824" lon="2.12755">
        <ele>71</ele>
        <time>2024-04-17T12:40:48Z</time>
      </trkpt>
      <trkpt lat="49.98239" lon="2.12754">
        <ele>71</ele>
        <time>2024-04-17T12:40:49Z</time>
      </trkpt>
      <trkpt lat="49.98238" lon="2.12752">
        <ele>71</ele>
        <time>2024-04-17T12:40:50Z</time>
      </trkpt>
      <trkpt lat="49.98238" lon="2.12751">
        <ele>71</ele>
        <time>2024-04-17T12:40:51Z</time>
      </trkpt>
      <trkpt lat="49.98237" lon="2.12749">
        <ele>71</ele>
        <time>2024-04-17T12:40:52Z</time>
      </trkpt>
      <trkpt lat="49.98236" lon="2.12748">
        <ele>70.9</ele>
        <time>2024-04-17T12:40:53Z</time>
      </trkpt>
      <trkpt lat="49.98236" lon="2.12746">
        <ele>70.9</ele>
        <time>2024-04-17T12:40:54Z</time>
      </trkpt>
      <trkpt lat="49.98236" lon="2.12745">
        <ele>70.9</ele>
        <time>2024-04-17T12:40:55Z</time>
      </trkpt>
      <trkpt lat="49.98235" lon="2.12744">
        <ele>70.9</ele>
        <time>2024-04-17T12:40:56Z</time>
      </trkpt>
      <trkpt lat="49.98235" lon="2.12743">
        <ele>70.9</ele>
        <time>2024-04-17T12:40:57Z</time>
      </trkpt>
      <trkpt lat="49.98234" lon="2.12741">
        <ele>70.9</ele>
        <time>2024-04-17T12:40:58Z</time>
      </trkpt>
      <trkpt lat="49.98234" lon="2.1274">
        <ele>70.9</ele>
        <time>2024-04-17T12:40:59Z</time>
      </trkpt>
      <trkpt lat="49.98233" lon="2.12738">
        <ele>70.9</ele>
        <time>2024-04-17T12:41:00Z</time>
      </trkpt>
      <trkpt lat="49.98233" lon="2.12737">
        <ele>70.8</ele>
        <time>2024-04-17T12:41:01Z</time>
      </trkpt>
      <trkpt lat="49.98233" lon="2.12735">
        <ele>70.8</ele>
        <time>2024-04-17T12:41:02Z</time>
      </trkpt>
      <trkpt lat="49.98232" lon="2.12734">
        <ele>70.8</ele>
        <time>2024-04-17T12:41:03Z</time>
      </trkpt>
      <trkpt lat="49.98232" lon="2.12732">
        <ele>70.8</ele>
        <time>2024-04-17T12:41:04Z</time>
      </trkpt>
      <trkpt lat="49.98232" lon="2.12731">
        <ele>70.8</ele>
        <time>2024-04-17T12:41:05Z</time>
      </trkpt>
      <trkpt lat="49.98232" lon="2.1273">
        <ele>70.8</ele>
        <time>2024-04-17T12:41:06Z</time>
      </trkpt>
      <trkpt lat="49.98231" lon="2.12728">
        <ele>70.8</ele>
        <time>2024-04-17T12:41:07Z</time>
      </trkpt>
      <trkpt lat="49.98231" lon="2.12727">
        <ele>70.8</ele>
        <time>2024-04-17T12:41:08Z</time>
      </trkpt>
      <trkpt lat="49.98231" lon="2.12725">
        <ele>70.7</ele>
        <time>2024-04-17T12:41:09Z</time>
      </trkpt>
      <trkpt lat="49.9823" lon="2.12723">
        <ele>70.7</ele>
        <time>2024-04-17T12:41:10Z</time>
      </trkpt>
      <trkpt lat="49.98229" lon="2.1272">
        <ele>70.7</ele>
        <time>2024-04-17T12:41:11Z</time>
      </trkpt>
      <trkpt lat="49.98229" lon="2.12719">
        <ele>70.7</ele>
        <time>2024-04-17T12:41:12Z</time>
      </trkpt>
      <trkpt lat="49.98229" lon="2.12718">
        <ele>70.7</ele>
        <time>2024-04-17T12:41:13Z</time>
      </trkpt>
      <trkpt lat="49.98228" lon="2.12716">
        <ele>70.7</ele>
        <time>2024-04-17T12:41:14Z</time>
      </trkpt>
      <trkpt lat="49.98228" lon="2.12715">
        <ele>70.7</ele>
        <time>2024-04-17T12:41:15Z</time>
      </trkpt>
      <trkpt lat="49.98227" lon="2.12713">
        <ele>70.6</ele>
        <time>2024-04-17T12:41:16Z</time>
      </trkpt>
      <trkpt lat="49.98227" lon="2.12712">
        <ele>70.6</ele>
        <time>2024-04-17T12:41:17Z</time>
      </trkpt>
      <trkpt lat="49.98226" lon="2.1271">
        <ele>70.6</ele>
        <time>2024-04-17T12:41:18Z</time>
      </trkpt>
      <trkpt lat="49.98226" lon="2.12709">
        <ele>70.6</ele>
        <time>2024-04-17T12:41:19Z</time>
      </trkpt>
      <trkpt lat="49.98225" lon="2.12707">
        <ele>70.6</ele>
        <time>2024-04-17T12:41:20Z</time>
      </trkpt>
      <trkpt lat="49.98224" lon="2.12706">
        <ele>70.6</ele>
        <time>2024-04-17T12:41:21Z</time>
      </trkpt>
      <trkpt lat="49.98224" lon="2.12705">
        <ele>70.6</ele>
        <time>2024-04-17T12:41:22Z</time>
      </trkpt>
      <trkpt lat="49.98223" lon="2.12703">
        <ele>70.5</ele>
        <time>2024-04-17T12:41:23Z</time>
      </trkpt>
      <trkpt lat="49.98223" lon="2.12702">
        <ele>70.5</ele>
        <time>2024-04-17T12:41:24Z</time>
      </trkpt>
      <trkpt lat="49.98222" lon="2.12701">
        <ele>70.5</ele>
        <time>2024-04-17T12:41:25Z</time>
      </trkpt>
      <trkpt lat="49.98222" lon="2.12699">
        <ele>70.5</ele>
        <time>2024-04-17T12:41:26Z</time>
      </trkpt>
      <trkpt lat="49.98221" lon="2.12698">
        <ele>70.5</ele>
        <time>2024-04-17T12:41:27Z</time>
      </trkpt>
      <trkpt lat="49.9822" lon="2.12696">
        <ele>70.5</ele>
        <time>2024-04-17T12:41:28Z</time>
      </trkpt>
      <trkpt lat="49.9822" lon="2.12695">
        <ele>70.5</ele>
        <time>2024-04-17T12:41:29Z</time>
      </trkpt>
      <trkpt lat="49.98219" lon="2.12694">
        <ele>70.4</ele>
        <time>2024-04-17T12:41:30Z</time>
      </trkpt>
      <trkpt lat="49.98219" lon="2.12692">
        <ele>70.4</ele>
        <time>2024-04-17T12:41:31Z</time>
      </trkpt>
      <trkpt lat="49.98218" lon="2.12691">
        <ele>70.4</ele>
        <time>2024-04-17T12:41:32Z</time>
      </trkpt>
      <trkpt lat="49.98217" lon="2.12689">
        <ele>70.4</ele>
        <time>2024-04-17T12:41:33Z</time>
      </trkpt>
      <trkpt lat="49.98217" lon="2.12688">
        <ele>70.4</ele>
        <time>2024-04-17T12:41:34Z</time>
      </trkpt>
      <trkpt lat="49.98216" lon="2.12687">
        <ele>70.4</ele>
        <time>2024-04-17T12:41:35Z</time>
      </trkpt>
      <trkpt lat="49.98215" lon="2.12686">
        <ele>70.4</ele>
        <time>2024-04-17T12:41:36Z</time>
      </trkpt>
      <trkpt lat="49.98215" lon="2.12684">
        <ele>70.4</ele>
        <time>2024-04-17T12:41:37Z</time>
      </trkpt>
      <trkpt lat="49.98214" lon="2.12683">
        <ele>70.3</ele>
        <time>2024-04-17T12:41:38Z</time>
      </trkpt>
      <trkpt lat="49.98213" lon="2.12682">
        <ele>70.3</ele>
        <time>2024-04-17T12:41:39Z</time>
      </trkpt>
      <trkpt lat="49.98213" lon="2.12681">
        <ele>70.3</ele>
        <time>2024-04-17T12:41:40Z</time>
      </trkpt>
      <trkpt lat="49.98212" lon="2.12679">
        <ele>70.3</ele>
        <time>2024-04-17T12:41:41Z</time>
      </trkpt>
      <trkpt lat="49.98211" lon="2.12678">
        <ele>70.3</ele>
        <time>2024-04-17T12:41:42Z</time>
      </trkpt>
      <trkpt lat="49.98211" lon="2.12677">
        <ele>70.3</ele>
        <time>2024-04-17T12:41:43Z</time>
      </trkpt>
      <trkpt lat="49.9821" lon="2.12676">
        <ele>70.3</ele>
        <time>2024-04-17T12:41:44Z</time>
      </trkpt>
      <trkpt lat="49.98209" lon="2.12675">
        <ele>70.2</ele>
        <time>2024-04-17T12:41:45Z</time>
      </trkpt>
      <trkpt lat="49.98209" lon="2.12674">
        <ele>70.2</ele>
        <time>2024-04-17T12:41:46Z</time>
      </trkpt>
      <trkpt lat="49.98208" lon="2.12672">
        <ele>70.2</ele>
        <time>2024-04-17T12:41:47Z</time>
      </trkpt>
      <trkpt lat="49.98207" lon="2.12671">
        <ele>70.2</ele>
        <time>2024-04-17T12:41:48Z</time>
      </trkpt>
      <trkpt lat="49.98207" lon="2.1267">
        <ele>70.2</ele>
        <time>2024-04-17T12:41:49Z</time>
      </trkpt>
      <trkpt lat="49.98206" lon="2.12669">
        <ele>70.2</ele>
        <time>2024-04-17T12:41:50Z</time>
      </trkpt>
      <trkpt lat="49.98205" lon="2.12668">
        <ele>70.2</ele>
        <time>2024-04-17T12:41:51Z</time>
      </trkpt>
      <trkpt lat="49.98204" lon="2.12666">
        <ele>70.1</ele>
        <time>2024-04-17T12:41:52Z</time>
      </trkpt>
      <trkpt lat="49.98204" lon="2.12665">
        <ele>70.1</ele>
        <time>2024-04-17T12:41:53Z</time>
      </trkpt>
      <trkpt lat="49.98203" lon="2.12664">
        <ele>70.1</ele>
        <time>2024-04-17T12:41:54Z</time>
      </trkpt>
      <trkpt lat="49.98202" lon="2.12662">
        <ele>70.1</ele>
        <time>2024-04-17T12:41:55Z</time>
      </trkpt>
      <trkpt lat="49.98201" lon="2.1266">
        <ele>70</ele>
        <time>2024-04-17T12:41:56Z</time>
      </trkpt>
      <trkpt lat="49.982" lon="2.12659">
        <ele>70</ele>
        <time>2024-04-17T12:41:57Z</time>
      </trkpt>
      <trkpt lat="49.982" lon="2.12658">
        <ele>70</ele>
        <time>2024-04-17T12:41:58Z</time>
      </trkpt>
      <trkpt lat="49.98199" lon="2.12657">
        <ele>70</ele>
        <time>2024-04-17T12:41:59Z</time>
      </trkpt>
      <trkpt lat="49.98198" lon="2.12655">
        <ele>69.9</ele>
        <time>2024-04-17T12:42:00Z</time>
      </trkpt>
      <trkpt lat="49.98197" lon="2.12654">
        <ele>69.9</ele>
        <time>2024-04-17T12:42:01Z</time>
      </trkpt>
      <trkpt lat="49.98196" lon="2.12652">
        <ele>69.9</ele>
        <time>2024-04-17T12:42:02Z</time>
      </trkpt>
      <trkpt lat="49.98196" lon="2.12651">
        <ele>69.9</ele>
        <time>2024-04-17T12:42:03Z</time>
      </trkpt>
      <trkpt lat="49.98195" lon="2.1265">
        <ele>69.8</ele>
        <time>2024-04-17T12:42:04Z</time>
      </trkpt>
      <trkpt lat="49.98194" lon="2.12648">
        <ele>69.8</ele>
        <time>2024-04-17T12:42:05Z</time>
      </trkpt>
      <trkpt lat="49.98194" lon="2.12647">
        <ele>69.8</ele>
        <time>2024-04-17T12:42:06Z</time>
      </trkpt>
      <trkpt lat="49.98193" lon="2.12645">
        <ele>69.7</ele>
        <time>2024-04-17T12:42:07Z</time>
      </trkpt>
      <trkpt lat="49.98192" lon="2.12644">
        <ele>69.7</ele>
        <time>2024-04-17T12:42:08Z</time>
      </trkpt>
      <trkpt lat="49.98191" lon="2.12643">
        <ele>69.7</ele>
        <time>2024-04-17T12:42:09Z</time>
      </trkpt>
      <trkpt lat="49.98191" lon="2.12641">
        <ele>69.7</ele>
        <time>2024-04-17T12:42:10Z</time>
      </trkpt>
      <trkpt lat="49.9819" lon="2.1264">
        <ele>69.6</ele>
        <time>2024-04-17T12:42:11Z</time>
      </trkpt>
      <trkpt lat="49.98189" lon="2.12639">
        <ele>69.6</ele>
        <time>2024-04-17T12:42:12Z</time>
      </trkpt>
      <trkpt lat="49.98188" lon="2.12637">
        <ele>69.6</ele>
        <time>2024-04-17T12:42:13Z</time>
      </trkpt>
      <trkpt lat="49.98188" lon="2.12636">
        <ele>69.5</ele>
        <time>2024-04-17T12:42:14Z</time>
      </trkpt>
      <trkpt lat="49.98187" lon="2.12635">
        <ele>69.5</ele>
        <time>2024-04-17T12:42:15Z</time>
      </trkpt>
      <trkpt lat="49.98186" lon="2.12634">
        <ele>69.5</ele>
        <time>2024-04-17T12:42:16Z</time>
      </trkpt>
      <trkpt lat="49.98186" lon="2.12633">
        <ele>69.5</ele>
        <time>2024-04-17T12:42:17Z</time>
      </trkpt>
      <trkpt lat="49.98185" lon="2.12632">
        <ele>69.5</ele>
        <time>2024-04-17T12:42:18Z</time>
      </trkpt>
      <trkpt lat="49.98184" lon="2.12631">
        <ele>69.4</ele>
        <time>2024-04-17T12:42:19Z</time>
      </trkpt>
      <trkpt lat="49.98183" lon="2.1263">
        <ele>69.4</ele>
        <time>2024-04-17T12:42:20Z</time>
      </trkpt>
      <trkpt lat="49.98183" lon="2.12629">
        <ele>69.4</ele>
        <time>2024-04-17T12:42:21Z</time>
      </trkpt>
      <trkpt lat="49.98182" lon="2.12627">
        <ele>69.3</ele>
        <time>2024-04-17T12:42:22Z</time>
      </trkpt>
      <trkpt lat="49.98181" lon="2.12626">
        <ele>69.3</ele>
        <time>2024-04-17T12:42:23Z</time>
      </trkpt>
      <trkpt lat="49.9818" lon="2.12625">
        <ele>69.3</ele>
        <time>2024-04-17T12:42:24Z</time>
      </trkpt>
      <trkpt lat="49.98179" lon="2.12623">
        <ele>69.2</ele>
        <time>2024-04-17T12:42:25Z</time>
      </trkpt>
      <trkpt lat="49.98179" lon="2.12622">
        <ele>69.2</ele>
        <time>2024-04-17T12:42:26Z</time>
      </trkpt>
      <trkpt lat="49.98178" lon="2.12621">
        <ele>69.2</ele>
        <time>2024-04-17T12:42:27Z</time>
      </trkpt>
      <trkpt lat="49.98178" lon="2.1262">
        <ele>69.2</ele>
        <time>2024-04-17T12:42:28Z</time>
      </trkpt>
      <trkpt lat="49.98177" lon="2.12619">
        <ele>69.1</ele>
        <time>2024-04-17T12:42:29Z</time>
      </trkpt>
      <trkpt lat="49.98176" lon="2.12617">
        <ele>69.1</ele>
        <time>2024-04-17T12:42:30Z</time>
      </trkpt>
      <trkpt lat="49.98175" lon="2.12616">
        <ele>69.1</ele>
        <time>2024-04-17T12:42:31Z</time>
      </trkpt>
      <trkpt lat="49.98175" lon="2.12615">
        <ele>69.1</ele>
        <time>2024-04-17T12:42:32Z</time>
      </trkpt>
      <trkpt lat="49.98174" lon="2.12614">
        <ele>69</ele>
        <time>2024-04-17T12:42:33Z</time>
      </trkpt>
      <trkpt lat="49.98173" lon="2.12612">
        <ele>69</ele>
        <time>2024-04-17T12:42:34Z</time>
      </trkpt>
      <trkpt lat="49.98172" lon="2.12611">
        <ele>69</ele>
        <time>2024-04-17T12:42:35Z</time>
      </trkpt>
      <trkpt lat="49.98172" lon="2.12611">
        <ele>69</ele>
        <time>2024-04-17T12:42:36Z</time>
      </trkpt>
      <trkpt lat="49.98171" lon="2.12609">
        <ele>69</ele>
        <time>2024-04-17T12:42:37Z</time>
      </trkpt>
      <trkpt lat="49.9817" lon="2.12608">
        <ele>68.9</ele>
        <time>2024-04-17T12:42:38Z</time>
      </trkpt>
      <trkpt lat="49.98169" lon="2.12607">
        <ele>68.9</ele>
        <time>2024-04-17T12:42:39Z</time>
      </trkpt>
      <trkpt lat="49.98169" lon="2.12605">
        <ele>68.9</ele>
        <time>2024-04-17T12:42:40Z</time>
      </trkpt>
      <trkpt lat="49.98168" lon="2.12604">
        <ele>68.9</ele>
        <time>2024-04-17T12:42:41Z</time>
      </trkpt>
      <trkpt lat="49.98167" lon="2.12603">
        <ele>68.8</ele>
        <time>2024-04-17T12:42:42Z</time>
      </trkpt>
      <trkpt lat="49.98166" lon="2.12601">
        <ele>68.8</ele>
        <time>2024-04-17T12:42:43Z</time>
      </trkpt>
      <trkpt lat="49.98166" lon="2.126">
        <ele>68.8</ele>
        <time>2024-04-17T12:42:44Z</time>
      </trkpt>
      <trkpt lat="49.98165" lon="2.12599">
        <ele>68.8</ele>
        <time>2024-04-17T12:42:45Z</time>
      </trkpt>
      <trkpt lat="49.98164" lon="2.12598">
        <ele>68.8</ele>
        <time>2024-04-17T12:42:46Z</time>
      </trkpt>
      <trkpt lat="49.98163" lon="2.12596">
        <ele>68.8</ele>
        <time>2024-04-17T12:42:47Z</time>
      </trkpt>
      <trkpt lat="49.98163" lon="2.12595">
        <ele>68.7</ele>
        <time>2024-04-17T12:42:48Z</time>
      </trkpt>
      <trkpt lat="49.98162" lon="2.12594">
        <ele>68.7</ele>
        <time>2024-04-17T12:42:49Z</time>
      </trkpt>
      <trkpt lat="49.98161" lon="2.12592">
        <ele>68.7</ele>
        <time>2024-04-17T12:42:50Z</time>
      </trkpt>
      <trkpt lat="49.9816" lon="2.12591">
        <ele>68.7</ele>
        <time>2024-04-17T12:42:51Z</time>
      </trkpt>
      <trkpt lat="49.98159" lon="2.1259">
        <ele>68.7</ele>
        <time>2024-04-17T12:42:52Z</time>
      </trkpt>
      <trkpt lat="49.98159" lon="2.12589">
        <ele>68.7</ele>
        <time>2024-04-17T12:42:53Z</time>
      </trkpt>
      <trkpt lat="49.98158" lon="2.12588">
        <ele>68.7</ele>
        <time>2024-04-17T12:42:54Z</time>
      </trkpt>
      <trkpt lat="49.98157" lon="2.12587">
        <ele>68.7</ele>
        <time>2024-04-17T12:42:55Z</time>
      </trkpt>
      <trkpt lat="49.98156" lon="2.12586">
        <ele>68.7</ele>
        <time>2024-04-17T12:42:56Z</time>
      </trkpt>
      <trkpt lat="49.98156" lon="2.12584">
        <ele>68.6</ele>
        <time>2024-04-17T12:42:57Z</time>
      </trkpt>
      <trkpt lat="49.98155" lon="2.12583">
        <ele>68.6</ele>
        <time>2024-04-17T12:42:58Z</time>
      </trkpt>
      <trkpt lat="49.98154" lon="2.12582">
        <ele>68.6</ele>
        <time>2024-04-17T12:42:59Z</time>
      </trkpt>
      <trkpt lat="49.98154" lon="2.1258">
        <ele>68.6</ele>
        <time>2024-04-17T12:43:00Z</time>
      </trkpt>
      <trkpt lat="49.98153" lon="2.12579">
        <ele>68.6</ele>
        <time>2024-04-17T12:43:01Z</time>
      </trkpt>
      <trkpt lat="49.98152" lon="2.12578">
        <ele>68.6</ele>
        <time>2024-04-17T12:43:02Z</time>
      </trkpt>
      <trkpt lat="49.98151" lon="2.12576">
        <ele>68.6</ele>
        <time>2024-04-17T12:43:03Z</time>
      </trkpt>
      <trkpt lat="49.9815" lon="2.12575">
        <ele>68.6</ele>
        <time>2024-04-17T12:43:04Z</time>
      </trkpt>
      <trkpt lat="49.98149" lon="2.12573">
        <ele>68.5</ele>
        <time>2024-04-17T12:43:05Z</time>
      </trkpt>
      <trkpt lat="49.98149" lon="2.12572">
        <ele>68.5</ele>
        <time>2024-04-17T12:43:06Z</time>
      </trkpt>
      <trkpt lat="49.98148" lon="2.12571">
        <ele>68.5</ele>
        <time>2024-04-17T12:43:07Z</time>
      </trkpt>
      <trkpt lat="49.98147" lon="2.12569">
        <ele>68.5</ele>
        <time>2024-04-17T12:43:08Z</time>
      </trkpt>
      <trkpt lat="49.98146" lon="2.12568">
        <ele>68.5</ele>
        <time>2024-04-17T12:43:09Z</time>
      </trkpt>
      <trkpt lat="49.98146" lon="2.12567">
        <ele>68.5</ele>
        <time>2024-04-17T12:43:10Z</time>
      </trkpt>
      <trkpt lat="49.98145" lon="2.12566">
        <ele>68.5</ele>
        <time>2024-04-17T12:43:11Z</time>
      </trkpt>
      <trkpt lat="49.98144" lon="2.12564">
        <ele>68.5</ele>
        <time>2024-04-17T12:43:12Z</time>
      </trkpt>
      <trkpt lat="49.98143" lon="2.12563">
        <ele>68.4</ele>
        <time>2024-04-17T12:43:13Z</time>
      </trkpt>
      <trkpt lat="49.98142" lon="2.12562">
        <ele>68.4</ele>
        <time>2024-04-17T12:43:14Z</time>
      </trkpt>
      <trkpt lat="49.98142" lon="2.12561">
        <ele>68.4</ele>
        <time>2024-04-17T12:43:15Z</time>
      </trkpt>
      <trkpt lat="49.98141" lon="2.1256">
        <ele>68.4</ele>
        <time>2024-04-17T12:43:16Z</time>
      </trkpt>
      <trkpt lat="49.9814" lon="2.1256">
        <ele>68.4</ele>
        <time>2024-04-17T12:43:17Z</time>
      </trkpt>
      <trkpt lat="49.9814" lon="2.12558">
        <ele>68.4</ele>
        <time>2024-04-17T12:43:18Z</time>
      </trkpt>
      <trkpt lat="49.98139" lon="2.12557">
        <ele>68.4</ele>
        <time>2024-04-17T12:43:19Z</time>
      </trkpt>
      <trkpt lat="49.98138" lon="2.12556">
        <ele>68.3</ele>
        <time>2024-04-17T12:43:20Z</time>
      </trkpt>
      <trkpt lat="49.98138" lon="2.12555">
        <ele>68.3</ele>
        <time>2024-04-17T12:43:21Z</time>
      </trkpt>
      <trkpt lat="49.98137" lon="2.12553">
        <ele>68.3</ele>
        <time>2024-04-17T12:43:22Z</time>
      </trkpt>
      <trkpt lat="49.98136" lon="2.12552">
        <ele>68.3</ele>
        <time>2024-04-17T12:43:23Z</time>
      </trkpt>
      <trkpt lat="49.98135" lon="2.12551">
        <ele>68.3</ele>
        <time>2024-04-17T12:43:24Z</time>
      </trkpt>
      <trkpt lat="49.98135" lon="2.1255">
        <ele>68.2</ele>
        <time>2024-04-17T12:43:25Z</time>
      </trkpt>
      <trkpt lat="49.98134" lon="2.12549">
        <ele>68.2</ele>
        <time>2024-04-17T12:43:26Z</time>
      </trkpt>
      <trkpt lat="49.98133" lon="2.12548">
        <ele>68.2</ele>
        <time>2024-04-17T12:43:27Z</time>
      </trkpt>
      <trkpt lat="49.98133" lon="2.12546">
        <ele>68.2</ele>
        <time>2024-04-17T12:43:28Z</time>
      </trkpt>
      <trkpt lat="49.98132" lon="2.12545">
        <ele>68.2</ele>
        <time>2024-04-17T12:43:29Z</time>
      </trkpt>
      <trkpt lat="49.98131" lon="2.12544">
        <ele>68.1</ele>
        <time>2024-04-17T12:43:30Z</time>
      </trkpt>
      <trkpt lat="49.98131" lon="2.12543">
        <ele>68.1</ele>
        <time>2024-04-17T12:43:31Z</time>
      </trkpt>
      <trkpt lat="49.9813" lon="2.12542">
        <ele>68.1</ele>
        <time>2024-04-17T12:43:32Z</time>
      </trkpt>
      <trkpt lat="49.98129" lon="2.1254">
        <ele>68</ele>
        <time>2024-04-17T12:43:33Z</time>
      </trkpt>
      <trkpt lat="49.98128" lon="2.12539">
        <ele>68</ele>
        <time>2024-04-17T12:43:34Z</time>
      </trkpt>
      <trkpt lat="49.98128" lon="2.12538">
        <ele>68</ele>
        <time>2024-04-17T12:43:35Z</time>
      </trkpt>
      <trkpt lat="49.98127" lon="2.12538">
        <ele>68</ele>
        <time>2024-04-17T12:43:36Z</time>
      </trkpt>
      <trkpt lat="49.98127" lon="2.12536">
        <ele>68</ele>
        <time>2024-04-17T12:43:37Z</time>
      </trkpt>
      <trkpt lat="49.98126" lon="2.12535">
        <ele>67.9</ele>
        <time>2024-04-17T12:43:38Z</time>
      </trkpt>
      <trkpt lat="49.98125" lon="2.12534">
        <ele>67.9</ele>
        <time>2024-04-17T12:43:39Z</time>
      </trkpt>
      <trkpt lat="49.98125" lon="2.12533">
        <ele>67.9</ele>
        <time>2024-04-17T12:43:40Z</time>
      </trkpt>
      <trkpt lat="49.98124" lon="2.12532">
        <ele>67.9</ele>
        <time>2024-04-17T12:43:41Z</time>
      </trkpt>
      <trkpt lat="49.98123" lon="2.12531">
        <ele>67.9</ele>
        <time>2024-04-17T12:43:42Z</time>
      </trkpt>
      <trkpt lat="49.98123" lon="2.1253">
        <ele>67.8</ele>
        <time>2024-04-17T12:43:43Z</time>
      </trkpt>
      <trkpt lat="49.98122" lon="2.12529">
        <ele>67.8</ele>
        <time>2024-04-17T12:43:44Z</time>
      </trkpt>
      <trkpt lat="49.98121" lon="2.12527">
        <ele>67.8</ele>
        <time>2024-04-17T12:43:45Z</time>
      </trkpt>
      <trkpt lat="49.98121" lon="2.12526">
        <ele>67.8</ele>
        <time>2024-04-17T12:43:46Z</time>
      </trkpt>
      <trkpt lat="49.9812" lon="2.12525">
        <ele>67.7</ele>
        <time>2024-04-17T12:43:47Z</time>
      </trkpt>
      <trkpt lat="49.98119" lon="2.12524">
        <ele>67.7</ele>
        <time>2024-04-17T12:43:48Z</time>
      </trkpt>
      <trkpt lat="49.98118" lon="2.12523">
        <ele>67.7</ele>
        <time>2024-04-17T12:43:49Z</time>
      </trkpt>
      <trkpt lat="49.98118" lon="2.12521">
        <ele>67.7</ele>
        <time>2024-04-17T12:43:50Z</time>
      </trkpt>
      <trkpt lat="49.98117" lon="2.1252">
        <ele>67.6</ele>
        <time>2024-04-17T12:43:51Z</time>
      </trkpt>
      <trkpt lat="49.98116" lon="2.12519">
        <ele>67.6</ele>
        <time>2024-04-17T12:43:52Z</time>
      </trkpt>
      <trkpt lat="49.98116" lon="2.12518">
        <ele>67.6</ele>
        <time>2024-04-17T12:43:53Z</time>
      </trkpt>
      <trkpt lat="49.98115" lon="2.12517">
        <ele>67.6</ele>
        <time>2024-04-17T12:43:54Z</time>
      </trkpt>
      <trkpt lat="49.98114" lon="2.12515">
        <ele>67.5</ele>
        <time>2024-04-17T12:43:55Z</time>
      </trkpt>
      <trkpt lat="49.98113" lon="2.12514">
        <ele>67.5</ele>
        <time>2024-04-17T12:43:56Z</time>
      </trkpt>
      <trkpt lat="49.98112" lon="2.12513">
        <ele>67.5</ele>
        <time>2024-04-17T12:43:57Z</time>
      </trkpt>
      <trkpt lat="49.98111" lon="2.12512">
        <ele>67.4</ele>
        <time>2024-04-17T12:43:58Z</time>
      </trkpt>
      <trkpt lat="49.9811" lon="2.12511">
        <ele>67.4</ele>
        <time>2024-04-17T12:43:59Z</time>
      </trkpt>
      <trkpt lat="49.9811" lon="2.1251">
        <ele>67.4</ele>
        <time>2024-04-17T12:44:00Z</time>
      </trkpt>
      <trkpt lat="49.98108" lon="2.12508">
        <ele>67.3</ele>
        <time>2024-04-17T12:44:01Z</time>
      </trkpt>
      <trkpt lat="49.98108" lon="2.12507">
        <ele>67.3</ele>
        <time>2024-04-17T12:44:02Z</time>
      </trkpt>
      <trkpt lat="49.98107" lon="2.12506">
        <ele>67.3</ele>
        <time>2024-04-17T12:44:03Z</time>
      </trkpt>
      <trkpt lat="49.98106" lon="2.12503">
        <ele>67.2</ele>
        <time>2024-04-17T12:44:04Z</time>
      </trkpt>
      <trkpt lat="49.98105" lon="2.12502">
        <ele>67.1</ele>
        <time>2024-04-17T12:44:05Z</time>
      </trkpt>
      <trkpt lat="49.98104" lon="2.12501">
        <ele>67.1</ele>
        <time>2024-04-17T12:44:06Z</time>
      </trkpt>
      <trkpt lat="49.98103" lon="2.12499">
        <ele>67</ele>
        <time>2024-04-17T12:44:07Z</time>
      </trkpt>
      <trkpt lat="49.98102" lon="2.12498">
        <ele>67</ele>
        <time>2024-04-17T12:44:08Z</time>
      </trkpt>
      <trkpt lat="49.98102" lon="2.12497">
        <ele>67</ele>
        <time>2024-04-17T12:44:09Z</time>
      </trkpt>
      <trkpt lat="49.981" lon="2.12495">
        <ele>66.9</ele>
        <time>2024-04-17T12:44:10Z</time>
      </trkpt>
      <trkpt lat="49.98099" lon="2.12494">
        <ele>66.9</ele>
        <time>2024-04-17T12:44:11Z</time>
      </trkpt>
      <trkpt lat="49.98099" lon="2.12493">
        <ele>66.8</ele>
        <time>2024-04-17T12:44:12Z</time>
      </trkpt>
      <trkpt lat="49.98098" lon="2.12492">
        <ele>66.8</ele>
        <time>2024-04-17T12:44:13Z</time>
      </trkpt>
      <trkpt lat="49.98097" lon="2.12491">
        <ele>66.8</ele>
        <time>2024-04-17T12:44:14Z</time>
      </trkpt>
      <trkpt lat="49.98096" lon="2.12489">
        <ele>66.7</ele>
        <time>2024-04-17T12:44:15Z</time>
      </trkpt>
      <trkpt lat="49.98095" lon="2.12488">
        <ele>66.7</ele>
        <time>2024-04-17T12:44:16Z</time>
      </trkpt>
      <trkpt lat="49.98094" lon="2.12487">
        <ele>66.6</ele>
        <time>2024-04-17T12:44:17Z</time>
      </trkpt>
      <trkpt lat="49.98094" lon="2.12486">
        <ele>66.6</ele>
        <time>2024-04-17T12:44:18Z</time>
      </trkpt>
      <trkpt lat="49.98093" lon="2.12485">
        <ele>66.5</ele>
        <time>2024-04-17T12:44:19Z</time>
      </trkpt>
      <trkpt lat="49.98092" lon="2.12483">
        <ele>66.5</ele>
        <time>2024-04-17T12:44:20Z</time>
      </trkpt>
      <trkpt lat="49.98091" lon="2.12482">
        <ele>66.5</ele>
        <time>2024-04-17T12:44:21Z</time>
      </trkpt>
      <trkpt lat="49.9809" lon="2.12481">
        <ele>66.4</ele>
        <time>2024-04-17T12:44:22Z</time>
      </trkpt>
      <trkpt lat="49.98089" lon="2.1248">
        <ele>66.4</ele>
        <time>2024-04-17T12:44:23Z</time>
      </trkpt>
      <trkpt lat="49.98089" lon="2.12479">
        <ele>66.3</ele>
        <time>2024-04-17T12:44:24Z</time>
      </trkpt>
      <trkpt lat="49.98088" lon="2.12478">
        <ele>66.3</ele>
        <time>2024-04-17T12:44:25Z</time>
      </trkpt>
      <trkpt lat="49.98087" lon="2.12477">
        <ele>66.3</ele>
        <time>2024-04-17T12:44:26Z</time>
      </trkpt>
      <trkpt lat="49.98086" lon="2.12476">
        <ele>66.2</ele>
        <time>2024-04-17T12:44:27Z</time>
      </trkpt>
      <trkpt lat="49.98086" lon="2.12475">
        <ele>66.2</ele>
        <time>2024-04-17T12:44:28Z</time>
      </trkpt>
      <trkpt lat="49.98085" lon="2.12473">
        <ele>66.1</ele>
        <time>2024-04-17T12:44:29Z</time>
      </trkpt>
      <trkpt lat="49.98084" lon="2.12473">
        <ele>66.1</ele>
        <time>2024-04-17T12:44:30Z</time>
      </trkpt>
      <trkpt lat="49.98083" lon="2.12472">
        <ele>66.1</ele>
        <time>2024-04-17T12:44:31Z</time>
      </trkpt>
      <trkpt lat="49.98082" lon="2.12471">
        <ele>66</ele>
        <time>2024-04-17T12:44:32Z</time>
      </trkpt>
      <trkpt lat="49.98082" lon="2.12469">
        <ele>66</ele>
        <time>2024-04-17T12:44:33Z</time>
      </trkpt>
      <trkpt lat="49.98081" lon="2.12468">
        <ele>65.9</ele>
        <time>2024-04-17T12:44:34Z</time>
      </trkpt>
      <trkpt lat="49.9808" lon="2.12467">
        <ele>65.9</ele>
        <time>2024-04-17T12:44:35Z</time>
      </trkpt>
      <trkpt lat="49.98079" lon="2.12466">
        <ele>65.8</ele>
        <time>2024-04-17T12:44:36Z</time>
      </trkpt>
      <trkpt lat="49.98078" lon="2.12465">
        <ele>65.8</ele>
        <time>2024-04-17T12:44:37Z</time>
      </trkpt>
      <trkpt lat="49.98078" lon="2.12464">
        <ele>65.8</ele>
        <time>2024-04-17T12:44:38Z</time>
      </trkpt>
      <trkpt lat="49.98077" lon="2.12462">
        <ele>65.7</ele>
        <time>2024-04-17T12:44:39Z</time>
      </trkpt>
      <trkpt lat="49.98076" lon="2.12461">
        <ele>65.7</ele>
        <time>2024-04-17T12:44:40Z</time>
      </trkpt>
      <trkpt lat="49.98075" lon="2.1246">
        <ele>65.7</ele>
        <time>2024-04-17T12:44:41Z</time>
      </trkpt>
      <trkpt lat="49.98075" lon="2.12459">
        <ele>65.6</ele>
        <time>2024-04-17T12:44:42Z</time>
      </trkpt>
      <trkpt lat="49.98074" lon="2.12458">
        <ele>65.6</ele>
        <time>2024-04-17T12:44:43Z</time>
      </trkpt>
      <trkpt lat="49.98073" lon="2.12457">
        <ele>65.6</ele>
        <time>2024-04-17T12:44:44Z</time>
      </trkpt>
      <trkpt lat="49.98072" lon="2.12456">
        <ele>65.5</ele>
        <time>2024-04-17T12:44:45Z</time>
      </trkpt>
      <trkpt lat="49.98071" lon="2.12455">
        <ele>65.5</ele>
        <time>2024-04-17T12:44:46Z</time>
      </trkpt>
      <trkpt lat="49.9807" lon="2.12454">
        <ele>65.4</ele>
        <time>2024-04-17T12:44:47Z</time>
      </trkpt>
      <trkpt lat="49.9807" lon="2.12453">
        <ele>65.4</ele>
        <time>2024-04-17T12:44:48Z</time>
      </trkpt>
      <trkpt lat="49.98069" lon="2.12452">
        <ele>65.4</ele>
        <time>2024-04-17T12:44:49Z</time>
      </trkpt>
      <trkpt lat="49.98068" lon="2.12451">
        <ele>65.3</ele>
        <time>2024-04-17T12:44:50Z</time>
      </trkpt>
      <trkpt lat="49.98068" lon="2.1245">
        <ele>65.3</ele>
        <time>2024-04-17T12:44:51Z</time>
      </trkpt>
      <trkpt lat="49.98067" lon="2.12449">
        <ele>65.3</ele>
        <time>2024-04-17T12:44:52Z</time>
      </trkpt>
      <trkpt lat="49.98066" lon="2.12448">
        <ele>65.2</ele>
        <time>2024-04-17T12:44:53Z</time>
      </trkpt>
      <trkpt lat="49.98065" lon="2.12447">
        <ele>65.2</ele>
        <time>2024-04-17T12:44:54Z</time>
      </trkpt>
      <trkpt lat="49.98064" lon="2.12446">
        <ele>65.1</ele>
        <time>2024-04-17T12:44:55Z</time>
      </trkpt>
      <trkpt lat="49.98064" lon="2.12445">
        <ele>65.1</ele>
        <time>2024-04-17T12:44:56Z</time>
      </trkpt>
      <trkpt lat="49.98063" lon="2.12444">
        <ele>65</ele>
        <time>2024-04-17T12:44:57Z</time>
      </trkpt>
      <trkpt lat="49.98062" lon="2.12442">
        <ele>65</ele>
        <time>2024-04-17T12:44:58Z</time>
      </trkpt>
      <trkpt lat="49.98061" lon="2.12441">
        <ele>64.9</ele>
        <time>2024-04-17T12:44:59Z</time>
      </trkpt>
      <trkpt lat="49.9806" lon="2.1244">
        <ele>64.9</ele>
        <time>2024-04-17T12:45:00Z</time>
      </trkpt>
      <trkpt lat="49.98059" lon="2.12439">
        <ele>64.8</ele>
        <time>2024-04-17T12:45:01Z</time>
      </trkpt>
      <trkpt lat="49.98059" lon="2.12438">
        <ele>64.8</ele>
        <time>2024-04-17T12:45:02Z</time>
      </trkpt>
      <trkpt lat="49.98058" lon="2.12436">
        <ele>64.7</ele>
        <time>2024-04-17T12:45:03Z</time>
      </trkpt>
      <trkpt lat="49.98057" lon="2.12434">
        <ele>64.6</ele>
        <time>2024-04-17T12:45:04Z</time>
      </trkpt>
      <trkpt lat="49.98056" lon="2.12433">
        <ele>64.6</ele>
        <time>2024-04-17T12:45:05Z</time>
      </trkpt>
      <trkpt lat="49.98056" lon="2.12431">
        <ele>64.5</ele>
        <time>2024-04-17T12:45:06Z</time>
      </trkpt>
      <trkpt lat="49.98055" lon="2.12429">
        <ele>64.4</ele>
        <time>2024-04-17T12:45:07Z</time>
      </trkpt>
      <trkpt lat="49.98054" lon="2.12426">
        <ele>64.3</ele>
        <time>2024-04-17T12:45:08Z</time>
      </trkpt>
      <trkpt lat="49.98053" lon="2.12425">
        <ele>64.3</ele>
        <time>2024-04-17T12:45:09Z</time>
      </trkpt>
      <trkpt lat="49.98053" lon="2.12424">
        <ele>64.2</ele>
        <time>2024-04-17T12:45:10Z</time>
      </trkpt>
      <trkpt lat="49.98052" lon="2.12422">
        <ele>64.2</ele>
        <time>2024-04-17T12:45:11Z</time>
      </trkpt>
      <trkpt lat="49.98052" lon="2.12421">
        <ele>64.1</ele>
        <time>2024-04-17T12:45:12Z</time>
      </trkpt>
      <trkpt lat="49.98051" lon="2.12419">
        <ele>64.1</ele>
        <time>2024-04-17T12:45:13Z</time>
      </trkpt>
      <trkpt lat="49.9805" lon="2.12416">
        <ele>64</ele>
        <time>2024-04-17T12:45:14Z</time>
      </trkpt>
      <trkpt lat="49.98049" lon="2.12415">
        <ele>63.9</ele>
        <time>2024-04-17T12:45:15Z</time>
      </trkpt>
      <trkpt lat="49.98049" lon="2.12414">
        <ele>63.9</ele>
        <time>2024-04-17T12:45:16Z</time>
      </trkpt>
      <trkpt lat="49.98048" lon="2.12411">
        <ele>63.8</ele>
        <time>2024-04-17T12:45:17Z</time>
      </trkpt>
      <trkpt lat="49.98048" lon="2.1241">
        <ele>63.7</ele>
        <time>2024-04-17T12:45:18Z</time>
      </trkpt>
      <trkpt lat="49.98048" lon="2.12408">
        <ele>63.7</ele>
        <time>2024-04-17T12:45:19Z</time>
      </trkpt>
      <trkpt lat="49.98047" lon="2.12407">
        <ele>63.6</ele>
        <time>2024-04-17T12:45:20Z</time>
      </trkpt>
      <trkpt lat="49.98047" lon="2.12405">
        <ele>63.6</ele>
        <time>2024-04-17T12:45:21Z</time>
      </trkpt>
      <trkpt lat="49.98047" lon="2.12403">
        <ele>63.5</ele>
        <time>2024-04-17T12:45:22Z</time>
      </trkpt>
      <trkpt lat="49.98047" lon="2.12401">
        <ele>63.5</ele>
        <time>2024-04-17T12:45:23Z</time>
      </trkpt>
      <trkpt lat="49.98047" lon="2.12399">
        <ele>63.4</ele>
        <time>2024-04-17T12:45:24Z</time>
      </trkpt>
      <trkpt lat="49.98047" lon="2.12398">
        <ele>63.4</ele>
        <time>2024-04-17T12:45:25Z</time>
      </trkpt>
      <trkpt lat="49.98047" lon="2.12395">
        <ele>63.3</ele>
        <time>2024-04-17T12:45:26Z</time>
      </trkpt>
      <trkpt lat="49.98047" lon="2.12393">
        <ele>63.3</ele>
        <time>2024-04-17T12:45:27Z</time>
      </trkpt>
      <trkpt lat="49.98046" lon="2.12392">
        <ele>63.3</ele>
        <time>2024-04-17T12:45:28Z</time>
      </trkpt>
      <trkpt lat="49.98046" lon="2.1239">
        <ele>63.2</ele>
        <time>2024-04-17T12:45:29Z</time>
      </trkpt>
      <trkpt lat="49.98046" lon="2.12388">
        <ele>63.2</ele>
        <time>2024-04-17T12:45:30Z</time>
      </trkpt>
      <trkpt lat="49.98046" lon="2.12387">
        <ele>63.1</ele>
        <time>2024-04-17T12:45:31Z</time>
      </trkpt>
      <trkpt lat="49.98046" lon="2.12385">
        <ele>63.1</ele>
        <time>2024-04-17T12:45:32Z</time>
      </trkpt>
      <trkpt lat="49.98047" lon="2.12384">
        <ele>63.1</ele>
        <time>2024-04-17T12:45:33Z</time>
      </trkpt>
      <trkpt lat="49.98047" lon="2.12382">
        <ele>63</ele>
        <time>2024-04-17T12:45:34Z</time>
      </trkpt>
      <trkpt lat="49.98047" lon="2.1238">
        <ele>63</ele>
        <time>2024-04-17T12:45:35Z</time>
      </trkpt>
      <trkpt lat="49.98047" lon="2.12378">
        <ele>62.9</ele>
        <time>2024-04-17T12:45:36Z</time>
      </trkpt>
      <trkpt lat="49.98047" lon="2.12377">
        <ele>62.9</ele>
        <time>2024-04-17T12:45:37Z</time>
      </trkpt>
      <trkpt lat="49.98047" lon="2.12375">
        <ele>62.9</ele>
        <time>2024-04-17T12:45:38Z</time>
      </trkpt>
      <trkpt lat="49.98047" lon="2.12373">
        <ele>62.8</ele>
        <time>2024-04-17T12:45:39Z</time>
      </trkpt>
      <trkpt lat="49.98047" lon="2.12371">
        <ele>62.8</ele>
        <time>2024-04-17T12:45:40Z</time>
      </trkpt>
      <trkpt lat="49.98047" lon="2.1237">
        <ele>62.8</ele>
        <time>2024-04-17T12:45:41Z</time>
      </trkpt>
      <trkpt lat="49.98047" lon="2.12368">
        <ele>62.8</ele>
        <time>2024-04-17T12:45:42Z</time>
      </trkpt>
      <trkpt lat="49.98048" lon="2.12367">
        <ele>62.7</ele>
        <time>2024-04-17T12:45:43Z</time>
      </trkpt>
      <trkpt lat="49.98048" lon="2.12365">
        <ele>62.7</ele>
        <time>2024-04-17T12:45:44Z</time>
      </trkpt>
      <trkpt lat="49.98048" lon="2.12363">
        <ele>62.7</ele>
        <time>2024-04-17T12:45:45Z</time>
      </trkpt>
      <trkpt lat="49.98048" lon="2.12362">
        <ele>62.7</ele>
        <time>2024-04-17T12:45:46Z</time>
      </trkpt>
      <trkpt lat="49.98048" lon="2.12359">
        <ele>62.6</ele>
        <time>2024-04-17T12:45:47Z</time>
      </trkpt>
      <trkpt lat="49.98048" lon="2.12357">
        <ele>62.6</ele>
        <time>2024-04-17T12:45:48Z</time>
      </trkpt>
      <trkpt lat="49.98049" lon="2.12356">
        <ele>62.6</ele>
        <time>2024-04-17T12:45:49Z</time>
      </trkpt>
      <trkpt lat="49.98049" lon="2.12354">
        <ele>62.6</ele>
        <time>2024-04-17T12:45:50Z</time>
      </trkpt>
      <trkpt lat="49.98049" lon="2.12353">
        <ele>62.6</ele>
        <time>2024-04-17T12:45:51Z</time>
      </trkpt>
      <trkpt lat="49.98049" lon="2.12351">
        <ele>62.6</ele>
        <time>2024-04-17T12:45:52Z</time>
      </trkpt>
      <trkpt lat="49.98049" lon="2.12349">
        <ele>62.6</ele>
        <time>2024-04-17T12:45:53Z</time>
      </trkpt>
      <trkpt lat="49.9805" lon="2.12348">
        <ele>62.6</ele>
        <time>2024-04-17T12:45:54Z</time>
      </trkpt>
      <trkpt lat="49.9805" lon="2.12346">
        <ele>62.6</ele>
        <time>2024-04-17T12:45:55Z</time>
      </trkpt>
      <trkpt lat="49.9805" lon="2.12345">
        <ele>62.5</ele>
        <time>2024-04-17T12:45:56Z</time>
      </trkpt>
      <trkpt lat="49.9805" lon="2.12343">
        <ele>62.5</ele>
        <time>2024-04-17T12:45:57Z</time>
      </trkpt>
      <trkpt lat="49.9805" lon="2.12341">
        <ele>62.5</ele>
        <time>2024-04-17T12:45:58Z</time>
      </trkpt>
      <trkpt lat="49.98049" lon="2.12339">
        <ele>62.5</ele>
        <time>2024-04-17T12:45:59Z</time>
      </trkpt>
      <trkpt lat="49.98049" lon="2.12337">
        <ele>62.5</ele>
        <time>2024-04-17T12:46:00Z</time>
      </trkpt>
      <trkpt lat="49.98049" lon="2.12336">
        <ele>62.5</ele>
        <time>2024-04-17T12:46:01Z</time>
      </trkpt>
      <trkpt lat="49.98049" lon="2.12334">
        <ele>62.5</ele>
        <time>2024-04-17T12:46:02Z</time>
      </trkpt>
      <trkpt lat="49.98048" lon="2.12333">
        <ele>62.5</ele>
        <time>2024-04-17T12:46:03Z</time>
      </trkpt>
      <trkpt lat="49.98048" lon="2.12331">
        <ele>62.5</ele>
        <time>2024-04-17T12:46:04Z</time>
      </trkpt>
      <trkpt lat="49.98047" lon="2.1233">
        <ele>62.5</ele>
        <time>2024-04-17T12:46:05Z</time>
      </trkpt>
      <trkpt lat="49.98046" lon="2.12328">
        <ele>62.5</ele>
        <time>2024-04-17T12:46:06Z</time>
      </trkpt>
      <trkpt lat="49.98045" lon="2.12327">
        <ele>62.5</ele>
        <time>2024-04-17T12:46:07Z</time>
      </trkpt>
      <trkpt lat="49.98044" lon="2.12326">
        <ele>62.5</ele>
        <time>2024-04-17T12:46:08Z</time>
      </trkpt>
      <trkpt lat="49.98043" lon="2.12325">
        <ele>62.5</ele>
        <time>2024-04-17T12:46:09Z</time>
      </trkpt>
      <trkpt lat="49.98043" lon="2.12324">
        <ele>62.5</ele>
        <time>2024-04-17T12:46:10Z</time>
      </trkpt>
      <trkpt lat="49.98042" lon="2.12323">
        <ele>62.5</ele>
        <time>2024-04-17T12:46:11Z</time>
      </trkpt>
      <trkpt lat="49.98041" lon="2.12322">
        <ele>62.5</ele>
        <time>2024-04-17T12:46:12Z</time>
      </trkpt>
      <trkpt lat="49.9804" lon="2.12322">
        <ele>62.5</ele>
        <time>2024-04-17T12:46:13Z</time>
      </trkpt>
      <trkpt lat="49.98039" lon="2.12322">
        <ele>62.6</ele>
        <time>2024-04-17T12:46:14Z</time>
      </trkpt>
      <trkpt lat="49.98038" lon="2.12321">
        <ele>62.6</ele>
        <time>2024-04-17T12:46:15Z</time>
      </trkpt>
      <trkpt lat="49.98037" lon="2.12321">
        <ele>62.6</ele>
        <time>2024-04-17T12:46:16Z</time>
      </trkpt>
      <trkpt lat="49.98037" lon="2.12321">
        <ele>62.6</ele>
        <time>2024-04-17T12:46:17Z</time>
      </trkpt>
      <trkpt lat="49.98036" lon="2.12321">
        <ele>62.6</ele>
        <time>2024-04-17T12:46:18Z</time>
      </trkpt>
      <trkpt lat="49.98035" lon="2.12322">
        <ele>62.6</ele>
        <time>2024-04-17T12:46:19Z</time>
      </trkpt>
      <trkpt lat="49.98035" lon="2.12322">
        <ele>62.6</ele>
        <time>2024-04-17T12:46:20Z</time>
      </trkpt>
      <trkpt lat="49.98034" lon="2.12323">
        <ele>62.6</ele>
        <time>2024-04-17T12:46:21Z</time>
      </trkpt>
      <trkpt lat="49.98034" lon="2.12323">
        <ele>62.6</ele>
        <time>2024-04-17T12:46:22Z</time>
      </trkpt>
      <trkpt lat="49.98034" lon="2.12323">
        <ele>62.6</ele>
        <time>2024-04-17T12:46:23Z</time>
      </trkpt>
      <trkpt lat="49.98034" lon="2.12323">
        <ele>62.6</ele>
        <time>2024-04-17T12:46:24Z</time>
      </trkpt>
      <trkpt lat="49.98034" lon="2.12323">
        <ele>62.6</ele>
        <time>2024-04-17T12:46:25Z</time>
      </trkpt>
      <trkpt lat="49.98034" lon="2.12323">
        <ele>62.6</ele>
        <time>2024-04-17T12:46:26Z</time>
      </trkpt>
      <trkpt lat="49.98034" lon="2.12323">
        <ele>62.6</ele>
        <time>2024-04-17T12:46:27Z</time>
      </trkpt>
      <trkpt lat="49.98034" lon="2.12323">
        <ele>62.6</ele>
        <time>2024-04-17T12:46:28Z</time>
      </trkpt>
      <trkpt lat="49.98034" lon="2.12323">
        <ele>62.6</ele>
        <time>2024-04-17T12:46:29Z</time>
      </trkpt>
      <trkpt lat="49.98034" lon="2.12323">
        <ele>62.6</ele>
        <time>2024-04-17T12:46:30Z</time>
      </trkpt>
      <trkpt lat="49.98035" lon="2.12323">
        <ele>62.6</ele>
        <time>2024-04-17T12:46:31Z</time>
      </trkpt>
      <trkpt lat="49.98035" lon="2.12323">
        <ele>62.6</ele>
        <time>2024-04-17T12:46:32Z</time>
      </trkpt>
      <trkpt lat="49.98035" lon="2.12323">
        <ele>62.6</ele>
        <time>2024-04-17T12:46:33Z</time>
      </trkpt>
      <trkpt lat="49.98035" lon="2.12324">
        <ele>62.6</ele>
        <time>2024-04-17T12:46:34Z</time>
      </trkpt>
      <trkpt lat="49.98035" lon="2.12324">
        <ele>62.7</ele>
        <time>2024-04-17T12:46:35Z</time>
      </trkpt>
      <trkpt lat="49.98035" lon="2.12324">
        <ele>62.7</ele>
        <time>2024-04-17T12:46:36Z</time>
      </trkpt>
      <trkpt lat="49.98035" lon="2.12324">
        <ele>62.7</ele>
        <time>2024-04-17T12:46:37Z</time>
      </trkpt>
      <trkpt lat="49.98035" lon="2.12324">
        <ele>62.7</ele>
        <time>2024-04-17T12:46:38Z</time>
      </trkpt>
      <trkpt lat="49.98036" lon="2.12324">
        <ele>62.7</ele>
        <time>2024-04-17T12:46:39Z</time>
      </trkpt>
      <trkpt lat="49.98036" lon="2.12324">
        <ele>62.7</ele>
        <time>2024-04-17T12:46:40Z</time>
      </trkpt>
      <trkpt lat="49.98036" lon="2.12324">
        <ele>62.7</ele>
        <time>2024-04-17T12:46:41Z</time>
      </trkpt>
      <trkpt lat="49.98036" lon="2.12324">
        <ele>62.7</ele>
        <time>2024-04-17T12:46:42Z</time>
      </trkpt>
      <trkpt lat="49.98036" lon="2.12324">
        <ele>62.7</ele>
        <time>2024-04-17T12:46:43Z</time>
      </trkpt>
      <trkpt lat="49.98036" lon="2.12324">
        <ele>62.7</ele>
        <time>2024-04-17T12:46:44Z</time>
      </trkpt>
      <trkpt lat="49.98036" lon="2.12324">
        <ele>62.7</ele>
        <time>2024-04-17T12:46:45Z</time>
      </trkpt>
      <trkpt lat="49.98036" lon="2.12324">
        <ele>62.7</ele>
        <time>2024-04-17T12:46:46Z</time>
      </trkpt>
      <trkpt lat="49.98037" lon="2.12325">
        <ele>62.7</ele>
        <time>2024-04-17T12:46:47Z</time>
      </trkpt>
      <trkpt lat="49.98037" lon="2.12325">
        <ele>62.7</ele>
        <time>2024-04-17T12:46:48Z</time>
      </trkpt>
      <trkpt lat="49.98037" lon="2.12325">
        <ele>62.7</ele>
        <time>2024-04-17T12:46:49Z</time>
      </trkpt>
      <trkpt lat="49.98037" lon="2.12325">
        <ele>62.7</ele>
        <time>2024-04-17T12:46:50Z</time>
      </trkpt>
      <trkpt lat="49.98037" lon="2.12325">
        <ele>62.7</ele>
        <time>2024-04-17T12:46:51Z</time>
      </trkpt>
      <trkpt lat="49.98037" lon="2.12325">
        <ele>62.7</ele>
        <time>2024-04-17T12:46:52Z</time>
      </trkpt>
      <trkpt lat="49.98037" lon="2.12325">
        <ele>62.7</ele>
        <time>2024-04-17T12:46:53Z</time>
      </trkpt>
      <trkpt lat="49.98037" lon="2.12325">
        <ele>62.7</ele>
        <time>2024-04-17T12:46:54Z</time>
      </trkpt>
      <trkpt lat="49.98038" lon="2.12325">
        <ele>62.7</ele>
        <time>2024-04-17T12:46:55Z</time>
      </trkpt>
      <trkpt lat="49.98038" lon="2.12325">
        <ele>62.7</ele>
        <time>2024-04-17T12:46:56Z</time>
      </trkpt>
      <trkpt lat="49.98038" lon="2.12325">
        <ele>62.7</ele>
        <time>2024-04-17T12:46:57Z</time>
      </trkpt>
      <trkpt lat="49.98038" lon="2.12325">
        <ele>62.7</ele>
        <time>2024-04-17T12:46:58Z</time>
      </trkpt>
      <trkpt lat="49.98038" lon="2.12326">
        <ele>62.7</ele>
        <time>2024-04-17T12:46:59Z</time>
      </trkpt>
      <trkpt lat="49.98038" lon="2.12326">
        <ele>62.7</ele>
        <time>2024-04-17T12:47:00Z</time>
      </trkpt>
      <trkpt lat="49.98038" lon="2.12326">
        <ele>62.7</ele>
        <time>2024-04-17T12:47:01Z</time>
      </trkpt>
      <trkpt lat="49.98038" lon="2.12326">
        <ele>62.7</ele>
        <time>2024-04-17T12:47:02Z</time>
      </trkpt>
      <trkpt lat="49.98039" lon="2.12326">
        <ele>62.7</ele>
        <time>2024-04-17T12:47:03Z</time>
      </trkpt>
      <trkpt lat="49.98039" lon="2.12326">
        <ele>62.7</ele>
        <time>2024-04-17T12:47:04Z</time>
      </trkpt>
      <trkpt lat="49.98039" lon="2.12326">
        <ele>62.7</ele>
        <time>2024-04-17T12:47:05Z</time>
      </trkpt>
      <trkpt lat="49.98039" lon="2.12327">
        <ele>62.7</ele>
        <time>2024-04-17T12:47:06Z</time>
      </trkpt>
      <trkpt lat="49.98039" lon="2.12327">
        <ele>62.7</ele>
        <time>2024-04-17T12:47:07Z</time>
      </trkpt>
      <trkpt lat="49.98039" lon="2.12327">
        <ele>62.7</ele>
        <time>2024-04-17T12:47:08Z</time>
      </trkpt>
      <trkpt lat="49.98037" lon="2.12327">
        <ele>62.8</ele>
        <time>2024-04-17T12:47:09Z</time>
      </trkpt>
      <trkpt lat="49.98036" lon="2.12327">
        <ele>62.8</ele>
        <time>2024-04-17T12:47:10Z</time>
      </trkpt>
      <trkpt lat="49.98035" lon="2.12327">
        <ele>62.8</ele>
        <time>2024-04-17T12:47:11Z</time>
      </trkpt>
      <trkpt lat="49.98034" lon="2.12326">
        <ele>62.9</ele>
        <time>2024-04-17T12:47:12Z</time>
      </trkpt>
      <trkpt lat="49.98033" lon="2.12326">
        <ele>62.9</ele>
        <time>2024-04-17T12:47:13Z</time>
      </trkpt>
      <trkpt lat="49.98032" lon="2.12326">
        <ele>62.9</ele>
        <time>2024-04-17T12:47:14Z</time>
      </trkpt>
      <trkpt lat="49.98031" lon="2.12326">
        <ele>63</ele>
        <time>2024-04-17T12:47:15Z</time>
      </trkpt>
      <trkpt lat="49.9803" lon="2.12326">
        <ele>63</ele>
        <time>2024-04-17T12:47:16Z</time>
      </trkpt>
      <trkpt lat="49.98029" lon="2.12326">
        <ele>63</ele>
        <time>2024-04-17T12:47:17Z</time>
      </trkpt>
      <trkpt lat="49.98028" lon="2.12326">
        <ele>63.1</ele>
        <time>2024-04-17T12:47:18Z</time>
      </trkpt>
      <trkpt lat="49.98027" lon="2.12325">
        <ele>63.1</ele>
        <time>2024-04-17T12:47:19Z</time>
      </trkpt>
      <trkpt lat="49.98026" lon="2.12324">
        <ele>63.2</ele>
        <time>2024-04-17T12:47:20Z</time>
      </trkpt>
      <trkpt lat="49.98026" lon="2.12323">
        <ele>63.2</ele>
        <time>2024-04-17T12:47:21Z</time>
      </trkpt>
      <trkpt lat="49.98026" lon="2.12323">
        <ele>63.2</ele>
        <time>2024-04-17T12:47:22Z</time>
      </trkpt>
      <trkpt lat="49.98026" lon="2.12323">
        <ele>63.2</ele>
        <time>2024-04-17T12:47:23Z</time>
      </trkpt>
      <trkpt lat="49.98026" lon="2.12323">
        <ele>63.2</ele>
        <time>2024-04-17T12:47:24Z</time>
      </trkpt>
      <trkpt lat="49.98026" lon="2.12323">
        <ele>63.2</ele>
        <time>2024-04-17T12:47:25Z</time>
      </trkpt>
      <trkpt lat="49.98025" lon="2.12323">
        <ele>63.2</ele>
        <time>2024-04-17T12:47:26Z</time>
      </trkpt>
      <trkpt lat="49.98025" lon="2.12323">
        <ele>63.2</ele>
        <time>2024-04-17T12:47:27Z</time>
      </trkpt>
      <trkpt lat="49.98025" lon="2.12323">
        <ele>63.2</ele>
        <time>2024-04-17T12:47:28Z</time>
      </trkpt>
      <trkpt lat="49.98025" lon="2.12322">
        <ele>63.2</ele>
        <time>2024-04-17T12:47:29Z</time>
      </trkpt>
      <trkpt lat="49.98025" lon="2.12322">
        <ele>63.2</ele>
        <time>2024-04-17T12:47:30Z</time>
      </trkpt>
      <trkpt lat="49.98025" lon="2.12322">
        <ele>63.2</ele>
        <time>2024-04-17T12:47:31Z</time>
      </trkpt>
      <trkpt lat="49.98025" lon="2.12322">
        <ele>63.2</ele>
        <time>2024-04-17T12:47:32Z</time>
      </trkpt>
      <trkpt lat="49.98025" lon="2.12322">
        <ele>63.3</ele>
        <time>2024-04-17T12:47:33Z</time>
      </trkpt>
      <trkpt lat="49.98025" lon="2.12322">
        <ele>63.3</ele>
        <time>2024-04-17T12:47:34Z</time>
      </trkpt>
      <trkpt lat="49.98025" lon="2.12322">
        <ele>63.3</ele>
        <time>2024-04-17T12:47:35Z</time>
      </trkpt>
      <trkpt lat="49.98025" lon="2.12322">
        <ele>63.3</ele>
        <time>2024-04-17T12:47:36Z</time>
      </trkpt>
      <trkpt lat="49.98025" lon="2.12322">
        <ele>63.3</ele>
        <time>2024-04-17T12:47:37Z</time>
      </trkpt>
      <trkpt lat="49.98026" lon="2.12322">
        <ele>63.3</ele>
        <time>2024-04-17T12:47:38Z</time>
      </trkpt>
      <trkpt lat="49.98026" lon="2.12322">
        <ele>63.3</ele>
        <time>2024-04-17T12:47:39Z</time>
      </trkpt>
      <trkpt lat="49.98026" lon="2.12322">
        <ele>63.3</ele>
        <time>2024-04-17T12:47:40Z</time>
      </trkpt>
      <trkpt lat="49.98026" lon="2.12322">
        <ele>63.3</ele>
        <time>2024-04-17T12:47:41Z</time>
      </trkpt>
      <trkpt lat="49.98026" lon="2.12322">
        <ele>63.3</ele>
        <time>2024-04-17T12:47:42Z</time>
      </trkpt>
      <trkpt lat="49.98026" lon="2.12322">
        <ele>63.3</ele>
        <time>2024-04-17T12:47:43Z</time>
      </trkpt>
      <trkpt lat="49.98026" lon="2.12322">
        <ele>63.3</ele>
        <time>2024-04-17T12:47:44Z</time>
      </trkpt>
      <trkpt lat="49.98026" lon="2.12322">
        <ele>63.3</ele>
        <time>2024-04-17T12:47:45Z</time>
      </trkpt>
      <trkpt lat="49.98026" lon="2.12322">
        <ele>63.3</ele>
        <time>2024-04-17T12:47:46Z</time>
      </trkpt>
      <trkpt lat="49.98026" lon="2.12322">
        <ele>63.3</ele>
        <time>2024-04-17T12:47:47Z</time>
      </trkpt>
      <trkpt lat="49.98026" lon="2.12322">
        <ele>63.3</ele>
        <time>2024-04-17T12:47:48Z</time>
      </trkpt>
      <trkpt lat="49.98026" lon="2.12322">
        <ele>63.3</ele>
        <time>2024-04-17T12:47:49Z</time>
      </trkpt>
      <trkpt lat="49.98026" lon="2.12322">
        <ele>63.3</ele>
        <time>2024-04-17T12:47:50Z</time>
      </trkpt>
      <trkpt lat="49.98026" lon="2.12322">
        <ele>63.3</ele>
        <time>2024-04-17T12:47:51Z</time>
      </trkpt>
      <trkpt lat="49.98026" lon="2.12322">
        <ele>63.3</ele>
        <time>2024-04-17T12:47:52Z</time>
      </trkpt>
      <trkpt lat="49.98026" lon="2.12322">
        <ele>63.3</ele>
        <time>2024-04-17T12:47:53Z</time>
      </trkpt>
      <trkpt lat="49.98027" lon="2.12324">
        <ele>63.4</ele>
        <time>2024-04-17T12:47:54Z</time>
      </trkpt>
      <trkpt lat="49.98027" lon="2.12325">
        <ele>63.4</ele>
        <time>2024-04-17T12:47:55Z</time>
      </trkpt>
      <trkpt lat="49.98026" lon="2.12325">
        <ele>63.5</ele>
        <time>2024-04-17T12:47:56Z</time>
      </trkpt>
      <trkpt lat="49.98025" lon="2.12326">
        <ele>63.5</ele>
        <time>2024-04-17T12:47:57Z</time>
      </trkpt>
      <trkpt lat="49.98023" lon="2.12326">
        <ele>63.5</ele>
        <time>2024-04-17T12:47:58Z</time>
      </trkpt>
      <trkpt lat="49.98021" lon="2.12327">
        <ele>63.5</ele>
        <time>2024-04-17T12:47:59Z</time>
      </trkpt>
      <trkpt lat="49.98021" lon="2.12327">
        <ele>63.5</ele>
        <time>2024-04-17T12:48:00Z</time>
      </trkpt>
      <trkpt lat="49.9802" lon="2.12327">
        <ele>63.5</ele>
        <time>2024-04-17T12:48:01Z</time>
      </trkpt>
      <trkpt lat="49.9802" lon="2.12327">
        <ele>63.5</ele>
        <time>2024-04-17T12:48:02Z</time>
      </trkpt>
      <trkpt lat="49.98016" lon="2.12327">
        <ele>63.5</ele>
        <time>2024-04-17T12:48:03Z</time>
      </trkpt>
      <trkpt lat="49.98015" lon="2.12327">
        <ele>63.4</ele>
        <time>2024-04-17T12:48:04Z</time>
      </trkpt>
      <trkpt lat="49.98014" lon="2.12327">
        <ele>63.4</ele>
        <time>2024-04-17T12:48:05Z</time>
      </trkpt>
      <trkpt lat="49.98012" lon="2.12327">
        <ele>63.4</ele>
        <time>2024-04-17T12:48:06Z</time>
      </trkpt>
      <trkpt lat="49.9801" lon="2.12327">
        <ele>63.4</ele>
        <time>2024-04-17T12:48:07Z</time>
      </trkpt>
      <trkpt lat="49.98009" lon="2.12327">
        <ele>63.4</ele>
        <time>2024-04-17T12:48:08Z</time>
      </trkpt>
      <trkpt lat="49.98008" lon="2.12327">
        <ele>63.4</ele>
        <time>2024-04-17T12:48:09Z</time>
      </trkpt>
      <trkpt lat="49.98006" lon="2.12327">
        <ele>63.3</ele>
        <time>2024-04-17T12:48:10Z</time>
      </trkpt>
      <trkpt lat="49.98006" lon="2.12327">
        <ele>63.3</ele>
        <time>2024-04-17T12:48:11Z</time>
      </trkpt>
      <trkpt lat="49.98005" lon="2.12328">
        <ele>63.3</ele>
        <time>2024-04-17T12:48:12Z</time>
      </trkpt>
      <trkpt lat="49.98004" lon="2.12328">
        <ele>63.3</ele>
        <time>2024-04-17T12:48:13Z</time>
      </trkpt>
      <trkpt lat="49.98003" lon="2.12328">
        <ele>63.3</ele>
        <time>2024-04-17T12:48:14Z</time>
      </trkpt>
      <trkpt lat="49.98001" lon="2.12328">
        <ele>63.3</ele>
        <time>2024-04-17T12:48:15Z</time>
      </trkpt>
      <trkpt lat="49.98" lon="2.12328">
        <ele>63.2</ele>
        <time>2024-04-17T12:48:16Z</time>
      </trkpt>
      <trkpt lat="49.97999" lon="2.12328">
        <ele>63.2</ele>
        <time>2024-04-17T12:48:17Z</time>
      </trkpt>
      <trkpt lat="49.97998" lon="2.12328">
        <ele>63.2</ele>
        <time>2024-04-17T12:48:18Z</time>
      </trkpt>
      <trkpt lat="49.97997" lon="2.12328">
        <ele>63.2</ele>
        <time>2024-04-17T12:48:19Z</time>
      </trkpt>
      <trkpt lat="49.97996" lon="2.12329">
        <ele>63.2</ele>
        <time>2024-04-17T12:48:20Z</time>
      </trkpt>
      <trkpt lat="49.97994" lon="2.12329">
        <ele>63.1</ele>
        <time>2024-04-17T12:48:21Z</time>
      </trkpt>
      <trkpt lat="49.97993" lon="2.12329">
        <ele>63.1</ele>
        <time>2024-04-17T12:48:22Z</time>
      </trkpt>
      <trkpt lat="49.97992" lon="2.12329">
        <ele>63.1</ele>
        <time>2024-04-17T12:48:23Z</time>
      </trkpt>
      <trkpt lat="49.97991" lon="2.12329">
        <ele>63.1</ele>
        <time>2024-04-17T12:48:24Z</time>
      </trkpt>
      <trkpt lat="49.9799" lon="2.12329">
        <ele>63.1</ele>
        <time>2024-04-17T12:48:25Z</time>
      </trkpt>
      <trkpt lat="49.97988" lon="2.12329">
        <ele>63.1</ele>
        <time>2024-04-17T12:48:26Z</time>
      </trkpt>
      <trkpt lat="49.97987" lon="2.12329">
        <ele>63</ele>
        <time>2024-04-17T12:48:27Z</time>
      </trkpt>
      <trkpt lat="49.97986" lon="2.12329">
        <ele>63</ele>
        <time>2024-04-17T12:48:28Z</time>
      </trkpt>
      <trkpt lat="49.97985" lon="2.12329">
        <ele>63</ele>
        <time>2024-04-17T12:48:29Z</time>
      </trkpt>
      <trkpt lat="49.97984" lon="2.12328">
        <ele>63</ele>
        <time>2024-04-17T12:48:30Z</time>
      </trkpt>
      <trkpt lat="49.97983" lon="2.12328">
        <ele>63</ele>
        <time>2024-04-17T12:48:31Z</time>
      </trkpt>
      <trkpt lat="49.97982" lon="2.12327">
        <ele>63</ele>
        <time>2024-04-17T12:48:32Z</time>
      </trkpt>
      <trkpt lat="49.97981" lon="2.12326">
        <ele>63</ele>
        <time>2024-04-17T12:48:33Z</time>
      </trkpt>
      <trkpt lat="49.97979" lon="2.12325">
        <ele>63</ele>
        <time>2024-04-17T12:48:34Z</time>
      </trkpt>
      <trkpt lat="49.97978" lon="2.12324">
        <ele>63</ele>
        <time>2024-04-17T12:48:35Z</time>
      </trkpt>
      <trkpt lat="49.97978" lon="2.12323">
        <ele>63</ele>
        <time>2024-04-17T12:48:36Z</time>
      </trkpt>
      <trkpt lat="49.97977" lon="2.12323">
        <ele>62.9</ele>
        <time>2024-04-17T12:48:37Z</time>
      </trkpt>
      <trkpt lat="49.97975" lon="2.12322">
        <ele>62.9</ele>
        <time>2024-04-17T12:48:38Z</time>
      </trkpt>
      <trkpt lat="49.97975" lon="2.12321">
        <ele>62.9</ele>
        <time>2024-04-17T12:48:39Z</time>
      </trkpt>
      <trkpt lat="49.97974" lon="2.1232">
        <ele>62.9</ele>
        <time>2024-04-17T12:48:40Z</time>
      </trkpt>
      <trkpt lat="49.97973" lon="2.12318">
        <ele>62.9</ele>
        <time>2024-04-17T12:48:41Z</time>
      </trkpt>
      <trkpt lat="49.97972" lon="2.12317">
        <ele>62.9</ele>
        <time>2024-04-17T12:48:42Z</time>
      </trkpt>
      <trkpt lat="49.9797" lon="2.12315">
        <ele>62.9</ele>
        <time>2024-04-17T12:48:43Z</time>
      </trkpt>
      <trkpt lat="49.9797" lon="2.12314">
        <ele>62.9</ele>
        <time>2024-04-17T12:48:44Z</time>
      </trkpt>
      <trkpt lat="49.97969" lon="2.12314">
        <ele>62.8</ele>
        <time>2024-04-17T12:48:45Z</time>
      </trkpt>
      <trkpt lat="49.97968" lon="2.12312">
        <ele>62.8</ele>
        <time>2024-04-17T12:48:46Z</time>
      </trkpt>
      <trkpt lat="49.97967" lon="2.12311">
        <ele>62.8</ele>
        <time>2024-04-17T12:48:47Z</time>
      </trkpt>
      <trkpt lat="49.97966" lon="2.1231">
        <ele>62.8</ele>
        <time>2024-04-17T12:48:48Z</time>
      </trkpt>
      <trkpt lat="49.97966" lon="2.12309">
        <ele>62.8</ele>
        <time>2024-04-17T12:48:49Z</time>
      </trkpt>
      <trkpt lat="49.97965" lon="2.12308">
        <ele>62.8</ele>
        <time>2024-04-17T12:48:50Z</time>
      </trkpt>
      <trkpt lat="49.97964" lon="2.12306">
        <ele>62.7</ele>
        <time>2024-04-17T12:48:51Z</time>
      </trkpt>
      <trkpt lat="49.97963" lon="2.12305">
        <ele>62.7</ele>
        <time>2024-04-17T12:48:52Z</time>
      </trkpt>
      <trkpt lat="49.97962" lon="2.12304">
        <ele>62.7</ele>
        <time>2024-04-17T12:48:53Z</time>
      </trkpt>
      <trkpt lat="49.97962" lon="2.12302">
        <ele>62.7</ele>
        <time>2024-04-17T12:48:54Z</time>
      </trkpt>
      <trkpt lat="49.97961" lon="2.12301">
        <ele>62.7</ele>
        <time>2024-04-17T12:48:55Z</time>
      </trkpt>
      <trkpt lat="49.9796" lon="2.123">
        <ele>62.7</ele>
        <time>2024-04-17T12:48:56Z</time>
      </trkpt>
      <trkpt lat="49.97959" lon="2.12298">
        <ele>62.6</ele>
        <time>2024-04-17T12:48:57Z</time>
      </trkpt>
      <trkpt lat="49.97958" lon="2.12297">
        <ele>62.6</ele>
        <time>2024-04-17T12:48:58Z</time>
      </trkpt>
      <trkpt lat="49.97958" lon="2.12296">
        <ele>62.6</ele>
        <time>2024-04-17T12:48:59Z</time>
      </trkpt>
      <trkpt lat="49.97957" lon="2.12294">
        <ele>62.6</ele>
        <time>2024-04-17T12:49:00Z</time>
      </trkpt>
      <trkpt lat="49.97956" lon="2.12293">
        <ele>62.6</ele>
        <time>2024-04-17T12:49:01Z</time>
      </trkpt>
      <trkpt lat="49.97955" lon="2.12292">
        <ele>62.5</ele>
        <time>2024-04-17T12:49:02Z</time>
      </trkpt>
      <trkpt lat="49.97955" lon="2.1229">
        <ele>62.5</ele>
        <time>2024-04-17T12:49:03Z</time>
      </trkpt>
      <trkpt lat="49.97954" lon="2.12289">
        <ele>62.5</ele>
        <time>2024-04-17T12:49:04Z</time>
      </trkpt>
      <trkpt lat="49.97953" lon="2.12288">
        <ele>62.5</ele>
        <time>2024-04-17T12:49:05Z</time>
      </trkpt>
      <trkpt lat="49.97952" lon="2.12287">
        <ele>62.5</ele>
        <time>2024-04-17T12:49:06Z</time>
      </trkpt>
      <trkpt lat="49.97951" lon="2.12285">
        <ele>62.4</ele>
        <time>2024-04-17T12:49:07Z</time>
      </trkpt>
      <trkpt lat="49.9795" lon="2.12284">
        <ele>62.4</ele>
        <time>2024-04-17T12:49:08Z</time>
      </trkpt>
      <trkpt lat="49.9795" lon="2.12283">
        <ele>62.4</ele>
        <time>2024-04-17T12:49:09Z</time>
      </trkpt>
      <trkpt lat="49.97949" lon="2.12281">
        <ele>62.4</ele>
        <time>2024-04-17T12:49:10Z</time>
      </trkpt>
      <trkpt lat="49.97948" lon="2.1228">
        <ele>62.3</ele>
        <time>2024-04-17T12:49:11Z</time>
      </trkpt>
      <trkpt lat="49.97947" lon="2.12279">
        <ele>62.3</ele>
        <time>2024-04-17T12:49:12Z</time>
      </trkpt>
      <trkpt lat="49.97947" lon="2.12277">
        <ele>62.3</ele>
        <time>2024-04-17T12:49:13Z</time>
      </trkpt>
      <trkpt lat="49.97946" lon="2.12276">
        <ele>62.3</ele>
        <time>2024-04-17T12:49:14Z</time>
      </trkpt>
      <trkpt lat="49.97945" lon="2.12275">
        <ele>62.3</ele>
        <time>2024-04-17T12:49:15Z</time>
      </trkpt>
      <trkpt lat="49.97943" lon="2.12272">
        <ele>62.2</ele>
        <time>2024-04-17T12:49:16Z</time>
      </trkpt>
      <trkpt lat="49.97943" lon="2.12271">
        <ele>62.2</ele>
        <time>2024-04-17T12:49:17Z</time>
      </trkpt>
      <trkpt lat="49.97942" lon="2.1227">
        <ele>62.2</ele>
        <time>2024-04-17T12:49:18Z</time>
      </trkpt>
      <trkpt lat="49.97941" lon="2.12268">
        <ele>62.1</ele>
        <time>2024-04-17T12:49:19Z</time>
      </trkpt>
      <trkpt lat="49.97941" lon="2.12266">
        <ele>62.1</ele>
        <time>2024-04-17T12:49:20Z</time>
      </trkpt>
      <trkpt lat="49.97941" lon="2.12265">
        <ele>62.1</ele>
        <time>2024-04-17T12:49:21Z</time>
      </trkpt>
      <trkpt lat="49.9794" lon="2.12264">
        <ele>62.1</ele>
        <time>2024-04-17T12:49:22Z</time>
      </trkpt>
      <trkpt lat="49.97939" lon="2.12262">
        <ele>62.1</ele>
        <time>2024-04-17T12:49:23Z</time>
      </trkpt>
      <trkpt lat="49.97939" lon="2.12261">
        <ele>62.1</ele>
        <time>2024-04-17T12:49:24Z</time>
      </trkpt>
      <trkpt lat="49.97938" lon="2.1226">
        <ele>62.1</ele>
        <time>2024-04-17T12:49:25Z</time>
      </trkpt>
      <trkpt lat="49.97937" lon="2.12259">
        <ele>62.1</ele>
        <time>2024-04-17T12:49:26Z</time>
      </trkpt>
      <trkpt lat="49.97936" lon="2.12258">
        <ele>62</ele>
        <time>2024-04-17T12:49:27Z</time>
      </trkpt>
      <trkpt lat="49.97936" lon="2.12257">
        <ele>62</ele>
        <time>2024-04-17T12:49:28Z</time>
      </trkpt>
      <trkpt lat="49.97935" lon="2.12256">
        <ele>62</ele>
        <time>2024-04-17T12:49:29Z</time>
      </trkpt>
      <trkpt lat="49.97934" lon="2.12254">
        <ele>62</ele>
        <time>2024-04-17T12:49:30Z</time>
      </trkpt>
      <trkpt lat="49.97933" lon="2.12253">
        <ele>62</ele>
        <time>2024-04-17T12:49:31Z</time>
      </trkpt>
      <trkpt lat="49.97932" lon="2.12252">
        <ele>62</ele>
        <time>2024-04-17T12:49:32Z</time>
      </trkpt>
      <trkpt lat="49.97932" lon="2.1225">
        <ele>62</ele>
        <time>2024-04-17T12:49:33Z</time>
      </trkpt>
      <trkpt lat="49.97931" lon="2.12249">
        <ele>61.9</ele>
        <time>2024-04-17T12:49:34Z</time>
      </trkpt>
      <trkpt lat="49.9793" lon="2.12248">
        <ele>61.9</ele>
        <time>2024-04-17T12:49:35Z</time>
      </trkpt>
      <trkpt lat="49.97929" lon="2.12247">
        <ele>61.9</ele>
        <time>2024-04-17T12:49:36Z</time>
      </trkpt>
      <trkpt lat="49.97929" lon="2.12246">
        <ele>61.9</ele>
        <time>2024-04-17T12:49:37Z</time>
      </trkpt>
      <trkpt lat="49.97928" lon="2.12245">
        <ele>61.9</ele>
        <time>2024-04-17T12:49:38Z</time>
      </trkpt>
      <trkpt lat="49.97928" lon="2.12244">
        <ele>61.9</ele>
        <time>2024-04-17T12:49:39Z</time>
      </trkpt>
      <trkpt lat="49.97927" lon="2.12241">
        <ele>61.9</ele>
        <time>2024-04-17T12:49:40Z</time>
      </trkpt>
      <trkpt lat="49.97926" lon="2.12241">
        <ele>61.9</ele>
        <time>2024-04-17T12:49:41Z</time>
      </trkpt>
      <trkpt lat="49.97926" lon="2.1224">
        <ele>61.8</ele>
        <time>2024-04-17T12:49:42Z</time>
      </trkpt>
      <trkpt lat="49.97925" lon="2.12239">
        <ele>61.8</ele>
        <time>2024-04-17T12:49:43Z</time>
      </trkpt>
      <trkpt lat="49.97924" lon="2.12237">
        <ele>61.8</ele>
        <time>2024-04-17T12:49:44Z</time>
      </trkpt>
      <trkpt lat="49.97924" lon="2.12237">
        <ele>61.8</ele>
        <time>2024-04-17T12:49:45Z</time>
      </trkpt>
      <trkpt lat="49.97923" lon="2.12236">
        <ele>61.8</ele>
        <time>2024-04-17T12:49:46Z</time>
      </trkpt>
      <trkpt lat="49.97922" lon="2.12235">
        <ele>61.8</ele>
        <time>2024-04-17T12:49:47Z</time>
      </trkpt>
      <trkpt lat="49.97921" lon="2.12234">
        <ele>61.8</ele>
        <time>2024-04-17T12:49:48Z</time>
      </trkpt>
      <trkpt lat="49.97921" lon="2.12233">
        <ele>61.8</ele>
        <time>2024-04-17T12:49:49Z</time>
      </trkpt>
      <trkpt lat="49.9792" lon="2.12232">
        <ele>61.7</ele>
        <time>2024-04-17T12:49:50Z</time>
      </trkpt>
      <trkpt lat="49.97918" lon="2.1223">
        <ele>61.7</ele>
        <time>2024-04-17T12:49:51Z</time>
      </trkpt>
      <trkpt lat="49.97918" lon="2.12229">
        <ele>61.7</ele>
        <time>2024-04-17T12:49:52Z</time>
      </trkpt>
      <trkpt lat="49.97917" lon="2.12228">
        <ele>61.7</ele>
        <time>2024-04-17T12:49:53Z</time>
      </trkpt>
      <trkpt lat="49.97916" lon="2.12226">
        <ele>61.6</ele>
        <time>2024-04-17T12:49:54Z</time>
      </trkpt>
      <trkpt lat="49.97915" lon="2.12225">
        <ele>61.6</ele>
        <time>2024-04-17T12:49:55Z</time>
      </trkpt>
      <trkpt lat="49.97914" lon="2.12224">
        <ele>61.6</ele>
        <time>2024-04-17T12:49:56Z</time>
      </trkpt>
      <trkpt lat="49.97913" lon="2.12222">
        <ele>61.6</ele>
        <time>2024-04-17T12:49:57Z</time>
      </trkpt>
      <trkpt lat="49.97913" lon="2.12221">
        <ele>61.6</ele>
        <time>2024-04-17T12:49:58Z</time>
      </trkpt>
      <trkpt lat="49.97912" lon="2.1222">
        <ele>61.5</ele>
        <time>2024-04-17T12:49:59Z</time>
      </trkpt>
      <trkpt lat="49.97911" lon="2.12219">
        <ele>61.5</ele>
        <time>2024-04-17T12:50:00Z</time>
      </trkpt>
      <trkpt lat="49.9791" lon="2.12218">
        <ele>61.5</ele>
        <time>2024-04-17T12:50:01Z</time>
      </trkpt>
      <trkpt lat="49.97909" lon="2.12216">
        <ele>61.5</ele>
        <time>2024-04-17T12:50:02Z</time>
      </trkpt>
      <trkpt lat="49.97908" lon="2.12214">
        <ele>61.4</ele>
        <time>2024-04-17T12:50:03Z</time>
      </trkpt>
      <trkpt lat="49.97907" lon="2.12213">
        <ele>61.4</ele>
        <time>2024-04-17T12:50:04Z</time>
      </trkpt>
      <trkpt lat="49.97907" lon="2.12212">
        <ele>61.4</ele>
        <time>2024-04-17T12:50:05Z</time>
      </trkpt>
      <trkpt lat="49.97906" lon="2.12211">
        <ele>61.4</ele>
        <time>2024-04-17T12:50:06Z</time>
      </trkpt>
      <trkpt lat="49.97905" lon="2.1221">
        <ele>61.4</ele>
        <time>2024-04-17T12:50:07Z</time>
      </trkpt>
      <trkpt lat="49.97904" lon="2.12209">
        <ele>61.3</ele>
        <time>2024-04-17T12:50:08Z</time>
      </trkpt>
      <trkpt lat="49.97904" lon="2.12207">
        <ele>61.3</ele>
        <time>2024-04-17T12:50:09Z</time>
      </trkpt>
      <trkpt lat="49.97903" lon="2.12206">
        <ele>61.3</ele>
        <time>2024-04-17T12:50:10Z</time>
      </trkpt>
      <trkpt lat="49.97902" lon="2.12205">
        <ele>61.3</ele>
        <time>2024-04-17T12:50:11Z</time>
      </trkpt>
      <trkpt lat="49.979" lon="2.12203">
        <ele>61.2</ele>
        <time>2024-04-17T12:50:12Z</time>
      </trkpt>
      <trkpt lat="49.979" lon="2.12202">
        <ele>61.2</ele>
        <time>2024-04-17T12:50:13Z</time>
      </trkpt>
      <trkpt lat="49.97899" lon="2.12201">
        <ele>61.2</ele>
        <time>2024-04-17T12:50:14Z</time>
      </trkpt>
      <trkpt lat="49.97898" lon="2.122">
        <ele>61.2</ele>
        <time>2024-04-17T12:50:15Z</time>
      </trkpt>
      <trkpt lat="49.97898" lon="2.12199">
        <ele>61.2</ele>
        <time>2024-04-17T12:50:16Z</time>
      </trkpt>
      <trkpt lat="49.97897" lon="2.12198">
        <ele>61.1</ele>
        <time>2024-04-17T12:50:17Z</time>
      </trkpt>
      <trkpt lat="49.97895" lon="2.12195">
        <ele>61.1</ele>
        <time>2024-04-17T12:50:18Z</time>
      </trkpt>
      <trkpt lat="49.97895" lon="2.12195">
        <ele>61.1</ele>
        <time>2024-04-17T12:50:19Z</time>
      </trkpt>
      <trkpt lat="49.97894" lon="2.12194">
        <ele>61.1</ele>
        <time>2024-04-17T12:50:20Z</time>
      </trkpt>
      <trkpt lat="49.97893" lon="2.12191">
        <ele>61</ele>
        <time>2024-04-17T12:50:21Z</time>
      </trkpt>
      <trkpt lat="49.97892" lon="2.1219">
        <ele>61</ele>
        <time>2024-04-17T12:50:22Z</time>
      </trkpt>
      <trkpt lat="49.97892" lon="2.12189">
        <ele>61</ele>
        <time>2024-04-17T12:50:23Z</time>
      </trkpt>
      <trkpt lat="49.9789" lon="2.12187">
        <ele>60.9</ele>
        <time>2024-04-17T12:50:24Z</time>
      </trkpt>
      <trkpt lat="49.9789" lon="2.12186">
        <ele>60.9</ele>
        <time>2024-04-17T12:50:25Z</time>
      </trkpt>
      <trkpt lat="49.97889" lon="2.12185">
        <ele>60.9</ele>
        <time>2024-04-17T12:50:26Z</time>
      </trkpt>
      <trkpt lat="49.97888" lon="2.12182">
        <ele>60.9</ele>
        <time>2024-04-17T12:50:27Z</time>
      </trkpt>
      <trkpt lat="49.97887" lon="2.12181">
        <ele>60.8</ele>
        <time>2024-04-17T12:50:28Z</time>
      </trkpt>
      <trkpt lat="49.97887" lon="2.1218">
        <ele>60.8</ele>
        <time>2024-04-17T12:50:29Z</time>
      </trkpt>
      <trkpt lat="49.97885" lon="2.12178">
        <ele>60.8</ele>
        <time>2024-04-17T12:50:30Z</time>
      </trkpt>
      <trkpt lat="49.97884" lon="2.12177">
        <ele>60.7</ele>
        <time>2024-04-17T12:50:31Z</time>
      </trkpt>
      <trkpt lat="49.97884" lon="2.12176">
        <ele>60.7</ele>
        <time>2024-04-17T12:50:32Z</time>
      </trkpt>
      <trkpt lat="49.97882" lon="2.12173">
        <ele>60.7</ele>
        <time>2024-04-17T12:50:33Z</time>
      </trkpt>
      <trkpt lat="49.97882" lon="2.12172">
        <ele>60.6</ele>
        <time>2024-04-17T12:50:34Z</time>
      </trkpt>
      <trkpt lat="49.97881" lon="2.12171">
        <ele>60.6</ele>
        <time>2024-04-17T12:50:35Z</time>
      </trkpt>
      <trkpt lat="49.97881" lon="2.1217">
        <ele>60.6</ele>
        <time>2024-04-17T12:50:36Z</time>
      </trkpt>
      <trkpt lat="49.9788" lon="2.12168">
        <ele>60.5</ele>
        <time>2024-04-17T12:50:37Z</time>
      </trkpt>
      <trkpt lat="49.97879" lon="2.12166">
        <ele>60.5</ele>
        <time>2024-04-17T12:50:38Z</time>
      </trkpt>
      <trkpt lat="49.97879" lon="2.12165">
        <ele>60.5</ele>
        <time>2024-04-17T12:50:39Z</time>
      </trkpt>
      <trkpt lat="49.97878" lon="2.12164">
        <ele>60.4</ele>
        <time>2024-04-17T12:50:40Z</time>
      </trkpt>
      <trkpt lat="49.97877" lon="2.12163">
        <ele>60.4</ele>
        <time>2024-04-17T12:50:41Z</time>
      </trkpt>
      <trkpt lat="49.97876" lon="2.12161">
        <ele>60.4</ele>
        <time>2024-04-17T12:50:42Z</time>
      </trkpt>
      <trkpt lat="49.97876" lon="2.12161">
        <ele>60.3</ele>
        <time>2024-04-17T12:50:43Z</time>
      </trkpt>
      <trkpt lat="49.97875" lon="2.1216">
        <ele>60.3</ele>
        <time>2024-04-17T12:50:44Z</time>
      </trkpt>
      <trkpt lat="49.97874" lon="2.12159">
        <ele>60.3</ele>
        <time>2024-04-17T12:50:45Z</time>
      </trkpt>
      <trkpt lat="49.97873" lon="2.12158">
        <ele>60.2</ele>
        <time>2024-04-17T12:50:46Z</time>
      </trkpt>
      <trkpt lat="49.97872" lon="2.12158">
        <ele>60.2</ele>
        <time>2024-04-17T12:50:47Z</time>
      </trkpt>
      <trkpt lat="49.97871" lon="2.12157">
        <ele>60.2</ele>
        <time>2024-04-17T12:50:48Z</time>
      </trkpt>
      <trkpt lat="49.9787" lon="2.12156">
        <ele>60.2</ele>
        <time>2024-04-17T12:50:49Z</time>
      </trkpt>
      <trkpt lat="49.97869" lon="2.12155">
        <ele>60.1</ele>
        <time>2024-04-17T12:50:50Z</time>
      </trkpt>
      <trkpt lat="49.97868" lon="2.12154">
        <ele>60.1</ele>
        <time>2024-04-17T12:50:51Z</time>
      </trkpt>
      <trkpt lat="49.97868" lon="2.12153">
        <ele>60.1</ele>
        <time>2024-04-17T12:50:52Z</time>
      </trkpt>
      <trkpt lat="49.97867" lon="2.12152">
        <ele>60</ele>
        <time>2024-04-17T12:50:53Z</time>
      </trkpt>
      <trkpt lat="49.97867" lon="2.12151">
        <ele>60</ele>
        <time>2024-04-17T12:50:54Z</time>
      </trkpt>
      <trkpt lat="49.97866" lon="2.1215">
        <ele>60</ele>
        <time>2024-04-17T12:50:55Z</time>
      </trkpt>
      <trkpt lat="49.97865" lon="2.12149">
        <ele>60</ele>
        <time>2024-04-17T12:50:56Z</time>
      </trkpt>
      <trkpt lat="49.97865" lon="2.12148">
        <ele>59.9</ele>
        <time>2024-04-17T12:50:57Z</time>
      </trkpt>
      <trkpt lat="49.97864" lon="2.12146">
        <ele>59.9</ele>
        <time>2024-04-17T12:50:58Z</time>
      </trkpt>
      <trkpt lat="49.97863" lon="2.12145">
        <ele>59.9</ele>
        <time>2024-04-17T12:50:59Z</time>
      </trkpt>
      <trkpt lat="49.97863" lon="2.12144">
        <ele>59.8</ele>
        <time>2024-04-17T12:51:00Z</time>
      </trkpt>
      <trkpt lat="49.97862" lon="2.12143">
        <ele>59.8</ele>
        <time>2024-04-17T12:51:01Z</time>
      </trkpt>
      <trkpt lat="49.97861" lon="2.12142">
        <ele>59.8</ele>
        <time>2024-04-17T12:51:02Z</time>
      </trkpt>
      <trkpt lat="49.9786" lon="2.1214">
        <ele>59.7</ele>
        <time>2024-04-17T12:51:03Z</time>
      </trkpt>
      <trkpt lat="49.9786" lon="2.12139">
        <ele>59.7</ele>
        <time>2024-04-17T12:51:04Z</time>
      </trkpt>
      <trkpt lat="49.97859" lon="2.12138">
        <ele>59.7</ele>
        <time>2024-04-17T12:51:05Z</time>
      </trkpt>
      <trkpt lat="49.97858" lon="2.12137">
        <ele>59.7</ele>
        <time>2024-04-17T12:51:06Z</time>
      </trkpt>
      <trkpt lat="49.97858" lon="2.12135">
        <ele>59.6</ele>
        <time>2024-04-17T12:51:07Z</time>
      </trkpt>
      <trkpt lat="49.97857" lon="2.12134">
        <ele>59.6</ele>
        <time>2024-04-17T12:51:08Z</time>
      </trkpt>
      <trkpt lat="49.97856" lon="2.12132">
        <ele>59.6</ele>
        <time>2024-04-17T12:51:09Z</time>
      </trkpt>
      <trkpt lat="49.97855" lon="2.12131">
        <ele>59.6</ele>
        <time>2024-04-17T12:51:10Z</time>
      </trkpt>
      <trkpt lat="49.97855" lon="2.1213">
        <ele>59.5</ele>
        <time>2024-04-17T12:51:11Z</time>
      </trkpt>
      <trkpt lat="49.97854" lon="2.12128">
        <ele>59.5</ele>
        <time>2024-04-17T12:51:12Z</time>
      </trkpt>
      <trkpt lat="49.97854" lon="2.12126">
        <ele>59.5</ele>
        <time>2024-04-17T12:51:13Z</time>
      </trkpt>
      <trkpt lat="49.97853" lon="2.12124">
        <ele>59.4</ele>
        <time>2024-04-17T12:51:14Z</time>
      </trkpt>
      <trkpt lat="49.97853" lon="2.12123">
        <ele>59.4</ele>
        <time>2024-04-17T12:51:15Z</time>
      </trkpt>
      <trkpt lat="49.97852" lon="2.12121">
        <ele>59.4</ele>
        <time>2024-04-17T12:51:16Z</time>
      </trkpt>
      <trkpt lat="49.97851" lon="2.1212">
        <ele>59.4</ele>
        <time>2024-04-17T12:51:17Z</time>
      </trkpt>
      <trkpt lat="49.9785" lon="2.12119">
        <ele>59.4</ele>
        <time>2024-04-17T12:51:18Z</time>
      </trkpt>
      <trkpt lat="49.9785" lon="2.12118">
        <ele>59.3</ele>
        <time>2024-04-17T12:51:19Z</time>
      </trkpt>
      <trkpt lat="49.97849" lon="2.12117">
        <ele>59.3</ele>
        <time>2024-04-17T12:51:20Z</time>
      </trkpt>
      <trkpt lat="49.97848" lon="2.12116">
        <ele>59.3</ele>
        <time>2024-04-17T12:51:21Z</time>
      </trkpt>
      <trkpt lat="49.97847" lon="2.12115">
        <ele>59.3</ele>
        <time>2024-04-17T12:51:22Z</time>
      </trkpt>
      <trkpt lat="49.97846" lon="2.12114">
        <ele>59.3</ele>
        <time>2024-04-17T12:51:23Z</time>
      </trkpt>
      <trkpt lat="49.97846" lon="2.12113">
        <ele>59.2</ele>
        <time>2024-04-17T12:51:24Z</time>
      </trkpt>
      <trkpt lat="49.97844" lon="2.1211">
        <ele>59.2</ele>
        <time>2024-04-17T12:51:25Z</time>
      </trkpt>
      <trkpt lat="49.97844" lon="2.12109">
        <ele>59.2</ele>
        <time>2024-04-17T12:51:26Z</time>
      </trkpt>
      <trkpt lat="49.97843" lon="2.12108">
        <ele>59.2</ele>
        <time>2024-04-17T12:51:27Z</time>
      </trkpt>
      <trkpt lat="49.97842" lon="2.12105">
        <ele>59.1</ele>
        <time>2024-04-17T12:51:28Z</time>
      </trkpt>
      <trkpt lat="49.97842" lon="2.12104">
        <ele>59.1</ele>
        <time>2024-04-17T12:51:29Z</time>
      </trkpt>
      <trkpt lat="49.97841" lon="2.12103">
        <ele>59.1</ele>
        <time>2024-04-17T12:51:30Z</time>
      </trkpt>
      <trkpt lat="49.9784" lon="2.12101">
        <ele>59</ele>
        <time>2024-04-17T12:51:31Z</time>
      </trkpt>
      <trkpt lat="49.97839" lon="2.121">
        <ele>59</ele>
        <time>2024-04-17T12:51:32Z</time>
      </trkpt>
      <trkpt lat="49.97839" lon="2.12099">
        <ele>59</ele>
        <time>2024-04-17T12:51:33Z</time>
      </trkpt>
      <trkpt lat="49.97837" lon="2.12097">
        <ele>58.9</ele>
        <time>2024-04-17T12:51:34Z</time>
      </trkpt>
      <trkpt lat="49.97837" lon="2.12096">
        <ele>58.9</ele>
        <time>2024-04-17T12:51:35Z</time>
      </trkpt>
      <trkpt lat="49.97836" lon="2.12095">
        <ele>58.9</ele>
        <time>2024-04-17T12:51:36Z</time>
      </trkpt>
      <trkpt lat="49.97835" lon="2.12092">
        <ele>58.8</ele>
        <time>2024-04-17T12:51:37Z</time>
      </trkpt>
      <trkpt lat="49.97834" lon="2.12091">
        <ele>58.8</ele>
        <time>2024-04-17T12:51:38Z</time>
      </trkpt>
      <trkpt lat="49.97834" lon="2.1209">
        <ele>58.7</ele>
        <time>2024-04-17T12:51:39Z</time>
      </trkpt>
      <trkpt lat="49.97833" lon="2.12088">
        <ele>58.7</ele>
        <time>2024-04-17T12:51:40Z</time>
      </trkpt>
      <trkpt lat="49.97832" lon="2.12087">
        <ele>58.7</ele>
        <time>2024-04-17T12:51:41Z</time>
      </trkpt>
      <trkpt lat="49.97831" lon="2.12086">
        <ele>58.6</ele>
        <time>2024-04-17T12:51:42Z</time>
      </trkpt>
      <trkpt lat="49.97831" lon="2.12085">
        <ele>58.6</ele>
        <time>2024-04-17T12:51:43Z</time>
      </trkpt>
      <trkpt lat="49.9783" lon="2.12083">
        <ele>58.6</ele>
        <time>2024-04-17T12:51:44Z</time>
      </trkpt>
      <trkpt lat="49.97829" lon="2.12082">
        <ele>58.5</ele>
        <time>2024-04-17T12:51:45Z</time>
      </trkpt>
      <trkpt lat="49.97828" lon="2.12079">
        <ele>58.4</ele>
        <time>2024-04-17T12:51:46Z</time>
      </trkpt>
      <trkpt lat="49.97828" lon="2.12078">
        <ele>58.4</ele>
        <time>2024-04-17T12:51:47Z</time>
      </trkpt>
      <trkpt lat="49.97827" lon="2.12077">
        <ele>58.4</ele>
        <time>2024-04-17T12:51:48Z</time>
      </trkpt>
      <trkpt lat="49.97826" lon="2.12076">
        <ele>58.3</ele>
        <time>2024-04-17T12:51:49Z</time>
      </trkpt>
      <trkpt lat="49.97826" lon="2.12074">
        <ele>58.3</ele>
        <time>2024-04-17T12:51:50Z</time>
      </trkpt>
      <trkpt lat="49.97825" lon="2.12073">
        <ele>58.2</ele>
        <time>2024-04-17T12:51:51Z</time>
      </trkpt>
      <trkpt lat="49.97823" lon="2.1207">
        <ele>58.2</ele>
        <time>2024-04-17T12:51:52Z</time>
      </trkpt>
      <trkpt lat="49.97823" lon="2.12069">
        <ele>58.1</ele>
        <time>2024-04-17T12:51:53Z</time>
      </trkpt>
      <trkpt lat="49.97822" lon="2.12068">
        <ele>58.1</ele>
        <time>2024-04-17T12:51:54Z</time>
      </trkpt>
      <trkpt lat="49.97821" lon="2.12066">
        <ele>58</ele>
        <time>2024-04-17T12:51:55Z</time>
      </trkpt>
      <trkpt lat="49.9782" lon="2.12065">
        <ele>58</ele>
        <time>2024-04-17T12:51:56Z</time>
      </trkpt>
      <trkpt lat="49.9782" lon="2.12065">
        <ele>57.9</ele>
        <time>2024-04-17T12:51:57Z</time>
      </trkpt>
      <trkpt lat="49.97818" lon="2.12062">
        <ele>57.9</ele>
        <time>2024-04-17T12:51:58Z</time>
      </trkpt>
      <trkpt lat="49.97818" lon="2.12061">
        <ele>57.8</ele>
        <time>2024-04-17T12:51:59Z</time>
      </trkpt>
      <trkpt lat="49.97817" lon="2.1206">
        <ele>57.8</ele>
        <time>2024-04-17T12:52:00Z</time>
      </trkpt>
      <trkpt lat="49.97816" lon="2.12059">
        <ele>57.8</ele>
        <time>2024-04-17T12:52:01Z</time>
      </trkpt>
      <trkpt lat="49.97816" lon="2.12058">
        <ele>57.7</ele>
        <time>2024-04-17T12:52:02Z</time>
      </trkpt>
      <trkpt lat="49.97815" lon="2.12057">
        <ele>57.7</ele>
        <time>2024-04-17T12:52:03Z</time>
      </trkpt>
      <trkpt lat="49.97814" lon="2.12056">
        <ele>57.6</ele>
        <time>2024-04-17T12:52:04Z</time>
      </trkpt>
      <trkpt lat="49.97813" lon="2.12055">
        <ele>57.6</ele>
        <time>2024-04-17T12:52:05Z</time>
      </trkpt>
      <trkpt lat="49.97812" lon="2.12053">
        <ele>57.5</ele>
        <time>2024-04-17T12:52:06Z</time>
      </trkpt>
      <trkpt lat="49.97811" lon="2.12052">
        <ele>57.5</ele>
        <time>2024-04-17T12:52:07Z</time>
      </trkpt>
      <trkpt lat="49.97811" lon="2.12051">
        <ele>57.5</ele>
        <time>2024-04-17T12:52:08Z</time>
      </trkpt>
      <trkpt lat="49.9781" lon="2.1205">
        <ele>57.4</ele>
        <time>2024-04-17T12:52:09Z</time>
      </trkpt>
      <trkpt lat="49.97809" lon="2.12049">
        <ele>57.4</ele>
        <time>2024-04-17T12:52:10Z</time>
      </trkpt>
      <trkpt lat="49.97808" lon="2.12048">
        <ele>57.3</ele>
        <time>2024-04-17T12:52:11Z</time>
      </trkpt>
      <trkpt lat="49.97807" lon="2.12047">
        <ele>57.3</ele>
        <time>2024-04-17T12:52:12Z</time>
      </trkpt>
      <trkpt lat="49.97806" lon="2.12046">
        <ele>57.3</ele>
        <time>2024-04-17T12:52:13Z</time>
      </trkpt>
      <trkpt lat="49.97806" lon="2.12045">
        <ele>57.2</ele>
        <time>2024-04-17T12:52:14Z</time>
      </trkpt>
      <trkpt lat="49.97805" lon="2.12044">
        <ele>57.2</ele>
        <time>2024-04-17T12:52:15Z</time>
      </trkpt>
      <trkpt lat="49.97804" lon="2.12043">
        <ele>57.2</ele>
        <time>2024-04-17T12:52:16Z</time>
      </trkpt>
      <trkpt lat="49.97803" lon="2.12042">
        <ele>57.1</ele>
        <time>2024-04-17T12:52:17Z</time>
      </trkpt>
      <trkpt lat="49.97803" lon="2.12041">
        <ele>57.1</ele>
        <time>2024-04-17T12:52:18Z</time>
      </trkpt>
      <trkpt lat="49.97802" lon="2.1204">
        <ele>57</ele>
        <time>2024-04-17T12:52:19Z</time>
      </trkpt>
      <trkpt lat="49.97802" lon="2.12039">
        <ele>57</ele>
        <time>2024-04-17T12:52:20Z</time>
      </trkpt>
      <trkpt lat="49.97802" lon="2.12037">
        <ele>57</ele>
        <time>2024-04-17T12:52:21Z</time>
      </trkpt>
      <trkpt lat="49.97801" lon="2.12036">
        <ele>56.9</ele>
        <time>2024-04-17T12:52:22Z</time>
      </trkpt>
      <trkpt lat="49.978" lon="2.12035">
        <ele>56.9</ele>
        <time>2024-04-17T12:52:23Z</time>
      </trkpt>
      <trkpt lat="49.97799" lon="2.12033">
        <ele>56.8</ele>
        <time>2024-04-17T12:52:24Z</time>
      </trkpt>
      <trkpt lat="49.97798" lon="2.12031">
        <ele>56.7</ele>
        <time>2024-04-17T12:52:25Z</time>
      </trkpt>
      <trkpt lat="49.97797" lon="2.1203">
        <ele>56.7</ele>
        <time>2024-04-17T12:52:26Z</time>
      </trkpt>
      <trkpt lat="49.97797" lon="2.12029">
        <ele>56.6</ele>
        <time>2024-04-17T12:52:27Z</time>
      </trkpt>
      <trkpt lat="49.97796" lon="2.12027">
        <ele>56.6</ele>
        <time>2024-04-17T12:52:28Z</time>
      </trkpt>
      <trkpt lat="49.97795" lon="2.12026">
        <ele>56.5</ele>
        <time>2024-04-17T12:52:29Z</time>
      </trkpt>
      <trkpt lat="49.97794" lon="2.12024">
        <ele>56.5</ele>
        <time>2024-04-17T12:52:30Z</time>
      </trkpt>
      <trkpt lat="49.97793" lon="2.12022">
        <ele>56.4</ele>
        <time>2024-04-17T12:52:31Z</time>
      </trkpt>
      <trkpt lat="49.97792" lon="2.12021">
        <ele>56.4</ele>
        <time>2024-04-17T12:52:32Z</time>
      </trkpt>
      <trkpt lat="49.97792" lon="2.1202">
        <ele>56.3</ele>
        <time>2024-04-17T12:52:33Z</time>
      </trkpt>
      <trkpt lat="49.97791" lon="2.12019">
        <ele>56.3</ele>
        <time>2024-04-17T12:52:34Z</time>
      </trkpt>
      <trkpt lat="49.9779" lon="2.12017">
        <ele>56.2</ele>
        <time>2024-04-17T12:52:35Z</time>
      </trkpt>
      <trkpt lat="49.97789" lon="2.12016">
        <ele>56.2</ele>
        <time>2024-04-17T12:52:36Z</time>
      </trkpt>
      <trkpt lat="49.97788" lon="2.12013">
        <ele>56.1</ele>
        <time>2024-04-17T12:52:37Z</time>
      </trkpt>
      <trkpt lat="49.97788" lon="2.12012">
        <ele>56.1</ele>
        <time>2024-04-17T12:52:38Z</time>
      </trkpt>
      <trkpt lat="49.97787" lon="2.12011">
        <ele>56.1</ele>
        <time>2024-04-17T12:52:39Z</time>
      </trkpt>
      <trkpt lat="49.97786" lon="2.12009">
        <ele>56</ele>
        <time>2024-04-17T12:52:40Z</time>
      </trkpt>
      <trkpt lat="49.97785" lon="2.12008">
        <ele>56</ele>
        <time>2024-04-17T12:52:41Z</time>
      </trkpt>
      <trkpt lat="49.97784" lon="2.12007">
        <ele>55.9</ele>
        <time>2024-04-17T12:52:42Z</time>
      </trkpt>
      <trkpt lat="49.97783" lon="2.12005">
        <ele>55.9</ele>
        <time>2024-04-17T12:52:43Z</time>
      </trkpt>
      <trkpt lat="49.97783" lon="2.12004">
        <ele>55.9</ele>
        <time>2024-04-17T12:52:44Z</time>
      </trkpt>
      <trkpt lat="49.97782" lon="2.12003">
        <ele>55.8</ele>
        <time>2024-04-17T12:52:45Z</time>
      </trkpt>
      <trkpt lat="49.97781" lon="2.12001">
        <ele>55.8</ele>
        <time>2024-04-17T12:52:46Z</time>
      </trkpt>
      <trkpt lat="49.97781" lon="2.12">
        <ele>55.7</ele>
        <time>2024-04-17T12:52:47Z</time>
      </trkpt>
      <trkpt lat="49.9778" lon="2.11999">
        <ele>55.7</ele>
        <time>2024-04-17T12:52:48Z</time>
      </trkpt>
      <trkpt lat="49.97779" lon="2.11997">
        <ele>55.7</ele>
        <time>2024-04-17T12:52:49Z</time>
      </trkpt>
      <trkpt lat="49.97778" lon="2.11996">
        <ele>55.6</ele>
        <time>2024-04-17T12:52:50Z</time>
      </trkpt>
      <trkpt lat="49.97778" lon="2.11995">
        <ele>55.6</ele>
        <time>2024-04-17T12:52:51Z</time>
      </trkpt>
      <trkpt lat="49.97777" lon="2.11993">
        <ele>55.6</ele>
        <time>2024-04-17T12:52:52Z</time>
      </trkpt>
      <trkpt lat="49.97777" lon="2.11992">
        <ele>55.5</ele>
        <time>2024-04-17T12:52:53Z</time>
      </trkpt>
      <trkpt lat="49.97776" lon="2.11991">
        <ele>55.5</ele>
        <time>2024-04-17T12:52:54Z</time>
      </trkpt>
      <trkpt lat="49.97776" lon="2.1199">
        <ele>55.5</ele>
        <time>2024-04-17T12:52:55Z</time>
      </trkpt>
      <trkpt lat="49.97775" lon="2.11988">
        <ele>55.4</ele>
        <time>2024-04-17T12:52:56Z</time>
      </trkpt>
      <trkpt lat="49.97775" lon="2.11987">
        <ele>55.4</ele>
        <time>2024-04-17T12:52:57Z</time>
      </trkpt>
      <trkpt lat="49.97775" lon="2.11985">
        <ele>55.4</ele>
        <time>2024-04-17T12:52:58Z</time>
      </trkpt>
      <trkpt lat="49.97774" lon="2.11984">
        <ele>55.3</ele>
        <time>2024-04-17T12:52:59Z</time>
      </trkpt>
      <trkpt lat="49.97775" lon="2.11982">
        <ele>55.3</ele>
        <time>2024-04-17T12:53:00Z</time>
      </trkpt>
      <trkpt lat="49.97775" lon="2.11981">
        <ele>55.3</ele>
        <time>2024-04-17T12:53:01Z</time>
      </trkpt>
      <trkpt lat="49.97775" lon="2.1198">
        <ele>55.3</ele>
        <time>2024-04-17T12:53:02Z</time>
      </trkpt>
      <trkpt lat="49.97775" lon="2.11978">
        <ele>55.2</ele>
        <time>2024-04-17T12:53:03Z</time>
      </trkpt>
      <trkpt lat="49.97775" lon="2.11977">
        <ele>55.2</ele>
        <time>2024-04-17T12:53:04Z</time>
      </trkpt>
      <trkpt lat="49.97775" lon="2.11976">
        <ele>55.2</ele>
        <time>2024-04-17T12:53:05Z</time>
      </trkpt>
      <trkpt lat="49.97775" lon="2.11976">
        <ele>55.2</ele>
        <time>2024-04-17T12:53:06Z</time>
      </trkpt>
      <trkpt lat="49.97775" lon="2.11976">
        <ele>55.2</ele>
        <time>2024-04-17T12:53:07Z</time>
      </trkpt>
      <trkpt lat="49.97775" lon="2.11976">
        <ele>55.2</ele>
        <time>2024-04-17T12:53:08Z</time>
      </trkpt>
      <trkpt lat="49.97775" lon="2.11976">
        <ele>55.2</ele>
        <time>2024-04-17T12:53:09Z</time>
      </trkpt>
      <trkpt lat="49.97775" lon="2.11976">
        <ele>55.2</ele>
        <time>2024-04-17T12:53:10Z</time>
      </trkpt>
      <trkpt lat="49.97775" lon="2.11976">
        <ele>55.2</ele>
        <time>2024-04-17T12:53:11Z</time>
      </trkpt>
      <trkpt lat="49.97775" lon="2.11976">
        <ele>55.2</ele>
        <time>2024-04-17T12:53:12Z</time>
      </trkpt>
      <trkpt lat="49.97775" lon="2.11976">
        <ele>55.2</ele>
        <time>2024-04-17T12:53:13Z</time>
      </trkpt>
      <trkpt lat="49.97775" lon="2.11976">
        <ele>55.2</ele>
        <time>2024-04-17T12:53:14Z</time>
      </trkpt>
      <trkpt lat="49.97775" lon="2.11976">
        <ele>55.2</ele>
        <time>2024-04-17T12:53:15Z</time>
      </trkpt>
      <trkpt lat="49.97775" lon="2.11976">
        <ele>55.2</ele>
        <time>2024-04-17T12:53:16Z</time>
      </trkpt>
      <trkpt lat="49.97775" lon="2.11976">
        <ele>55.2</ele>
        <time>2024-04-17T12:53:17Z</time>
      </trkpt>
      <trkpt lat="49.97775" lon="2.11976">
        <ele>55.1</ele>
        <time>2024-04-17T12:53:18Z</time>
      </trkpt>
      <trkpt lat="49.97775" lon="2.11976">
        <ele>55.1</ele>
        <time>2024-04-17T12:53:19Z</time>
      </trkpt>
      <trkpt lat="49.97775" lon="2.11976">
        <ele>55.1</ele>
        <time>2024-04-17T12:53:20Z</time>
      </trkpt>
      <trkpt lat="49.97775" lon="2.11976">
        <ele>55.1</ele>
        <time>2024-04-17T12:53:21Z</time>
      </trkpt>
      <trkpt lat="49.97775" lon="2.11976">
        <ele>55.1</ele>
        <time>2024-04-17T12:53:22Z</time>
      </trkpt>
      <trkpt lat="49.97775" lon="2.11976">
        <ele>55.1</ele>
        <time>2024-04-17T12:53:23Z</time>
      </trkpt>
      <trkpt lat="49.97775" lon="2.11976">
        <ele>55.1</ele>
        <time>2024-04-17T12:53:24Z</time>
      </trkpt>
      <trkpt lat="49.97775" lon="2.11975">
        <ele>55.1</ele>
        <time>2024-04-17T12:53:25Z</time>
      </trkpt>
      <trkpt lat="49.97774" lon="2.11974">
        <ele>55.1</ele>
        <time>2024-04-17T12:53:26Z</time>
      </trkpt>
      <trkpt lat="49.97774" lon="2.11973">
        <ele>55.1</ele>
        <time>2024-04-17T12:53:27Z</time>
      </trkpt>
      <trkpt lat="49.97774" lon="2.11971">
        <ele>55</ele>
        <time>2024-04-17T12:53:28Z</time>
      </trkpt>
      <trkpt lat="49.97774" lon="2.11969">
        <ele>55</ele>
        <time>2024-04-17T12:53:29Z</time>
      </trkpt>
      <trkpt lat="49.97774" lon="2.11968">
        <ele>54.9</ele>
        <time>2024-04-17T12:53:30Z</time>
      </trkpt>
      <trkpt lat="49.97774" lon="2.11965">
        <ele>54.9</ele>
        <time>2024-04-17T12:53:31Z</time>
      </trkpt>
      <trkpt lat="49.97774" lon="2.11963">
        <ele>54.8</ele>
        <time>2024-04-17T12:53:32Z</time>
      </trkpt>
      <trkpt lat="49.97774" lon="2.11961">
        <ele>54.8</ele>
        <time>2024-04-17T12:53:33Z</time>
      </trkpt>
      <trkpt lat="49.97774" lon="2.11959">
        <ele>54.7</ele>
        <time>2024-04-17T12:53:34Z</time>
      </trkpt>
      <trkpt lat="49.97774" lon="2.11957">
        <ele>54.6</ele>
        <time>2024-04-17T12:53:35Z</time>
      </trkpt>
      <trkpt lat="49.97774" lon="2.11955">
        <ele>54.6</ele>
        <time>2024-04-17T12:53:36Z</time>
      </trkpt>
      <trkpt lat="49.97775" lon="2.11951">
        <ele>54.4</ele>
        <time>2024-04-17T12:53:37Z</time>
      </trkpt>
      <trkpt lat="49.97775" lon="2.1195">
        <ele>54.4</ele>
        <time>2024-04-17T12:53:38Z</time>
      </trkpt>
      <trkpt lat="49.97776" lon="2.11948">
        <ele>54.3</ele>
        <time>2024-04-17T12:53:39Z</time>
      </trkpt>
      <trkpt lat="49.97777" lon="2.11947">
        <ele>54.3</ele>
        <time>2024-04-17T12:53:40Z</time>
      </trkpt>
      <trkpt lat="49.97778" lon="2.11945">
        <ele>54.2</ele>
        <time>2024-04-17T12:53:41Z</time>
      </trkpt>
      <trkpt lat="49.97779" lon="2.11944">
        <ele>54.1</ele>
        <time>2024-04-17T12:53:42Z</time>
      </trkpt>
      <trkpt lat="49.9778" lon="2.11943">
        <ele>54</ele>
        <time>2024-04-17T12:53:43Z</time>
      </trkpt>
      <trkpt lat="49.97782" lon="2.11941">
        <ele>53.9</ele>
        <time>2024-04-17T12:53:44Z</time>
      </trkpt>
      <trkpt lat="49.97783" lon="2.1194">
        <ele>53.8</ele>
        <time>2024-04-17T12:53:45Z</time>
      </trkpt>
      <trkpt lat="49.97783" lon="2.1194">
        <ele>53.7</ele>
        <time>2024-04-17T12:53:46Z</time>
      </trkpt>
      <trkpt lat="49.97785" lon="2.11938">
        <ele>53.6</ele>
        <time>2024-04-17T12:53:47Z</time>
      </trkpt>
      <trkpt lat="49.97786" lon="2.11937">
        <ele>53.6</ele>
        <time>2024-04-17T12:53:48Z</time>
      </trkpt>
      <trkpt lat="49.97787" lon="2.11937">
        <ele>53.5</ele>
        <time>2024-04-17T12:53:49Z</time>
      </trkpt>
      <trkpt lat="49.97789" lon="2.11935">
        <ele>53.4</ele>
        <time>2024-04-17T12:53:50Z</time>
      </trkpt>
      <trkpt lat="49.97789" lon="2.11935">
        <ele>53.3</ele>
        <time>2024-04-17T12:53:51Z</time>
      </trkpt>
      <trkpt lat="49.9779" lon="2.11934">
        <ele>53.2</ele>
        <time>2024-04-17T12:53:52Z</time>
      </trkpt>
      <trkpt lat="49.97792" lon="2.11933">
        <ele>53.1</ele>
        <time>2024-04-17T12:53:53Z</time>
      </trkpt>
      <trkpt lat="49.97793" lon="2.11933">
        <ele>53</ele>
        <time>2024-04-17T12:53:54Z</time>
      </trkpt>
      <trkpt lat="49.97794" lon="2.11933">
        <ele>53</ele>
        <time>2024-04-17T12:53:55Z</time>
      </trkpt>
      <trkpt lat="49.97796" lon="2.11932">
        <ele>52.8</ele>
        <time>2024-04-17T12:53:56Z</time>
      </trkpt>
      <trkpt lat="49.97797" lon="2.11932">
        <ele>52.8</ele>
        <time>2024-04-17T12:53:57Z</time>
      </trkpt>
      <trkpt lat="49.97798" lon="2.11932">
        <ele>52.7</ele>
        <time>2024-04-17T12:53:58Z</time>
      </trkpt>
      <trkpt lat="49.978" lon="2.11932">
        <ele>52.6</ele>
        <time>2024-04-17T12:53:59Z</time>
      </trkpt>
      <trkpt lat="49.978" lon="2.11931">
        <ele>52.5</ele>
        <time>2024-04-17T12:54:00Z</time>
      </trkpt>
      <trkpt lat="49.97801" lon="2.11931">
        <ele>52.4</ele>
        <time>2024-04-17T12:54:01Z</time>
      </trkpt>
      <trkpt lat="49.97802" lon="2.1193">
        <ele>52.4</ele>
        <time>2024-04-17T12:54:02Z</time>
      </trkpt>
      <trkpt lat="49.97803" lon="2.1193">
        <ele>52.3</ele>
        <time>2024-04-17T12:54:03Z</time>
      </trkpt>
      <trkpt lat="49.97804" lon="2.1193">
        <ele>52.2</ele>
        <time>2024-04-17T12:54:04Z</time>
      </trkpt>
      <trkpt lat="49.97805" lon="2.11929">
        <ele>52.1</ele>
        <time>2024-04-17T12:54:05Z</time>
      </trkpt>
      <trkpt lat="49.97806" lon="2.11928">
        <ele>52.1</ele>
        <time>2024-04-17T12:54:06Z</time>
      </trkpt>
      <trkpt lat="49.97808" lon="2.11927">
        <ele>52</ele>
        <time>2024-04-17T12:54:07Z</time>
      </trkpt>
      <trkpt lat="49.97809" lon="2.11926">
        <ele>51.9</ele>
        <time>2024-04-17T12:54:08Z</time>
      </trkpt>
      <trkpt lat="49.9781" lon="2.11925">
        <ele>51.9</ele>
        <time>2024-04-17T12:54:09Z</time>
      </trkpt>
      <trkpt lat="49.97811" lon="2.11925">
        <ele>51.8</ele>
        <time>2024-04-17T12:54:10Z</time>
      </trkpt>
      <trkpt lat="49.97812" lon="2.11924">
        <ele>51.8</ele>
        <time>2024-04-17T12:54:11Z</time>
      </trkpt>
      <trkpt lat="49.97813" lon="2.11924">
        <ele>51.7</ele>
        <time>2024-04-17T12:54:12Z</time>
      </trkpt>
      <trkpt lat="49.97814" lon="2.11923">
        <ele>51.7</ele>
        <time>2024-04-17T12:54:13Z</time>
      </trkpt>
      <trkpt lat="49.97816" lon="2.11922">
        <ele>51.6</ele>
        <time>2024-04-17T12:54:14Z</time>
      </trkpt>
      <trkpt lat="49.97817" lon="2.11921">
        <ele>51.6</ele>
        <time>2024-04-17T12:54:15Z</time>
      </trkpt>
      <trkpt lat="49.97818" lon="2.1192">
        <ele>51.6</ele>
        <time>2024-04-17T12:54:16Z</time>
      </trkpt>
      <trkpt lat="49.97819" lon="2.1192">
        <ele>51.6</ele>
        <time>2024-04-17T12:54:17Z</time>
      </trkpt>
      <trkpt lat="49.9782" lon="2.11919">
        <ele>51.6</ele>
        <time>2024-04-17T12:54:18Z</time>
      </trkpt>
      <trkpt lat="49.97821" lon="2.11918">
        <ele>51.6</ele>
        <time>2024-04-17T12:54:19Z</time>
      </trkpt>
      <trkpt lat="49.97823" lon="2.11917">
        <ele>51.5</ele>
        <time>2024-04-17T12:54:20Z</time>
      </trkpt>
      <trkpt lat="49.97823" lon="2.11916">
        <ele>51.5</ele>
        <time>2024-04-17T12:54:21Z</time>
      </trkpt>
      <trkpt lat="49.97824" lon="2.11915">
        <ele>51.5</ele>
        <time>2024-04-17T12:54:22Z</time>
      </trkpt>
      <trkpt lat="49.97826" lon="2.11914">
        <ele>51.5</ele>
        <time>2024-04-17T12:54:23Z</time>
      </trkpt>
      <trkpt lat="49.97827" lon="2.11914">
        <ele>51.5</ele>
        <time>2024-04-17T12:54:24Z</time>
      </trkpt>
      <trkpt lat="49.97827" lon="2.11913">
        <ele>51.5</ele>
        <time>2024-04-17T12:54:25Z</time>
      </trkpt>
      <trkpt lat="49.97828" lon="2.11912">
        <ele>51.5</ele>
        <time>2024-04-17T12:54:26Z</time>
      </trkpt>
      <trkpt lat="49.97829" lon="2.11911">
        <ele>51.5</ele>
        <time>2024-04-17T12:54:27Z</time>
      </trkpt>
      <trkpt lat="49.9783" lon="2.1191">
        <ele>51.5</ele>
        <time>2024-04-17T12:54:28Z</time>
      </trkpt>
      <trkpt lat="49.97832" lon="2.11908">
        <ele>51.5</ele>
        <time>2024-04-17T12:54:29Z</time>
      </trkpt>
      <trkpt lat="49.97833" lon="2.11908">
        <ele>51.5</ele>
        <time>2024-04-17T12:54:30Z</time>
      </trkpt>
      <trkpt lat="49.97834" lon="2.11907">
        <ele>51.5</ele>
        <time>2024-04-17T12:54:31Z</time>
      </trkpt>
      <trkpt lat="49.97835" lon="2.11905">
        <ele>51.5</ele>
        <time>2024-04-17T12:54:32Z</time>
      </trkpt>
      <trkpt lat="49.97836" lon="2.11904">
        <ele>51.5</ele>
        <time>2024-04-17T12:54:33Z</time>
      </trkpt>
      <trkpt lat="49.97837" lon="2.11904">
        <ele>51.5</ele>
        <time>2024-04-17T12:54:34Z</time>
      </trkpt>
      <trkpt lat="49.97838" lon="2.11902">
        <ele>51.4</ele>
        <time>2024-04-17T12:54:35Z</time>
      </trkpt>
      <trkpt lat="49.97838" lon="2.11901">
        <ele>51.4</ele>
        <time>2024-04-17T12:54:36Z</time>
      </trkpt>
      <trkpt lat="49.97839" lon="2.119">
        <ele>51.4</ele>
        <time>2024-04-17T12:54:37Z</time>
      </trkpt>
      <trkpt lat="49.9784" lon="2.11898">
        <ele>51.4</ele>
        <time>2024-04-17T12:54:38Z</time>
      </trkpt>
      <trkpt lat="49.9784" lon="2.11897">
        <ele>51.4</ele>
        <time>2024-04-17T12:54:39Z</time>
      </trkpt>
      <trkpt lat="49.97841" lon="2.11895">
        <ele>51.4</ele>
        <time>2024-04-17T12:54:40Z</time>
      </trkpt>
      <trkpt lat="49.97841" lon="2.11893">
        <ele>51.4</ele>
        <time>2024-04-17T12:54:41Z</time>
      </trkpt>
      <trkpt lat="49.97841" lon="2.11891">
        <ele>51.3</ele>
        <time>2024-04-17T12:54:42Z</time>
      </trkpt>
      <trkpt lat="49.97841" lon="2.1189">
        <ele>51.3</ele>
        <time>2024-04-17T12:54:43Z</time>
      </trkpt>
      <trkpt lat="49.97841" lon="2.11888">
        <ele>51.3</ele>
        <time>2024-04-17T12:54:44Z</time>
      </trkpt>
      <trkpt lat="49.9784" lon="2.11887">
        <ele>51.3</ele>
        <time>2024-04-17T12:54:45Z</time>
      </trkpt>
      <trkpt lat="49.9784" lon="2.11885">
        <ele>51.2</ele>
        <time>2024-04-17T12:54:46Z</time>
      </trkpt>
      <trkpt lat="49.97838" lon="2.11882">
        <ele>51.2</ele>
        <time>2024-04-17T12:54:47Z</time>
      </trkpt>
      <trkpt lat="49.97838" lon="2.11881">
        <ele>51.1</ele>
        <time>2024-04-17T12:54:48Z</time>
      </trkpt>
      <trkpt lat="49.97837" lon="2.1188">
        <ele>51.1</ele>
        <time>2024-04-17T12:54:49Z</time>
      </trkpt>
      <trkpt lat="49.97835" lon="2.11878">
        <ele>51</ele>
        <time>2024-04-17T12:54:50Z</time>
      </trkpt>
      <trkpt lat="49.97835" lon="2.11878">
        <ele>51</ele>
        <time>2024-04-17T12:54:51Z</time>
      </trkpt>
      <trkpt lat="49.97834" lon="2.11877">
        <ele>51</ele>
        <time>2024-04-17T12:54:52Z</time>
      </trkpt>
      <trkpt lat="49.97832" lon="2.11875">
        <ele>50.9</ele>
        <time>2024-04-17T12:54:53Z</time>
      </trkpt>
      <trkpt lat="49.97832" lon="2.11874">
        <ele>50.9</ele>
        <time>2024-04-17T12:54:54Z</time>
      </trkpt>
      <trkpt lat="49.97831" lon="2.11873">
        <ele>50.9</ele>
        <time>2024-04-17T12:54:55Z</time>
      </trkpt>
      <trkpt lat="49.97829" lon="2.11871">
        <ele>50.8</ele>
        <time>2024-04-17T12:54:56Z</time>
      </trkpt>
      <trkpt lat="49.97829" lon="2.1187">
        <ele>50.8</ele>
        <time>2024-04-17T12:54:57Z</time>
      </trkpt>
      <trkpt lat="49.97828" lon="2.11869">
        <ele>50.7</ele>
        <time>2024-04-17T12:54:58Z</time>
      </trkpt>
      <trkpt lat="49.97827" lon="2.11868">
        <ele>50.7</ele>
        <time>2024-04-17T12:54:59Z</time>
      </trkpt>
      <trkpt lat="49.97826" lon="2.11867">
        <ele>50.6</ele>
        <time>2024-04-17T12:55:00Z</time>
      </trkpt>
      <trkpt lat="49.97825" lon="2.11866">
        <ele>50.6</ele>
        <time>2024-04-17T12:55:01Z</time>
      </trkpt>
      <trkpt lat="49.97824" lon="2.11864">
        <ele>50.5</ele>
        <time>2024-04-17T12:55:02Z</time>
      </trkpt>
      <trkpt lat="49.97824" lon="2.11863">
        <ele>50.5</ele>
        <time>2024-04-17T12:55:03Z</time>
      </trkpt>
      <trkpt lat="49.97823" lon="2.11862">
        <ele>50.5</ele>
        <time>2024-04-17T12:55:04Z</time>
      </trkpt>
      <trkpt lat="49.97822" lon="2.1186">
        <ele>50.4</ele>
        <time>2024-04-17T12:55:05Z</time>
      </trkpt>
      <trkpt lat="49.97821" lon="2.11859">
        <ele>50.4</ele>
        <time>2024-04-17T12:55:06Z</time>
      </trkpt>
      <trkpt lat="49.97821" lon="2.11857">
        <ele>50.3</ele>
        <time>2024-04-17T12:55:07Z</time>
      </trkpt>
      <trkpt lat="49.9782" lon="2.11856">
        <ele>50.3</ele>
        <time>2024-04-17T12:55:08Z</time>
      </trkpt>
      <trkpt lat="49.97819" lon="2.11855">
        <ele>50.2</ele>
        <time>2024-04-17T12:55:09Z</time>
      </trkpt>
      <trkpt lat="49.97818" lon="2.11854">
        <ele>50.2</ele>
        <time>2024-04-17T12:55:10Z</time>
      </trkpt>
      <trkpt lat="49.97818" lon="2.11853">
        <ele>50.2</ele>
        <time>2024-04-17T12:55:11Z</time>
      </trkpt>
      <trkpt lat="49.97817" lon="2.11852">
        <ele>50.1</ele>
        <time>2024-04-17T12:55:12Z</time>
      </trkpt>
      <trkpt lat="49.97816" lon="2.11851">
        <ele>50.1</ele>
        <time>2024-04-17T12:55:13Z</time>
      </trkpt>
      <trkpt lat="49.97814" lon="2.11849">
        <ele>50</ele>
        <time>2024-04-17T12:55:14Z</time>
      </trkpt>
      <trkpt lat="49.97814" lon="2.11848">
        <ele>50</ele>
        <time>2024-04-17T12:55:15Z</time>
      </trkpt>
      <trkpt lat="49.97813" lon="2.11847">
        <ele>50</ele>
        <time>2024-04-17T12:55:16Z</time>
      </trkpt>
      <trkpt lat="49.97811" lon="2.11845">
        <ele>49.9</ele>
        <time>2024-04-17T12:55:17Z</time>
      </trkpt>
      <trkpt lat="49.97811" lon="2.11844">
        <ele>49.9</ele>
        <time>2024-04-17T12:55:18Z</time>
      </trkpt>
      <trkpt lat="49.9781" lon="2.11843">
        <ele>49.9</ele>
        <time>2024-04-17T12:55:19Z</time>
      </trkpt>
      <trkpt lat="49.97809" lon="2.1184">
        <ele>49.8</ele>
        <time>2024-04-17T12:55:20Z</time>
      </trkpt>
      <trkpt lat="49.97808" lon="2.1184">
        <ele>49.8</ele>
        <time>2024-04-17T12:55:21Z</time>
      </trkpt>
      <trkpt lat="49.97807" lon="2.11839">
        <ele>49.8</ele>
        <time>2024-04-17T12:55:22Z</time>
      </trkpt>
      <trkpt lat="49.97807" lon="2.11837">
        <ele>49.7</ele>
        <time>2024-04-17T12:55:23Z</time>
      </trkpt>
      <trkpt lat="49.97806" lon="2.11836">
        <ele>49.7</ele>
        <time>2024-04-17T12:55:24Z</time>
      </trkpt>
      <trkpt lat="49.97805" lon="2.11834">
        <ele>49.7</ele>
        <time>2024-04-17T12:55:25Z</time>
      </trkpt>
      <trkpt lat="49.97804" lon="2.11833">
        <ele>49.6</ele>
        <time>2024-04-17T12:55:26Z</time>
      </trkpt>
      <trkpt lat="49.97804" lon="2.11832">
        <ele>49.6</ele>
        <time>2024-04-17T12:55:27Z</time>
      </trkpt>
      <trkpt lat="49.97803" lon="2.11831">
        <ele>49.6</ele>
        <time>2024-04-17T12:55:28Z</time>
      </trkpt>
      <trkpt lat="49.97802" lon="2.1183">
        <ele>49.5</ele>
        <time>2024-04-17T12:55:29Z</time>
      </trkpt>
      <trkpt lat="49.97801" lon="2.11829">
        <ele>49.5</ele>
        <time>2024-04-17T12:55:30Z</time>
      </trkpt>
      <trkpt lat="49.978" lon="2.11828">
        <ele>49.4</ele>
        <time>2024-04-17T12:55:31Z</time>
      </trkpt>
      <trkpt lat="49.97799" lon="2.11827">
        <ele>49.4</ele>
        <time>2024-04-17T12:55:32Z</time>
      </trkpt>
      <trkpt lat="49.97798" lon="2.11826">
        <ele>49.4</ele>
        <time>2024-04-17T12:55:33Z</time>
      </trkpt>
      <trkpt lat="49.97797" lon="2.11825">
        <ele>49.3</ele>
        <time>2024-04-17T12:55:34Z</time>
      </trkpt>
      <trkpt lat="49.97796" lon="2.11823">
        <ele>49.3</ele>
        <time>2024-04-17T12:55:35Z</time>
      </trkpt>
      <trkpt lat="49.97795" lon="2.11822">
        <ele>49.3</ele>
        <time>2024-04-17T12:55:36Z</time>
      </trkpt>
      <trkpt lat="49.97795" lon="2.11821">
        <ele>49.2</ele>
        <time>2024-04-17T12:55:37Z</time>
      </trkpt>
      <trkpt lat="49.97793" lon="2.11819">
        <ele>49.2</ele>
        <time>2024-04-17T12:55:38Z</time>
      </trkpt>
      <trkpt lat="49.97793" lon="2.11818">
        <ele>49.2</ele>
        <time>2024-04-17T12:55:39Z</time>
      </trkpt>
      <trkpt lat="49.97792" lon="2.11817">
        <ele>49.2</ele>
        <time>2024-04-17T12:55:40Z</time>
      </trkpt>
      <trkpt lat="49.97791" lon="2.11816">
        <ele>49.1</ele>
        <time>2024-04-17T12:55:41Z</time>
      </trkpt>
      <trkpt lat="49.9779" lon="2.11815">
        <ele>49.1</ele>
        <time>2024-04-17T12:55:42Z</time>
      </trkpt>
      <trkpt lat="49.97789" lon="2.11814">
        <ele>49.1</ele>
        <time>2024-04-17T12:55:43Z</time>
      </trkpt>
      <trkpt lat="49.97788" lon="2.11812">
        <ele>49</ele>
        <time>2024-04-17T12:55:44Z</time>
      </trkpt>
      <trkpt lat="49.97787" lon="2.11811">
        <ele>49</ele>
        <time>2024-04-17T12:55:45Z</time>
      </trkpt>
      <trkpt lat="49.97787" lon="2.1181">
        <ele>49</ele>
        <time>2024-04-17T12:55:46Z</time>
      </trkpt>
      <trkpt lat="49.97786" lon="2.11809">
        <ele>49</ele>
        <time>2024-04-17T12:55:47Z</time>
      </trkpt>
      <trkpt lat="49.97785" lon="2.11808">
        <ele>48.9</ele>
        <time>2024-04-17T12:55:48Z</time>
      </trkpt>
      <trkpt lat="49.97784" lon="2.11807">
        <ele>48.9</ele>
        <time>2024-04-17T12:55:49Z</time>
      </trkpt>
      <trkpt lat="49.97783" lon="2.11805">
        <ele>48.9</ele>
        <time>2024-04-17T12:55:50Z</time>
      </trkpt>
      <trkpt lat="49.97782" lon="2.11804">
        <ele>48.8</ele>
        <time>2024-04-17T12:55:51Z</time>
      </trkpt>
      <trkpt lat="49.97781" lon="2.11803">
        <ele>48.8</ele>
        <time>2024-04-17T12:55:52Z</time>
      </trkpt>
      <trkpt lat="49.9778" lon="2.11801">
        <ele>48.8</ele>
        <time>2024-04-17T12:55:53Z</time>
      </trkpt>
      <trkpt lat="49.97779" lon="2.118">
        <ele>48.7</ele>
        <time>2024-04-17T12:55:54Z</time>
      </trkpt>
      <trkpt lat="49.97778" lon="2.11799">
        <ele>48.7</ele>
        <time>2024-04-17T12:55:55Z</time>
      </trkpt>
      <trkpt lat="49.97777" lon="2.11797">
        <ele>48.7</ele>
        <time>2024-04-17T12:55:56Z</time>
      </trkpt>
      <trkpt lat="49.97776" lon="2.11796">
        <ele>48.6</ele>
        <time>2024-04-17T12:55:57Z</time>
      </trkpt>
      <trkpt lat="49.97775" lon="2.11794">
        <ele>48.6</ele>
        <time>2024-04-17T12:55:58Z</time>
      </trkpt>
      <trkpt lat="49.97774" lon="2.11793">
        <ele>48.5</ele>
        <time>2024-04-17T12:55:59Z</time>
      </trkpt>
      <trkpt lat="49.97774" lon="2.11792">
        <ele>48.5</ele>
        <time>2024-04-17T12:56:00Z</time>
      </trkpt>
      <trkpt lat="49.97772" lon="2.11789">
        <ele>48.4</ele>
        <time>2024-04-17T12:56:01Z</time>
      </trkpt>
      <trkpt lat="49.97772" lon="2.11788">
        <ele>48.4</ele>
        <time>2024-04-17T12:56:02Z</time>
      </trkpt>
      <trkpt lat="49.97771" lon="2.11787">
        <ele>48.4</ele>
        <time>2024-04-17T12:56:03Z</time>
      </trkpt>
      <trkpt lat="49.97769" lon="2.11785">
        <ele>48.3</ele>
        <time>2024-04-17T12:56:04Z</time>
      </trkpt>
      <trkpt lat="49.97769" lon="2.11784">
        <ele>48.3</ele>
        <time>2024-04-17T12:56:05Z</time>
      </trkpt>
      <trkpt lat="49.97768" lon="2.11783">
        <ele>48.3</ele>
        <time>2024-04-17T12:56:06Z</time>
      </trkpt>
      <trkpt lat="49.97767" lon="2.11782">
        <ele>48.2</ele>
        <time>2024-04-17T12:56:07Z</time>
      </trkpt>
      <trkpt lat="49.97767" lon="2.11781">
        <ele>48.2</ele>
        <time>2024-04-17T12:56:08Z</time>
      </trkpt>
      <trkpt lat="49.97766" lon="2.11779">
        <ele>48.2</ele>
        <time>2024-04-17T12:56:09Z</time>
      </trkpt>
      <trkpt lat="49.97765" lon="2.11778">
        <ele>48.1</ele>
        <time>2024-04-17T12:56:10Z</time>
      </trkpt>
      <trkpt lat="49.97765" lon="2.11777">
        <ele>48.1</ele>
        <time>2024-04-17T12:56:11Z</time>
      </trkpt>
      <trkpt lat="49.97764" lon="2.11775">
        <ele>48.1</ele>
        <time>2024-04-17T12:56:12Z</time>
      </trkpt>
      <trkpt lat="49.97763" lon="2.11774">
        <ele>48</ele>
        <time>2024-04-17T12:56:13Z</time>
      </trkpt>
      <trkpt lat="49.97763" lon="2.11772">
        <ele>48</ele>
        <time>2024-04-17T12:56:14Z</time>
      </trkpt>
      <trkpt lat="49.97762" lon="2.11771">
        <ele>48</ele>
        <time>2024-04-17T12:56:15Z</time>
      </trkpt>
      <trkpt lat="49.9776" lon="2.11768">
        <ele>47.9</ele>
        <time>2024-04-17T12:56:16Z</time>
      </trkpt>
      <trkpt lat="49.9776" lon="2.11767">
        <ele>47.9</ele>
        <time>2024-04-17T12:56:17Z</time>
      </trkpt>
      <trkpt lat="49.97759" lon="2.11766">
        <ele>47.9</ele>
        <time>2024-04-17T12:56:18Z</time>
      </trkpt>
      <trkpt lat="49.97758" lon="2.11764">
        <ele>47.8</ele>
        <time>2024-04-17T12:56:19Z</time>
      </trkpt>
      <trkpt lat="49.97757" lon="2.11763">
        <ele>47.8</ele>
        <time>2024-04-17T12:56:20Z</time>
      </trkpt>
      <trkpt lat="49.97757" lon="2.11762">
        <ele>47.7</ele>
        <time>2024-04-17T12:56:21Z</time>
      </trkpt>
      <trkpt lat="49.97755" lon="2.1176">
        <ele>47.7</ele>
        <time>2024-04-17T12:56:22Z</time>
      </trkpt>
      <trkpt lat="49.97755" lon="2.11759">
        <ele>47.7</ele>
        <time>2024-04-17T12:56:23Z</time>
      </trkpt>
      <trkpt lat="49.97754" lon="2.11758">
        <ele>47.6</ele>
        <time>2024-04-17T12:56:24Z</time>
      </trkpt>
      <trkpt lat="49.97753" lon="2.11756">
        <ele>47.6</ele>
        <time>2024-04-17T12:56:25Z</time>
      </trkpt>
      <trkpt lat="49.97752" lon="2.11755">
        <ele>47.5</ele>
        <time>2024-04-17T12:56:26Z</time>
      </trkpt>
      <trkpt lat="49.97752" lon="2.11754">
        <ele>47.5</ele>
        <time>2024-04-17T12:56:27Z</time>
      </trkpt>
      <trkpt lat="49.9775" lon="2.11753">
        <ele>47.4</ele>
        <time>2024-04-17T12:56:28Z</time>
      </trkpt>
      <trkpt lat="49.97749" lon="2.11752">
        <ele>47.4</ele>
        <time>2024-04-17T12:56:29Z</time>
      </trkpt>
      <trkpt lat="49.97748" lon="2.11751">
        <ele>47.4</ele>
        <time>2024-04-17T12:56:30Z</time>
      </trkpt>
      <trkpt lat="49.97747" lon="2.1175">
        <ele>47.3</ele>
        <time>2024-04-17T12:56:31Z</time>
      </trkpt>
      <trkpt lat="49.97746" lon="2.11748">
        <ele>47.2</ele>
        <time>2024-04-17T12:56:32Z</time>
      </trkpt>
      <trkpt lat="49.97745" lon="2.11746">
        <ele>47.2</ele>
        <time>2024-04-17T12:56:33Z</time>
      </trkpt>
      <trkpt lat="49.97744" lon="2.11745">
        <ele>47.1</ele>
        <time>2024-04-17T12:56:34Z</time>
      </trkpt>
      <trkpt lat="49.97743" lon="2.11742">
        <ele>47.1</ele>
        <time>2024-04-17T12:56:35Z</time>
      </trkpt>
      <trkpt lat="49.97742" lon="2.11741">
        <ele>47</ele>
        <time>2024-04-17T12:56:36Z</time>
      </trkpt>
      <trkpt lat="49.97741" lon="2.1174">
        <ele>47</ele>
        <time>2024-04-17T12:56:37Z</time>
      </trkpt>
      <trkpt lat="49.97741" lon="2.11739">
        <ele>46.9</ele>
        <time>2024-04-17T12:56:38Z</time>
      </trkpt>
      <trkpt lat="49.9774" lon="2.11737">
        <ele>46.9</ele>
        <time>2024-04-17T12:56:39Z</time>
      </trkpt>
      <trkpt lat="49.97738" lon="2.11735">
        <ele>46.8</ele>
        <time>2024-04-17T12:56:40Z</time>
      </trkpt>
      <trkpt lat="49.97737" lon="2.11734">
        <ele>46.7</ele>
        <time>2024-04-17T12:56:41Z</time>
      </trkpt>
      <trkpt lat="49.97737" lon="2.11733">
        <ele>46.7</ele>
        <time>2024-04-17T12:56:42Z</time>
      </trkpt>
      <trkpt lat="49.97735" lon="2.11731">
        <ele>46.6</ele>
        <time>2024-04-17T12:56:43Z</time>
      </trkpt>
      <trkpt lat="49.97734" lon="2.1173">
        <ele>46.6</ele>
        <time>2024-04-17T12:56:44Z</time>
      </trkpt>
      <trkpt lat="49.97734" lon="2.11729">
        <ele>46.5</ele>
        <time>2024-04-17T12:56:45Z</time>
      </trkpt>
      <trkpt lat="49.97732" lon="2.11727">
        <ele>46.4</ele>
        <time>2024-04-17T12:56:46Z</time>
      </trkpt>
      <trkpt lat="49.97731" lon="2.11726">
        <ele>46.4</ele>
        <time>2024-04-17T12:56:47Z</time>
      </trkpt>
      <trkpt lat="49.97731" lon="2.11725">
        <ele>46.3</ele>
        <time>2024-04-17T12:56:48Z</time>
      </trkpt>
      <trkpt lat="49.9773" lon="2.11723">
        <ele>46.3</ele>
        <time>2024-04-17T12:56:49Z</time>
      </trkpt>
      <trkpt lat="49.97729" lon="2.11722">
        <ele>46.2</ele>
        <time>2024-04-17T12:56:50Z</time>
      </trkpt>
      <trkpt lat="49.97728" lon="2.1172">
        <ele>46.1</ele>
        <time>2024-04-17T12:56:51Z</time>
      </trkpt>
      <trkpt lat="49.97727" lon="2.11719">
        <ele>46.1</ele>
        <time>2024-04-17T12:56:52Z</time>
      </trkpt>
      <trkpt lat="49.97726" lon="2.11717">
        <ele>46</ele>
        <time>2024-04-17T12:56:53Z</time>
      </trkpt>
      <trkpt lat="49.97725" lon="2.11716">
        <ele>45.9</ele>
        <time>2024-04-17T12:56:54Z</time>
      </trkpt>
      <trkpt lat="49.97724" lon="2.11714">
        <ele>45.9</ele>
        <time>2024-04-17T12:56:55Z</time>
      </trkpt>
      <trkpt lat="49.97723" lon="2.11712">
        <ele>45.8</ele>
        <time>2024-04-17T12:56:56Z</time>
      </trkpt>
      <trkpt lat="49.97722" lon="2.1171">
        <ele>45.7</ele>
        <time>2024-04-17T12:56:57Z</time>
      </trkpt>
      <trkpt lat="49.97721" lon="2.11709">
        <ele>45.7</ele>
        <time>2024-04-17T12:56:58Z</time>
      </trkpt>
      <trkpt lat="49.97721" lon="2.11708">
        <ele>45.6</ele>
        <time>2024-04-17T12:56:59Z</time>
      </trkpt>
      <trkpt lat="49.97719" lon="2.11706">
        <ele>45.5</ele>
        <time>2024-04-17T12:57:00Z</time>
      </trkpt>
      <trkpt lat="49.97719" lon="2.11705">
        <ele>45.5</ele>
        <time>2024-04-17T12:57:01Z</time>
      </trkpt>
      <trkpt lat="49.97718" lon="2.11704">
        <ele>45.4</ele>
        <time>2024-04-17T12:57:02Z</time>
      </trkpt>
      <trkpt lat="49.97716" lon="2.11702">
        <ele>45.3</ele>
        <time>2024-04-17T12:57:03Z</time>
      </trkpt>
      <trkpt lat="49.97716" lon="2.11701">
        <ele>45.3</ele>
        <time>2024-04-17T12:57:04Z</time>
      </trkpt>
      <trkpt lat="49.97715" lon="2.117">
        <ele>45.2</ele>
        <time>2024-04-17T12:57:05Z</time>
      </trkpt>
      <trkpt lat="49.97714" lon="2.11699">
        <ele>45.2</ele>
        <time>2024-04-17T12:57:06Z</time>
      </trkpt>
      <trkpt lat="49.97713" lon="2.11698">
        <ele>45.1</ele>
        <time>2024-04-17T12:57:07Z</time>
      </trkpt>
      <trkpt lat="49.97713" lon="2.11696">
        <ele>45.1</ele>
        <time>2024-04-17T12:57:08Z</time>
      </trkpt>
      <trkpt lat="49.97712" lon="2.11695">
        <ele>45</ele>
        <time>2024-04-17T12:57:09Z</time>
      </trkpt>
      <trkpt lat="49.97711" lon="2.11694">
        <ele>45</ele>
        <time>2024-04-17T12:57:10Z</time>
      </trkpt>
      <trkpt lat="49.9771" lon="2.11693">
        <ele>44.9</ele>
        <time>2024-04-17T12:57:11Z</time>
      </trkpt>
      <trkpt lat="49.97709" lon="2.11693">
        <ele>44.9</ele>
        <time>2024-04-17T12:57:12Z</time>
      </trkpt>
      <trkpt lat="49.97708" lon="2.11692">
        <ele>44.8</ele>
        <time>2024-04-17T12:57:13Z</time>
      </trkpt>
      <trkpt lat="49.97707" lon="2.11691">
        <ele>44.8</ele>
        <time>2024-04-17T12:57:14Z</time>
      </trkpt>
      <trkpt lat="49.97706" lon="2.1169">
        <ele>44.7</ele>
        <time>2024-04-17T12:57:15Z</time>
      </trkpt>
      <trkpt lat="49.97705" lon="2.11689">
        <ele>44.7</ele>
        <time>2024-04-17T12:57:16Z</time>
      </trkpt>
      <trkpt lat="49.97704" lon="2.11688">
        <ele>44.6</ele>
        <time>2024-04-17T12:57:17Z</time>
      </trkpt>
      <trkpt lat="49.97703" lon="2.11687">
        <ele>44.6</ele>
        <time>2024-04-17T12:57:18Z</time>
      </trkpt>
      <trkpt lat="49.97702" lon="2.11686">
        <ele>44.5</ele>
        <time>2024-04-17T12:57:19Z</time>
      </trkpt>
      <trkpt lat="49.97702" lon="2.11685">
        <ele>44.5</ele>
        <time>2024-04-17T12:57:20Z</time>
      </trkpt>
      <trkpt lat="49.97701" lon="2.11684">
        <ele>44.4</ele>
        <time>2024-04-17T12:57:21Z</time>
      </trkpt>
      <trkpt lat="49.977" lon="2.11683">
        <ele>44.4</ele>
        <time>2024-04-17T12:57:22Z</time>
      </trkpt>
      <trkpt lat="49.97699" lon="2.11681">
        <ele>44.3</ele>
        <time>2024-04-17T12:57:23Z</time>
      </trkpt>
      <trkpt lat="49.97698" lon="2.11679">
        <ele>44.2</ele>
        <time>2024-04-17T12:57:24Z</time>
      </trkpt>
      <trkpt lat="49.97697" lon="2.11678">
        <ele>44.2</ele>
        <time>2024-04-17T12:57:25Z</time>
      </trkpt>
      <trkpt lat="49.97696" lon="2.11678">
        <ele>44.1</ele>
        <time>2024-04-17T12:57:26Z</time>
      </trkpt>
      <trkpt lat="49.97695" lon="2.11676">
        <ele>44.1</ele>
        <time>2024-04-17T12:57:27Z</time>
      </trkpt>
      <trkpt lat="49.97694" lon="2.11675">
        <ele>44</ele>
        <time>2024-04-17T12:57:28Z</time>
      </trkpt>
      <trkpt lat="49.97693" lon="2.11674">
        <ele>44</ele>
        <time>2024-04-17T12:57:29Z</time>
      </trkpt>
      <trkpt lat="49.97691" lon="2.11672">
        <ele>43.9</ele>
        <time>2024-04-17T12:57:30Z</time>
      </trkpt>
      <trkpt lat="49.97691" lon="2.11672">
        <ele>43.9</ele>
        <time>2024-04-17T12:57:31Z</time>
      </trkpt>
      <trkpt lat="49.9769" lon="2.11671">
        <ele>43.8</ele>
        <time>2024-04-17T12:57:32Z</time>
      </trkpt>
      <trkpt lat="49.97688" lon="2.11669">
        <ele>43.8</ele>
        <time>2024-04-17T12:57:33Z</time>
      </trkpt>
      <trkpt lat="49.97687" lon="2.11669">
        <ele>43.7</ele>
        <time>2024-04-17T12:57:34Z</time>
      </trkpt>
      <trkpt lat="49.97686" lon="2.11668">
        <ele>43.7</ele>
        <time>2024-04-17T12:57:35Z</time>
      </trkpt>
      <trkpt lat="49.97685" lon="2.11667">
        <ele>43.7</ele>
        <time>2024-04-17T12:57:36Z</time>
      </trkpt>
      <trkpt lat="49.97684" lon="2.11667">
        <ele>43.6</ele>
        <time>2024-04-17T12:57:37Z</time>
      </trkpt>
      <trkpt lat="49.97683" lon="2.11666">
        <ele>43.6</ele>
        <time>2024-04-17T12:57:38Z</time>
      </trkpt>
      <trkpt lat="49.97682" lon="2.11665">
        <ele>43.5</ele>
        <time>2024-04-17T12:57:39Z</time>
      </trkpt>
      <trkpt lat="49.97681" lon="2.11664">
        <ele>43.5</ele>
        <time>2024-04-17T12:57:40Z</time>
      </trkpt>
      <trkpt lat="49.9768" lon="2.11664">
        <ele>43.5</ele>
        <time>2024-04-17T12:57:41Z</time>
      </trkpt>
      <trkpt lat="49.97678" lon="2.11662">
        <ele>43.4</ele>
        <time>2024-04-17T12:57:42Z</time>
      </trkpt>
      <trkpt lat="49.97677" lon="2.11662">
        <ele>43.4</ele>
        <time>2024-04-17T12:57:43Z</time>
      </trkpt>
      <trkpt lat="49.97676" lon="2.11662">
        <ele>43.4</ele>
        <time>2024-04-17T12:57:44Z</time>
      </trkpt>
      <trkpt lat="49.97674" lon="2.1166">
        <ele>43.3</ele>
        <time>2024-04-17T12:57:45Z</time>
      </trkpt>
      <trkpt lat="49.97674" lon="2.1166">
        <ele>43.3</ele>
        <time>2024-04-17T12:57:46Z</time>
      </trkpt>
      <trkpt lat="49.97673" lon="2.11659">
        <ele>43.2</ele>
        <time>2024-04-17T12:57:47Z</time>
      </trkpt>
      <trkpt lat="49.97672" lon="2.11658">
        <ele>43.2</ele>
        <time>2024-04-17T12:57:48Z</time>
      </trkpt>
      <trkpt lat="49.9767" lon="2.11657">
        <ele>43.1</ele>
        <time>2024-04-17T12:57:49Z</time>
      </trkpt>
      <trkpt lat="49.97669" lon="2.11656">
        <ele>43.1</ele>
        <time>2024-04-17T12:57:50Z</time>
      </trkpt>
      <trkpt lat="49.97668" lon="2.11655">
        <ele>43</ele>
        <time>2024-04-17T12:57:51Z</time>
      </trkpt>
      <trkpt lat="49.97666" lon="2.11654">
        <ele>43</ele>
        <time>2024-04-17T12:57:52Z</time>
      </trkpt>
      <trkpt lat="49.97665" lon="2.11653">
        <ele>42.9</ele>
        <time>2024-04-17T12:57:53Z</time>
      </trkpt>
      <trkpt lat="49.97663" lon="2.11651">
        <ele>42.9</ele>
        <time>2024-04-17T12:57:54Z</time>
      </trkpt>
      <trkpt lat="49.97662" lon="2.11649">
        <ele>42.8</ele>
        <time>2024-04-17T12:57:55Z</time>
      </trkpt>
      <trkpt lat="49.97661" lon="2.11648">
        <ele>42.8</ele>
        <time>2024-04-17T12:57:56Z</time>
      </trkpt>
      <trkpt lat="49.9766" lon="2.11646">
        <ele>42.7</ele>
        <time>2024-04-17T12:57:57Z</time>
      </trkpt>
      <trkpt lat="49.97658" lon="2.11645">
        <ele>42.7</ele>
        <time>2024-04-17T12:57:58Z</time>
      </trkpt>
      <trkpt lat="49.97657" lon="2.11644">
        <ele>42.6</ele>
        <time>2024-04-17T12:57:59Z</time>
      </trkpt>
      <trkpt lat="49.97655" lon="2.11641">
        <ele>42.5</ele>
        <time>2024-04-17T12:58:00Z</time>
      </trkpt>
      <trkpt lat="49.97655" lon="2.11641">
        <ele>42.5</ele>
        <time>2024-04-17T12:58:01Z</time>
      </trkpt>
      <trkpt lat="49.97654" lon="2.1164">
        <ele>42.5</ele>
        <time>2024-04-17T12:58:02Z</time>
      </trkpt>
      <trkpt lat="49.97652" lon="2.11638">
        <ele>42.4</ele>
        <time>2024-04-17T12:58:03Z</time>
      </trkpt>
      <trkpt lat="49.97652" lon="2.11637">
        <ele>42.4</ele>
        <time>2024-04-17T12:58:04Z</time>
      </trkpt>
      <trkpt lat="49.97651" lon="2.11637">
        <ele>42.4</ele>
        <time>2024-04-17T12:58:05Z</time>
      </trkpt>
      <trkpt lat="49.97649" lon="2.11635">
        <ele>42.3</ele>
        <time>2024-04-17T12:58:06Z</time>
      </trkpt>
      <trkpt lat="49.97648" lon="2.11634">
        <ele>42.3</ele>
        <time>2024-04-17T12:58:07Z</time>
      </trkpt>
      <trkpt lat="49.97647" lon="2.11633">
        <ele>42.2</ele>
        <time>2024-04-17T12:58:08Z</time>
      </trkpt>
      <trkpt lat="49.97646" lon="2.11632">
        <ele>42.2</ele>
        <time>2024-04-17T12:58:09Z</time>
      </trkpt>
      <trkpt lat="49.97645" lon="2.11631">
        <ele>42.1</ele>
        <time>2024-04-17T12:58:10Z</time>
      </trkpt>
      <trkpt lat="49.97644" lon="2.1163">
        <ele>42.1</ele>
        <time>2024-04-17T12:58:11Z</time>
      </trkpt>
      <trkpt lat="49.97642" lon="2.11629">
        <ele>42</ele>
        <time>2024-04-17T12:58:12Z</time>
      </trkpt>
      <trkpt lat="49.97642" lon="2.11628">
        <ele>42</ele>
        <time>2024-04-17T12:58:13Z</time>
      </trkpt>
      <trkpt lat="49.97641" lon="2.11628">
        <ele>42</ele>
        <time>2024-04-17T12:58:14Z</time>
      </trkpt>
      <trkpt lat="49.9764" lon="2.11627">
        <ele>41.9</ele>
        <time>2024-04-17T12:58:15Z</time>
      </trkpt>
      <trkpt lat="49.97639" lon="2.11626">
        <ele>41.9</ele>
        <time>2024-04-17T12:58:16Z</time>
      </trkpt>
      <trkpt lat="49.97638" lon="2.11625">
        <ele>41.9</ele>
        <time>2024-04-17T12:58:17Z</time>
      </trkpt>
      <trkpt lat="49.97637" lon="2.11624">
        <ele>41.8</ele>
        <time>2024-04-17T12:58:18Z</time>
      </trkpt>
      <trkpt lat="49.97636" lon="2.11624">
        <ele>41.8</ele>
        <time>2024-04-17T12:58:19Z</time>
      </trkpt>
      <trkpt lat="49.97636" lon="2.11623">
        <ele>41.7</ele>
        <time>2024-04-17T12:58:20Z</time>
      </trkpt>
      <trkpt lat="49.97635" lon="2.11622">
        <ele>41.7</ele>
        <time>2024-04-17T12:58:21Z</time>
      </trkpt>
      <trkpt lat="49.97634" lon="2.11622">
        <ele>41.6</ele>
        <time>2024-04-17T12:58:22Z</time>
      </trkpt>
      <trkpt lat="49.97632" lon="2.11621">
        <ele>41.5</ele>
        <time>2024-04-17T12:58:23Z</time>
      </trkpt>
      <trkpt lat="49.97631" lon="2.1162">
        <ele>41.5</ele>
        <time>2024-04-17T12:58:24Z</time>
      </trkpt>
      <trkpt lat="49.9763" lon="2.11619">
        <ele>41.4</ele>
        <time>2024-04-17T12:58:25Z</time>
      </trkpt>
      <trkpt lat="49.97629" lon="2.11619">
        <ele>41.4</ele>
        <time>2024-04-17T12:58:26Z</time>
      </trkpt>
      <trkpt lat="49.97627" lon="2.11617">
        <ele>41.3</ele>
        <time>2024-04-17T12:58:27Z</time>
      </trkpt>
      <trkpt lat="49.97626" lon="2.11617">
        <ele>41.2</ele>
        <time>2024-04-17T12:58:28Z</time>
      </trkpt>
      <trkpt lat="49.97626" lon="2.11616">
        <ele>41.2</ele>
        <time>2024-04-17T12:58:29Z</time>
      </trkpt>
      <trkpt lat="49.97624" lon="2.11615">
        <ele>41.1</ele>
        <time>2024-04-17T12:58:30Z</time>
      </trkpt>
      <trkpt lat="49.97623" lon="2.11614">
        <ele>41.1</ele>
        <time>2024-04-17T12:58:31Z</time>
      </trkpt>
      <trkpt lat="49.97622" lon="2.11614">
        <ele>41</ele>
        <time>2024-04-17T12:58:32Z</time>
      </trkpt>
      <trkpt lat="49.9762" lon="2.11612">
        <ele>40.9</ele>
        <time>2024-04-17T12:58:33Z</time>
      </trkpt>
      <trkpt lat="49.9762" lon="2.11611">
        <ele>40.9</ele>
        <time>2024-04-17T12:58:34Z</time>
      </trkpt>
      <trkpt lat="49.97619" lon="2.11611">
        <ele>40.9</ele>
        <time>2024-04-17T12:58:35Z</time>
      </trkpt>
      <trkpt lat="49.97618" lon="2.1161">
        <ele>40.8</ele>
        <time>2024-04-17T12:58:36Z</time>
      </trkpt>
      <trkpt lat="49.97616" lon="2.11609">
        <ele>40.7</ele>
        <time>2024-04-17T12:58:37Z</time>
      </trkpt>
      <trkpt lat="49.97615" lon="2.11608">
        <ele>40.7</ele>
        <time>2024-04-17T12:58:38Z</time>
      </trkpt>
      <trkpt lat="49.97614" lon="2.11608">
        <ele>40.6</ele>
        <time>2024-04-17T12:58:39Z</time>
      </trkpt>
      <trkpt lat="49.97613" lon="2.11607">
        <ele>40.6</ele>
        <time>2024-04-17T12:58:40Z</time>
      </trkpt>
      <trkpt lat="49.97612" lon="2.11606">
        <ele>40.5</ele>
        <time>2024-04-17T12:58:41Z</time>
      </trkpt>
      <trkpt lat="49.97611" lon="2.11605">
        <ele>40.5</ele>
        <time>2024-04-17T12:58:42Z</time>
      </trkpt>
      <trkpt lat="49.9761" lon="2.11605">
        <ele>40.4</ele>
        <time>2024-04-17T12:58:43Z</time>
      </trkpt>
      <trkpt lat="49.97609" lon="2.11604">
        <ele>40.4</ele>
        <time>2024-04-17T12:58:44Z</time>
      </trkpt>
      <trkpt lat="49.97608" lon="2.11604">
        <ele>40.3</ele>
        <time>2024-04-17T12:58:45Z</time>
      </trkpt>
      <trkpt lat="49.97607" lon="2.11603">
        <ele>40.3</ele>
        <time>2024-04-17T12:58:46Z</time>
      </trkpt>
      <trkpt lat="49.97606" lon="2.11602">
        <ele>40.2</ele>
        <time>2024-04-17T12:58:47Z</time>
      </trkpt>
      <trkpt lat="49.97605" lon="2.11601">
        <ele>40.2</ele>
        <time>2024-04-17T12:58:48Z</time>
      </trkpt>
      <trkpt lat="49.97604" lon="2.11601">
        <ele>40.1</ele>
        <time>2024-04-17T12:58:49Z</time>
      </trkpt>
      <trkpt lat="49.97603" lon="2.116">
        <ele>40.1</ele>
        <time>2024-04-17T12:58:50Z</time>
      </trkpt>
      <trkpt lat="49.97602" lon="2.11599">
        <ele>40</ele>
        <time>2024-04-17T12:58:51Z</time>
      </trkpt>
      <trkpt lat="49.97601" lon="2.11598">
        <ele>39.9</ele>
        <time>2024-04-17T12:58:52Z</time>
      </trkpt>
      <trkpt lat="49.976" lon="2.11597">
        <ele>39.9</ele>
        <time>2024-04-17T12:58:53Z</time>
      </trkpt>
      <trkpt lat="49.97599" lon="2.11597">
        <ele>39.8</ele>
        <time>2024-04-17T12:58:54Z</time>
      </trkpt>
      <trkpt lat="49.97598" lon="2.11596">
        <ele>39.8</ele>
        <time>2024-04-17T12:58:55Z</time>
      </trkpt>
      <trkpt lat="49.97597" lon="2.11595">
        <ele>39.7</ele>
        <time>2024-04-17T12:58:56Z</time>
      </trkpt>
      <trkpt lat="49.97596" lon="2.11594">
        <ele>39.7</ele>
        <time>2024-04-17T12:58:57Z</time>
      </trkpt>
      <trkpt lat="49.97595" lon="2.11593">
        <ele>39.6</ele>
        <time>2024-04-17T12:58:58Z</time>
      </trkpt>
      <trkpt lat="49.97594" lon="2.11593">
        <ele>39.6</ele>
        <time>2024-04-17T12:58:59Z</time>
      </trkpt>
      <trkpt lat="49.97593" lon="2.11592">
        <ele>39.5</ele>
        <time>2024-04-17T12:59:00Z</time>
      </trkpt>
      <trkpt lat="49.97592" lon="2.11592">
        <ele>39.5</ele>
        <time>2024-04-17T12:59:01Z</time>
      </trkpt>
      <trkpt lat="49.9759" lon="2.11591">
        <ele>39.3</ele>
        <time>2024-04-17T12:59:02Z</time>
      </trkpt>
      <trkpt lat="49.97589" lon="2.1159">
        <ele>39.3</ele>
        <time>2024-04-17T12:59:03Z</time>
      </trkpt>
      <trkpt lat="49.97589" lon="2.1159">
        <ele>39.3</ele>
        <time>2024-04-17T12:59:04Z</time>
      </trkpt>
      <trkpt lat="49.97587" lon="2.11589">
        <ele>39.2</ele>
        <time>2024-04-17T12:59:05Z</time>
      </trkpt>
      <trkpt lat="49.97586" lon="2.11588">
        <ele>39.1</ele>
        <time>2024-04-17T12:59:06Z</time>
      </trkpt>
      <trkpt lat="49.97585" lon="2.11587">
        <ele>39.1</ele>
        <time>2024-04-17T12:59:07Z</time>
      </trkpt>
      <trkpt lat="49.97583" lon="2.11586">
        <ele>38.9</ele>
        <time>2024-04-17T12:59:08Z</time>
      </trkpt>
      <trkpt lat="49.97583" lon="2.11585">
        <ele>38.9</ele>
        <time>2024-04-17T12:59:09Z</time>
      </trkpt>
      <trkpt lat="49.97582" lon="2.11585">
        <ele>38.8</ele>
        <time>2024-04-17T12:59:10Z</time>
      </trkpt>
      <trkpt lat="49.9758" lon="2.11583">
        <ele>38.7</ele>
        <time>2024-04-17T12:59:11Z</time>
      </trkpt>
      <trkpt lat="49.97579" lon="2.11583">
        <ele>38.7</ele>
        <time>2024-04-17T12:59:12Z</time>
      </trkpt>
      <trkpt lat="49.97578" lon="2.11582">
        <ele>38.6</ele>
        <time>2024-04-17T12:59:13Z</time>
      </trkpt>
      <trkpt lat="49.97576" lon="2.1158">
        <ele>38.5</ele>
        <time>2024-04-17T12:59:14Z</time>
      </trkpt>
      <trkpt lat="49.97575" lon="2.1158">
        <ele>38.4</ele>
        <time>2024-04-17T12:59:15Z</time>
      </trkpt>
      <trkpt lat="49.97575" lon="2.11579">
        <ele>38.4</ele>
        <time>2024-04-17T12:59:16Z</time>
      </trkpt>
      <trkpt lat="49.97573" lon="2.11578">
        <ele>38.2</ele>
        <time>2024-04-17T12:59:17Z</time>
      </trkpt>
      <trkpt lat="49.97572" lon="2.11577">
        <ele>38.2</ele>
        <time>2024-04-17T12:59:18Z</time>
      </trkpt>
      <trkpt lat="49.97571" lon="2.11577">
        <ele>38.1</ele>
        <time>2024-04-17T12:59:19Z</time>
      </trkpt>
      <trkpt lat="49.97569" lon="2.11575">
        <ele>38</ele>
        <time>2024-04-17T12:59:20Z</time>
      </trkpt>
      <trkpt lat="49.97568" lon="2.11574">
        <ele>38</ele>
        <time>2024-04-17T12:59:21Z</time>
      </trkpt>
      <trkpt lat="49.97568" lon="2.11574">
        <ele>37.9</ele>
        <time>2024-04-17T12:59:22Z</time>
      </trkpt>
      <trkpt lat="49.97567" lon="2.11573">
        <ele>37.8</ele>
        <time>2024-04-17T12:59:23Z</time>
      </trkpt>
      <trkpt lat="49.97565" lon="2.11571">
        <ele>37.8</ele>
        <time>2024-04-17T12:59:24Z</time>
      </trkpt>
      <trkpt lat="49.97564" lon="2.11569">
        <ele>37.6</ele>
        <time>2024-04-17T12:59:25Z</time>
      </trkpt>
      <trkpt lat="49.97563" lon="2.11569">
        <ele>37.6</ele>
        <time>2024-04-17T12:59:26Z</time>
      </trkpt>
      <trkpt lat="49.97562" lon="2.11568">
        <ele>37.5</ele>
        <time>2024-04-17T12:59:27Z</time>
      </trkpt>
      <trkpt lat="49.9756" lon="2.11567">
        <ele>37.4</ele>
        <time>2024-04-17T12:59:28Z</time>
      </trkpt>
      <trkpt lat="49.97559" lon="2.11566">
        <ele>37.4</ele>
        <time>2024-04-17T12:59:29Z</time>
      </trkpt>
      <trkpt lat="49.97558" lon="2.11566">
        <ele>37.3</ele>
        <time>2024-04-17T12:59:30Z</time>
      </trkpt>
      <trkpt lat="49.97556" lon="2.11565">
        <ele>37.2</ele>
        <time>2024-04-17T12:59:31Z</time>
      </trkpt>
      <trkpt lat="49.97556" lon="2.11564">
        <ele>37.2</ele>
        <time>2024-04-17T12:59:32Z</time>
      </trkpt>
      <trkpt lat="49.97555" lon="2.11564">
        <ele>37.1</ele>
        <time>2024-04-17T12:59:33Z</time>
      </trkpt>
      <trkpt lat="49.97553" lon="2.11563">
        <ele>37</ele>
        <time>2024-04-17T12:59:34Z</time>
      </trkpt>
      <trkpt lat="49.97552" lon="2.11562">
        <ele>37</ele>
        <time>2024-04-17T12:59:35Z</time>
      </trkpt>
      <trkpt lat="49.97551" lon="2.11562">
        <ele>36.9</ele>
        <time>2024-04-17T12:59:36Z</time>
      </trkpt>
      <trkpt lat="49.97549" lon="2.11561">
        <ele>36.8</ele>
        <time>2024-04-17T12:59:37Z</time>
      </trkpt>
      <trkpt lat="49.97548" lon="2.1156">
        <ele>36.8</ele>
        <time>2024-04-17T12:59:38Z</time>
      </trkpt>
      <trkpt lat="49.97548" lon="2.1156">
        <ele>36.8</ele>
        <time>2024-04-17T12:59:39Z</time>
      </trkpt>
      <trkpt lat="49.97547" lon="2.11559">
        <ele>36.7</ele>
        <time>2024-04-17T12:59:40Z</time>
      </trkpt>
      <trkpt lat="49.97546" lon="2.11558">
        <ele>36.7</ele>
        <time>2024-04-17T12:59:41Z</time>
      </trkpt>
      <trkpt lat="49.97545" lon="2.11557">
        <ele>36.6</ele>
        <time>2024-04-17T12:59:42Z</time>
      </trkpt>
      <trkpt lat="49.97543" lon="2.11556">
        <ele>36.5</ele>
        <time>2024-04-17T12:59:43Z</time>
      </trkpt>
      <trkpt lat="49.97543" lon="2.11555">
        <ele>36.5</ele>
        <time>2024-04-17T12:59:44Z</time>
      </trkpt>
      <trkpt lat="49.97542" lon="2.11554">
        <ele>36.4</ele>
        <time>2024-04-17T12:59:45Z</time>
      </trkpt>
      <trkpt lat="49.97541" lon="2.11553">
        <ele>36.4</ele>
        <time>2024-04-17T12:59:46Z</time>
      </trkpt>
      <trkpt lat="49.9754" lon="2.11551">
        <ele>36.3</ele>
        <time>2024-04-17T12:59:47Z</time>
      </trkpt>
      <trkpt lat="49.9754" lon="2.1155">
        <ele>36.3</ele>
        <time>2024-04-17T12:59:48Z</time>
      </trkpt>
      <trkpt lat="49.97539" lon="2.11549">
        <ele>36.2</ele>
        <time>2024-04-17T12:59:49Z</time>
      </trkpt>
      <trkpt lat="49.97538" lon="2.11548">
        <ele>36.2</ele>
        <time>2024-04-17T12:59:50Z</time>
      </trkpt>
      <trkpt lat="49.97537" lon="2.11547">
        <ele>36.1</ele>
        <time>2024-04-17T12:59:51Z</time>
      </trkpt>
      <trkpt lat="49.97536" lon="2.11547">
        <ele>36.1</ele>
        <time>2024-04-17T12:59:52Z</time>
      </trkpt>
      <trkpt lat="49.97535" lon="2.11546">
        <ele>36</ele>
        <time>2024-04-17T12:59:53Z</time>
      </trkpt>
      <trkpt lat="49.97534" lon="2.11545">
        <ele>35.9</ele>
        <time>2024-04-17T12:59:54Z</time>
      </trkpt>
      <trkpt lat="49.97533" lon="2.11543">
        <ele>35.9</ele>
        <time>2024-04-17T12:59:55Z</time>
      </trkpt>
      <trkpt lat="49.97533" lon="2.11542">
        <ele>35.8</ele>
        <time>2024-04-17T12:59:56Z</time>
      </trkpt>
      <trkpt lat="49.97532" lon="2.11541">
        <ele>35.8</ele>
        <time>2024-04-17T12:59:57Z</time>
      </trkpt>
      <trkpt lat="49.97531" lon="2.1154">
        <ele>35.7</ele>
        <time>2024-04-17T12:59:58Z</time>
      </trkpt>
      <trkpt lat="49.9753" lon="2.11539">
        <ele>35.7</ele>
        <time>2024-04-17T12:59:59Z</time>
      </trkpt>
      <trkpt lat="49.97529" lon="2.11538">
        <ele>35.6</ele>
        <time>2024-04-17T13:00:00Z</time>
      </trkpt>
      <trkpt lat="49.97528" lon="2.11537">
        <ele>35.5</ele>
        <time>2024-04-17T13:00:01Z</time>
      </trkpt>
      <trkpt lat="49.97527" lon="2.11536">
        <ele>35.5</ele>
        <time>2024-04-17T13:00:02Z</time>
      </trkpt>
      <trkpt lat="49.97527" lon="2.11535">
        <ele>35.4</ele>
        <time>2024-04-17T13:00:03Z</time>
      </trkpt>
      <trkpt lat="49.97526" lon="2.11535">
        <ele>35.4</ele>
        <time>2024-04-17T13:00:04Z</time>
      </trkpt>
      <trkpt lat="49.97525" lon="2.11534">
        <ele>35.3</ele>
        <time>2024-04-17T13:00:05Z</time>
      </trkpt>
      <trkpt lat="49.97524" lon="2.11534">
        <ele>35.3</ele>
        <time>2024-04-17T13:00:06Z</time>
      </trkpt>
      <trkpt lat="49.97524" lon="2.11533">
        <ele>35.2</ele>
        <time>2024-04-17T13:00:07Z</time>
      </trkpt>
      <trkpt lat="49.97523" lon="2.11532">
        <ele>35.2</ele>
        <time>2024-04-17T13:00:08Z</time>
      </trkpt>
      <trkpt lat="49.97522" lon="2.11532">
        <ele>35.1</ele>
        <time>2024-04-17T13:00:09Z</time>
      </trkpt>
      <trkpt lat="49.97522" lon="2.1153">
        <ele>35.1</ele>
        <time>2024-04-17T13:00:10Z</time>
      </trkpt>
      <trkpt lat="49.97522" lon="2.11529">
        <ele>35</ele>
        <time>2024-04-17T13:00:11Z</time>
      </trkpt>
      <trkpt lat="49.97522" lon="2.11528">
        <ele>35</ele>
        <time>2024-04-17T13:00:12Z</time>
      </trkpt>
      <trkpt lat="49.97521" lon="2.11527">
        <ele>34.9</ele>
        <time>2024-04-17T13:00:13Z</time>
      </trkpt>
      <trkpt lat="49.9752" lon="2.11526">
        <ele>34.9</ele>
        <time>2024-04-17T13:00:14Z</time>
      </trkpt>
      <trkpt lat="49.97519" lon="2.11525">
        <ele>34.8</ele>
        <time>2024-04-17T13:00:15Z</time>
      </trkpt>
      <trkpt lat="49.97518" lon="2.11524">
        <ele>34.7</ele>
        <time>2024-04-17T13:00:16Z</time>
      </trkpt>
      <trkpt lat="49.97518" lon="2.11522">
        <ele>34.7</ele>
        <time>2024-04-17T13:00:17Z</time>
      </trkpt>
      <trkpt lat="49.97517" lon="2.11521">
        <ele>34.6</ele>
        <time>2024-04-17T13:00:18Z</time>
      </trkpt>
      <trkpt lat="49.97516" lon="2.1152">
        <ele>34.5</ele>
        <time>2024-04-17T13:00:19Z</time>
      </trkpt>
      <trkpt lat="49.97516" lon="2.11519">
        <ele>34.4</ele>
        <time>2024-04-17T13:00:20Z</time>
      </trkpt>
      <trkpt lat="49.97515" lon="2.11517">
        <ele>34.4</ele>
        <time>2024-04-17T13:00:21Z</time>
      </trkpt>
      <trkpt lat="49.97514" lon="2.11516">
        <ele>34.3</ele>
        <time>2024-04-17T13:00:22Z</time>
      </trkpt>
      <trkpt lat="49.97513" lon="2.11515">
        <ele>34.2</ele>
        <time>2024-04-17T13:00:23Z</time>
      </trkpt>
      <trkpt lat="49.97513" lon="2.11514">
        <ele>34.2</ele>
        <time>2024-04-17T13:00:24Z</time>
      </trkpt>
      <trkpt lat="49.97512" lon="2.11513">
        <ele>34.1</ele>
        <time>2024-04-17T13:00:25Z</time>
      </trkpt>
      <trkpt lat="49.97511" lon="2.11511">
        <ele>34</ele>
        <time>2024-04-17T13:00:26Z</time>
      </trkpt>
      <trkpt lat="49.9751" lon="2.1151">
        <ele>33.9</ele>
        <time>2024-04-17T13:00:27Z</time>
      </trkpt>
      <trkpt lat="49.9751" lon="2.11508">
        <ele>33.9</ele>
        <time>2024-04-17T13:00:28Z</time>
      </trkpt>
      <trkpt lat="49.97509" lon="2.11507">
        <ele>33.8</ele>
        <time>2024-04-17T13:00:29Z</time>
      </trkpt>
      <trkpt lat="49.97509" lon="2.11505">
        <ele>33.7</ele>
        <time>2024-04-17T13:00:30Z</time>
      </trkpt>
      <trkpt lat="49.97508" lon="2.11504">
        <ele>33.6</ele>
        <time>2024-04-17T13:00:31Z</time>
      </trkpt>
      <trkpt lat="49.97508" lon="2.11502">
        <ele>33.6</ele>
        <time>2024-04-17T13:00:32Z</time>
      </trkpt>
      <trkpt lat="49.97507" lon="2.11501">
        <ele>33.5</ele>
        <time>2024-04-17T13:00:33Z</time>
      </trkpt>
      <trkpt lat="49.97506" lon="2.11499">
        <ele>33.4</ele>
        <time>2024-04-17T13:00:34Z</time>
      </trkpt>
      <trkpt lat="49.97505" lon="2.11498">
        <ele>33.4</ele>
        <time>2024-04-17T13:00:35Z</time>
      </trkpt>
      <trkpt lat="49.97505" lon="2.11497">
        <ele>33.3</ele>
        <time>2024-04-17T13:00:36Z</time>
      </trkpt>
      <trkpt lat="49.97504" lon="2.11495">
        <ele>33.2</ele>
        <time>2024-04-17T13:00:37Z</time>
      </trkpt>
      <trkpt lat="49.97503" lon="2.11493">
        <ele>33.1</ele>
        <time>2024-04-17T13:00:38Z</time>
      </trkpt>
      <trkpt lat="49.97502" lon="2.1149">
        <ele>33</ele>
        <time>2024-04-17T13:00:39Z</time>
      </trkpt>
      <trkpt lat="49.97502" lon="2.11489">
        <ele>32.9</ele>
        <time>2024-04-17T13:00:40Z</time>
      </trkpt>
      <trkpt lat="49.97502" lon="2.11488">
        <ele>32.9</ele>
        <time>2024-04-17T13:00:41Z</time>
      </trkpt>
      <trkpt lat="49.97501" lon="2.11485">
        <ele>32.7</ele>
        <time>2024-04-17T13:00:42Z</time>
      </trkpt>
      <trkpt lat="49.975" lon="2.11484">
        <ele>32.7</ele>
        <time>2024-04-17T13:00:43Z</time>
      </trkpt>
      <trkpt lat="49.975" lon="2.11483">
        <ele>32.6</ele>
        <time>2024-04-17T13:00:44Z</time>
      </trkpt>
      <trkpt lat="49.97498" lon="2.11481">
        <ele>32.5</ele>
        <time>2024-04-17T13:00:45Z</time>
      </trkpt>
      <trkpt lat="49.97498" lon="2.1148">
        <ele>32.5</ele>
        <time>2024-04-17T13:00:46Z</time>
      </trkpt>
      <trkpt lat="49.97497" lon="2.11479">
        <ele>32.4</ele>
        <time>2024-04-17T13:00:47Z</time>
      </trkpt>
      <trkpt lat="49.97496" lon="2.11478">
        <ele>32.3</ele>
        <time>2024-04-17T13:00:48Z</time>
      </trkpt>
      <trkpt lat="49.97496" lon="2.11476">
        <ele>32.3</ele>
        <time>2024-04-17T13:00:49Z</time>
      </trkpt>
      <trkpt lat="49.97495" lon="2.11475">
        <ele>32.2</ele>
        <time>2024-04-17T13:00:50Z</time>
      </trkpt>
      <trkpt lat="49.97495" lon="2.11474">
        <ele>32.2</ele>
        <time>2024-04-17T13:00:51Z</time>
      </trkpt>
      <trkpt lat="49.97494" lon="2.11472">
        <ele>32.1</ele>
        <time>2024-04-17T13:00:52Z</time>
      </trkpt>
      <trkpt lat="49.97494" lon="2.11471">
        <ele>32</ele>
        <time>2024-04-17T13:00:53Z</time>
      </trkpt>
      <trkpt lat="49.97493" lon="2.11469">
        <ele>32</ele>
        <time>2024-04-17T13:00:54Z</time>
      </trkpt>
      <trkpt lat="49.97493" lon="2.11468">
        <ele>31.9</ele>
        <time>2024-04-17T13:00:55Z</time>
      </trkpt>
      <trkpt lat="49.97492" lon="2.11466">
        <ele>31.8</ele>
        <time>2024-04-17T13:00:56Z</time>
      </trkpt>
      <trkpt lat="49.97492" lon="2.11464">
        <ele>31.7</ele>
        <time>2024-04-17T13:00:57Z</time>
      </trkpt>
      <trkpt lat="49.97491" lon="2.11463">
        <ele>31.7</ele>
        <time>2024-04-17T13:00:58Z</time>
      </trkpt>
      <trkpt lat="49.97491" lon="2.11461">
        <ele>31.6</ele>
        <time>2024-04-17T13:00:59Z</time>
      </trkpt>
      <trkpt lat="49.9749" lon="2.1146">
        <ele>31.6</ele>
        <time>2024-04-17T13:01:00Z</time>
      </trkpt>
      <trkpt lat="49.9749" lon="2.11458">
        <ele>31.5</ele>
        <time>2024-04-17T13:01:01Z</time>
      </trkpt>
      <trkpt lat="49.9749" lon="2.11456">
        <ele>31.4</ele>
        <time>2024-04-17T13:01:02Z</time>
      </trkpt>
      <trkpt lat="49.9749" lon="2.11455">
        <ele>31.4</ele>
        <time>2024-04-17T13:01:03Z</time>
      </trkpt>
      <trkpt lat="49.97489" lon="2.11453">
        <ele>31.3</ele>
        <time>2024-04-17T13:01:04Z</time>
      </trkpt>
      <trkpt lat="49.97489" lon="2.11451">
        <ele>31.2</ele>
        <time>2024-04-17T13:01:05Z</time>
      </trkpt>
      <trkpt lat="49.97489" lon="2.1145">
        <ele>31.2</ele>
        <time>2024-04-17T13:01:06Z</time>
      </trkpt>
      <trkpt lat="49.97488" lon="2.11448">
        <ele>31.1</ele>
        <time>2024-04-17T13:01:07Z</time>
      </trkpt>
      <trkpt lat="49.97488" lon="2.11447">
        <ele>31.1</ele>
        <time>2024-04-17T13:01:09Z</time>
      </trkpt>
      <trkpt lat="49.97487" lon="2.11446">
        <ele>31</ele>
        <time>2024-04-17T13:01:10Z</time>
      </trkpt>
      <trkpt lat="49.97486" lon="2.11446">
        <ele>31</ele>
        <time>2024-04-17T13:01:11Z</time>
      </trkpt>
      <trkpt lat="49.97485" lon="2.11446">
        <ele>30.9</ele>
        <time>2024-04-17T13:01:12Z</time>
      </trkpt>
      <trkpt lat="49.97485" lon="2.11446">
        <ele>30.9</ele>
        <time>2024-04-17T13:01:13Z</time>
      </trkpt>
      <trkpt lat="49.97484" lon="2.11446">
        <ele>30.9</ele>
        <time>2024-04-17T13:01:14Z</time>
      </trkpt>
      <trkpt lat="49.97484" lon="2.11447">
        <ele>30.9</ele>
        <time>2024-04-17T13:01:15Z</time>
      </trkpt>
      <trkpt lat="49.97484" lon="2.11447">
        <ele>30.9</ele>
        <time>2024-04-17T13:01:16Z</time>
      </trkpt>
      <trkpt lat="49.97484" lon="2.11447">
        <ele>30.8</ele>
        <time>2024-04-17T13:01:17Z</time>
      </trkpt>
      <trkpt lat="49.97484" lon="2.11447">
        <ele>30.8</ele>
        <time>2024-04-17T13:01:18Z</time>
      </trkpt>
      <trkpt lat="49.97484" lon="2.11448">
        <ele>30.8</ele>
        <time>2024-04-17T13:01:19Z</time>
      </trkpt>
      <trkpt lat="49.97484" lon="2.11448">
        <ele>30.8</ele>
        <time>2024-04-17T13:01:20Z</time>
      </trkpt>
      <trkpt lat="49.97484" lon="2.11448">
        <ele>30.8</ele>
        <time>2024-04-17T13:01:21Z</time>
      </trkpt>
      <trkpt lat="49.97484" lon="2.11448">
        <ele>30.8</ele>
        <time>2024-04-17T13:01:22Z</time>
      </trkpt>
      <trkpt lat="49.97484" lon="2.11448">
        <ele>30.8</ele>
        <time>2024-04-17T13:01:23Z</time>
      </trkpt>
      <trkpt lat="49.97485" lon="2.11448">
        <ele>30.8</ele>
        <time>2024-04-17T13:01:24Z</time>
      </trkpt>
      <trkpt lat="49.97485" lon="2.11448">
        <ele>30.8</ele>
        <time>2024-04-17T13:01:25Z</time>
      </trkpt>
      <trkpt lat="49.97486" lon="2.11447">
        <ele>30.8</ele>
        <time>2024-04-17T13:01:26Z</time>
      </trkpt>
      <trkpt lat="49.97486" lon="2.11447">
        <ele>30.7</ele>
        <time>2024-04-17T13:01:27Z</time>
      </trkpt>
      <trkpt lat="49.97486" lon="2.11447">
        <ele>30.7</ele>
        <time>2024-04-17T13:01:28Z</time>
      </trkpt>
      <trkpt lat="49.97486" lon="2.11446">
        <ele>30.7</ele>
        <time>2024-04-17T13:01:29Z</time>
      </trkpt>
      <trkpt lat="49.97487" lon="2.11446">
        <ele>30.7</ele>
        <time>2024-04-17T13:01:30Z</time>
      </trkpt>
      <trkpt lat="49.97488" lon="2.11445">
        <ele>30.6</ele>
        <time>2024-04-17T13:01:31Z</time>
      </trkpt>
      <trkpt lat="49.97488" lon="2.11445">
        <ele>30.6</ele>
        <time>2024-04-17T13:01:32Z</time>
      </trkpt>
      <trkpt lat="49.97489" lon="2.11446">
        <ele>30.6</ele>
        <time>2024-04-17T13:01:33Z</time>
      </trkpt>
      <trkpt lat="49.97489" lon="2.11446">
        <ele>30.6</ele>
        <time>2024-04-17T13:01:34Z</time>
      </trkpt>
      <trkpt lat="49.9749" lon="2.11446">
        <ele>30.5</ele>
        <time>2024-04-17T13:01:35Z</time>
      </trkpt>
      <trkpt lat="49.9749" lon="2.11446">
        <ele>30.5</ele>
        <time>2024-04-17T13:01:36Z</time>
      </trkpt>
      <trkpt lat="49.9749" lon="2.11446">
        <ele>30.5</ele>
        <time>2024-04-17T13:01:37Z</time>
      </trkpt>
      <trkpt lat="49.9749" lon="2.11447">
        <ele>30.5</ele>
        <time>2024-04-17T13:01:38Z</time>
      </trkpt>
      <trkpt lat="49.97491" lon="2.11447">
        <ele>30.5</ele>
        <time>2024-04-17T13:01:39Z</time>
      </trkpt>
      <trkpt lat="49.97491" lon="2.11447">
        <ele>30.5</ele>
        <time>2024-04-17T13:01:40Z</time>
      </trkpt>
      <trkpt lat="49.97491" lon="2.11447">
        <ele>30.5</ele>
        <time>2024-04-17T13:01:41Z</time>
      </trkpt>
      <trkpt lat="49.97491" lon="2.11447">
        <ele>30.5</ele>
        <time>2024-04-17T13:01:42Z</time>
      </trkpt>
      <trkpt lat="49.97491" lon="2.11447">
        <ele>30.5</ele>
        <time>2024-04-17T13:01:43Z</time>
      </trkpt>
      <trkpt lat="49.9749" lon="2.11448">
        <ele>30.4</ele>
        <time>2024-04-17T13:01:44Z</time>
      </trkpt>
      <trkpt lat="49.9749" lon="2.11448">
        <ele>30.4</ele>
        <time>2024-04-17T13:01:45Z</time>
      </trkpt>
      <trkpt lat="49.9749" lon="2.11448">
        <ele>30.4</ele>
        <time>2024-04-17T13:01:46Z</time>
      </trkpt>
      <trkpt lat="49.9749" lon="2.11448">
        <ele>30.4</ele>
        <time>2024-04-17T13:01:47Z</time>
      </trkpt>
      <trkpt lat="49.9749" lon="2.11448">
        <ele>30.4</ele>
        <time>2024-04-17T13:01:48Z</time>
      </trkpt>
      <trkpt lat="49.9749" lon="2.11448">
        <ele>30.4</ele>
        <time>2024-04-17T13:01:49Z</time>
      </trkpt>
      <trkpt lat="49.9749" lon="2.11448">
        <ele>30.4</ele>
        <time>2024-04-17T13:01:50Z</time>
      </trkpt>
      <trkpt lat="49.9749" lon="2.11449">
        <ele>30.4</ele>
        <time>2024-04-17T13:01:51Z</time>
      </trkpt>
      <trkpt lat="49.9749" lon="2.11449">
        <ele>30.4</ele>
        <time>2024-04-17T13:01:52Z</time>
      </trkpt>
      <trkpt lat="49.97489" lon="2.11449">
        <ele>30.4</ele>
        <time>2024-04-17T13:01:53Z</time>
      </trkpt>
      <trkpt lat="49.97489" lon="2.11449">
        <ele>30.4</ele>
        <time>2024-04-17T13:01:54Z</time>
      </trkpt>
      <trkpt lat="49.97489" lon="2.11449">
        <ele>30.4</ele>
        <time>2024-04-17T13:01:55Z</time>
      </trkpt>
      <trkpt lat="49.97489" lon="2.11449">
        <ele>30.4</ele>
        <time>2024-04-17T13:01:56Z</time>
      </trkpt>
      <trkpt lat="49.97489" lon="2.11449">
        <ele>30.4</ele>
        <time>2024-04-17T13:01:57Z</time>
      </trkpt>
      <trkpt lat="49.97489" lon="2.11449">
        <ele>30.4</ele>
        <time>2024-04-17T13:01:58Z</time>
      </trkpt>
      <trkpt lat="49.97489" lon="2.11449">
        <ele>30.4</ele>
        <time>2024-04-17T13:01:59Z</time>
      </trkpt>
      <trkpt lat="49.97489" lon="2.11449">
        <ele>30.4</ele>
        <time>2024-04-17T13:02:00Z</time>
      </trkpt>
      <trkpt lat="49.97489" lon="2.11449">
        <ele>30.4</ele>
        <time>2024-04-17T13:02:01Z</time>
      </trkpt>
      <trkpt lat="49.97489" lon="2.11449">
        <ele>30.4</ele>
        <time>2024-04-17T13:02:02Z</time>
      </trkpt>
      <trkpt lat="49.97489" lon="2.11449">
        <ele>30.4</ele>
        <time>2024-04-17T13:02:03Z</time>
      </trkpt>
      <trkpt lat="49.97489" lon="2.11449">
        <ele>30.4</ele>
        <time>2024-04-17T13:02:05Z</time>
      </trkpt>
      <trkpt lat="49.97489" lon="2.11449">
        <ele>30.4</ele>
        <time>2024-04-17T13:02:06Z</time>
      </trkpt>
      <trkpt lat="49.97489" lon="2.11449">
        <ele>30.4</ele>
        <time>2024-04-17T13:02:07Z</time>
      </trkpt>
      <trkpt lat="49.97489" lon="2.11449">
        <ele>30.3</ele>
        <time>2024-04-17T13:02:08Z</time>
      </trkpt>
      <trkpt lat="49.97489" lon="2.11448">
        <ele>30.3</ele>
        <time>2024-04-17T13:02:09Z</time>
      </trkpt>
      <trkpt lat="49.97489" lon="2.11448">
        <ele>30.3</ele>
        <time>2024-04-17T13:02:10Z</time>
      </trkpt>
      <trkpt lat="49.97489" lon="2.11448">
        <ele>30.3</ele>
        <time>2024-04-17T13:02:11Z</time>
      </trkpt>
      <trkpt lat="49.97489" lon="2.11448">
        <ele>30.3</ele>
        <time>2024-04-17T13:02:12Z</time>
      </trkpt>
      <trkpt lat="49.97489" lon="2.11448">
        <ele>30.3</ele>
        <time>2024-04-17T13:02:13Z</time>
      </trkpt>
      <trkpt lat="49.97489" lon="2.11448">
        <ele>30.3</ele>
        <time>2024-04-17T13:02:14Z</time>
      </trkpt>
      <trkpt lat="49.97489" lon="2.11448">
        <ele>30.3</ele>
        <time>2024-04-17T13:02:15Z</time>
      </trkpt>
      <trkpt lat="49.97489" lon="2.11449">
        <ele>30.3</ele>
        <time>2024-04-17T13:02:16Z</time>
      </trkpt>
      <trkpt lat="49.97489" lon="2.11449">
        <ele>30.3</ele>
        <time>2024-04-17T13:02:17Z</time>
      </trkpt>
      <trkpt lat="49.97489" lon="2.11449">
        <ele>30.3</ele>
        <time>2024-04-17T13:02:18Z</time>
      </trkpt>
      <trkpt lat="49.97489" lon="2.11449">
        <ele>30.3</ele>
        <time>2024-04-17T13:02:19Z</time>
      </trkpt>
      <trkpt lat="49.97489" lon="2.11449">
        <ele>30.3</ele>
        <time>2024-04-17T13:02:20Z</time>
      </trkpt>
      <trkpt lat="49.97489" lon="2.11449">
        <ele>30.3</ele>
        <time>2024-04-17T13:02:21Z</time>
      </trkpt>
      <trkpt lat="49.97489" lon="2.11449">
        <ele>30.3</ele>
        <time>2024-04-17T13:02:23Z</time>
      </trkpt>
      <trkpt lat="49.97489" lon="2.11449">
        <ele>30.3</ele>
        <time>2024-04-17T13:02:24Z</time>
      </trkpt>
      <trkpt lat="49.97489" lon="2.11449">
        <ele>30.3</ele>
        <time>2024-04-17T13:02:25Z</time>
      </trkpt>
      <trkpt lat="49.97489" lon="2.11449">
        <ele>30.3</ele>
        <time>2024-04-17T13:02:26Z</time>
      </trkpt>
      <trkpt lat="49.97489" lon="2.11449">
        <ele>30.3</ele>
        <time>2024-04-17T13:02:27Z</time>
      </trkpt>
      <trkpt lat="49.97488" lon="2.11448">
        <ele>30.3</ele>
        <time>2024-04-17T13:02:28Z</time>
      </trkpt>
      <trkpt lat="49.97487" lon="2.11447">
        <ele>30.2</ele>
        <time>2024-04-17T13:02:29Z</time>
      </trkpt>
      <trkpt lat="49.97487" lon="2.11444">
        <ele>30.1</ele>
        <time>2024-04-17T13:02:30Z</time>
      </trkpt>
      <trkpt lat="49.97487" lon="2.11443">
        <ele>30.1</ele>
        <time>2024-04-17T13:02:31Z</time>
      </trkpt>
      <trkpt lat="49.97487" lon="2.11441">
        <ele>30</ele>
        <time>2024-04-17T13:02:32Z</time>
      </trkpt>
      <trkpt lat="49.97488" lon="2.1144">
        <ele>30</ele>
        <time>2024-04-17T13:02:33Z</time>
      </trkpt>
      <trkpt lat="49.97487" lon="2.11439">
        <ele>29.9</ele>
        <time>2024-04-17T13:02:34Z</time>
      </trkpt>
      <trkpt lat="49.97488" lon="2.11438">
        <ele>29.9</ele>
        <time>2024-04-17T13:02:35Z</time>
      </trkpt>
      <trkpt lat="49.97488" lon="2.11438">
        <ele>29.9</ele>
        <time>2024-04-17T13:02:36Z</time>
      </trkpt>
      <trkpt lat="49.97488" lon="2.11438">
        <ele>29.8</ele>
        <time>2024-04-17T13:02:37Z</time>
      </trkpt>
      <trkpt lat="49.97488" lon="2.11437">
        <ele>29.8</ele>
        <time>2024-04-17T13:02:38Z</time>
      </trkpt>
      <trkpt lat="49.97489" lon="2.11437">
        <ele>29.8</ele>
        <time>2024-04-17T13:02:39Z</time>
      </trkpt>
      <trkpt lat="49.97489" lon="2.11437">
        <ele>29.8</ele>
        <time>2024-04-17T13:02:40Z</time>
      </trkpt>
      <trkpt lat="49.97489" lon="2.11436">
        <ele>29.8</ele>
        <time>2024-04-17T13:02:41Z</time>
      </trkpt>
      <trkpt lat="49.97489" lon="2.11436">
        <ele>29.8</ele>
        <time>2024-04-17T13:02:42Z</time>
      </trkpt>
      <trkpt lat="49.9749" lon="2.11436">
        <ele>29.7</ele>
        <time>2024-04-17T13:02:43Z</time>
      </trkpt>
      <trkpt lat="49.9749" lon="2.11436">
        <ele>29.7</ele>
        <time>2024-04-17T13:02:44Z</time>
      </trkpt>
      <trkpt lat="49.9749" lon="2.11435">
        <ele>29.7</ele>
        <time>2024-04-17T13:02:45Z</time>
      </trkpt>
      <trkpt lat="49.9749" lon="2.11435">
        <ele>29.7</ele>
        <time>2024-04-17T13:02:46Z</time>
      </trkpt>
      <trkpt lat="49.9749" lon="2.11434">
        <ele>29.6</ele>
        <time>2024-04-17T13:02:47Z</time>
      </trkpt>
      <trkpt lat="49.9749" lon="2.11432">
        <ele>29.6</ele>
        <time>2024-04-17T13:02:48Z</time>
      </trkpt>
      <trkpt lat="49.9749" lon="2.11431">
        <ele>29.5</ele>
        <time>2024-04-17T13:02:49Z</time>
      </trkpt>
      <trkpt lat="49.9749" lon="2.11429">
        <ele>29.5</ele>
        <time>2024-04-17T13:02:50Z</time>
      </trkpt>
      <trkpt lat="49.97491" lon="2.11428">
        <ele>29.4</ele>
        <time>2024-04-17T13:02:51Z</time>
      </trkpt>
      <trkpt lat="49.9749" lon="2.11425">
        <ele>29.3</ele>
        <time>2024-04-17T13:02:52Z</time>
      </trkpt>
      <trkpt lat="49.9749" lon="2.11423">
        <ele>29.3</ele>
        <time>2024-04-17T13:02:53Z</time>
      </trkpt>
      <trkpt lat="49.9749" lon="2.11422">
        <ele>29.2</ele>
        <time>2024-04-17T13:02:54Z</time>
      </trkpt>
      <trkpt lat="49.97488" lon="2.11419">
        <ele>29.1</ele>
        <time>2024-04-17T13:02:55Z</time>
      </trkpt>
      <trkpt lat="49.97488" lon="2.11418">
        <ele>29.1</ele>
        <time>2024-04-17T13:02:56Z</time>
      </trkpt>
      <trkpt lat="49.97487" lon="2.11416">
        <ele>29</ele>
        <time>2024-04-17T13:02:57Z</time>
      </trkpt>
      <trkpt lat="49.97487" lon="2.11415">
        <ele>29</ele>
        <time>2024-04-17T13:02:58Z</time>
      </trkpt>
      <trkpt lat="49.97487" lon="2.11413">
        <ele>29</ele>
        <time>2024-04-17T13:02:59Z</time>
      </trkpt>
      <trkpt lat="49.97487" lon="2.11412">
        <ele>28.9</ele>
        <time>2024-04-17T13:03:00Z</time>
      </trkpt>
      <trkpt lat="49.97486" lon="2.1141">
        <ele>28.8</ele>
        <time>2024-04-17T13:03:01Z</time>
      </trkpt>
      <trkpt lat="49.97486" lon="2.11408">
        <ele>28.8</ele>
        <time>2024-04-17T13:03:02Z</time>
      </trkpt>
      <trkpt lat="49.97487" lon="2.11407">
        <ele>28.7</ele>
        <time>2024-04-17T13:03:03Z</time>
      </trkpt>
      <trkpt lat="49.97487" lon="2.11405">
        <ele>28.7</ele>
        <time>2024-04-17T13:03:04Z</time>
      </trkpt>
      <trkpt lat="49.97486" lon="2.11403">
        <ele>28.6</ele>
        <time>2024-04-17T13:03:05Z</time>
      </trkpt>
      <trkpt lat="49.97486" lon="2.114">
        <ele>28.5</ele>
        <time>2024-04-17T13:03:06Z</time>
      </trkpt>
      <trkpt lat="49.97485" lon="2.11399">
        <ele>28.4</ele>
        <time>2024-04-17T13:03:07Z</time>
      </trkpt>
      <trkpt lat="49.97485" lon="2.11398">
        <ele>28.4</ele>
        <time>2024-04-17T13:03:08Z</time>
      </trkpt>
      <trkpt lat="49.97485" lon="2.11395">
        <ele>28.3</ele>
        <time>2024-04-17T13:03:09Z</time>
      </trkpt>
      <trkpt lat="49.97484" lon="2.11393">
        <ele>28.2</ele>
        <time>2024-04-17T13:03:10Z</time>
      </trkpt>
      <trkpt lat="49.97484" lon="2.11392">
        <ele>28.2</ele>
        <time>2024-04-17T13:03:11Z</time>
      </trkpt>
      <trkpt lat="49.97483" lon="2.11391">
        <ele>28.1</ele>
        <time>2024-04-17T13:03:12Z</time>
      </trkpt>
      <trkpt lat="49.97483" lon="2.11389">
        <ele>28</ele>
        <time>2024-04-17T13:03:13Z</time>
      </trkpt>
      <trkpt lat="49.97483" lon="2.11387">
        <ele>27.9</ele>
        <time>2024-04-17T13:03:14Z</time>
      </trkpt>
      <trkpt lat="49.97482" lon="2.11385">
        <ele>27.8</ele>
        <time>2024-04-17T13:03:15Z</time>
      </trkpt>
      <trkpt lat="49.97482" lon="2.11384">
        <ele>27.7</ele>
        <time>2024-04-17T13:03:16Z</time>
      </trkpt>
      <trkpt lat="49.97481" lon="2.11382">
        <ele>27.7</ele>
        <time>2024-04-17T13:03:17Z</time>
      </trkpt>
      <trkpt lat="49.97481" lon="2.11381">
        <ele>27.6</ele>
        <time>2024-04-17T13:03:18Z</time>
      </trkpt>
      <trkpt lat="49.9748" lon="2.1138">
        <ele>27.5</ele>
        <time>2024-04-17T13:03:19Z</time>
      </trkpt>
      <trkpt lat="49.97479" lon="2.11379">
        <ele>27.4</ele>
        <time>2024-04-17T13:03:20Z</time>
      </trkpt>
      <trkpt lat="49.97478" lon="2.11377">
        <ele>27.3</ele>
        <time>2024-04-17T13:03:21Z</time>
      </trkpt>
      <trkpt lat="49.97478" lon="2.11376">
        <ele>27.3</ele>
        <time>2024-04-17T13:03:22Z</time>
      </trkpt>
      <trkpt lat="49.97477" lon="2.11374">
        <ele>27.2</ele>
        <time>2024-04-17T13:03:23Z</time>
      </trkpt>
      <trkpt lat="49.97476" lon="2.11372">
        <ele>27</ele>
        <time>2024-04-17T13:03:24Z</time>
      </trkpt>
      <trkpt lat="49.97475" lon="2.11371">
        <ele>27</ele>
        <time>2024-04-17T13:03:25Z</time>
      </trkpt>
      <trkpt lat="49.97475" lon="2.1137">
        <ele>26.9</ele>
        <time>2024-04-17T13:03:26Z</time>
      </trkpt>
      <trkpt lat="49.97474" lon="2.11367">
        <ele>26.7</ele>
        <time>2024-04-17T13:03:27Z</time>
      </trkpt>
      <trkpt lat="49.97474" lon="2.11366">
        <ele>26.7</ele>
        <time>2024-04-17T13:03:28Z</time>
      </trkpt>
      <trkpt lat="49.97473" lon="2.11364">
        <ele>26.6</ele>
        <time>2024-04-17T13:03:29Z</time>
      </trkpt>
      <trkpt lat="49.97472" lon="2.11362">
        <ele>26.5</ele>
        <time>2024-04-17T13:03:30Z</time>
      </trkpt>
      <trkpt lat="49.97472" lon="2.11361">
        <ele>26.4</ele>
        <time>2024-04-17T13:03:31Z</time>
      </trkpt>
      <trkpt lat="49.97471" lon="2.1136">
        <ele>26.3</ele>
        <time>2024-04-17T13:03:32Z</time>
      </trkpt>
      <trkpt lat="49.9747" lon="2.11357">
        <ele>26.2</ele>
        <time>2024-04-17T13:03:33Z</time>
      </trkpt>
      <trkpt lat="49.9747" lon="2.11356">
        <ele>26.1</ele>
        <time>2024-04-17T13:03:34Z</time>
      </trkpt>
      <trkpt lat="49.97469" lon="2.11355">
        <ele>26.1</ele>
        <time>2024-04-17T13:03:35Z</time>
      </trkpt>
      <trkpt lat="49.97469" lon="2.11353">
        <ele>26</ele>
        <time>2024-04-17T13:03:36Z</time>
      </trkpt>
      <trkpt lat="49.97469" lon="2.11351">
        <ele>25.9</ele>
        <time>2024-04-17T13:03:37Z</time>
      </trkpt>
      <trkpt lat="49.97468" lon="2.11349">
        <ele>25.8</ele>
        <time>2024-04-17T13:03:38Z</time>
      </trkpt>
      <trkpt lat="49.97468" lon="2.11348">
        <ele>25.7</ele>
        <time>2024-04-17T13:03:39Z</time>
      </trkpt>
      <trkpt lat="49.97467" lon="2.11346">
        <ele>25.7</ele>
        <time>2024-04-17T13:03:40Z</time>
      </trkpt>
      <trkpt lat="49.97467" lon="2.11344">
        <ele>25.6</ele>
        <time>2024-04-17T13:03:41Z</time>
      </trkpt>
      <trkpt lat="49.97466" lon="2.11343">
        <ele>25.5</ele>
        <time>2024-04-17T13:03:42Z</time>
      </trkpt>
      <trkpt lat="49.97466" lon="2.11341">
        <ele>25.4</ele>
        <time>2024-04-17T13:03:43Z</time>
      </trkpt>
      <trkpt lat="49.97466" lon="2.11339">
        <ele>25.4</ele>
        <time>2024-04-17T13:03:44Z</time>
      </trkpt>
      <trkpt lat="49.97465" lon="2.11337">
        <ele>25.3</ele>
        <time>2024-04-17T13:03:45Z</time>
      </trkpt>
      <trkpt lat="49.97465" lon="2.11336">
        <ele>25.2</ele>
        <time>2024-04-17T13:03:46Z</time>
      </trkpt>
      <trkpt lat="49.97465" lon="2.11334">
        <ele>25.1</ele>
        <time>2024-04-17T13:03:47Z</time>
      </trkpt>
      <trkpt lat="49.97464" lon="2.11332">
        <ele>25</ele>
        <time>2024-04-17T13:03:48Z</time>
      </trkpt>
      <trkpt lat="49.97464" lon="2.11331">
        <ele>25</ele>
        <time>2024-04-17T13:03:49Z</time>
      </trkpt>
      <trkpt lat="49.97463" lon="2.11329">
        <ele>24.9</ele>
        <time>2024-04-17T13:03:50Z</time>
      </trkpt>
      <trkpt lat="49.97463" lon="2.11327">
        <ele>24.8</ele>
        <time>2024-04-17T13:03:51Z</time>
      </trkpt>
      <trkpt lat="49.97463" lon="2.11326">
        <ele>24.7</ele>
        <time>2024-04-17T13:03:52Z</time>
      </trkpt>
      <trkpt lat="49.97462" lon="2.11324">
        <ele>24.7</ele>
        <time>2024-04-17T13:03:53Z</time>
      </trkpt>
      <trkpt lat="49.97461" lon="2.11323">
        <ele>24.6</ele>
        <time>2024-04-17T13:03:54Z</time>
      </trkpt>
      <trkpt lat="49.97461" lon="2.11321">
        <ele>24.5</ele>
        <time>2024-04-17T13:03:55Z</time>
      </trkpt>
      <trkpt lat="49.97461" lon="2.11319">
        <ele>24.4</ele>
        <time>2024-04-17T13:03:56Z</time>
      </trkpt>
      <trkpt lat="49.9746" lon="2.11318">
        <ele>24.4</ele>
        <time>2024-04-17T13:03:57Z</time>
      </trkpt>
      <trkpt lat="49.9746" lon="2.11316">
        <ele>24.3</ele>
        <time>2024-04-17T13:03:58Z</time>
      </trkpt>
      <trkpt lat="49.9746" lon="2.11314">
        <ele>24.2</ele>
        <time>2024-04-17T13:03:59Z</time>
      </trkpt>
      <trkpt lat="49.9746" lon="2.11313">
        <ele>24.1</ele>
        <time>2024-04-17T13:04:00Z</time>
      </trkpt>
      <trkpt lat="49.97459" lon="2.11311">
        <ele>24.1</ele>
        <time>2024-04-17T13:04:01Z</time>
      </trkpt>
      <trkpt lat="49.97459" lon="2.11309">
        <ele>24</ele>
        <time>2024-04-17T13:04:02Z</time>
      </trkpt>
      <trkpt lat="49.97459" lon="2.11308">
        <ele>23.9</ele>
        <time>2024-04-17T13:04:03Z</time>
      </trkpt>
      <trkpt lat="49.97459" lon="2.11306">
        <ele>23.9</ele>
        <time>2024-04-17T13:04:04Z</time>
      </trkpt>
      <trkpt lat="49.97458" lon="2.11304">
        <ele>23.8</ele>
        <time>2024-04-17T13:04:05Z</time>
      </trkpt>
      <trkpt lat="49.97458" lon="2.11301">
        <ele>23.7</ele>
        <time>2024-04-17T13:04:06Z</time>
      </trkpt>
      <trkpt lat="49.97458" lon="2.113">
        <ele>23.6</ele>
        <time>2024-04-17T13:04:07Z</time>
      </trkpt>
      <trkpt lat="49.97457" lon="2.11299">
        <ele>23.6</ele>
        <time>2024-04-17T13:04:08Z</time>
      </trkpt>
      <trkpt lat="49.97457" lon="2.11296">
        <ele>23.5</ele>
        <time>2024-04-17T13:04:09Z</time>
      </trkpt>
      <trkpt lat="49.97457" lon="2.11294">
        <ele>23.4</ele>
        <time>2024-04-17T13:04:10Z</time>
      </trkpt>
      <trkpt lat="49.97456" lon="2.11293">
        <ele>23.4</ele>
        <time>2024-04-17T13:04:11Z</time>
      </trkpt>
      <trkpt lat="49.97455" lon="2.1129">
        <ele>23.2</ele>
        <time>2024-04-17T13:04:12Z</time>
      </trkpt>
      <trkpt lat="49.97455" lon="2.11288">
        <ele>23.2</ele>
        <time>2024-04-17T13:04:13Z</time>
      </trkpt>
      <trkpt lat="49.97455" lon="2.11287">
        <ele>23.1</ele>
        <time>2024-04-17T13:04:14Z</time>
      </trkpt>
      <trkpt lat="49.97454" lon="2.11285">
        <ele>23.1</ele>
        <time>2024-04-17T13:04:15Z</time>
      </trkpt>
      <trkpt lat="49.97453" lon="2.11283">
        <ele>23</ele>
        <time>2024-04-17T13:04:16Z</time>
      </trkpt>
      <trkpt lat="49.97452" lon="2.11281">
        <ele>22.9</ele>
        <time>2024-04-17T13:04:17Z</time>
      </trkpt>
      <trkpt lat="49.97452" lon="2.11279">
        <ele>22.8</ele>
        <time>2024-04-17T13:04:18Z</time>
      </trkpt>
      <trkpt lat="49.97451" lon="2.11277">
        <ele>22.7</ele>
        <time>2024-04-17T13:04:19Z</time>
      </trkpt>
      <trkpt lat="49.97451" lon="2.11275">
        <ele>22.7</ele>
        <time>2024-04-17T13:04:20Z</time>
      </trkpt>
      <trkpt lat="49.9745" lon="2.11272">
        <ele>22.6</ele>
        <time>2024-04-17T13:04:21Z</time>
      </trkpt>
      <trkpt lat="49.97449" lon="2.11271">
        <ele>22.5</ele>
        <time>2024-04-17T13:04:22Z</time>
      </trkpt>
      <trkpt lat="49.97449" lon="2.1127">
        <ele>22.5</ele>
        <time>2024-04-17T13:04:23Z</time>
      </trkpt>
      <trkpt lat="49.97448" lon="2.11268">
        <ele>22.4</ele>
        <time>2024-04-17T13:04:24Z</time>
      </trkpt>
      <trkpt lat="49.97448" lon="2.11267">
        <ele>22.4</ele>
        <time>2024-04-17T13:04:25Z</time>
      </trkpt>
      <trkpt lat="49.97447" lon="2.11265">
        <ele>22.3</ele>
        <time>2024-04-17T13:04:26Z</time>
      </trkpt>
      <trkpt lat="49.97447" lon="2.11263">
        <ele>22.3</ele>
        <time>2024-04-17T13:04:27Z</time>
      </trkpt>
      <trkpt lat="49.97447" lon="2.11261">
        <ele>22.2</ele>
        <time>2024-04-17T13:04:28Z</time>
      </trkpt>
      <trkpt lat="49.97446" lon="2.11257">
        <ele>22.1</ele>
        <time>2024-04-17T13:04:29Z</time>
      </trkpt>
      <trkpt lat="49.97446" lon="2.11256">
        <ele>22.1</ele>
        <time>2024-04-17T13:04:30Z</time>
      </trkpt>
      <trkpt lat="49.97446" lon="2.11255">
        <ele>22</ele>
        <time>2024-04-17T13:04:31Z</time>
      </trkpt>
      <trkpt lat="49.97445" lon="2.11251">
        <ele>21.9</ele>
        <time>2024-04-17T13:04:32Z</time>
      </trkpt>
      <trkpt lat="49.97445" lon="2.1125">
        <ele>21.9</ele>
        <time>2024-04-17T13:04:33Z</time>
      </trkpt>
      <trkpt lat="49.97445" lon="2.11249">
        <ele>21.9</ele>
        <time>2024-04-17T13:04:34Z</time>
      </trkpt>
      <trkpt lat="49.97444" lon="2.11245">
        <ele>21.8</ele>
        <time>2024-04-17T13:04:35Z</time>
      </trkpt>
      <trkpt lat="49.97444" lon="2.11244">
        <ele>21.8</ele>
        <time>2024-04-17T13:04:36Z</time>
      </trkpt>
      <trkpt lat="49.97444" lon="2.11243">
        <ele>21.7</ele>
        <time>2024-04-17T13:04:37Z</time>
      </trkpt>
      <trkpt lat="49.97443" lon="2.1124">
        <ele>21.7</ele>
        <time>2024-04-17T13:04:38Z</time>
      </trkpt>
      <trkpt lat="49.97443" lon="2.11238">
        <ele>21.6</ele>
        <time>2024-04-17T13:04:39Z</time>
      </trkpt>
      <trkpt lat="49.97443" lon="2.11237">
        <ele>21.6</ele>
        <time>2024-04-17T13:04:40Z</time>
      </trkpt>
      <trkpt lat="49.97443" lon="2.11235">
        <ele>21.6</ele>
        <time>2024-04-17T13:04:41Z</time>
      </trkpt>
      <trkpt lat="49.97443" lon="2.11234">
        <ele>21.5</ele>
        <time>2024-04-17T13:04:42Z</time>
      </trkpt>
      <trkpt lat="49.97443" lon="2.11232">
        <ele>21.5</ele>
        <time>2024-04-17T13:04:43Z</time>
      </trkpt>
      <trkpt lat="49.97443" lon="2.11231">
        <ele>21.5</ele>
        <time>2024-04-17T13:04:44Z</time>
      </trkpt>
      <trkpt lat="49.97442" lon="2.11229">
        <ele>21.5</ele>
        <time>2024-04-17T13:04:45Z</time>
      </trkpt>
      <trkpt lat="49.97442" lon="2.11228">
        <ele>21.5</ele>
        <time>2024-04-17T13:04:46Z</time>
      </trkpt>
      <trkpt lat="49.97442" lon="2.11226">
        <ele>21.5</ele>
        <time>2024-04-17T13:04:47Z</time>
      </trkpt>
      <trkpt lat="49.97442" lon="2.11224">
        <ele>21.5</ele>
        <time>2024-04-17T13:04:48Z</time>
      </trkpt>
      <trkpt lat="49.97441" lon="2.11223">
        <ele>21.5</ele>
        <time>2024-04-17T13:04:49Z</time>
      </trkpt>
      <trkpt lat="49.97441" lon="2.11222">
        <ele>21.5</ele>
        <time>2024-04-17T13:04:50Z</time>
      </trkpt>
      <trkpt lat="49.97441" lon="2.1122">
        <ele>21.5</ele>
        <time>2024-04-17T13:04:51Z</time>
      </trkpt>
      <trkpt lat="49.97442" lon="2.11219">
        <ele>21.4</ele>
        <time>2024-04-17T13:04:52Z</time>
      </trkpt>
      <trkpt lat="49.97443" lon="2.11218">
        <ele>21.4</ele>
        <time>2024-04-17T13:04:53Z</time>
      </trkpt>
      <trkpt lat="49.97443" lon="2.11217">
        <ele>21.4</ele>
        <time>2024-04-17T13:04:54Z</time>
      </trkpt>
      <trkpt lat="49.97444" lon="2.11215">
        <ele>21.4</ele>
        <time>2024-04-17T13:04:55Z</time>
      </trkpt>
      <trkpt lat="49.97445" lon="2.11214">
        <ele>21.4</ele>
        <time>2024-04-17T13:04:56Z</time>
      </trkpt>
      <trkpt lat="49.97445" lon="2.11213">
        <ele>21.4</ele>
        <time>2024-04-17T13:04:57Z</time>
      </trkpt>
      <trkpt lat="49.97445" lon="2.11211">
        <ele>21.4</ele>
        <time>2024-04-17T13:04:58Z</time>
      </trkpt>
      <trkpt lat="49.97444" lon="2.1121">
        <ele>21.4</ele>
        <time>2024-04-17T13:04:59Z</time>
      </trkpt>
      <trkpt lat="49.97443" lon="2.1121">
        <ele>21.4</ele>
        <time>2024-04-17T13:05:00Z</time>
      </trkpt>
      <trkpt lat="49.97443" lon="2.1121">
        <ele>21.4</ele>
        <time>2024-04-17T13:05:01Z</time>
      </trkpt>
      <trkpt lat="49.97442" lon="2.1121">
        <ele>21.4</ele>
        <time>2024-04-17T13:05:02Z</time>
      </trkpt>
      <trkpt lat="49.97442" lon="2.1121">
        <ele>21.4</ele>
        <time>2024-04-17T13:05:03Z</time>
      </trkpt>
      <trkpt lat="49.97442" lon="2.1121">
        <ele>21.4</ele>
        <time>2024-04-17T13:05:04Z</time>
      </trkpt>
      <trkpt lat="49.97441" lon="2.1121">
        <ele>21.4</ele>
        <time>2024-04-17T13:05:05Z</time>
      </trkpt>
      <trkpt lat="49.97441" lon="2.1121">
        <ele>21.4</ele>
        <time>2024-04-17T13:05:06Z</time>
      </trkpt>
      <trkpt lat="49.97441" lon="2.1121">
        <ele>21.4</ele>
        <time>2024-04-17T13:05:07Z</time>
      </trkpt>
      <trkpt lat="49.97441" lon="2.11209">
        <ele>21.4</ele>
        <time>2024-04-17T13:05:08Z</time>
      </trkpt>
      <trkpt lat="49.97441" lon="2.11209">
        <ele>21.4</ele>
        <time>2024-04-17T13:05:09Z</time>
      </trkpt>
      <trkpt lat="49.9744" lon="2.11209">
        <ele>21.4</ele>
        <time>2024-04-17T13:05:10Z</time>
      </trkpt>
      <trkpt lat="49.9744" lon="2.1121">
        <ele>21.4</ele>
        <time>2024-04-17T13:05:11Z</time>
      </trkpt>
      <trkpt lat="49.9744" lon="2.1121">
        <ele>21.4</ele>
        <time>2024-04-17T13:05:12Z</time>
      </trkpt>
      <trkpt lat="49.9744" lon="2.1121">
        <ele>21.4</ele>
        <time>2024-04-17T13:05:13Z</time>
      </trkpt>
      <trkpt lat="49.9744" lon="2.1121">
        <ele>21.4</ele>
        <time>2024-04-17T13:05:14Z</time>
      </trkpt>
      <trkpt lat="49.9744" lon="2.1121">
        <ele>21.4</ele>
        <time>2024-04-17T13:05:15Z</time>
      </trkpt>
      <trkpt lat="49.9744" lon="2.1121">
        <ele>21.4</ele>
        <time>2024-04-17T13:05:16Z</time>
      </trkpt>
      <trkpt lat="49.9744" lon="2.11211">
        <ele>21.4</ele>
        <time>2024-04-17T13:05:17Z</time>
      </trkpt>
      <trkpt lat="49.97441" lon="2.11211">
        <ele>21.4</ele>
        <time>2024-04-17T13:05:18Z</time>
      </trkpt>
      <trkpt lat="49.97441" lon="2.11211">
        <ele>21.4</ele>
        <time>2024-04-17T13:05:19Z</time>
      </trkpt>
      <trkpt lat="49.97441" lon="2.11211">
        <ele>21.4</ele>
        <time>2024-04-17T13:05:20Z</time>
      </trkpt>
      <trkpt lat="49.97441" lon="2.11211">
        <ele>21.4</ele>
        <time>2024-04-17T13:05:21Z</time>
      </trkpt>
      <trkpt lat="49.97441" lon="2.11211">
        <ele>21.4</ele>
        <time>2024-04-17T13:05:22Z</time>
      </trkpt>
      <trkpt lat="49.97441" lon="2.11212">
        <ele>21.4</ele>
        <time>2024-04-17T13:05:23Z</time>
      </trkpt>
      <trkpt lat="49.97441" lon="2.11212">
        <ele>21.4</ele>
        <time>2024-04-17T13:05:24Z</time>
      </trkpt>
      <trkpt lat="49.97441" lon="2.11212">
        <ele>21.4</ele>
        <time>2024-04-17T13:05:25Z</time>
      </trkpt>
      <trkpt lat="49.97441" lon="2.11212">
        <ele>21.4</ele>
        <time>2024-04-17T13:05:26Z</time>
      </trkpt>
      <trkpt lat="49.97441" lon="2.11212">
        <ele>21.4</ele>
        <time>2024-04-17T13:05:27Z</time>
      </trkpt>
      <trkpt lat="49.97441" lon="2.11213">
        <ele>21.4</ele>
        <time>2024-04-17T13:05:28Z</time>
      </trkpt>
      <trkpt lat="49.97441" lon="2.11213">
        <ele>21.4</ele>
        <time>2024-04-17T13:05:29Z</time>
      </trkpt>
      <trkpt lat="49.97441" lon="2.11213">
        <ele>21.4</ele>
        <time>2024-04-17T13:05:30Z</time>
      </trkpt>
      <trkpt lat="49.97441" lon="2.11213">
        <ele>21.4</ele>
        <time>2024-04-17T13:05:31Z</time>
      </trkpt>
      <trkpt lat="49.97441" lon="2.11213">
        <ele>21.4</ele>
        <time>2024-04-17T13:05:32Z</time>
      </trkpt>
      <trkpt lat="49.97441" lon="2.11213">
        <ele>21.4</ele>
        <time>2024-04-17T13:05:33Z</time>
      </trkpt>
      <trkpt lat="49.97441" lon="2.11214">
        <ele>21.4</ele>
        <time>2024-04-17T13:05:34Z</time>
      </trkpt>
      <trkpt lat="49.97441" lon="2.11214">
        <ele>21.4</ele>
        <time>2024-04-17T13:05:35Z</time>
      </trkpt>
      <trkpt lat="49.97441" lon="2.11214">
        <ele>21.3</ele>
        <time>2024-04-17T13:05:36Z</time>
      </trkpt>
      <trkpt lat="49.97441" lon="2.11214">
        <ele>21.3</ele>
        <time>2024-04-17T13:05:37Z</time>
      </trkpt>
      <trkpt lat="49.97441" lon="2.11214">
        <ele>21.3</ele>
        <time>2024-04-17T13:05:38Z</time>
      </trkpt>
      <trkpt lat="49.97441" lon="2.11214">
        <ele>21.3</ele>
        <time>2024-04-17T13:05:39Z</time>
      </trkpt>
      <trkpt lat="49.97441" lon="2.11215">
        <ele>21.3</ele>
        <time>2024-04-17T13:05:40Z</time>
      </trkpt>
      <trkpt lat="49.97441" lon="2.11215">
        <ele>21.3</ele>
        <time>2024-04-17T13:05:41Z</time>
      </trkpt>
      <trkpt lat="49.97441" lon="2.11215">
        <ele>21.3</ele>
        <time>2024-04-17T13:05:42Z</time>
      </trkpt>
      <trkpt lat="49.9744" lon="2.11212">
        <ele>21.3</ele>
        <time>2024-04-17T13:05:43Z</time>
      </trkpt>
      <trkpt lat="49.9744" lon="2.11214">
        <ele>21.3</ele>
        <time>2024-04-17T13:05:44Z</time>
      </trkpt>
      <trkpt lat="49.97439" lon="2.11215">
        <ele>21.2</ele>
        <time>2024-04-17T13:05:45Z</time>
      </trkpt>
      <trkpt lat="49.97438" lon="2.11216">
        <ele>21.2</ele>
        <time>2024-04-17T13:05:46Z</time>
      </trkpt>
      <trkpt lat="49.97438" lon="2.11216">
        <ele>21.2</ele>
        <time>2024-04-17T13:05:47Z</time>
      </trkpt>
      <trkpt lat="49.97437" lon="2.11217">
        <ele>21.2</ele>
        <time>2024-04-17T13:05:48Z</time>
      </trkpt>
      <trkpt lat="49.97436" lon="2.11216">
        <ele>21.1</ele>
        <time>2024-04-17T13:05:49Z</time>
      </trkpt>
      <trkpt lat="49.97435" lon="2.11215">
        <ele>21.1</ele>
        <time>2024-04-17T13:05:50Z</time>
      </trkpt>
      <trkpt lat="49.97434" lon="2.11215">
        <ele>21.1</ele>
        <time>2024-04-17T13:05:51Z</time>
      </trkpt>
      <trkpt lat="49.97432" lon="2.11215">
        <ele>21.1</ele>
        <time>2024-04-17T13:05:52Z</time>
      </trkpt>
      <trkpt lat="49.97431" lon="2.11216">
        <ele>21.1</ele>
        <time>2024-04-17T13:05:53Z</time>
      </trkpt>
      <trkpt lat="49.9743" lon="2.11216">
        <ele>21</ele>
        <time>2024-04-17T13:05:54Z</time>
      </trkpt>
      <trkpt lat="49.97429" lon="2.11216">
        <ele>21</ele>
        <time>2024-04-17T13:05:55Z</time>
      </trkpt>
      <trkpt lat="49.97428" lon="2.11217">
        <ele>21</ele>
        <time>2024-04-17T13:05:56Z</time>
      </trkpt>
      <trkpt lat="49.97428" lon="2.11217">
        <ele>21</ele>
        <time>2024-04-17T13:05:57Z</time>
      </trkpt>
      <trkpt lat="49.97427" lon="2.11218">
        <ele>21</ele>
        <time>2024-04-17T13:05:58Z</time>
      </trkpt>
      <trkpt lat="49.97426" lon="2.11218">
        <ele>21</ele>
        <time>2024-04-17T13:05:59Z</time>
      </trkpt>
      <trkpt lat="49.97425" lon="2.11219">
        <ele>20.9</ele>
        <time>2024-04-17T13:06:00Z</time>
      </trkpt>
      <trkpt lat="49.97424" lon="2.1122">
        <ele>20.9</ele>
        <time>2024-04-17T13:06:01Z</time>
      </trkpt>
      <trkpt lat="49.97424" lon="2.11221">
        <ele>20.9</ele>
        <time>2024-04-17T13:06:02Z</time>
      </trkpt>
      <trkpt lat="49.97423" lon="2.11222">
        <ele>20.9</ele>
        <time>2024-04-17T13:06:03Z</time>
      </trkpt>
      <trkpt lat="49.97422" lon="2.11223">
        <ele>20.9</ele>
        <time>2024-04-17T13:06:04Z</time>
      </trkpt>
      <trkpt lat="49.97421" lon="2.11224">
        <ele>20.9</ele>
        <time>2024-04-17T13:06:05Z</time>
      </trkpt>
      <trkpt lat="49.97421" lon="2.11225">
        <ele>20.9</ele>
        <time>2024-04-17T13:06:06Z</time>
      </trkpt>
      <trkpt lat="49.9742" lon="2.11226">
        <ele>20.8</ele>
        <time>2024-04-17T13:06:07Z</time>
      </trkpt>
      <trkpt lat="49.97419" lon="2.11227">
        <ele>20.8</ele>
        <time>2024-04-17T13:06:08Z</time>
      </trkpt>
      <trkpt lat="49.97418" lon="2.11228">
        <ele>20.8</ele>
        <time>2024-04-17T13:06:09Z</time>
      </trkpt>
      <trkpt lat="49.97418" lon="2.11229">
        <ele>20.8</ele>
        <time>2024-04-17T13:06:10Z</time>
      </trkpt>
      <trkpt lat="49.97417" lon="2.1123">
        <ele>20.7</ele>
        <time>2024-04-17T13:06:11Z</time>
      </trkpt>
      <trkpt lat="49.97416" lon="2.11231">
        <ele>20.7</ele>
        <time>2024-04-17T13:06:12Z</time>
      </trkpt>
      <trkpt lat="49.97415" lon="2.11232">
        <ele>20.7</ele>
        <time>2024-04-17T13:06:13Z</time>
      </trkpt>
      <trkpt lat="49.97415" lon="2.11233">
        <ele>20.7</ele>
        <time>2024-04-17T13:06:14Z</time>
      </trkpt>
      <trkpt lat="49.97414" lon="2.11234">
        <ele>20.6</ele>
        <time>2024-04-17T13:06:15Z</time>
      </trkpt>
      <trkpt lat="49.97413" lon="2.11235">
        <ele>20.6</ele>
        <time>2024-04-17T13:06:16Z</time>
      </trkpt>
      <trkpt lat="49.97412" lon="2.11236">
        <ele>20.6</ele>
        <time>2024-04-17T13:06:17Z</time>
      </trkpt>
      <trkpt lat="49.97411" lon="2.11237">
        <ele>20.5</ele>
        <time>2024-04-17T13:06:18Z</time>
      </trkpt>
      <trkpt lat="49.9741" lon="2.11238">
        <ele>20.5</ele>
        <time>2024-04-17T13:06:19Z</time>
      </trkpt>
      <trkpt lat="49.9741" lon="2.11239">
        <ele>20.4</ele>
        <time>2024-04-17T13:06:20Z</time>
      </trkpt>
      <trkpt lat="49.97409" lon="2.1124">
        <ele>20.4</ele>
        <time>2024-04-17T13:06:21Z</time>
      </trkpt>
      <trkpt lat="49.97408" lon="2.11241">
        <ele>20.4</ele>
        <time>2024-04-17T13:06:22Z</time>
      </trkpt>
      <trkpt lat="49.97407" lon="2.11242">
        <ele>20.3</ele>
        <time>2024-04-17T13:06:23Z</time>
      </trkpt>
      <trkpt lat="49.97406" lon="2.11243">
        <ele>20.3</ele>
        <time>2024-04-17T13:06:24Z</time>
      </trkpt>
      <trkpt lat="49.97406" lon="2.11244">
        <ele>20.2</ele>
        <time>2024-04-17T13:06:25Z</time>
      </trkpt>
      <trkpt lat="49.97405" lon="2.11245">
        <ele>20.2</ele>
        <time>2024-04-17T13:06:26Z</time>
      </trkpt>
      <trkpt lat="49.97404" lon="2.11246">
        <ele>20.1</ele>
        <time>2024-04-17T13:06:27Z</time>
      </trkpt>
      <trkpt lat="49.97403" lon="2.11247">
        <ele>20.1</ele>
        <time>2024-04-17T13:06:28Z</time>
      </trkpt>
      <trkpt lat="49.97402" lon="2.11248">
        <ele>20.1</ele>
        <time>2024-04-17T13:06:29Z</time>
      </trkpt>
      <trkpt lat="49.97402" lon="2.11249">
        <ele>20</ele>
        <time>2024-04-17T13:06:30Z</time>
      </trkpt>
      <trkpt lat="49.97401" lon="2.11251">
        <ele>20</ele>
        <time>2024-04-17T13:06:31Z</time>
      </trkpt>
      <trkpt lat="49.974" lon="2.11251">
        <ele>19.9</ele>
        <time>2024-04-17T13:06:32Z</time>
      </trkpt>
      <trkpt lat="49.97399" lon="2.11252">
        <ele>19.9</ele>
        <time>2024-04-17T13:06:33Z</time>
      </trkpt>
      <trkpt lat="49.97399" lon="2.11253">
        <ele>19.8</ele>
        <time>2024-04-17T13:06:34Z</time>
      </trkpt>
      <trkpt lat="49.97398" lon="2.11254">
        <ele>19.8</ele>
        <time>2024-04-17T13:06:35Z</time>
      </trkpt>
      <trkpt lat="49.97397" lon="2.11255">
        <ele>19.7</ele>
        <time>2024-04-17T13:06:36Z</time>
      </trkpt>
      <trkpt lat="49.97397" lon="2.11256">
        <ele>19.7</ele>
        <time>2024-04-17T13:06:37Z</time>
      </trkpt>
      <trkpt lat="49.97396" lon="2.11257">
        <ele>19.7</ele>
        <time>2024-04-17T13:06:38Z</time>
      </trkpt>
      <trkpt lat="49.97396" lon="2.11259">
        <ele>19.6</ele>
        <time>2024-04-17T13:06:39Z</time>
      </trkpt>
      <trkpt lat="49.97395" lon="2.1126">
        <ele>19.6</ele>
        <time>2024-04-17T13:06:40Z</time>
      </trkpt>
      <trkpt lat="49.97395" lon="2.11261">
        <ele>19.5</ele>
        <time>2024-04-17T13:06:41Z</time>
      </trkpt>
      <trkpt lat="49.97394" lon="2.11263">
        <ele>19.5</ele>
        <time>2024-04-17T13:06:42Z</time>
      </trkpt>
      <trkpt lat="49.97393" lon="2.11264">
        <ele>19.4</ele>
        <time>2024-04-17T13:06:43Z</time>
      </trkpt>
      <trkpt lat="49.97393" lon="2.11266">
        <ele>19.4</ele>
        <time>2024-04-17T13:06:44Z</time>
      </trkpt>
      <trkpt lat="49.97392" lon="2.11267">
        <ele>19.3</ele>
        <time>2024-04-17T13:06:45Z</time>
      </trkpt>
      <trkpt lat="49.97392" lon="2.11269">
        <ele>19.3</ele>
        <time>2024-04-17T13:06:46Z</time>
      </trkpt>
      <trkpt lat="49.97392" lon="2.1127">
        <ele>19.2</ele>
        <time>2024-04-17T13:06:47Z</time>
      </trkpt>
      <trkpt lat="49.97391" lon="2.11272">
        <ele>19.2</ele>
        <time>2024-04-17T13:06:48Z</time>
      </trkpt>
      <trkpt lat="49.97391" lon="2.11273">
        <ele>19.1</ele>
        <time>2024-04-17T13:06:49Z</time>
      </trkpt>
      <trkpt lat="49.97391" lon="2.11275">
        <ele>19.1</ele>
        <time>2024-04-17T13:06:50Z</time>
      </trkpt>
      <trkpt lat="49.9739" lon="2.11276">
        <ele>19.1</ele>
        <time>2024-04-17T13:06:51Z</time>
      </trkpt>
      <trkpt lat="49.9739" lon="2.11278">
        <ele>19</ele>
        <time>2024-04-17T13:06:52Z</time>
      </trkpt>
      <trkpt lat="49.97389" lon="2.11279">
        <ele>19</ele>
        <time>2024-04-17T13:06:53Z</time>
      </trkpt>
      <trkpt lat="49.97389" lon="2.11281">
        <ele>18.9</ele>
        <time>2024-04-17T13:06:54Z</time>
      </trkpt>
      <trkpt lat="49.97388" lon="2.11282">
        <ele>18.9</ele>
        <time>2024-04-17T13:06:55Z</time>
      </trkpt>
      <trkpt lat="49.97387" lon="2.11283">
        <ele>18.8</ele>
        <time>2024-04-17T13:06:56Z</time>
      </trkpt>
      <trkpt lat="49.97386" lon="2.11285">
        <ele>18.8</ele>
        <time>2024-04-17T13:06:57Z</time>
      </trkpt>
      <trkpt lat="49.97386" lon="2.11286">
        <ele>18.8</ele>
        <time>2024-04-17T13:06:58Z</time>
      </trkpt>
      <trkpt lat="49.97385" lon="2.11287">
        <ele>18.7</ele>
        <time>2024-04-17T13:06:59Z</time>
      </trkpt>
      <trkpt lat="49.97384" lon="2.11288">
        <ele>18.7</ele>
        <time>2024-04-17T13:07:00Z</time>
      </trkpt>
      <trkpt lat="49.97383" lon="2.11288">
        <ele>18.7</ele>
        <time>2024-04-17T13:07:01Z</time>
      </trkpt>
      <trkpt lat="49.97383" lon="2.11289">
        <ele>18.6</ele>
        <time>2024-04-17T13:07:02Z</time>
      </trkpt>
      <trkpt lat="49.97382" lon="2.1129">
        <ele>18.6</ele>
        <time>2024-04-17T13:07:03Z</time>
      </trkpt>
      <trkpt lat="49.97381" lon="2.11291">
        <ele>18.6</ele>
        <time>2024-04-17T13:07:04Z</time>
      </trkpt>
      <trkpt lat="49.9738" lon="2.11291">
        <ele>18.5</ele>
        <time>2024-04-17T13:07:05Z</time>
      </trkpt>
      <trkpt lat="49.97379" lon="2.11292">
        <ele>18.5</ele>
        <time>2024-04-17T13:07:06Z</time>
      </trkpt>
      <trkpt lat="49.97378" lon="2.11293">
        <ele>18.5</ele>
        <time>2024-04-17T13:07:07Z</time>
      </trkpt>
      <trkpt lat="49.97377" lon="2.11293">
        <ele>18.4</ele>
        <time>2024-04-17T13:07:08Z</time>
      </trkpt>
      <trkpt lat="49.97376" lon="2.11294">
        <ele>18.4</ele>
        <time>2024-04-17T13:07:09Z</time>
      </trkpt>
      <trkpt lat="49.97376" lon="2.11294">
        <ele>18.4</ele>
        <time>2024-04-17T13:07:10Z</time>
      </trkpt>
      <trkpt lat="49.97375" lon="2.11294">
        <ele>18.4</ele>
        <time>2024-04-17T13:07:11Z</time>
      </trkpt>
      <trkpt lat="49.97374" lon="2.11295">
        <ele>18.3</ele>
        <time>2024-04-17T13:07:12Z</time>
      </trkpt>
      <trkpt lat="49.97373" lon="2.11295">
        <ele>18.3</ele>
        <time>2024-04-17T13:07:13Z</time>
      </trkpt>
      <trkpt lat="49.97372" lon="2.11296">
        <ele>18.3</ele>
        <time>2024-04-17T13:07:14Z</time>
      </trkpt>
      <trkpt lat="49.97371" lon="2.11296">
        <ele>18.2</ele>
        <time>2024-04-17T13:07:15Z</time>
      </trkpt>
      <trkpt lat="49.9737" lon="2.11296">
        <ele>18.2</ele>
        <time>2024-04-17T13:07:16Z</time>
      </trkpt>
      <trkpt lat="49.97369" lon="2.11297">
        <ele>18.2</ele>
        <time>2024-04-17T13:07:17Z</time>
      </trkpt>
      <trkpt lat="49.97368" lon="2.11297">
        <ele>18.1</ele>
        <time>2024-04-17T13:07:18Z</time>
      </trkpt>
      <trkpt lat="49.97367" lon="2.11297">
        <ele>18.1</ele>
        <time>2024-04-17T13:07:19Z</time>
      </trkpt>
      <trkpt lat="49.97366" lon="2.11298">
        <ele>18.1</ele>
        <time>2024-04-17T13:07:20Z</time>
      </trkpt>
      <trkpt lat="49.97365" lon="2.11298">
        <ele>18.1</ele>
        <time>2024-04-17T13:07:21Z</time>
      </trkpt>
      <trkpt lat="49.97364" lon="2.11299">
        <ele>18</ele>
        <time>2024-04-17T13:07:22Z</time>
      </trkpt>
      <trkpt lat="49.97363" lon="2.11299">
        <ele>18</ele>
        <time>2024-04-17T13:07:23Z</time>
      </trkpt>
      <trkpt lat="49.97361" lon="2.113">
        <ele>18</ele>
        <time>2024-04-17T13:07:24Z</time>
      </trkpt>
      <trkpt lat="49.9736" lon="2.113">
        <ele>18</ele>
        <time>2024-04-17T13:07:25Z</time>
      </trkpt>
      <trkpt lat="49.97359" lon="2.11301">
        <ele>17.9</ele>
        <time>2024-04-17T13:07:26Z</time>
      </trkpt>
      <trkpt lat="49.97358" lon="2.11301">
        <ele>17.9</ele>
        <time>2024-04-17T13:07:27Z</time>
      </trkpt>
      <trkpt lat="49.97357" lon="2.11302">
        <ele>17.9</ele>
        <time>2024-04-17T13:07:28Z</time>
      </trkpt>
      <trkpt lat="49.97356" lon="2.11303">
        <ele>17.9</ele>
        <time>2024-04-17T13:07:29Z</time>
      </trkpt>
      <trkpt lat="49.97355" lon="2.11303">
        <ele>17.8</ele>
        <time>2024-04-17T13:07:30Z</time>
      </trkpt>
      <trkpt lat="49.97354" lon="2.11304">
        <ele>17.8</ele>
        <time>2024-04-17T13:07:31Z</time>
      </trkpt>
      <trkpt lat="49.97353" lon="2.11305">
        <ele>17.8</ele>
        <time>2024-04-17T13:07:32Z</time>
      </trkpt>
      <trkpt lat="49.97352" lon="2.11305">
        <ele>17.7</ele>
        <time>2024-04-17T13:07:33Z</time>
      </trkpt>
      <trkpt lat="49.97351" lon="2.11306">
        <ele>17.7</ele>
        <time>2024-04-17T13:07:34Z</time>
      </trkpt>
      <trkpt lat="49.9735" lon="2.11307">
        <ele>17.7</ele>
        <time>2024-04-17T13:07:35Z</time>
      </trkpt>
      <trkpt lat="49.97349" lon="2.11307">
        <ele>17.7</ele>
        <time>2024-04-17T13:07:36Z</time>
      </trkpt>
      <trkpt lat="49.97348" lon="2.11308">
        <ele>17.6</ele>
        <time>2024-04-17T13:07:37Z</time>
      </trkpt>
      <trkpt lat="49.97347" lon="2.11308">
        <ele>17.6</ele>
        <time>2024-04-17T13:07:38Z</time>
      </trkpt>
      <trkpt lat="49.97346" lon="2.11309">
        <ele>17.6</ele>
        <time>2024-04-17T13:07:39Z</time>
      </trkpt>
      <trkpt lat="49.97345" lon="2.11309">
        <ele>17.5</ele>
        <time>2024-04-17T13:07:40Z</time>
      </trkpt>
      <trkpt lat="49.97344" lon="2.1131">
        <ele>17.5</ele>
        <time>2024-04-17T13:07:41Z</time>
      </trkpt>
      <trkpt lat="49.97343" lon="2.1131">
        <ele>17.5</ele>
        <time>2024-04-17T13:07:42Z</time>
      </trkpt>
      <trkpt lat="49.97342" lon="2.1131">
        <ele>17.5</ele>
        <time>2024-04-17T13:07:43Z</time>
      </trkpt>
      <trkpt lat="49.97341" lon="2.11311">
        <ele>17.4</ele>
        <time>2024-04-17T13:07:44Z</time>
      </trkpt>
      <trkpt lat="49.9734" lon="2.11311">
        <ele>17.4</ele>
        <time>2024-04-17T13:07:45Z</time>
      </trkpt>
      <trkpt lat="49.97339" lon="2.11312">
        <ele>17.4</ele>
        <time>2024-04-17T13:07:46Z</time>
      </trkpt>
      <trkpt lat="49.97339" lon="2.11312">
        <ele>17.3</ele>
        <time>2024-04-17T13:07:47Z</time>
      </trkpt>
      <trkpt lat="49.97338" lon="2.11313">
        <ele>17.3</ele>
        <time>2024-04-17T13:07:48Z</time>
      </trkpt>
      <trkpt lat="49.97337" lon="2.11313">
        <ele>17.3</ele>
        <time>2024-04-17T13:07:49Z</time>
      </trkpt>
      <trkpt lat="49.97336" lon="2.11314">
        <ele>17.3</ele>
        <time>2024-04-17T13:07:50Z</time>
      </trkpt>
      <trkpt lat="49.97335" lon="2.11314">
        <ele>17.2</ele>
        <time>2024-04-17T13:07:51Z</time>
      </trkpt>
      <trkpt lat="49.97334" lon="2.11314">
        <ele>17.2</ele>
        <time>2024-04-17T13:07:52Z</time>
      </trkpt>
      <trkpt lat="49.97333" lon="2.11314">
        <ele>17.2</ele>
        <time>2024-04-17T13:07:53Z</time>
      </trkpt>
      <trkpt lat="49.97332" lon="2.11314">
        <ele>17.2</ele>
        <time>2024-04-17T13:07:54Z</time>
      </trkpt>
      <trkpt lat="49.97331" lon="2.11313">
        <ele>17.1</ele>
        <time>2024-04-17T13:07:55Z</time>
      </trkpt>
      <trkpt lat="49.9733" lon="2.11313">
        <ele>17.1</ele>
        <time>2024-04-17T13:07:56Z</time>
      </trkpt>
      <trkpt lat="49.97329" lon="2.11313">
        <ele>17.1</ele>
        <time>2024-04-17T13:07:57Z</time>
      </trkpt>
      <trkpt lat="49.97328" lon="2.11313">
        <ele>17.1</ele>
        <time>2024-04-17T13:07:58Z</time>
      </trkpt>
      <trkpt lat="49.97327" lon="2.11313">
        <ele>17</ele>
        <time>2024-04-17T13:07:59Z</time>
      </trkpt>
      <trkpt lat="49.97326" lon="2.11313">
        <ele>17</ele>
        <time>2024-04-17T13:08:00Z</time>
      </trkpt>
      <trkpt lat="49.97325" lon="2.11313">
        <ele>17</ele>
        <time>2024-04-17T13:08:01Z</time>
      </trkpt>
      <trkpt lat="49.97324" lon="2.11313">
        <ele>16.9</ele>
        <time>2024-04-17T13:08:02Z</time>
      </trkpt>
      <trkpt lat="49.97323" lon="2.11313">
        <ele>16.9</ele>
        <time>2024-04-17T13:08:03Z</time>
      </trkpt>
      <trkpt lat="49.97322" lon="2.11312">
        <ele>16.9</ele>
        <time>2024-04-17T13:08:04Z</time>
      </trkpt>
      <trkpt lat="49.97321" lon="2.11312">
        <ele>16.8</ele>
        <time>2024-04-17T13:08:05Z</time>
      </trkpt>
      <trkpt lat="49.97319" lon="2.11312">
        <ele>16.8</ele>
        <time>2024-04-17T13:08:06Z</time>
      </trkpt>
      <trkpt lat="49.97318" lon="2.11311">
        <ele>16.8</ele>
        <time>2024-04-17T13:08:07Z</time>
      </trkpt>
      <trkpt lat="49.97316" lon="2.1131">
        <ele>16.7</ele>
        <time>2024-04-17T13:08:08Z</time>
      </trkpt>
      <trkpt lat="49.97316" lon="2.1131">
        <ele>16.7</ele>
        <time>2024-04-17T13:08:09Z</time>
      </trkpt>
      <trkpt lat="49.97315" lon="2.1131">
        <ele>16.7</ele>
        <time>2024-04-17T13:08:10Z</time>
      </trkpt>
      <trkpt lat="49.97313" lon="2.11309">
        <ele>16.6</ele>
        <time>2024-04-17T13:08:11Z</time>
      </trkpt>
      <trkpt lat="49.97312" lon="2.11309">
        <ele>16.6</ele>
        <time>2024-04-17T13:08:12Z</time>
      </trkpt>
      <trkpt lat="49.97311" lon="2.11308">
        <ele>16.5</ele>
        <time>2024-04-17T13:08:13Z</time>
      </trkpt>
      <trkpt lat="49.9731" lon="2.11308">
        <ele>16.5</ele>
        <time>2024-04-17T13:08:14Z</time>
      </trkpt>
      <trkpt lat="49.97309" lon="2.11308">
        <ele>16.4</ele>
        <time>2024-04-17T13:08:15Z</time>
      </trkpt>
      <trkpt lat="49.97308" lon="2.11307">
        <ele>16.4</ele>
        <time>2024-04-17T13:08:16Z</time>
      </trkpt>
      <trkpt lat="49.97307" lon="2.11306">
        <ele>16.4</ele>
        <time>2024-04-17T13:08:17Z</time>
      </trkpt>
      <trkpt lat="49.97306" lon="2.11306">
        <ele>16.3</ele>
        <time>2024-04-17T13:08:18Z</time>
      </trkpt>
      <trkpt lat="49.97305" lon="2.11305">
        <ele>16.3</ele>
        <time>2024-04-17T13:08:19Z</time>
      </trkpt>
      <trkpt lat="49.97304" lon="2.11305">
        <ele>16.3</ele>
        <time>2024-04-17T13:08:20Z</time>
      </trkpt>
      <trkpt lat="49.97303" lon="2.11305">
        <ele>16.2</ele>
        <time>2024-04-17T13:08:21Z</time>
      </trkpt>
      <trkpt lat="49.97302" lon="2.11304">
        <ele>16.2</ele>
        <time>2024-04-17T13:08:22Z</time>
      </trkpt>
      <trkpt lat="49.97301" lon="2.11304">
        <ele>16.1</ele>
        <time>2024-04-17T13:08:23Z</time>
      </trkpt>
      <trkpt lat="49.973" lon="2.11303">
        <ele>16.1</ele>
        <time>2024-04-17T13:08:24Z</time>
      </trkpt>
      <trkpt lat="49.97299" lon="2.11303">
        <ele>16.1</ele>
        <time>2024-04-17T13:08:25Z</time>
      </trkpt>
      <trkpt lat="49.97298" lon="2.11302">
        <ele>16</ele>
        <time>2024-04-17T13:08:26Z</time>
      </trkpt>
      <trkpt lat="49.97297" lon="2.11302">
        <ele>16</ele>
        <time>2024-04-17T13:08:27Z</time>
      </trkpt>
      <trkpt lat="49.97296" lon="2.11302">
        <ele>15.9</ele>
        <time>2024-04-17T13:08:28Z</time>
      </trkpt>
      <trkpt lat="49.97295" lon="2.11302">
        <ele>15.9</ele>
        <time>2024-04-17T13:08:29Z</time>
      </trkpt>
      <trkpt lat="49.97294" lon="2.11301">
        <ele>15.9</ele>
        <time>2024-04-17T13:08:30Z</time>
      </trkpt>
      <trkpt lat="49.97293" lon="2.11301">
        <ele>15.8</ele>
        <time>2024-04-17T13:08:31Z</time>
      </trkpt>
      <trkpt lat="49.97292" lon="2.113">
        <ele>15.8</ele>
        <time>2024-04-17T13:08:32Z</time>
      </trkpt>
      <trkpt lat="49.97291" lon="2.113">
        <ele>15.7</ele>
        <time>2024-04-17T13:08:33Z</time>
      </trkpt>
      <trkpt lat="49.9729" lon="2.11299">
        <ele>15.7</ele>
        <time>2024-04-17T13:08:34Z</time>
      </trkpt>
      <trkpt lat="49.97289" lon="2.11299">
        <ele>15.6</ele>
        <time>2024-04-17T13:08:35Z</time>
      </trkpt>
      <trkpt lat="49.97288" lon="2.11298">
        <ele>15.6</ele>
        <time>2024-04-17T13:08:36Z</time>
      </trkpt>
      <trkpt lat="49.97287" lon="2.11297">
        <ele>15.6</ele>
        <time>2024-04-17T13:08:37Z</time>
      </trkpt>
      <trkpt lat="49.97286" lon="2.11297">
        <ele>15.5</ele>
        <time>2024-04-17T13:08:38Z</time>
      </trkpt>
      <trkpt lat="49.97284" lon="2.11295">
        <ele>15.4</ele>
        <time>2024-04-17T13:08:39Z</time>
      </trkpt>
      <trkpt lat="49.97283" lon="2.11295">
        <ele>15.4</ele>
        <time>2024-04-17T13:08:40Z</time>
      </trkpt>
      <trkpt lat="49.97282" lon="2.11294">
        <ele>15.4</ele>
        <time>2024-04-17T13:08:41Z</time>
      </trkpt>
      <trkpt lat="49.97281" lon="2.11294">
        <ele>15.3</ele>
        <time>2024-04-17T13:08:42Z</time>
      </trkpt>
      <trkpt lat="49.9728" lon="2.11293">
        <ele>15.3</ele>
        <time>2024-04-17T13:08:43Z</time>
      </trkpt>
      <trkpt lat="49.97278" lon="2.11292">
        <ele>15.2</ele>
        <time>2024-04-17T13:08:44Z</time>
      </trkpt>
      <trkpt lat="49.97277" lon="2.11291">
        <ele>15.2</ele>
        <time>2024-04-17T13:08:45Z</time>
      </trkpt>
      <trkpt lat="49.97276" lon="2.11291">
        <ele>15.2</ele>
        <time>2024-04-17T13:08:46Z</time>
      </trkpt>
      <trkpt lat="49.97274" lon="2.1129">
        <ele>15.1</ele>
        <time>2024-04-17T13:08:47Z</time>
      </trkpt>
      <trkpt lat="49.97274" lon="2.11289">
        <ele>15</ele>
        <time>2024-04-17T13:08:48Z</time>
      </trkpt>
      <trkpt lat="49.97273" lon="2.11289">
        <ele>15</ele>
        <time>2024-04-17T13:08:49Z</time>
      </trkpt>
      <trkpt lat="49.97271" lon="2.11288">
        <ele>14.9</ele>
        <time>2024-04-17T13:08:50Z</time>
      </trkpt>
      <trkpt lat="49.9727" lon="2.11287">
        <ele>14.9</ele>
        <time>2024-04-17T13:08:51Z</time>
      </trkpt>
      <trkpt lat="49.97269" lon="2.11287">
        <ele>14.9</ele>
        <time>2024-04-17T13:08:52Z</time>
      </trkpt>
      <trkpt lat="49.97268" lon="2.11286">
        <ele>14.8</ele>
        <time>2024-04-17T13:08:53Z</time>
      </trkpt>
      <trkpt lat="49.97266" lon="2.11285">
        <ele>14.8</ele>
        <time>2024-04-17T13:08:54Z</time>
      </trkpt>
      <trkpt lat="49.97264" lon="2.11283">
        <ele>14.7</ele>
        <time>2024-04-17T13:08:55Z</time>
      </trkpt>
      <trkpt lat="49.97264" lon="2.11283">
        <ele>14.6</ele>
        <time>2024-04-17T13:08:56Z</time>
      </trkpt>
      <trkpt lat="49.97263" lon="2.11282">
        <ele>14.6</ele>
        <time>2024-04-17T13:08:57Z</time>
      </trkpt>
      <trkpt lat="49.97261" lon="2.11281">
        <ele>14.5</ele>
        <time>2024-04-17T13:08:58Z</time>
      </trkpt>
      <trkpt lat="49.9726" lon="2.1128">
        <ele>14.5</ele>
        <time>2024-04-17T13:08:59Z</time>
      </trkpt>
      <trkpt lat="49.97259" lon="2.1128">
        <ele>14.4</ele>
        <time>2024-04-17T13:09:00Z</time>
      </trkpt>
      <trkpt lat="49.97258" lon="2.11279">
        <ele>14.4</ele>
        <time>2024-04-17T13:09:01Z</time>
      </trkpt>
      <trkpt lat="49.97257" lon="2.11278">
        <ele>14.3</ele>
        <time>2024-04-17T13:09:02Z</time>
      </trkpt>
      <trkpt lat="49.97256" lon="2.11277">
        <ele>14.3</ele>
        <time>2024-04-17T13:09:03Z</time>
      </trkpt>
      <trkpt lat="49.97255" lon="2.11276">
        <ele>14.2</ele>
        <time>2024-04-17T13:09:04Z</time>
      </trkpt>
      <trkpt lat="49.97254" lon="2.11276">
        <ele>14.2</ele>
        <time>2024-04-17T13:09:05Z</time>
      </trkpt>
      <trkpt lat="49.97253" lon="2.11275">
        <ele>14.1</ele>
        <time>2024-04-17T13:09:06Z</time>
      </trkpt>
      <trkpt lat="49.97252" lon="2.11274">
        <ele>14.1</ele>
        <time>2024-04-17T13:09:07Z</time>
      </trkpt>
      <trkpt lat="49.97251" lon="2.11273">
        <ele>14.1</ele>
        <time>2024-04-17T13:09:08Z</time>
      </trkpt>
      <trkpt lat="49.97251" lon="2.11273">
        <ele>14</ele>
        <time>2024-04-17T13:09:09Z</time>
      </trkpt>
      <trkpt lat="49.9725" lon="2.11272">
        <ele>14</ele>
        <time>2024-04-17T13:09:10Z</time>
      </trkpt>
      <trkpt lat="49.97249" lon="2.11271">
        <ele>13.9</ele>
        <time>2024-04-17T13:09:11Z</time>
      </trkpt>
      <trkpt lat="49.97248" lon="2.11271">
        <ele>13.9</ele>
        <time>2024-04-17T13:09:12Z</time>
      </trkpt>
      <trkpt lat="49.97247" lon="2.1127">
        <ele>13.8</ele>
        <time>2024-04-17T13:09:13Z</time>
      </trkpt>
      <trkpt lat="49.97246" lon="2.1127">
        <ele>13.8</ele>
        <time>2024-04-17T13:09:14Z</time>
      </trkpt>
      <trkpt lat="49.97245" lon="2.11269">
        <ele>13.8</ele>
        <time>2024-04-17T13:09:15Z</time>
      </trkpt>
      <trkpt lat="49.97245" lon="2.11269">
        <ele>13.7</ele>
        <time>2024-04-17T13:09:16Z</time>
      </trkpt>
      <trkpt lat="49.97244" lon="2.11268">
        <ele>13.7</ele>
        <time>2024-04-17T13:09:17Z</time>
      </trkpt>
      <trkpt lat="49.97243" lon="2.11268">
        <ele>13.7</ele>
        <time>2024-04-17T13:09:18Z</time>
      </trkpt>
      <trkpt lat="49.97242" lon="2.11267">
        <ele>13.6</ele>
        <time>2024-04-17T13:09:19Z</time>
      </trkpt>
      <trkpt lat="49.97242" lon="2.11266">
        <ele>13.6</ele>
        <time>2024-04-17T13:09:20Z</time>
      </trkpt>
      <trkpt lat="49.97241" lon="2.11266">
        <ele>13.5</ele>
        <time>2024-04-17T13:09:21Z</time>
      </trkpt>
      <trkpt lat="49.9724" lon="2.11265">
        <ele>13.5</ele>
        <time>2024-04-17T13:09:22Z</time>
      </trkpt>
      <trkpt lat="49.9724" lon="2.11264">
        <ele>13.5</ele>
        <time>2024-04-17T13:09:23Z</time>
      </trkpt>
      <trkpt lat="49.97239" lon="2.11263">
        <ele>13.4</ele>
        <time>2024-04-17T13:09:24Z</time>
      </trkpt>
      <trkpt lat="49.97239" lon="2.11262">
        <ele>13.4</ele>
        <time>2024-04-17T13:09:25Z</time>
      </trkpt>
      <trkpt lat="49.97239" lon="2.11261">
        <ele>13.4</ele>
        <time>2024-04-17T13:09:26Z</time>
      </trkpt>
      <trkpt lat="49.97238" lon="2.1126">
        <ele>13.3</ele>
        <time>2024-04-17T13:09:27Z</time>
      </trkpt>
      <trkpt lat="49.97238" lon="2.11259">
        <ele>13.3</ele>
        <time>2024-04-17T13:09:28Z</time>
      </trkpt>
      <trkpt lat="49.97238" lon="2.11258">
        <ele>13.3</ele>
        <time>2024-04-17T13:09:29Z</time>
      </trkpt>
      <trkpt lat="49.97237" lon="2.11258">
        <ele>13.3</ele>
        <time>2024-04-17T13:09:30Z</time>
      </trkpt>
      <trkpt lat="49.97237" lon="2.11257">
        <ele>13.3</ele>
        <time>2024-04-17T13:09:31Z</time>
      </trkpt>
      <trkpt lat="49.97236" lon="2.11257">
        <ele>13.2</ele>
        <time>2024-04-17T13:09:32Z</time>
      </trkpt>
      <trkpt lat="49.97236" lon="2.11258">
        <ele>13.2</ele>
        <time>2024-04-17T13:09:33Z</time>
      </trkpt>
      <trkpt lat="49.97235" lon="2.11258">
        <ele>13.2</ele>
        <time>2024-04-17T13:09:34Z</time>
      </trkpt>
      <trkpt lat="49.97235" lon="2.11258">
        <ele>13.2</ele>
        <time>2024-04-17T13:09:35Z</time>
      </trkpt>
      <trkpt lat="49.97235" lon="2.11258">
        <ele>13.2</ele>
        <time>2024-04-17T13:09:36Z</time>
      </trkpt>
      <trkpt lat="49.97234" lon="2.11257">
        <ele>13.1</ele>
        <time>2024-04-17T13:09:37Z</time>
      </trkpt>
      <trkpt lat="49.97234" lon="2.11257">
        <ele>13.1</ele>
        <time>2024-04-17T13:09:38Z</time>
      </trkpt>
      <trkpt lat="49.97235" lon="2.11258">
        <ele>13.1</ele>
        <time>2024-04-17T13:09:39Z</time>
      </trkpt>
      <trkpt lat="49.97235" lon="2.11258">
        <ele>13.1</ele>
        <time>2024-04-17T13:09:40Z</time>
      </trkpt>
      <trkpt lat="49.97235" lon="2.11258">
        <ele>13.1</ele>
        <time>2024-04-17T13:09:41Z</time>
      </trkpt>
      <trkpt lat="49.97235" lon="2.11258">
        <ele>13.1</ele>
        <time>2024-04-17T13:09:42Z</time>
      </trkpt>
      <trkpt lat="49.97235" lon="2.11258">
        <ele>13.1</ele>
        <time>2024-04-17T13:09:43Z</time>
      </trkpt>
      <trkpt lat="49.97235" lon="2.11258">
        <ele>13.1</ele>
        <time>2024-04-17T13:09:44Z</time>
      </trkpt>
      <trkpt lat="49.97235" lon="2.11258">
        <ele>13.1</ele>
        <time>2024-04-17T13:09:45Z</time>
      </trkpt>
      <trkpt lat="49.97235" lon="2.11258">
        <ele>13.1</ele>
        <time>2024-04-17T13:09:46Z</time>
      </trkpt>
      <trkpt lat="49.97235" lon="2.11258">
        <ele>13.1</ele>
        <time>2024-04-17T13:09:47Z</time>
      </trkpt>
      <trkpt lat="49.97235" lon="2.11258">
        <ele>13.1</ele>
        <time>2024-04-17T13:09:48Z</time>
      </trkpt>
      <trkpt lat="49.97235" lon="2.11259">
        <ele>13.1</ele>
        <time>2024-04-17T13:09:49Z</time>
      </trkpt>
      <trkpt lat="49.97235" lon="2.11259">
        <ele>13.1</ele>
        <time>2024-04-17T13:09:50Z</time>
      </trkpt>
      <trkpt lat="49.97235" lon="2.11259">
        <ele>13.1</ele>
        <time>2024-04-17T13:09:51Z</time>
      </trkpt>
      <trkpt lat="49.97236" lon="2.11259">
        <ele>13.1</ele>
        <time>2024-04-17T13:09:52Z</time>
      </trkpt>
      <trkpt lat="49.97236" lon="2.11259">
        <ele>13.1</ele>
        <time>2024-04-17T13:09:53Z</time>
      </trkpt>
      <trkpt lat="49.97236" lon="2.11259">
        <ele>13.1</ele>
        <time>2024-04-17T13:09:54Z</time>
      </trkpt>
      <trkpt lat="49.97236" lon="2.11259">
        <ele>13.1</ele>
        <time>2024-04-17T13:09:55Z</time>
      </trkpt>
      <trkpt lat="49.97236" lon="2.11259">
        <ele>13.1</ele>
        <time>2024-04-17T13:09:56Z</time>
      </trkpt>
      <trkpt lat="49.97236" lon="2.11259">
        <ele>13.1</ele>
        <time>2024-04-17T13:09:57Z</time>
      </trkpt>
      <trkpt lat="49.97236" lon="2.11259">
        <ele>13.1</ele>
        <time>2024-04-17T13:09:58Z</time>
      </trkpt>
      <trkpt lat="49.97236" lon="2.1126">
        <ele>13</ele>
        <time>2024-04-17T13:09:59Z</time>
      </trkpt>
      <trkpt lat="49.97236" lon="2.1126">
        <ele>13</ele>
        <time>2024-04-17T13:10:00Z</time>
      </trkpt>
      <trkpt lat="49.97236" lon="2.1126">
        <ele>13</ele>
        <time>2024-04-17T13:10:01Z</time>
      </trkpt>
      <trkpt lat="49.97236" lon="2.1126">
        <ele>13</ele>
        <time>2024-04-17T13:10:02Z</time>
      </trkpt>
      <trkpt lat="49.97236" lon="2.1126">
        <ele>13</ele>
        <time>2024-04-17T13:10:03Z</time>
      </trkpt>
      <trkpt lat="49.97236" lon="2.1126">
        <ele>13</ele>
        <time>2024-04-17T13:10:04Z</time>
      </trkpt>
      <trkpt lat="49.97237" lon="2.1126">
        <ele>13</ele>
        <time>2024-04-17T13:10:05Z</time>
      </trkpt>
      <trkpt lat="49.97237" lon="2.1126">
        <ele>13</ele>
        <time>2024-04-17T13:10:06Z</time>
      </trkpt>
      <trkpt lat="49.97237" lon="2.1126">
        <ele>13</ele>
        <time>2024-04-17T13:10:07Z</time>
      </trkpt>
      <trkpt lat="49.97237" lon="2.1126">
        <ele>13</ele>
        <time>2024-04-17T13:10:08Z</time>
      </trkpt>
      <trkpt lat="49.97237" lon="2.11261">
        <ele>13</ele>
        <time>2024-04-17T13:10:09Z</time>
      </trkpt>
      <trkpt lat="49.97237" lon="2.11261">
        <ele>13</ele>
        <time>2024-04-17T13:10:10Z</time>
      </trkpt>
      <trkpt lat="49.97237" lon="2.11261">
        <ele>13</ele>
        <time>2024-04-17T13:10:11Z</time>
      </trkpt>
      <trkpt lat="49.97237" lon="2.11261">
        <ele>13</ele>
        <time>2024-04-17T13:10:12Z</time>
      </trkpt>
      <trkpt lat="49.97237" lon="2.11261">
        <ele>13</ele>
        <time>2024-04-17T13:10:13Z</time>
      </trkpt>
      <trkpt lat="49.97237" lon="2.11261">
        <ele>13</ele>
        <time>2024-04-17T13:10:14Z</time>
      </trkpt>
      <trkpt lat="49.97237" lon="2.11261">
        <ele>13</ele>
        <time>2024-04-17T13:10:15Z</time>
      </trkpt>
      <trkpt lat="49.97237" lon="2.11261">
        <ele>13</ele>
        <time>2024-04-17T13:10:16Z</time>
      </trkpt>
      <trkpt lat="49.97237" lon="2.11261">
        <ele>13</ele>
        <time>2024-04-17T13:10:17Z</time>
      </trkpt>
      <trkpt lat="49.97238" lon="2.11261">
        <ele>13</ele>
        <time>2024-04-17T13:10:18Z</time>
      </trkpt>
      <trkpt lat="49.97238" lon="2.11262">
        <ele>13</ele>
        <time>2024-04-17T13:10:19Z</time>
      </trkpt>
      <trkpt lat="49.97238" lon="2.11262">
        <ele>13</ele>
        <time>2024-04-17T13:10:20Z</time>
      </trkpt>
      <trkpt lat="49.97238" lon="2.11262">
        <ele>13</ele>
        <time>2024-04-17T13:10:21Z</time>
      </trkpt>
      <trkpt lat="49.97238" lon="2.11262">
        <ele>12.9</ele>
        <time>2024-04-17T13:10:22Z</time>
      </trkpt>
      <trkpt lat="49.97238" lon="2.11262">
        <ele>12.9</ele>
        <time>2024-04-17T13:10:23Z</time>
      </trkpt>
      <trkpt lat="49.97238" lon="2.11262">
        <ele>12.9</ele>
        <time>2024-04-17T13:10:24Z</time>
      </trkpt>
      <trkpt lat="49.97238" lon="2.11262">
        <ele>12.9</ele>
        <time>2024-04-17T13:10:25Z</time>
      </trkpt>
      <trkpt lat="49.97238" lon="2.11262">
        <ele>12.9</ele>
        <time>2024-04-17T13:10:26Z</time>
      </trkpt>
      <trkpt lat="49.97238" lon="2.11262">
        <ele>12.9</ele>
        <time>2024-04-17T13:10:27Z</time>
      </trkpt>
      <trkpt lat="49.97238" lon="2.11263">
        <ele>12.9</ele>
        <time>2024-04-17T13:10:28Z</time>
      </trkpt>
      <trkpt lat="49.97238" lon="2.11263">
        <ele>12.9</ele>
        <time>2024-04-17T13:10:29Z</time>
      </trkpt>
      <trkpt lat="49.97238" lon="2.11263">
        <ele>12.9</ele>
        <time>2024-04-17T13:10:30Z</time>
      </trkpt>
      <trkpt lat="49.97239" lon="2.11263">
        <ele>12.9</ele>
        <time>2024-04-17T13:10:31Z</time>
      </trkpt>
      <trkpt lat="49.97239" lon="2.11263">
        <ele>12.9</ele>
        <time>2024-04-17T13:10:32Z</time>
      </trkpt>
      <trkpt lat="49.97239" lon="2.11263">
        <ele>12.9</ele>
        <time>2024-04-17T13:10:33Z</time>
      </trkpt>
      <trkpt lat="49.97239" lon="2.11263">
        <ele>12.9</ele>
        <time>2024-04-17T13:10:34Z</time>
      </trkpt>
      <trkpt lat="49.97239" lon="2.11263">
        <ele>12.9</ele>
        <time>2024-04-17T13:10:35Z</time>
      </trkpt>
      <trkpt lat="49.97239" lon="2.11263">
        <ele>12.9</ele>
        <time>2024-04-17T13:10:36Z</time>
      </trkpt>
      <trkpt lat="49.97239" lon="2.11263">
        <ele>12.9</ele>
        <time>2024-04-17T13:10:37Z</time>
      </trkpt>
      <trkpt lat="49.97239" lon="2.11264">
        <ele>12.9</ele>
        <time>2024-04-17T13:10:38Z</time>
      </trkpt>
      <trkpt lat="49.97238" lon="2.11263">
        <ele>12.9</ele>
        <time>2024-04-17T13:10:39Z</time>
      </trkpt>
      <trkpt lat="49.97238" lon="2.11263">
        <ele>12.9</ele>
        <time>2024-04-17T13:10:40Z</time>
      </trkpt>
      <trkpt lat="49.97237" lon="2.11262">
        <ele>12.8</ele>
        <time>2024-04-17T13:10:41Z</time>
      </trkpt>
      <trkpt lat="49.97236" lon="2.11262">
        <ele>12.8</ele>
        <time>2024-04-17T13:10:42Z</time>
      </trkpt>
      <trkpt lat="49.97235" lon="2.11262">
        <ele>12.8</ele>
        <time>2024-04-17T13:10:43Z</time>
      </trkpt>
      <trkpt lat="49.97234" lon="2.11262">
        <ele>12.8</ele>
        <time>2024-04-17T13:10:44Z</time>
      </trkpt>
      <trkpt lat="49.97233" lon="2.11261">
        <ele>12.8</ele>
        <time>2024-04-17T13:10:45Z</time>
      </trkpt>
      <trkpt lat="49.97231" lon="2.1126">
        <ele>12.7</ele>
        <time>2024-04-17T13:10:46Z</time>
      </trkpt>
      <trkpt lat="49.9723" lon="2.1126">
        <ele>12.7</ele>
        <time>2024-04-17T13:10:47Z</time>
      </trkpt>
      <trkpt lat="49.97229" lon="2.11259">
        <ele>12.7</ele>
        <time>2024-04-17T13:10:48Z</time>
      </trkpt>
      <trkpt lat="49.97228" lon="2.11258">
        <ele>12.7</ele>
        <time>2024-04-17T13:10:49Z</time>
      </trkpt>
      <trkpt lat="49.97227" lon="2.11257">
        <ele>12.6</ele>
        <time>2024-04-17T13:10:50Z</time>
      </trkpt>
      <trkpt lat="49.97226" lon="2.11256">
        <ele>12.6</ele>
        <time>2024-04-17T13:10:51Z</time>
      </trkpt>
      <trkpt lat="49.97225" lon="2.11256">
        <ele>12.6</ele>
        <time>2024-04-17T13:10:52Z</time>
      </trkpt>
      <trkpt lat="49.97225" lon="2.11255">
        <ele>12.6</ele>
        <time>2024-04-17T13:10:53Z</time>
      </trkpt>
      <trkpt lat="49.97224" lon="2.11255">
        <ele>12.6</ele>
        <time>2024-04-17T13:10:54Z</time>
      </trkpt>
      <trkpt lat="49.97223" lon="2.11254">
        <ele>12.6</ele>
        <time>2024-04-17T13:10:55Z</time>
      </trkpt>
      <trkpt lat="49.97222" lon="2.11254">
        <ele>12.5</ele>
        <time>2024-04-17T13:10:56Z</time>
      </trkpt>
      <trkpt lat="49.97222" lon="2.11253">
        <ele>12.5</ele>
        <time>2024-04-17T13:10:57Z</time>
      </trkpt>
      <trkpt lat="49.97221" lon="2.11253">
        <ele>12.5</ele>
        <time>2024-04-17T13:10:58Z</time>
      </trkpt>
      <trkpt lat="49.9722" lon="2.11252">
        <ele>12.5</ele>
        <time>2024-04-17T13:10:59Z</time>
      </trkpt>
      <trkpt lat="49.97219" lon="2.11252">
        <ele>12.5</ele>
        <time>2024-04-17T13:11:00Z</time>
      </trkpt>
      <trkpt lat="49.97218" lon="2.11251">
        <ele>12.5</ele>
        <time>2024-04-17T13:11:01Z</time>
      </trkpt>
      <trkpt lat="49.97217" lon="2.1125">
        <ele>12.4</ele>
        <time>2024-04-17T13:11:02Z</time>
      </trkpt>
      <trkpt lat="49.97215" lon="2.11249">
        <ele>12.4</ele>
        <time>2024-04-17T13:11:03Z</time>
      </trkpt>
      <trkpt lat="49.97214" lon="2.11249">
        <ele>12.4</ele>
        <time>2024-04-17T13:11:04Z</time>
      </trkpt>
      <trkpt lat="49.97214" lon="2.11249">
        <ele>12.4</ele>
        <time>2024-04-17T13:11:05Z</time>
      </trkpt>
      <trkpt lat="49.97213" lon="2.11249">
        <ele>12.4</ele>
        <time>2024-04-17T13:11:06Z</time>
      </trkpt>
      <trkpt lat="49.97212" lon="2.11249">
        <ele>12.3</ele>
        <time>2024-04-17T13:11:07Z</time>
      </trkpt>
      <trkpt lat="49.97212" lon="2.11249">
        <ele>12.3</ele>
        <time>2024-04-17T13:11:08Z</time>
      </trkpt>
      <trkpt lat="49.97211" lon="2.11248">
        <ele>12.3</ele>
        <time>2024-04-17T13:11:09Z</time>
      </trkpt>
      <trkpt lat="49.97211" lon="2.11248">
        <ele>12.3</ele>
        <time>2024-04-17T13:11:10Z</time>
      </trkpt>
      <trkpt lat="49.9721" lon="2.11248">
        <ele>12.3</ele>
        <time>2024-04-17T13:11:11Z</time>
      </trkpt>
      <trkpt lat="49.97208" lon="2.11247">
        <ele>12.3</ele>
        <time>2024-04-17T13:11:12Z</time>
      </trkpt>
      <trkpt lat="49.97207" lon="2.11247">
        <ele>12.3</ele>
        <time>2024-04-17T13:11:13Z</time>
      </trkpt>
      <trkpt lat="49.97207" lon="2.11246">
        <ele>12.3</ele>
        <time>2024-04-17T13:11:14Z</time>
      </trkpt>
      <trkpt lat="49.97204" lon="2.11244">
        <ele>12.2</ele>
        <time>2024-04-17T13:11:15Z</time>
      </trkpt>
      <trkpt lat="49.97204" lon="2.11244">
        <ele>12.2</ele>
        <time>2024-04-17T13:11:16Z</time>
      </trkpt>
      <trkpt lat="49.97203" lon="2.11243">
        <ele>12.2</ele>
        <time>2024-04-17T13:11:17Z</time>
      </trkpt>
      <trkpt lat="49.97201" lon="2.11242">
        <ele>12.2</ele>
        <time>2024-04-17T13:11:18Z</time>
      </trkpt>
      <trkpt lat="49.972" lon="2.11241">
        <ele>12.2</ele>
        <time>2024-04-17T13:11:19Z</time>
      </trkpt>
      <trkpt lat="49.97199" lon="2.1124">
        <ele>12.2</ele>
        <time>2024-04-17T13:11:20Z</time>
      </trkpt>
      <trkpt lat="49.97197" lon="2.11239">
        <ele>12.2</ele>
        <time>2024-04-17T13:11:21Z</time>
      </trkpt>
      <trkpt lat="49.97196" lon="2.11238">
        <ele>12.2</ele>
        <time>2024-04-17T13:11:22Z</time>
      </trkpt>
      <trkpt lat="49.97195" lon="2.11237">
        <ele>12.2</ele>
        <time>2024-04-17T13:11:23Z</time>
      </trkpt>
      <trkpt lat="49.97193" lon="2.11236">
        <ele>12.1</ele>
        <time>2024-04-17T13:11:24Z</time>
      </trkpt>
      <trkpt lat="49.97192" lon="2.11236">
        <ele>12.1</ele>
        <time>2024-04-17T13:11:25Z</time>
      </trkpt>
      <trkpt lat="49.97191" lon="2.11235">
        <ele>12.1</ele>
        <time>2024-04-17T13:11:26Z</time>
      </trkpt>
      <trkpt lat="49.9719" lon="2.11235">
        <ele>12.1</ele>
        <time>2024-04-17T13:11:27Z</time>
      </trkpt>
      <trkpt lat="49.97189" lon="2.11234">
        <ele>12.1</ele>
        <time>2024-04-17T13:11:28Z</time>
      </trkpt>
      <trkpt lat="49.97188" lon="2.11234">
        <ele>12.1</ele>
        <time>2024-04-17T13:11:29Z</time>
      </trkpt>
      <trkpt lat="49.97186" lon="2.11234">
        <ele>12.1</ele>
        <time>2024-04-17T13:11:30Z</time>
      </trkpt>
      <trkpt lat="49.97185" lon="2.11233">
        <ele>12.1</ele>
        <time>2024-04-17T13:11:31Z</time>
      </trkpt>
      <trkpt lat="49.97184" lon="2.11232">
        <ele>12.1</ele>
        <time>2024-04-17T13:11:32Z</time>
      </trkpt>
      <trkpt lat="49.97183" lon="2.11232">
        <ele>12.1</ele>
        <time>2024-04-17T13:11:33Z</time>
      </trkpt>
      <trkpt lat="49.97182" lon="2.11231">
        <ele>12.1</ele>
        <time>2024-04-17T13:11:34Z</time>
      </trkpt>
      <trkpt lat="49.97181" lon="2.1123">
        <ele>12.1</ele>
        <time>2024-04-17T13:11:35Z</time>
      </trkpt>
      <trkpt lat="49.9718" lon="2.1123">
        <ele>12.1</ele>
        <time>2024-04-17T13:11:36Z</time>
      </trkpt>
      <trkpt lat="49.97179" lon="2.11229">
        <ele>12.1</ele>
        <time>2024-04-17T13:11:37Z</time>
      </trkpt>
      <trkpt lat="49.97178" lon="2.11229">
        <ele>12.1</ele>
        <time>2024-04-17T13:11:38Z</time>
      </trkpt>
      <trkpt lat="49.97177" lon="2.11228">
        <ele>12.1</ele>
        <time>2024-04-17T13:11:39Z</time>
      </trkpt>
      <trkpt lat="49.97176" lon="2.11227">
        <ele>12.1</ele>
        <time>2024-04-17T13:11:40Z</time>
      </trkpt>
      <trkpt lat="49.97175" lon="2.11227">
        <ele>12.1</ele>
        <time>2024-04-17T13:11:41Z</time>
      </trkpt>
      <trkpt lat="49.97175" lon="2.11226">
        <ele>12.1</ele>
        <time>2024-04-17T13:11:42Z</time>
      </trkpt>
      <trkpt lat="49.97174" lon="2.11225">
        <ele>12.1</ele>
        <time>2024-04-17T13:11:43Z</time>
      </trkpt>
      <trkpt lat="49.97173" lon="2.11224">
        <ele>12.1</ele>
        <time>2024-04-17T13:11:44Z</time>
      </trkpt>
      <trkpt lat="49.97172" lon="2.11224">
        <ele>12.1</ele>
        <time>2024-04-17T13:11:45Z</time>
      </trkpt>
      <trkpt lat="49.97171" lon="2.11223">
        <ele>12.1</ele>
        <time>2024-04-17T13:11:46Z</time>
      </trkpt>
      <trkpt lat="49.9717" lon="2.11222">
        <ele>12.1</ele>
        <time>2024-04-17T13:11:47Z</time>
      </trkpt>
      <trkpt lat="49.97169" lon="2.11221">
        <ele>12.1</ele>
        <time>2024-04-17T13:11:48Z</time>
      </trkpt>
      <trkpt lat="49.97169" lon="2.11221">
        <ele>12.1</ele>
        <time>2024-04-17T13:11:49Z</time>
      </trkpt>
      <trkpt lat="49.97168" lon="2.1122">
        <ele>12.1</ele>
        <time>2024-04-17T13:11:50Z</time>
      </trkpt>
      <trkpt lat="49.97167" lon="2.11219">
        <ele>12.1</ele>
        <time>2024-04-17T13:11:51Z</time>
      </trkpt>
      <trkpt lat="49.97166" lon="2.11218">
        <ele>12.1</ele>
        <time>2024-04-17T13:11:52Z</time>
      </trkpt>
      <trkpt lat="49.97165" lon="2.11218">
        <ele>12.1</ele>
        <time>2024-04-17T13:11:53Z</time>
      </trkpt>
      <trkpt lat="49.97164" lon="2.11217">
        <ele>12.1</ele>
        <time>2024-04-17T13:11:54Z</time>
      </trkpt>
      <trkpt lat="49.97164" lon="2.11216">
        <ele>12.1</ele>
        <time>2024-04-17T13:11:55Z</time>
      </trkpt>
      <trkpt lat="49.97163" lon="2.11215">
        <ele>12.1</ele>
        <time>2024-04-17T13:11:56Z</time>
      </trkpt>
      <trkpt lat="49.97163" lon="2.11214">
        <ele>12.1</ele>
        <time>2024-04-17T13:11:57Z</time>
      </trkpt>
      <trkpt lat="49.97162" lon="2.11214">
        <ele>12.1</ele>
        <time>2024-04-17T13:11:58Z</time>
      </trkpt>
      <trkpt lat="49.97161" lon="2.11214">
        <ele>12.1</ele>
        <time>2024-04-17T13:11:59Z</time>
      </trkpt>
      <trkpt lat="49.9716" lon="2.11213">
        <ele>12</ele>
        <time>2024-04-17T13:12:00Z</time>
      </trkpt>
      <trkpt lat="49.97159" lon="2.11212">
        <ele>12</ele>
        <time>2024-04-17T13:12:01Z</time>
      </trkpt>
      <trkpt lat="49.97158" lon="2.11212">
        <ele>12</ele>
        <time>2024-04-17T13:12:02Z</time>
      </trkpt>
      <trkpt lat="49.97157" lon="2.11211">
        <ele>12</ele>
        <time>2024-04-17T13:12:03Z</time>
      </trkpt>
      <trkpt lat="49.97155" lon="2.1121">
        <ele>12</ele>
        <time>2024-04-17T13:12:04Z</time>
      </trkpt>
      <trkpt lat="49.97154" lon="2.1121">
        <ele>12</ele>
        <time>2024-04-17T13:12:05Z</time>
      </trkpt>
      <trkpt lat="49.97153" lon="2.11209">
        <ele>12</ele>
        <time>2024-04-17T13:12:06Z</time>
      </trkpt>
      <trkpt lat="49.97152" lon="2.11209">
        <ele>12</ele>
        <time>2024-04-17T13:12:07Z</time>
      </trkpt>
      <trkpt lat="49.97151" lon="2.11208">
        <ele>12</ele>
        <time>2024-04-17T13:12:08Z</time>
      </trkpt>
      <trkpt lat="49.9715" lon="2.11207">
        <ele>12</ele>
        <time>2024-04-17T13:12:09Z</time>
      </trkpt>
      <trkpt lat="49.97149" lon="2.11207">
        <ele>12</ele>
        <time>2024-04-17T13:12:10Z</time>
      </trkpt>
      <trkpt lat="49.97148" lon="2.11206">
        <ele>12</ele>
        <time>2024-04-17T13:12:11Z</time>
      </trkpt>
      <trkpt lat="49.97147" lon="2.11205">
        <ele>12</ele>
        <time>2024-04-17T13:12:12Z</time>
      </trkpt>
      <trkpt lat="49.97146" lon="2.11204">
        <ele>12</ele>
        <time>2024-04-17T13:12:13Z</time>
      </trkpt>
      <trkpt lat="49.97145" lon="2.11203">
        <ele>12</ele>
        <time>2024-04-17T13:12:14Z</time>
      </trkpt>
      <trkpt lat="49.97144" lon="2.11202">
        <ele>12</ele>
        <time>2024-04-17T13:12:15Z</time>
      </trkpt>
      <trkpt lat="49.97143" lon="2.11201">
        <ele>12</ele>
        <time>2024-04-17T13:12:16Z</time>
      </trkpt>
      <trkpt lat="49.97142" lon="2.112">
        <ele>11.9</ele>
        <time>2024-04-17T13:12:17Z</time>
      </trkpt>
      <trkpt lat="49.97141" lon="2.11199">
        <ele>11.9</ele>
        <time>2024-04-17T13:12:18Z</time>
      </trkpt>
      <trkpt lat="49.97141" lon="2.11199">
        <ele>11.9</ele>
        <time>2024-04-17T13:12:19Z</time>
      </trkpt>
      <trkpt lat="49.9714" lon="2.11198">
        <ele>11.9</ele>
        <time>2024-04-17T13:12:20Z</time>
      </trkpt>
      <trkpt lat="49.97139" lon="2.11197">
        <ele>11.9</ele>
        <time>2024-04-17T13:12:21Z</time>
      </trkpt>
      <trkpt lat="49.97139" lon="2.11196">
        <ele>11.9</ele>
        <time>2024-04-17T13:12:22Z</time>
      </trkpt>
      <trkpt lat="49.97138" lon="2.11196">
        <ele>11.9</ele>
        <time>2024-04-17T13:12:23Z</time>
      </trkpt>
      <trkpt lat="49.97137" lon="2.11195">
        <ele>11.9</ele>
        <time>2024-04-17T13:12:24Z</time>
      </trkpt>
      <trkpt lat="49.97136" lon="2.11195">
        <ele>12</ele>
        <time>2024-04-17T13:12:25Z</time>
      </trkpt>
      <trkpt lat="49.97136" lon="2.11194">
        <ele>12</ele>
        <time>2024-04-17T13:12:26Z</time>
      </trkpt>
      <trkpt lat="49.97135" lon="2.11194">
        <ele>12</ele>
        <time>2024-04-17T13:12:27Z</time>
      </trkpt>
      <trkpt lat="49.97134" lon="2.11194">
        <ele>12</ele>
        <time>2024-04-17T13:12:28Z</time>
      </trkpt>
      <trkpt lat="49.97133" lon="2.11193">
        <ele>12</ele>
        <time>2024-04-17T13:12:29Z</time>
      </trkpt>
      <trkpt lat="49.97132" lon="2.11193">
        <ele>12</ele>
        <time>2024-04-17T13:12:30Z</time>
      </trkpt>
      <trkpt lat="49.97132" lon="2.11192">
        <ele>12</ele>
        <time>2024-04-17T13:12:31Z</time>
      </trkpt>
      <trkpt lat="49.97131" lon="2.11191">
        <ele>12</ele>
        <time>2024-04-17T13:12:32Z</time>
      </trkpt>
      <trkpt lat="49.9713" lon="2.1119">
        <ele>12</ele>
        <time>2024-04-17T13:12:33Z</time>
      </trkpt>
      <trkpt lat="49.97129" lon="2.1119">
        <ele>12</ele>
        <time>2024-04-17T13:12:34Z</time>
      </trkpt>
      <trkpt lat="49.97128" lon="2.1119">
        <ele>12</ele>
        <time>2024-04-17T13:12:35Z</time>
      </trkpt>
      <trkpt lat="49.97127" lon="2.11189">
        <ele>12</ele>
        <time>2024-04-17T13:12:36Z</time>
      </trkpt>
      <trkpt lat="49.97127" lon="2.11188">
        <ele>12</ele>
        <time>2024-04-17T13:12:37Z</time>
      </trkpt>
      <trkpt lat="49.97126" lon="2.11188">
        <ele>12</ele>
        <time>2024-04-17T13:12:38Z</time>
      </trkpt>
      <trkpt lat="49.97125" lon="2.11188">
        <ele>12</ele>
        <time>2024-04-17T13:12:39Z</time>
      </trkpt>
      <trkpt lat="49.97124" lon="2.11188">
        <ele>12</ele>
        <time>2024-04-17T13:12:40Z</time>
      </trkpt>
      <trkpt lat="49.97123" lon="2.11187">
        <ele>12</ele>
        <time>2024-04-17T13:12:41Z</time>
      </trkpt>
      <trkpt lat="49.97122" lon="2.11187">
        <ele>12</ele>
        <time>2024-04-17T13:12:42Z</time>
      </trkpt>
      <trkpt lat="49.97121" lon="2.11187">
        <ele>12</ele>
        <time>2024-04-17T13:12:43Z</time>
      </trkpt>
      <trkpt lat="49.97119" lon="2.11187">
        <ele>12</ele>
        <time>2024-04-17T13:12:44Z</time>
      </trkpt>
      <trkpt lat="49.97118" lon="2.11186">
        <ele>12</ele>
        <time>2024-04-17T13:12:45Z</time>
      </trkpt>
      <trkpt lat="49.97116" lon="2.11185">
        <ele>12.1</ele>
        <time>2024-04-17T13:12:46Z</time>
      </trkpt>
      <trkpt lat="49.97115" lon="2.11184">
        <ele>12.1</ele>
        <time>2024-04-17T13:12:47Z</time>
      </trkpt>
      <trkpt lat="49.97113" lon="2.11183">
        <ele>12.1</ele>
        <time>2024-04-17T13:12:48Z</time>
      </trkpt>
      <trkpt lat="49.97112" lon="2.11182">
        <ele>12.1</ele>
        <time>2024-04-17T13:12:49Z</time>
      </trkpt>
      <trkpt lat="49.97112" lon="2.11182">
        <ele>12.1</ele>
        <time>2024-04-17T13:12:50Z</time>
      </trkpt>
      <trkpt lat="49.97111" lon="2.11181">
        <ele>12.1</ele>
        <time>2024-04-17T13:12:51Z</time>
      </trkpt>
      <trkpt lat="49.9711" lon="2.11181">
        <ele>12.1</ele>
        <time>2024-04-17T13:12:52Z</time>
      </trkpt>
      <trkpt lat="49.97109" lon="2.1118">
        <ele>12.1</ele>
        <time>2024-04-17T13:12:53Z</time>
      </trkpt>
      <trkpt lat="49.97108" lon="2.11179">
        <ele>12.1</ele>
        <time>2024-04-17T13:12:54Z</time>
      </trkpt>
      <trkpt lat="49.97107" lon="2.11178">
        <ele>12.1</ele>
        <time>2024-04-17T13:12:55Z</time>
      </trkpt>
      <trkpt lat="49.97106" lon="2.11178">
        <ele>12.1</ele>
        <time>2024-04-17T13:12:56Z</time>
      </trkpt>
      <trkpt lat="49.97106" lon="2.11177">
        <ele>12.1</ele>
        <time>2024-04-17T13:12:57Z</time>
      </trkpt>
      <trkpt lat="49.97105" lon="2.11177">
        <ele>12.1</ele>
        <time>2024-04-17T13:12:58Z</time>
      </trkpt>
      <trkpt lat="49.97104" lon="2.11176">
        <ele>12.1</ele>
        <time>2024-04-17T13:12:59Z</time>
      </trkpt>
      <trkpt lat="49.97104" lon="2.11175">
        <ele>12.1</ele>
        <time>2024-04-17T13:13:00Z</time>
      </trkpt>
      <trkpt lat="49.97103" lon="2.11175">
        <ele>12.1</ele>
        <time>2024-04-17T13:13:01Z</time>
      </trkpt>
      <trkpt lat="49.97102" lon="2.11174">
        <ele>12.1</ele>
        <time>2024-04-17T13:13:02Z</time>
      </trkpt>
      <trkpt lat="49.97102" lon="2.11173">
        <ele>12.1</ele>
        <time>2024-04-17T13:13:03Z</time>
      </trkpt>
      <trkpt lat="49.97101" lon="2.11173">
        <ele>12.1</ele>
        <time>2024-04-17T13:13:04Z</time>
      </trkpt>
      <trkpt lat="49.97099" lon="2.11171">
        <ele>12.1</ele>
        <time>2024-04-17T13:13:05Z</time>
      </trkpt>
      <trkpt lat="49.97098" lon="2.11171">
        <ele>12.1</ele>
        <time>2024-04-17T13:13:06Z</time>
      </trkpt>
      <trkpt lat="49.97097" lon="2.1117">
        <ele>12.1</ele>
        <time>2024-04-17T13:13:07Z</time>
      </trkpt>
      <trkpt lat="49.97095" lon="2.11169">
        <ele>12.1</ele>
        <time>2024-04-17T13:13:08Z</time>
      </trkpt>
      <trkpt lat="49.97094" lon="2.11168">
        <ele>12.1</ele>
        <time>2024-04-17T13:13:09Z</time>
      </trkpt>
      <trkpt lat="49.97091" lon="2.11167">
        <ele>12.1</ele>
        <time>2024-04-17T13:13:10Z</time>
      </trkpt>
      <trkpt lat="49.9709" lon="2.11167">
        <ele>12.1</ele>
        <time>2024-04-17T13:13:11Z</time>
      </trkpt>
      <trkpt lat="49.97089" lon="2.11166">
        <ele>12.1</ele>
        <time>2024-04-17T13:13:12Z</time>
      </trkpt>
      <trkpt lat="49.97087" lon="2.11165">
        <ele>12.2</ele>
        <time>2024-04-17T13:13:13Z</time>
      </trkpt>
      <trkpt lat="49.97086" lon="2.11164">
        <ele>12.2</ele>
        <time>2024-04-17T13:13:14Z</time>
      </trkpt>
      <trkpt lat="49.97084" lon="2.11163">
        <ele>12.2</ele>
        <time>2024-04-17T13:13:15Z</time>
      </trkpt>
      <trkpt lat="49.97082" lon="2.11162">
        <ele>12.2</ele>
        <time>2024-04-17T13:13:16Z</time>
      </trkpt>
      <trkpt lat="49.97081" lon="2.11161">
        <ele>12.2</ele>
        <time>2024-04-17T13:13:17Z</time>
      </trkpt>
      <trkpt lat="49.97079" lon="2.11161">
        <ele>12.2</ele>
        <time>2024-04-17T13:13:18Z</time>
      </trkpt>
      <trkpt lat="49.97078" lon="2.1116">
        <ele>12.3</ele>
        <time>2024-04-17T13:13:19Z</time>
      </trkpt>
      <trkpt lat="49.97076" lon="2.11159">
        <ele>12.3</ele>
        <time>2024-04-17T13:13:20Z</time>
      </trkpt>
      <trkpt lat="49.97075" lon="2.11158">
        <ele>12.3</ele>
        <time>2024-04-17T13:13:21Z</time>
      </trkpt>
      <trkpt lat="49.97073" lon="2.11158">
        <ele>12.3</ele>
        <time>2024-04-17T13:13:22Z</time>
      </trkpt>
      <trkpt lat="49.97072" lon="2.11157">
        <ele>12.3</ele>
        <time>2024-04-17T13:13:23Z</time>
      </trkpt>
      <trkpt lat="49.97071" lon="2.11156">
        <ele>12.3</ele>
        <time>2024-04-17T13:13:24Z</time>
      </trkpt>
      <trkpt lat="49.9707" lon="2.11155">
        <ele>12.3</ele>
        <time>2024-04-17T13:13:25Z</time>
      </trkpt>
      <trkpt lat="49.97069" lon="2.11155">
        <ele>12.3</ele>
        <time>2024-04-17T13:13:26Z</time>
      </trkpt>
      <trkpt lat="49.97068" lon="2.11154">
        <ele>12.3</ele>
        <time>2024-04-17T13:13:27Z</time>
      </trkpt>
      <trkpt lat="49.97067" lon="2.11153">
        <ele>12.3</ele>
        <time>2024-04-17T13:13:28Z</time>
      </trkpt>
      <trkpt lat="49.97066" lon="2.11152">
        <ele>12.3</ele>
        <time>2024-04-17T13:13:29Z</time>
      </trkpt>
      <trkpt lat="49.97065" lon="2.11151">
        <ele>12.3</ele>
        <time>2024-04-17T13:13:30Z</time>
      </trkpt>
      <trkpt lat="49.97064" lon="2.11151">
        <ele>12.2</ele>
        <time>2024-04-17T13:13:31Z</time>
      </trkpt>
      <trkpt lat="49.97063" lon="2.1115">
        <ele>12.2</ele>
        <time>2024-04-17T13:13:32Z</time>
      </trkpt>
      <trkpt lat="49.97062" lon="2.1115">
        <ele>12.2</ele>
        <time>2024-04-17T13:13:33Z</time>
      </trkpt>
      <trkpt lat="49.97061" lon="2.11149">
        <ele>12.2</ele>
        <time>2024-04-17T13:13:34Z</time>
      </trkpt>
      <trkpt lat="49.9706" lon="2.11149">
        <ele>12.2</ele>
        <time>2024-04-17T13:13:35Z</time>
      </trkpt>
      <trkpt lat="49.97059" lon="2.11148">
        <ele>12.2</ele>
        <time>2024-04-17T13:13:36Z</time>
      </trkpt>
      <trkpt lat="49.97058" lon="2.11147">
        <ele>12.2</ele>
        <time>2024-04-17T13:13:37Z</time>
      </trkpt>
      <trkpt lat="49.97057" lon="2.11146">
        <ele>12.2</ele>
        <time>2024-04-17T13:13:38Z</time>
      </trkpt>
      <trkpt lat="49.97056" lon="2.11146">
        <ele>12.2</ele>
        <time>2024-04-17T13:13:39Z</time>
      </trkpt>
      <trkpt lat="49.97056" lon="2.11145">
        <ele>12.2</ele>
        <time>2024-04-17T13:13:40Z</time>
      </trkpt>
      <trkpt lat="49.97055" lon="2.11143">
        <ele>12.2</ele>
        <time>2024-04-17T13:13:41Z</time>
      </trkpt>
      <trkpt lat="49.97054" lon="2.11143">
        <ele>12.2</ele>
        <time>2024-04-17T13:13:42Z</time>
      </trkpt>
      <trkpt lat="49.97053" lon="2.11142">
        <ele>12.2</ele>
        <time>2024-04-17T13:13:43Z</time>
      </trkpt>
      <trkpt lat="49.97052" lon="2.11141">
        <ele>12.2</ele>
        <time>2024-04-17T13:13:44Z</time>
      </trkpt>
      <trkpt lat="49.97051" lon="2.1114">
        <ele>12.2</ele>
        <time>2024-04-17T13:13:45Z</time>
      </trkpt>
      <trkpt lat="49.9705" lon="2.1114">
        <ele>12.2</ele>
        <time>2024-04-17T13:13:46Z</time>
      </trkpt>
      <trkpt lat="49.97049" lon="2.11139">
        <ele>12.2</ele>
        <time>2024-04-17T13:13:47Z</time>
      </trkpt>
      <trkpt lat="49.97049" lon="2.11139">
        <ele>12.2</ele>
        <time>2024-04-17T13:13:48Z</time>
      </trkpt>
      <trkpt lat="49.97048" lon="2.11139">
        <ele>12.2</ele>
        <time>2024-04-17T13:13:49Z</time>
      </trkpt>
      <trkpt lat="49.97047" lon="2.11138">
        <ele>12.2</ele>
        <time>2024-04-17T13:13:50Z</time>
      </trkpt>
      <trkpt lat="49.97047" lon="2.11138">
        <ele>12.2</ele>
        <time>2024-04-17T13:13:51Z</time>
      </trkpt>
      <trkpt lat="49.97046" lon="2.11138">
        <ele>12.2</ele>
        <time>2024-04-17T13:13:52Z</time>
      </trkpt>
      <trkpt lat="49.97046" lon="2.11138">
        <ele>12.2</ele>
        <time>2024-04-17T13:13:53Z</time>
      </trkpt>
      <trkpt lat="49.97046" lon="2.11137">
        <ele>12.2</ele>
        <time>2024-04-17T13:13:54Z</time>
      </trkpt>
      <trkpt lat="49.97045" lon="2.11137">
        <ele>12.2</ele>
        <time>2024-04-17T13:13:55Z</time>
      </trkpt>
      <trkpt lat="49.97044" lon="2.11136">
        <ele>12.2</ele>
        <time>2024-04-17T13:13:56Z</time>
      </trkpt>
      <trkpt lat="49.97043" lon="2.11136">
        <ele>12.2</ele>
        <time>2024-04-17T13:13:57Z</time>
      </trkpt>
      <trkpt lat="49.97041" lon="2.11135">
        <ele>12.2</ele>
        <time>2024-04-17T13:13:58Z</time>
      </trkpt>
      <trkpt lat="49.97041" lon="2.11135">
        <ele>12.2</ele>
        <time>2024-04-17T13:13:59Z</time>
      </trkpt>
      <trkpt lat="49.9704" lon="2.11135">
        <ele>12.2</ele>
        <time>2024-04-17T13:14:00Z</time>
      </trkpt>
      <trkpt lat="49.97038" lon="2.11134">
        <ele>12.2</ele>
        <time>2024-04-17T13:14:01Z</time>
      </trkpt>
      <trkpt lat="49.97037" lon="2.11133">
        <ele>12.2</ele>
        <time>2024-04-17T13:14:02Z</time>
      </trkpt>
      <trkpt lat="49.97035" lon="2.11133">
        <ele>12.2</ele>
        <time>2024-04-17T13:14:03Z</time>
      </trkpt>
      <trkpt lat="49.97034" lon="2.11132">
        <ele>12.2</ele>
        <time>2024-04-17T13:14:04Z</time>
      </trkpt>
      <trkpt lat="49.97033" lon="2.11132">
        <ele>12.2</ele>
        <time>2024-04-17T13:14:05Z</time>
      </trkpt>
      <trkpt lat="49.97032" lon="2.11131">
        <ele>12.2</ele>
        <time>2024-04-17T13:14:06Z</time>
      </trkpt>
      <trkpt lat="49.97031" lon="2.1113">
        <ele>12.2</ele>
        <time>2024-04-17T13:14:07Z</time>
      </trkpt>
      <trkpt lat="49.9703" lon="2.11129">
        <ele>12.2</ele>
        <time>2024-04-17T13:14:08Z</time>
      </trkpt>
      <trkpt lat="49.97028" lon="2.11128">
        <ele>12.2</ele>
        <time>2024-04-17T13:14:09Z</time>
      </trkpt>
      <trkpt lat="49.97027" lon="2.11127">
        <ele>12.2</ele>
        <time>2024-04-17T13:14:10Z</time>
      </trkpt>
      <trkpt lat="49.97026" lon="2.11127">
        <ele>12.2</ele>
        <time>2024-04-17T13:14:11Z</time>
      </trkpt>
      <trkpt lat="49.97025" lon="2.11126">
        <ele>12.2</ele>
        <time>2024-04-17T13:14:12Z</time>
      </trkpt>
      <trkpt lat="49.97024" lon="2.11126">
        <ele>12.2</ele>
        <time>2024-04-17T13:14:13Z</time>
      </trkpt>
      <trkpt lat="49.97022" lon="2.11125">
        <ele>12.2</ele>
        <time>2024-04-17T13:14:14Z</time>
      </trkpt>
      <trkpt lat="49.97021" lon="2.11125">
        <ele>12.2</ele>
        <time>2024-04-17T13:14:15Z</time>
      </trkpt>
      <trkpt lat="49.9702" lon="2.11124">
        <ele>12.2</ele>
        <time>2024-04-17T13:14:16Z</time>
      </trkpt>
      <trkpt lat="49.97019" lon="2.11123">
        <ele>12.2</ele>
        <time>2024-04-17T13:14:17Z</time>
      </trkpt>
      <trkpt lat="49.97017" lon="2.11122">
        <ele>12.2</ele>
        <time>2024-04-17T13:14:18Z</time>
      </trkpt>
      <trkpt lat="49.97016" lon="2.11121">
        <ele>12.2</ele>
        <time>2024-04-17T13:14:19Z</time>
      </trkpt>
      <trkpt lat="49.97015" lon="2.1112">
        <ele>12.2</ele>
        <time>2024-04-17T13:14:20Z</time>
      </trkpt>
      <trkpt lat="49.97013" lon="2.11119">
        <ele>12.1</ele>
        <time>2024-04-17T13:14:21Z</time>
      </trkpt>
      <trkpt lat="49.97012" lon="2.11119">
        <ele>12.1</ele>
        <time>2024-04-17T13:14:22Z</time>
      </trkpt>
      <trkpt lat="49.97011" lon="2.11118">
        <ele>12.1</ele>
        <time>2024-04-17T13:14:23Z</time>
      </trkpt>
      <trkpt lat="49.9701" lon="2.11117">
        <ele>12.1</ele>
        <time>2024-04-17T13:14:24Z</time>
      </trkpt>
      <trkpt lat="49.97009" lon="2.11116">
        <ele>12.1</ele>
        <time>2024-04-17T13:14:25Z</time>
      </trkpt>
      <trkpt lat="49.97008" lon="2.11116">
        <ele>12.1</ele>
        <time>2024-04-17T13:14:26Z</time>
      </trkpt>
      <trkpt lat="49.97007" lon="2.11115">
        <ele>12.1</ele>
        <time>2024-04-17T13:14:27Z</time>
      </trkpt>
      <trkpt lat="49.97006" lon="2.11115">
        <ele>12.1</ele>
        <time>2024-04-17T13:14:28Z</time>
      </trkpt>
      <trkpt lat="49.97006" lon="2.11114">
        <ele>12.1</ele>
        <time>2024-04-17T13:14:29Z</time>
      </trkpt>
      <trkpt lat="49.97005" lon="2.11113">
        <ele>12.1</ele>
        <time>2024-04-17T13:14:30Z</time>
      </trkpt>
      <trkpt lat="49.97003" lon="2.11113">
        <ele>12.1</ele>
        <time>2024-04-17T13:14:31Z</time>
      </trkpt>
      <trkpt lat="49.97002" lon="2.11112">
        <ele>12.1</ele>
        <time>2024-04-17T13:14:32Z</time>
      </trkpt>
      <trkpt lat="49.97001" lon="2.11112">
        <ele>12.1</ele>
        <time>2024-04-17T13:14:33Z</time>
      </trkpt>
      <trkpt lat="49.97" lon="2.11112">
        <ele>12.1</ele>
        <time>2024-04-17T13:14:34Z</time>
      </trkpt>
      <trkpt lat="49.96998" lon="2.11111">
        <ele>12.1</ele>
        <time>2024-04-17T13:14:35Z</time>
      </trkpt>
      <trkpt lat="49.96997" lon="2.11111">
        <ele>12.1</ele>
        <time>2024-04-17T13:14:36Z</time>
      </trkpt>
      <trkpt lat="49.96995" lon="2.1111">
        <ele>12.1</ele>
        <time>2024-04-17T13:14:37Z</time>
      </trkpt>
      <trkpt lat="49.96994" lon="2.1111">
        <ele>12.1</ele>
        <time>2024-04-17T13:14:38Z</time>
      </trkpt>
      <trkpt lat="49.96992" lon="2.11109">
        <ele>12.1</ele>
        <time>2024-04-17T13:14:39Z</time>
      </trkpt>
      <trkpt lat="49.96991" lon="2.11109">
        <ele>12.1</ele>
        <time>2024-04-17T13:14:40Z</time>
      </trkpt>
      <trkpt lat="49.9699" lon="2.11108">
        <ele>12.1</ele>
        <time>2024-04-17T13:14:41Z</time>
      </trkpt>
      <trkpt lat="49.96988" lon="2.11107">
        <ele>12.1</ele>
        <time>2024-04-17T13:14:42Z</time>
      </trkpt>
      <trkpt lat="49.96987" lon="2.11106">
        <ele>12.1</ele>
        <time>2024-04-17T13:14:43Z</time>
      </trkpt>
      <trkpt lat="49.96985" lon="2.11106">
        <ele>12.1</ele>
        <time>2024-04-17T13:14:44Z</time>
      </trkpt>
      <trkpt lat="49.96984" lon="2.11105">
        <ele>12.1</ele>
        <time>2024-04-17T13:14:45Z</time>
      </trkpt>
      <trkpt lat="49.96982" lon="2.11103">
        <ele>12.1</ele>
        <time>2024-04-17T13:14:46Z</time>
      </trkpt>
      <trkpt lat="49.96981" lon="2.11103">
        <ele>12.1</ele>
        <time>2024-04-17T13:14:47Z</time>
      </trkpt>
      <trkpt lat="49.9698" lon="2.11103">
        <ele>12.1</ele>
        <time>2024-04-17T13:14:48Z</time>
      </trkpt>
      <trkpt lat="49.96978" lon="2.11102">
        <ele>12.1</ele>
        <time>2024-04-17T13:14:49Z</time>
      </trkpt>
      <trkpt lat="49.96977" lon="2.11101">
        <ele>12.1</ele>
        <time>2024-04-17T13:14:50Z</time>
      </trkpt>
      <trkpt lat="49.96976" lon="2.11101">
        <ele>12.1</ele>
        <time>2024-04-17T13:14:51Z</time>
      </trkpt>
      <trkpt lat="49.96974" lon="2.111">
        <ele>12.1</ele>
        <time>2024-04-17T13:14:52Z</time>
      </trkpt>
      <trkpt lat="49.96974" lon="2.111">
        <ele>12.1</ele>
        <time>2024-04-17T13:14:53Z</time>
      </trkpt>
      <trkpt lat="49.96973" lon="2.111">
        <ele>12.1</ele>
        <time>2024-04-17T13:14:54Z</time>
      </trkpt>
      <trkpt lat="49.96971" lon="2.111">
        <ele>12.1</ele>
        <time>2024-04-17T13:14:55Z</time>
      </trkpt>
      <trkpt lat="49.9697" lon="2.111">
        <ele>12.1</ele>
        <time>2024-04-17T13:14:56Z</time>
      </trkpt>
      <trkpt lat="49.96969" lon="2.11099">
        <ele>12.1</ele>
        <time>2024-04-17T13:14:57Z</time>
      </trkpt>
      <trkpt lat="49.96968" lon="2.11099">
        <ele>12.1</ele>
        <time>2024-04-17T13:14:58Z</time>
      </trkpt>
      <trkpt lat="49.96967" lon="2.11099">
        <ele>12.1</ele>
        <time>2024-04-17T13:14:59Z</time>
      </trkpt>
      <trkpt lat="49.96966" lon="2.11099">
        <ele>12.1</ele>
        <time>2024-04-17T13:15:00Z</time>
      </trkpt>
      <trkpt lat="49.96965" lon="2.11099">
        <ele>12.1</ele>
        <time>2024-04-17T13:15:01Z</time>
      </trkpt>
      <trkpt lat="49.96963" lon="2.11099">
        <ele>12.1</ele>
        <time>2024-04-17T13:15:02Z</time>
      </trkpt>
      <trkpt lat="49.96962" lon="2.11099">
        <ele>12.1</ele>
        <time>2024-04-17T13:15:03Z</time>
      </trkpt>
      <trkpt lat="49.96961" lon="2.11099">
        <ele>12.2</ele>
        <time>2024-04-17T13:15:04Z</time>
      </trkpt>
      <trkpt lat="49.9696" lon="2.11099">
        <ele>12.2</ele>
        <time>2024-04-17T13:15:05Z</time>
      </trkpt>
      <trkpt lat="49.96959" lon="2.11099">
        <ele>12.2</ele>
        <time>2024-04-17T13:15:06Z</time>
      </trkpt>
      <trkpt lat="49.96958" lon="2.11099">
        <ele>12.2</ele>
        <time>2024-04-17T13:15:07Z</time>
      </trkpt>
      <trkpt lat="49.96957" lon="2.11099">
        <ele>12.2</ele>
        <time>2024-04-17T13:15:08Z</time>
      </trkpt>
      <trkpt lat="49.96956" lon="2.11099">
        <ele>12.2</ele>
        <time>2024-04-17T13:15:09Z</time>
      </trkpt>
      <trkpt lat="49.96955" lon="2.11099">
        <ele>12.2</ele>
        <time>2024-04-17T13:15:10Z</time>
      </trkpt>
      <trkpt lat="49.96954" lon="2.11099">
        <ele>12.2</ele>
        <time>2024-04-17T13:15:11Z</time>
      </trkpt>
      <trkpt lat="49.96953" lon="2.111">
        <ele>12.2</ele>
        <time>2024-04-17T13:15:12Z</time>
      </trkpt>
      <trkpt lat="49.96952" lon="2.111">
        <ele>12.2</ele>
        <time>2024-04-17T13:15:13Z</time>
      </trkpt>
      <trkpt lat="49.96951" lon="2.111">
        <ele>12.2</ele>
        <time>2024-04-17T13:15:14Z</time>
      </trkpt>
      <trkpt lat="49.96949" lon="2.111">
        <ele>12.2</ele>
        <time>2024-04-17T13:15:15Z</time>
      </trkpt>
      <trkpt lat="49.96948" lon="2.11101">
        <ele>12.2</ele>
        <time>2024-04-17T13:15:16Z</time>
      </trkpt>
      <trkpt lat="49.96947" lon="2.11101">
        <ele>12.2</ele>
        <time>2024-04-17T13:15:17Z</time>
      </trkpt>
      <trkpt lat="49.96946" lon="2.11101">
        <ele>12.2</ele>
        <time>2024-04-17T13:15:18Z</time>
      </trkpt>
      <trkpt lat="49.96945" lon="2.11101">
        <ele>12.1</ele>
        <time>2024-04-17T13:15:19Z</time>
      </trkpt>
      <trkpt lat="49.96944" lon="2.11101">
        <ele>12.1</ele>
        <time>2024-04-17T13:15:20Z</time>
      </trkpt>
      <trkpt lat="49.96943" lon="2.11101">
        <ele>12.1</ele>
        <time>2024-04-17T13:15:21Z</time>
      </trkpt>
      <trkpt lat="49.96942" lon="2.11101">
        <ele>12.1</ele>
        <time>2024-04-17T13:15:22Z</time>
      </trkpt>
      <trkpt lat="49.96941" lon="2.11101">
        <ele>12.1</ele>
        <time>2024-04-17T13:15:23Z</time>
      </trkpt>
      <trkpt lat="49.9694" lon="2.11101">
        <ele>12.1</ele>
        <time>2024-04-17T13:15:24Z</time>
      </trkpt>
      <trkpt lat="49.96939" lon="2.11101">
        <ele>12.1</ele>
        <time>2024-04-17T13:15:25Z</time>
      </trkpt>
      <trkpt lat="49.96938" lon="2.11101">
        <ele>12.1</ele>
        <time>2024-04-17T13:15:26Z</time>
      </trkpt>
      <trkpt lat="49.96937" lon="2.111">
        <ele>12.1</ele>
        <time>2024-04-17T13:15:27Z</time>
      </trkpt>
      <trkpt lat="49.96936" lon="2.111">
        <ele>12.1</ele>
        <time>2024-04-17T13:15:28Z</time>
      </trkpt>
      <trkpt lat="49.96934" lon="2.111">
        <ele>12.1</ele>
        <time>2024-04-17T13:15:29Z</time>
      </trkpt>
      <trkpt lat="49.96933" lon="2.111">
        <ele>12.1</ele>
        <time>2024-04-17T13:15:30Z</time>
      </trkpt>
      <trkpt lat="49.96932" lon="2.111">
        <ele>12.1</ele>
        <time>2024-04-17T13:15:31Z</time>
      </trkpt>
      <trkpt lat="49.96931" lon="2.111">
        <ele>12.1</ele>
        <time>2024-04-17T13:15:32Z</time>
      </trkpt>
      <trkpt lat="49.9693" lon="2.111">
        <ele>12.1</ele>
        <time>2024-04-17T13:15:33Z</time>
      </trkpt>
      <trkpt lat="49.96929" lon="2.111">
        <ele>12.1</ele>
        <time>2024-04-17T13:15:34Z</time>
      </trkpt>
      <trkpt lat="49.96928" lon="2.111">
        <ele>12.1</ele>
        <time>2024-04-17T13:15:35Z</time>
      </trkpt>
      <trkpt lat="49.96927" lon="2.111">
        <ele>12.1</ele>
        <time>2024-04-17T13:15:36Z</time>
      </trkpt>
      <trkpt lat="49.96926" lon="2.111">
        <ele>12.1</ele>
        <time>2024-04-17T13:15:37Z</time>
      </trkpt>
      <trkpt lat="49.96925" lon="2.111">
        <ele>12.1</ele>
        <time>2024-04-17T13:15:38Z</time>
      </trkpt>
      <trkpt lat="49.96924" lon="2.11099">
        <ele>12.1</ele>
        <time>2024-04-17T13:15:39Z</time>
      </trkpt>
      <trkpt lat="49.96922" lon="2.11099">
        <ele>12.1</ele>
        <time>2024-04-17T13:15:40Z</time>
      </trkpt>
      <trkpt lat="49.96922" lon="2.11098">
        <ele>12.1</ele>
        <time>2024-04-17T13:15:41Z</time>
      </trkpt>
      <trkpt lat="49.96921" lon="2.11098">
        <ele>12.1</ele>
        <time>2024-04-17T13:15:42Z</time>
      </trkpt>
      <trkpt lat="49.9692" lon="2.11097">
        <ele>12.1</ele>
        <time>2024-04-17T13:15:43Z</time>
      </trkpt>
      <trkpt lat="49.96919" lon="2.11096">
        <ele>12.1</ele>
        <time>2024-04-17T13:15:44Z</time>
      </trkpt>
      <trkpt lat="49.96918" lon="2.11095">
        <ele>12.1</ele>
        <time>2024-04-17T13:15:45Z</time>
      </trkpt>
      <trkpt lat="49.96917" lon="2.11095">
        <ele>12.1</ele>
        <time>2024-04-17T13:15:46Z</time>
      </trkpt>
      <trkpt lat="49.96916" lon="2.11094">
        <ele>12.1</ele>
        <time>2024-04-17T13:15:47Z</time>
      </trkpt>
      <trkpt lat="49.96915" lon="2.11093">
        <ele>12.1</ele>
        <time>2024-04-17T13:15:48Z</time>
      </trkpt>
      <trkpt lat="49.96914" lon="2.11093">
        <ele>12.1</ele>
        <time>2024-04-17T13:15:49Z</time>
      </trkpt>
      <trkpt lat="49.96913" lon="2.11092">
        <ele>12.1</ele>
        <time>2024-04-17T13:15:50Z</time>
      </trkpt>
      <trkpt lat="49.96912" lon="2.11091">
        <ele>12.1</ele>
        <time>2024-04-17T13:15:51Z</time>
      </trkpt>
      <trkpt lat="49.96911" lon="2.11091">
        <ele>12.1</ele>
        <time>2024-04-17T13:15:52Z</time>
      </trkpt>
      <trkpt lat="49.9691" lon="2.1109">
        <ele>12.1</ele>
        <time>2024-04-17T13:15:53Z</time>
      </trkpt>
      <trkpt lat="49.96909" lon="2.1109">
        <ele>12.1</ele>
        <time>2024-04-17T13:15:54Z</time>
      </trkpt>
      <trkpt lat="49.96908" lon="2.11089">
        <ele>12.1</ele>
        <time>2024-04-17T13:15:55Z</time>
      </trkpt>
      <trkpt lat="49.96908" lon="2.11089">
        <ele>12.1</ele>
        <time>2024-04-17T13:15:56Z</time>
      </trkpt>
      <trkpt lat="49.96907" lon="2.11088">
        <ele>12.1</ele>
        <time>2024-04-17T13:15:57Z</time>
      </trkpt>
      <trkpt lat="49.96906" lon="2.11087">
        <ele>12.1</ele>
        <time>2024-04-17T13:15:58Z</time>
      </trkpt>
      <trkpt lat="49.96905" lon="2.11087">
        <ele>12.1</ele>
        <time>2024-04-17T13:15:59Z</time>
      </trkpt>
      <trkpt lat="49.96904" lon="2.11086">
        <ele>12.1</ele>
        <time>2024-04-17T13:16:00Z</time>
      </trkpt>
      <trkpt lat="49.96903" lon="2.11085">
        <ele>12.1</ele>
        <time>2024-04-17T13:16:01Z</time>
      </trkpt>
      <trkpt lat="49.96902" lon="2.11084">
        <ele>12.1</ele>
        <time>2024-04-17T13:16:02Z</time>
      </trkpt>
      <trkpt lat="49.96901" lon="2.11084">
        <ele>12.1</ele>
        <time>2024-04-17T13:16:03Z</time>
      </trkpt>
      <trkpt lat="49.96899" lon="2.11083">
        <ele>12.1</ele>
        <time>2024-04-17T13:16:04Z</time>
      </trkpt>
      <trkpt lat="49.96899" lon="2.11083">
        <ele>12.1</ele>
        <time>2024-04-17T13:16:05Z</time>
      </trkpt>
      <trkpt lat="49.96898" lon="2.11082">
        <ele>12.1</ele>
        <time>2024-04-17T13:16:06Z</time>
      </trkpt>
      <trkpt lat="49.96897" lon="2.11081">
        <ele>12.1</ele>
        <time>2024-04-17T13:16:07Z</time>
      </trkpt>
      <trkpt lat="49.96896" lon="2.1108">
        <ele>12.1</ele>
        <time>2024-04-17T13:16:08Z</time>
      </trkpt>
      <trkpt lat="49.96895" lon="2.1108">
        <ele>12.1</ele>
        <time>2024-04-17T13:16:09Z</time>
      </trkpt>
      <trkpt lat="49.96894" lon="2.11079">
        <ele>12.1</ele>
        <time>2024-04-17T13:16:10Z</time>
      </trkpt>
      <trkpt lat="49.96893" lon="2.11079">
        <ele>12.1</ele>
        <time>2024-04-17T13:16:11Z</time>
      </trkpt>
      <trkpt lat="49.96892" lon="2.11078">
        <ele>12.2</ele>
        <time>2024-04-17T13:16:12Z</time>
      </trkpt>
      <trkpt lat="49.96891" lon="2.11078">
        <ele>12.2</ele>
        <time>2024-04-17T13:16:13Z</time>
      </trkpt>
      <trkpt lat="49.9689" lon="2.11077">
        <ele>12.2</ele>
        <time>2024-04-17T13:16:14Z</time>
      </trkpt>
      <trkpt lat="49.96889" lon="2.11077">
        <ele>12.2</ele>
        <time>2024-04-17T13:16:15Z</time>
      </trkpt>
      <trkpt lat="49.96888" lon="2.11077">
        <ele>12.2</ele>
        <time>2024-04-17T13:16:16Z</time>
      </trkpt>
      <trkpt lat="49.96887" lon="2.11076">
        <ele>12.2</ele>
        <time>2024-04-17T13:16:17Z</time>
      </trkpt>
      <trkpt lat="49.96886" lon="2.11076">
        <ele>12.2</ele>
        <time>2024-04-17T13:16:18Z</time>
      </trkpt>
      <trkpt lat="49.96885" lon="2.11076">
        <ele>12.2</ele>
        <time>2024-04-17T13:16:19Z</time>
      </trkpt>
      <trkpt lat="49.96884" lon="2.11076">
        <ele>12.2</ele>
        <time>2024-04-17T13:16:20Z</time>
      </trkpt>
      <trkpt lat="49.96883" lon="2.11076">
        <ele>12.2</ele>
        <time>2024-04-17T13:16:21Z</time>
      </trkpt>
      <trkpt lat="49.96881" lon="2.11076">
        <ele>12.3</ele>
        <time>2024-04-17T13:16:22Z</time>
      </trkpt>
      <trkpt lat="49.9688" lon="2.11076">
        <ele>12.3</ele>
        <time>2024-04-17T13:16:23Z</time>
      </trkpt>
      <trkpt lat="49.96879" lon="2.11075">
        <ele>12.3</ele>
        <time>2024-04-17T13:16:24Z</time>
      </trkpt>
      <trkpt lat="49.96878" lon="2.11075">
        <ele>12.3</ele>
        <time>2024-04-17T13:16:25Z</time>
      </trkpt>
      <trkpt lat="49.96877" lon="2.11075">
        <ele>12.3</ele>
        <time>2024-04-17T13:16:26Z</time>
      </trkpt>
      <trkpt lat="49.96876" lon="2.11074">
        <ele>12.3</ele>
        <time>2024-04-17T13:16:27Z</time>
      </trkpt>
      <trkpt lat="49.96875" lon="2.11074">
        <ele>12.3</ele>
        <time>2024-04-17T13:16:28Z</time>
      </trkpt>
      <trkpt lat="49.96874" lon="2.11074">
        <ele>12.3</ele>
        <time>2024-04-17T13:16:29Z</time>
      </trkpt>
      <trkpt lat="49.96873" lon="2.11073">
        <ele>12.3</ele>
        <time>2024-04-17T13:16:30Z</time>
      </trkpt>
      <trkpt lat="49.96872" lon="2.11073">
        <ele>12.3</ele>
        <time>2024-04-17T13:16:31Z</time>
      </trkpt>
      <trkpt lat="49.96871" lon="2.11073">
        <ele>12.3</ele>
        <time>2024-04-17T13:16:32Z</time>
      </trkpt>
      <trkpt lat="49.96869" lon="2.11073">
        <ele>12.3</ele>
        <time>2024-04-17T13:16:33Z</time>
      </trkpt>
      <trkpt lat="49.96868" lon="2.11072">
        <ele>12.3</ele>
        <time>2024-04-17T13:16:34Z</time>
      </trkpt>
      <trkpt lat="49.96867" lon="2.11072">
        <ele>12.3</ele>
        <time>2024-04-17T13:16:35Z</time>
      </trkpt>
      <trkpt lat="49.96866" lon="2.11072">
        <ele>12.3</ele>
        <time>2024-04-17T13:16:36Z</time>
      </trkpt>
      <trkpt lat="49.96865" lon="2.11072">
        <ele>12.3</ele>
        <time>2024-04-17T13:16:37Z</time>
      </trkpt>
      <trkpt lat="49.96864" lon="2.11072">
        <ele>12.3</ele>
        <time>2024-04-17T13:16:38Z</time>
      </trkpt>
      <trkpt lat="49.96863" lon="2.11072">
        <ele>12.3</ele>
        <time>2024-04-17T13:16:39Z</time>
      </trkpt>
      <trkpt lat="49.96861" lon="2.11072">
        <ele>12.3</ele>
        <time>2024-04-17T13:16:40Z</time>
      </trkpt>
      <trkpt lat="49.9686" lon="2.11072">
        <ele>12.3</ele>
        <time>2024-04-17T13:16:41Z</time>
      </trkpt>
      <trkpt lat="49.96859" lon="2.11073">
        <ele>12.3</ele>
        <time>2024-04-17T13:16:42Z</time>
      </trkpt>
      <trkpt lat="49.96857" lon="2.11072">
        <ele>12.3</ele>
        <time>2024-04-17T13:16:43Z</time>
      </trkpt>
      <trkpt lat="49.96856" lon="2.11072">
        <ele>12.3</ele>
        <time>2024-04-17T13:16:44Z</time>
      </trkpt>
      <trkpt lat="49.96854" lon="2.11072">
        <ele>12.3</ele>
        <time>2024-04-17T13:16:45Z</time>
      </trkpt>
      <trkpt lat="49.96852" lon="2.11072">
        <ele>12.3</ele>
        <time>2024-04-17T13:16:46Z</time>
      </trkpt>
      <trkpt lat="49.96852" lon="2.11072">
        <ele>12.3</ele>
        <time>2024-04-17T13:16:47Z</time>
      </trkpt>
      <trkpt lat="49.96851" lon="2.11072">
        <ele>12.3</ele>
        <time>2024-04-17T13:16:48Z</time>
      </trkpt>
      <trkpt lat="49.9685" lon="2.11072">
        <ele>12.3</ele>
        <time>2024-04-17T13:16:49Z</time>
      </trkpt>
      <trkpt lat="49.96849" lon="2.11072">
        <ele>12.3</ele>
        <time>2024-04-17T13:16:50Z</time>
      </trkpt>
      <trkpt lat="49.96847" lon="2.11073">
        <ele>12.3</ele>
        <time>2024-04-17T13:16:51Z</time>
      </trkpt>
      <trkpt lat="49.96845" lon="2.11073">
        <ele>12.3</ele>
        <time>2024-04-17T13:16:52Z</time>
      </trkpt>
      <trkpt lat="49.96845" lon="2.11073">
        <ele>12.3</ele>
        <time>2024-04-17T13:16:53Z</time>
      </trkpt>
      <trkpt lat="49.96844" lon="2.11073">
        <ele>12.3</ele>
        <time>2024-04-17T13:16:54Z</time>
      </trkpt>
      <trkpt lat="49.96843" lon="2.11073">
        <ele>12.3</ele>
        <time>2024-04-17T13:16:55Z</time>
      </trkpt>
      <trkpt lat="49.96842" lon="2.11073">
        <ele>12.3</ele>
        <time>2024-04-17T13:16:56Z</time>
      </trkpt>
      <trkpt lat="49.96841" lon="2.11073">
        <ele>12.3</ele>
        <time>2024-04-17T13:16:57Z</time>
      </trkpt>
      <trkpt lat="49.9684" lon="2.11073">
        <ele>12.3</ele>
        <time>2024-04-17T13:16:58Z</time>
      </trkpt>
      <trkpt lat="49.96839" lon="2.11074">
        <ele>12.3</ele>
        <time>2024-04-17T13:16:59Z</time>
      </trkpt>
      <trkpt lat="49.96838" lon="2.11074">
        <ele>12.3</ele>
        <time>2024-04-17T13:17:00Z</time>
      </trkpt>
      <trkpt lat="49.96837" lon="2.11075">
        <ele>12.3</ele>
        <time>2024-04-17T13:17:01Z</time>
      </trkpt>
      <trkpt lat="49.96835" lon="2.11075">
        <ele>12.3</ele>
        <time>2024-04-17T13:17:02Z</time>
      </trkpt>
      <trkpt lat="49.96834" lon="2.11075">
        <ele>12.3</ele>
        <time>2024-04-17T13:17:03Z</time>
      </trkpt>
      <trkpt lat="49.96833" lon="2.11076">
        <ele>12.3</ele>
        <time>2024-04-17T13:17:04Z</time>
      </trkpt>
      <trkpt lat="49.96832" lon="2.11076">
        <ele>12.3</ele>
        <time>2024-04-17T13:17:05Z</time>
      </trkpt>
      <trkpt lat="49.96831" lon="2.11075">
        <ele>12.3</ele>
        <time>2024-04-17T13:17:06Z</time>
      </trkpt>
      <trkpt lat="49.9683" lon="2.11075">
        <ele>12.3</ele>
        <time>2024-04-17T13:17:07Z</time>
      </trkpt>
      <trkpt lat="49.96829" lon="2.11075">
        <ele>12.3</ele>
        <time>2024-04-17T13:17:08Z</time>
      </trkpt>
      <trkpt lat="49.96828" lon="2.11075">
        <ele>12.3</ele>
        <time>2024-04-17T13:17:09Z</time>
      </trkpt>
      <trkpt lat="49.96827" lon="2.11074">
        <ele>12.3</ele>
        <time>2024-04-17T13:17:10Z</time>
      </trkpt>
      <trkpt lat="49.96826" lon="2.11075">
        <ele>12.3</ele>
        <time>2024-04-17T13:17:11Z</time>
      </trkpt>
      <trkpt lat="49.96825" lon="2.11075">
        <ele>12.3</ele>
        <time>2024-04-17T13:17:12Z</time>
      </trkpt>
      <trkpt lat="49.96824" lon="2.11075">
        <ele>12.3</ele>
        <time>2024-04-17T13:17:13Z</time>
      </trkpt>
      <trkpt lat="49.96823" lon="2.11075">
        <ele>12.3</ele>
        <time>2024-04-17T13:17:14Z</time>
      </trkpt>
      <trkpt lat="49.96822" lon="2.11075">
        <ele>12.3</ele>
        <time>2024-04-17T13:17:15Z</time>
      </trkpt>
      <trkpt lat="49.96821" lon="2.11075">
        <ele>12.3</ele>
        <time>2024-04-17T13:17:16Z</time>
      </trkpt>
      <trkpt lat="49.9682" lon="2.11075">
        <ele>12.3</ele>
        <time>2024-04-17T13:17:17Z</time>
      </trkpt>
      <trkpt lat="49.96819" lon="2.11075">
        <ele>12.3</ele>
        <time>2024-04-17T13:17:18Z</time>
      </trkpt>
      <trkpt lat="49.96818" lon="2.11075">
        <ele>12.3</ele>
        <time>2024-04-17T13:17:19Z</time>
      </trkpt>
      <trkpt lat="49.96817" lon="2.11075">
        <ele>12.3</ele>
        <time>2024-04-17T13:17:20Z</time>
      </trkpt>
      <trkpt lat="49.96816" lon="2.11076">
        <ele>12.3</ele>
        <time>2024-04-17T13:17:21Z</time>
      </trkpt>
      <trkpt lat="49.96815" lon="2.11076">
        <ele>12.3</ele>
        <time>2024-04-17T13:17:22Z</time>
      </trkpt>
      <trkpt lat="49.96814" lon="2.11077">
        <ele>12.3</ele>
        <time>2024-04-17T13:17:23Z</time>
      </trkpt>
      <trkpt lat="49.96813" lon="2.11077">
        <ele>12.3</ele>
        <time>2024-04-17T13:17:24Z</time>
      </trkpt>
      <trkpt lat="49.96812" lon="2.11077">
        <ele>12.3</ele>
        <time>2024-04-17T13:17:25Z</time>
      </trkpt>
      <trkpt lat="49.96811" lon="2.11077">
        <ele>12.3</ele>
        <time>2024-04-17T13:17:26Z</time>
      </trkpt>
      <trkpt lat="49.9681" lon="2.11077">
        <ele>12.3</ele>
        <time>2024-04-17T13:17:27Z</time>
      </trkpt>
      <trkpt lat="49.96809" lon="2.11078">
        <ele>12.3</ele>
        <time>2024-04-17T13:17:28Z</time>
      </trkpt>
      <trkpt lat="49.96807" lon="2.11078">
        <ele>12.3</ele>
        <time>2024-04-17T13:17:29Z</time>
      </trkpt>
      <trkpt lat="49.96806" lon="2.11078">
        <ele>12.3</ele>
        <time>2024-04-17T13:17:30Z</time>
      </trkpt>
      <trkpt lat="49.96805" lon="2.11078">
        <ele>12.3</ele>
        <time>2024-04-17T13:17:31Z</time>
      </trkpt>
      <trkpt lat="49.96804" lon="2.11078">
        <ele>12.3</ele>
        <time>2024-04-17T13:17:32Z</time>
      </trkpt>
      <trkpt lat="49.96803" lon="2.11077">
        <ele>12.3</ele>
        <time>2024-04-17T13:17:33Z</time>
      </trkpt>
      <trkpt lat="49.96802" lon="2.11077">
        <ele>12.3</ele>
        <time>2024-04-17T13:17:34Z</time>
      </trkpt>
      <trkpt lat="49.968" lon="2.11077">
        <ele>12.2</ele>
        <time>2024-04-17T13:17:35Z</time>
      </trkpt>
      <trkpt lat="49.96799" lon="2.11077">
        <ele>12.2</ele>
        <time>2024-04-17T13:17:36Z</time>
      </trkpt>
      <trkpt lat="49.96798" lon="2.11077">
        <ele>12.2</ele>
        <time>2024-04-17T13:17:37Z</time>
      </trkpt>
      <trkpt lat="49.96796" lon="2.11078">
        <ele>12.2</ele>
        <time>2024-04-17T13:17:38Z</time>
      </trkpt>
      <trkpt lat="49.96795" lon="2.11078">
        <ele>12.2</ele>
        <time>2024-04-17T13:17:39Z</time>
      </trkpt>
      <trkpt lat="49.96793" lon="2.11078">
        <ele>12.2</ele>
        <time>2024-04-17T13:17:40Z</time>
      </trkpt>
      <trkpt lat="49.96792" lon="2.11078">
        <ele>12.2</ele>
        <time>2024-04-17T13:17:41Z</time>
      </trkpt>
      <trkpt lat="49.96791" lon="2.11078">
        <ele>12.2</ele>
        <time>2024-04-17T13:17:42Z</time>
      </trkpt>
      <trkpt lat="49.96789" lon="2.11079">
        <ele>12.2</ele>
        <time>2024-04-17T13:17:43Z</time>
      </trkpt>
      <trkpt lat="49.96788" lon="2.11079">
        <ele>12.2</ele>
        <time>2024-04-17T13:17:44Z</time>
      </trkpt>
      <trkpt lat="49.96787" lon="2.11079">
        <ele>12.2</ele>
        <time>2024-04-17T13:17:45Z</time>
      </trkpt>
      <trkpt lat="49.96785" lon="2.11079">
        <ele>12.2</ele>
        <time>2024-04-17T13:17:46Z</time>
      </trkpt>
      <trkpt lat="49.96784" lon="2.11079">
        <ele>12.2</ele>
        <time>2024-04-17T13:17:47Z</time>
      </trkpt>
      <trkpt lat="49.96783" lon="2.11079">
        <ele>12.2</ele>
        <time>2024-04-17T13:17:48Z</time>
      </trkpt>
      <trkpt lat="49.96782" lon="2.11079">
        <ele>12.2</ele>
        <time>2024-04-17T13:17:49Z</time>
      </trkpt>
      <trkpt lat="49.9678" lon="2.11079">
        <ele>12.2</ele>
        <time>2024-04-17T13:17:50Z</time>
      </trkpt>
      <trkpt lat="49.96778" lon="2.11078">
        <ele>12.2</ele>
        <time>2024-04-17T13:17:51Z</time>
      </trkpt>
      <trkpt lat="49.96777" lon="2.11078">
        <ele>12.2</ele>
        <time>2024-04-17T13:17:52Z</time>
      </trkpt>
      <trkpt lat="49.96777" lon="2.11078">
        <ele>12.2</ele>
        <time>2024-04-17T13:17:53Z</time>
      </trkpt>
      <trkpt lat="49.96776" lon="2.11078">
        <ele>12.2</ele>
        <time>2024-04-17T13:17:54Z</time>
      </trkpt>
      <trkpt lat="49.96774" lon="2.11078">
        <ele>12.2</ele>
        <time>2024-04-17T13:17:55Z</time>
      </trkpt>
      <trkpt lat="49.96773" lon="2.11078">
        <ele>12.2</ele>
        <time>2024-04-17T13:17:56Z</time>
      </trkpt>
      <trkpt lat="49.96771" lon="2.11078">
        <ele>12.2</ele>
        <time>2024-04-17T13:17:57Z</time>
      </trkpt>
      <trkpt lat="49.9677" lon="2.11078">
        <ele>12.2</ele>
        <time>2024-04-17T13:17:58Z</time>
      </trkpt>
      <trkpt lat="49.96769" lon="2.11078">
        <ele>12.1</ele>
        <time>2024-04-17T13:17:59Z</time>
      </trkpt>
      <trkpt lat="49.96768" lon="2.11078">
        <ele>12.1</ele>
        <time>2024-04-17T13:18:00Z</time>
      </trkpt>
      <trkpt lat="49.96767" lon="2.11078">
        <ele>12.1</ele>
        <time>2024-04-17T13:18:01Z</time>
      </trkpt>
      <trkpt lat="49.96766" lon="2.11078">
        <ele>12.1</ele>
        <time>2024-04-17T13:18:02Z</time>
      </trkpt>
      <trkpt lat="49.96764" lon="2.11078">
        <ele>12.1</ele>
        <time>2024-04-17T13:18:03Z</time>
      </trkpt>
      <trkpt lat="49.96764" lon="2.11078">
        <ele>12.1</ele>
        <time>2024-04-17T13:18:04Z</time>
      </trkpt>
      <trkpt lat="49.96762" lon="2.11078">
        <ele>12.1</ele>
        <time>2024-04-17T13:18:05Z</time>
      </trkpt>
      <trkpt lat="49.96761" lon="2.11078">
        <ele>12.1</ele>
        <time>2024-04-17T13:18:06Z</time>
      </trkpt>
      <trkpt lat="49.9676" lon="2.11078">
        <ele>12.1</ele>
        <time>2024-04-17T13:18:07Z</time>
      </trkpt>
      <trkpt lat="49.96759" lon="2.11078">
        <ele>12.1</ele>
        <time>2024-04-17T13:18:08Z</time>
      </trkpt>
      <trkpt lat="49.96758" lon="2.11079">
        <ele>12.1</ele>
        <time>2024-04-17T13:18:09Z</time>
      </trkpt>
      <trkpt lat="49.96757" lon="2.11079">
        <ele>12.1</ele>
        <time>2024-04-17T13:18:10Z</time>
      </trkpt>
      <trkpt lat="49.96756" lon="2.11079">
        <ele>12.1</ele>
        <time>2024-04-17T13:18:11Z</time>
      </trkpt>
      <trkpt lat="49.96755" lon="2.11079">
        <ele>12.1</ele>
        <time>2024-04-17T13:18:12Z</time>
      </trkpt>
      <trkpt lat="49.96754" lon="2.1108">
        <ele>12.1</ele>
        <time>2024-04-17T13:18:13Z</time>
      </trkpt>
      <trkpt lat="49.96753" lon="2.1108">
        <ele>12.1</ele>
        <time>2024-04-17T13:18:14Z</time>
      </trkpt>
      <trkpt lat="49.96752" lon="2.1108">
        <ele>12.1</ele>
        <time>2024-04-17T13:18:15Z</time>
      </trkpt>
      <trkpt lat="49.96751" lon="2.1108">
        <ele>12.1</ele>
        <time>2024-04-17T13:18:16Z</time>
      </trkpt>
      <trkpt lat="49.9675" lon="2.1108">
        <ele>12.1</ele>
        <time>2024-04-17T13:18:17Z</time>
      </trkpt>
      <trkpt lat="49.96749" lon="2.11081">
        <ele>12.1</ele>
        <time>2024-04-17T13:18:18Z</time>
      </trkpt>
      <trkpt lat="49.96748" lon="2.11081">
        <ele>12.1</ele>
        <time>2024-04-17T13:18:19Z</time>
      </trkpt>
      <trkpt lat="49.96747" lon="2.11082">
        <ele>12.1</ele>
        <time>2024-04-17T13:18:20Z</time>
      </trkpt>
      <trkpt lat="49.96746" lon="2.11082">
        <ele>12.1</ele>
        <time>2024-04-17T13:18:21Z</time>
      </trkpt>
      <trkpt lat="49.96745" lon="2.11082">
        <ele>12.1</ele>
        <time>2024-04-17T13:18:22Z</time>
      </trkpt>
      <trkpt lat="49.96744" lon="2.11082">
        <ele>12.1</ele>
        <time>2024-04-17T13:18:23Z</time>
      </trkpt>
      <trkpt lat="49.96743" lon="2.11083">
        <ele>12.1</ele>
        <time>2024-04-17T13:18:24Z</time>
      </trkpt>
      <trkpt lat="49.96742" lon="2.11083">
        <ele>12.2</ele>
        <time>2024-04-17T13:18:25Z</time>
      </trkpt>
      <trkpt lat="49.96741" lon="2.11083">
        <ele>12.2</ele>
        <time>2024-04-17T13:18:26Z</time>
      </trkpt>
      <trkpt lat="49.9674" lon="2.11083">
        <ele>12.2</ele>
        <time>2024-04-17T13:18:27Z</time>
      </trkpt>
      <trkpt lat="49.96739" lon="2.11082">
        <ele>12.2</ele>
        <time>2024-04-17T13:18:28Z</time>
      </trkpt>
      <trkpt lat="49.96738" lon="2.11082">
        <ele>12.2</ele>
        <time>2024-04-17T13:18:29Z</time>
      </trkpt>
      <trkpt lat="49.96737" lon="2.11082">
        <ele>12.2</ele>
        <time>2024-04-17T13:18:30Z</time>
      </trkpt>
      <trkpt lat="49.96736" lon="2.11082">
        <ele>12.2</ele>
        <time>2024-04-17T13:18:31Z</time>
      </trkpt>
      <trkpt lat="49.96734" lon="2.11081">
        <ele>12.2</ele>
        <time>2024-04-17T13:18:32Z</time>
      </trkpt>
      <trkpt lat="49.96734" lon="2.11081">
        <ele>12.2</ele>
        <time>2024-04-17T13:18:33Z</time>
      </trkpt>
      <trkpt lat="49.96733" lon="2.11081">
        <ele>12.2</ele>
        <time>2024-04-17T13:18:34Z</time>
      </trkpt>
      <trkpt lat="49.96732" lon="2.11082">
        <ele>12.2</ele>
        <time>2024-04-17T13:18:35Z</time>
      </trkpt>
      <trkpt lat="49.96731" lon="2.11082">
        <ele>12.2</ele>
        <time>2024-04-17T13:18:36Z</time>
      </trkpt>
      <trkpt lat="49.9673" lon="2.11082">
        <ele>12.2</ele>
        <time>2024-04-17T13:18:37Z</time>
      </trkpt>
      <trkpt lat="49.96729" lon="2.11082">
        <ele>12.2</ele>
        <time>2024-04-17T13:18:38Z</time>
      </trkpt>
      <trkpt lat="49.96728" lon="2.11082">
        <ele>12.2</ele>
        <time>2024-04-17T13:18:39Z</time>
      </trkpt>
      <trkpt lat="49.96727" lon="2.11082">
        <ele>12.2</ele>
        <time>2024-04-17T13:18:40Z</time>
      </trkpt>
      <trkpt lat="49.96727" lon="2.11082">
        <ele>12.2</ele>
        <time>2024-04-17T13:18:41Z</time>
      </trkpt>
      <trkpt lat="49.96726" lon="2.11082">
        <ele>12.2</ele>
        <time>2024-04-17T13:18:42Z</time>
      </trkpt>
      <trkpt lat="49.96725" lon="2.11081">
        <ele>12.2</ele>
        <time>2024-04-17T13:18:43Z</time>
      </trkpt>
      <trkpt lat="49.96724" lon="2.11082">
        <ele>12.2</ele>
        <time>2024-04-17T13:18:44Z</time>
      </trkpt>
      <trkpt lat="49.96723" lon="2.11082">
        <ele>12.2</ele>
        <time>2024-04-17T13:18:45Z</time>
      </trkpt>
      <trkpt lat="49.96722" lon="2.11082">
        <ele>12.2</ele>
        <time>2024-04-17T13:18:46Z</time>
      </trkpt>
      <trkpt lat="49.96721" lon="2.11082">
        <ele>12.2</ele>
        <time>2024-04-17T13:18:47Z</time>
      </trkpt>
      <trkpt lat="49.96721" lon="2.11082">
        <ele>12.2</ele>
        <time>2024-04-17T13:18:48Z</time>
      </trkpt>
      <trkpt lat="49.9672" lon="2.11082">
        <ele>12.2</ele>
        <time>2024-04-17T13:18:49Z</time>
      </trkpt>
      <trkpt lat="49.96719" lon="2.11081">
        <ele>12.2</ele>
        <time>2024-04-17T13:18:50Z</time>
      </trkpt>
      <trkpt lat="49.96719" lon="2.11082">
        <ele>12.2</ele>
        <time>2024-04-17T13:18:51Z</time>
      </trkpt>
      <trkpt lat="49.96718" lon="2.11082">
        <ele>12.2</ele>
        <time>2024-04-17T13:18:52Z</time>
      </trkpt>
      <trkpt lat="49.96718" lon="2.11083">
        <ele>12.2</ele>
        <time>2024-04-17T13:18:53Z</time>
      </trkpt>
      <trkpt lat="49.96718" lon="2.11084">
        <ele>12.2</ele>
        <time>2024-04-17T13:18:54Z</time>
      </trkpt>
      <trkpt lat="49.96717" lon="2.11085">
        <ele>12.2</ele>
        <time>2024-04-17T13:18:55Z</time>
      </trkpt>
      <trkpt lat="49.96717" lon="2.11085">
        <ele>12.2</ele>
        <time>2024-04-17T13:18:56Z</time>
      </trkpt>
      <trkpt lat="49.96717" lon="2.11084">
        <ele>12.2</ele>
        <time>2024-04-17T13:18:57Z</time>
      </trkpt>
      <trkpt lat="49.96717" lon="2.11084">
        <ele>12.2</ele>
        <time>2024-04-17T13:18:58Z</time>
      </trkpt>
      <trkpt lat="49.96717" lon="2.11084">
        <ele>12.2</ele>
        <time>2024-04-17T13:18:59Z</time>
      </trkpt>
      <trkpt lat="49.96717" lon="2.11083">
        <ele>12.2</ele>
        <time>2024-04-17T13:19:00Z</time>
      </trkpt>
      <trkpt lat="49.96717" lon="2.11082">
        <ele>12.2</ele>
        <time>2024-04-17T13:19:01Z</time>
      </trkpt>
      <trkpt lat="49.96717" lon="2.11082">
        <ele>12.2</ele>
        <time>2024-04-17T13:19:02Z</time>
      </trkpt>
      <trkpt lat="49.96717" lon="2.11081">
        <ele>12.2</ele>
        <time>2024-04-17T13:19:03Z</time>
      </trkpt>
      <trkpt lat="49.96717" lon="2.11081">
        <ele>12.2</ele>
        <time>2024-04-17T13:19:04Z</time>
      </trkpt>
      <trkpt lat="49.96717" lon="2.11081">
        <ele>12.2</ele>
        <time>2024-04-17T13:19:05Z</time>
      </trkpt>
      <trkpt lat="49.96718" lon="2.11081">
        <ele>12.2</ele>
        <time>2024-04-17T13:19:06Z</time>
      </trkpt>
      <trkpt lat="49.96718" lon="2.11081">
        <ele>12.2</ele>
        <time>2024-04-17T13:19:07Z</time>
      </trkpt>
      <trkpt lat="49.96718" lon="2.11081">
        <ele>12.2</ele>
        <time>2024-04-17T13:19:08Z</time>
      </trkpt>
      <trkpt lat="49.96718" lon="2.11081">
        <ele>12.2</ele>
        <time>2024-04-17T13:19:09Z</time>
      </trkpt>
      <trkpt lat="49.96718" lon="2.11081">
        <ele>12.2</ele>
        <time>2024-04-17T13:19:10Z</time>
      </trkpt>
      <trkpt lat="49.96718" lon="2.11081">
        <ele>12.2</ele>
        <time>2024-04-17T13:19:11Z</time>
      </trkpt>
      <trkpt lat="49.96718" lon="2.11081">
        <ele>12.2</ele>
        <time>2024-04-17T13:19:12Z</time>
      </trkpt>
      <trkpt lat="49.96719" lon="2.11081">
        <ele>12.2</ele>
        <time>2024-04-17T13:19:13Z</time>
      </trkpt>
      <trkpt lat="49.96719" lon="2.11081">
        <ele>12.2</ele>
        <time>2024-04-17T13:19:14Z</time>
      </trkpt>
      <trkpt lat="49.96719" lon="2.11081">
        <ele>12.2</ele>
        <time>2024-04-17T13:19:15Z</time>
      </trkpt>
      <trkpt lat="49.96719" lon="2.11081">
        <ele>12.2</ele>
        <time>2024-04-17T13:19:16Z</time>
      </trkpt>
      <trkpt lat="49.96719" lon="2.11081">
        <ele>12.2</ele>
        <time>2024-04-17T13:19:17Z</time>
      </trkpt>
      <trkpt lat="49.96719" lon="2.11081">
        <ele>12.2</ele>
        <time>2024-04-17T13:19:18Z</time>
      </trkpt>
      <trkpt lat="49.96719" lon="2.11081">
        <ele>12.2</ele>
        <time>2024-04-17T13:19:19Z</time>
      </trkpt>
      <trkpt lat="49.96719" lon="2.11081">
        <ele>12.2</ele>
        <time>2024-04-17T13:19:20Z</time>
      </trkpt>
      <trkpt lat="49.96719" lon="2.11081">
        <ele>12.2</ele>
        <time>2024-04-17T13:19:21Z</time>
      </trkpt>
      <trkpt lat="49.96719" lon="2.11081">
        <ele>12.2</ele>
        <time>2024-04-17T13:19:22Z</time>
      </trkpt>
      <trkpt lat="49.96719" lon="2.11081">
        <ele>12.3</ele>
        <time>2024-04-17T13:19:23Z</time>
      </trkpt>
      <trkpt lat="49.96719" lon="2.11081">
        <ele>12.3</ele>
        <time>2024-04-17T13:19:24Z</time>
      </trkpt>
      <trkpt lat="49.96719" lon="2.11081">
        <ele>12.3</ele>
        <time>2024-04-17T13:19:25Z</time>
      </trkpt>
      <trkpt lat="49.96719" lon="2.11081">
        <ele>12.3</ele>
        <time>2024-04-17T13:19:26Z</time>
      </trkpt>
      <trkpt lat="49.96719" lon="2.11081">
        <ele>12.3</ele>
        <time>2024-04-17T13:19:27Z</time>
      </trkpt>
      <trkpt lat="49.96719" lon="2.11081">
        <ele>12.3</ele>
        <time>2024-04-17T13:19:28Z</time>
      </trkpt>
      <trkpt lat="49.96719" lon="2.11081">
        <ele>12.3</ele>
        <time>2024-04-17T13:19:29Z</time>
      </trkpt>
      <trkpt lat="49.96719" lon="2.11081">
        <ele>12.3</ele>
        <time>2024-04-17T13:19:30Z</time>
      </trkpt>
      <trkpt lat="49.96719" lon="2.11081">
        <ele>12.3</ele>
        <time>2024-04-17T13:19:31Z</time>
      </trkpt>
      <trkpt lat="49.96719" lon="2.11082">
        <ele>12.3</ele>
        <time>2024-04-17T13:19:32Z</time>
      </trkpt>
      <trkpt lat="49.9672" lon="2.11082">
        <ele>12.3</ele>
        <time>2024-04-17T13:19:33Z</time>
      </trkpt>
      <trkpt lat="49.9672" lon="2.11082">
        <ele>12.3</ele>
        <time>2024-04-17T13:19:34Z</time>
      </trkpt>
      <trkpt lat="49.9672" lon="2.11082">
        <ele>12.3</ele>
        <time>2024-04-17T13:19:35Z</time>
      </trkpt>
      <trkpt lat="49.9672" lon="2.11082">
        <ele>12.3</ele>
        <time>2024-04-17T13:19:36Z</time>
      </trkpt>
      <trkpt lat="49.9672" lon="2.11082">
        <ele>12.3</ele>
        <time>2024-04-17T13:19:37Z</time>
      </trkpt>
      <trkpt lat="49.9672" lon="2.11082">
        <ele>12.3</ele>
        <time>2024-04-17T13:19:38Z</time>
      </trkpt>
      <trkpt lat="49.9672" lon="2.11082">
        <ele>12.3</ele>
        <time>2024-04-17T13:19:39Z</time>
      </trkpt>
      <trkpt lat="49.9672" lon="2.11082">
        <ele>12.3</ele>
        <time>2024-04-17T13:19:40Z</time>
      </trkpt>
      <trkpt lat="49.9672" lon="2.11082">
        <ele>12.3</ele>
        <time>2024-04-17T13:19:41Z</time>
      </trkpt>
      <trkpt lat="49.9672" lon="2.11082">
        <ele>12.3</ele>
        <time>2024-04-17T13:19:42Z</time>
      </trkpt>
      <trkpt lat="49.9672" lon="2.11082">
        <ele>12.3</ele>
        <time>2024-04-17T13:19:43Z</time>
      </trkpt>
      <trkpt lat="49.9672" lon="2.11082">
        <ele>12.3</ele>
        <time>2024-04-17T13:19:44Z</time>
      </trkpt>
      <trkpt lat="49.9672" lon="2.11082">
        <ele>12.3</ele>
        <time>2024-04-17T13:19:45Z</time>
      </trkpt>
      <trkpt lat="49.9672" lon="2.11082">
        <ele>12.3</ele>
        <time>2024-04-17T13:19:46Z</time>
      </trkpt>
      <trkpt lat="49.9672" lon="2.11082">
        <ele>12.3</ele>
        <time>2024-04-17T13:19:47Z</time>
      </trkpt>
      <trkpt lat="49.9672" lon="2.11082">
        <ele>12.3</ele>
        <time>2024-04-17T13:19:48Z</time>
      </trkpt>
      <trkpt lat="49.9672" lon="2.11082">
        <ele>12.3</ele>
        <time>2024-04-17T13:19:49Z</time>
      </trkpt>
      <trkpt lat="49.9672" lon="2.11082">
        <ele>12.3</ele>
        <time>2024-04-17T13:19:50Z</time>
      </trkpt>
      <trkpt lat="49.9672" lon="2.11082">
        <ele>12.3</ele>
        <time>2024-04-17T13:19:51Z</time>
      </trkpt>
      <trkpt lat="49.9672" lon="2.11082">
        <ele>12.3</ele>
        <time>2024-04-17T13:19:52Z</time>
      </trkpt>
      <trkpt lat="49.9672" lon="2.11082">
        <ele>12.3</ele>
        <time>2024-04-17T13:19:53Z</time>
      </trkpt>
      <trkpt lat="49.9672" lon="2.11082">
        <ele>12.3</ele>
        <time>2024-04-17T13:19:54Z</time>
      </trkpt>
      <trkpt lat="49.9672" lon="2.11082">
        <ele>12.3</ele>
        <time>2024-04-17T13:19:55Z</time>
      </trkpt>
      <trkpt lat="49.96721" lon="2.11082">
        <ele>12.3</ele>
        <time>2024-04-17T13:19:56Z</time>
      </trkpt>
      <trkpt lat="49.96721" lon="2.11082">
        <ele>12.3</ele>
        <time>2024-04-17T13:19:57Z</time>
      </trkpt>
      <trkpt lat="49.96721" lon="2.11082">
        <ele>12.3</ele>
        <time>2024-04-17T13:19:58Z</time>
      </trkpt>
      <trkpt lat="49.96721" lon="2.11082">
        <ele>12.3</ele>
        <time>2024-04-17T13:19:59Z</time>
      </trkpt>
      <trkpt lat="49.96721" lon="2.11082">
        <ele>12.3</ele>
        <time>2024-04-17T13:20:00Z</time>
      </trkpt>
      <trkpt lat="49.96721" lon="2.11082">
        <ele>12.3</ele>
        <time>2024-04-17T13:20:01Z</time>
      </trkpt>
      <trkpt lat="49.96721" lon="2.11082">
        <ele>12.3</ele>
        <time>2024-04-17T13:20:02Z</time>
      </trkpt>
      <trkpt lat="49.96721" lon="2.11083">
        <ele>12.3</ele>
        <time>2024-04-17T13:20:03Z</time>
      </trkpt>
      <trkpt lat="49.96721" lon="2.11083">
        <ele>12.3</ele>
        <time>2024-04-17T13:20:04Z</time>
      </trkpt>
      <trkpt lat="49.96721" lon="2.11083">
        <ele>12.3</ele>
        <time>2024-04-17T13:20:05Z</time>
      </trkpt>
      <trkpt lat="49.96721" lon="2.11083">
        <ele>12.3</ele>
        <time>2024-04-17T13:20:06Z</time>
      </trkpt>
      <trkpt lat="49.96721" lon="2.11083">
        <ele>12.3</ele>
        <time>2024-04-17T13:20:07Z</time>
      </trkpt>
      <trkpt lat="49.96721" lon="2.11083">
        <ele>12.3</ele>
        <time>2024-04-17T13:20:08Z</time>
      </trkpt>
      <trkpt lat="49.96721" lon="2.11083">
        <ele>12.3</ele>
        <time>2024-04-17T13:20:09Z</time>
      </trkpt>
      <trkpt lat="49.96721" lon="2.11083">
        <ele>12.3</ele>
        <time>2024-04-17T13:20:10Z</time>
      </trkpt>
      <trkpt lat="49.96721" lon="2.11083">
        <ele>12.3</ele>
        <time>2024-04-17T13:20:11Z</time>
      </trkpt>
      <trkpt lat="49.96721" lon="2.11083">
        <ele>12.3</ele>
        <time>2024-04-17T13:20:12Z</time>
      </trkpt>
      <trkpt lat="49.96721" lon="2.11083">
        <ele>12.3</ele>
        <time>2024-04-17T13:20:13Z</time>
      </trkpt>
      <trkpt lat="49.96721" lon="2.11083">
        <ele>12.3</ele>
        <time>2024-04-17T13:20:14Z</time>
      </trkpt>
      <trkpt lat="49.96721" lon="2.11083">
        <ele>12.3</ele>
        <time>2024-04-17T13:20:15Z</time>
      </trkpt>
      <trkpt lat="49.96721" lon="2.11083">
        <ele>12.3</ele>
        <time>2024-04-17T13:20:16Z</time>
      </trkpt>
      <trkpt lat="49.96721" lon="2.11083">
        <ele>12.3</ele>
        <time>2024-04-17T13:20:17Z</time>
      </trkpt>
      <trkpt lat="49.96721" lon="2.11083">
        <ele>12.3</ele>
        <time>2024-04-17T13:20:18Z</time>
      </trkpt>
      <trkpt lat="49.96722" lon="2.11083">
        <ele>12.3</ele>
        <time>2024-04-17T13:20:19Z</time>
      </trkpt>
      <trkpt lat="49.96722" lon="2.11083">
        <ele>12.3</ele>
        <time>2024-04-17T13:20:20Z</time>
      </trkpt>
      <trkpt lat="49.96722" lon="2.11083">
        <ele>12.3</ele>
        <time>2024-04-17T13:20:21Z</time>
      </trkpt>
      <trkpt lat="49.96722" lon="2.11083">
        <ele>12.3</ele>
        <time>2024-04-17T13:20:22Z</time>
      </trkpt>
      <trkpt lat="49.96722" lon="2.11083">
        <ele>12.3</ele>
        <time>2024-04-17T13:20:23Z</time>
      </trkpt>
      <trkpt lat="49.96722" lon="2.11083">
        <ele>12.3</ele>
        <time>2024-04-17T13:20:24Z</time>
      </trkpt>
      <trkpt lat="49.96722" lon="2.11083">
        <ele>12.3</ele>
        <time>2024-04-17T13:20:25Z</time>
      </trkpt>
      <trkpt lat="49.96722" lon="2.11083">
        <ele>12.3</ele>
        <time>2024-04-17T13:20:26Z</time>
      </trkpt>
      <trkpt lat="49.96722" lon="2.11083">
        <ele>12.3</ele>
        <time>2024-04-17T13:20:27Z</time>
      </trkpt>
      <trkpt lat="49.96722" lon="2.11083">
        <ele>12.3</ele>
        <time>2024-04-17T13:20:28Z</time>
      </trkpt>
      <trkpt lat="49.96722" lon="2.11083">
        <ele>12.3</ele>
        <time>2024-04-17T13:20:29Z</time>
      </trkpt>
      <trkpt lat="49.96722" lon="2.11083">
        <ele>12.3</ele>
        <time>2024-04-17T13:20:30Z</time>
      </trkpt>
      <trkpt lat="49.96722" lon="2.11083">
        <ele>12.3</ele>
        <time>2024-04-17T13:20:31Z</time>
      </trkpt>
      <trkpt lat="49.96722" lon="2.11083">
        <ele>12.3</ele>
        <time>2024-04-17T13:20:32Z</time>
      </trkpt>
      <trkpt lat="49.96722" lon="2.11083">
        <ele>12.3</ele>
        <time>2024-04-17T13:20:33Z</time>
      </trkpt>
      <trkpt lat="49.96722" lon="2.11084">
        <ele>12.3</ele>
        <time>2024-04-17T13:20:34Z</time>
      </trkpt>
      <trkpt lat="49.96722" lon="2.11084">
        <ele>12.3</ele>
        <time>2024-04-17T13:20:35Z</time>
      </trkpt>
      <trkpt lat="49.96722" lon="2.11084">
        <ele>12.3</ele>
        <time>2024-04-17T13:20:36Z</time>
      </trkpt>
      <trkpt lat="49.96722" lon="2.11084">
        <ele>12.3</ele>
        <time>2024-04-17T13:20:37Z</time>
      </trkpt>
      <trkpt lat="49.96722" lon="2.11084">
        <ele>12.3</ele>
        <time>2024-04-17T13:20:38Z</time>
      </trkpt>
      <trkpt lat="49.96722" lon="2.11084">
        <ele>12.3</ele>
        <time>2024-04-17T13:20:39Z</time>
      </trkpt>
      <trkpt lat="49.96722" lon="2.11084">
        <ele>12.3</ele>
        <time>2024-04-17T13:20:40Z</time>
      </trkpt>
      <trkpt lat="49.96722" lon="2.11084">
        <ele>12.3</ele>
        <time>2024-04-17T13:20:41Z</time>
      </trkpt>
      <trkpt lat="49.96723" lon="2.11084">
        <ele>12.3</ele>
        <time>2024-04-17T13:20:42Z</time>
      </trkpt>
      <trkpt lat="49.96723" lon="2.11084">
        <ele>12.3</ele>
        <time>2024-04-17T13:20:43Z</time>
      </trkpt>
      <trkpt lat="49.96723" lon="2.11084">
        <ele>12.3</ele>
        <time>2024-04-17T13:20:44Z</time>
      </trkpt>
      <trkpt lat="49.96723" lon="2.11084">
        <ele>12.3</ele>
        <time>2024-04-17T13:20:45Z</time>
      </trkpt>
      <trkpt lat="49.96723" lon="2.11084">
        <ele>12.3</ele>
        <time>2024-04-17T13:20:46Z</time>
      </trkpt>
      <trkpt lat="49.96723" lon="2.11084">
        <ele>12.3</ele>
        <time>2024-04-17T13:20:47Z</time>
      </trkpt>
      <trkpt lat="49.96723" lon="2.11084">
        <ele>12.3</ele>
        <time>2024-04-17T13:20:48Z</time>
      </trkpt>
      <trkpt lat="49.96723" lon="2.11084">
        <ele>12.3</ele>
        <time>2024-04-17T13:20:49Z</time>
      </trkpt>
      <trkpt lat="49.96723" lon="2.11084">
        <ele>12.3</ele>
        <time>2024-04-17T13:20:50Z</time>
      </trkpt>
      <trkpt lat="49.96724" lon="2.11085">
        <ele>12.3</ele>
        <time>2024-04-17T13:20:51Z</time>
      </trkpt>
      <trkpt lat="49.96723" lon="2.11085">
        <ele>12.3</ele>
        <time>2024-04-17T13:20:52Z</time>
      </trkpt>
      <trkpt lat="49.96723" lon="2.11085">
        <ele>12.3</ele>
        <time>2024-04-17T13:20:53Z</time>
      </trkpt>
      <trkpt lat="49.96722" lon="2.11085">
        <ele>12.3</ele>
        <time>2024-04-17T13:20:54Z</time>
      </trkpt>
      <trkpt lat="49.9672" lon="2.11085">
        <ele>12.3</ele>
        <time>2024-04-17T13:20:55Z</time>
      </trkpt>
      <trkpt lat="49.96719" lon="2.11085">
        <ele>12.3</ele>
        <time>2024-04-17T13:20:56Z</time>
      </trkpt>
      <trkpt lat="49.96719" lon="2.11085">
        <ele>12.3</ele>
        <time>2024-04-17T13:20:57Z</time>
      </trkpt>
      <trkpt lat="49.96718" lon="2.11085">
        <ele>12.3</ele>
        <time>2024-04-17T13:20:58Z</time>
      </trkpt>
      <trkpt lat="49.96717" lon="2.11086">
        <ele>12.3</ele>
        <time>2024-04-17T13:20:59Z</time>
      </trkpt>
      <trkpt lat="49.96716" lon="2.11086">
        <ele>12.3</ele>
        <time>2024-04-17T13:21:00Z</time>
      </trkpt>
      <trkpt lat="49.96715" lon="2.11086">
        <ele>12.3</ele>
        <time>2024-04-17T13:21:01Z</time>
      </trkpt>
      <trkpt lat="49.96714" lon="2.11086">
        <ele>12.3</ele>
        <time>2024-04-17T13:21:02Z</time>
      </trkpt>
      <trkpt lat="49.96713" lon="2.11086">
        <ele>12.3</ele>
        <time>2024-04-17T13:21:03Z</time>
      </trkpt>
      <trkpt lat="49.96712" lon="2.11086">
        <ele>12.3</ele>
        <time>2024-04-17T13:21:04Z</time>
      </trkpt>
      <trkpt lat="49.96711" lon="2.11086">
        <ele>12.3</ele>
        <time>2024-04-17T13:21:05Z</time>
      </trkpt>
      <trkpt lat="49.9671" lon="2.11087">
        <ele>12.3</ele>
        <time>2024-04-17T13:21:06Z</time>
      </trkpt>
      <trkpt lat="49.96709" lon="2.11087">
        <ele>12.3</ele>
        <time>2024-04-17T13:21:07Z</time>
      </trkpt>
      <trkpt lat="49.96708" lon="2.11086">
        <ele>12.3</ele>
        <time>2024-04-17T13:21:08Z</time>
      </trkpt>
      <trkpt lat="49.96707" lon="2.11086">
        <ele>12.3</ele>
        <time>2024-04-17T13:21:09Z</time>
      </trkpt>
      <trkpt lat="49.96706" lon="2.11086">
        <ele>12.3</ele>
        <time>2024-04-17T13:21:10Z</time>
      </trkpt>
      <trkpt lat="49.96705" lon="2.11086">
        <ele>12.3</ele>
        <time>2024-04-17T13:21:11Z</time>
      </trkpt>
      <trkpt lat="49.96704" lon="2.11086">
        <ele>12.3</ele>
        <time>2024-04-17T13:21:12Z</time>
      </trkpt>
      <trkpt lat="49.96703" lon="2.11086">
        <ele>12.3</ele>
        <time>2024-04-17T13:21:13Z</time>
      </trkpt>
      <trkpt lat="49.96701" lon="2.11086">
        <ele>12.3</ele>
        <time>2024-04-17T13:21:14Z</time>
      </trkpt>
      <trkpt lat="49.96699" lon="2.11087">
        <ele>12.3</ele>
        <time>2024-04-17T13:21:15Z</time>
      </trkpt>
      <trkpt lat="49.96698" lon="2.11087">
        <ele>12.3</ele>
        <time>2024-04-17T13:21:16Z</time>
      </trkpt>
      <trkpt lat="49.96697" lon="2.11087">
        <ele>12.3</ele>
        <time>2024-04-17T13:21:17Z</time>
      </trkpt>
      <trkpt lat="49.96696" lon="2.11087">
        <ele>12.3</ele>
        <time>2024-04-17T13:21:18Z</time>
      </trkpt>
      <trkpt lat="49.96694" lon="2.11087">
        <ele>12.3</ele>
        <time>2024-04-17T13:21:19Z</time>
      </trkpt>
      <trkpt lat="49.96693" lon="2.11087">
        <ele>12.3</ele>
        <time>2024-04-17T13:21:20Z</time>
      </trkpt>
      <trkpt lat="49.96692" lon="2.11088">
        <ele>12.3</ele>
        <time>2024-04-17T13:21:21Z</time>
      </trkpt>
      <trkpt lat="49.96689" lon="2.11088">
        <ele>12.3</ele>
        <time>2024-04-17T13:21:22Z</time>
      </trkpt>
      <trkpt lat="49.96689" lon="2.11088">
        <ele>12.3</ele>
        <time>2024-04-17T13:21:23Z</time>
      </trkpt>
      <trkpt lat="49.96688" lon="2.11089">
        <ele>12.3</ele>
        <time>2024-04-17T13:21:24Z</time>
      </trkpt>
      <trkpt lat="49.96687" lon="2.11089">
        <ele>12.3</ele>
        <time>2024-04-17T13:21:25Z</time>
      </trkpt>
      <trkpt lat="49.96686" lon="2.11089">
        <ele>12.3</ele>
        <time>2024-04-17T13:21:26Z</time>
      </trkpt>
      <trkpt lat="49.96685" lon="2.1109">
        <ele>12.3</ele>
        <time>2024-04-17T13:21:27Z</time>
      </trkpt>
      <trkpt lat="49.96683" lon="2.1109">
        <ele>12.3</ele>
        <time>2024-04-17T13:21:28Z</time>
      </trkpt>
      <trkpt lat="49.96682" lon="2.1109">
        <ele>12.3</ele>
        <time>2024-04-17T13:21:29Z</time>
      </trkpt>
      <trkpt lat="49.96681" lon="2.1109">
        <ele>12.3</ele>
        <time>2024-04-17T13:21:30Z</time>
      </trkpt>
      <trkpt lat="49.9668" lon="2.11091">
        <ele>12.3</ele>
        <time>2024-04-17T13:21:31Z</time>
      </trkpt>
      <trkpt lat="49.96679" lon="2.11091">
        <ele>12.3</ele>
        <time>2024-04-17T13:21:32Z</time>
      </trkpt>
      <trkpt lat="49.96678" lon="2.11091">
        <ele>12.3</ele>
        <time>2024-04-17T13:21:33Z</time>
      </trkpt>
      <trkpt lat="49.96677" lon="2.11091">
        <ele>12.3</ele>
        <time>2024-04-17T13:21:34Z</time>
      </trkpt>
      <trkpt lat="49.96676" lon="2.11091">
        <ele>12.3</ele>
        <time>2024-04-17T13:21:35Z</time>
      </trkpt>
      <trkpt lat="49.96675" lon="2.11091">
        <ele>12.3</ele>
        <time>2024-04-17T13:21:36Z</time>
      </trkpt>
      <trkpt lat="49.96673" lon="2.11091">
        <ele>12.3</ele>
        <time>2024-04-17T13:21:37Z</time>
      </trkpt>
      <trkpt lat="49.96672" lon="2.11091">
        <ele>12.3</ele>
        <time>2024-04-17T13:21:38Z</time>
      </trkpt>
      <trkpt lat="49.96671" lon="2.11091">
        <ele>12.3</ele>
        <time>2024-04-17T13:21:39Z</time>
      </trkpt>
      <trkpt lat="49.9667" lon="2.11091">
        <ele>12.3</ele>
        <time>2024-04-17T13:21:40Z</time>
      </trkpt>
      <trkpt lat="49.96668" lon="2.11091">
        <ele>12.3</ele>
        <time>2024-04-17T13:21:41Z</time>
      </trkpt>
      <trkpt lat="49.96667" lon="2.11091">
        <ele>12.3</ele>
        <time>2024-04-17T13:21:42Z</time>
      </trkpt>
      <trkpt lat="49.96666" lon="2.11091">
        <ele>12.3</ele>
        <time>2024-04-17T13:21:43Z</time>
      </trkpt>
      <trkpt lat="49.96665" lon="2.11091">
        <ele>12.3</ele>
        <time>2024-04-17T13:21:44Z</time>
      </trkpt>
      <trkpt lat="49.96664" lon="2.11091">
        <ele>12.3</ele>
        <time>2024-04-17T13:21:45Z</time>
      </trkpt>
      <trkpt lat="49.96662" lon="2.11092">
        <ele>12.3</ele>
        <time>2024-04-17T13:21:46Z</time>
      </trkpt>
      <trkpt lat="49.96661" lon="2.11092">
        <ele>12.3</ele>
        <time>2024-04-17T13:21:47Z</time>
      </trkpt>
      <trkpt lat="49.9666" lon="2.11092">
        <ele>12.3</ele>
        <time>2024-04-17T13:21:48Z</time>
      </trkpt>
      <trkpt lat="49.96658" lon="2.11092">
        <ele>12.3</ele>
        <time>2024-04-17T13:21:49Z</time>
      </trkpt>
      <trkpt lat="49.96658" lon="2.11092">
        <ele>12.3</ele>
        <time>2024-04-17T13:21:50Z</time>
      </trkpt>
      <trkpt lat="49.96657" lon="2.11092">
        <ele>12.3</ele>
        <time>2024-04-17T13:21:51Z</time>
      </trkpt>
      <trkpt lat="49.96656" lon="2.11092">
        <ele>12.3</ele>
        <time>2024-04-17T13:21:52Z</time>
      </trkpt>
      <trkpt lat="49.96654" lon="2.11093">
        <ele>12.3</ele>
        <time>2024-04-17T13:21:53Z</time>
      </trkpt>
      <trkpt lat="49.96653" lon="2.11093">
        <ele>12.3</ele>
        <time>2024-04-17T13:21:54Z</time>
      </trkpt>
      <trkpt lat="49.96652" lon="2.11093">
        <ele>12.3</ele>
        <time>2024-04-17T13:21:55Z</time>
      </trkpt>
      <trkpt lat="49.96651" lon="2.11093">
        <ele>12.3</ele>
        <time>2024-04-17T13:21:56Z</time>
      </trkpt>
      <trkpt lat="49.9665" lon="2.11093">
        <ele>12.3</ele>
        <time>2024-04-17T13:21:57Z</time>
      </trkpt>
      <trkpt lat="49.96649" lon="2.11093">
        <ele>12.3</ele>
        <time>2024-04-17T13:21:58Z</time>
      </trkpt>
      <trkpt lat="49.96648" lon="2.11093">
        <ele>12.2</ele>
        <time>2024-04-17T13:21:59Z</time>
      </trkpt>
      <trkpt lat="49.96647" lon="2.11093">
        <ele>12.2</ele>
        <time>2024-04-17T13:22:00Z</time>
      </trkpt>
      <trkpt lat="49.96646" lon="2.11094">
        <ele>12.2</ele>
        <time>2024-04-17T13:22:01Z</time>
      </trkpt>
      <trkpt lat="49.96645" lon="2.11094">
        <ele>12.2</ele>
        <time>2024-04-17T13:22:02Z</time>
      </trkpt>
      <trkpt lat="49.96644" lon="2.11094">
        <ele>12.2</ele>
        <time>2024-04-17T13:22:03Z</time>
      </trkpt>
      <trkpt lat="49.96643" lon="2.11094">
        <ele>12.2</ele>
        <time>2024-04-17T13:22:04Z</time>
      </trkpt>
      <trkpt lat="49.96642" lon="2.11094">
        <ele>12.2</ele>
        <time>2024-04-17T13:22:05Z</time>
      </trkpt>
      <trkpt lat="49.96641" lon="2.11094">
        <ele>12.2</ele>
        <time>2024-04-17T13:22:06Z</time>
      </trkpt>
      <trkpt lat="49.9664" lon="2.11094">
        <ele>12.2</ele>
        <time>2024-04-17T13:22:07Z</time>
      </trkpt>
      <trkpt lat="49.96639" lon="2.11094">
        <ele>12.2</ele>
        <time>2024-04-17T13:22:08Z</time>
      </trkpt>
      <trkpt lat="49.96638" lon="2.11094">
        <ele>12.2</ele>
        <time>2024-04-17T13:22:09Z</time>
      </trkpt>
      <trkpt lat="49.96637" lon="2.11094">
        <ele>12.2</ele>
        <time>2024-04-17T13:22:10Z</time>
      </trkpt>
      <trkpt lat="49.96637" lon="2.11095">
        <ele>12.2</ele>
        <time>2024-04-17T13:22:11Z</time>
      </trkpt>
      <trkpt lat="49.96636" lon="2.11095">
        <ele>12.2</ele>
        <time>2024-04-17T13:22:12Z</time>
      </trkpt>
      <trkpt lat="49.96634" lon="2.11095">
        <ele>12.2</ele>
        <time>2024-04-17T13:22:13Z</time>
      </trkpt>
      <trkpt lat="49.96633" lon="2.11095">
        <ele>12.2</ele>
        <time>2024-04-17T13:22:14Z</time>
      </trkpt>
      <trkpt lat="49.96632" lon="2.11095">
        <ele>12.2</ele>
        <time>2024-04-17T13:22:15Z</time>
      </trkpt>
      <trkpt lat="49.96631" lon="2.11095">
        <ele>12.2</ele>
        <time>2024-04-17T13:22:16Z</time>
      </trkpt>
      <trkpt lat="49.9663" lon="2.11094">
        <ele>12.2</ele>
        <time>2024-04-17T13:22:17Z</time>
      </trkpt>
      <trkpt lat="49.96629" lon="2.11094">
        <ele>12.2</ele>
        <time>2024-04-17T13:22:18Z</time>
      </trkpt>
      <trkpt lat="49.96628" lon="2.11094">
        <ele>12.2</ele>
        <time>2024-04-17T13:22:19Z</time>
      </trkpt>
      <trkpt lat="49.96626" lon="2.11093">
        <ele>12.2</ele>
        <time>2024-04-17T13:22:20Z</time>
      </trkpt>
      <trkpt lat="49.96625" lon="2.11093">
        <ele>12.2</ele>
        <time>2024-04-17T13:22:21Z</time>
      </trkpt>
      <trkpt lat="49.96625" lon="2.11093">
        <ele>12.2</ele>
        <time>2024-04-17T13:22:22Z</time>
      </trkpt>
      <trkpt lat="49.96623" lon="2.11093">
        <ele>12.2</ele>
        <time>2024-04-17T13:22:23Z</time>
      </trkpt>
      <trkpt lat="49.96622" lon="2.11093">
        <ele>12.2</ele>
        <time>2024-04-17T13:22:24Z</time>
      </trkpt>
      <trkpt lat="49.96621" lon="2.11093">
        <ele>12.2</ele>
        <time>2024-04-17T13:22:25Z</time>
      </trkpt>
      <trkpt lat="49.9662" lon="2.11092">
        <ele>12.2</ele>
        <time>2024-04-17T13:22:26Z</time>
      </trkpt>
      <trkpt lat="49.96619" lon="2.11092">
        <ele>12.2</ele>
        <time>2024-04-17T13:22:27Z</time>
      </trkpt>
      <trkpt lat="49.96617" lon="2.11092">
        <ele>12.2</ele>
        <time>2024-04-17T13:22:28Z</time>
      </trkpt>
      <trkpt lat="49.96616" lon="2.11092">
        <ele>12.2</ele>
        <time>2024-04-17T13:22:29Z</time>
      </trkpt>
      <trkpt lat="49.96615" lon="2.11092">
        <ele>12.2</ele>
        <time>2024-04-17T13:22:30Z</time>
      </trkpt>
      <trkpt lat="49.96614" lon="2.11092">
        <ele>12.2</ele>
        <time>2024-04-17T13:22:31Z</time>
      </trkpt>
      <trkpt lat="49.96613" lon="2.11091">
        <ele>12.2</ele>
        <time>2024-04-17T13:22:32Z</time>
      </trkpt>
      <trkpt lat="49.96612" lon="2.11091">
        <ele>12.2</ele>
        <time>2024-04-17T13:22:33Z</time>
      </trkpt>
      <trkpt lat="49.96611" lon="2.11091">
        <ele>12.2</ele>
        <time>2024-04-17T13:22:34Z</time>
      </trkpt>
      <trkpt lat="49.9661" lon="2.11091">
        <ele>12.2</ele>
        <time>2024-04-17T13:22:35Z</time>
      </trkpt>
      <trkpt lat="49.96608" lon="2.11091">
        <ele>12.2</ele>
        <time>2024-04-17T13:22:36Z</time>
      </trkpt>
      <trkpt lat="49.96607" lon="2.1109">
        <ele>12.2</ele>
        <time>2024-04-17T13:22:37Z</time>
      </trkpt>
      <trkpt lat="49.96606" lon="2.1109">
        <ele>12.2</ele>
        <time>2024-04-17T13:22:38Z</time>
      </trkpt>
      <trkpt lat="49.96605" lon="2.1109">
        <ele>12.2</ele>
        <time>2024-04-17T13:22:39Z</time>
      </trkpt>
      <trkpt lat="49.96604" lon="2.1109">
        <ele>12.2</ele>
        <time>2024-04-17T13:22:40Z</time>
      </trkpt>
      <trkpt lat="49.96603" lon="2.11089">
        <ele>12.2</ele>
        <time>2024-04-17T13:22:41Z</time>
      </trkpt>
      <trkpt lat="49.96602" lon="2.11089">
        <ele>12.2</ele>
        <time>2024-04-17T13:22:42Z</time>
      </trkpt>
      <trkpt lat="49.96601" lon="2.11088">
        <ele>12.2</ele>
        <time>2024-04-17T13:22:43Z</time>
      </trkpt>
      <trkpt lat="49.96599" lon="2.11088">
        <ele>12.2</ele>
        <time>2024-04-17T13:22:44Z</time>
      </trkpt>
      <trkpt lat="49.96598" lon="2.11088">
        <ele>12.2</ele>
        <time>2024-04-17T13:22:45Z</time>
      </trkpt>
      <trkpt lat="49.96597" lon="2.11087">
        <ele>12.2</ele>
        <time>2024-04-17T13:22:46Z</time>
      </trkpt>
      <trkpt lat="49.96596" lon="2.11087">
        <ele>12.3</ele>
        <time>2024-04-17T13:22:47Z</time>
      </trkpt>
      <trkpt lat="49.96595" lon="2.11087">
        <ele>12.3</ele>
        <time>2024-04-17T13:22:48Z</time>
      </trkpt>
      <trkpt lat="49.96594" lon="2.11086">
        <ele>12.3</ele>
        <time>2024-04-17T13:22:49Z</time>
      </trkpt>
      <trkpt lat="49.96593" lon="2.11086">
        <ele>12.3</ele>
        <time>2024-04-17T13:22:50Z</time>
      </trkpt>
      <trkpt lat="49.96592" lon="2.11086">
        <ele>12.3</ele>
        <time>2024-04-17T13:22:51Z</time>
      </trkpt>
      <trkpt lat="49.96591" lon="2.11086">
        <ele>12.3</ele>
        <time>2024-04-17T13:22:52Z</time>
      </trkpt>
      <trkpt lat="49.9659" lon="2.11087">
        <ele>12.3</ele>
        <time>2024-04-17T13:22:53Z</time>
      </trkpt>
      <trkpt lat="49.96589" lon="2.11087">
        <ele>12.3</ele>
        <time>2024-04-17T13:22:54Z</time>
      </trkpt>
      <trkpt lat="49.96588" lon="2.11088">
        <ele>12.3</ele>
        <time>2024-04-17T13:22:55Z</time>
      </trkpt>
      <trkpt lat="49.96587" lon="2.11088">
        <ele>12.3</ele>
        <time>2024-04-17T13:22:56Z</time>
      </trkpt>
      <trkpt lat="49.96586" lon="2.11088">
        <ele>12.3</ele>
        <time>2024-04-17T13:22:57Z</time>
      </trkpt>
      <trkpt lat="49.96584" lon="2.11088">
        <ele>12.3</ele>
        <time>2024-04-17T13:22:58Z</time>
      </trkpt>
      <trkpt lat="49.96582" lon="2.11088">
        <ele>12.3</ele>
        <time>2024-04-17T13:22:59Z</time>
      </trkpt>
      <trkpt lat="49.96582" lon="2.11088">
        <ele>12.3</ele>
        <time>2024-04-17T13:23:00Z</time>
      </trkpt>
      <trkpt lat="49.96581" lon="2.11088">
        <ele>12.3</ele>
        <time>2024-04-17T13:23:01Z</time>
      </trkpt>
      <trkpt lat="49.96579" lon="2.11088">
        <ele>12.3</ele>
        <time>2024-04-17T13:23:02Z</time>
      </trkpt>
      <trkpt lat="49.96578" lon="2.11088">
        <ele>12.3</ele>
        <time>2024-04-17T13:23:03Z</time>
      </trkpt>
      <trkpt lat="49.96577" lon="2.11088">
        <ele>12.3</ele>
        <time>2024-04-17T13:23:04Z</time>
      </trkpt>
      <trkpt lat="49.96576" lon="2.11088">
        <ele>12.3</ele>
        <time>2024-04-17T13:23:05Z</time>
      </trkpt>
      <trkpt lat="49.96575" lon="2.11087">
        <ele>12.3</ele>
        <time>2024-04-17T13:23:06Z</time>
      </trkpt>
      <trkpt lat="49.96573" lon="2.11087">
        <ele>12.3</ele>
        <time>2024-04-17T13:23:07Z</time>
      </trkpt>
      <trkpt lat="49.96572" lon="2.11087">
        <ele>12.3</ele>
        <time>2024-04-17T13:23:08Z</time>
      </trkpt>
      <trkpt lat="49.96571" lon="2.11087">
        <ele>12.3</ele>
        <time>2024-04-17T13:23:09Z</time>
      </trkpt>
      <trkpt lat="49.9657" lon="2.11087">
        <ele>12.3</ele>
        <time>2024-04-17T13:23:10Z</time>
      </trkpt>
      <trkpt lat="49.96568" lon="2.11087">
        <ele>12.3</ele>
        <time>2024-04-17T13:23:11Z</time>
      </trkpt>
      <trkpt lat="49.96567" lon="2.11087">
        <ele>12.4</ele>
        <time>2024-04-17T13:23:12Z</time>
      </trkpt>
      <trkpt lat="49.96566" lon="2.11087">
        <ele>12.4</ele>
        <time>2024-04-17T13:23:13Z</time>
      </trkpt>
      <trkpt lat="49.96565" lon="2.11088">
        <ele>12.4</ele>
        <time>2024-04-17T13:23:14Z</time>
      </trkpt>
      <trkpt lat="49.96564" lon="2.11088">
        <ele>12.4</ele>
        <time>2024-04-17T13:23:15Z</time>
      </trkpt>
      <trkpt lat="49.96563" lon="2.11088">
        <ele>12.4</ele>
        <time>2024-04-17T13:23:16Z</time>
      </trkpt>
      <trkpt lat="49.96562" lon="2.11088">
        <ele>12.4</ele>
        <time>2024-04-17T13:23:17Z</time>
      </trkpt>
      <trkpt lat="49.96561" lon="2.11089">
        <ele>12.4</ele>
        <time>2024-04-17T13:23:18Z</time>
      </trkpt>
      <trkpt lat="49.9656" lon="2.11089">
        <ele>12.4</ele>
        <time>2024-04-17T13:23:19Z</time>
      </trkpt>
      <trkpt lat="49.96558" lon="2.1109">
        <ele>12.4</ele>
        <time>2024-04-17T13:23:20Z</time>
      </trkpt>
      <trkpt lat="49.96557" lon="2.1109">
        <ele>12.4</ele>
        <time>2024-04-17T13:23:21Z</time>
      </trkpt>
      <trkpt lat="49.96556" lon="2.11091">
        <ele>12.4</ele>
        <time>2024-04-17T13:23:22Z</time>
      </trkpt>
      <trkpt lat="49.96554" lon="2.11091">
        <ele>12.5</ele>
        <time>2024-04-17T13:23:23Z</time>
      </trkpt>
      <trkpt lat="49.96553" lon="2.11091">
        <ele>12.5</ele>
        <time>2024-04-17T13:23:24Z</time>
      </trkpt>
      <trkpt lat="49.96552" lon="2.11092">
        <ele>12.5</ele>
        <time>2024-04-17T13:23:25Z</time>
      </trkpt>
      <trkpt lat="49.96551" lon="2.11092">
        <ele>12.5</ele>
        <time>2024-04-17T13:23:26Z</time>
      </trkpt>
      <trkpt lat="49.96549" lon="2.11092">
        <ele>12.5</ele>
        <time>2024-04-17T13:23:27Z</time>
      </trkpt>
      <trkpt lat="49.96548" lon="2.11092">
        <ele>12.5</ele>
        <time>2024-04-17T13:23:28Z</time>
      </trkpt>
      <trkpt lat="49.96547" lon="2.11092">
        <ele>12.5</ele>
        <time>2024-04-17T13:23:29Z</time>
      </trkpt>
      <trkpt lat="49.96546" lon="2.11092">
        <ele>12.5</ele>
        <time>2024-04-17T13:23:30Z</time>
      </trkpt>
      <trkpt lat="49.96544" lon="2.11093">
        <ele>12.5</ele>
        <time>2024-04-17T13:23:31Z</time>
      </trkpt>
      <trkpt lat="49.96543" lon="2.11093">
        <ele>12.5</ele>
        <time>2024-04-17T13:23:32Z</time>
      </trkpt>
      <trkpt lat="49.96542" lon="2.11093">
        <ele>12.5</ele>
        <time>2024-04-17T13:23:33Z</time>
      </trkpt>
      <trkpt lat="49.96541" lon="2.11094">
        <ele>12.5</ele>
        <time>2024-04-17T13:23:34Z</time>
      </trkpt>
      <trkpt lat="49.9654" lon="2.11094">
        <ele>12.5</ele>
        <time>2024-04-17T13:23:35Z</time>
      </trkpt>
      <trkpt lat="49.96539" lon="2.11094">
        <ele>12.6</ele>
        <time>2024-04-17T13:23:36Z</time>
      </trkpt>
      <trkpt lat="49.96538" lon="2.11094">
        <ele>12.6</ele>
        <time>2024-04-17T13:23:37Z</time>
      </trkpt>
      <trkpt lat="49.96536" lon="2.11095">
        <ele>12.6</ele>
        <time>2024-04-17T13:23:38Z</time>
      </trkpt>
      <trkpt lat="49.96535" lon="2.11095">
        <ele>12.6</ele>
        <time>2024-04-17T13:23:39Z</time>
      </trkpt>
      <trkpt lat="49.96533" lon="2.11096">
        <ele>12.6</ele>
        <time>2024-04-17T13:23:40Z</time>
      </trkpt>
      <trkpt lat="49.96532" lon="2.11096">
        <ele>12.6</ele>
        <time>2024-04-17T13:23:41Z</time>
      </trkpt>
      <trkpt lat="49.96532" lon="2.11096">
        <ele>12.6</ele>
        <time>2024-04-17T13:23:42Z</time>
      </trkpt>
      <trkpt lat="49.96529" lon="2.11096">
        <ele>12.6</ele>
        <time>2024-04-17T13:23:43Z</time>
      </trkpt>
      <trkpt lat="49.96529" lon="2.11096">
        <ele>12.6</ele>
        <time>2024-04-17T13:23:44Z</time>
      </trkpt>
      <trkpt lat="49.96528" lon="2.11096">
        <ele>12.7</ele>
        <time>2024-04-17T13:23:45Z</time>
      </trkpt>
      <trkpt lat="49.96527" lon="2.11096">
        <ele>12.7</ele>
        <time>2024-04-17T13:23:46Z</time>
      </trkpt>
      <trkpt lat="49.96526" lon="2.11096">
        <ele>12.7</ele>
        <time>2024-04-17T13:23:47Z</time>
      </trkpt>
      <trkpt lat="49.96524" lon="2.11097">
        <ele>12.7</ele>
        <time>2024-04-17T13:23:48Z</time>
      </trkpt>
      <trkpt lat="49.96523" lon="2.11097">
        <ele>12.7</ele>
        <time>2024-04-17T13:23:49Z</time>
      </trkpt>
      <trkpt lat="49.96523" lon="2.11097">
        <ele>12.7</ele>
        <time>2024-04-17T13:23:50Z</time>
      </trkpt>
      <trkpt lat="49.96521" lon="2.11098">
        <ele>12.7</ele>
        <time>2024-04-17T13:23:51Z</time>
      </trkpt>
      <trkpt lat="49.96519" lon="2.11098">
        <ele>12.7</ele>
        <time>2024-04-17T13:23:52Z</time>
      </trkpt>
      <trkpt lat="49.96519" lon="2.11098">
        <ele>12.7</ele>
        <time>2024-04-17T13:23:53Z</time>
      </trkpt>
      <trkpt lat="49.96518" lon="2.11099">
        <ele>12.7</ele>
        <time>2024-04-17T13:23:54Z</time>
      </trkpt>
      <trkpt lat="49.96517" lon="2.11099">
        <ele>12.8</ele>
        <time>2024-04-17T13:23:55Z</time>
      </trkpt>
      <trkpt lat="49.96516" lon="2.11099">
        <ele>12.8</ele>
        <time>2024-04-17T13:23:56Z</time>
      </trkpt>
      <trkpt lat="49.96514" lon="2.11099">
        <ele>12.8</ele>
        <time>2024-04-17T13:23:57Z</time>
      </trkpt>
      <trkpt lat="49.96513" lon="2.11099">
        <ele>12.8</ele>
        <time>2024-04-17T13:23:58Z</time>
      </trkpt>
      <trkpt lat="49.96512" lon="2.11099">
        <ele>12.8</ele>
        <time>2024-04-17T13:23:59Z</time>
      </trkpt>
      <trkpt lat="49.96511" lon="2.11099">
        <ele>12.8</ele>
        <time>2024-04-17T13:24:00Z</time>
      </trkpt>
      <trkpt lat="49.9651" lon="2.11099">
        <ele>12.8</ele>
        <time>2024-04-17T13:24:01Z</time>
      </trkpt>
      <trkpt lat="49.96509" lon="2.11099">
        <ele>12.8</ele>
        <time>2024-04-17T13:24:02Z</time>
      </trkpt>
      <trkpt lat="49.96508" lon="2.11098">
        <ele>12.8</ele>
        <time>2024-04-17T13:24:03Z</time>
      </trkpt>
      <trkpt lat="49.96507" lon="2.11098">
        <ele>12.8</ele>
        <time>2024-04-17T13:24:04Z</time>
      </trkpt>
      <trkpt lat="49.96506" lon="2.11098">
        <ele>12.9</ele>
        <time>2024-04-17T13:24:05Z</time>
      </trkpt>
      <trkpt lat="49.96505" lon="2.11098">
        <ele>12.9</ele>
        <time>2024-04-17T13:24:06Z</time>
      </trkpt>
      <trkpt lat="49.96504" lon="2.11099">
        <ele>12.9</ele>
        <time>2024-04-17T13:24:07Z</time>
      </trkpt>
      <trkpt lat="49.96503" lon="2.11099">
        <ele>12.9</ele>
        <time>2024-04-17T13:24:08Z</time>
      </trkpt>
      <trkpt lat="49.96502" lon="2.11099">
        <ele>12.9</ele>
        <time>2024-04-17T13:24:09Z</time>
      </trkpt>
      <trkpt lat="49.96501" lon="2.11099">
        <ele>12.9</ele>
        <time>2024-04-17T13:24:10Z</time>
      </trkpt>
      <trkpt lat="49.965" lon="2.111">
        <ele>12.9</ele>
        <time>2024-04-17T13:24:11Z</time>
      </trkpt>
      <trkpt lat="49.96499" lon="2.111">
        <ele>12.9</ele>
        <time>2024-04-17T13:24:12Z</time>
      </trkpt>
      <trkpt lat="49.96498" lon="2.11101">
        <ele>12.9</ele>
        <time>2024-04-17T13:24:13Z</time>
      </trkpt>
      <trkpt lat="49.96497" lon="2.11101">
        <ele>12.9</ele>
        <time>2024-04-17T13:24:14Z</time>
      </trkpt>
      <trkpt lat="49.96496" lon="2.11102">
        <ele>12.9</ele>
        <time>2024-04-17T13:24:15Z</time>
      </trkpt>
      <trkpt lat="49.96496" lon="2.11102">
        <ele>12.9</ele>
        <time>2024-04-17T13:24:16Z</time>
      </trkpt>
      <trkpt lat="49.96495" lon="2.11103">
        <ele>13</ele>
        <time>2024-04-17T13:24:17Z</time>
      </trkpt>
      <trkpt lat="49.96494" lon="2.11103">
        <ele>13</ele>
        <time>2024-04-17T13:24:18Z</time>
      </trkpt>
      <trkpt lat="49.96493" lon="2.11104">
        <ele>13</ele>
        <time>2024-04-17T13:24:19Z</time>
      </trkpt>
      <trkpt lat="49.96492" lon="2.11104">
        <ele>13</ele>
        <time>2024-04-17T13:24:20Z</time>
      </trkpt>
      <trkpt lat="49.96491" lon="2.11104">
        <ele>13</ele>
        <time>2024-04-17T13:24:21Z</time>
      </trkpt>
      <trkpt lat="49.9649" lon="2.11104">
        <ele>13</ele>
        <time>2024-04-17T13:24:22Z</time>
      </trkpt>
      <trkpt lat="49.9649" lon="2.11103">
        <ele>13</ele>
        <time>2024-04-17T13:24:23Z</time>
      </trkpt>
      <trkpt lat="49.96489" lon="2.11102">
        <ele>13</ele>
        <time>2024-04-17T13:24:24Z</time>
      </trkpt>
      <trkpt lat="49.96489" lon="2.11101">
        <ele>13</ele>
        <time>2024-04-17T13:24:25Z</time>
      </trkpt>
      <trkpt lat="49.96489" lon="2.111">
        <ele>13</ele>
        <time>2024-04-17T13:24:26Z</time>
      </trkpt>
      <trkpt lat="49.96488" lon="2.111">
        <ele>13</ele>
        <time>2024-04-17T13:24:27Z</time>
      </trkpt>
      <trkpt lat="49.96487" lon="2.111">
        <ele>13</ele>
        <time>2024-04-17T13:24:28Z</time>
      </trkpt>
      <trkpt lat="49.96487" lon="2.111">
        <ele>13</ele>
        <time>2024-04-17T13:24:29Z</time>
      </trkpt>
      <trkpt lat="49.96486" lon="2.111">
        <ele>13</ele>
        <time>2024-04-17T13:24:30Z</time>
      </trkpt>
      <trkpt lat="49.96485" lon="2.111">
        <ele>13.1</ele>
        <time>2024-04-17T13:24:31Z</time>
      </trkpt>
      <trkpt lat="49.96485" lon="2.11099">
        <ele>13.1</ele>
        <time>2024-04-17T13:24:32Z</time>
      </trkpt>
      <trkpt lat="49.96484" lon="2.11099">
        <ele>13.1</ele>
        <time>2024-04-17T13:24:33Z</time>
      </trkpt>
      <trkpt lat="49.96484" lon="2.11098">
        <ele>13.1</ele>
        <time>2024-04-17T13:24:34Z</time>
      </trkpt>
      <trkpt lat="49.96484" lon="2.11097">
        <ele>13.1</ele>
        <time>2024-04-17T13:24:35Z</time>
      </trkpt>
      <trkpt lat="49.96483" lon="2.11095">
        <ele>13.1</ele>
        <time>2024-04-17T13:24:36Z</time>
      </trkpt>
      <trkpt lat="49.96483" lon="2.11094">
        <ele>13.1</ele>
        <time>2024-04-17T13:24:37Z</time>
      </trkpt>
      <trkpt lat="49.96482" lon="2.11093">
        <ele>13.1</ele>
        <time>2024-04-17T13:24:38Z</time>
      </trkpt>
      <trkpt lat="49.96482" lon="2.11093">
        <ele>13.1</ele>
        <time>2024-04-17T13:24:39Z</time>
      </trkpt>
      <trkpt lat="49.96481" lon="2.11092">
        <ele>13.1</ele>
        <time>2024-04-17T13:24:40Z</time>
      </trkpt>
      <trkpt lat="49.96481" lon="2.11091">
        <ele>13.1</ele>
        <time>2024-04-17T13:24:41Z</time>
      </trkpt>
      <trkpt lat="49.96481" lon="2.1109">
        <ele>13.1</ele>
        <time>2024-04-17T13:24:42Z</time>
      </trkpt>
      <trkpt lat="49.96482" lon="2.1109">
        <ele>13.1</ele>
        <time>2024-04-17T13:24:43Z</time>
      </trkpt>
      <trkpt lat="49.96482" lon="2.1109">
        <ele>13.1</ele>
        <time>2024-04-17T13:24:44Z</time>
      </trkpt>
      <trkpt lat="49.96482" lon="2.1109">
        <ele>13.1</ele>
        <time>2024-04-17T13:24:45Z</time>
      </trkpt>
      <trkpt lat="49.96482" lon="2.1109">
        <ele>13.1</ele>
        <time>2024-04-17T13:24:46Z</time>
      </trkpt>
      <trkpt lat="49.96482" lon="2.1109">
        <ele>13.1</ele>
        <time>2024-04-17T13:24:47Z</time>
      </trkpt>
      <trkpt lat="49.96483" lon="2.1109">
        <ele>13.1</ele>
        <time>2024-04-17T13:24:48Z</time>
      </trkpt>
      <trkpt lat="49.96483" lon="2.1109">
        <ele>13.1</ele>
        <time>2024-04-17T13:24:49Z</time>
      </trkpt>
      <trkpt lat="49.96483" lon="2.1109">
        <ele>13.1</ele>
        <time>2024-04-17T13:24:50Z</time>
      </trkpt>
      <trkpt lat="49.96483" lon="2.1109">
        <ele>13.1</ele>
        <time>2024-04-17T13:24:51Z</time>
      </trkpt>
      <trkpt lat="49.96483" lon="2.1109">
        <ele>13.1</ele>
        <time>2024-04-17T13:24:52Z</time>
      </trkpt>
      <trkpt lat="49.96483" lon="2.1109">
        <ele>13.1</ele>
        <time>2024-04-17T13:24:53Z</time>
      </trkpt>
      <trkpt lat="49.96483" lon="2.1109">
        <ele>13.1</ele>
        <time>2024-04-17T13:24:54Z</time>
      </trkpt>
      <trkpt lat="49.96483" lon="2.11091">
        <ele>13.1</ele>
        <time>2024-04-17T13:24:55Z</time>
      </trkpt>
      <trkpt lat="49.96483" lon="2.11092">
        <ele>13.1</ele>
        <time>2024-04-17T13:24:56Z</time>
      </trkpt>
      <trkpt lat="49.96484" lon="2.11092">
        <ele>13.1</ele>
        <time>2024-04-17T13:24:57Z</time>
      </trkpt>
      <trkpt lat="49.96484" lon="2.11093">
        <ele>13.1</ele>
        <time>2024-04-17T13:24:58Z</time>
      </trkpt>
      <trkpt lat="49.96484" lon="2.11094">
        <ele>13.1</ele>
        <time>2024-04-17T13:24:59Z</time>
      </trkpt>
      <trkpt lat="49.96485" lon="2.11095">
        <ele>13.1</ele>
        <time>2024-04-17T13:25:00Z</time>
      </trkpt>
      <trkpt lat="49.96485" lon="2.11095">
        <ele>13.1</ele>
        <time>2024-04-17T13:25:01Z</time>
      </trkpt>
      <trkpt lat="49.96485" lon="2.11099">
        <ele>13.2</ele>
        <time>2024-04-17T13:25:02Z</time>
      </trkpt>
      <trkpt lat="49.96485" lon="2.111">
        <ele>13.2</ele>
        <time>2024-04-17T13:25:03Z</time>
      </trkpt>
      <trkpt lat="49.96486" lon="2.111">
        <ele>13.2</ele>
        <time>2024-04-17T13:25:04Z</time>
      </trkpt>
      <trkpt lat="49.96486" lon="2.111">
        <ele>13.2</ele>
        <time>2024-04-17T13:25:05Z</time>
      </trkpt>
      <trkpt lat="49.96486" lon="2.111">
        <ele>13.2</ele>
        <time>2024-04-17T13:25:06Z</time>
      </trkpt>
      <trkpt lat="49.96486" lon="2.111">
        <ele>13.2</ele>
        <time>2024-04-17T13:25:07Z</time>
      </trkpt>
      <trkpt lat="49.96486" lon="2.111">
        <ele>13.2</ele>
        <time>2024-04-17T13:25:08Z</time>
      </trkpt>
      <trkpt lat="49.96486" lon="2.111">
        <ele>13.2</ele>
        <time>2024-04-17T13:25:09Z</time>
      </trkpt>
      <trkpt lat="49.96486" lon="2.111">
        <ele>13.2</ele>
        <time>2024-04-17T13:25:10Z</time>
      </trkpt>
      <trkpt lat="49.96486" lon="2.111">
        <ele>13.2</ele>
        <time>2024-04-17T13:25:11Z</time>
      </trkpt>
      <trkpt lat="49.96486" lon="2.111">
        <ele>13.2</ele>
        <time>2024-04-17T13:25:12Z</time>
      </trkpt>
      <trkpt lat="49.96486" lon="2.111">
        <ele>13.2</ele>
        <time>2024-04-17T13:25:13Z</time>
      </trkpt>
      <trkpt lat="49.96486" lon="2.111">
        <ele>13.2</ele>
        <time>2024-04-17T13:25:14Z</time>
      </trkpt>
      <trkpt lat="49.96486" lon="2.111">
        <ele>13.2</ele>
        <time>2024-04-17T13:25:15Z</time>
      </trkpt>
      <trkpt lat="49.96486" lon="2.111">
        <ele>13.2</ele>
        <time>2024-04-17T13:25:16Z</time>
      </trkpt>
      <trkpt lat="49.96486" lon="2.111">
        <ele>13.2</ele>
        <time>2024-04-17T13:25:17Z</time>
      </trkpt>
      <trkpt lat="49.96486" lon="2.111">
        <ele>13.2</ele>
        <time>2024-04-17T13:25:18Z</time>
      </trkpt>
      <trkpt lat="49.96486" lon="2.111">
        <ele>13.2</ele>
        <time>2024-04-17T13:25:19Z</time>
      </trkpt>
      <trkpt lat="49.96486" lon="2.111">
        <ele>13.2</ele>
        <time>2024-04-17T13:25:20Z</time>
      </trkpt>
      <trkpt lat="49.96486" lon="2.111">
        <ele>13.2</ele>
        <time>2024-04-17T13:25:21Z</time>
      </trkpt>
      <trkpt lat="49.96486" lon="2.111">
        <ele>13.2</ele>
        <time>2024-04-17T13:25:22Z</time>
      </trkpt>
      <trkpt lat="49.96486" lon="2.111">
        <ele>13.2</ele>
        <time>2024-04-17T13:25:23Z</time>
      </trkpt>
      <trkpt lat="49.96486" lon="2.111">
        <ele>13.2</ele>
        <time>2024-04-17T13:25:24Z</time>
      </trkpt>
      <trkpt lat="49.96486" lon="2.111">
        <ele>13.2</ele>
        <time>2024-04-17T13:25:25Z</time>
      </trkpt>
      <trkpt lat="49.96486" lon="2.111">
        <ele>13.2</ele>
        <time>2024-04-17T13:25:26Z</time>
      </trkpt>
      <trkpt lat="49.96486" lon="2.111">
        <ele>13.2</ele>
        <time>2024-04-17T13:25:27Z</time>
      </trkpt>
      <trkpt lat="49.96486" lon="2.111">
        <ele>13.2</ele>
        <time>2024-04-17T13:25:28Z</time>
      </trkpt>
      <trkpt lat="49.96486" lon="2.111">
        <ele>13.2</ele>
        <time>2024-04-17T13:25:29Z</time>
      </trkpt>
      <trkpt lat="49.96486" lon="2.111">
        <ele>13.2</ele>
        <time>2024-04-17T13:25:30Z</time>
      </trkpt>
      <trkpt lat="49.96486" lon="2.111">
        <ele>13.2</ele>
        <time>2024-04-17T13:25:31Z</time>
      </trkpt>
      <trkpt lat="49.96486" lon="2.111">
        <ele>13.2</ele>
        <time>2024-04-17T13:25:32Z</time>
      </trkpt>
      <trkpt lat="49.96486" lon="2.111">
        <ele>13.2</ele>
        <time>2024-04-17T13:25:33Z</time>
      </trkpt>
      <trkpt lat="49.96486" lon="2.111">
        <ele>13.2</ele>
        <time>2024-04-17T13:25:34Z</time>
      </trkpt>
      <trkpt lat="49.96486" lon="2.111">
        <ele>13.2</ele>
        <time>2024-04-17T13:25:35Z</time>
      </trkpt>
      <trkpt lat="49.96486" lon="2.111">
        <ele>13.2</ele>
        <time>2024-04-17T13:25:36Z</time>
      </trkpt>
      <trkpt lat="49.96486" lon="2.111">
        <ele>13.2</ele>
        <time>2024-04-17T13:25:37Z</time>
      </trkpt>
      <trkpt lat="49.96486" lon="2.111">
        <ele>13.2</ele>
        <time>2024-04-17T13:25:38Z</time>
      </trkpt>
      <trkpt lat="49.96486" lon="2.111">
        <ele>13.2</ele>
        <time>2024-04-17T13:25:39Z</time>
      </trkpt>
      <trkpt lat="49.96486" lon="2.111">
        <ele>13.2</ele>
        <time>2024-04-17T13:25:40Z</time>
      </trkpt>
      <trkpt lat="49.96486" lon="2.111">
        <ele>13.2</ele>
        <time>2024-04-17T13:25:41Z</time>
      </trkpt>
      <trkpt lat="49.96486" lon="2.111">
        <ele>13.2</ele>
        <time>2024-04-17T13:25:42Z</time>
      </trkpt>
      <trkpt lat="49.96486" lon="2.111">
        <ele>13.2</ele>
        <time>2024-04-17T13:25:43Z</time>
      </trkpt>
      <trkpt lat="49.96486" lon="2.111">
        <ele>13.2</ele>
        <time>2024-04-17T13:25:44Z</time>
      </trkpt>
      <trkpt lat="49.96486" lon="2.111">
        <ele>13.2</ele>
        <time>2024-04-17T13:25:45Z</time>
      </trkpt>
      <trkpt lat="49.96486" lon="2.111">
        <ele>13.2</ele>
        <time>2024-04-17T13:25:46Z</time>
      </trkpt>
      <trkpt lat="49.96486" lon="2.111">
        <ele>13.2</ele>
        <time>2024-04-17T13:25:47Z</time>
      </trkpt>
      <trkpt lat="49.96486" lon="2.111">
        <ele>13.2</ele>
        <time>2024-04-17T13:25:48Z</time>
      </trkpt>
      <trkpt lat="49.96486" lon="2.111">
        <ele>13.2</ele>
        <time>2024-04-17T13:25:49Z</time>
      </trkpt>
      <trkpt lat="49.96486" lon="2.111">
        <ele>13.2</ele>
        <time>2024-04-17T13:25:50Z</time>
      </trkpt>
      <trkpt lat="49.96486" lon="2.111">
        <ele>13.2</ele>
        <time>2024-04-17T13:25:51Z</time>
      </trkpt>
      <trkpt lat="49.96486" lon="2.111">
        <ele>13.2</ele>
        <time>2024-04-17T13:25:52Z</time>
      </trkpt>
      <trkpt lat="49.96486" lon="2.111">
        <ele>13.2</ele>
        <time>2024-04-17T13:25:53Z</time>
      </trkpt>
      <trkpt lat="49.96486" lon="2.111">
        <ele>13.2</ele>
        <time>2024-04-17T13:25:54Z</time>
      </trkpt>
      <trkpt lat="49.96486" lon="2.111">
        <ele>13.2</ele>
        <time>2024-04-17T13:25:55Z</time>
      </trkpt>
      <trkpt lat="49.96486" lon="2.111">
        <ele>13.2</ele>
        <time>2024-04-17T13:25:56Z</time>
      </trkpt>
      <trkpt lat="49.96486" lon="2.111">
        <ele>13.2</ele>
        <time>2024-04-17T13:25:57Z</time>
      </trkpt>
      <trkpt lat="49.96486" lon="2.111">
        <ele>13.2</ele>
        <time>2024-04-17T13:25:58Z</time>
      </trkpt>
      <trkpt lat="49.96486" lon="2.111">
        <ele>13.2</ele>
        <time>2024-04-17T13:25:59Z</time>
      </trkpt>
      <trkpt lat="49.96486" lon="2.111">
        <ele>13.2</ele>
        <time>2024-04-17T13:26:00Z</time>
      </trkpt>
      <trkpt lat="49.96486" lon="2.111">
        <ele>13.2</ele>
        <time>2024-04-17T13:26:01Z</time>
      </trkpt>
      <trkpt lat="49.96486" lon="2.111">
        <ele>13.2</ele>
        <time>2024-04-17T13:26:02Z</time>
      </trkpt>
      <trkpt lat="49.96486" lon="2.111">
        <ele>13.2</ele>
        <time>2024-04-17T13:26:03Z</time>
      </trkpt>
      <trkpt lat="49.96486" lon="2.111">
        <ele>13.2</ele>
        <time>2024-04-17T13:26:04Z</time>
      </trkpt>
      <trkpt lat="49.96486" lon="2.111">
        <ele>13.2</ele>
        <time>2024-04-17T13:26:05Z</time>
      </trkpt>
      <trkpt lat="49.96486" lon="2.111">
        <ele>13.2</ele>
        <time>2024-04-17T13:26:06Z</time>
      </trkpt>
      <trkpt lat="49.96486" lon="2.111">
        <ele>13.2</ele>
        <time>2024-04-17T13:26:07Z</time>
      </trkpt>
      <trkpt lat="49.96486" lon="2.111">
        <ele>13.2</ele>
        <time>2024-04-17T13:26:08Z</time>
      </trkpt>
      <trkpt lat="49.96486" lon="2.111">
        <ele>13.2</ele>
        <time>2024-04-17T13:26:09Z</time>
      </trkpt>
      <trkpt lat="49.96486" lon="2.111">
        <ele>13.2</ele>
        <time>2024-04-17T13:26:10Z</time>
      </trkpt>
      <trkpt lat="49.96486" lon="2.111">
        <ele>13.2</ele>
        <time>2024-04-17T13:26:11Z</time>
      </trkpt>
      <trkpt lat="49.96486" lon="2.111">
        <ele>13.2</ele>
        <time>2024-04-17T13:26:12Z</time>
      </trkpt>
      <trkpt lat="49.96486" lon="2.111">
        <ele>13.2</ele>
        <time>2024-04-17T13:26:13Z</time>
      </trkpt>
      <trkpt lat="49.96486" lon="2.111">
        <ele>13.2</ele>
        <time>2024-04-17T13:26:14Z</time>
      </trkpt>
      <trkpt lat="49.96486" lon="2.111">
        <ele>13.2</ele>
        <time>2024-04-17T13:26:15Z</time>
      </trkpt>
      <trkpt lat="49.96486" lon="2.111">
        <ele>13.2</ele>
        <time>2024-04-17T13:26:16Z</time>
      </trkpt>
      <trkpt lat="49.96486" lon="2.111">
        <ele>13.2</ele>
        <time>2024-04-17T13:26:17Z</time>
      </trkpt>
      <trkpt lat="49.96486" lon="2.111">
        <ele>13.2</ele>
        <time>2024-04-17T13:26:18Z</time>
      </trkpt>
      <trkpt lat="49.96486" lon="2.111">
        <ele>13.2</ele>
        <time>2024-04-17T13:26:19Z</time>
      </trkpt>
      <trkpt lat="49.96486" lon="2.111">
        <ele>13.2</ele>
        <time>2024-04-17T13:26:20Z</time>
      </trkpt>
      <trkpt lat="49.96486" lon="2.111">
        <ele>13.2</ele>
        <time>2024-04-17T13:26:21Z</time>
      </trkpt>
      <trkpt lat="49.96486" lon="2.111">
        <ele>13.2</ele>
        <time>2024-04-17T13:26:22Z</time>
      </trkpt>
      <trkpt lat="49.96486" lon="2.111">
        <ele>13.2</ele>
        <time>2024-04-17T13:26:23Z</time>
      </trkpt>
      <trkpt lat="49.96486" lon="2.111">
        <ele>13.2</ele>
        <time>2024-04-17T13:26:24Z</time>
      </trkpt>
      <trkpt lat="49.96486" lon="2.111">
        <ele>13.2</ele>
        <time>2024-04-17T13:26:25Z</time>
      </trkpt>
      <trkpt lat="49.96486" lon="2.111">
        <ele>13.2</ele>
        <time>2024-04-17T13:26:26Z</time>
      </trkpt>
      <trkpt lat="49.96486" lon="2.111">
        <ele>13.2</ele>
        <time>2024-04-17T13:26:27Z</time>
      </trkpt>
      <trkpt lat="49.96486" lon="2.111">
        <ele>13.2</ele>
        <time>2024-04-17T13:26:28Z</time>
      </trkpt>
      <trkpt lat="49.96486" lon="2.111">
        <ele>13.2</ele>
        <time>2024-04-17T13:26:29Z</time>
      </trkpt>
      <trkpt lat="49.96486" lon="2.111">
        <ele>13.2</ele>
        <time>2024-04-17T13:26:30Z</time>
      </trkpt>
      <trkpt lat="49.96486" lon="2.111">
        <ele>13.2</ele>
        <time>2024-04-17T13:26:31Z</time>
      </trkpt>
      <trkpt lat="49.96486" lon="2.11101">
        <ele>13.2</ele>
        <time>2024-04-17T13:26:32Z</time>
      </trkpt>
      <trkpt lat="49.96486" lon="2.11102">
        <ele>13.2</ele>
        <time>2024-04-17T13:26:33Z</time>
      </trkpt>
      <trkpt lat="49.96486" lon="2.11102">
        <ele>13.2</ele>
        <time>2024-04-17T13:26:34Z</time>
      </trkpt>
      <trkpt lat="49.96486" lon="2.11102">
        <ele>13.2</ele>
        <time>2024-04-17T13:26:35Z</time>
      </trkpt>
      <trkpt lat="49.96486" lon="2.11102">
        <ele>13.2</ele>
        <time>2024-04-17T13:26:36Z</time>
      </trkpt>
      <trkpt lat="49.96486" lon="2.11101">
        <ele>13.2</ele>
        <time>2024-04-17T13:26:37Z</time>
      </trkpt>
      <trkpt lat="49.96486" lon="2.11101">
        <ele>13.2</ele>
        <time>2024-04-17T13:26:38Z</time>
      </trkpt>
      <trkpt lat="49.96486" lon="2.11101">
        <ele>13.2</ele>
        <time>2024-04-17T13:26:39Z</time>
      </trkpt>
      <trkpt lat="49.96486" lon="2.11101">
        <ele>13.2</ele>
        <time>2024-04-17T13:26:40Z</time>
      </trkpt>
      <trkpt lat="49.96485" lon="2.11102">
        <ele>13.2</ele>
        <time>2024-04-17T13:26:41Z</time>
      </trkpt>
      <trkpt lat="49.96485" lon="2.11102">
        <ele>13.2</ele>
        <time>2024-04-17T13:26:42Z</time>
      </trkpt>
      <trkpt lat="49.96483" lon="2.11103">
        <ele>13.2</ele>
        <time>2024-04-17T13:26:43Z</time>
      </trkpt>
      <trkpt lat="49.96482" lon="2.11103">
        <ele>13.2</ele>
        <time>2024-04-17T13:26:44Z</time>
      </trkpt>
      <trkpt lat="49.96481" lon="2.11104">
        <ele>13.2</ele>
        <time>2024-04-17T13:26:45Z</time>
      </trkpt>
      <trkpt lat="49.9648" lon="2.11104">
        <ele>13.2</ele>
        <time>2024-04-17T13:26:46Z</time>
      </trkpt>
      <trkpt lat="49.96479" lon="2.11105">
        <ele>13.2</ele>
        <time>2024-04-17T13:26:47Z</time>
      </trkpt>
      <trkpt lat="49.96478" lon="2.11105">
        <ele>13.2</ele>
        <time>2024-04-17T13:26:48Z</time>
      </trkpt>
      <trkpt lat="49.96477" lon="2.11106">
        <ele>13.2</ele>
        <time>2024-04-17T13:26:49Z</time>
      </trkpt>
      <trkpt lat="49.96476" lon="2.11106">
        <ele>13.2</ele>
        <time>2024-04-17T13:26:50Z</time>
      </trkpt>
      <trkpt lat="49.96476" lon="2.11106">
        <ele>13.2</ele>
        <time>2024-04-17T13:26:51Z</time>
      </trkpt>
      <trkpt lat="49.96475" lon="2.11107">
        <ele>13.2</ele>
        <time>2024-04-17T13:26:52Z</time>
      </trkpt>
      <trkpt lat="49.96474" lon="2.11108">
        <ele>13.2</ele>
        <time>2024-04-17T13:26:53Z</time>
      </trkpt>
      <trkpt lat="49.96472" lon="2.11109">
        <ele>13.2</ele>
        <time>2024-04-17T13:26:54Z</time>
      </trkpt>
      <trkpt lat="49.96472" lon="2.1111">
        <ele>13.2</ele>
        <time>2024-04-17T13:26:55Z</time>
      </trkpt>
      <trkpt lat="49.96471" lon="2.1111">
        <ele>13.2</ele>
        <time>2024-04-17T13:26:56Z</time>
      </trkpt>
      <trkpt lat="49.96469" lon="2.11112">
        <ele>13.2</ele>
        <time>2024-04-17T13:26:57Z</time>
      </trkpt>
      <trkpt lat="49.96468" lon="2.11113">
        <ele>13.2</ele>
        <time>2024-04-17T13:26:58Z</time>
      </trkpt>
      <trkpt lat="49.96466" lon="2.11114">
        <ele>13.2</ele>
        <time>2024-04-17T13:26:59Z</time>
      </trkpt>
      <trkpt lat="49.96465" lon="2.11115">
        <ele>13.2</ele>
        <time>2024-04-17T13:27:00Z</time>
      </trkpt>
      <trkpt lat="49.96463" lon="2.11115">
        <ele>13.2</ele>
        <time>2024-04-17T13:27:01Z</time>
      </trkpt>
      <trkpt lat="49.96462" lon="2.11116">
        <ele>13.2</ele>
        <time>2024-04-17T13:27:02Z</time>
      </trkpt>
      <trkpt lat="49.96461" lon="2.11117">
        <ele>13.2</ele>
        <time>2024-04-17T13:27:03Z</time>
      </trkpt>
      <trkpt lat="49.9646" lon="2.11118">
        <ele>13.2</ele>
        <time>2024-04-17T13:27:04Z</time>
      </trkpt>
      <trkpt lat="49.96458" lon="2.11119">
        <ele>13.2</ele>
        <time>2024-04-17T13:27:05Z</time>
      </trkpt>
      <trkpt lat="49.96457" lon="2.1112">
        <ele>13.2</ele>
        <time>2024-04-17T13:27:06Z</time>
      </trkpt>
      <trkpt lat="49.96456" lon="2.11121">
        <ele>13.2</ele>
        <time>2024-04-17T13:27:07Z</time>
      </trkpt>
      <trkpt lat="49.96454" lon="2.11122">
        <ele>13.2</ele>
        <time>2024-04-17T13:27:08Z</time>
      </trkpt>
      <trkpt lat="49.96453" lon="2.11123">
        <ele>13.2</ele>
        <time>2024-04-17T13:27:09Z</time>
      </trkpt>
      <trkpt lat="49.96451" lon="2.11124">
        <ele>13.2</ele>
        <time>2024-04-17T13:27:10Z</time>
      </trkpt>
      <trkpt lat="49.96449" lon="2.11124">
        <ele>13.2</ele>
        <time>2024-04-17T13:27:11Z</time>
      </trkpt>
      <trkpt lat="49.96447" lon="2.11125">
        <ele>13.2</ele>
        <time>2024-04-17T13:27:12Z</time>
      </trkpt>
      <trkpt lat="49.96446" lon="2.11125">
        <ele>13.3</ele>
        <time>2024-04-17T13:27:13Z</time>
      </trkpt>
      <trkpt lat="49.96445" lon="2.11126">
        <ele>13.3</ele>
        <time>2024-04-17T13:27:14Z</time>
      </trkpt>
      <trkpt lat="49.96444" lon="2.11126">
        <ele>13.3</ele>
        <time>2024-04-17T13:27:15Z</time>
      </trkpt>
      <trkpt lat="49.96443" lon="2.11127">
        <ele>13.3</ele>
        <time>2024-04-17T13:27:16Z</time>
      </trkpt>
      <trkpt lat="49.96442" lon="2.11127">
        <ele>13.3</ele>
        <time>2024-04-17T13:27:17Z</time>
      </trkpt>
      <trkpt lat="49.96441" lon="2.11127">
        <ele>13.3</ele>
        <time>2024-04-17T13:27:18Z</time>
      </trkpt>
      <trkpt lat="49.9644" lon="2.11128">
        <ele>13.3</ele>
        <time>2024-04-17T13:27:19Z</time>
      </trkpt>
      <trkpt lat="49.96439" lon="2.11129">
        <ele>13.3</ele>
        <time>2024-04-17T13:27:20Z</time>
      </trkpt>
      <trkpt lat="49.96437" lon="2.11129">
        <ele>13.3</ele>
        <time>2024-04-17T13:27:21Z</time>
      </trkpt>
      <trkpt lat="49.96436" lon="2.1113">
        <ele>13.3</ele>
        <time>2024-04-17T13:27:22Z</time>
      </trkpt>
      <trkpt lat="49.96435" lon="2.11132">
        <ele>13.3</ele>
        <time>2024-04-17T13:27:23Z</time>
      </trkpt>
      <trkpt lat="49.96434" lon="2.11132">
        <ele>13.3</ele>
        <time>2024-04-17T13:27:24Z</time>
      </trkpt>
      <trkpt lat="49.96433" lon="2.11133">
        <ele>13.3</ele>
        <time>2024-04-17T13:27:25Z</time>
      </trkpt>
      <trkpt lat="49.96432" lon="2.11133">
        <ele>13.3</ele>
        <time>2024-04-17T13:27:26Z</time>
      </trkpt>
      <trkpt lat="49.96431" lon="2.11134">
        <ele>13.3</ele>
        <time>2024-04-17T13:27:27Z</time>
      </trkpt>
      <trkpt lat="49.9643" lon="2.11135">
        <ele>13.3</ele>
        <time>2024-04-17T13:27:28Z</time>
      </trkpt>
      <trkpt lat="49.96429" lon="2.11136">
        <ele>13.3</ele>
        <time>2024-04-17T13:27:29Z</time>
      </trkpt>
      <trkpt lat="49.96428" lon="2.11137">
        <ele>13.3</ele>
        <time>2024-04-17T13:27:30Z</time>
      </trkpt>
      <trkpt lat="49.96427" lon="2.11138">
        <ele>13.3</ele>
        <time>2024-04-17T13:27:31Z</time>
      </trkpt>
      <trkpt lat="49.96425" lon="2.11139">
        <ele>13.3</ele>
        <time>2024-04-17T13:27:32Z</time>
      </trkpt>
      <trkpt lat="49.96425" lon="2.1114">
        <ele>13.3</ele>
        <time>2024-04-17T13:27:33Z</time>
      </trkpt>
      <trkpt lat="49.96424" lon="2.11141">
        <ele>13.3</ele>
        <time>2024-04-17T13:27:34Z</time>
      </trkpt>
      <trkpt lat="49.96423" lon="2.11142">
        <ele>13.3</ele>
        <time>2024-04-17T13:27:35Z</time>
      </trkpt>
      <trkpt lat="49.96422" lon="2.11143">
        <ele>13.3</ele>
        <time>2024-04-17T13:27:36Z</time>
      </trkpt>
      <trkpt lat="49.96421" lon="2.11143">
        <ele>13.3</ele>
        <time>2024-04-17T13:27:37Z</time>
      </trkpt>
      <trkpt lat="49.9642" lon="2.11144">
        <ele>13.3</ele>
        <time>2024-04-17T13:27:38Z</time>
      </trkpt>
      <trkpt lat="49.9642" lon="2.11145">
        <ele>13.3</ele>
        <time>2024-04-17T13:27:39Z</time>
      </trkpt>
      <trkpt lat="49.96419" lon="2.11146">
        <ele>13.4</ele>
        <time>2024-04-17T13:27:40Z</time>
      </trkpt>
      <trkpt lat="49.96418" lon="2.11146">
        <ele>13.4</ele>
        <time>2024-04-17T13:27:41Z</time>
      </trkpt>
      <trkpt lat="49.96417" lon="2.11147">
        <ele>13.4</ele>
        <time>2024-04-17T13:27:42Z</time>
      </trkpt>
      <trkpt lat="49.96416" lon="2.11147">
        <ele>13.4</ele>
        <time>2024-04-17T13:27:43Z</time>
      </trkpt>
      <trkpt lat="49.96415" lon="2.11148">
        <ele>13.4</ele>
        <time>2024-04-17T13:27:44Z</time>
      </trkpt>
      <trkpt lat="49.96414" lon="2.11148">
        <ele>13.4</ele>
        <time>2024-04-17T13:27:45Z</time>
      </trkpt>
      <trkpt lat="49.96413" lon="2.11149">
        <ele>13.4</ele>
        <time>2024-04-17T13:27:46Z</time>
      </trkpt>
      <trkpt lat="49.96411" lon="2.1115">
        <ele>13.4</ele>
        <time>2024-04-17T13:27:47Z</time>
      </trkpt>
      <trkpt lat="49.9641" lon="2.1115">
        <ele>13.4</ele>
        <time>2024-04-17T13:27:48Z</time>
      </trkpt>
      <trkpt lat="49.96409" lon="2.1115">
        <ele>13.4</ele>
        <time>2024-04-17T13:27:49Z</time>
      </trkpt>
      <trkpt lat="49.96408" lon="2.1115">
        <ele>13.4</ele>
        <time>2024-04-17T13:27:50Z</time>
      </trkpt>
      <trkpt lat="49.96407" lon="2.11151">
        <ele>13.4</ele>
        <time>2024-04-17T13:27:51Z</time>
      </trkpt>
      <trkpt lat="49.96406" lon="2.11151">
        <ele>13.4</ele>
        <time>2024-04-17T13:27:52Z</time>
      </trkpt>
      <trkpt lat="49.96405" lon="2.11151">
        <ele>13.4</ele>
        <time>2024-04-17T13:27:53Z</time>
      </trkpt>
      <trkpt lat="49.96404" lon="2.11151">
        <ele>13.4</ele>
        <time>2024-04-17T13:27:54Z</time>
      </trkpt>
      <trkpt lat="49.96403" lon="2.11151">
        <ele>13.4</ele>
        <time>2024-04-17T13:27:55Z</time>
      </trkpt>
      <trkpt lat="49.96401" lon="2.11151">
        <ele>13.4</ele>
        <time>2024-04-17T13:27:56Z</time>
      </trkpt>
      <trkpt lat="49.964" lon="2.11151">
        <ele>13.4</ele>
        <time>2024-04-17T13:27:57Z</time>
      </trkpt>
      <trkpt lat="49.96399" lon="2.11151">
        <ele>13.4</ele>
        <time>2024-04-17T13:27:58Z</time>
      </trkpt>
      <trkpt lat="49.96397" lon="2.1115">
        <ele>13.4</ele>
        <time>2024-04-17T13:27:59Z</time>
      </trkpt>
      <trkpt lat="49.96396" lon="2.1115">
        <ele>13.4</ele>
        <time>2024-04-17T13:28:00Z</time>
      </trkpt>
      <trkpt lat="49.96395" lon="2.1115">
        <ele>13.4</ele>
        <time>2024-04-17T13:28:01Z</time>
      </trkpt>
      <trkpt lat="49.96393" lon="2.1115">
        <ele>13.3</ele>
        <time>2024-04-17T13:28:02Z</time>
      </trkpt>
      <trkpt lat="49.96392" lon="2.1115">
        <ele>13.3</ele>
        <time>2024-04-17T13:28:03Z</time>
      </trkpt>
      <trkpt lat="49.9639" lon="2.1115">
        <ele>13.3</ele>
        <time>2024-04-17T13:28:04Z</time>
      </trkpt>
      <trkpt lat="49.96389" lon="2.1115">
        <ele>13.3</ele>
        <time>2024-04-17T13:28:05Z</time>
      </trkpt>
      <trkpt lat="49.96388" lon="2.1115">
        <ele>13.3</ele>
        <time>2024-04-17T13:28:06Z</time>
      </trkpt>
      <trkpt lat="49.96387" lon="2.1115">
        <ele>13.3</ele>
        <time>2024-04-17T13:28:07Z</time>
      </trkpt>
      <trkpt lat="49.96386" lon="2.1115">
        <ele>13.3</ele>
        <time>2024-04-17T13:28:08Z</time>
      </trkpt>
      <trkpt lat="49.96385" lon="2.11149">
        <ele>13.3</ele>
        <time>2024-04-17T13:28:09Z</time>
      </trkpt>
      <trkpt lat="49.96384" lon="2.11149">
        <ele>13.3</ele>
        <time>2024-04-17T13:28:10Z</time>
      </trkpt>
      <trkpt lat="49.96383" lon="2.1115">
        <ele>13.3</ele>
        <time>2024-04-17T13:28:11Z</time>
      </trkpt>
      <trkpt lat="49.96382" lon="2.1115">
        <ele>13.3</ele>
        <time>2024-04-17T13:28:12Z</time>
      </trkpt>
      <trkpt lat="49.96381" lon="2.1115">
        <ele>13.3</ele>
        <time>2024-04-17T13:28:13Z</time>
      </trkpt>
      <trkpt lat="49.9638" lon="2.11151">
        <ele>13.3</ele>
        <time>2024-04-17T13:28:14Z</time>
      </trkpt>
      <trkpt lat="49.96379" lon="2.11151">
        <ele>13.3</ele>
        <time>2024-04-17T13:28:15Z</time>
      </trkpt>
      <trkpt lat="49.96378" lon="2.11152">
        <ele>13.3</ele>
        <time>2024-04-17T13:28:16Z</time>
      </trkpt>
      <trkpt lat="49.96377" lon="2.11152">
        <ele>13.3</ele>
        <time>2024-04-17T13:28:17Z</time>
      </trkpt>
      <trkpt lat="49.96376" lon="2.11153">
        <ele>13.3</ele>
        <time>2024-04-17T13:28:18Z</time>
      </trkpt>
      <trkpt lat="49.96375" lon="2.11154">
        <ele>13.3</ele>
        <time>2024-04-17T13:28:19Z</time>
      </trkpt>
      <trkpt lat="49.96374" lon="2.11155">
        <ele>13.3</ele>
        <time>2024-04-17T13:28:20Z</time>
      </trkpt>
      <trkpt lat="49.96374" lon="2.11156">
        <ele>13.3</ele>
        <time>2024-04-17T13:28:21Z</time>
      </trkpt>
      <trkpt lat="49.96374" lon="2.11158">
        <ele>13.3</ele>
        <time>2024-04-17T13:28:22Z</time>
      </trkpt>
      <trkpt lat="49.96374" lon="2.1116">
        <ele>13.3</ele>
        <time>2024-04-17T13:28:23Z</time>
      </trkpt>
      <trkpt lat="49.96374" lon="2.11161">
        <ele>13.3</ele>
        <time>2024-04-17T13:28:24Z</time>
      </trkpt>
      <trkpt lat="49.96375" lon="2.11162">
        <ele>13.3</ele>
        <time>2024-04-17T13:28:25Z</time>
      </trkpt>
      <trkpt lat="49.96375" lon="2.11164">
        <ele>13.2</ele>
        <time>2024-04-17T13:28:26Z</time>
      </trkpt>
      <trkpt lat="49.96376" lon="2.11165">
        <ele>13.2</ele>
        <time>2024-04-17T13:28:27Z</time>
      </trkpt>
      <trkpt lat="49.96376" lon="2.11166">
        <ele>13.2</ele>
        <time>2024-04-17T13:28:28Z</time>
      </trkpt>
      <trkpt lat="49.96377" lon="2.11168">
        <ele>13.2</ele>
        <time>2024-04-17T13:28:29Z</time>
      </trkpt>
      <trkpt lat="49.96377" lon="2.11169">
        <ele>13.1</ele>
        <time>2024-04-17T13:28:30Z</time>
      </trkpt>
      <trkpt lat="49.96378" lon="2.1117">
        <ele>13.1</ele>
        <time>2024-04-17T13:28:31Z</time>
      </trkpt>
      <trkpt lat="49.96378" lon="2.1117">
        <ele>13.1</ele>
        <time>2024-04-17T13:28:32Z</time>
      </trkpt>
      <trkpt lat="49.96379" lon="2.11171">
        <ele>13.1</ele>
        <time>2024-04-17T13:28:33Z</time>
      </trkpt>
      <trkpt lat="49.9638" lon="2.11172">
        <ele>13.1</ele>
        <time>2024-04-17T13:28:34Z</time>
      </trkpt>
      <trkpt lat="49.9638" lon="2.11173">
        <ele>13.1</ele>
        <time>2024-04-17T13:28:35Z</time>
      </trkpt>
      <trkpt lat="49.96381" lon="2.11175">
        <ele>13</ele>
        <time>2024-04-17T13:28:36Z</time>
      </trkpt>
      <trkpt lat="49.96381" lon="2.11176">
        <ele>13</ele>
        <time>2024-04-17T13:28:37Z</time>
      </trkpt>
      <trkpt lat="49.96382" lon="2.11177">
        <ele>13</ele>
        <time>2024-04-17T13:28:38Z</time>
      </trkpt>
      <trkpt lat="49.96383" lon="2.11178">
        <ele>13</ele>
        <time>2024-04-17T13:28:39Z</time>
      </trkpt>
      <trkpt lat="49.96383" lon="2.11179">
        <ele>13</ele>
        <time>2024-04-17T13:28:40Z</time>
      </trkpt>
      <trkpt lat="49.96384" lon="2.1118">
        <ele>12.9</ele>
        <time>2024-04-17T13:28:41Z</time>
      </trkpt>
      <trkpt lat="49.96385" lon="2.11182">
        <ele>12.9</ele>
        <time>2024-04-17T13:28:42Z</time>
      </trkpt>
      <trkpt lat="49.96386" lon="2.11183">
        <ele>12.9</ele>
        <time>2024-04-17T13:28:43Z</time>
      </trkpt>
      <trkpt lat="49.96386" lon="2.11185">
        <ele>12.9</ele>
        <time>2024-04-17T13:28:44Z</time>
      </trkpt>
      <trkpt lat="49.96387" lon="2.11186">
        <ele>12.8</ele>
        <time>2024-04-17T13:28:45Z</time>
      </trkpt>
      <trkpt lat="49.96388" lon="2.11187">
        <ele>12.8</ele>
        <time>2024-04-17T13:28:46Z</time>
      </trkpt>
      <trkpt lat="49.96388" lon="2.11188">
        <ele>12.8</ele>
        <time>2024-04-17T13:28:47Z</time>
      </trkpt>
      <trkpt lat="49.96389" lon="2.1119">
        <ele>12.8</ele>
        <time>2024-04-17T13:28:48Z</time>
      </trkpt>
      <trkpt lat="49.9639" lon="2.11191">
        <ele>12.8</ele>
        <time>2024-04-17T13:28:49Z</time>
      </trkpt>
      <trkpt lat="49.9639" lon="2.11192">
        <ele>12.7</ele>
        <time>2024-04-17T13:28:50Z</time>
      </trkpt>
      <trkpt lat="49.96391" lon="2.11193">
        <ele>12.7</ele>
        <time>2024-04-17T13:28:51Z</time>
      </trkpt>
      <trkpt lat="49.96392" lon="2.11194">
        <ele>12.7</ele>
        <time>2024-04-17T13:28:52Z</time>
      </trkpt>
      <trkpt lat="49.96392" lon="2.11196">
        <ele>12.7</ele>
        <time>2024-04-17T13:28:53Z</time>
      </trkpt>
      <trkpt lat="49.96393" lon="2.11197">
        <ele>12.7</ele>
        <time>2024-04-17T13:28:54Z</time>
      </trkpt>
      <trkpt lat="49.96394" lon="2.11198">
        <ele>12.6</ele>
        <time>2024-04-17T13:28:55Z</time>
      </trkpt>
      <trkpt lat="49.96394" lon="2.11199">
        <ele>12.6</ele>
        <time>2024-04-17T13:28:56Z</time>
      </trkpt>
      <trkpt lat="49.96395" lon="2.112">
        <ele>12.6</ele>
        <time>2024-04-17T13:28:57Z</time>
      </trkpt>
      <trkpt lat="49.96396" lon="2.11201">
        <ele>12.6</ele>
        <time>2024-04-17T13:28:58Z</time>
      </trkpt>
      <trkpt lat="49.96396" lon="2.11202">
        <ele>12.6</ele>
        <time>2024-04-17T13:28:59Z</time>
      </trkpt>
      <trkpt lat="49.96396" lon="2.11203">
        <ele>12.6</ele>
        <time>2024-04-17T13:29:00Z</time>
      </trkpt>
      <trkpt lat="49.96397" lon="2.11204">
        <ele>12.5</ele>
        <time>2024-04-17T13:29:01Z</time>
      </trkpt>
      <trkpt lat="49.96397" lon="2.11205">
        <ele>12.5</ele>
        <time>2024-04-17T13:29:02Z</time>
      </trkpt>
      <trkpt lat="49.96397" lon="2.11206">
        <ele>12.5</ele>
        <time>2024-04-17T13:29:03Z</time>
      </trkpt>
      <trkpt lat="49.96398" lon="2.11207">
        <ele>12.5</ele>
        <time>2024-04-17T13:29:04Z</time>
      </trkpt>
      <trkpt lat="49.96398" lon="2.11207">
        <ele>12.5</ele>
        <time>2024-04-17T13:29:05Z</time>
      </trkpt>
      <trkpt lat="49.96399" lon="2.11208">
        <ele>12.5</ele>
        <time>2024-04-17T13:29:06Z</time>
      </trkpt>
      <trkpt lat="49.96399" lon="2.11208">
        <ele>12.5</ele>
        <time>2024-04-17T13:29:07Z</time>
      </trkpt>
      <trkpt lat="49.96399" lon="2.11209">
        <ele>12.5</ele>
        <time>2024-04-17T13:29:08Z</time>
      </trkpt>
      <trkpt lat="49.96399" lon="2.1121">
        <ele>12.4</ele>
        <time>2024-04-17T13:29:09Z</time>
      </trkpt>
      <trkpt lat="49.96399" lon="2.11211">
        <ele>12.4</ele>
        <time>2024-04-17T13:29:10Z</time>
      </trkpt>
      <trkpt lat="49.96399" lon="2.11212">
        <ele>12.4</ele>
        <time>2024-04-17T13:29:11Z</time>
      </trkpt>
      <trkpt lat="49.96399" lon="2.11213">
        <ele>12.4</ele>
        <time>2024-04-17T13:29:12Z</time>
      </trkpt>
      <trkpt lat="49.964" lon="2.11214">
        <ele>12.4</ele>
        <time>2024-04-17T13:29:13Z</time>
      </trkpt>
      <trkpt lat="49.964" lon="2.11214">
        <ele>12.4</ele>
        <time>2024-04-17T13:29:14Z</time>
      </trkpt>
      <trkpt lat="49.96401" lon="2.11215">
        <ele>12.4</ele>
        <time>2024-04-17T13:29:15Z</time>
      </trkpt>
      <trkpt lat="49.96401" lon="2.11216">
        <ele>12.4</ele>
        <time>2024-04-17T13:29:16Z</time>
      </trkpt>
      <trkpt lat="49.96401" lon="2.11216">
        <ele>12.3</ele>
        <time>2024-04-17T13:29:17Z</time>
      </trkpt>
      <trkpt lat="49.96401" lon="2.11217">
        <ele>12.3</ele>
        <time>2024-04-17T13:29:18Z</time>
      </trkpt>
      <trkpt lat="49.96402" lon="2.11218">
        <ele>12.3</ele>
        <time>2024-04-17T13:29:19Z</time>
      </trkpt>
      <trkpt lat="49.96402" lon="2.11219">
        <ele>12.3</ele>
        <time>2024-04-17T13:29:20Z</time>
      </trkpt>
      <trkpt lat="49.96402" lon="2.1122">
        <ele>12.3</ele>
        <time>2024-04-17T13:29:21Z</time>
      </trkpt>
      <trkpt lat="49.96403" lon="2.1122">
        <ele>12.3</ele>
        <time>2024-04-17T13:29:22Z</time>
      </trkpt>
      <trkpt lat="49.96403" lon="2.11221">
        <ele>12.3</ele>
        <time>2024-04-17T13:29:23Z</time>
      </trkpt>
      <trkpt lat="49.96403" lon="2.11221">
        <ele>12.3</ele>
        <time>2024-04-17T13:29:24Z</time>
      </trkpt>
      <trkpt lat="49.96404" lon="2.11222">
        <ele>12.3</ele>
        <time>2024-04-17T13:29:25Z</time>
      </trkpt>
      <trkpt lat="49.96404" lon="2.11222">
        <ele>12.3</ele>
        <time>2024-04-17T13:29:26Z</time>
      </trkpt>
      <trkpt lat="49.96405" lon="2.11223">
        <ele>12.2</ele>
        <time>2024-04-17T13:29:27Z</time>
      </trkpt>
      <trkpt lat="49.96405" lon="2.11223">
        <ele>12.2</ele>
        <time>2024-04-17T13:29:28Z</time>
      </trkpt>
      <trkpt lat="49.96405" lon="2.11224">
        <ele>12.2</ele>
        <time>2024-04-17T13:29:29Z</time>
      </trkpt>
      <trkpt lat="49.96406" lon="2.11224">
        <ele>12.2</ele>
        <time>2024-04-17T13:29:30Z</time>
      </trkpt>
      <trkpt lat="49.96406" lon="2.11225">
        <ele>12.2</ele>
        <time>2024-04-17T13:29:31Z</time>
      </trkpt>
      <trkpt lat="49.96407" lon="2.11225">
        <ele>12.2</ele>
        <time>2024-04-17T13:29:32Z</time>
      </trkpt>
      <trkpt lat="49.96408" lon="2.11226">
        <ele>12.2</ele>
        <time>2024-04-17T13:29:33Z</time>
      </trkpt>
      <trkpt lat="49.96409" lon="2.11227">
        <ele>12.2</ele>
        <time>2024-04-17T13:29:34Z</time>
      </trkpt>
      <trkpt lat="49.9641" lon="2.11228">
        <ele>12.1</ele>
        <time>2024-04-17T13:29:35Z</time>
      </trkpt>
      <trkpt lat="49.9641" lon="2.11228">
        <ele>12.1</ele>
        <time>2024-04-17T13:29:36Z</time>
      </trkpt>
      <trkpt lat="49.96411" lon="2.11229">
        <ele>12.1</ele>
        <time>2024-04-17T13:29:37Z</time>
      </trkpt>
      <trkpt lat="49.96412" lon="2.1123">
        <ele>12.1</ele>
        <time>2024-04-17T13:29:38Z</time>
      </trkpt>
      <trkpt lat="49.96413" lon="2.11231">
        <ele>12.1</ele>
        <time>2024-04-17T13:29:39Z</time>
      </trkpt>
      <trkpt lat="49.96415" lon="2.11232">
        <ele>12.1</ele>
        <time>2024-04-17T13:29:40Z</time>
      </trkpt>
      <trkpt lat="49.96416" lon="2.11234">
        <ele>12.1</ele>
        <time>2024-04-17T13:29:41Z</time>
      </trkpt>
      <trkpt lat="49.96416" lon="2.11235">
        <ele>12</ele>
        <time>2024-04-17T13:29:42Z</time>
      </trkpt>
      <trkpt lat="49.96417" lon="2.11236">
        <ele>12</ele>
        <time>2024-04-17T13:29:43Z</time>
      </trkpt>
      <trkpt lat="49.96417" lon="2.11236">
        <ele>12</ele>
        <time>2024-04-17T13:29:44Z</time>
      </trkpt>
      <trkpt lat="49.96418" lon="2.11237">
        <ele>12</ele>
        <time>2024-04-17T13:29:45Z</time>
      </trkpt>
      <trkpt lat="49.96419" lon="2.11239">
        <ele>12</ele>
        <time>2024-04-17T13:29:46Z</time>
      </trkpt>
      <trkpt lat="49.96419" lon="2.1124">
        <ele>12</ele>
        <time>2024-04-17T13:29:47Z</time>
      </trkpt>
      <trkpt lat="49.9642" lon="2.11241">
        <ele>12</ele>
        <time>2024-04-17T13:29:48Z</time>
      </trkpt>
      <trkpt lat="49.96421" lon="2.11242">
        <ele>12</ele>
        <time>2024-04-17T13:29:49Z</time>
      </trkpt>
      <trkpt lat="49.96422" lon="2.11243">
        <ele>12</ele>
        <time>2024-04-17T13:29:50Z</time>
      </trkpt>
      <trkpt lat="49.96422" lon="2.11245">
        <ele>12</ele>
        <time>2024-04-17T13:29:51Z</time>
      </trkpt>
      <trkpt lat="49.96423" lon="2.11247">
        <ele>11.9</ele>
        <time>2024-04-17T13:29:52Z</time>
      </trkpt>
      <trkpt lat="49.96423" lon="2.11248">
        <ele>11.9</ele>
        <time>2024-04-17T13:29:53Z</time>
      </trkpt>
      <trkpt lat="49.96423" lon="2.11249">
        <ele>11.9</ele>
        <time>2024-04-17T13:29:54Z</time>
      </trkpt>
      <trkpt lat="49.96423" lon="2.1125">
        <ele>11.9</ele>
        <time>2024-04-17T13:29:55Z</time>
      </trkpt>
      <trkpt lat="49.96424" lon="2.1125">
        <ele>11.9</ele>
        <time>2024-04-17T13:29:56Z</time>
      </trkpt>
      <trkpt lat="49.96424" lon="2.11251">
        <ele>11.9</ele>
        <time>2024-04-17T13:29:57Z</time>
      </trkpt>
      <trkpt lat="49.96425" lon="2.11252">
        <ele>11.9</ele>
        <time>2024-04-17T13:29:58Z</time>
      </trkpt>
      <trkpt lat="49.96425" lon="2.11253">
        <ele>11.9</ele>
        <time>2024-04-17T13:29:59Z</time>
      </trkpt>
      <trkpt lat="49.96425" lon="2.11254">
        <ele>11.9</ele>
        <time>2024-04-17T13:30:00Z</time>
      </trkpt>
      <trkpt lat="49.96425" lon="2.11256">
        <ele>11.9</ele>
        <time>2024-04-17T13:30:01Z</time>
      </trkpt>
      <trkpt lat="49.96425" lon="2.11257">
        <ele>11.9</ele>
        <time>2024-04-17T13:30:02Z</time>
      </trkpt>
      <trkpt lat="49.96424" lon="2.11258">
        <ele>11.8</ele>
        <time>2024-04-17T13:30:03Z</time>
      </trkpt>
      <trkpt lat="49.96423" lon="2.11259">
        <ele>11.8</ele>
        <time>2024-04-17T13:30:04Z</time>
      </trkpt>
      <trkpt lat="49.96422" lon="2.1126">
        <ele>11.8</ele>
        <time>2024-04-17T13:30:05Z</time>
      </trkpt>
      <trkpt lat="49.9642" lon="2.1126">
        <ele>11.8</ele>
        <time>2024-04-17T13:30:06Z</time>
      </trkpt>
      <trkpt lat="49.96419" lon="2.11261">
        <ele>11.8</ele>
        <time>2024-04-17T13:30:07Z</time>
      </trkpt>
      <trkpt lat="49.96418" lon="2.11261">
        <ele>11.8</ele>
        <time>2024-04-17T13:30:08Z</time>
      </trkpt>
      <trkpt lat="49.96417" lon="2.11262">
        <ele>11.8</ele>
        <time>2024-04-17T13:30:09Z</time>
      </trkpt>
      <trkpt lat="49.96416" lon="2.11263">
        <ele>11.8</ele>
        <time>2024-04-17T13:30:10Z</time>
      </trkpt>
      <trkpt lat="49.96415" lon="2.11263">
        <ele>11.7</ele>
        <time>2024-04-17T13:30:11Z</time>
      </trkpt>
      <trkpt lat="49.96415" lon="2.11264">
        <ele>11.7</ele>
        <time>2024-04-17T13:30:12Z</time>
      </trkpt>
      <trkpt lat="49.96414" lon="2.11266">
        <ele>11.7</ele>
        <time>2024-04-17T13:30:13Z</time>
      </trkpt>
      <trkpt lat="49.96413" lon="2.11267">
        <ele>11.7</ele>
        <time>2024-04-17T13:30:14Z</time>
      </trkpt>
      <trkpt lat="49.96413" lon="2.11268">
        <ele>11.7</ele>
        <time>2024-04-17T13:30:15Z</time>
      </trkpt>
      <trkpt lat="49.96412" lon="2.1127">
        <ele>11.7</ele>
        <time>2024-04-17T13:30:16Z</time>
      </trkpt>
      <trkpt lat="49.96412" lon="2.11271">
        <ele>11.7</ele>
        <time>2024-04-17T13:30:17Z</time>
      </trkpt>
      <trkpt lat="49.96411" lon="2.11273">
        <ele>11.7</ele>
        <time>2024-04-17T13:30:18Z</time>
      </trkpt>
      <trkpt lat="49.96411" lon="2.11274">
        <ele>11.7</ele>
        <time>2024-04-17T13:30:19Z</time>
      </trkpt>
      <trkpt lat="49.96411" lon="2.11275">
        <ele>11.7</ele>
        <time>2024-04-17T13:30:20Z</time>
      </trkpt>
      <trkpt lat="49.9641" lon="2.11276">
        <ele>11.7</ele>
        <time>2024-04-17T13:30:21Z</time>
      </trkpt>
      <trkpt lat="49.9641" lon="2.11277">
        <ele>11.7</ele>
        <time>2024-04-17T13:30:22Z</time>
      </trkpt>
      <trkpt lat="49.9641" lon="2.11278">
        <ele>11.7</ele>
        <time>2024-04-17T13:30:23Z</time>
      </trkpt>
      <trkpt lat="49.96409" lon="2.11279">
        <ele>11.7</ele>
        <time>2024-04-17T13:30:24Z</time>
      </trkpt>
      <trkpt lat="49.96409" lon="2.1128">
        <ele>11.7</ele>
        <time>2024-04-17T13:30:25Z</time>
      </trkpt>
      <trkpt lat="49.96409" lon="2.11282">
        <ele>11.6</ele>
        <time>2024-04-17T13:30:26Z</time>
      </trkpt>
      <trkpt lat="49.96408" lon="2.11283">
        <ele>11.6</ele>
        <time>2024-04-17T13:30:27Z</time>
      </trkpt>
      <trkpt lat="49.96408" lon="2.11284">
        <ele>11.6</ele>
        <time>2024-04-17T13:30:28Z</time>
      </trkpt>
      <trkpt lat="49.96407" lon="2.11284">
        <ele>11.6</ele>
        <time>2024-04-17T13:30:29Z</time>
      </trkpt>
      <trkpt lat="49.96407" lon="2.11285">
        <ele>11.6</ele>
        <time>2024-04-17T13:30:30Z</time>
      </trkpt>
      <trkpt lat="49.96407" lon="2.11286">
        <ele>11.6</ele>
        <time>2024-04-17T13:30:31Z</time>
      </trkpt>
      <trkpt lat="49.96407" lon="2.11287">
        <ele>11.6</ele>
        <time>2024-04-17T13:30:32Z</time>
      </trkpt>
      <trkpt lat="49.96407" lon="2.11288">
        <ele>11.6</ele>
        <time>2024-04-17T13:30:33Z</time>
      </trkpt>
      <trkpt lat="49.96407" lon="2.1129">
        <ele>11.6</ele>
        <time>2024-04-17T13:30:34Z</time>
      </trkpt>
      <trkpt lat="49.96406" lon="2.11291">
        <ele>11.6</ele>
        <time>2024-04-17T13:30:35Z</time>
      </trkpt>
      <trkpt lat="49.96406" lon="2.11292">
        <ele>11.6</ele>
        <time>2024-04-17T13:30:36Z</time>
      </trkpt>
      <trkpt lat="49.96405" lon="2.11295">
        <ele>11.6</ele>
        <time>2024-04-17T13:30:37Z</time>
      </trkpt>
      <trkpt lat="49.96405" lon="2.11296">
        <ele>11.6</ele>
        <time>2024-04-17T13:30:38Z</time>
      </trkpt>
      <trkpt lat="49.96405" lon="2.11298">
        <ele>11.6</ele>
        <time>2024-04-17T13:30:39Z</time>
      </trkpt>
      <trkpt lat="49.96403" lon="2.113">
        <ele>11.6</ele>
        <time>2024-04-17T13:30:40Z</time>
      </trkpt>
      <trkpt lat="49.96402" lon="2.113">
        <ele>11.6</ele>
        <time>2024-04-17T13:30:41Z</time>
      </trkpt>
      <trkpt lat="49.96401" lon="2.11299">
        <ele>11.6</ele>
        <time>2024-04-17T13:30:42Z</time>
      </trkpt>
      <trkpt lat="49.96399" lon="2.113">
        <ele>11.6</ele>
        <time>2024-04-17T13:30:43Z</time>
      </trkpt>
      <trkpt lat="49.96398" lon="2.113">
        <ele>11.6</ele>
        <time>2024-04-17T13:30:44Z</time>
      </trkpt>
      <trkpt lat="49.96397" lon="2.113">
        <ele>11.6</ele>
        <time>2024-04-17T13:30:45Z</time>
      </trkpt>
      <trkpt lat="49.96397" lon="2.11301">
        <ele>11.6</ele>
        <time>2024-04-17T13:30:46Z</time>
      </trkpt>
      <trkpt lat="49.96397" lon="2.11302">
        <ele>11.7</ele>
        <time>2024-04-17T13:30:47Z</time>
      </trkpt>
      <trkpt lat="49.96397" lon="2.11303">
        <ele>11.7</ele>
        <time>2024-04-17T13:30:48Z</time>
      </trkpt>
      <trkpt lat="49.96396" lon="2.11304">
        <ele>11.7</ele>
        <time>2024-04-17T13:30:49Z</time>
      </trkpt>
      <trkpt lat="49.96396" lon="2.11304">
        <ele>11.7</ele>
        <time>2024-04-17T13:30:50Z</time>
      </trkpt>
      <trkpt lat="49.96396" lon="2.11306">
        <ele>11.7</ele>
        <time>2024-04-17T13:30:51Z</time>
      </trkpt>
      <trkpt lat="49.96395" lon="2.11307">
        <ele>11.7</ele>
        <time>2024-04-17T13:30:52Z</time>
      </trkpt>
      <trkpt lat="49.96395" lon="2.11307">
        <ele>11.7</ele>
        <time>2024-04-17T13:30:53Z</time>
      </trkpt>
      <trkpt lat="49.96395" lon="2.11307">
        <ele>11.7</ele>
        <time>2024-04-17T13:30:54Z</time>
      </trkpt>
      <trkpt lat="49.96395" lon="2.11308">
        <ele>11.7</ele>
        <time>2024-04-17T13:30:55Z</time>
      </trkpt>
      <trkpt lat="49.96394" lon="2.1131">
        <ele>11.7</ele>
        <time>2024-04-17T13:30:56Z</time>
      </trkpt>
      <trkpt lat="49.96394" lon="2.11311">
        <ele>11.7</ele>
        <time>2024-04-17T13:30:57Z</time>
      </trkpt>
      <trkpt lat="49.96394" lon="2.11312">
        <ele>11.7</ele>
        <time>2024-04-17T13:30:58Z</time>
      </trkpt>
      <trkpt lat="49.96394" lon="2.11313">
        <ele>11.7</ele>
        <time>2024-04-17T13:30:59Z</time>
      </trkpt>
      <trkpt lat="49.96393" lon="2.11315">
        <ele>11.7</ele>
        <time>2024-04-17T13:31:00Z</time>
      </trkpt>
      <trkpt lat="49.96393" lon="2.11316">
        <ele>11.7</ele>
        <time>2024-04-17T13:31:01Z</time>
      </trkpt>
      <trkpt lat="49.96393" lon="2.11317">
        <ele>11.7</ele>
        <time>2024-04-17T13:31:02Z</time>
      </trkpt>
      <trkpt lat="49.96393" lon="2.11317">
        <ele>11.7</ele>
        <time>2024-04-17T13:31:03Z</time>
      </trkpt>
      <trkpt lat="49.96393" lon="2.11318">
        <ele>11.7</ele>
        <time>2024-04-17T13:31:04Z</time>
      </trkpt>
      <trkpt lat="49.96392" lon="2.11319">
        <ele>11.7</ele>
        <time>2024-04-17T13:31:05Z</time>
      </trkpt>
      <trkpt lat="49.96391" lon="2.11319">
        <ele>11.7</ele>
        <time>2024-04-17T13:31:06Z</time>
      </trkpt>
      <trkpt lat="49.96391" lon="2.11319">
        <ele>11.7</ele>
        <time>2024-04-17T13:31:07Z</time>
      </trkpt>
      <trkpt lat="49.9639" lon="2.11319">
        <ele>11.7</ele>
        <time>2024-04-17T13:31:08Z</time>
      </trkpt>
      <trkpt lat="49.96389" lon="2.11319">
        <ele>11.7</ele>
        <time>2024-04-17T13:31:09Z</time>
      </trkpt>
      <trkpt lat="49.96389" lon="2.1132">
        <ele>11.7</ele>
        <time>2024-04-17T13:31:10Z</time>
      </trkpt>
      <trkpt lat="49.96388" lon="2.11321">
        <ele>11.7</ele>
        <time>2024-04-17T13:31:11Z</time>
      </trkpt>
      <trkpt lat="49.96387" lon="2.11322">
        <ele>11.7</ele>
        <time>2024-04-17T13:31:12Z</time>
      </trkpt>
      <trkpt lat="49.96387" lon="2.11323">
        <ele>11.7</ele>
        <time>2024-04-17T13:31:13Z</time>
      </trkpt>
      <trkpt lat="49.96387" lon="2.11324">
        <ele>11.7</ele>
        <time>2024-04-17T13:31:14Z</time>
      </trkpt>
      <trkpt lat="49.96387" lon="2.11325">
        <ele>11.7</ele>
        <time>2024-04-17T13:31:15Z</time>
      </trkpt>
      <trkpt lat="49.96386" lon="2.11326">
        <ele>11.7</ele>
        <time>2024-04-17T13:31:16Z</time>
      </trkpt>
      <trkpt lat="49.96386" lon="2.11328">
        <ele>11.7</ele>
        <time>2024-04-17T13:31:17Z</time>
      </trkpt>
      <trkpt lat="49.96385" lon="2.11329">
        <ele>11.7</ele>
        <time>2024-04-17T13:31:18Z</time>
      </trkpt>
      <trkpt lat="49.96385" lon="2.1133">
        <ele>11.7</ele>
        <time>2024-04-17T13:31:19Z</time>
      </trkpt>
      <trkpt lat="49.96385" lon="2.11331">
        <ele>11.7</ele>
        <time>2024-04-17T13:31:20Z</time>
      </trkpt>
      <trkpt lat="49.96384" lon="2.11332">
        <ele>11.7</ele>
        <time>2024-04-17T13:31:21Z</time>
      </trkpt>
      <trkpt lat="49.96383" lon="2.11333">
        <ele>11.7</ele>
        <time>2024-04-17T13:31:22Z</time>
      </trkpt>
      <trkpt lat="49.96383" lon="2.11335">
        <ele>11.7</ele>
        <time>2024-04-17T13:31:23Z</time>
      </trkpt>
      <trkpt lat="49.96382" lon="2.11336">
        <ele>11.7</ele>
        <time>2024-04-17T13:31:24Z</time>
      </trkpt>
      <trkpt lat="49.96382" lon="2.11337">
        <ele>11.7</ele>
        <time>2024-04-17T13:31:25Z</time>
      </trkpt>
      <trkpt lat="49.96381" lon="2.11338">
        <ele>11.7</ele>
        <time>2024-04-17T13:31:26Z</time>
      </trkpt>
      <trkpt lat="49.96381" lon="2.11339">
        <ele>11.7</ele>
        <time>2024-04-17T13:31:27Z</time>
      </trkpt>
      <trkpt lat="49.9638" lon="2.11341">
        <ele>11.7</ele>
        <time>2024-04-17T13:31:28Z</time>
      </trkpt>
      <trkpt lat="49.9638" lon="2.11342">
        <ele>11.7</ele>
        <time>2024-04-17T13:31:29Z</time>
      </trkpt>
      <trkpt lat="49.96379" lon="2.11343">
        <ele>11.7</ele>
        <time>2024-04-17T13:31:30Z</time>
      </trkpt>
      <trkpt lat="49.96379" lon="2.11345">
        <ele>11.7</ele>
        <time>2024-04-17T13:31:31Z</time>
      </trkpt>
      <trkpt lat="49.96378" lon="2.11346">
        <ele>11.7</ele>
        <time>2024-04-17T13:31:32Z</time>
      </trkpt>
      <trkpt lat="49.96377" lon="2.11346">
        <ele>11.7</ele>
        <time>2024-04-17T13:31:33Z</time>
      </trkpt>
      <trkpt lat="49.96375" lon="2.11347">
        <ele>11.7</ele>
        <time>2024-04-17T13:31:34Z</time>
      </trkpt>
      <trkpt lat="49.96374" lon="2.11348">
        <ele>11.7</ele>
        <time>2024-04-17T13:31:35Z</time>
      </trkpt>
      <trkpt lat="49.96373" lon="2.1135">
        <ele>11.7</ele>
        <time>2024-04-17T13:31:36Z</time>
      </trkpt>
      <trkpt lat="49.96372" lon="2.11352">
        <ele>11.7</ele>
        <time>2024-04-17T13:31:37Z</time>
      </trkpt>
      <trkpt lat="49.96372" lon="2.11353">
        <ele>11.7</ele>
        <time>2024-04-17T13:31:38Z</time>
      </trkpt>
      <trkpt lat="49.96371" lon="2.11354">
        <ele>11.7</ele>
        <time>2024-04-17T13:31:39Z</time>
      </trkpt>
      <trkpt lat="49.96371" lon="2.11355">
        <ele>11.7</ele>
        <time>2024-04-17T13:31:40Z</time>
      </trkpt>
      <trkpt lat="49.9637" lon="2.11356">
        <ele>11.7</ele>
        <time>2024-04-17T13:31:41Z</time>
      </trkpt>
      <trkpt lat="49.9637" lon="2.11357">
        <ele>11.7</ele>
        <time>2024-04-17T13:31:42Z</time>
      </trkpt>
      <trkpt lat="49.96369" lon="2.11358">
        <ele>11.7</ele>
        <time>2024-04-17T13:31:43Z</time>
      </trkpt>
      <trkpt lat="49.96369" lon="2.11359">
        <ele>11.7</ele>
        <time>2024-04-17T13:31:44Z</time>
      </trkpt>
      <trkpt lat="49.96368" lon="2.1136">
        <ele>11.7</ele>
        <time>2024-04-17T13:31:45Z</time>
      </trkpt>
      <trkpt lat="49.96367" lon="2.11361">
        <ele>11.7</ele>
        <time>2024-04-17T13:31:46Z</time>
      </trkpt>
      <trkpt lat="49.96367" lon="2.11362">
        <ele>11.7</ele>
        <time>2024-04-17T13:31:47Z</time>
      </trkpt>
      <trkpt lat="49.96367" lon="2.11363">
        <ele>11.7</ele>
        <time>2024-04-17T13:31:48Z</time>
      </trkpt>
      <trkpt lat="49.96366" lon="2.11364">
        <ele>11.7</ele>
        <time>2024-04-17T13:31:49Z</time>
      </trkpt>
      <trkpt lat="49.96366" lon="2.11365">
        <ele>11.7</ele>
        <time>2024-04-17T13:31:50Z</time>
      </trkpt>
      <trkpt lat="49.96365" lon="2.11366">
        <ele>11.7</ele>
        <time>2024-04-17T13:31:51Z</time>
      </trkpt>
      <trkpt lat="49.96364" lon="2.11367">
        <ele>11.7</ele>
        <time>2024-04-17T13:31:52Z</time>
      </trkpt>
      <trkpt lat="49.96364" lon="2.11368">
        <ele>11.7</ele>
        <time>2024-04-17T13:31:53Z</time>
      </trkpt>
      <trkpt lat="49.96363" lon="2.11368">
        <ele>11.7</ele>
        <time>2024-04-17T13:31:54Z</time>
      </trkpt>
      <trkpt lat="49.96363" lon="2.11369">
        <ele>11.7</ele>
        <time>2024-04-17T13:31:55Z</time>
      </trkpt>
      <trkpt lat="49.96362" lon="2.1137">
        <ele>11.7</ele>
        <time>2024-04-17T13:31:56Z</time>
      </trkpt>
      <trkpt lat="49.96362" lon="2.11371">
        <ele>11.7</ele>
        <time>2024-04-17T13:31:57Z</time>
      </trkpt>
      <trkpt lat="49.96361" lon="2.11372">
        <ele>11.7</ele>
        <time>2024-04-17T13:31:58Z</time>
      </trkpt>
      <trkpt lat="49.9636" lon="2.11373">
        <ele>11.7</ele>
        <time>2024-04-17T13:31:59Z</time>
      </trkpt>
      <trkpt lat="49.9636" lon="2.11374">
        <ele>11.7</ele>
        <time>2024-04-17T13:32:00Z</time>
      </trkpt>
      <trkpt lat="49.96359" lon="2.11376">
        <ele>11.7</ele>
        <time>2024-04-17T13:32:01Z</time>
      </trkpt>
      <trkpt lat="49.96359" lon="2.11377">
        <ele>11.7</ele>
        <time>2024-04-17T13:32:02Z</time>
      </trkpt>
      <trkpt lat="49.96358" lon="2.11378">
        <ele>11.7</ele>
        <time>2024-04-17T13:32:03Z</time>
      </trkpt>
      <trkpt lat="49.96357" lon="2.11379">
        <ele>11.7</ele>
        <time>2024-04-17T13:32:04Z</time>
      </trkpt>
      <trkpt lat="49.96357" lon="2.1138">
        <ele>11.8</ele>
        <time>2024-04-17T13:32:05Z</time>
      </trkpt>
      <trkpt lat="49.96356" lon="2.11382">
        <ele>11.8</ele>
        <time>2024-04-17T13:32:06Z</time>
      </trkpt>
      <trkpt lat="49.96356" lon="2.11383">
        <ele>11.8</ele>
        <time>2024-04-17T13:32:07Z</time>
      </trkpt>
      <trkpt lat="49.96355" lon="2.11384">
        <ele>11.8</ele>
        <time>2024-04-17T13:32:08Z</time>
      </trkpt>
      <trkpt lat="49.96354" lon="2.11385">
        <ele>11.8</ele>
        <time>2024-04-17T13:32:09Z</time>
      </trkpt>
      <trkpt lat="49.96354" lon="2.11387">
        <ele>11.8</ele>
        <time>2024-04-17T13:32:10Z</time>
      </trkpt>
      <trkpt lat="49.96353" lon="2.11388">
        <ele>11.8</ele>
        <time>2024-04-17T13:32:11Z</time>
      </trkpt>
      <trkpt lat="49.96353" lon="2.11389">
        <ele>11.8</ele>
        <time>2024-04-17T13:32:12Z</time>
      </trkpt>
      <trkpt lat="49.96352" lon="2.11391">
        <ele>11.8</ele>
        <time>2024-04-17T13:32:13Z</time>
      </trkpt>
      <trkpt lat="49.96352" lon="2.11392">
        <ele>11.8</ele>
        <time>2024-04-17T13:32:14Z</time>
      </trkpt>
      <trkpt lat="49.96351" lon="2.11393">
        <ele>11.8</ele>
        <time>2024-04-17T13:32:15Z</time>
      </trkpt>
      <trkpt lat="49.96351" lon="2.11394">
        <ele>11.8</ele>
        <time>2024-04-17T13:32:16Z</time>
      </trkpt>
      <trkpt lat="49.9635" lon="2.11395">
        <ele>11.8</ele>
        <time>2024-04-17T13:32:17Z</time>
      </trkpt>
      <trkpt lat="49.9635" lon="2.11397">
        <ele>11.8</ele>
        <time>2024-04-17T13:32:18Z</time>
      </trkpt>
      <trkpt lat="49.96349" lon="2.11398">
        <ele>11.8</ele>
        <time>2024-04-17T13:32:19Z</time>
      </trkpt>
      <trkpt lat="49.96349" lon="2.11399">
        <ele>11.8</ele>
        <time>2024-04-17T13:32:20Z</time>
      </trkpt>
      <trkpt lat="49.96348" lon="2.11401">
        <ele>11.8</ele>
        <time>2024-04-17T13:32:21Z</time>
      </trkpt>
      <trkpt lat="49.96348" lon="2.11402">
        <ele>11.8</ele>
        <time>2024-04-17T13:32:22Z</time>
      </trkpt>
      <trkpt lat="49.96347" lon="2.11403">
        <ele>11.8</ele>
        <time>2024-04-17T13:32:23Z</time>
      </trkpt>
      <trkpt lat="49.96347" lon="2.11405">
        <ele>11.8</ele>
        <time>2024-04-17T13:32:24Z</time>
      </trkpt>
      <trkpt lat="49.96346" lon="2.11406">
        <ele>11.8</ele>
        <time>2024-04-17T13:32:25Z</time>
      </trkpt>
      <trkpt lat="49.96346" lon="2.11407">
        <ele>11.8</ele>
        <time>2024-04-17T13:32:26Z</time>
      </trkpt>
      <trkpt lat="49.96345" lon="2.11409">
        <ele>11.8</ele>
        <time>2024-04-17T13:32:27Z</time>
      </trkpt>
      <trkpt lat="49.96345" lon="2.1141">
        <ele>11.8</ele>
        <time>2024-04-17T13:32:28Z</time>
      </trkpt>
      <trkpt lat="49.96344" lon="2.11412">
        <ele>11.8</ele>
        <time>2024-04-17T13:32:29Z</time>
      </trkpt>
      <trkpt lat="49.96344" lon="2.11413">
        <ele>11.8</ele>
        <time>2024-04-17T13:32:30Z</time>
      </trkpt>
      <trkpt lat="49.96344" lon="2.11414">
        <ele>11.8</ele>
        <time>2024-04-17T13:32:31Z</time>
      </trkpt>
      <trkpt lat="49.96344" lon="2.11416">
        <ele>11.8</ele>
        <time>2024-04-17T13:32:32Z</time>
      </trkpt>
      <trkpt lat="49.96343" lon="2.11417">
        <ele>11.8</ele>
        <time>2024-04-17T13:32:33Z</time>
      </trkpt>
      <trkpt lat="49.96342" lon="2.11418">
        <ele>11.8</ele>
        <time>2024-04-17T13:32:34Z</time>
      </trkpt>
      <trkpt lat="49.96341" lon="2.11419">
        <ele>11.8</ele>
        <time>2024-04-17T13:32:35Z</time>
      </trkpt>
      <trkpt lat="49.96341" lon="2.1142">
        <ele>11.8</ele>
        <time>2024-04-17T13:32:36Z</time>
      </trkpt>
      <trkpt lat="49.9634" lon="2.11421">
        <ele>11.8</ele>
        <time>2024-04-17T13:32:37Z</time>
      </trkpt>
      <trkpt lat="49.96339" lon="2.11421">
        <ele>11.8</ele>
        <time>2024-04-17T13:32:38Z</time>
      </trkpt>
      <trkpt lat="49.96339" lon="2.11423">
        <ele>11.8</ele>
        <time>2024-04-17T13:32:39Z</time>
      </trkpt>
      <trkpt lat="49.96338" lon="2.11423">
        <ele>11.8</ele>
        <time>2024-04-17T13:32:40Z</time>
      </trkpt>
      <trkpt lat="49.96338" lon="2.11425">
        <ele>11.8</ele>
        <time>2024-04-17T13:32:41Z</time>
      </trkpt>
      <trkpt lat="49.96337" lon="2.11426">
        <ele>11.8</ele>
        <time>2024-04-17T13:32:42Z</time>
      </trkpt>
      <trkpt lat="49.96336" lon="2.11427">
        <ele>11.8</ele>
        <time>2024-04-17T13:32:43Z</time>
      </trkpt>
      <trkpt lat="49.96336" lon="2.11428">
        <ele>11.8</ele>
        <time>2024-04-17T13:32:44Z</time>
      </trkpt>
      <trkpt lat="49.96335" lon="2.1143">
        <ele>11.8</ele>
        <time>2024-04-17T13:32:45Z</time>
      </trkpt>
      <trkpt lat="49.96335" lon="2.11431">
        <ele>11.8</ele>
        <time>2024-04-17T13:32:46Z</time>
      </trkpt>
      <trkpt lat="49.96335" lon="2.11432">
        <ele>11.8</ele>
        <time>2024-04-17T13:32:47Z</time>
      </trkpt>
      <trkpt lat="49.96334" lon="2.11433">
        <ele>11.8</ele>
        <time>2024-04-17T13:32:48Z</time>
      </trkpt>
      <trkpt lat="49.96334" lon="2.11434">
        <ele>11.8</ele>
        <time>2024-04-17T13:32:49Z</time>
      </trkpt>
      <trkpt lat="49.96333" lon="2.11435">
        <ele>11.8</ele>
        <time>2024-04-17T13:32:50Z</time>
      </trkpt>
      <trkpt lat="49.96333" lon="2.11436">
        <ele>11.9</ele>
        <time>2024-04-17T13:32:51Z</time>
      </trkpt>
      <trkpt lat="49.96332" lon="2.11437">
        <ele>11.9</ele>
        <time>2024-04-17T13:32:52Z</time>
      </trkpt>
      <trkpt lat="49.96332" lon="2.11438">
        <ele>11.9</ele>
        <time>2024-04-17T13:32:53Z</time>
      </trkpt>
      <trkpt lat="49.96332" lon="2.1144">
        <ele>11.9</ele>
        <time>2024-04-17T13:32:54Z</time>
      </trkpt>
      <trkpt lat="49.96331" lon="2.11441">
        <ele>11.9</ele>
        <time>2024-04-17T13:32:55Z</time>
      </trkpt>
      <trkpt lat="49.96331" lon="2.11442">
        <ele>11.9</ele>
        <time>2024-04-17T13:32:56Z</time>
      </trkpt>
      <trkpt lat="49.9633" lon="2.11443">
        <ele>11.9</ele>
        <time>2024-04-17T13:32:57Z</time>
      </trkpt>
      <trkpt lat="49.9633" lon="2.11444">
        <ele>11.9</ele>
        <time>2024-04-17T13:32:58Z</time>
      </trkpt>
      <trkpt lat="49.9633" lon="2.11446">
        <ele>11.9</ele>
        <time>2024-04-17T13:32:59Z</time>
      </trkpt>
      <trkpt lat="49.96329" lon="2.11447">
        <ele>11.9</ele>
        <time>2024-04-17T13:33:00Z</time>
      </trkpt>
      <trkpt lat="49.96329" lon="2.11448">
        <ele>11.9</ele>
        <time>2024-04-17T13:33:01Z</time>
      </trkpt>
      <trkpt lat="49.96328" lon="2.1145">
        <ele>11.9</ele>
        <time>2024-04-17T13:33:02Z</time>
      </trkpt>
      <trkpt lat="49.96327" lon="2.11451">
        <ele>11.9</ele>
        <time>2024-04-17T13:33:03Z</time>
      </trkpt>
      <trkpt lat="49.96327" lon="2.11452">
        <ele>11.9</ele>
        <time>2024-04-17T13:33:04Z</time>
      </trkpt>
      <trkpt lat="49.96326" lon="2.11454">
        <ele>11.9</ele>
        <time>2024-04-17T13:33:05Z</time>
      </trkpt>
      <trkpt lat="49.96325" lon="2.11455">
        <ele>11.9</ele>
        <time>2024-04-17T13:33:06Z</time>
      </trkpt>
      <trkpt lat="49.96325" lon="2.11456">
        <ele>12</ele>
        <time>2024-04-17T13:33:07Z</time>
      </trkpt>
      <trkpt lat="49.96324" lon="2.11457">
        <ele>12</ele>
        <time>2024-04-17T13:33:08Z</time>
      </trkpt>
      <trkpt lat="49.96324" lon="2.11458">
        <ele>12</ele>
        <time>2024-04-17T13:33:09Z</time>
      </trkpt>
      <trkpt lat="49.96323" lon="2.11459">
        <ele>12</ele>
        <time>2024-04-17T13:33:10Z</time>
      </trkpt>
      <trkpt lat="49.96322" lon="2.11461">
        <ele>12</ele>
        <time>2024-04-17T13:33:11Z</time>
      </trkpt>
      <trkpt lat="49.96322" lon="2.11462">
        <ele>12</ele>
        <time>2024-04-17T13:33:12Z</time>
      </trkpt>
      <trkpt lat="49.96321" lon="2.11463">
        <ele>12</ele>
        <time>2024-04-17T13:33:13Z</time>
      </trkpt>
      <trkpt lat="49.96321" lon="2.11463">
        <ele>12</ele>
        <time>2024-04-17T13:33:14Z</time>
      </trkpt>
      <trkpt lat="49.9632" lon="2.11464">
        <ele>12</ele>
        <time>2024-04-17T13:33:15Z</time>
      </trkpt>
      <trkpt lat="49.96319" lon="2.11466">
        <ele>12</ele>
        <time>2024-04-17T13:33:16Z</time>
      </trkpt>
      <trkpt lat="49.96319" lon="2.11467">
        <ele>12</ele>
        <time>2024-04-17T13:33:17Z</time>
      </trkpt>
      <trkpt lat="49.96318" lon="2.11468">
        <ele>12</ele>
        <time>2024-04-17T13:33:18Z</time>
      </trkpt>
      <trkpt lat="49.96317" lon="2.1147">
        <ele>12</ele>
        <time>2024-04-17T13:33:19Z</time>
      </trkpt>
      <trkpt lat="49.96317" lon="2.11471">
        <ele>12</ele>
        <time>2024-04-17T13:33:20Z</time>
      </trkpt>
      <trkpt lat="49.96316" lon="2.11473">
        <ele>12</ele>
        <time>2024-04-17T13:33:21Z</time>
      </trkpt>
      <trkpt lat="49.96316" lon="2.11474">
        <ele>12</ele>
        <time>2024-04-17T13:33:22Z</time>
      </trkpt>
      <trkpt lat="49.96315" lon="2.11476">
        <ele>12</ele>
        <time>2024-04-17T13:33:23Z</time>
      </trkpt>
      <trkpt lat="49.96314" lon="2.11477">
        <ele>12</ele>
        <time>2024-04-17T13:33:24Z</time>
      </trkpt>
      <trkpt lat="49.96314" lon="2.11478">
        <ele>12</ele>
        <time>2024-04-17T13:33:25Z</time>
      </trkpt>
      <trkpt lat="49.96313" lon="2.1148">
        <ele>12</ele>
        <time>2024-04-17T13:33:26Z</time>
      </trkpt>
      <trkpt lat="49.96313" lon="2.11481">
        <ele>12</ele>
        <time>2024-04-17T13:33:27Z</time>
      </trkpt>
      <trkpt lat="49.96312" lon="2.11483">
        <ele>12</ele>
        <time>2024-04-17T13:33:28Z</time>
      </trkpt>
      <trkpt lat="49.96312" lon="2.11485">
        <ele>12</ele>
        <time>2024-04-17T13:33:29Z</time>
      </trkpt>
      <trkpt lat="49.96312" lon="2.11487">
        <ele>12</ele>
        <time>2024-04-17T13:33:30Z</time>
      </trkpt>
      <trkpt lat="49.96312" lon="2.11488">
        <ele>12</ele>
        <time>2024-04-17T13:33:31Z</time>
      </trkpt>
      <trkpt lat="49.96312" lon="2.1149">
        <ele>12</ele>
        <time>2024-04-17T13:33:32Z</time>
      </trkpt>
      <trkpt lat="49.96312" lon="2.11492">
        <ele>12</ele>
        <time>2024-04-17T13:33:33Z</time>
      </trkpt>
      <trkpt lat="49.96313" lon="2.11495">
        <ele>12</ele>
        <time>2024-04-17T13:33:34Z</time>
      </trkpt>
      <trkpt lat="49.96313" lon="2.11496">
        <ele>12</ele>
        <time>2024-04-17T13:33:35Z</time>
      </trkpt>
      <trkpt lat="49.96313" lon="2.11497">
        <ele>12</ele>
        <time>2024-04-17T13:33:36Z</time>
      </trkpt>
      <trkpt lat="49.96314" lon="2.115">
        <ele>12</ele>
        <time>2024-04-17T13:33:37Z</time>
      </trkpt>
      <trkpt lat="49.96315" lon="2.11501">
        <ele>12</ele>
        <time>2024-04-17T13:33:38Z</time>
      </trkpt>
      <trkpt lat="49.96315" lon="2.11502">
        <ele>12</ele>
        <time>2024-04-17T13:33:39Z</time>
      </trkpt>
      <trkpt lat="49.96316" lon="2.11505">
        <ele>12</ele>
        <time>2024-04-17T13:33:40Z</time>
      </trkpt>
      <trkpt lat="49.96317" lon="2.11506">
        <ele>12</ele>
        <time>2024-04-17T13:33:41Z</time>
      </trkpt>
      <trkpt lat="49.96317" lon="2.11507">
        <ele>12</ele>
        <time>2024-04-17T13:33:42Z</time>
      </trkpt>
      <trkpt lat="49.96318" lon="2.11509">
        <ele>12</ele>
        <time>2024-04-17T13:33:43Z</time>
      </trkpt>
      <trkpt lat="49.96318" lon="2.1151">
        <ele>12</ele>
        <time>2024-04-17T13:33:44Z</time>
      </trkpt>
      <trkpt lat="49.96319" lon="2.11512">
        <ele>12</ele>
        <time>2024-04-17T13:33:45Z</time>
      </trkpt>
      <trkpt lat="49.9632" lon="2.11515">
        <ele>12</ele>
        <time>2024-04-17T13:33:46Z</time>
      </trkpt>
      <trkpt lat="49.9632" lon="2.11516">
        <ele>12</ele>
        <time>2024-04-17T13:33:47Z</time>
      </trkpt>
      <trkpt lat="49.9632" lon="2.11517">
        <ele>12</ele>
        <time>2024-04-17T13:33:48Z</time>
      </trkpt>
      <trkpt lat="49.96321" lon="2.11519">
        <ele>11.9</ele>
        <time>2024-04-17T13:33:49Z</time>
      </trkpt>
      <trkpt lat="49.96321" lon="2.11521">
        <ele>11.9</ele>
        <time>2024-04-17T13:33:50Z</time>
      </trkpt>
      <trkpt lat="49.96322" lon="2.11522">
        <ele>11.9</ele>
        <time>2024-04-17T13:33:51Z</time>
      </trkpt>
      <trkpt lat="49.96322" lon="2.11524">
        <ele>11.9</ele>
        <time>2024-04-17T13:33:52Z</time>
      </trkpt>
      <trkpt lat="49.96323" lon="2.11526">
        <ele>11.9</ele>
        <time>2024-04-17T13:33:53Z</time>
      </trkpt>
      <trkpt lat="49.96323" lon="2.11527">
        <ele>11.9</ele>
        <time>2024-04-17T13:33:54Z</time>
      </trkpt>
      <trkpt lat="49.96324" lon="2.11529">
        <ele>11.9</ele>
        <time>2024-04-17T13:33:55Z</time>
      </trkpt>
      <trkpt lat="49.96324" lon="2.11531">
        <ele>11.9</ele>
        <time>2024-04-17T13:33:56Z</time>
      </trkpt>
      <trkpt lat="49.96325" lon="2.11532">
        <ele>11.9</ele>
        <time>2024-04-17T13:33:57Z</time>
      </trkpt>
      <trkpt lat="49.96325" lon="2.11535">
        <ele>11.9</ele>
        <time>2024-04-17T13:33:58Z</time>
      </trkpt>
      <trkpt lat="49.96326" lon="2.11537">
        <ele>11.9</ele>
        <time>2024-04-17T13:33:59Z</time>
      </trkpt>
      <trkpt lat="49.96326" lon="2.11538">
        <ele>11.9</ele>
        <time>2024-04-17T13:34:00Z</time>
      </trkpt>
      <trkpt lat="49.96327" lon="2.11541">
        <ele>11.9</ele>
        <time>2024-04-17T13:34:01Z</time>
      </trkpt>
      <trkpt lat="49.96327" lon="2.11542">
        <ele>11.9</ele>
        <time>2024-04-17T13:34:02Z</time>
      </trkpt>
      <trkpt lat="49.96327" lon="2.11543">
        <ele>11.9</ele>
        <time>2024-04-17T13:34:03Z</time>
      </trkpt>
      <trkpt lat="49.96328" lon="2.11547">
        <ele>11.9</ele>
        <time>2024-04-17T13:34:04Z</time>
      </trkpt>
      <trkpt lat="49.96328" lon="2.11548">
        <ele>11.9</ele>
        <time>2024-04-17T13:34:05Z</time>
      </trkpt>
      <trkpt lat="49.96328" lon="2.1155">
        <ele>11.9</ele>
        <time>2024-04-17T13:34:06Z</time>
      </trkpt>
      <trkpt lat="49.96328" lon="2.11552">
        <ele>11.9</ele>
        <time>2024-04-17T13:34:07Z</time>
      </trkpt>
      <trkpt lat="49.96329" lon="2.11554">
        <ele>11.9</ele>
        <time>2024-04-17T13:34:08Z</time>
      </trkpt>
      <trkpt lat="49.96329" lon="2.11556">
        <ele>11.9</ele>
        <time>2024-04-17T13:34:09Z</time>
      </trkpt>
      <trkpt lat="49.96329" lon="2.11557">
        <ele>11.9</ele>
        <time>2024-04-17T13:34:10Z</time>
      </trkpt>
      <trkpt lat="49.9633" lon="2.11559">
        <ele>11.9</ele>
        <time>2024-04-17T13:34:11Z</time>
      </trkpt>
      <trkpt lat="49.9633" lon="2.1156">
        <ele>11.9</ele>
        <time>2024-04-17T13:34:12Z</time>
      </trkpt>
      <trkpt lat="49.96331" lon="2.11562">
        <ele>11.9</ele>
        <time>2024-04-17T13:34:13Z</time>
      </trkpt>
      <trkpt lat="49.96331" lon="2.11563">
        <ele>11.9</ele>
        <time>2024-04-17T13:34:14Z</time>
      </trkpt>
      <trkpt lat="49.96332" lon="2.11565">
        <ele>11.9</ele>
        <time>2024-04-17T13:34:15Z</time>
      </trkpt>
      <trkpt lat="49.96332" lon="2.11567">
        <ele>11.9</ele>
        <time>2024-04-17T13:34:16Z</time>
      </trkpt>
      <trkpt lat="49.96333" lon="2.11569">
        <ele>11.9</ele>
        <time>2024-04-17T13:34:17Z</time>
      </trkpt>
      <trkpt lat="49.96333" lon="2.1157">
        <ele>11.9</ele>
        <time>2024-04-17T13:34:18Z</time>
      </trkpt>
      <trkpt lat="49.96334" lon="2.11572">
        <ele>11.9</ele>
        <time>2024-04-17T13:34:19Z</time>
      </trkpt>
      <trkpt lat="49.96334" lon="2.11573">
        <ele>11.9</ele>
        <time>2024-04-17T13:34:20Z</time>
      </trkpt>
      <trkpt lat="49.96334" lon="2.11575">
        <ele>11.9</ele>
        <time>2024-04-17T13:34:21Z</time>
      </trkpt>
      <trkpt lat="49.96335" lon="2.11576">
        <ele>11.9</ele>
        <time>2024-04-17T13:34:22Z</time>
      </trkpt>
      <trkpt lat="49.96335" lon="2.11577">
        <ele>11.9</ele>
        <time>2024-04-17T13:34:23Z</time>
      </trkpt>
      <trkpt lat="49.96336" lon="2.11579">
        <ele>11.9</ele>
        <time>2024-04-17T13:34:24Z</time>
      </trkpt>
      <trkpt lat="49.96336" lon="2.1158">
        <ele>11.9</ele>
        <time>2024-04-17T13:34:25Z</time>
      </trkpt>
      <trkpt lat="49.96336" lon="2.11581">
        <ele>11.9</ele>
        <time>2024-04-17T13:34:26Z</time>
      </trkpt>
      <trkpt lat="49.96336" lon="2.11583">
        <ele>11.9</ele>
        <time>2024-04-17T13:34:27Z</time>
      </trkpt>
      <trkpt lat="49.96337" lon="2.11584">
        <ele>11.9</ele>
        <time>2024-04-17T13:34:28Z</time>
      </trkpt>
      <trkpt lat="49.96337" lon="2.11586">
        <ele>11.9</ele>
        <time>2024-04-17T13:34:29Z</time>
      </trkpt>
      <trkpt lat="49.96337" lon="2.11588">
        <ele>11.9</ele>
        <time>2024-04-17T13:34:30Z</time>
      </trkpt>
      <trkpt lat="49.96338" lon="2.11589">
        <ele>11.9</ele>
        <time>2024-04-17T13:34:31Z</time>
      </trkpt>
      <trkpt lat="49.96338" lon="2.1159">
        <ele>11.9</ele>
        <time>2024-04-17T13:34:32Z</time>
      </trkpt>
      <trkpt lat="49.96338" lon="2.11592">
        <ele>11.9</ele>
        <time>2024-04-17T13:34:33Z</time>
      </trkpt>
      <trkpt lat="49.96338" lon="2.11593">
        <ele>11.9</ele>
        <time>2024-04-17T13:34:34Z</time>
      </trkpt>
      <trkpt lat="49.96338" lon="2.11595">
        <ele>11.9</ele>
        <time>2024-04-17T13:34:35Z</time>
      </trkpt>
      <trkpt lat="49.96339" lon="2.11597">
        <ele>11.9</ele>
        <time>2024-04-17T13:34:36Z</time>
      </trkpt>
      <trkpt lat="49.96339" lon="2.11599">
        <ele>11.9</ele>
        <time>2024-04-17T13:34:37Z</time>
      </trkpt>
      <trkpt lat="49.96339" lon="2.11601">
        <ele>11.9</ele>
        <time>2024-04-17T13:34:38Z</time>
      </trkpt>
      <trkpt lat="49.96339" lon="2.11604">
        <ele>11.9</ele>
        <time>2024-04-17T13:34:39Z</time>
      </trkpt>
      <trkpt lat="49.96339" lon="2.11605">
        <ele>11.9</ele>
        <time>2024-04-17T13:34:40Z</time>
      </trkpt>
      <trkpt lat="49.96339" lon="2.11606">
        <ele>11.9</ele>
        <time>2024-04-17T13:34:41Z</time>
      </trkpt>
      <trkpt lat="49.96339" lon="2.11608">
        <ele>11.9</ele>
        <time>2024-04-17T13:34:42Z</time>
      </trkpt>
      <trkpt lat="49.96339" lon="2.11609">
        <ele>11.9</ele>
        <time>2024-04-17T13:34:43Z</time>
      </trkpt>
      <trkpt lat="49.96339" lon="2.11611">
        <ele>11.9</ele>
        <time>2024-04-17T13:34:44Z</time>
      </trkpt>
      <trkpt lat="49.96339" lon="2.11613">
        <ele>11.9</ele>
        <time>2024-04-17T13:34:45Z</time>
      </trkpt>
      <trkpt lat="49.96339" lon="2.11615">
        <ele>11.9</ele>
        <time>2024-04-17T13:34:46Z</time>
      </trkpt>
      <trkpt lat="49.96339" lon="2.11617">
        <ele>11.9</ele>
        <time>2024-04-17T13:34:47Z</time>
      </trkpt>
      <trkpt lat="49.96339" lon="2.11618">
        <ele>11.9</ele>
        <time>2024-04-17T13:34:48Z</time>
      </trkpt>
      <trkpt lat="49.96339" lon="2.1162">
        <ele>11.9</ele>
        <time>2024-04-17T13:34:49Z</time>
      </trkpt>
      <trkpt lat="49.96339" lon="2.11622">
        <ele>11.9</ele>
        <time>2024-04-17T13:34:50Z</time>
      </trkpt>
      <trkpt lat="49.96339" lon="2.11623">
        <ele>11.9</ele>
        <time>2024-04-17T13:34:51Z</time>
      </trkpt>
      <trkpt lat="49.96339" lon="2.11625">
        <ele>11.9</ele>
        <time>2024-04-17T13:34:52Z</time>
      </trkpt>
      <trkpt lat="49.96339" lon="2.11626">
        <ele>11.9</ele>
        <time>2024-04-17T13:34:53Z</time>
      </trkpt>
      <trkpt lat="49.96339" lon="2.11628">
        <ele>11.9</ele>
        <time>2024-04-17T13:34:54Z</time>
      </trkpt>
      <trkpt lat="49.96339" lon="2.11629">
        <ele>11.9</ele>
        <time>2024-04-17T13:34:55Z</time>
      </trkpt>
      <trkpt lat="49.96339" lon="2.11631">
        <ele>11.9</ele>
        <time>2024-04-17T13:34:56Z</time>
      </trkpt>
      <trkpt lat="49.96339" lon="2.11632">
        <ele>11.9</ele>
        <time>2024-04-17T13:34:57Z</time>
      </trkpt>
      <trkpt lat="49.96339" lon="2.11634">
        <ele>11.9</ele>
        <time>2024-04-17T13:34:58Z</time>
      </trkpt>
      <trkpt lat="49.96339" lon="2.11635">
        <ele>11.9</ele>
        <time>2024-04-17T13:34:59Z</time>
      </trkpt>
      <trkpt lat="49.96339" lon="2.11637">
        <ele>11.9</ele>
        <time>2024-04-17T13:35:00Z</time>
      </trkpt>
      <trkpt lat="49.96339" lon="2.11638">
        <ele>11.9</ele>
        <time>2024-04-17T13:35:01Z</time>
      </trkpt>
      <trkpt lat="49.9634" lon="2.1164">
        <ele>11.9</ele>
        <time>2024-04-17T13:35:02Z</time>
      </trkpt>
      <trkpt lat="49.9634" lon="2.11642">
        <ele>11.9</ele>
        <time>2024-04-17T13:35:03Z</time>
      </trkpt>
      <trkpt lat="49.9634" lon="2.11643">
        <ele>11.9</ele>
        <time>2024-04-17T13:35:04Z</time>
      </trkpt>
      <trkpt lat="49.96341" lon="2.11644">
        <ele>11.9</ele>
        <time>2024-04-17T13:35:05Z</time>
      </trkpt>
      <trkpt lat="49.96341" lon="2.11645">
        <ele>11.9</ele>
        <time>2024-04-17T13:35:06Z</time>
      </trkpt>
      <trkpt lat="49.96341" lon="2.11647">
        <ele>11.9</ele>
        <time>2024-04-17T13:35:07Z</time>
      </trkpt>
      <trkpt lat="49.96342" lon="2.11648">
        <ele>11.9</ele>
        <time>2024-04-17T13:35:08Z</time>
      </trkpt>
      <trkpt lat="49.96342" lon="2.11649">
        <ele>11.9</ele>
        <time>2024-04-17T13:35:09Z</time>
      </trkpt>
      <trkpt lat="49.96343" lon="2.11651">
        <ele>11.9</ele>
        <time>2024-04-17T13:35:10Z</time>
      </trkpt>
      <trkpt lat="49.96343" lon="2.11652">
        <ele>11.9</ele>
        <time>2024-04-17T13:35:11Z</time>
      </trkpt>
      <trkpt lat="49.96344" lon="2.11654">
        <ele>11.9</ele>
        <time>2024-04-17T13:35:12Z</time>
      </trkpt>
      <trkpt lat="49.96344" lon="2.11655">
        <ele>11.9</ele>
        <time>2024-04-17T13:35:13Z</time>
      </trkpt>
      <trkpt lat="49.96345" lon="2.11657">
        <ele>11.9</ele>
        <time>2024-04-17T13:35:14Z</time>
      </trkpt>
      <trkpt lat="49.96345" lon="2.11658">
        <ele>11.9</ele>
        <time>2024-04-17T13:35:15Z</time>
      </trkpt>
      <trkpt lat="49.96346" lon="2.1166">
        <ele>11.9</ele>
        <time>2024-04-17T13:35:16Z</time>
      </trkpt>
      <trkpt lat="49.96347" lon="2.11662">
        <ele>11.9</ele>
        <time>2024-04-17T13:35:17Z</time>
      </trkpt>
      <trkpt lat="49.96347" lon="2.11663">
        <ele>11.9</ele>
        <time>2024-04-17T13:35:18Z</time>
      </trkpt>
      <trkpt lat="49.96348" lon="2.11664">
        <ele>11.9</ele>
        <time>2024-04-17T13:35:19Z</time>
      </trkpt>
      <trkpt lat="49.96349" lon="2.11666">
        <ele>11.9</ele>
        <time>2024-04-17T13:35:20Z</time>
      </trkpt>
      <trkpt lat="49.96349" lon="2.11667">
        <ele>11.9</ele>
        <time>2024-04-17T13:35:21Z</time>
      </trkpt>
      <trkpt lat="49.9635" lon="2.1167">
        <ele>11.9</ele>
        <time>2024-04-17T13:35:22Z</time>
      </trkpt>
      <trkpt lat="49.96351" lon="2.11671">
        <ele>11.9</ele>
        <time>2024-04-17T13:35:23Z</time>
      </trkpt>
      <trkpt lat="49.96351" lon="2.11672">
        <ele>11.9</ele>
        <time>2024-04-17T13:35:24Z</time>
      </trkpt>
      <trkpt lat="49.96352" lon="2.11675">
        <ele>11.9</ele>
        <time>2024-04-17T13:35:25Z</time>
      </trkpt>
      <trkpt lat="49.96353" lon="2.11676">
        <ele>11.9</ele>
        <time>2024-04-17T13:35:26Z</time>
      </trkpt>
      <trkpt lat="49.96353" lon="2.11677">
        <ele>11.9</ele>
        <time>2024-04-17T13:35:27Z</time>
      </trkpt>
      <trkpt lat="49.96355" lon="2.11679">
        <ele>11.9</ele>
        <time>2024-04-17T13:35:28Z</time>
      </trkpt>
      <trkpt lat="49.96355" lon="2.1168">
        <ele>11.9</ele>
        <time>2024-04-17T13:35:29Z</time>
      </trkpt>
      <trkpt lat="49.96355" lon="2.11681">
        <ele>11.9</ele>
        <time>2024-04-17T13:35:30Z</time>
      </trkpt>
      <trkpt lat="49.96357" lon="2.11684">
        <ele>11.9</ele>
        <time>2024-04-17T13:35:31Z</time>
      </trkpt>
      <trkpt lat="49.96357" lon="2.11685">
        <ele>11.9</ele>
        <time>2024-04-17T13:35:32Z</time>
      </trkpt>
      <trkpt lat="49.96358" lon="2.11686">
        <ele>11.9</ele>
        <time>2024-04-17T13:35:33Z</time>
      </trkpt>
      <trkpt lat="49.96358" lon="2.11688">
        <ele>12</ele>
        <time>2024-04-17T13:35:34Z</time>
      </trkpt>
      <trkpt lat="49.96359" lon="2.1169">
        <ele>12</ele>
        <time>2024-04-17T13:35:35Z</time>
      </trkpt>
      <trkpt lat="49.96359" lon="2.11692">
        <ele>12</ele>
        <time>2024-04-17T13:35:36Z</time>
      </trkpt>
      <trkpt lat="49.9636" lon="2.11694">
        <ele>12</ele>
        <time>2024-04-17T13:35:37Z</time>
      </trkpt>
      <trkpt lat="49.9636" lon="2.11695">
        <ele>12</ele>
        <time>2024-04-17T13:35:38Z</time>
      </trkpt>
      <trkpt lat="49.96361" lon="2.11697">
        <ele>12</ele>
        <time>2024-04-17T13:35:39Z</time>
      </trkpt>
      <trkpt lat="49.96361" lon="2.11699">
        <ele>12</ele>
        <time>2024-04-17T13:35:40Z</time>
      </trkpt>
      <trkpt lat="49.96362" lon="2.117">
        <ele>12</ele>
        <time>2024-04-17T13:35:41Z</time>
      </trkpt>
      <trkpt lat="49.96363" lon="2.11703">
        <ele>12</ele>
        <time>2024-04-17T13:35:42Z</time>
      </trkpt>
      <trkpt lat="49.96363" lon="2.11704">
        <ele>12</ele>
        <time>2024-04-17T13:35:43Z</time>
      </trkpt>
      <trkpt lat="49.96364" lon="2.11705">
        <ele>12</ele>
        <time>2024-04-17T13:35:44Z</time>
      </trkpt>
      <trkpt lat="49.96364" lon="2.11707">
        <ele>12</ele>
        <time>2024-04-17T13:35:45Z</time>
      </trkpt>
      <trkpt lat="49.96365" lon="2.11708">
        <ele>12</ele>
        <time>2024-04-17T13:35:46Z</time>
      </trkpt>
      <trkpt lat="49.96365" lon="2.11709">
        <ele>12</ele>
        <time>2024-04-17T13:35:47Z</time>
      </trkpt>
      <trkpt lat="49.96366" lon="2.11711">
        <ele>12</ele>
        <time>2024-04-17T13:35:48Z</time>
      </trkpt>
      <trkpt lat="49.96367" lon="2.11712">
        <ele>12</ele>
        <time>2024-04-17T13:35:49Z</time>
      </trkpt>
      <trkpt lat="49.96367" lon="2.11713">
        <ele>12</ele>
        <time>2024-04-17T13:35:50Z</time>
      </trkpt>
      <trkpt lat="49.96367" lon="2.11714">
        <ele>12</ele>
        <time>2024-04-17T13:35:51Z</time>
      </trkpt>
      <trkpt lat="49.96368" lon="2.11716">
        <ele>12</ele>
        <time>2024-04-17T13:35:52Z</time>
      </trkpt>
      <trkpt lat="49.96368" lon="2.11717">
        <ele>12</ele>
        <time>2024-04-17T13:35:53Z</time>
      </trkpt>
      <trkpt lat="49.96368" lon="2.11719">
        <ele>12</ele>
        <time>2024-04-17T13:35:54Z</time>
      </trkpt>
      <trkpt lat="49.96369" lon="2.1172">
        <ele>12</ele>
        <time>2024-04-17T13:35:55Z</time>
      </trkpt>
      <trkpt lat="49.96369" lon="2.11721">
        <ele>12</ele>
        <time>2024-04-17T13:35:56Z</time>
      </trkpt>
      <trkpt lat="49.96369" lon="2.11723">
        <ele>12</ele>
        <time>2024-04-17T13:35:57Z</time>
      </trkpt>
      <trkpt lat="49.96369" lon="2.11724">
        <ele>12</ele>
        <time>2024-04-17T13:35:58Z</time>
      </trkpt>
      <trkpt lat="49.9637" lon="2.11726">
        <ele>12</ele>
        <time>2024-04-17T13:35:59Z</time>
      </trkpt>
      <trkpt lat="49.9637" lon="2.11727">
        <ele>12</ele>
        <time>2024-04-17T13:36:00Z</time>
      </trkpt>
      <trkpt lat="49.9637" lon="2.11729">
        <ele>12</ele>
        <time>2024-04-17T13:36:01Z</time>
      </trkpt>
      <trkpt lat="49.9637" lon="2.11731">
        <ele>12</ele>
        <time>2024-04-17T13:36:02Z</time>
      </trkpt>
      <trkpt lat="49.9637" lon="2.11733">
        <ele>12</ele>
        <time>2024-04-17T13:36:03Z</time>
      </trkpt>
      <trkpt lat="49.96371" lon="2.11734">
        <ele>12</ele>
        <time>2024-04-17T13:36:04Z</time>
      </trkpt>
      <trkpt lat="49.96371" lon="2.11736">
        <ele>12</ele>
        <time>2024-04-17T13:36:05Z</time>
      </trkpt>
      <trkpt lat="49.96371" lon="2.11737">
        <ele>12</ele>
        <time>2024-04-17T13:36:06Z</time>
      </trkpt>
      <trkpt lat="49.96371" lon="2.11739">
        <ele>12</ele>
        <time>2024-04-17T13:36:07Z</time>
      </trkpt>
      <trkpt lat="49.96371" lon="2.11741">
        <ele>12</ele>
        <time>2024-04-17T13:36:08Z</time>
      </trkpt>
      <trkpt lat="49.96371" lon="2.11742">
        <ele>12</ele>
        <time>2024-04-17T13:36:09Z</time>
      </trkpt>
      <trkpt lat="49.96372" lon="2.11744">
        <ele>12</ele>
        <time>2024-04-17T13:36:10Z</time>
      </trkpt>
      <trkpt lat="49.96372" lon="2.11746">
        <ele>12</ele>
        <time>2024-04-17T13:36:11Z</time>
      </trkpt>
      <trkpt lat="49.96372" lon="2.11747">
        <ele>12</ele>
        <time>2024-04-17T13:36:12Z</time>
      </trkpt>
      <trkpt lat="49.96373" lon="2.11749">
        <ele>12</ele>
        <time>2024-04-17T13:36:13Z</time>
      </trkpt>
      <trkpt lat="49.96373" lon="2.1175">
        <ele>12</ele>
        <time>2024-04-17T13:36:14Z</time>
      </trkpt>
      <trkpt lat="49.96373" lon="2.11751">
        <ele>12</ele>
        <time>2024-04-17T13:36:15Z</time>
      </trkpt>
      <trkpt lat="49.96373" lon="2.11753">
        <ele>12.1</ele>
        <time>2024-04-17T13:36:16Z</time>
      </trkpt>
      <trkpt lat="49.96374" lon="2.11755">
        <ele>12.1</ele>
        <time>2024-04-17T13:36:17Z</time>
      </trkpt>
      <trkpt lat="49.96374" lon="2.11756">
        <ele>12.1</ele>
        <time>2024-04-17T13:36:18Z</time>
      </trkpt>
      <trkpt lat="49.96374" lon="2.11758">
        <ele>12.1</ele>
        <time>2024-04-17T13:36:19Z</time>
      </trkpt>
      <trkpt lat="49.96374" lon="2.11759">
        <ele>12.1</ele>
        <time>2024-04-17T13:36:20Z</time>
      </trkpt>
      <trkpt lat="49.96375" lon="2.11761">
        <ele>12.1</ele>
        <time>2024-04-17T13:36:21Z</time>
      </trkpt>
      <trkpt lat="49.96375" lon="2.11763">
        <ele>12.1</ele>
        <time>2024-04-17T13:36:22Z</time>
      </trkpt>
      <trkpt lat="49.96376" lon="2.11764">
        <ele>12.1</ele>
        <time>2024-04-17T13:36:23Z</time>
      </trkpt>
      <trkpt lat="49.96376" lon="2.11765">
        <ele>12.1</ele>
        <time>2024-04-17T13:36:24Z</time>
      </trkpt>
      <trkpt lat="49.96376" lon="2.11767">
        <ele>12.1</ele>
        <time>2024-04-17T13:36:25Z</time>
      </trkpt>
      <trkpt lat="49.96377" lon="2.11768">
        <ele>12.1</ele>
        <time>2024-04-17T13:36:26Z</time>
      </trkpt>
      <trkpt lat="49.96377" lon="2.1177">
        <ele>12.1</ele>
        <time>2024-04-17T13:36:27Z</time>
      </trkpt>
      <trkpt lat="49.96377" lon="2.11771">
        <ele>12.1</ele>
        <time>2024-04-17T13:36:28Z</time>
      </trkpt>
      <trkpt lat="49.96377" lon="2.11773">
        <ele>12.1</ele>
        <time>2024-04-17T13:36:29Z</time>
      </trkpt>
      <trkpt lat="49.96378" lon="2.11774">
        <ele>12.2</ele>
        <time>2024-04-17T13:36:30Z</time>
      </trkpt>
      <trkpt lat="49.96378" lon="2.11776">
        <ele>12.2</ele>
        <time>2024-04-17T13:36:31Z</time>
      </trkpt>
      <trkpt lat="49.96378" lon="2.11777">
        <ele>12.2</ele>
        <time>2024-04-17T13:36:32Z</time>
      </trkpt>
      <trkpt lat="49.96378" lon="2.11779">
        <ele>12.2</ele>
        <time>2024-04-17T13:36:33Z</time>
      </trkpt>
      <trkpt lat="49.96378" lon="2.1178">
        <ele>12.2</ele>
        <time>2024-04-17T13:36:34Z</time>
      </trkpt>
      <trkpt lat="49.96378" lon="2.11782">
        <ele>12.2</ele>
        <time>2024-04-17T13:36:35Z</time>
      </trkpt>
      <trkpt lat="49.96378" lon="2.11783">
        <ele>12.2</ele>
        <time>2024-04-17T13:36:36Z</time>
      </trkpt>
      <trkpt lat="49.96378" lon="2.11785">
        <ele>12.2</ele>
        <time>2024-04-17T13:36:37Z</time>
      </trkpt>
      <trkpt lat="49.96378" lon="2.11786">
        <ele>12.2</ele>
        <time>2024-04-17T13:36:38Z</time>
      </trkpt>
      <trkpt lat="49.96378" lon="2.11788">
        <ele>12.2</ele>
        <time>2024-04-17T13:36:39Z</time>
      </trkpt>
      <trkpt lat="49.96378" lon="2.11789">
        <ele>12.2</ele>
        <time>2024-04-17T13:36:40Z</time>
      </trkpt>
      <trkpt lat="49.96379" lon="2.1179">
        <ele>12.2</ele>
        <time>2024-04-17T13:36:41Z</time>
      </trkpt>
      <trkpt lat="49.96379" lon="2.11792">
        <ele>12.2</ele>
        <time>2024-04-17T13:36:42Z</time>
      </trkpt>
      <trkpt lat="49.96379" lon="2.11793">
        <ele>12.2</ele>
        <time>2024-04-17T13:36:43Z</time>
      </trkpt>
      <trkpt lat="49.96378" lon="2.11794">
        <ele>12.2</ele>
        <time>2024-04-17T13:36:44Z</time>
      </trkpt>
      <trkpt lat="49.96378" lon="2.11795">
        <ele>12.3</ele>
        <time>2024-04-17T13:36:45Z</time>
      </trkpt>
      <trkpt lat="49.96377" lon="2.11796">
        <ele>12.3</ele>
        <time>2024-04-17T13:36:46Z</time>
      </trkpt>
      <trkpt lat="49.96376" lon="2.11797">
        <ele>12.3</ele>
        <time>2024-04-17T13:36:47Z</time>
      </trkpt>
      <trkpt lat="49.96377" lon="2.11798">
        <ele>12.3</ele>
        <time>2024-04-17T13:36:48Z</time>
      </trkpt>
      <trkpt lat="49.96377" lon="2.11799">
        <ele>12.3</ele>
        <time>2024-04-17T13:36:49Z</time>
      </trkpt>
      <trkpt lat="49.96377" lon="2.118">
        <ele>12.3</ele>
        <time>2024-04-17T13:36:50Z</time>
      </trkpt>
      <trkpt lat="49.96377" lon="2.11801">
        <ele>12.3</ele>
        <time>2024-04-17T13:36:51Z</time>
      </trkpt>
      <trkpt lat="49.96377" lon="2.11802">
        <ele>12.3</ele>
        <time>2024-04-17T13:36:52Z</time>
      </trkpt>
      <trkpt lat="49.96376" lon="2.11802">
        <ele>12.3</ele>
        <time>2024-04-17T13:36:53Z</time>
      </trkpt>
      <trkpt lat="49.96375" lon="2.11803">
        <ele>12.3</ele>
        <time>2024-04-17T13:36:54Z</time>
      </trkpt>
      <trkpt lat="49.96374" lon="2.11803">
        <ele>12.3</ele>
        <time>2024-04-17T13:36:55Z</time>
      </trkpt>
      <trkpt lat="49.96373" lon="2.11804">
        <ele>12.3</ele>
        <time>2024-04-17T13:36:56Z</time>
      </trkpt>
      <trkpt lat="49.96373" lon="2.11804">
        <ele>12.3</ele>
        <time>2024-04-17T13:36:57Z</time>
      </trkpt>
      <trkpt lat="49.96372" lon="2.11805">
        <ele>12.3</ele>
        <time>2024-04-17T13:36:58Z</time>
      </trkpt>
      <trkpt lat="49.96371" lon="2.11805">
        <ele>12.2</ele>
        <time>2024-04-17T13:36:59Z</time>
      </trkpt>
      <trkpt lat="49.9637" lon="2.11806">
        <ele>12.2</ele>
        <time>2024-04-17T13:37:00Z</time>
      </trkpt>
      <trkpt lat="49.9637" lon="2.11806">
        <ele>12.2</ele>
        <time>2024-04-17T13:37:01Z</time>
      </trkpt>
      <trkpt lat="49.96369" lon="2.11807">
        <ele>12.2</ele>
        <time>2024-04-17T13:37:02Z</time>
      </trkpt>
      <trkpt lat="49.96368" lon="2.11808">
        <ele>12.2</ele>
        <time>2024-04-17T13:37:03Z</time>
      </trkpt>
      <trkpt lat="49.96367" lon="2.11809">
        <ele>12.2</ele>
        <time>2024-04-17T13:37:04Z</time>
      </trkpt>
      <trkpt lat="49.96367" lon="2.1181">
        <ele>12.2</ele>
        <time>2024-04-17T13:37:05Z</time>
      </trkpt>
      <trkpt lat="49.96366" lon="2.1181">
        <ele>12.2</ele>
        <time>2024-04-17T13:37:06Z</time>
      </trkpt>
      <trkpt lat="49.96365" lon="2.11811">
        <ele>12.2</ele>
        <time>2024-04-17T13:37:07Z</time>
      </trkpt>
      <trkpt lat="49.96365" lon="2.11812">
        <ele>12.2</ele>
        <time>2024-04-17T13:37:08Z</time>
      </trkpt>
      <trkpt lat="49.96364" lon="2.11813">
        <ele>12.2</ele>
        <time>2024-04-17T13:37:09Z</time>
      </trkpt>
      <trkpt lat="49.96364" lon="2.11814">
        <ele>12.2</ele>
        <time>2024-04-17T13:37:10Z</time>
      </trkpt>
      <trkpt lat="49.96363" lon="2.11815">
        <ele>12.2</ele>
        <time>2024-04-17T13:37:11Z</time>
      </trkpt>
      <trkpt lat="49.96363" lon="2.11816">
        <ele>12.2</ele>
        <time>2024-04-17T13:37:12Z</time>
      </trkpt>
      <trkpt lat="49.96362" lon="2.11818">
        <ele>12.2</ele>
        <time>2024-04-17T13:37:13Z</time>
      </trkpt>
      <trkpt lat="49.96362" lon="2.11819">
        <ele>12.2</ele>
        <time>2024-04-17T13:37:14Z</time>
      </trkpt>
      <trkpt lat="49.96361" lon="2.1182">
        <ele>12.2</ele>
        <time>2024-04-17T13:37:15Z</time>
      </trkpt>
      <trkpt lat="49.96361" lon="2.11821">
        <ele>12.2</ele>
        <time>2024-04-17T13:37:16Z</time>
      </trkpt>
      <trkpt lat="49.9636" lon="2.11823">
        <ele>12.3</ele>
        <time>2024-04-17T13:37:17Z</time>
      </trkpt>
      <trkpt lat="49.9636" lon="2.11824">
        <ele>12.3</ele>
        <time>2024-04-17T13:37:18Z</time>
      </trkpt>
      <trkpt lat="49.96359" lon="2.11825">
        <ele>12.3</ele>
        <time>2024-04-17T13:37:19Z</time>
      </trkpt>
      <trkpt lat="49.96359" lon="2.11826">
        <ele>12.3</ele>
        <time>2024-04-17T13:37:20Z</time>
      </trkpt>
      <trkpt lat="49.96359" lon="2.11827">
        <ele>12.3</ele>
        <time>2024-04-17T13:37:21Z</time>
      </trkpt>
      <trkpt lat="49.96358" lon="2.11829">
        <ele>12.3</ele>
        <time>2024-04-17T13:37:22Z</time>
      </trkpt>
      <trkpt lat="49.96358" lon="2.1183">
        <ele>12.3</ele>
        <time>2024-04-17T13:37:23Z</time>
      </trkpt>
      <trkpt lat="49.96358" lon="2.11832">
        <ele>12.3</ele>
        <time>2024-04-17T13:37:24Z</time>
      </trkpt>
      <trkpt lat="49.96357" lon="2.11833">
        <ele>12.3</ele>
        <time>2024-04-17T13:37:25Z</time>
      </trkpt>
      <trkpt lat="49.96357" lon="2.11834">
        <ele>12.3</ele>
        <time>2024-04-17T13:37:26Z</time>
      </trkpt>
      <trkpt lat="49.96356" lon="2.11836">
        <ele>12.3</ele>
        <time>2024-04-17T13:37:27Z</time>
      </trkpt>
      <trkpt lat="49.96356" lon="2.11837">
        <ele>12.3</ele>
        <time>2024-04-17T13:37:28Z</time>
      </trkpt>
      <trkpt lat="49.96355" lon="2.11839">
        <ele>12.3</ele>
        <time>2024-04-17T13:37:29Z</time>
      </trkpt>
      <trkpt lat="49.96354" lon="2.1184">
        <ele>12.3</ele>
        <time>2024-04-17T13:37:30Z</time>
      </trkpt>
      <trkpt lat="49.96354" lon="2.11841">
        <ele>12.3</ele>
        <time>2024-04-17T13:37:31Z</time>
      </trkpt>
      <trkpt lat="49.96353" lon="2.11843">
        <ele>12.3</ele>
        <time>2024-04-17T13:37:32Z</time>
      </trkpt>
      <trkpt lat="49.96352" lon="2.11844">
        <ele>12.3</ele>
        <time>2024-04-17T13:37:33Z</time>
      </trkpt>
      <trkpt lat="49.96351" lon="2.11845">
        <ele>12.3</ele>
        <time>2024-04-17T13:37:34Z</time>
      </trkpt>
      <trkpt lat="49.96351" lon="2.11846">
        <ele>12.3</ele>
        <time>2024-04-17T13:37:35Z</time>
      </trkpt>
      <trkpt lat="49.9635" lon="2.11847">
        <ele>12.3</ele>
        <time>2024-04-17T13:37:36Z</time>
      </trkpt>
      <trkpt lat="49.96349" lon="2.11848">
        <ele>12.3</ele>
        <time>2024-04-17T13:37:37Z</time>
      </trkpt>
      <trkpt lat="49.96348" lon="2.1185">
        <ele>12.3</ele>
        <time>2024-04-17T13:37:38Z</time>
      </trkpt>
      <trkpt lat="49.96348" lon="2.11851">
        <ele>12.3</ele>
        <time>2024-04-17T13:37:39Z</time>
      </trkpt>
      <trkpt lat="49.96347" lon="2.11853">
        <ele>12.3</ele>
        <time>2024-04-17T13:37:40Z</time>
      </trkpt>
      <trkpt lat="49.96347" lon="2.11854">
        <ele>12.3</ele>
        <time>2024-04-17T13:37:41Z</time>
      </trkpt>
      <trkpt lat="49.96346" lon="2.11856">
        <ele>12.3</ele>
        <time>2024-04-17T13:37:42Z</time>
      </trkpt>
      <trkpt lat="49.96345" lon="2.11857">
        <ele>12.3</ele>
        <time>2024-04-17T13:37:43Z</time>
      </trkpt>
      <trkpt lat="49.96344" lon="2.11859">
        <ele>12.3</ele>
        <time>2024-04-17T13:37:44Z</time>
      </trkpt>
      <trkpt lat="49.96344" lon="2.1186">
        <ele>12.3</ele>
        <time>2024-04-17T13:37:45Z</time>
      </trkpt>
      <trkpt lat="49.96343" lon="2.11862">
        <ele>12.3</ele>
        <time>2024-04-17T13:37:46Z</time>
      </trkpt>
      <trkpt lat="49.96343" lon="2.11863">
        <ele>12.3</ele>
        <time>2024-04-17T13:37:47Z</time>
      </trkpt>
      <trkpt lat="49.96342" lon="2.11864">
        <ele>12.4</ele>
        <time>2024-04-17T13:37:48Z</time>
      </trkpt>
      <trkpt lat="49.96341" lon="2.11866">
        <ele>12.4</ele>
        <time>2024-04-17T13:37:49Z</time>
      </trkpt>
      <trkpt lat="49.9634" lon="2.11867">
        <ele>12.4</ele>
        <time>2024-04-17T13:37:50Z</time>
      </trkpt>
      <trkpt lat="49.9634" lon="2.11869">
        <ele>12.4</ele>
        <time>2024-04-17T13:37:51Z</time>
      </trkpt>
      <trkpt lat="49.96339" lon="2.1187">
        <ele>12.4</ele>
        <time>2024-04-17T13:37:52Z</time>
      </trkpt>
      <trkpt lat="49.96339" lon="2.11872">
        <ele>12.4</ele>
        <time>2024-04-17T13:37:53Z</time>
      </trkpt>
      <trkpt lat="49.96338" lon="2.11873">
        <ele>12.4</ele>
        <time>2024-04-17T13:37:54Z</time>
      </trkpt>
      <trkpt lat="49.96338" lon="2.11875">
        <ele>12.4</ele>
        <time>2024-04-17T13:37:55Z</time>
      </trkpt>
      <trkpt lat="49.96337" lon="2.11876">
        <ele>12.4</ele>
        <time>2024-04-17T13:37:56Z</time>
      </trkpt>
      <trkpt lat="49.96337" lon="2.11877">
        <ele>12.4</ele>
        <time>2024-04-17T13:37:57Z</time>
      </trkpt>
      <trkpt lat="49.96336" lon="2.11878">
        <ele>12.4</ele>
        <time>2024-04-17T13:37:58Z</time>
      </trkpt>
      <trkpt lat="49.96335" lon="2.11879">
        <ele>12.4</ele>
        <time>2024-04-17T13:37:59Z</time>
      </trkpt>
      <trkpt lat="49.96335" lon="2.1188">
        <ele>12.4</ele>
        <time>2024-04-17T13:38:00Z</time>
      </trkpt>
      <trkpt lat="49.96334" lon="2.11882">
        <ele>12.4</ele>
        <time>2024-04-17T13:38:01Z</time>
      </trkpt>
      <trkpt lat="49.96334" lon="2.11883">
        <ele>12.4</ele>
        <time>2024-04-17T13:38:02Z</time>
      </trkpt>
      <trkpt lat="49.96333" lon="2.11884">
        <ele>12.4</ele>
        <time>2024-04-17T13:38:03Z</time>
      </trkpt>
      <trkpt lat="49.96333" lon="2.11886">
        <ele>12.4</ele>
        <time>2024-04-17T13:38:04Z</time>
      </trkpt>
      <trkpt lat="49.96333" lon="2.11887">
        <ele>12.4</ele>
        <time>2024-04-17T13:38:05Z</time>
      </trkpt>
      <trkpt lat="49.96332" lon="2.11888">
        <ele>12.4</ele>
        <time>2024-04-17T13:38:06Z</time>
      </trkpt>
      <trkpt lat="49.96331" lon="2.1189">
        <ele>12.4</ele>
        <time>2024-04-17T13:38:07Z</time>
      </trkpt>
      <trkpt lat="49.96331" lon="2.11891">
        <ele>12.4</ele>
        <time>2024-04-17T13:38:08Z</time>
      </trkpt>
      <trkpt lat="49.9633" lon="2.11892">
        <ele>12.4</ele>
        <time>2024-04-17T13:38:09Z</time>
      </trkpt>
      <trkpt lat="49.96329" lon="2.11893">
        <ele>12.4</ele>
        <time>2024-04-17T13:38:10Z</time>
      </trkpt>
      <trkpt lat="49.96329" lon="2.11895">
        <ele>12.4</ele>
        <time>2024-04-17T13:38:11Z</time>
      </trkpt>
      <trkpt lat="49.96328" lon="2.11896">
        <ele>12.4</ele>
        <time>2024-04-17T13:38:12Z</time>
      </trkpt>
      <trkpt lat="49.96327" lon="2.11897">
        <ele>12.4</ele>
        <time>2024-04-17T13:38:13Z</time>
      </trkpt>
      <trkpt lat="49.96327" lon="2.11899">
        <ele>12.4</ele>
        <time>2024-04-17T13:38:14Z</time>
      </trkpt>
      <trkpt lat="49.96326" lon="2.119">
        <ele>12.4</ele>
        <time>2024-04-17T13:38:15Z</time>
      </trkpt>
      <trkpt lat="49.96325" lon="2.11901">
        <ele>12.4</ele>
        <time>2024-04-17T13:38:16Z</time>
      </trkpt>
      <trkpt lat="49.96324" lon="2.11902">
        <ele>12.5</ele>
        <time>2024-04-17T13:38:17Z</time>
      </trkpt>
      <trkpt lat="49.96324" lon="2.11904">
        <ele>12.5</ele>
        <time>2024-04-17T13:38:18Z</time>
      </trkpt>
      <trkpt lat="49.96322" lon="2.11906">
        <ele>12.5</ele>
        <time>2024-04-17T13:38:19Z</time>
      </trkpt>
      <trkpt lat="49.96322" lon="2.11907">
        <ele>12.5</ele>
        <time>2024-04-17T13:38:20Z</time>
      </trkpt>
      <trkpt lat="49.96321" lon="2.11908">
        <ele>12.5</ele>
        <time>2024-04-17T13:38:21Z</time>
      </trkpt>
      <trkpt lat="49.96319" lon="2.1191">
        <ele>12.5</ele>
        <time>2024-04-17T13:38:22Z</time>
      </trkpt>
      <trkpt lat="49.96319" lon="2.11911">
        <ele>12.5</ele>
        <time>2024-04-17T13:38:23Z</time>
      </trkpt>
      <trkpt lat="49.96318" lon="2.11911">
        <ele>12.5</ele>
        <time>2024-04-17T13:38:24Z</time>
      </trkpt>
      <trkpt lat="49.96317" lon="2.11912">
        <ele>12.5</ele>
        <time>2024-04-17T13:38:25Z</time>
      </trkpt>
      <trkpt lat="49.96316" lon="2.11913">
        <ele>12.5</ele>
        <time>2024-04-17T13:38:26Z</time>
      </trkpt>
      <trkpt lat="49.96315" lon="2.11914">
        <ele>12.5</ele>
        <time>2024-04-17T13:38:27Z</time>
      </trkpt>
      <trkpt lat="49.96314" lon="2.11915">
        <ele>12.5</ele>
        <time>2024-04-17T13:38:28Z</time>
      </trkpt>
      <trkpt lat="49.96314" lon="2.11917">
        <ele>12.5</ele>
        <time>2024-04-17T13:38:29Z</time>
      </trkpt>
      <trkpt lat="49.96313" lon="2.11918">
        <ele>12.5</ele>
        <time>2024-04-17T13:38:30Z</time>
      </trkpt>
      <trkpt lat="49.96312" lon="2.11919">
        <ele>12.5</ele>
        <time>2024-04-17T13:38:31Z</time>
      </trkpt>
      <trkpt lat="49.96311" lon="2.1192">
        <ele>12.5</ele>
        <time>2024-04-17T13:38:32Z</time>
      </trkpt>
      <trkpt lat="49.9631" lon="2.11921">
        <ele>12.6</ele>
        <time>2024-04-17T13:38:33Z</time>
      </trkpt>
      <trkpt lat="49.9631" lon="2.11922">
        <ele>12.6</ele>
        <time>2024-04-17T13:38:34Z</time>
      </trkpt>
      <trkpt lat="49.96309" lon="2.11923">
        <ele>12.6</ele>
        <time>2024-04-17T13:38:35Z</time>
      </trkpt>
      <trkpt lat="49.96308" lon="2.11925">
        <ele>12.6</ele>
        <time>2024-04-17T13:38:36Z</time>
      </trkpt>
      <trkpt lat="49.96307" lon="2.11926">
        <ele>12.6</ele>
        <time>2024-04-17T13:38:37Z</time>
      </trkpt>
      <trkpt lat="49.96306" lon="2.11927">
        <ele>12.6</ele>
        <time>2024-04-17T13:38:38Z</time>
      </trkpt>
      <trkpt lat="49.96306" lon="2.11928">
        <ele>12.6</ele>
        <time>2024-04-17T13:38:39Z</time>
      </trkpt>
      <trkpt lat="49.96305" lon="2.11929">
        <ele>12.6</ele>
        <time>2024-04-17T13:38:40Z</time>
      </trkpt>
      <trkpt lat="49.96304" lon="2.1193">
        <ele>12.6</ele>
        <time>2024-04-17T13:38:41Z</time>
      </trkpt>
      <trkpt lat="49.96303" lon="2.11931">
        <ele>12.6</ele>
        <time>2024-04-17T13:38:42Z</time>
      </trkpt>
      <trkpt lat="49.96302" lon="2.11932">
        <ele>12.6</ele>
        <time>2024-04-17T13:38:43Z</time>
      </trkpt>
      <trkpt lat="49.96301" lon="2.11933">
        <ele>12.7</ele>
        <time>2024-04-17T13:38:44Z</time>
      </trkpt>
      <trkpt lat="49.96301" lon="2.11934">
        <ele>12.7</ele>
        <time>2024-04-17T13:38:45Z</time>
      </trkpt>
      <trkpt lat="49.963" lon="2.11935">
        <ele>12.7</ele>
        <time>2024-04-17T13:38:46Z</time>
      </trkpt>
      <trkpt lat="49.96299" lon="2.11936">
        <ele>12.7</ele>
        <time>2024-04-17T13:38:47Z</time>
      </trkpt>
      <trkpt lat="49.96298" lon="2.11937">
        <ele>12.7</ele>
        <time>2024-04-17T13:38:48Z</time>
      </trkpt>
      <trkpt lat="49.96298" lon="2.11938">
        <ele>12.7</ele>
        <time>2024-04-17T13:38:49Z</time>
      </trkpt>
      <trkpt lat="49.96297" lon="2.11939">
        <ele>12.7</ele>
        <time>2024-04-17T13:38:50Z</time>
      </trkpt>
      <trkpt lat="49.96296" lon="2.1194">
        <ele>12.7</ele>
        <time>2024-04-17T13:38:51Z</time>
      </trkpt>
      <trkpt lat="49.96296" lon="2.11941">
        <ele>12.7</ele>
        <time>2024-04-17T13:38:52Z</time>
      </trkpt>
      <trkpt lat="49.96295" lon="2.11942">
        <ele>12.7</ele>
        <time>2024-04-17T13:38:53Z</time>
      </trkpt>
      <trkpt lat="49.96294" lon="2.11943">
        <ele>12.7</ele>
        <time>2024-04-17T13:38:54Z</time>
      </trkpt>
      <trkpt lat="49.96293" lon="2.11944">
        <ele>12.7</ele>
        <time>2024-04-17T13:38:55Z</time>
      </trkpt>
      <trkpt lat="49.96292" lon="2.11945">
        <ele>12.7</ele>
        <time>2024-04-17T13:38:56Z</time>
      </trkpt>
      <trkpt lat="49.96291" lon="2.11946">
        <ele>12.7</ele>
        <time>2024-04-17T13:38:57Z</time>
      </trkpt>
      <trkpt lat="49.9629" lon="2.11947">
        <ele>12.7</ele>
        <time>2024-04-17T13:38:58Z</time>
      </trkpt>
      <trkpt lat="49.9629" lon="2.11948">
        <ele>12.7</ele>
        <time>2024-04-17T13:38:59Z</time>
      </trkpt>
      <trkpt lat="49.96289" lon="2.11949">
        <ele>12.7</ele>
        <time>2024-04-17T13:39:00Z</time>
      </trkpt>
      <trkpt lat="49.96287" lon="2.11951">
        <ele>12.7</ele>
        <time>2024-04-17T13:39:01Z</time>
      </trkpt>
      <trkpt lat="49.96286" lon="2.11952">
        <ele>12.7</ele>
        <time>2024-04-17T13:39:02Z</time>
      </trkpt>
      <trkpt lat="49.96286" lon="2.11953">
        <ele>12.7</ele>
        <time>2024-04-17T13:39:03Z</time>
      </trkpt>
      <trkpt lat="49.96285" lon="2.11954">
        <ele>12.7</ele>
        <time>2024-04-17T13:39:04Z</time>
      </trkpt>
      <trkpt lat="49.96284" lon="2.11955">
        <ele>12.7</ele>
        <time>2024-04-17T13:39:05Z</time>
      </trkpt>
      <trkpt lat="49.96283" lon="2.11956">
        <ele>12.7</ele>
        <time>2024-04-17T13:39:06Z</time>
      </trkpt>
      <trkpt lat="49.96282" lon="2.11957">
        <ele>12.7</ele>
        <time>2024-04-17T13:39:07Z</time>
      </trkpt>
      <trkpt lat="49.96281" lon="2.11958">
        <ele>12.7</ele>
        <time>2024-04-17T13:39:08Z</time>
      </trkpt>
      <trkpt lat="49.96281" lon="2.11959">
        <ele>12.7</ele>
        <time>2024-04-17T13:39:09Z</time>
      </trkpt>
      <trkpt lat="49.9628" lon="2.1196">
        <ele>12.7</ele>
        <time>2024-04-17T13:39:10Z</time>
      </trkpt>
      <trkpt lat="49.96279" lon="2.11961">
        <ele>12.7</ele>
        <time>2024-04-17T13:39:11Z</time>
      </trkpt>
      <trkpt lat="49.96278" lon="2.11962">
        <ele>12.7</ele>
        <time>2024-04-17T13:39:12Z</time>
      </trkpt>
      <trkpt lat="49.96277" lon="2.11963">
        <ele>12.7</ele>
        <time>2024-04-17T13:39:13Z</time>
      </trkpt>
      <trkpt lat="49.96276" lon="2.11964">
        <ele>12.7</ele>
        <time>2024-04-17T13:39:14Z</time>
      </trkpt>
      <trkpt lat="49.96275" lon="2.11965">
        <ele>12.7</ele>
        <time>2024-04-17T13:39:15Z</time>
      </trkpt>
      <trkpt lat="49.96274" lon="2.11966">
        <ele>12.7</ele>
        <time>2024-04-17T13:39:16Z</time>
      </trkpt>
      <trkpt lat="49.96273" lon="2.11967">
        <ele>12.7</ele>
        <time>2024-04-17T13:39:17Z</time>
      </trkpt>
      <trkpt lat="49.96272" lon="2.11968">
        <ele>12.7</ele>
        <time>2024-04-17T13:39:18Z</time>
      </trkpt>
      <trkpt lat="49.96272" lon="2.11968">
        <ele>12.7</ele>
        <time>2024-04-17T13:39:19Z</time>
      </trkpt>
      <trkpt lat="49.96271" lon="2.11969">
        <ele>12.7</ele>
        <time>2024-04-17T13:39:20Z</time>
      </trkpt>
      <trkpt lat="49.9627" lon="2.1197">
        <ele>12.7</ele>
        <time>2024-04-17T13:39:21Z</time>
      </trkpt>
      <trkpt lat="49.96269" lon="2.11971">
        <ele>12.7</ele>
        <time>2024-04-17T13:39:22Z</time>
      </trkpt>
      <trkpt lat="49.96268" lon="2.11972">
        <ele>12.7</ele>
        <time>2024-04-17T13:39:23Z</time>
      </trkpt>
      <trkpt lat="49.96267" lon="2.11973">
        <ele>12.7</ele>
        <time>2024-04-17T13:39:24Z</time>
      </trkpt>
      <trkpt lat="49.96266" lon="2.11974">
        <ele>12.7</ele>
        <time>2024-04-17T13:39:25Z</time>
      </trkpt>
      <trkpt lat="49.96265" lon="2.11975">
        <ele>12.6</ele>
        <time>2024-04-17T13:39:26Z</time>
      </trkpt>
      <trkpt lat="49.96264" lon="2.11976">
        <ele>12.6</ele>
        <time>2024-04-17T13:39:27Z</time>
      </trkpt>
      <trkpt lat="49.96263" lon="2.11977">
        <ele>12.6</ele>
        <time>2024-04-17T13:39:28Z</time>
      </trkpt>
      <trkpt lat="49.96263" lon="2.11978">
        <ele>12.6</ele>
        <time>2024-04-17T13:39:29Z</time>
      </trkpt>
      <trkpt lat="49.96262" lon="2.11979">
        <ele>12.6</ele>
        <time>2024-04-17T13:39:30Z</time>
      </trkpt>
      <trkpt lat="49.96261" lon="2.1198">
        <ele>12.6</ele>
        <time>2024-04-17T13:39:31Z</time>
      </trkpt>
      <trkpt lat="49.9626" lon="2.11981">
        <ele>12.6</ele>
        <time>2024-04-17T13:39:32Z</time>
      </trkpt>
      <trkpt lat="49.96259" lon="2.11982">
        <ele>12.6</ele>
        <time>2024-04-17T13:39:33Z</time>
      </trkpt>
      <trkpt lat="49.96258" lon="2.11983">
        <ele>12.6</ele>
        <time>2024-04-17T13:39:34Z</time>
      </trkpt>
      <trkpt lat="49.96258" lon="2.11984">
        <ele>12.6</ele>
        <time>2024-04-17T13:39:35Z</time>
      </trkpt>
      <trkpt lat="49.96257" lon="2.11985">
        <ele>12.6</ele>
        <time>2024-04-17T13:39:36Z</time>
      </trkpt>
      <trkpt lat="49.96256" lon="2.11986">
        <ele>12.6</ele>
        <time>2024-04-17T13:39:37Z</time>
      </trkpt>
      <trkpt lat="49.96255" lon="2.11987">
        <ele>12.6</ele>
        <time>2024-04-17T13:39:38Z</time>
      </trkpt>
      <trkpt lat="49.96254" lon="2.11988">
        <ele>12.6</ele>
        <time>2024-04-17T13:39:39Z</time>
      </trkpt>
      <trkpt lat="49.96254" lon="2.11989">
        <ele>12.6</ele>
        <time>2024-04-17T13:39:40Z</time>
      </trkpt>
      <trkpt lat="49.96253" lon="2.1199">
        <ele>12.6</ele>
        <time>2024-04-17T13:39:41Z</time>
      </trkpt>
      <trkpt lat="49.96252" lon="2.1199">
        <ele>12.6</ele>
        <time>2024-04-17T13:39:42Z</time>
      </trkpt>
      <trkpt lat="49.96251" lon="2.11992">
        <ele>12.6</ele>
        <time>2024-04-17T13:39:43Z</time>
      </trkpt>
      <trkpt lat="49.9625" lon="2.11993">
        <ele>12.6</ele>
        <time>2024-04-17T13:39:44Z</time>
      </trkpt>
      <trkpt lat="49.9625" lon="2.11994">
        <ele>12.6</ele>
        <time>2024-04-17T13:39:45Z</time>
      </trkpt>
      <trkpt lat="49.96249" lon="2.11995">
        <ele>12.6</ele>
        <time>2024-04-17T13:39:46Z</time>
      </trkpt>
      <trkpt lat="49.96248" lon="2.11996">
        <ele>12.6</ele>
        <time>2024-04-17T13:39:47Z</time>
      </trkpt>
      <trkpt lat="49.96247" lon="2.11997">
        <ele>12.6</ele>
        <time>2024-04-17T13:39:48Z</time>
      </trkpt>
      <trkpt lat="49.96246" lon="2.11998">
        <ele>12.6</ele>
        <time>2024-04-17T13:39:49Z</time>
      </trkpt>
      <trkpt lat="49.96245" lon="2.11999">
        <ele>12.6</ele>
        <time>2024-04-17T13:39:50Z</time>
      </trkpt>
      <trkpt lat="49.96244" lon="2.12001">
        <ele>12.6</ele>
        <time>2024-04-17T13:39:51Z</time>
      </trkpt>
      <trkpt lat="49.96243" lon="2.12002">
        <ele>12.6</ele>
        <time>2024-04-17T13:39:52Z</time>
      </trkpt>
      <trkpt lat="49.96242" lon="2.12003">
        <ele>12.6</ele>
        <time>2024-04-17T13:39:53Z</time>
      </trkpt>
      <trkpt lat="49.96241" lon="2.12004">
        <ele>12.6</ele>
        <time>2024-04-17T13:39:54Z</time>
      </trkpt>
      <trkpt lat="49.96241" lon="2.12004">
        <ele>12.6</ele>
        <time>2024-04-17T13:39:55Z</time>
      </trkpt>
      <trkpt lat="49.9624" lon="2.12006">
        <ele>12.6</ele>
        <time>2024-04-17T13:39:56Z</time>
      </trkpt>
      <trkpt lat="49.96239" lon="2.12007">
        <ele>12.6</ele>
        <time>2024-04-17T13:39:57Z</time>
      </trkpt>
      <trkpt lat="49.96239" lon="2.12008">
        <ele>12.6</ele>
        <time>2024-04-17T13:39:58Z</time>
      </trkpt>
      <trkpt lat="49.96239" lon="2.1201">
        <ele>12.6</ele>
        <time>2024-04-17T13:39:59Z</time>
      </trkpt>
      <trkpt lat="49.96239" lon="2.12012">
        <ele>12.6</ele>
        <time>2024-04-17T13:40:00Z</time>
      </trkpt>
      <trkpt lat="49.9624" lon="2.12015">
        <ele>12.6</ele>
        <time>2024-04-17T13:40:01Z</time>
      </trkpt>
      <trkpt lat="49.9624" lon="2.12017">
        <ele>12.6</ele>
        <time>2024-04-17T13:40:02Z</time>
      </trkpt>
      <trkpt lat="49.9624" lon="2.12018">
        <ele>12.6</ele>
        <time>2024-04-17T13:40:03Z</time>
      </trkpt>
      <trkpt lat="49.96241" lon="2.12021">
        <ele>12.6</ele>
        <time>2024-04-17T13:40:04Z</time>
      </trkpt>
      <trkpt lat="49.96242" lon="2.12022">
        <ele>12.6</ele>
        <time>2024-04-17T13:40:05Z</time>
      </trkpt>
      <trkpt lat="49.96242" lon="2.12023">
        <ele>12.6</ele>
        <time>2024-04-17T13:40:06Z</time>
      </trkpt>
      <trkpt lat="49.96243" lon="2.12026">
        <ele>12.6</ele>
        <time>2024-04-17T13:40:07Z</time>
      </trkpt>
      <trkpt lat="49.96244" lon="2.12028">
        <ele>12.6</ele>
        <time>2024-04-17T13:40:08Z</time>
      </trkpt>
      <trkpt lat="49.96244" lon="2.12029">
        <ele>12.6</ele>
        <time>2024-04-17T13:40:09Z</time>
      </trkpt>
      <trkpt lat="49.96245" lon="2.1203">
        <ele>12.6</ele>
        <time>2024-04-17T13:40:10Z</time>
      </trkpt>
      <trkpt lat="49.96246" lon="2.12032">
        <ele>12.5</ele>
        <time>2024-04-17T13:40:11Z</time>
      </trkpt>
      <trkpt lat="49.96247" lon="2.12034">
        <ele>12.5</ele>
        <time>2024-04-17T13:40:12Z</time>
      </trkpt>
      <trkpt lat="49.96247" lon="2.12036">
        <ele>12.5</ele>
        <time>2024-04-17T13:40:13Z</time>
      </trkpt>
      <trkpt lat="49.96248" lon="2.12039">
        <ele>12.5</ele>
        <time>2024-04-17T13:40:14Z</time>
      </trkpt>
      <trkpt lat="49.96249" lon="2.12041">
        <ele>12.5</ele>
        <time>2024-04-17T13:40:15Z</time>
      </trkpt>
      <trkpt lat="49.96249" lon="2.12042">
        <ele>12.5</ele>
        <time>2024-04-17T13:40:16Z</time>
      </trkpt>
      <trkpt lat="49.9625" lon="2.12044">
        <ele>12.5</ele>
        <time>2024-04-17T13:40:17Z</time>
      </trkpt>
      <trkpt lat="49.96251" lon="2.12045">
        <ele>12.5</ele>
        <time>2024-04-17T13:40:18Z</time>
      </trkpt>
      <trkpt lat="49.96252" lon="2.12046">
        <ele>12.5</ele>
        <time>2024-04-17T13:40:19Z</time>
      </trkpt>
      <trkpt lat="49.96252" lon="2.12048">
        <ele>12.4</ele>
        <time>2024-04-17T13:40:20Z</time>
      </trkpt>
      <trkpt lat="49.96253" lon="2.12049">
        <ele>12.4</ele>
        <time>2024-04-17T13:40:21Z</time>
      </trkpt>
      <trkpt lat="49.96254" lon="2.1205">
        <ele>12.4</ele>
        <time>2024-04-17T13:40:22Z</time>
      </trkpt>
      <trkpt lat="49.96254" lon="2.12051">
        <ele>12.4</ele>
        <time>2024-04-17T13:40:23Z</time>
      </trkpt>
      <trkpt lat="49.96255" lon="2.12052">
        <ele>12.4</ele>
        <time>2024-04-17T13:40:24Z</time>
      </trkpt>
      <trkpt lat="49.96256" lon="2.12054">
        <ele>12.4</ele>
        <time>2024-04-17T13:40:25Z</time>
      </trkpt>
      <trkpt lat="49.96257" lon="2.12055">
        <ele>12.4</ele>
        <time>2024-04-17T13:40:26Z</time>
      </trkpt>
      <trkpt lat="49.96257" lon="2.12056">
        <ele>12.4</ele>
        <time>2024-04-17T13:40:27Z</time>
      </trkpt>
      <trkpt lat="49.96258" lon="2.12057">
        <ele>12.4</ele>
        <time>2024-04-17T13:40:28Z</time>
      </trkpt>
      <trkpt lat="49.96259" lon="2.12058">
        <ele>12.4</ele>
        <time>2024-04-17T13:40:29Z</time>
      </trkpt>
      <trkpt lat="49.96259" lon="2.12059">
        <ele>12.4</ele>
        <time>2024-04-17T13:40:30Z</time>
      </trkpt>
      <trkpt lat="49.96259" lon="2.1206">
        <ele>12.4</ele>
        <time>2024-04-17T13:40:31Z</time>
      </trkpt>
      <trkpt lat="49.9626" lon="2.12061">
        <ele>12.4</ele>
        <time>2024-04-17T13:40:32Z</time>
      </trkpt>
      <trkpt lat="49.96261" lon="2.12062">
        <ele>12.4</ele>
        <time>2024-04-17T13:40:33Z</time>
      </trkpt>
      <trkpt lat="49.96261" lon="2.12063">
        <ele>12.4</ele>
        <time>2024-04-17T13:40:34Z</time>
      </trkpt>
      <trkpt lat="49.96262" lon="2.12063">
        <ele>12.4</ele>
        <time>2024-04-17T13:40:35Z</time>
      </trkpt>
      <trkpt lat="49.96262" lon="2.12064">
        <ele>12.4</ele>
        <time>2024-04-17T13:40:36Z</time>
      </trkpt>
      <trkpt lat="49.96262" lon="2.12065">
        <ele>12.4</ele>
        <time>2024-04-17T13:40:37Z</time>
      </trkpt>
      <trkpt lat="49.96263" lon="2.12066">
        <ele>12.4</ele>
        <time>2024-04-17T13:40:38Z</time>
      </trkpt>
      <trkpt lat="49.96263" lon="2.12067">
        <ele>12.4</ele>
        <time>2024-04-17T13:40:39Z</time>
      </trkpt>
      <trkpt lat="49.96263" lon="2.12067">
        <ele>12.4</ele>
        <time>2024-04-17T13:40:40Z</time>
      </trkpt>
      <trkpt lat="49.96263" lon="2.12067">
        <ele>12.4</ele>
        <time>2024-04-17T13:40:41Z</time>
      </trkpt>
      <trkpt lat="49.96263" lon="2.12067">
        <ele>12.4</ele>
        <time>2024-04-17T13:40:42Z</time>
      </trkpt>
      <trkpt lat="49.96263" lon="2.12067">
        <ele>12.4</ele>
        <time>2024-04-17T13:40:43Z</time>
      </trkpt>
      <trkpt lat="49.96263" lon="2.12067">
        <ele>12.4</ele>
        <time>2024-04-17T13:40:44Z</time>
      </trkpt>
      <trkpt lat="49.96263" lon="2.12067">
        <ele>12.4</ele>
        <time>2024-04-17T13:40:45Z</time>
      </trkpt>
      <trkpt lat="49.96263" lon="2.12067">
        <ele>12.4</ele>
        <time>2024-04-17T13:40:46Z</time>
      </trkpt>
      <trkpt lat="49.96263" lon="2.12067">
        <ele>12.4</ele>
        <time>2024-04-17T13:40:47Z</time>
      </trkpt>
      <trkpt lat="49.96263" lon="2.12067">
        <ele>12.4</ele>
        <time>2024-04-17T13:40:48Z</time>
      </trkpt>
      <trkpt lat="49.96263" lon="2.12067">
        <ele>12.4</ele>
        <time>2024-04-17T13:40:49Z</time>
      </trkpt>
      <trkpt lat="49.96263" lon="2.12066">
        <ele>12.4</ele>
        <time>2024-04-17T13:40:50Z</time>
      </trkpt>
      <trkpt lat="49.96263" lon="2.12066">
        <ele>12.4</ele>
        <time>2024-04-17T13:40:51Z</time>
      </trkpt>
      <trkpt lat="49.96263" lon="2.12066">
        <ele>12.4</ele>
        <time>2024-04-17T13:40:52Z</time>
      </trkpt>
      <trkpt lat="49.96263" lon="2.12066">
        <ele>12.4</ele>
        <time>2024-04-17T13:40:53Z</time>
      </trkpt>
      <trkpt lat="49.96262" lon="2.12066">
        <ele>12.4</ele>
        <time>2024-04-17T13:40:54Z</time>
      </trkpt>
      <trkpt lat="49.96262" lon="2.12066">
        <ele>12.4</ele>
        <time>2024-04-17T13:40:55Z</time>
      </trkpt>
      <trkpt lat="49.96263" lon="2.12066">
        <ele>12.4</ele>
        <time>2024-04-17T13:40:56Z</time>
      </trkpt>
      <trkpt lat="49.96263" lon="2.12066">
        <ele>12.4</ele>
        <time>2024-04-17T13:40:57Z</time>
      </trkpt>
      <trkpt lat="49.96263" lon="2.12066">
        <ele>12.4</ele>
        <time>2024-04-17T13:40:58Z</time>
      </trkpt>
      <trkpt lat="49.96263" lon="2.12066">
        <ele>12.4</ele>
        <time>2024-04-17T13:40:59Z</time>
      </trkpt>
      <trkpt lat="49.96263" lon="2.12066">
        <ele>12.4</ele>
        <time>2024-04-17T13:41:00Z</time>
      </trkpt>
      <trkpt lat="49.96263" lon="2.12066">
        <ele>12.4</ele>
        <time>2024-04-17T13:41:01Z</time>
      </trkpt>
      <trkpt lat="49.96263" lon="2.12066">
        <ele>12.4</ele>
        <time>2024-04-17T13:41:02Z</time>
      </trkpt>
      <trkpt lat="49.96263" lon="2.12066">
        <ele>12.4</ele>
        <time>2024-04-17T13:41:03Z</time>
      </trkpt>
      <trkpt lat="49.96263" lon="2.12066">
        <ele>12.4</ele>
        <time>2024-04-17T13:41:04Z</time>
      </trkpt>
      <trkpt lat="49.96263" lon="2.12066">
        <ele>12.4</ele>
        <time>2024-04-17T13:41:05Z</time>
      </trkpt>
      <trkpt lat="49.96263" lon="2.12066">
        <ele>12.4</ele>
        <time>2024-04-17T13:41:06Z</time>
      </trkpt>
      <trkpt lat="49.96263" lon="2.12066">
        <ele>12.4</ele>
        <time>2024-04-17T13:41:07Z</time>
      </trkpt>
      <trkpt lat="49.96263" lon="2.12066">
        <ele>12.4</ele>
        <time>2024-04-17T13:41:08Z</time>
      </trkpt>
      <trkpt lat="49.96263" lon="2.12066">
        <ele>12.4</ele>
        <time>2024-04-17T13:41:09Z</time>
      </trkpt>
      <trkpt lat="49.96263" lon="2.12066">
        <ele>12.4</ele>
        <time>2024-04-17T13:41:10Z</time>
      </trkpt>
      <trkpt lat="49.96263" lon="2.12066">
        <ele>12.4</ele>
        <time>2024-04-17T13:41:11Z</time>
      </trkpt>
      <trkpt lat="49.96263" lon="2.12066">
        <ele>12.4</ele>
        <time>2024-04-17T13:41:12Z</time>
      </trkpt>
      <trkpt lat="49.96263" lon="2.12066">
        <ele>12.4</ele>
        <time>2024-04-17T13:41:13Z</time>
      </trkpt>
      <trkpt lat="49.96263" lon="2.12066">
        <ele>12.4</ele>
        <time>2024-04-17T13:41:14Z</time>
      </trkpt>
      <trkpt lat="49.96263" lon="2.12066">
        <ele>12.4</ele>
        <time>2024-04-17T13:41:15Z</time>
      </trkpt>
      <trkpt lat="49.96263" lon="2.12066">
        <ele>12.4</ele>
        <time>2024-04-17T13:41:16Z</time>
      </trkpt>
      <trkpt lat="49.96263" lon="2.12066">
        <ele>12.4</ele>
        <time>2024-04-17T13:41:17Z</time>
      </trkpt>
      <trkpt lat="49.96263" lon="2.12066">
        <ele>12.4</ele>
        <time>2024-04-17T13:41:18Z</time>
      </trkpt>
      <trkpt lat="49.96263" lon="2.12066">
        <ele>12.4</ele>
        <time>2024-04-17T13:41:19Z</time>
      </trkpt>
      <trkpt lat="49.96263" lon="2.12066">
        <ele>12.4</ele>
        <time>2024-04-17T13:41:20Z</time>
      </trkpt>
      <trkpt lat="49.96263" lon="2.12066">
        <ele>12.4</ele>
        <time>2024-04-17T13:41:21Z</time>
      </trkpt>
      <trkpt lat="49.96263" lon="2.12066">
        <ele>12.4</ele>
        <time>2024-04-17T13:41:22Z</time>
      </trkpt>
      <trkpt lat="49.96263" lon="2.12066">
        <ele>12.4</ele>
        <time>2024-04-17T13:41:23Z</time>
      </trkpt>
      <trkpt lat="49.96263" lon="2.12066">
        <ele>12.4</ele>
        <time>2024-04-17T13:41:24Z</time>
      </trkpt>
      <trkpt lat="49.96263" lon="2.12066">
        <ele>12.4</ele>
        <time>2024-04-17T13:41:25Z</time>
      </trkpt>
      <trkpt lat="49.96263" lon="2.12066">
        <ele>12.4</ele>
        <time>2024-04-17T13:41:26Z</time>
      </trkpt>
      <trkpt lat="49.96263" lon="2.12066">
        <ele>12.4</ele>
        <time>2024-04-17T13:41:27Z</time>
      </trkpt>
      <trkpt lat="49.96263" lon="2.12066">
        <ele>12.4</ele>
        <time>2024-04-17T13:41:28Z</time>
      </trkpt>
      <trkpt lat="49.96263" lon="2.12066">
        <ele>12.4</ele>
        <time>2024-04-17T13:41:29Z</time>
      </trkpt>
      <trkpt lat="49.96263" lon="2.12066">
        <ele>12.4</ele>
        <time>2024-04-17T13:41:30Z</time>
      </trkpt>
      <trkpt lat="49.96263" lon="2.12066">
        <ele>12.4</ele>
        <time>2024-04-17T13:41:31Z</time>
      </trkpt>
      <trkpt lat="49.96263" lon="2.12066">
        <ele>12.4</ele>
        <time>2024-04-17T13:41:32Z</time>
      </trkpt>
      <trkpt lat="49.96263" lon="2.12066">
        <ele>12.4</ele>
        <time>2024-04-17T13:41:33Z</time>
      </trkpt>
      <trkpt lat="49.96263" lon="2.12066">
        <ele>12.4</ele>
        <time>2024-04-17T13:41:34Z</time>
      </trkpt>
      <trkpt lat="49.96263" lon="2.12066">
        <ele>12.4</ele>
        <time>2024-04-17T13:41:35Z</time>
      </trkpt>
      <trkpt lat="49.96263" lon="2.12066">
        <ele>12.4</ele>
        <time>2024-04-17T13:41:36Z</time>
      </trkpt>
      <trkpt lat="49.96263" lon="2.12066">
        <ele>12.4</ele>
        <time>2024-04-17T13:41:37Z</time>
      </trkpt>
      <trkpt lat="49.96263" lon="2.12066">
        <ele>12.4</ele>
        <time>2024-04-17T13:41:38Z</time>
      </trkpt>
      <trkpt lat="49.96263" lon="2.12066">
        <ele>12.4</ele>
        <time>2024-04-17T13:41:39Z</time>
      </trkpt>
      <trkpt lat="49.96263" lon="2.12066">
        <ele>12.4</ele>
        <time>2024-04-17T13:41:40Z</time>
      </trkpt>
      <trkpt lat="49.96263" lon="2.12066">
        <ele>12.4</ele>
        <time>2024-04-17T13:41:41Z</time>
      </trkpt>
      <trkpt lat="49.96263" lon="2.12066">
        <ele>12.4</ele>
        <time>2024-04-17T13:41:42Z</time>
      </trkpt>
      <trkpt lat="49.96263" lon="2.12066">
        <ele>12.4</ele>
        <time>2024-04-17T13:41:43Z</time>
      </trkpt>
      <trkpt lat="49.96263" lon="2.12066">
        <ele>12.4</ele>
        <time>2024-04-17T13:41:44Z</time>
      </trkpt>
      <trkpt lat="49.96263" lon="2.12066">
        <ele>12.4</ele>
        <time>2024-04-17T13:41:45Z</time>
      </trkpt>
      <trkpt lat="49.96263" lon="2.12066">
        <ele>12.4</ele>
        <time>2024-04-17T13:41:46Z</time>
      </trkpt>
      <trkpt lat="49.96261" lon="2.12061">
        <ele>12.4</ele>
        <time>2024-04-17T13:41:47Z</time>
      </trkpt>
      <trkpt lat="49.96261" lon="2.12061">
        <ele>12.4</ele>
        <time>2024-04-17T13:41:48Z</time>
      </trkpt>
      <trkpt lat="49.96261" lon="2.12061">
        <ele>12.4</ele>
        <time>2024-04-17T13:41:49Z</time>
      </trkpt>
      <trkpt lat="49.96261" lon="2.12061">
        <ele>12.4</ele>
        <time>2024-04-17T13:41:50Z</time>
      </trkpt>
      <trkpt lat="49.96261" lon="2.12061">
        <ele>12.4</ele>
        <time>2024-04-17T13:41:51Z</time>
      </trkpt>
      <trkpt lat="49.96261" lon="2.12061">
        <ele>12.4</ele>
        <time>2024-04-17T13:41:52Z</time>
      </trkpt>
      <trkpt lat="49.96261" lon="2.12061">
        <ele>12.4</ele>
        <time>2024-04-17T13:41:53Z</time>
      </trkpt>
      <trkpt lat="49.96261" lon="2.12061">
        <ele>12.4</ele>
        <time>2024-04-17T13:41:54Z</time>
      </trkpt>
      <trkpt lat="49.96261" lon="2.12061">
        <ele>12.4</ele>
        <time>2024-04-17T13:41:55Z</time>
      </trkpt>
      <trkpt lat="49.96261" lon="2.12061">
        <ele>12.4</ele>
        <time>2024-04-17T13:41:56Z</time>
      </trkpt>
      <trkpt lat="49.96261" lon="2.12061">
        <ele>12.4</ele>
        <time>2024-04-17T13:41:57Z</time>
      </trkpt>
      <trkpt lat="49.96261" lon="2.12061">
        <ele>12.4</ele>
        <time>2024-04-17T13:41:58Z</time>
      </trkpt>
      <trkpt lat="49.96261" lon="2.12061">
        <ele>12.4</ele>
        <time>2024-04-17T13:41:59Z</time>
      </trkpt>
      <trkpt lat="49.96261" lon="2.12061">
        <ele>12.4</ele>
        <time>2024-04-17T13:42:00Z</time>
      </trkpt>
      <trkpt lat="49.96261" lon="2.12061">
        <ele>12.4</ele>
        <time>2024-04-17T13:42:01Z</time>
      </trkpt>
      <trkpt lat="49.96261" lon="2.12061">
        <ele>12.4</ele>
        <time>2024-04-17T13:42:02Z</time>
      </trkpt>
      <trkpt lat="49.96261" lon="2.12061">
        <ele>12.4</ele>
        <time>2024-04-17T13:42:03Z</time>
      </trkpt>
      <trkpt lat="49.96261" lon="2.12061">
        <ele>12.4</ele>
        <time>2024-04-17T13:42:04Z</time>
      </trkpt>
      <trkpt lat="49.96261" lon="2.12061">
        <ele>12.4</ele>
        <time>2024-04-17T13:42:05Z</time>
      </trkpt>
      <trkpt lat="49.96261" lon="2.12061">
        <ele>12.4</ele>
        <time>2024-04-17T13:42:06Z</time>
      </trkpt>
      <trkpt lat="49.96261" lon="2.12061">
        <ele>12.4</ele>
        <time>2024-04-17T13:42:07Z</time>
      </trkpt>
      <trkpt lat="49.96261" lon="2.12061">
        <ele>12.4</ele>
        <time>2024-04-17T13:42:08Z</time>
      </trkpt>
      <trkpt lat="49.96261" lon="2.12061">
        <ele>12.4</ele>
        <time>2024-04-17T13:42:09Z</time>
      </trkpt>
      <trkpt lat="49.96261" lon="2.12061">
        <ele>12.4</ele>
        <time>2024-04-17T13:42:10Z</time>
      </trkpt>
      <trkpt lat="49.96261" lon="2.12061">
        <ele>12.4</ele>
        <time>2024-04-17T13:42:11Z</time>
      </trkpt>
      <trkpt lat="49.96261" lon="2.12061">
        <ele>12.4</ele>
        <time>2024-04-17T13:42:12Z</time>
      </trkpt>
      <trkpt lat="49.96261" lon="2.12061">
        <ele>12.4</ele>
        <time>2024-04-17T13:42:13Z</time>
      </trkpt>
      <trkpt lat="49.96261" lon="2.12061">
        <ele>12.4</ele>
        <time>2024-04-17T13:42:14Z</time>
      </trkpt>
      <trkpt lat="49.96261" lon="2.12061">
        <ele>12.4</ele>
        <time>2024-04-17T13:42:15Z</time>
      </trkpt>
      <trkpt lat="49.96261" lon="2.12061">
        <ele>12.4</ele>
        <time>2024-04-17T13:42:16Z</time>
      </trkpt>
      <trkpt lat="49.96261" lon="2.12061">
        <ele>12.4</ele>
        <time>2024-04-17T13:42:17Z</time>
      </trkpt>
      <trkpt lat="49.96261" lon="2.12061">
        <ele>12.4</ele>
        <time>2024-04-17T13:42:18Z</time>
      </trkpt>
      <trkpt lat="49.96261" lon="2.12061">
        <ele>12.4</ele>
        <time>2024-04-17T13:42:19Z</time>
      </trkpt>
      <trkpt lat="49.96261" lon="2.12061">
        <ele>12.4</ele>
        <time>2024-04-17T13:42:20Z</time>
      </trkpt>
      <trkpt lat="49.96261" lon="2.12061">
        <ele>12.4</ele>
        <time>2024-04-17T13:42:21Z</time>
      </trkpt>
      <trkpt lat="49.96261" lon="2.12061">
        <ele>12.4</ele>
        <time>2024-04-17T13:42:22Z</time>
      </trkpt>
      <trkpt lat="49.96261" lon="2.12061">
        <ele>12.4</ele>
        <time>2024-04-17T13:42:23Z</time>
      </trkpt>
      <trkpt lat="49.96261" lon="2.12061">
        <ele>12.4</ele>
        <time>2024-04-17T13:42:24Z</time>
      </trkpt>
      <trkpt lat="49.96261" lon="2.12061">
        <ele>12.4</ele>
        <time>2024-04-17T13:42:25Z</time>
      </trkpt>
      <trkpt lat="49.96261" lon="2.12061">
        <ele>12.4</ele>
        <time>2024-04-17T13:42:26Z</time>
      </trkpt>
      <trkpt lat="49.96261" lon="2.12061">
        <ele>12.4</ele>
        <time>2024-04-17T13:42:27Z</time>
      </trkpt>
      <trkpt lat="49.96261" lon="2.12061">
        <ele>12.4</ele>
        <time>2024-04-17T13:42:28Z</time>
      </trkpt>
      <trkpt lat="49.96261" lon="2.12061">
        <ele>12.4</ele>
        <time>2024-04-17T13:42:29Z</time>
      </trkpt>
      <trkpt lat="49.96261" lon="2.12061">
        <ele>12.4</ele>
        <time>2024-04-17T13:42:30Z</time>
      </trkpt>
      <trkpt lat="49.96261" lon="2.12061">
        <ele>12.4</ele>
        <time>2024-04-17T13:42:31Z</time>
      </trkpt>
      <trkpt lat="49.96261" lon="2.12061">
        <ele>12.4</ele>
        <time>2024-04-17T13:42:32Z</time>
      </trkpt>
      <trkpt lat="49.96261" lon="2.12061">
        <ele>12.4</ele>
        <time>2024-04-17T13:42:33Z</time>
      </trkpt>
      <trkpt lat="49.96261" lon="2.12061">
        <ele>12.4</ele>
        <time>2024-04-17T13:42:34Z</time>
      </trkpt>
      <trkpt lat="49.96261" lon="2.12061">
        <ele>12.4</ele>
        <time>2024-04-17T13:42:35Z</time>
      </trkpt>
      <trkpt lat="49.96261" lon="2.12061">
        <ele>12.4</ele>
        <time>2024-04-17T13:42:36Z</time>
      </trkpt>
      <trkpt lat="49.96261" lon="2.12061">
        <ele>12.4</ele>
        <time>2024-04-17T13:42:37Z</time>
      </trkpt>
      <trkpt lat="49.96261" lon="2.12061">
        <ele>12.4</ele>
        <time>2024-04-17T13:42:38Z</time>
      </trkpt>
      <trkpt lat="49.96261" lon="2.12061">
        <ele>12.4</ele>
        <time>2024-04-17T13:42:39Z</time>
      </trkpt>
      <trkpt lat="49.96261" lon="2.12061">
        <ele>12.4</ele>
        <time>2024-04-17T13:42:40Z</time>
      </trkpt>
      <trkpt lat="49.96261" lon="2.12061">
        <ele>12.4</ele>
        <time>2024-04-17T13:42:41Z</time>
      </trkpt>
      <trkpt lat="49.96261" lon="2.12061">
        <ele>12.4</ele>
        <time>2024-04-17T13:42:42Z</time>
      </trkpt>
      <trkpt lat="49.96261" lon="2.12061">
        <ele>12.4</ele>
        <time>2024-04-17T13:42:43Z</time>
      </trkpt>
      <trkpt lat="49.96261" lon="2.12061">
        <ele>12.4</ele>
        <time>2024-04-17T13:42:44Z</time>
      </trkpt>
      <trkpt lat="49.96261" lon="2.12061">
        <ele>12.4</ele>
        <time>2024-04-17T13:42:45Z</time>
      </trkpt>
      <trkpt lat="49.96261" lon="2.12061">
        <ele>12.4</ele>
        <time>2024-04-17T13:42:46Z</time>
      </trkpt>
      <trkpt lat="49.96261" lon="2.12061">
        <ele>12.4</ele>
        <time>2024-04-17T13:42:47Z</time>
      </trkpt>
      <trkpt lat="49.96261" lon="2.12061">
        <ele>12.4</ele>
        <time>2024-04-17T13:42:48Z</time>
      </trkpt>
      <trkpt lat="49.96261" lon="2.12061">
        <ele>12.4</ele>
        <time>2024-04-17T13:42:49Z</time>
      </trkpt>
      <trkpt lat="49.96261" lon="2.12061">
        <ele>12.4</ele>
        <time>2024-04-17T13:42:50Z</time>
      </trkpt>
      <trkpt lat="49.96261" lon="2.12061">
        <ele>12.4</ele>
        <time>2024-04-17T13:42:51Z</time>
      </trkpt>
      <trkpt lat="49.96261" lon="2.12061">
        <ele>12.4</ele>
        <time>2024-04-17T13:42:52Z</time>
      </trkpt>
      <trkpt lat="49.96261" lon="2.12061">
        <ele>12.4</ele>
        <time>2024-04-17T13:42:53Z</time>
      </trkpt>
      <trkpt lat="49.96261" lon="2.12061">
        <ele>12.4</ele>
        <time>2024-04-17T13:42:54Z</time>
      </trkpt>
      <trkpt lat="49.96261" lon="2.12061">
        <ele>12.4</ele>
        <time>2024-04-17T13:42:55Z</time>
      </trkpt>
      <trkpt lat="49.96261" lon="2.12061">
        <ele>12.4</ele>
        <time>2024-04-17T13:42:56Z</time>
      </trkpt>
      <trkpt lat="49.96261" lon="2.12061">
        <ele>12.4</ele>
        <time>2024-04-17T13:42:57Z</time>
      </trkpt>
      <trkpt lat="49.96261" lon="2.12061">
        <ele>12.4</ele>
        <time>2024-04-17T13:42:58Z</time>
      </trkpt>
      <trkpt lat="49.96261" lon="2.12061">
        <ele>12.4</ele>
        <time>2024-04-17T13:42:59Z</time>
      </trkpt>
      <trkpt lat="49.96261" lon="2.12061">
        <ele>12.4</ele>
        <time>2024-04-17T13:43:00Z</time>
      </trkpt>
      <trkpt lat="49.96261" lon="2.12061">
        <ele>12.4</ele>
        <time>2024-04-17T13:43:01Z</time>
      </trkpt>
      <trkpt lat="49.96261" lon="2.12061">
        <ele>12.4</ele>
        <time>2024-04-17T13:43:02Z</time>
      </trkpt>
      <trkpt lat="49.96261" lon="2.12061">
        <ele>12.4</ele>
        <time>2024-04-17T13:43:03Z</time>
      </trkpt>
      <trkpt lat="49.96261" lon="2.12061">
        <ele>12.4</ele>
        <time>2024-04-17T13:43:04Z</time>
      </trkpt>
      <trkpt lat="49.96261" lon="2.12061">
        <ele>12.4</ele>
        <time>2024-04-17T13:43:05Z</time>
      </trkpt>
      <trkpt lat="49.96261" lon="2.12061">
        <ele>12.4</ele>
        <time>2024-04-17T13:43:06Z</time>
      </trkpt>
      <trkpt lat="49.96261" lon="2.12061">
        <ele>12.4</ele>
        <time>2024-04-17T13:43:07Z</time>
      </trkpt>
      <trkpt lat="49.96261" lon="2.12061">
        <ele>12.4</ele>
        <time>2024-04-17T13:43:08Z</time>
      </trkpt>
      <trkpt lat="49.96261" lon="2.12061">
        <ele>12.4</ele>
        <time>2024-04-17T13:43:09Z</time>
      </trkpt>
      <trkpt lat="49.96261" lon="2.12061">
        <ele>12.4</ele>
        <time>2024-04-17T13:43:10Z</time>
      </trkpt>
      <trkpt lat="49.96261" lon="2.12061">
        <ele>12.4</ele>
        <time>2024-04-17T13:43:11Z</time>
      </trkpt>
      <trkpt lat="49.96261" lon="2.12061">
        <ele>12.4</ele>
        <time>2024-04-17T13:43:12Z</time>
      </trkpt>
      <trkpt lat="49.96261" lon="2.12061">
        <ele>12.4</ele>
        <time>2024-04-17T13:43:13Z</time>
      </trkpt>
      <trkpt lat="49.96261" lon="2.12061">
        <ele>12.4</ele>
        <time>2024-04-17T13:43:14Z</time>
      </trkpt>
      <trkpt lat="49.96261" lon="2.12061">
        <ele>12.4</ele>
        <time>2024-04-17T13:43:15Z</time>
      </trkpt>
      <trkpt lat="49.96261" lon="2.12061">
        <ele>12.4</ele>
        <time>2024-04-17T13:43:16Z</time>
      </trkpt>
      <trkpt lat="49.96261" lon="2.12061">
        <ele>12.4</ele>
        <time>2024-04-17T13:43:17Z</time>
      </trkpt>
      <trkpt lat="49.96261" lon="2.12061">
        <ele>12.4</ele>
        <time>2024-04-17T13:43:18Z</time>
      </trkpt>
      <trkpt lat="49.96261" lon="2.12061">
        <ele>12.4</ele>
        <time>2024-04-17T13:43:19Z</time>
      </trkpt>
      <trkpt lat="49.96261" lon="2.12061">
        <ele>12.4</ele>
        <time>2024-04-17T13:43:20Z</time>
      </trkpt>
      <trkpt lat="49.96261" lon="2.12061">
        <ele>12.4</ele>
        <time>2024-04-17T13:43:21Z</time>
      </trkpt>
      <trkpt lat="49.96261" lon="2.12061">
        <ele>12.4</ele>
        <time>2024-04-17T13:43:22Z</time>
      </trkpt>
      <trkpt lat="49.96261" lon="2.12061">
        <ele>12.4</ele>
        <time>2024-04-17T13:43:23Z</time>
      </trkpt>
      <trkpt lat="49.96261" lon="2.12061">
        <ele>12.4</ele>
        <time>2024-04-17T13:43:24Z</time>
      </trkpt>
      <trkpt lat="49.96261" lon="2.12061">
        <ele>12.4</ele>
        <time>2024-04-17T13:43:25Z</time>
      </trkpt>
      <trkpt lat="49.96261" lon="2.12061">
        <ele>12.4</ele>
        <time>2024-04-17T13:43:26Z</time>
      </trkpt>
      <trkpt lat="49.96261" lon="2.12061">
        <ele>12.4</ele>
        <time>2024-04-17T13:43:27Z</time>
      </trkpt>
      <trkpt lat="49.96261" lon="2.12061">
        <ele>12.4</ele>
        <time>2024-04-17T13:43:28Z</time>
      </trkpt>
      <trkpt lat="49.96261" lon="2.12061">
        <ele>12.4</ele>
        <time>2024-04-17T13:43:29Z</time>
      </trkpt>
      <trkpt lat="49.96261" lon="2.12061">
        <ele>12.4</ele>
        <time>2024-04-17T13:43:30Z</time>
      </trkpt>
      <trkpt lat="49.96261" lon="2.12061">
        <ele>12.4</ele>
        <time>2024-04-17T13:43:31Z</time>
      </trkpt>
      <trkpt lat="49.96261" lon="2.12061">
        <ele>12.4</ele>
        <time>2024-04-17T13:43:32Z</time>
      </trkpt>
      <trkpt lat="49.96261" lon="2.12061">
        <ele>12.4</ele>
        <time>2024-04-17T13:43:33Z</time>
      </trkpt>
      <trkpt lat="49.96261" lon="2.12061">
        <ele>12.4</ele>
        <time>2024-04-17T13:43:34Z</time>
      </trkpt>
      <trkpt lat="49.96261" lon="2.12061">
        <ele>12.4</ele>
        <time>2024-04-17T13:43:35Z</time>
      </trkpt>
      <trkpt lat="49.96261" lon="2.12061">
        <ele>12.4</ele>
        <time>2024-04-17T13:43:36Z</time>
      </trkpt>
      <trkpt lat="49.96261" lon="2.12061">
        <ele>12.4</ele>
        <time>2024-04-17T13:43:37Z</time>
      </trkpt>
      <trkpt lat="49.96261" lon="2.12061">
        <ele>12.4</ele>
        <time>2024-04-17T13:43:38Z</time>
      </trkpt>
      <trkpt lat="49.96261" lon="2.12061">
        <ele>12.4</ele>
        <time>2024-04-17T13:43:39Z</time>
      </trkpt>
      <trkpt lat="49.96261" lon="2.12061">
        <ele>12.4</ele>
        <time>2024-04-17T13:43:40Z</time>
      </trkpt>
      <trkpt lat="49.96261" lon="2.12061">
        <ele>12.4</ele>
        <time>2024-04-17T13:43:41Z</time>
      </trkpt>
      <trkpt lat="49.96261" lon="2.12061">
        <ele>12.4</ele>
        <time>2024-04-17T13:43:42Z</time>
      </trkpt>
      <trkpt lat="49.96261" lon="2.12061">
        <ele>12.4</ele>
        <time>2024-04-17T13:43:43Z</time>
      </trkpt>
      <trkpt lat="49.96261" lon="2.12061">
        <ele>12.4</ele>
        <time>2024-04-17T13:43:44Z</time>
      </trkpt>
      <trkpt lat="49.96261" lon="2.12061">
        <ele>12.4</ele>
        <time>2024-04-17T13:43:45Z</time>
      </trkpt>
      <trkpt lat="49.96261" lon="2.12061">
        <ele>12.4</ele>
        <time>2024-04-17T13:43:46Z</time>
      </trkpt>
      <trkpt lat="49.96261" lon="2.12061">
        <ele>12.4</ele>
        <time>2024-04-17T13:43:47Z</time>
      </trkpt>
      <trkpt lat="49.96261" lon="2.12061">
        <ele>12.4</ele>
        <time>2024-04-17T13:43:48Z</time>
      </trkpt>
      <trkpt lat="49.96261" lon="2.12061">
        <ele>12.4</ele>
        <time>2024-04-17T13:43:49Z</time>
      </trkpt>
      <trkpt lat="49.96261" lon="2.12061">
        <ele>12.4</ele>
        <time>2024-04-17T13:43:50Z</time>
      </trkpt>
      <trkpt lat="49.96261" lon="2.12061">
        <ele>12.4</ele>
        <time>2024-04-17T13:43:51Z</time>
      </trkpt>
      <trkpt lat="49.96261" lon="2.12061">
        <ele>12.4</ele>
        <time>2024-04-17T13:43:52Z</time>
      </trkpt>
      <trkpt lat="49.96261" lon="2.12061">
        <ele>12.4</ele>
        <time>2024-04-17T13:43:53Z</time>
      </trkpt>
      <trkpt lat="49.96261" lon="2.12061">
        <ele>12.4</ele>
        <time>2024-04-17T13:43:54Z</time>
      </trkpt>
      <trkpt lat="49.96261" lon="2.12061">
        <ele>12.4</ele>
        <time>2024-04-17T13:43:55Z</time>
      </trkpt>
      <trkpt lat="49.96261" lon="2.12061">
        <ele>12.4</ele>
        <time>2024-04-17T13:43:56Z</time>
      </trkpt>
      <trkpt lat="49.96261" lon="2.12061">
        <ele>12.4</ele>
        <time>2024-04-17T13:43:57Z</time>
      </trkpt>
      <trkpt lat="49.96261" lon="2.12061">
        <ele>12.4</ele>
        <time>2024-04-17T13:43:58Z</time>
      </trkpt>
      <trkpt lat="49.96261" lon="2.12061">
        <ele>12.4</ele>
        <time>2024-04-17T13:43:59Z</time>
      </trkpt>
      <trkpt lat="49.96261" lon="2.12061">
        <ele>12.4</ele>
        <time>2024-04-17T13:44:00Z</time>
      </trkpt>
      <trkpt lat="49.96261" lon="2.12061">
        <ele>12.4</ele>
        <time>2024-04-17T13:44:01Z</time>
      </trkpt>
      <trkpt lat="49.96261" lon="2.12061">
        <ele>12.4</ele>
        <time>2024-04-17T13:44:02Z</time>
      </trkpt>
      <trkpt lat="49.96261" lon="2.12061">
        <ele>12.4</ele>
        <time>2024-04-17T13:44:03Z</time>
      </trkpt>
      <trkpt lat="49.96261" lon="2.12061">
        <ele>12.4</ele>
        <time>2024-04-17T13:44:04Z</time>
      </trkpt>
      <trkpt lat="49.96261" lon="2.12061">
        <ele>12.4</ele>
        <time>2024-04-17T13:44:05Z</time>
      </trkpt>
      <trkpt lat="49.96261" lon="2.12061">
        <ele>12.4</ele>
        <time>2024-04-17T13:44:06Z</time>
      </trkpt>
      <trkpt lat="49.96261" lon="2.12061">
        <ele>12.4</ele>
        <time>2024-04-17T13:44:07Z</time>
      </trkpt>
      <trkpt lat="49.96261" lon="2.12061">
        <ele>12.4</ele>
        <time>2024-04-17T13:44:08Z</time>
      </trkpt>
      <trkpt lat="49.96261" lon="2.12061">
        <ele>12.4</ele>
        <time>2024-04-17T13:44:09Z</time>
      </trkpt>
      <trkpt lat="49.96261" lon="2.12061">
        <ele>12.4</ele>
        <time>2024-04-17T13:44:10Z</time>
      </trkpt>
      <trkpt lat="49.96261" lon="2.12061">
        <ele>12.4</ele>
        <time>2024-04-17T13:44:11Z</time>
      </trkpt>
      <trkpt lat="49.96261" lon="2.12061">
        <ele>12.4</ele>
        <time>2024-04-17T13:44:12Z</time>
      </trkpt>
      <trkpt lat="49.96261" lon="2.12061">
        <ele>12.4</ele>
        <time>2024-04-17T13:44:13Z</time>
      </trkpt>
      <trkpt lat="49.96261" lon="2.12061">
        <ele>12.4</ele>
        <time>2024-04-17T13:44:14Z</time>
      </trkpt>
      <trkpt lat="49.96261" lon="2.12061">
        <ele>12.4</ele>
        <time>2024-04-17T13:44:15Z</time>
      </trkpt>
      <trkpt lat="49.96261" lon="2.12061">
        <ele>12.4</ele>
        <time>2024-04-17T13:44:16Z</time>
      </trkpt>
      <trkpt lat="49.96261" lon="2.12061">
        <ele>12.4</ele>
        <time>2024-04-17T13:44:17Z</time>
      </trkpt>
      <trkpt lat="49.96261" lon="2.12061">
        <ele>12.4</ele>
        <time>2024-04-17T13:44:18Z</time>
      </trkpt>
      <trkpt lat="49.96261" lon="2.12061">
        <ele>12.4</ele>
        <time>2024-04-17T13:44:19Z</time>
      </trkpt>
      <trkpt lat="49.96261" lon="2.12061">
        <ele>12.4</ele>
        <time>2024-04-17T13:44:20Z</time>
      </trkpt>
      <trkpt lat="49.96261" lon="2.12061">
        <ele>12.4</ele>
        <time>2024-04-17T13:44:21Z</time>
      </trkpt>
      <trkpt lat="49.96261" lon="2.12061">
        <ele>12.4</ele>
        <time>2024-04-17T13:44:22Z</time>
      </trkpt>
      <trkpt lat="49.96261" lon="2.12061">
        <ele>12.4</ele>
        <time>2024-04-17T13:44:23Z</time>
      </trkpt>
      <trkpt lat="49.96261" lon="2.12061">
        <ele>12.4</ele>
        <time>2024-04-17T13:44:24Z</time>
      </trkpt>
      <trkpt lat="49.96261" lon="2.12061">
        <ele>12.4</ele>
        <time>2024-04-17T13:44:25Z</time>
      </trkpt>
      <trkpt lat="49.96261" lon="2.12061">
        <ele>12.4</ele>
        <time>2024-04-17T13:44:26Z</time>
      </trkpt>
      <trkpt lat="49.96261" lon="2.12061">
        <ele>12.4</ele>
        <time>2024-04-17T13:44:27Z</time>
      </trkpt>
      <trkpt lat="49.96261" lon="2.12061">
        <ele>12.4</ele>
        <time>2024-04-17T13:44:28Z</time>
      </trkpt>
      <trkpt lat="49.96261" lon="2.12061">
        <ele>12.4</ele>
        <time>2024-04-17T13:44:29Z</time>
      </trkpt>
      <trkpt lat="49.96261" lon="2.12061">
        <ele>12.4</ele>
        <time>2024-04-17T13:44:30Z</time>
      </trkpt>
      <trkpt lat="49.96261" lon="2.12061">
        <ele>12.4</ele>
        <time>2024-04-17T13:44:31Z</time>
      </trkpt>
      <trkpt lat="49.96261" lon="2.12061">
        <ele>12.4</ele>
        <time>2024-04-17T13:44:32Z</time>
      </trkpt>
      <trkpt lat="49.96261" lon="2.12061">
        <ele>12.4</ele>
        <time>2024-04-17T13:44:33Z</time>
      </trkpt>
      <trkpt lat="49.96261" lon="2.12061">
        <ele>12.4</ele>
        <time>2024-04-17T13:44:34Z</time>
      </trkpt>
      <trkpt lat="49.96261" lon="2.12061">
        <ele>12.4</ele>
        <time>2024-04-17T13:44:35Z</time>
      </trkpt>
      <trkpt lat="49.96261" lon="2.12061">
        <ele>12.4</ele>
        <time>2024-04-17T13:44:36Z</time>
      </trkpt>
      <trkpt lat="49.96261" lon="2.12061">
        <ele>12.4</ele>
        <time>2024-04-17T13:44:37Z</time>
      </trkpt>
      <trkpt lat="49.96261" lon="2.12061">
        <ele>12.4</ele>
        <time>2024-04-17T13:44:38Z</time>
      </trkpt>
      <trkpt lat="49.96261" lon="2.12061">
        <ele>12.4</ele>
        <time>2024-04-17T13:44:39Z</time>
      </trkpt>
      <trkpt lat="49.96261" lon="2.12061">
        <ele>12.4</ele>
        <time>2024-04-17T13:44:40Z</time>
      </trkpt>
      <trkpt lat="49.96261" lon="2.12061">
        <ele>12.4</ele>
        <time>2024-04-17T13:44:41Z</time>
      </trkpt>
      <trkpt lat="49.96261" lon="2.12061">
        <ele>12.4</ele>
        <time>2024-04-17T13:44:42Z</time>
      </trkpt>
      <trkpt lat="49.96261" lon="2.12061">
        <ele>12.4</ele>
        <time>2024-04-17T13:44:43Z</time>
      </trkpt>
      <trkpt lat="49.96261" lon="2.12061">
        <ele>12.4</ele>
        <time>2024-04-17T13:44:44Z</time>
      </trkpt>
      <trkpt lat="49.96261" lon="2.12061">
        <ele>12.4</ele>
        <time>2024-04-17T13:44:45Z</time>
      </trkpt>
      <trkpt lat="49.96261" lon="2.12061">
        <ele>12.4</ele>
        <time>2024-04-17T13:44:46Z</time>
      </trkpt>
      <trkpt lat="49.96261" lon="2.12061">
        <ele>12.4</ele>
        <time>2024-04-17T13:44:47Z</time>
      </trkpt>
      <trkpt lat="49.96261" lon="2.12061">
        <ele>12.4</ele>
        <time>2024-04-17T13:44:48Z</time>
      </trkpt>
      <trkpt lat="49.96261" lon="2.12061">
        <ele>12.4</ele>
        <time>2024-04-17T13:44:49Z</time>
      </trkpt>
      <trkpt lat="49.96261" lon="2.12061">
        <ele>12.4</ele>
        <time>2024-04-17T13:44:50Z</time>
      </trkpt>
      <trkpt lat="49.96261" lon="2.12061">
        <ele>12.4</ele>
        <time>2024-04-17T13:44:51Z</time>
      </trkpt>
      <trkpt lat="49.96261" lon="2.12061">
        <ele>12.4</ele>
        <time>2024-04-17T13:44:52Z</time>
      </trkpt>
      <trkpt lat="49.96261" lon="2.12061">
        <ele>12.4</ele>
        <time>2024-04-17T13:44:53Z</time>
      </trkpt>
      <trkpt lat="49.96261" lon="2.12061">
        <ele>12.4</ele>
        <time>2024-04-17T13:44:54Z</time>
      </trkpt>
      <trkpt lat="49.96261" lon="2.12061">
        <ele>12.4</ele>
        <time>2024-04-17T13:44:55Z</time>
      </trkpt>
      <trkpt lat="49.96261" lon="2.12061">
        <ele>12.4</ele>
        <time>2024-04-17T13:44:56Z</time>
      </trkpt>
      <trkpt lat="49.96261" lon="2.12061">
        <ele>12.4</ele>
        <time>2024-04-17T13:44:57Z</time>
      </trkpt>
      <trkpt lat="49.96261" lon="2.12061">
        <ele>12.4</ele>
        <time>2024-04-17T13:44:58Z</time>
      </trkpt>
      <trkpt lat="49.96261" lon="2.12061">
        <ele>12.4</ele>
        <time>2024-04-17T13:44:59Z</time>
      </trkpt>
      <trkpt lat="49.96261" lon="2.12061">
        <ele>12.4</ele>
        <time>2024-04-17T13:45:00Z</time>
      </trkpt>
      <trkpt lat="49.96261" lon="2.12061">
        <ele>12.4</ele>
        <time>2024-04-17T13:45:01Z</time>
      </trkpt>
      <trkpt lat="49.96261" lon="2.12061">
        <ele>12.4</ele>
        <time>2024-04-17T13:45:02Z</time>
      </trkpt>
      <trkpt lat="49.96261" lon="2.12061">
        <ele>12.4</ele>
        <time>2024-04-17T13:45:03Z</time>
      </trkpt>
      <trkpt lat="49.96261" lon="2.12061">
        <ele>12.4</ele>
        <time>2024-04-17T13:45:04Z</time>
      </trkpt>
      <trkpt lat="49.96261" lon="2.12061">
        <ele>12.4</ele>
        <time>2024-04-17T13:45:05Z</time>
      </trkpt>
      <trkpt lat="49.96261" lon="2.12061">
        <ele>12.4</ele>
        <time>2024-04-17T13:45:06Z</time>
      </trkpt>
      <trkpt lat="49.96261" lon="2.12061">
        <ele>12.4</ele>
        <time>2024-04-17T13:45:07Z</time>
      </trkpt>
      <trkpt lat="49.96261" lon="2.12061">
        <ele>12.4</ele>
        <time>2024-04-17T13:45:08Z</time>
      </trkpt>
      <trkpt lat="49.96261" lon="2.12061">
        <ele>12.4</ele>
        <time>2024-04-17T13:45:09Z</time>
      </trkpt>
      <trkpt lat="49.96261" lon="2.12061">
        <ele>12.4</ele>
        <time>2024-04-17T13:45:10Z</time>
      </trkpt>
      <trkpt lat="49.96261" lon="2.12061">
        <ele>12.4</ele>
        <time>2024-04-17T13:45:11Z</time>
      </trkpt>
      <trkpt lat="49.96261" lon="2.12061">
        <ele>12.4</ele>
        <time>2024-04-17T13:45:12Z</time>
      </trkpt>
      <trkpt lat="49.96261" lon="2.12061">
        <ele>12.4</ele>
        <time>2024-04-17T13:45:13Z</time>
      </trkpt>
      <trkpt lat="49.96261" lon="2.12061">
        <ele>12.4</ele>
        <time>2024-04-17T13:45:14Z</time>
      </trkpt>
      <trkpt lat="49.96261" lon="2.12061">
        <ele>12.4</ele>
        <time>2024-04-17T13:45:15Z</time>
      </trkpt>
      <trkpt lat="49.96261" lon="2.12061">
        <ele>12.4</ele>
        <time>2024-04-17T13:45:16Z</time>
      </trkpt>
      <trkpt lat="49.96261" lon="2.12061">
        <ele>12.4</ele>
        <time>2024-04-17T13:45:17Z</time>
      </trkpt>
      <trkpt lat="49.96261" lon="2.12061">
        <ele>12.4</ele>
        <time>2024-04-17T13:45:18Z</time>
      </trkpt>
      <trkpt lat="49.96261" lon="2.12061">
        <ele>12.4</ele>
        <time>2024-04-17T13:45:19Z</time>
      </trkpt>
      <trkpt lat="49.96261" lon="2.12061">
        <ele>12.4</ele>
        <time>2024-04-17T13:45:20Z</time>
      </trkpt>
      <trkpt lat="49.96261" lon="2.12061">
        <ele>12.4</ele>
        <time>2024-04-17T13:45:21Z</time>
      </trkpt>
      <trkpt lat="49.96261" lon="2.12061">
        <ele>12.4</ele>
        <time>2024-04-17T13:45:22Z</time>
      </trkpt>
      <trkpt lat="49.96261" lon="2.12061">
        <ele>12.4</ele>
        <time>2024-04-17T13:45:23Z</time>
      </trkpt>
      <trkpt lat="49.96261" lon="2.12061">
        <ele>12.4</ele>
        <time>2024-04-17T13:45:24Z</time>
      </trkpt>
      <trkpt lat="49.96261" lon="2.12061">
        <ele>12.4</ele>
        <time>2024-04-17T13:45:25Z</time>
      </trkpt>
      <trkpt lat="49.96261" lon="2.12061">
        <ele>12.4</ele>
        <time>2024-04-17T13:45:26Z</time>
      </trkpt>
      <trkpt lat="49.96261" lon="2.12061">
        <ele>12.4</ele>
        <time>2024-04-17T13:45:27Z</time>
      </trkpt>
      <trkpt lat="49.96261" lon="2.12061">
        <ele>12.4</ele>
        <time>2024-04-17T13:45:28Z</time>
      </trkpt>
      <trkpt lat="49.96261" lon="2.12061">
        <ele>12.4</ele>
        <time>2024-04-17T13:45:29Z</time>
      </trkpt>
      <trkpt lat="49.96261" lon="2.12061">
        <ele>12.4</ele>
        <time>2024-04-17T13:45:30Z</time>
      </trkpt>
      <trkpt lat="49.96261" lon="2.12061">
        <ele>12.4</ele>
        <time>2024-04-17T13:45:31Z</time>
      </trkpt>
      <trkpt lat="49.96261" lon="2.12061">
        <ele>12.4</ele>
        <time>2024-04-17T13:45:32Z</time>
      </trkpt>
      <trkpt lat="49.96261" lon="2.12063">
        <ele>12.4</ele>
        <time>2024-04-17T13:45:33Z</time>
      </trkpt>
      <trkpt lat="49.96261" lon="2.12064">
        <ele>12.4</ele>
        <time>2024-04-17T13:45:34Z</time>
      </trkpt>
      <trkpt lat="49.96262" lon="2.12066">
        <ele>12.4</ele>
        <time>2024-04-17T13:45:35Z</time>
      </trkpt>
      <trkpt lat="49.96263" lon="2.12067">
        <ele>12.4</ele>
        <time>2024-04-17T13:45:36Z</time>
      </trkpt>
      <trkpt lat="49.96263" lon="2.12068">
        <ele>12.4</ele>
        <time>2024-04-17T13:45:37Z</time>
      </trkpt>
      <trkpt lat="49.96265" lon="2.1207">
        <ele>12.4</ele>
        <time>2024-04-17T13:45:38Z</time>
      </trkpt>
      <trkpt lat="49.96266" lon="2.12071">
        <ele>12.4</ele>
        <time>2024-04-17T13:45:39Z</time>
      </trkpt>
      <trkpt lat="49.96266" lon="2.12072">
        <ele>12.4</ele>
        <time>2024-04-17T13:45:40Z</time>
      </trkpt>
      <trkpt lat="49.96268" lon="2.12074">
        <ele>12.4</ele>
        <time>2024-04-17T13:45:41Z</time>
      </trkpt>
      <trkpt lat="49.96269" lon="2.12075">
        <ele>12.4</ele>
        <time>2024-04-17T13:45:42Z</time>
      </trkpt>
      <trkpt lat="49.96269" lon="2.12076">
        <ele>12.4</ele>
        <time>2024-04-17T13:45:43Z</time>
      </trkpt>
      <trkpt lat="49.9627" lon="2.12077">
        <ele>12.4</ele>
        <time>2024-04-17T13:45:44Z</time>
      </trkpt>
      <trkpt lat="49.96271" lon="2.12078">
        <ele>12.4</ele>
        <time>2024-04-17T13:45:45Z</time>
      </trkpt>
      <trkpt lat="49.96272" lon="2.12079">
        <ele>12.4</ele>
        <time>2024-04-17T13:45:46Z</time>
      </trkpt>
      <trkpt lat="49.96273" lon="2.12079">
        <ele>12.4</ele>
        <time>2024-04-17T13:45:47Z</time>
      </trkpt>
      <trkpt lat="49.96274" lon="2.1208">
        <ele>12.4</ele>
        <time>2024-04-17T13:45:48Z</time>
      </trkpt>
      <trkpt lat="49.96274" lon="2.12081">
        <ele>12.4</ele>
        <time>2024-04-17T13:45:49Z</time>
      </trkpt>
      <trkpt lat="49.96275" lon="2.12082">
        <ele>12.4</ele>
        <time>2024-04-17T13:45:50Z</time>
      </trkpt>
      <trkpt lat="49.96276" lon="2.12083">
        <ele>12.4</ele>
        <time>2024-04-17T13:45:51Z</time>
      </trkpt>
      <trkpt lat="49.96277" lon="2.12084">
        <ele>12.4</ele>
        <time>2024-04-17T13:45:52Z</time>
      </trkpt>
      <trkpt lat="49.96278" lon="2.12085">
        <ele>12.4</ele>
        <time>2024-04-17T13:45:53Z</time>
      </trkpt>
      <trkpt lat="49.96279" lon="2.12086">
        <ele>12.4</ele>
        <time>2024-04-17T13:45:54Z</time>
      </trkpt>
      <trkpt lat="49.96279" lon="2.12087">
        <ele>12.5</ele>
        <time>2024-04-17T13:45:55Z</time>
      </trkpt>
      <trkpt lat="49.9628" lon="2.12087">
        <ele>12.5</ele>
        <time>2024-04-17T13:45:56Z</time>
      </trkpt>
      <trkpt lat="49.96281" lon="2.12088">
        <ele>12.5</ele>
        <time>2024-04-17T13:45:57Z</time>
      </trkpt>
      <trkpt lat="49.96281" lon="2.12089">
        <ele>12.5</ele>
        <time>2024-04-17T13:45:58Z</time>
      </trkpt>
      <trkpt lat="49.96282" lon="2.1209">
        <ele>12.5</ele>
        <time>2024-04-17T13:45:59Z</time>
      </trkpt>
      <trkpt lat="49.96283" lon="2.1209">
        <ele>12.5</ele>
        <time>2024-04-17T13:46:00Z</time>
      </trkpt>
      <trkpt lat="49.96283" lon="2.12091">
        <ele>12.5</ele>
        <time>2024-04-17T13:46:01Z</time>
      </trkpt>
      <trkpt lat="49.96284" lon="2.12092">
        <ele>12.5</ele>
        <time>2024-04-17T13:46:02Z</time>
      </trkpt>
      <trkpt lat="49.96285" lon="2.12093">
        <ele>12.5</ele>
        <time>2024-04-17T13:46:03Z</time>
      </trkpt>
      <trkpt lat="49.96286" lon="2.12094">
        <ele>12.5</ele>
        <time>2024-04-17T13:46:04Z</time>
      </trkpt>
      <trkpt lat="49.96287" lon="2.12095">
        <ele>12.5</ele>
        <time>2024-04-17T13:46:05Z</time>
      </trkpt>
      <trkpt lat="49.96287" lon="2.12096">
        <ele>12.5</ele>
        <time>2024-04-17T13:46:06Z</time>
      </trkpt>
      <trkpt lat="49.96288" lon="2.12096">
        <ele>12.5</ele>
        <time>2024-04-17T13:46:07Z</time>
      </trkpt>
      <trkpt lat="49.96289" lon="2.12097">
        <ele>12.5</ele>
        <time>2024-04-17T13:46:08Z</time>
      </trkpt>
      <trkpt lat="49.96289" lon="2.12098">
        <ele>12.5</ele>
        <time>2024-04-17T13:46:09Z</time>
      </trkpt>
      <trkpt lat="49.9629" lon="2.12099">
        <ele>12.5</ele>
        <time>2024-04-17T13:46:10Z</time>
      </trkpt>
      <trkpt lat="49.96291" lon="2.121">
        <ele>12.5</ele>
        <time>2024-04-17T13:46:11Z</time>
      </trkpt>
      <trkpt lat="49.96292" lon="2.12101">
        <ele>12.5</ele>
        <time>2024-04-17T13:46:12Z</time>
      </trkpt>
      <trkpt lat="49.96292" lon="2.12102">
        <ele>12.5</ele>
        <time>2024-04-17T13:46:13Z</time>
      </trkpt>
      <trkpt lat="49.96293" lon="2.12103">
        <ele>12.5</ele>
        <time>2024-04-17T13:46:14Z</time>
      </trkpt>
      <trkpt lat="49.96294" lon="2.12104">
        <ele>12.5</ele>
        <time>2024-04-17T13:46:15Z</time>
      </trkpt>
      <trkpt lat="49.96294" lon="2.12105">
        <ele>12.5</ele>
        <time>2024-04-17T13:46:16Z</time>
      </trkpt>
      <trkpt lat="49.96295" lon="2.12106">
        <ele>12.5</ele>
        <time>2024-04-17T13:46:17Z</time>
      </trkpt>
      <trkpt lat="49.96296" lon="2.12107">
        <ele>12.5</ele>
        <time>2024-04-17T13:46:18Z</time>
      </trkpt>
      <trkpt lat="49.96296" lon="2.12108">
        <ele>12.5</ele>
        <time>2024-04-17T13:46:19Z</time>
      </trkpt>
      <trkpt lat="49.96297" lon="2.12109">
        <ele>12.5</ele>
        <time>2024-04-17T13:46:20Z</time>
      </trkpt>
      <trkpt lat="49.96298" lon="2.1211">
        <ele>12.5</ele>
        <time>2024-04-17T13:46:21Z</time>
      </trkpt>
      <trkpt lat="49.96299" lon="2.12111">
        <ele>12.5</ele>
        <time>2024-04-17T13:46:22Z</time>
      </trkpt>
      <trkpt lat="49.963" lon="2.12112">
        <ele>12.5</ele>
        <time>2024-04-17T13:46:23Z</time>
      </trkpt>
      <trkpt lat="49.96301" lon="2.12113">
        <ele>12.5</ele>
        <time>2024-04-17T13:46:24Z</time>
      </trkpt>
      <trkpt lat="49.96301" lon="2.12114">
        <ele>12.5</ele>
        <time>2024-04-17T13:46:25Z</time>
      </trkpt>
      <trkpt lat="49.96302" lon="2.12116">
        <ele>12.5</ele>
        <time>2024-04-17T13:46:26Z</time>
      </trkpt>
      <trkpt lat="49.96303" lon="2.12117">
        <ele>12.5</ele>
        <time>2024-04-17T13:46:27Z</time>
      </trkpt>
      <trkpt lat="49.96303" lon="2.12118">
        <ele>12.5</ele>
        <time>2024-04-17T13:46:28Z</time>
      </trkpt>
      <trkpt lat="49.96304" lon="2.12119">
        <ele>12.6</ele>
        <time>2024-04-17T13:46:29Z</time>
      </trkpt>
      <trkpt lat="49.96304" lon="2.1212">
        <ele>12.6</ele>
        <time>2024-04-17T13:46:30Z</time>
      </trkpt>
      <trkpt lat="49.96305" lon="2.12122">
        <ele>12.6</ele>
        <time>2024-04-17T13:46:31Z</time>
      </trkpt>
      <trkpt lat="49.96306" lon="2.12123">
        <ele>12.6</ele>
        <time>2024-04-17T13:46:32Z</time>
      </trkpt>
      <trkpt lat="49.96307" lon="2.12124">
        <ele>12.6</ele>
        <time>2024-04-17T13:46:33Z</time>
      </trkpt>
      <trkpt lat="49.96307" lon="2.12125">
        <ele>12.6</ele>
        <time>2024-04-17T13:46:34Z</time>
      </trkpt>
      <trkpt lat="49.96308" lon="2.12127">
        <ele>12.6</ele>
        <time>2024-04-17T13:46:35Z</time>
      </trkpt>
      <trkpt lat="49.96309" lon="2.12128">
        <ele>12.6</ele>
        <time>2024-04-17T13:46:36Z</time>
      </trkpt>
      <trkpt lat="49.9631" lon="2.12129">
        <ele>12.6</ele>
        <time>2024-04-17T13:46:37Z</time>
      </trkpt>
      <trkpt lat="49.9631" lon="2.1213">
        <ele>12.6</ele>
        <time>2024-04-17T13:46:38Z</time>
      </trkpt>
      <trkpt lat="49.96311" lon="2.12131">
        <ele>12.6</ele>
        <time>2024-04-17T13:46:39Z</time>
      </trkpt>
      <trkpt lat="49.96312" lon="2.12132">
        <ele>12.6</ele>
        <time>2024-04-17T13:46:40Z</time>
      </trkpt>
      <trkpt lat="49.96313" lon="2.12133">
        <ele>12.6</ele>
        <time>2024-04-17T13:46:41Z</time>
      </trkpt>
      <trkpt lat="49.96314" lon="2.12134">
        <ele>12.6</ele>
        <time>2024-04-17T13:46:42Z</time>
      </trkpt>
      <trkpt lat="49.96315" lon="2.12135">
        <ele>12.6</ele>
        <time>2024-04-17T13:46:43Z</time>
      </trkpt>
      <trkpt lat="49.96315" lon="2.12136">
        <ele>12.6</ele>
        <time>2024-04-17T13:46:44Z</time>
      </trkpt>
      <trkpt lat="49.96316" lon="2.12137">
        <ele>12.6</ele>
        <time>2024-04-17T13:46:45Z</time>
      </trkpt>
      <trkpt lat="49.96317" lon="2.12138">
        <ele>12.6</ele>
        <time>2024-04-17T13:46:46Z</time>
      </trkpt>
      <trkpt lat="49.96318" lon="2.12139">
        <ele>12.6</ele>
        <time>2024-04-17T13:46:47Z</time>
      </trkpt>
      <trkpt lat="49.96319" lon="2.12139">
        <ele>12.7</ele>
        <time>2024-04-17T13:46:48Z</time>
      </trkpt>
      <trkpt lat="49.9632" lon="2.1214">
        <ele>12.7</ele>
        <time>2024-04-17T13:46:49Z</time>
      </trkpt>
      <trkpt lat="49.96321" lon="2.12141">
        <ele>12.7</ele>
        <time>2024-04-17T13:46:50Z</time>
      </trkpt>
      <trkpt lat="49.96322" lon="2.12142">
        <ele>12.7</ele>
        <time>2024-04-17T13:46:51Z</time>
      </trkpt>
      <trkpt lat="49.96323" lon="2.12143">
        <ele>12.7</ele>
        <time>2024-04-17T13:46:52Z</time>
      </trkpt>
      <trkpt lat="49.96324" lon="2.12144">
        <ele>12.7</ele>
        <time>2024-04-17T13:46:53Z</time>
      </trkpt>
      <trkpt lat="49.96325" lon="2.12145">
        <ele>12.7</ele>
        <time>2024-04-17T13:46:54Z</time>
      </trkpt>
      <trkpt lat="49.96326" lon="2.12146">
        <ele>12.7</ele>
        <time>2024-04-17T13:46:55Z</time>
      </trkpt>
      <trkpt lat="49.96327" lon="2.12147">
        <ele>12.7</ele>
        <time>2024-04-17T13:46:56Z</time>
      </trkpt>
      <trkpt lat="49.96328" lon="2.12148">
        <ele>12.7</ele>
        <time>2024-04-17T13:46:57Z</time>
      </trkpt>
      <trkpt lat="49.96329" lon="2.12149">
        <ele>12.7</ele>
        <time>2024-04-17T13:46:58Z</time>
      </trkpt>
      <trkpt lat="49.9633" lon="2.1215">
        <ele>12.7</ele>
        <time>2024-04-17T13:46:59Z</time>
      </trkpt>
      <trkpt lat="49.96331" lon="2.12151">
        <ele>12.7</ele>
        <time>2024-04-17T13:47:00Z</time>
      </trkpt>
      <trkpt lat="49.96332" lon="2.12152">
        <ele>12.7</ele>
        <time>2024-04-17T13:47:01Z</time>
      </trkpt>
      <trkpt lat="49.96333" lon="2.12153">
        <ele>12.8</ele>
        <time>2024-04-17T13:47:02Z</time>
      </trkpt>
      <trkpt lat="49.96334" lon="2.12155">
        <ele>12.8</ele>
        <time>2024-04-17T13:47:03Z</time>
      </trkpt>
      <trkpt lat="49.96335" lon="2.12156">
        <ele>12.8</ele>
        <time>2024-04-17T13:47:04Z</time>
      </trkpt>
      <trkpt lat="49.96336" lon="2.12157">
        <ele>12.8</ele>
        <time>2024-04-17T13:47:05Z</time>
      </trkpt>
      <trkpt lat="49.96336" lon="2.12158">
        <ele>12.8</ele>
        <time>2024-04-17T13:47:06Z</time>
      </trkpt>
      <trkpt lat="49.96337" lon="2.12159">
        <ele>12.8</ele>
        <time>2024-04-17T13:47:07Z</time>
      </trkpt>
      <trkpt lat="49.96337" lon="2.12161">
        <ele>12.8</ele>
        <time>2024-04-17T13:47:08Z</time>
      </trkpt>
      <trkpt lat="49.96338" lon="2.12162">
        <ele>12.8</ele>
        <time>2024-04-17T13:47:09Z</time>
      </trkpt>
      <trkpt lat="49.96339" lon="2.12163">
        <ele>12.8</ele>
        <time>2024-04-17T13:47:10Z</time>
      </trkpt>
      <trkpt lat="49.96339" lon="2.12165">
        <ele>12.8</ele>
        <time>2024-04-17T13:47:11Z</time>
      </trkpt>
      <trkpt lat="49.9634" lon="2.12166">
        <ele>12.8</ele>
        <time>2024-04-17T13:47:12Z</time>
      </trkpt>
      <trkpt lat="49.96341" lon="2.12167">
        <ele>12.9</ele>
        <time>2024-04-17T13:47:13Z</time>
      </trkpt>
      <trkpt lat="49.96342" lon="2.12168">
        <ele>12.9</ele>
        <time>2024-04-17T13:47:14Z</time>
      </trkpt>
      <trkpt lat="49.96342" lon="2.12169">
        <ele>12.9</ele>
        <time>2024-04-17T13:47:15Z</time>
      </trkpt>
      <trkpt lat="49.96343" lon="2.1217">
        <ele>12.9</ele>
        <time>2024-04-17T13:47:16Z</time>
      </trkpt>
      <trkpt lat="49.96343" lon="2.12171">
        <ele>12.9</ele>
        <time>2024-04-17T13:47:17Z</time>
      </trkpt>
      <trkpt lat="49.96344" lon="2.12173">
        <ele>12.9</ele>
        <time>2024-04-17T13:47:18Z</time>
      </trkpt>
      <trkpt lat="49.96345" lon="2.12174">
        <ele>12.9</ele>
        <time>2024-04-17T13:47:19Z</time>
      </trkpt>
      <trkpt lat="49.96345" lon="2.12175">
        <ele>12.9</ele>
        <time>2024-04-17T13:47:20Z</time>
      </trkpt>
      <trkpt lat="49.96346" lon="2.12176">
        <ele>12.9</ele>
        <time>2024-04-17T13:47:21Z</time>
      </trkpt>
      <trkpt lat="49.96347" lon="2.12177">
        <ele>12.9</ele>
        <time>2024-04-17T13:47:22Z</time>
      </trkpt>
      <trkpt lat="49.96347" lon="2.12179">
        <ele>12.9</ele>
        <time>2024-04-17T13:47:23Z</time>
      </trkpt>
      <trkpt lat="49.96348" lon="2.1218">
        <ele>12.9</ele>
        <time>2024-04-17T13:47:24Z</time>
      </trkpt>
      <trkpt lat="49.96348" lon="2.12182">
        <ele>12.9</ele>
        <time>2024-04-17T13:47:25Z</time>
      </trkpt>
      <trkpt lat="49.96349" lon="2.12183">
        <ele>12.9</ele>
        <time>2024-04-17T13:47:26Z</time>
      </trkpt>
      <trkpt lat="49.96349" lon="2.12184">
        <ele>12.9</ele>
        <time>2024-04-17T13:47:27Z</time>
      </trkpt>
      <trkpt lat="49.9635" lon="2.12186">
        <ele>12.9</ele>
        <time>2024-04-17T13:47:28Z</time>
      </trkpt>
      <trkpt lat="49.9635" lon="2.12187">
        <ele>13</ele>
        <time>2024-04-17T13:47:29Z</time>
      </trkpt>
      <trkpt lat="49.96351" lon="2.12189">
        <ele>13</ele>
        <time>2024-04-17T13:47:30Z</time>
      </trkpt>
      <trkpt lat="49.96352" lon="2.1219">
        <ele>13</ele>
        <time>2024-04-17T13:47:31Z</time>
      </trkpt>
      <trkpt lat="49.96352" lon="2.12192">
        <ele>13</ele>
        <time>2024-04-17T13:47:32Z</time>
      </trkpt>
      <trkpt lat="49.96353" lon="2.12193">
        <ele>13</ele>
        <time>2024-04-17T13:47:33Z</time>
      </trkpt>
      <trkpt lat="49.96353" lon="2.12195">
        <ele>13</ele>
        <time>2024-04-17T13:47:34Z</time>
      </trkpt>
      <trkpt lat="49.96354" lon="2.12196">
        <ele>13</ele>
        <time>2024-04-17T13:47:35Z</time>
      </trkpt>
      <trkpt lat="49.96354" lon="2.12198">
        <ele>13</ele>
        <time>2024-04-17T13:47:36Z</time>
      </trkpt>
      <trkpt lat="49.96355" lon="2.12199">
        <ele>13</ele>
        <time>2024-04-17T13:47:37Z</time>
      </trkpt>
      <trkpt lat="49.96355" lon="2.12201">
        <ele>13</ele>
        <time>2024-04-17T13:47:38Z</time>
      </trkpt>
      <trkpt lat="49.96356" lon="2.12202">
        <ele>13</ele>
        <time>2024-04-17T13:47:39Z</time>
      </trkpt>
      <trkpt lat="49.96356" lon="2.12204">
        <ele>13</ele>
        <time>2024-04-17T13:47:40Z</time>
      </trkpt>
      <trkpt lat="49.96357" lon="2.12205">
        <ele>13</ele>
        <time>2024-04-17T13:47:41Z</time>
      </trkpt>
      <trkpt lat="49.96357" lon="2.12207">
        <ele>13</ele>
        <time>2024-04-17T13:47:42Z</time>
      </trkpt>
      <trkpt lat="49.96358" lon="2.12208">
        <ele>13</ele>
        <time>2024-04-17T13:47:43Z</time>
      </trkpt>
      <trkpt lat="49.96359" lon="2.1221">
        <ele>13</ele>
        <time>2024-04-17T13:47:44Z</time>
      </trkpt>
      <trkpt lat="49.96359" lon="2.12211">
        <ele>13</ele>
        <time>2024-04-17T13:47:45Z</time>
      </trkpt>
      <trkpt lat="49.9636" lon="2.12212">
        <ele>13</ele>
        <time>2024-04-17T13:47:46Z</time>
      </trkpt>
      <trkpt lat="49.9636" lon="2.12213">
        <ele>13</ele>
        <time>2024-04-17T13:47:47Z</time>
      </trkpt>
      <trkpt lat="49.96361" lon="2.12215">
        <ele>13</ele>
        <time>2024-04-17T13:47:48Z</time>
      </trkpt>
      <trkpt lat="49.96362" lon="2.12216">
        <ele>13</ele>
        <time>2024-04-17T13:47:49Z</time>
      </trkpt>
      <trkpt lat="49.96362" lon="2.12217">
        <ele>13</ele>
        <time>2024-04-17T13:47:50Z</time>
      </trkpt>
      <trkpt lat="49.96363" lon="2.12219">
        <ele>13</ele>
        <time>2024-04-17T13:47:51Z</time>
      </trkpt>
      <trkpt lat="49.96363" lon="2.12221">
        <ele>13</ele>
        <time>2024-04-17T13:47:52Z</time>
      </trkpt>
      <trkpt lat="49.96363" lon="2.12222">
        <ele>13</ele>
        <time>2024-04-17T13:47:53Z</time>
      </trkpt>
      <trkpt lat="49.96363" lon="2.12224">
        <ele>13</ele>
        <time>2024-04-17T13:47:54Z</time>
      </trkpt>
      <trkpt lat="49.96363" lon="2.12225">
        <ele>13</ele>
        <time>2024-04-17T13:47:55Z</time>
      </trkpt>
      <trkpt lat="49.96364" lon="2.12227">
        <ele>13</ele>
        <time>2024-04-17T13:47:56Z</time>
      </trkpt>
      <trkpt lat="49.96364" lon="2.12229">
        <ele>13</ele>
        <time>2024-04-17T13:47:57Z</time>
      </trkpt>
      <trkpt lat="49.96364" lon="2.1223">
        <ele>13</ele>
        <time>2024-04-17T13:47:58Z</time>
      </trkpt>
      <trkpt lat="49.96365" lon="2.12231">
        <ele>13</ele>
        <time>2024-04-17T13:47:59Z</time>
      </trkpt>
      <trkpt lat="49.96365" lon="2.12232">
        <ele>13</ele>
        <time>2024-04-17T13:48:00Z</time>
      </trkpt>
      <trkpt lat="49.96366" lon="2.12234">
        <ele>13</ele>
        <time>2024-04-17T13:48:01Z</time>
      </trkpt>
      <trkpt lat="49.96366" lon="2.12235">
        <ele>13</ele>
        <time>2024-04-17T13:48:02Z</time>
      </trkpt>
      <trkpt lat="49.96367" lon="2.12237">
        <ele>13</ele>
        <time>2024-04-17T13:48:03Z</time>
      </trkpt>
      <trkpt lat="49.96367" lon="2.12238">
        <ele>13</ele>
        <time>2024-04-17T13:48:04Z</time>
      </trkpt>
      <trkpt lat="49.96368" lon="2.1224">
        <ele>13</ele>
        <time>2024-04-17T13:48:05Z</time>
      </trkpt>
      <trkpt lat="49.96368" lon="2.12242">
        <ele>13</ele>
        <time>2024-04-17T13:48:06Z</time>
      </trkpt>
      <trkpt lat="49.96369" lon="2.12243">
        <ele>13</ele>
        <time>2024-04-17T13:48:07Z</time>
      </trkpt>
      <trkpt lat="49.96369" lon="2.12244">
        <ele>13</ele>
        <time>2024-04-17T13:48:08Z</time>
      </trkpt>
      <trkpt lat="49.9637" lon="2.12246">
        <ele>13</ele>
        <time>2024-04-17T13:48:09Z</time>
      </trkpt>
      <trkpt lat="49.9637" lon="2.12247">
        <ele>13</ele>
        <time>2024-04-17T13:48:10Z</time>
      </trkpt>
      <trkpt lat="49.96371" lon="2.12249">
        <ele>13</ele>
        <time>2024-04-17T13:48:11Z</time>
      </trkpt>
      <trkpt lat="49.96371" lon="2.12251">
        <ele>13</ele>
        <time>2024-04-17T13:48:12Z</time>
      </trkpt>
      <trkpt lat="49.96372" lon="2.12252">
        <ele>13</ele>
        <time>2024-04-17T13:48:13Z</time>
      </trkpt>
      <trkpt lat="49.96372" lon="2.12254">
        <ele>13</ele>
        <time>2024-04-17T13:48:14Z</time>
      </trkpt>
      <trkpt lat="49.96373" lon="2.12257">
        <ele>13</ele>
        <time>2024-04-17T13:48:15Z</time>
      </trkpt>
      <trkpt lat="49.96373" lon="2.12258">
        <ele>13</ele>
        <time>2024-04-17T13:48:16Z</time>
      </trkpt>
      <trkpt lat="49.96373" lon="2.1226">
        <ele>13</ele>
        <time>2024-04-17T13:48:17Z</time>
      </trkpt>
      <trkpt lat="49.96374" lon="2.12261">
        <ele>13</ele>
        <time>2024-04-17T13:48:18Z</time>
      </trkpt>
      <trkpt lat="49.96374" lon="2.12263">
        <ele>13</ele>
        <time>2024-04-17T13:48:19Z</time>
      </trkpt>
      <trkpt lat="49.96375" lon="2.12264">
        <ele>13</ele>
        <time>2024-04-17T13:48:20Z</time>
      </trkpt>
      <trkpt lat="49.96375" lon="2.12266">
        <ele>13</ele>
        <time>2024-04-17T13:48:21Z</time>
      </trkpt>
      <trkpt lat="49.96376" lon="2.12267">
        <ele>13</ele>
        <time>2024-04-17T13:48:22Z</time>
      </trkpt>
      <trkpt lat="49.96376" lon="2.12269">
        <ele>13</ele>
        <time>2024-04-17T13:48:23Z</time>
      </trkpt>
      <trkpt lat="49.96377" lon="2.1227">
        <ele>13</ele>
        <time>2024-04-17T13:48:24Z</time>
      </trkpt>
      <trkpt lat="49.96377" lon="2.12271">
        <ele>13</ele>
        <time>2024-04-17T13:48:25Z</time>
      </trkpt>
      <trkpt lat="49.96378" lon="2.12273">
        <ele>13</ele>
        <time>2024-04-17T13:48:26Z</time>
      </trkpt>
      <trkpt lat="49.96378" lon="2.12275">
        <ele>13</ele>
        <time>2024-04-17T13:48:27Z</time>
      </trkpt>
      <trkpt lat="49.96379" lon="2.12276">
        <ele>13</ele>
        <time>2024-04-17T13:48:28Z</time>
      </trkpt>
      <trkpt lat="49.9638" lon="2.12278">
        <ele>13</ele>
        <time>2024-04-17T13:48:29Z</time>
      </trkpt>
      <trkpt lat="49.9638" lon="2.12279">
        <ele>13</ele>
        <time>2024-04-17T13:48:30Z</time>
      </trkpt>
      <trkpt lat="49.96381" lon="2.1228">
        <ele>13</ele>
        <time>2024-04-17T13:48:31Z</time>
      </trkpt>
      <trkpt lat="49.96381" lon="2.12282">
        <ele>13</ele>
        <time>2024-04-17T13:48:32Z</time>
      </trkpt>
      <trkpt lat="49.96382" lon="2.12283">
        <ele>13</ele>
        <time>2024-04-17T13:48:33Z</time>
      </trkpt>
      <trkpt lat="49.96382" lon="2.12285">
        <ele>13</ele>
        <time>2024-04-17T13:48:34Z</time>
      </trkpt>
      <trkpt lat="49.96382" lon="2.12286">
        <ele>13</ele>
        <time>2024-04-17T13:48:35Z</time>
      </trkpt>
      <trkpt lat="49.96383" lon="2.12288">
        <ele>13</ele>
        <time>2024-04-17T13:48:36Z</time>
      </trkpt>
      <trkpt lat="49.96383" lon="2.1229">
        <ele>13</ele>
        <time>2024-04-17T13:48:37Z</time>
      </trkpt>
      <trkpt lat="49.96384" lon="2.12291">
        <ele>13</ele>
        <time>2024-04-17T13:48:38Z</time>
      </trkpt>
      <trkpt lat="49.96385" lon="2.12293">
        <ele>13</ele>
        <time>2024-04-17T13:48:39Z</time>
      </trkpt>
      <trkpt lat="49.96385" lon="2.12295">
        <ele>13</ele>
        <time>2024-04-17T13:48:40Z</time>
      </trkpt>
      <trkpt lat="49.96386" lon="2.12296">
        <ele>13</ele>
        <time>2024-04-17T13:48:41Z</time>
      </trkpt>
      <trkpt lat="49.96386" lon="2.12297">
        <ele>13</ele>
        <time>2024-04-17T13:48:42Z</time>
      </trkpt>
      <trkpt lat="49.96386" lon="2.12299">
        <ele>13</ele>
        <time>2024-04-17T13:48:43Z</time>
      </trkpt>
      <trkpt lat="49.96387" lon="2.123">
        <ele>13</ele>
        <time>2024-04-17T13:48:44Z</time>
      </trkpt>
      <trkpt lat="49.96388" lon="2.12302">
        <ele>13</ele>
        <time>2024-04-17T13:48:45Z</time>
      </trkpt>
      <trkpt lat="49.96388" lon="2.12303">
        <ele>13</ele>
        <time>2024-04-17T13:48:46Z</time>
      </trkpt>
      <trkpt lat="49.96389" lon="2.12305">
        <ele>13</ele>
        <time>2024-04-17T13:48:47Z</time>
      </trkpt>
      <trkpt lat="49.9639" lon="2.12306">
        <ele>13</ele>
        <time>2024-04-17T13:48:48Z</time>
      </trkpt>
      <trkpt lat="49.96391" lon="2.12307">
        <ele>13</ele>
        <time>2024-04-17T13:48:49Z</time>
      </trkpt>
      <trkpt lat="49.96391" lon="2.12308">
        <ele>13</ele>
        <time>2024-04-17T13:48:50Z</time>
      </trkpt>
      <trkpt lat="49.96392" lon="2.12308">
        <ele>13</ele>
        <time>2024-04-17T13:48:51Z</time>
      </trkpt>
      <trkpt lat="49.96392" lon="2.12309">
        <ele>13</ele>
        <time>2024-04-17T13:48:52Z</time>
      </trkpt>
      <trkpt lat="49.96393" lon="2.1231">
        <ele>13</ele>
        <time>2024-04-17T13:48:53Z</time>
      </trkpt>
      <trkpt lat="49.96393" lon="2.12312">
        <ele>13</ele>
        <time>2024-04-17T13:48:54Z</time>
      </trkpt>
      <trkpt lat="49.96394" lon="2.12313">
        <ele>13</ele>
        <time>2024-04-17T13:48:55Z</time>
      </trkpt>
      <trkpt lat="49.96394" lon="2.12315">
        <ele>13</ele>
        <time>2024-04-17T13:48:56Z</time>
      </trkpt>
      <trkpt lat="49.96394" lon="2.12316">
        <ele>13</ele>
        <time>2024-04-17T13:48:57Z</time>
      </trkpt>
      <trkpt lat="49.96394" lon="2.12318">
        <ele>13</ele>
        <time>2024-04-17T13:48:58Z</time>
      </trkpt>
      <trkpt lat="49.96394" lon="2.12319">
        <ele>13</ele>
        <time>2024-04-17T13:48:59Z</time>
      </trkpt>
      <trkpt lat="49.96394" lon="2.12321">
        <ele>13</ele>
        <time>2024-04-17T13:49:00Z</time>
      </trkpt>
      <trkpt lat="49.96395" lon="2.12324">
        <ele>12.9</ele>
        <time>2024-04-17T13:49:01Z</time>
      </trkpt>
      <trkpt lat="49.96395" lon="2.12326">
        <ele>12.9</ele>
        <time>2024-04-17T13:49:02Z</time>
      </trkpt>
      <trkpt lat="49.96395" lon="2.12327">
        <ele>12.9</ele>
        <time>2024-04-17T13:49:03Z</time>
      </trkpt>
      <trkpt lat="49.96395" lon="2.12329">
        <ele>12.9</ele>
        <time>2024-04-17T13:49:04Z</time>
      </trkpt>
      <trkpt lat="49.96396" lon="2.12331">
        <ele>12.9</ele>
        <time>2024-04-17T13:49:05Z</time>
      </trkpt>
      <trkpt lat="49.96396" lon="2.12335">
        <ele>12.9</ele>
        <time>2024-04-17T13:49:06Z</time>
      </trkpt>
      <trkpt lat="49.96396" lon="2.12336">
        <ele>12.9</ele>
        <time>2024-04-17T13:49:07Z</time>
      </trkpt>
      <trkpt lat="49.96396" lon="2.12337">
        <ele>12.9</ele>
        <time>2024-04-17T13:49:08Z</time>
      </trkpt>
      <trkpt lat="49.96396" lon="2.12339">
        <ele>12.9</ele>
        <time>2024-04-17T13:49:09Z</time>
      </trkpt>
      <trkpt lat="49.96396" lon="2.12341">
        <ele>12.9</ele>
        <time>2024-04-17T13:49:10Z</time>
      </trkpt>
      <trkpt lat="49.96396" lon="2.12343">
        <ele>12.9</ele>
        <time>2024-04-17T13:49:11Z</time>
      </trkpt>
      <trkpt lat="49.96397" lon="2.12345">
        <ele>12.9</ele>
        <time>2024-04-17T13:49:12Z</time>
      </trkpt>
      <trkpt lat="49.96397" lon="2.12347">
        <ele>12.9</ele>
        <time>2024-04-17T13:49:13Z</time>
      </trkpt>
      <trkpt lat="49.96398" lon="2.12349">
        <ele>12.9</ele>
        <time>2024-04-17T13:49:14Z</time>
      </trkpt>
      <trkpt lat="49.96398" lon="2.12351">
        <ele>12.9</ele>
        <time>2024-04-17T13:49:15Z</time>
      </trkpt>
      <trkpt lat="49.96398" lon="2.12353">
        <ele>12.8</ele>
        <time>2024-04-17T13:49:16Z</time>
      </trkpt>
      <trkpt lat="49.96398" lon="2.12355">
        <ele>12.8</ele>
        <time>2024-04-17T13:49:17Z</time>
      </trkpt>
      <trkpt lat="49.96398" lon="2.12356">
        <ele>12.8</ele>
        <time>2024-04-17T13:49:18Z</time>
      </trkpt>
      <trkpt lat="49.96398" lon="2.12358">
        <ele>12.8</ele>
        <time>2024-04-17T13:49:19Z</time>
      </trkpt>
      <trkpt lat="49.96399" lon="2.1236">
        <ele>12.8</ele>
        <time>2024-04-17T13:49:20Z</time>
      </trkpt>
      <trkpt lat="49.96399" lon="2.12362">
        <ele>12.8</ele>
        <time>2024-04-17T13:49:21Z</time>
      </trkpt>
      <trkpt lat="49.96399" lon="2.12363">
        <ele>12.8</ele>
        <time>2024-04-17T13:49:22Z</time>
      </trkpt>
      <trkpt lat="49.96399" lon="2.12365">
        <ele>12.8</ele>
        <time>2024-04-17T13:49:23Z</time>
      </trkpt>
      <trkpt lat="49.964" lon="2.12366">
        <ele>12.8</ele>
        <time>2024-04-17T13:49:24Z</time>
      </trkpt>
      <trkpt lat="49.964" lon="2.12367">
        <ele>12.8</ele>
        <time>2024-04-17T13:49:25Z</time>
      </trkpt>
      <trkpt lat="49.96401" lon="2.12368">
        <ele>12.8</ele>
        <time>2024-04-17T13:49:26Z</time>
      </trkpt>
      <trkpt lat="49.96401" lon="2.12369">
        <ele>12.8</ele>
        <time>2024-04-17T13:49:27Z</time>
      </trkpt>
      <trkpt lat="49.96402" lon="2.1237">
        <ele>12.8</ele>
        <time>2024-04-17T13:49:28Z</time>
      </trkpt>
      <trkpt lat="49.96402" lon="2.1237">
        <ele>12.9</ele>
        <time>2024-04-17T13:49:29Z</time>
      </trkpt>
      <trkpt lat="49.96403" lon="2.12372">
        <ele>12.9</ele>
        <time>2024-04-17T13:49:30Z</time>
      </trkpt>
      <trkpt lat="49.96404" lon="2.12372">
        <ele>12.9</ele>
        <time>2024-04-17T13:49:31Z</time>
      </trkpt>
      <trkpt lat="49.96405" lon="2.12373">
        <ele>12.9</ele>
        <time>2024-04-17T13:49:32Z</time>
      </trkpt>
      <trkpt lat="49.96405" lon="2.12373">
        <ele>12.9</ele>
        <time>2024-04-17T13:49:33Z</time>
      </trkpt>
      <trkpt lat="49.96406" lon="2.12374">
        <ele>12.9</ele>
        <time>2024-04-17T13:49:34Z</time>
      </trkpt>
      <trkpt lat="49.96406" lon="2.12376">
        <ele>12.9</ele>
        <time>2024-04-17T13:49:35Z</time>
      </trkpt>
      <trkpt lat="49.96406" lon="2.12377">
        <ele>12.9</ele>
        <time>2024-04-17T13:49:36Z</time>
      </trkpt>
      <trkpt lat="49.96406" lon="2.12378">
        <ele>12.9</ele>
        <time>2024-04-17T13:49:37Z</time>
      </trkpt>
      <trkpt lat="49.96407" lon="2.12379">
        <ele>12.9</ele>
        <time>2024-04-17T13:49:38Z</time>
      </trkpt>
      <trkpt lat="49.96407" lon="2.1238">
        <ele>12.9</ele>
        <time>2024-04-17T13:49:39Z</time>
      </trkpt>
      <trkpt lat="49.96407" lon="2.12382">
        <ele>12.9</ele>
        <time>2024-04-17T13:49:40Z</time>
      </trkpt>
      <trkpt lat="49.96407" lon="2.12382">
        <ele>12.9</ele>
        <time>2024-04-17T13:49:41Z</time>
      </trkpt>
      <trkpt lat="49.96408" lon="2.12383">
        <ele>12.9</ele>
        <time>2024-04-17T13:49:42Z</time>
      </trkpt>
      <trkpt lat="49.96408" lon="2.12385">
        <ele>12.9</ele>
        <time>2024-04-17T13:49:43Z</time>
      </trkpt>
      <trkpt lat="49.96409" lon="2.12385">
        <ele>12.9</ele>
        <time>2024-04-17T13:49:44Z</time>
      </trkpt>
      <trkpt lat="49.96409" lon="2.12386">
        <ele>12.9</ele>
        <time>2024-04-17T13:49:45Z</time>
      </trkpt>
      <trkpt lat="49.96409" lon="2.12387">
        <ele>12.9</ele>
        <time>2024-04-17T13:49:46Z</time>
      </trkpt>
      <trkpt lat="49.9641" lon="2.12388">
        <ele>12.9</ele>
        <time>2024-04-17T13:49:47Z</time>
      </trkpt>
      <trkpt lat="49.96411" lon="2.12388">
        <ele>12.9</ele>
        <time>2024-04-17T13:49:48Z</time>
      </trkpt>
      <trkpt lat="49.96411" lon="2.1239">
        <ele>12.9</ele>
        <time>2024-04-17T13:49:49Z</time>
      </trkpt>
      <trkpt lat="49.96412" lon="2.12391">
        <ele>12.9</ele>
        <time>2024-04-17T13:49:50Z</time>
      </trkpt>
      <trkpt lat="49.96412" lon="2.12392">
        <ele>12.9</ele>
        <time>2024-04-17T13:49:51Z</time>
      </trkpt>
      <trkpt lat="49.96413" lon="2.12393">
        <ele>12.9</ele>
        <time>2024-04-17T13:49:52Z</time>
      </trkpt>
      <trkpt lat="49.96413" lon="2.12395">
        <ele>12.9</ele>
        <time>2024-04-17T13:49:53Z</time>
      </trkpt>
      <trkpt lat="49.96413" lon="2.12396">
        <ele>12.9</ele>
        <time>2024-04-17T13:49:54Z</time>
      </trkpt>
      <trkpt lat="49.96413" lon="2.12398">
        <ele>12.9</ele>
        <time>2024-04-17T13:49:55Z</time>
      </trkpt>
      <trkpt lat="49.96414" lon="2.12399">
        <ele>12.9</ele>
        <time>2024-04-17T13:49:56Z</time>
      </trkpt>
      <trkpt lat="49.96414" lon="2.124">
        <ele>12.9</ele>
        <time>2024-04-17T13:49:57Z</time>
      </trkpt>
      <trkpt lat="49.96414" lon="2.12402">
        <ele>12.9</ele>
        <time>2024-04-17T13:49:58Z</time>
      </trkpt>
      <trkpt lat="49.96415" lon="2.12404">
        <ele>13</ele>
        <time>2024-04-17T13:49:59Z</time>
      </trkpt>
      <trkpt lat="49.96415" lon="2.12405">
        <ele>13</ele>
        <time>2024-04-17T13:50:00Z</time>
      </trkpt>
      <trkpt lat="49.96415" lon="2.12407">
        <ele>13</ele>
        <time>2024-04-17T13:50:01Z</time>
      </trkpt>
      <trkpt lat="49.96415" lon="2.12409">
        <ele>13</ele>
        <time>2024-04-17T13:50:02Z</time>
      </trkpt>
      <trkpt lat="49.96415" lon="2.1241">
        <ele>13</ele>
        <time>2024-04-17T13:50:03Z</time>
      </trkpt>
      <trkpt lat="49.96416" lon="2.12412">
        <ele>13</ele>
        <time>2024-04-17T13:50:04Z</time>
      </trkpt>
      <trkpt lat="49.96416" lon="2.12414">
        <ele>13.1</ele>
        <time>2024-04-17T13:50:05Z</time>
      </trkpt>
      <trkpt lat="49.96416" lon="2.12415">
        <ele>13.1</ele>
        <time>2024-04-17T13:50:06Z</time>
      </trkpt>
      <trkpt lat="49.96417" lon="2.12417">
        <ele>13.1</ele>
        <time>2024-04-17T13:50:07Z</time>
      </trkpt>
      <trkpt lat="49.96417" lon="2.12419">
        <ele>13.1</ele>
        <time>2024-04-17T13:50:08Z</time>
      </trkpt>
      <trkpt lat="49.96417" lon="2.1242">
        <ele>13.1</ele>
        <time>2024-04-17T13:50:09Z</time>
      </trkpt>
      <trkpt lat="49.96418" lon="2.12422">
        <ele>13.2</ele>
        <time>2024-04-17T13:50:10Z</time>
      </trkpt>
      <trkpt lat="49.96418" lon="2.12424">
        <ele>13.2</ele>
        <time>2024-04-17T13:50:11Z</time>
      </trkpt>
      <trkpt lat="49.96418" lon="2.12425">
        <ele>13.2</ele>
        <time>2024-04-17T13:50:12Z</time>
      </trkpt>
      <trkpt lat="49.96418" lon="2.12427">
        <ele>13.2</ele>
        <time>2024-04-17T13:50:13Z</time>
      </trkpt>
      <trkpt lat="49.96419" lon="2.12429">
        <ele>13.2</ele>
        <time>2024-04-17T13:50:14Z</time>
      </trkpt>
      <trkpt lat="49.96419" lon="2.12431">
        <ele>13.3</ele>
        <time>2024-04-17T13:50:15Z</time>
      </trkpt>
      <trkpt lat="49.96419" lon="2.12432">
        <ele>13.3</ele>
        <time>2024-04-17T13:50:16Z</time>
      </trkpt>
      <trkpt lat="49.96419" lon="2.12433">
        <ele>13.3</ele>
        <time>2024-04-17T13:50:17Z</time>
      </trkpt>
      <trkpt lat="49.96419" lon="2.12435">
        <ele>13.3</ele>
        <time>2024-04-17T13:50:18Z</time>
      </trkpt>
      <trkpt lat="49.9642" lon="2.12437">
        <ele>13.3</ele>
        <time>2024-04-17T13:50:19Z</time>
      </trkpt>
      <trkpt lat="49.9642" lon="2.12438">
        <ele>13.4</ele>
        <time>2024-04-17T13:50:20Z</time>
      </trkpt>
      <trkpt lat="49.9642" lon="2.1244">
        <ele>13.4</ele>
        <time>2024-04-17T13:50:21Z</time>
      </trkpt>
      <trkpt lat="49.9642" lon="2.12442">
        <ele>13.4</ele>
        <time>2024-04-17T13:50:22Z</time>
      </trkpt>
      <trkpt lat="49.9642" lon="2.12444">
        <ele>13.4</ele>
        <time>2024-04-17T13:50:23Z</time>
      </trkpt>
      <trkpt lat="49.9642" lon="2.12445">
        <ele>13.4</ele>
        <time>2024-04-17T13:50:24Z</time>
      </trkpt>
      <trkpt lat="49.9642" lon="2.12447">
        <ele>13.4</ele>
        <time>2024-04-17T13:50:25Z</time>
      </trkpt>
      <trkpt lat="49.9642" lon="2.12448">
        <ele>13.4</ele>
        <time>2024-04-17T13:50:26Z</time>
      </trkpt>
      <trkpt lat="49.96421" lon="2.1245">
        <ele>13.4</ele>
        <time>2024-04-17T13:50:27Z</time>
      </trkpt>
      <trkpt lat="49.96421" lon="2.12452">
        <ele>13.4</ele>
        <time>2024-04-17T13:50:28Z</time>
      </trkpt>
      <trkpt lat="49.96421" lon="2.12453">
        <ele>13.4</ele>
        <time>2024-04-17T13:50:29Z</time>
      </trkpt>
      <trkpt lat="49.96421" lon="2.12455">
        <ele>13.4</ele>
        <time>2024-04-17T13:50:30Z</time>
      </trkpt>
      <trkpt lat="49.96421" lon="2.12456">
        <ele>13.4</ele>
        <time>2024-04-17T13:50:31Z</time>
      </trkpt>
      <trkpt lat="49.96421" lon="2.12458">
        <ele>13.4</ele>
        <time>2024-04-17T13:50:32Z</time>
      </trkpt>
      <trkpt lat="49.96421" lon="2.1246">
        <ele>13.4</ele>
        <time>2024-04-17T13:50:33Z</time>
      </trkpt>
      <trkpt lat="49.96421" lon="2.12461">
        <ele>13.4</ele>
        <time>2024-04-17T13:50:34Z</time>
      </trkpt>
      <trkpt lat="49.96421" lon="2.12462">
        <ele>13.4</ele>
        <time>2024-04-17T13:50:35Z</time>
      </trkpt>
      <trkpt lat="49.96421" lon="2.12464">
        <ele>13.4</ele>
        <time>2024-04-17T13:50:36Z</time>
      </trkpt>
      <trkpt lat="49.9642" lon="2.12467">
        <ele>13.4</ele>
        <time>2024-04-17T13:50:37Z</time>
      </trkpt>
      <trkpt lat="49.9642" lon="2.12468">
        <ele>13.4</ele>
        <time>2024-04-17T13:50:38Z</time>
      </trkpt>
      <trkpt lat="49.9642" lon="2.1247">
        <ele>13.3</ele>
        <time>2024-04-17T13:50:39Z</time>
      </trkpt>
      <trkpt lat="49.9642" lon="2.12472">
        <ele>13.3</ele>
        <time>2024-04-17T13:50:40Z</time>
      </trkpt>
      <trkpt lat="49.96419" lon="2.12474">
        <ele>13.3</ele>
        <time>2024-04-17T13:50:41Z</time>
      </trkpt>
      <trkpt lat="49.96419" lon="2.12476">
        <ele>13.3</ele>
        <time>2024-04-17T13:50:42Z</time>
      </trkpt>
      <trkpt lat="49.96419" lon="2.12479">
        <ele>13.3</ele>
        <time>2024-04-17T13:50:43Z</time>
      </trkpt>
      <trkpt lat="49.96419" lon="2.12481">
        <ele>13.3</ele>
        <time>2024-04-17T13:50:44Z</time>
      </trkpt>
      <trkpt lat="49.96418" lon="2.12483">
        <ele>13.2</ele>
        <time>2024-04-17T13:50:45Z</time>
      </trkpt>
      <trkpt lat="49.96418" lon="2.12485">
        <ele>13.2</ele>
        <time>2024-04-17T13:50:46Z</time>
      </trkpt>
      <trkpt lat="49.96418" lon="2.12488">
        <ele>13.2</ele>
        <time>2024-04-17T13:50:47Z</time>
      </trkpt>
      <trkpt lat="49.96417" lon="2.1249">
        <ele>13.2</ele>
        <time>2024-04-17T13:50:48Z</time>
      </trkpt>
      <trkpt lat="49.96417" lon="2.12492">
        <ele>13.2</ele>
        <time>2024-04-17T13:50:49Z</time>
      </trkpt>
      <trkpt lat="49.96417" lon="2.12495">
        <ele>13.2</ele>
        <time>2024-04-17T13:50:50Z</time>
      </trkpt>
      <trkpt lat="49.96417" lon="2.12496">
        <ele>13.2</ele>
        <time>2024-04-17T13:50:51Z</time>
      </trkpt>
      <trkpt lat="49.96416" lon="2.12498">
        <ele>13.1</ele>
        <time>2024-04-17T13:50:52Z</time>
      </trkpt>
      <trkpt lat="49.96416" lon="2.12499">
        <ele>13.1</ele>
        <time>2024-04-17T13:50:53Z</time>
      </trkpt>
      <trkpt lat="49.96416" lon="2.12501">
        <ele>13.1</ele>
        <time>2024-04-17T13:50:54Z</time>
      </trkpt>
      <trkpt lat="49.96416" lon="2.12503">
        <ele>13.1</ele>
        <time>2024-04-17T13:50:55Z</time>
      </trkpt>
      <trkpt lat="49.96416" lon="2.12504">
        <ele>13.1</ele>
        <time>2024-04-17T13:50:56Z</time>
      </trkpt>
      <trkpt lat="49.96416" lon="2.12506">
        <ele>13.1</ele>
        <time>2024-04-17T13:50:57Z</time>
      </trkpt>
      <trkpt lat="49.96416" lon="2.12507">
        <ele>13.1</ele>
        <time>2024-04-17T13:50:58Z</time>
      </trkpt>
      <trkpt lat="49.96416" lon="2.12508">
        <ele>13.1</ele>
        <time>2024-04-17T13:50:59Z</time>
      </trkpt>
      <trkpt lat="49.96415" lon="2.12509">
        <ele>13.1</ele>
        <time>2024-04-17T13:51:00Z</time>
      </trkpt>
      <trkpt lat="49.96415" lon="2.1251">
        <ele>13.1</ele>
        <time>2024-04-17T13:51:01Z</time>
      </trkpt>
      <trkpt lat="49.96415" lon="2.12511">
        <ele>13.1</ele>
        <time>2024-04-17T13:51:02Z</time>
      </trkpt>
      <trkpt lat="49.96415" lon="2.12512">
        <ele>13.1</ele>
        <time>2024-04-17T13:51:03Z</time>
      </trkpt>
      <trkpt lat="49.96415" lon="2.12514">
        <ele>13.1</ele>
        <time>2024-04-17T13:51:04Z</time>
      </trkpt>
      <trkpt lat="49.96415" lon="2.12515">
        <ele>13.1</ele>
        <time>2024-04-17T13:51:05Z</time>
      </trkpt>
      <trkpt lat="49.96415" lon="2.12516">
        <ele>13.1</ele>
        <time>2024-04-17T13:51:06Z</time>
      </trkpt>
      <trkpt lat="49.96415" lon="2.12518">
        <ele>13.1</ele>
        <time>2024-04-17T13:51:07Z</time>
      </trkpt>
      <trkpt lat="49.96415" lon="2.12521">
        <ele>13.1</ele>
        <time>2024-04-17T13:51:08Z</time>
      </trkpt>
      <trkpt lat="49.96415" lon="2.12522">
        <ele>13.1</ele>
        <time>2024-04-17T13:51:09Z</time>
      </trkpt>
      <trkpt lat="49.96415" lon="2.12523">
        <ele>13.1</ele>
        <time>2024-04-17T13:51:10Z</time>
      </trkpt>
      <trkpt lat="49.96415" lon="2.12524">
        <ele>13.1</ele>
        <time>2024-04-17T13:51:11Z</time>
      </trkpt>
      <trkpt lat="49.96415" lon="2.12525">
        <ele>13.1</ele>
        <time>2024-04-17T13:51:12Z</time>
      </trkpt>
      <trkpt lat="49.96415" lon="2.12527">
        <ele>13.1</ele>
        <time>2024-04-17T13:51:13Z</time>
      </trkpt>
      <trkpt lat="49.96415" lon="2.12528">
        <ele>13.1</ele>
        <time>2024-04-17T13:51:14Z</time>
      </trkpt>
      <trkpt lat="49.96415" lon="2.1253">
        <ele>13.1</ele>
        <time>2024-04-17T13:51:15Z</time>
      </trkpt>
      <trkpt lat="49.96415" lon="2.12531">
        <ele>13.1</ele>
        <time>2024-04-17T13:51:16Z</time>
      </trkpt>
      <trkpt lat="49.96415" lon="2.12533">
        <ele>13.1</ele>
        <time>2024-04-17T13:51:17Z</time>
      </trkpt>
      <trkpt lat="49.96415" lon="2.12534">
        <ele>13.1</ele>
        <time>2024-04-17T13:51:18Z</time>
      </trkpt>
      <trkpt lat="49.96415" lon="2.12536">
        <ele>13.1</ele>
        <time>2024-04-17T13:51:19Z</time>
      </trkpt>
      <trkpt lat="49.96415" lon="2.12537">
        <ele>13.1</ele>
        <time>2024-04-17T13:51:20Z</time>
      </trkpt>
      <trkpt lat="49.96415" lon="2.12538">
        <ele>13.1</ele>
        <time>2024-04-17T13:51:21Z</time>
      </trkpt>
      <trkpt lat="49.96415" lon="2.1254">
        <ele>13.1</ele>
        <time>2024-04-17T13:51:22Z</time>
      </trkpt>
      <trkpt lat="49.96415" lon="2.12541">
        <ele>13.1</ele>
        <time>2024-04-17T13:51:23Z</time>
      </trkpt>
      <trkpt lat="49.96415" lon="2.12542">
        <ele>13.1</ele>
        <time>2024-04-17T13:51:24Z</time>
      </trkpt>
      <trkpt lat="49.96415" lon="2.12544">
        <ele>13.1</ele>
        <time>2024-04-17T13:51:25Z</time>
      </trkpt>
      <trkpt lat="49.96415" lon="2.12546">
        <ele>13.1</ele>
        <time>2024-04-17T13:51:26Z</time>
      </trkpt>
      <trkpt lat="49.96415" lon="2.12547">
        <ele>13.1</ele>
        <time>2024-04-17T13:51:27Z</time>
      </trkpt>
      <trkpt lat="49.96415" lon="2.12551">
        <ele>13.1</ele>
        <time>2024-04-17T13:51:28Z</time>
      </trkpt>
      <trkpt lat="49.96415" lon="2.12552">
        <ele>13.1</ele>
        <time>2024-04-17T13:51:29Z</time>
      </trkpt>
      <trkpt lat="49.96415" lon="2.12554">
        <ele>13.1</ele>
        <time>2024-04-17T13:51:30Z</time>
      </trkpt>
      <trkpt lat="49.96416" lon="2.12555">
        <ele>13.1</ele>
        <time>2024-04-17T13:51:31Z</time>
      </trkpt>
      <trkpt lat="49.96416" lon="2.12558">
        <ele>13.1</ele>
        <time>2024-04-17T13:51:32Z</time>
      </trkpt>
      <trkpt lat="49.96416" lon="2.1256">
        <ele>13.1</ele>
        <time>2024-04-17T13:51:33Z</time>
      </trkpt>
      <trkpt lat="49.96417" lon="2.12562">
        <ele>13.1</ele>
        <time>2024-04-17T13:51:34Z</time>
      </trkpt>
      <trkpt lat="49.96417" lon="2.12565">
        <ele>13.1</ele>
        <time>2024-04-17T13:51:35Z</time>
      </trkpt>
      <trkpt lat="49.96417" lon="2.12567">
        <ele>13.1</ele>
        <time>2024-04-17T13:51:36Z</time>
      </trkpt>
      <trkpt lat="49.96418" lon="2.12568">
        <ele>13.1</ele>
        <time>2024-04-17T13:51:37Z</time>
      </trkpt>
      <trkpt lat="49.96418" lon="2.12571">
        <ele>13.1</ele>
        <time>2024-04-17T13:51:38Z</time>
      </trkpt>
      <trkpt lat="49.96418" lon="2.12573">
        <ele>13.1</ele>
        <time>2024-04-17T13:51:39Z</time>
      </trkpt>
      <trkpt lat="49.96418" lon="2.12574">
        <ele>13.1</ele>
        <time>2024-04-17T13:51:40Z</time>
      </trkpt>
      <trkpt lat="49.96418" lon="2.12577">
        <ele>13.1</ele>
        <time>2024-04-17T13:51:41Z</time>
      </trkpt>
      <trkpt lat="49.96418" lon="2.12579">
        <ele>13.1</ele>
        <time>2024-04-17T13:51:42Z</time>
      </trkpt>
      <trkpt lat="49.96418" lon="2.1258">
        <ele>13.1</ele>
        <time>2024-04-17T13:51:43Z</time>
      </trkpt>
      <trkpt lat="49.96419" lon="2.12582">
        <ele>13.1</ele>
        <time>2024-04-17T13:51:44Z</time>
      </trkpt>
      <trkpt lat="49.96419" lon="2.12584">
        <ele>13.1</ele>
        <time>2024-04-17T13:51:45Z</time>
      </trkpt>
      <trkpt lat="49.9642" lon="2.12587">
        <ele>13.1</ele>
        <time>2024-04-17T13:51:46Z</time>
      </trkpt>
      <trkpt lat="49.9642" lon="2.12589">
        <ele>13.1</ele>
        <time>2024-04-17T13:51:47Z</time>
      </trkpt>
      <trkpt lat="49.9642" lon="2.12591">
        <ele>13.1</ele>
        <time>2024-04-17T13:51:48Z</time>
      </trkpt>
      <trkpt lat="49.9642" lon="2.12593">
        <ele>13.1</ele>
        <time>2024-04-17T13:51:49Z</time>
      </trkpt>
      <trkpt lat="49.96421" lon="2.12595">
        <ele>13.1</ele>
        <time>2024-04-17T13:51:50Z</time>
      </trkpt>
      <trkpt lat="49.96421" lon="2.12597">
        <ele>13.1</ele>
        <time>2024-04-17T13:51:51Z</time>
      </trkpt>
      <trkpt lat="49.96421" lon="2.12599">
        <ele>13.1</ele>
        <time>2024-04-17T13:51:52Z</time>
      </trkpt>
      <trkpt lat="49.96421" lon="2.126">
        <ele>13.1</ele>
        <time>2024-04-17T13:51:53Z</time>
      </trkpt>
      <trkpt lat="49.96422" lon="2.12602">
        <ele>13.1</ele>
        <time>2024-04-17T13:51:54Z</time>
      </trkpt>
      <trkpt lat="49.96422" lon="2.12604">
        <ele>13.1</ele>
        <time>2024-04-17T13:51:55Z</time>
      </trkpt>
      <trkpt lat="49.96422" lon="2.12607">
        <ele>13.1</ele>
        <time>2024-04-17T13:51:56Z</time>
      </trkpt>
      <trkpt lat="49.96422" lon="2.12608">
        <ele>13.1</ele>
        <time>2024-04-17T13:51:57Z</time>
      </trkpt>
      <trkpt lat="49.96423" lon="2.12609">
        <ele>13.1</ele>
        <time>2024-04-17T13:51:58Z</time>
      </trkpt>
      <trkpt lat="49.96423" lon="2.12613">
        <ele>13.1</ele>
        <time>2024-04-17T13:51:59Z</time>
      </trkpt>
      <trkpt lat="49.96424" lon="2.12614">
        <ele>13.1</ele>
        <time>2024-04-17T13:52:00Z</time>
      </trkpt>
      <trkpt lat="49.96424" lon="2.12616">
        <ele>13.1</ele>
        <time>2024-04-17T13:52:01Z</time>
      </trkpt>
      <trkpt lat="49.96424" lon="2.12618">
        <ele>13.1</ele>
        <time>2024-04-17T13:52:02Z</time>
      </trkpt>
      <trkpt lat="49.96425" lon="2.1262">
        <ele>13.1</ele>
        <time>2024-04-17T13:52:03Z</time>
      </trkpt>
      <trkpt lat="49.96425" lon="2.12623">
        <ele>13.1</ele>
        <time>2024-04-17T13:52:04Z</time>
      </trkpt>
      <trkpt lat="49.96425" lon="2.12624">
        <ele>13.1</ele>
        <time>2024-04-17T13:52:05Z</time>
      </trkpt>
      <trkpt lat="49.96426" lon="2.12626">
        <ele>13.1</ele>
        <time>2024-04-17T13:52:06Z</time>
      </trkpt>
      <trkpt lat="49.96426" lon="2.12628">
        <ele>13.1</ele>
        <time>2024-04-17T13:52:07Z</time>
      </trkpt>
      <trkpt lat="49.96427" lon="2.1263">
        <ele>13.1</ele>
        <time>2024-04-17T13:52:08Z</time>
      </trkpt>
      <trkpt lat="49.96427" lon="2.12633">
        <ele>13.1</ele>
        <time>2024-04-17T13:52:09Z</time>
      </trkpt>
      <trkpt lat="49.96427" lon="2.12635">
        <ele>13.2</ele>
        <time>2024-04-17T13:52:10Z</time>
      </trkpt>
      <trkpt lat="49.96428" lon="2.12637">
        <ele>13.2</ele>
        <time>2024-04-17T13:52:11Z</time>
      </trkpt>
      <trkpt lat="49.96428" lon="2.1264">
        <ele>13.2</ele>
        <time>2024-04-17T13:52:12Z</time>
      </trkpt>
      <trkpt lat="49.96429" lon="2.12642">
        <ele>13.2</ele>
        <time>2024-04-17T13:52:13Z</time>
      </trkpt>
      <trkpt lat="49.96429" lon="2.12644">
        <ele>13.3</ele>
        <time>2024-04-17T13:52:14Z</time>
      </trkpt>
      <trkpt lat="49.9643" lon="2.12647">
        <ele>13.3</ele>
        <time>2024-04-17T13:52:15Z</time>
      </trkpt>
      <trkpt lat="49.96431" lon="2.12648">
        <ele>13.3</ele>
        <time>2024-04-17T13:52:16Z</time>
      </trkpt>
      <trkpt lat="49.96431" lon="2.12649">
        <ele>13.3</ele>
        <time>2024-04-17T13:52:17Z</time>
      </trkpt>
      <trkpt lat="49.96432" lon="2.1265">
        <ele>13.3</ele>
        <time>2024-04-17T13:52:18Z</time>
      </trkpt>
      <trkpt lat="49.96432" lon="2.12652">
        <ele>13.4</ele>
        <time>2024-04-17T13:52:19Z</time>
      </trkpt>
      <trkpt lat="49.96432" lon="2.12653">
        <ele>13.4</ele>
        <time>2024-04-17T13:52:20Z</time>
      </trkpt>
      <trkpt lat="49.96433" lon="2.12654">
        <ele>13.4</ele>
        <time>2024-04-17T13:52:21Z</time>
      </trkpt>
      <trkpt lat="49.96433" lon="2.12656">
        <ele>13.4</ele>
        <time>2024-04-17T13:52:22Z</time>
      </trkpt>
      <trkpt lat="49.96434" lon="2.12657">
        <ele>13.4</ele>
        <time>2024-04-17T13:52:23Z</time>
      </trkpt>
      <trkpt lat="49.96435" lon="2.12658">
        <ele>13.5</ele>
        <time>2024-04-17T13:52:24Z</time>
      </trkpt>
      <trkpt lat="49.96436" lon="2.12659">
        <ele>13.5</ele>
        <time>2024-04-17T13:52:25Z</time>
      </trkpt>
      <trkpt lat="49.96436" lon="2.12661">
        <ele>13.5</ele>
        <time>2024-04-17T13:52:26Z</time>
      </trkpt>
      <trkpt lat="49.96437" lon="2.12662">
        <ele>13.5</ele>
        <time>2024-04-17T13:52:27Z</time>
      </trkpt>
      <trkpt lat="49.96438" lon="2.12663">
        <ele>13.6</ele>
        <time>2024-04-17T13:52:28Z</time>
      </trkpt>
      <trkpt lat="49.96438" lon="2.12665">
        <ele>13.6</ele>
        <time>2024-04-17T13:52:29Z</time>
      </trkpt>
      <trkpt lat="49.96439" lon="2.12666">
        <ele>13.6</ele>
        <time>2024-04-17T13:52:30Z</time>
      </trkpt>
      <trkpt lat="49.96439" lon="2.12668">
        <ele>13.6</ele>
        <time>2024-04-17T13:52:31Z</time>
      </trkpt>
      <trkpt lat="49.9644" lon="2.12669">
        <ele>13.6</ele>
        <time>2024-04-17T13:52:32Z</time>
      </trkpt>
      <trkpt lat="49.9644" lon="2.1267">
        <ele>13.7</ele>
        <time>2024-04-17T13:52:33Z</time>
      </trkpt>
      <trkpt lat="49.96441" lon="2.12671">
        <ele>13.7</ele>
        <time>2024-04-17T13:52:34Z</time>
      </trkpt>
      <trkpt lat="49.96441" lon="2.12673">
        <ele>13.7</ele>
        <time>2024-04-17T13:52:35Z</time>
      </trkpt>
      <trkpt lat="49.96442" lon="2.12674">
        <ele>13.7</ele>
        <time>2024-04-17T13:52:36Z</time>
      </trkpt>
      <trkpt lat="49.96443" lon="2.12675">
        <ele>13.8</ele>
        <time>2024-04-17T13:52:37Z</time>
      </trkpt>
      <trkpt lat="49.96443" lon="2.12677">
        <ele>13.8</ele>
        <time>2024-04-17T13:52:38Z</time>
      </trkpt>
      <trkpt lat="49.96444" lon="2.12678">
        <ele>13.8</ele>
        <time>2024-04-17T13:52:39Z</time>
      </trkpt>
      <trkpt lat="49.96444" lon="2.1268">
        <ele>13.8</ele>
        <time>2024-04-17T13:52:40Z</time>
      </trkpt>
      <trkpt lat="49.96445" lon="2.12681">
        <ele>13.9</ele>
        <time>2024-04-17T13:52:41Z</time>
      </trkpt>
      <trkpt lat="49.96445" lon="2.12682">
        <ele>13.9</ele>
        <time>2024-04-17T13:52:42Z</time>
      </trkpt>
      <trkpt lat="49.96446" lon="2.12683">
        <ele>13.9</ele>
        <time>2024-04-17T13:52:43Z</time>
      </trkpt>
      <trkpt lat="49.96447" lon="2.12684">
        <ele>13.9</ele>
        <time>2024-04-17T13:52:44Z</time>
      </trkpt>
      <trkpt lat="49.96447" lon="2.12685">
        <ele>14</ele>
        <time>2024-04-17T13:52:45Z</time>
      </trkpt>
      <trkpt lat="49.96447" lon="2.12687">
        <ele>14</ele>
        <time>2024-04-17T13:52:46Z</time>
      </trkpt>
      <trkpt lat="49.96448" lon="2.12687">
        <ele>14</ele>
        <time>2024-04-17T13:52:47Z</time>
      </trkpt>
      <trkpt lat="49.96448" lon="2.12688">
        <ele>14</ele>
        <time>2024-04-17T13:52:48Z</time>
      </trkpt>
      <trkpt lat="49.96448" lon="2.1269">
        <ele>14.1</ele>
        <time>2024-04-17T13:52:49Z</time>
      </trkpt>
      <trkpt lat="49.96449" lon="2.12691">
        <ele>14.1</ele>
        <time>2024-04-17T13:52:50Z</time>
      </trkpt>
      <trkpt lat="49.96449" lon="2.12692">
        <ele>14.1</ele>
        <time>2024-04-17T13:52:51Z</time>
      </trkpt>
      <trkpt lat="49.96449" lon="2.12693">
        <ele>14.1</ele>
        <time>2024-04-17T13:52:52Z</time>
      </trkpt>
      <trkpt lat="49.96449" lon="2.12695">
        <ele>14.2</ele>
        <time>2024-04-17T13:52:53Z</time>
      </trkpt>
      <trkpt lat="49.96449" lon="2.12696">
        <ele>14.2</ele>
        <time>2024-04-17T13:52:54Z</time>
      </trkpt>
      <trkpt lat="49.96449" lon="2.12697">
        <ele>14.2</ele>
        <time>2024-04-17T13:52:55Z</time>
      </trkpt>
      <trkpt lat="49.96449" lon="2.12698">
        <ele>14.2</ele>
        <time>2024-04-17T13:52:56Z</time>
      </trkpt>
      <trkpt lat="49.96449" lon="2.12699">
        <ele>14.2</ele>
        <time>2024-04-17T13:52:57Z</time>
      </trkpt>
      <trkpt lat="49.96449" lon="2.127">
        <ele>14.3</ele>
        <time>2024-04-17T13:52:58Z</time>
      </trkpt>
      <trkpt lat="49.96449" lon="2.12701">
        <ele>14.3</ele>
        <time>2024-04-17T13:52:59Z</time>
      </trkpt>
      <trkpt lat="49.96449" lon="2.12702">
        <ele>14.3</ele>
        <time>2024-04-17T13:53:00Z</time>
      </trkpt>
      <trkpt lat="49.96449" lon="2.12703">
        <ele>14.4</ele>
        <time>2024-04-17T13:53:01Z</time>
      </trkpt>
      <trkpt lat="49.96449" lon="2.12704">
        <ele>14.4</ele>
        <time>2024-04-17T13:53:02Z</time>
      </trkpt>
      <trkpt lat="49.96449" lon="2.12705">
        <ele>14.4</ele>
        <time>2024-04-17T13:53:03Z</time>
      </trkpt>
      <trkpt lat="49.96449" lon="2.12707">
        <ele>14.5</ele>
        <time>2024-04-17T13:53:04Z</time>
      </trkpt>
      <trkpt lat="49.96449" lon="2.12708">
        <ele>14.5</ele>
        <time>2024-04-17T13:53:05Z</time>
      </trkpt>
      <trkpt lat="49.96448" lon="2.12709">
        <ele>14.5</ele>
        <time>2024-04-17T13:53:06Z</time>
      </trkpt>
      <trkpt lat="49.96448" lon="2.1271">
        <ele>14.6</ele>
        <time>2024-04-17T13:53:07Z</time>
      </trkpt>
      <trkpt lat="49.96447" lon="2.12712">
        <ele>14.6</ele>
        <time>2024-04-17T13:53:08Z</time>
      </trkpt>
      <trkpt lat="49.96447" lon="2.12713">
        <ele>14.7</ele>
        <time>2024-04-17T13:53:09Z</time>
      </trkpt>
      <trkpt lat="49.96446" lon="2.12714">
        <ele>14.7</ele>
        <time>2024-04-17T13:53:10Z</time>
      </trkpt>
      <trkpt lat="49.96446" lon="2.12715">
        <ele>14.8</ele>
        <time>2024-04-17T13:53:11Z</time>
      </trkpt>
      <trkpt lat="49.96446" lon="2.12716">
        <ele>14.8</ele>
        <time>2024-04-17T13:53:12Z</time>
      </trkpt>
      <trkpt lat="49.96445" lon="2.12717">
        <ele>14.8</ele>
        <time>2024-04-17T13:53:13Z</time>
      </trkpt>
      <trkpt lat="49.96445" lon="2.12719">
        <ele>14.9</ele>
        <time>2024-04-17T13:53:14Z</time>
      </trkpt>
      <trkpt lat="49.96445" lon="2.1272">
        <ele>14.9</ele>
        <time>2024-04-17T13:53:15Z</time>
      </trkpt>
      <trkpt lat="49.96445" lon="2.12721">
        <ele>14.9</ele>
        <time>2024-04-17T13:53:16Z</time>
      </trkpt>
      <trkpt lat="49.96445" lon="2.12722">
        <ele>15</ele>
        <time>2024-04-17T13:53:17Z</time>
      </trkpt>
      <trkpt lat="49.96445" lon="2.12723">
        <ele>15</ele>
        <time>2024-04-17T13:53:18Z</time>
      </trkpt>
      <trkpt lat="49.96445" lon="2.12725">
        <ele>15</ele>
        <time>2024-04-17T13:53:19Z</time>
      </trkpt>
      <trkpt lat="49.96445" lon="2.12726">
        <ele>15</ele>
        <time>2024-04-17T13:53:20Z</time>
      </trkpt>
      <trkpt lat="49.96444" lon="2.12727">
        <ele>15</ele>
        <time>2024-04-17T13:53:21Z</time>
      </trkpt>
      <trkpt lat="49.96444" lon="2.12728">
        <ele>15.1</ele>
        <time>2024-04-17T13:53:22Z</time>
      </trkpt>
      <trkpt lat="49.96444" lon="2.12729">
        <ele>15.1</ele>
        <time>2024-04-17T13:53:23Z</time>
      </trkpt>
      <trkpt lat="49.96444" lon="2.12729">
        <ele>15.1</ele>
        <time>2024-04-17T13:53:24Z</time>
      </trkpt>
      <trkpt lat="49.96443" lon="2.1273">
        <ele>15.1</ele>
        <time>2024-04-17T13:53:25Z</time>
      </trkpt>
      <trkpt lat="49.96443" lon="2.12731">
        <ele>15.2</ele>
        <time>2024-04-17T13:53:26Z</time>
      </trkpt>
      <trkpt lat="49.96443" lon="2.12732">
        <ele>15.2</ele>
        <time>2024-04-17T13:53:27Z</time>
      </trkpt>
      <trkpt lat="49.96443" lon="2.12733">
        <ele>15.2</ele>
        <time>2024-04-17T13:53:28Z</time>
      </trkpt>
      <trkpt lat="49.96443" lon="2.12734">
        <ele>15.2</ele>
        <time>2024-04-17T13:53:29Z</time>
      </trkpt>
      <trkpt lat="49.96443" lon="2.12736">
        <ele>15.2</ele>
        <time>2024-04-17T13:53:30Z</time>
      </trkpt>
      <trkpt lat="49.96442" lon="2.12737">
        <ele>15.3</ele>
        <time>2024-04-17T13:53:31Z</time>
      </trkpt>
      <trkpt lat="49.96442" lon="2.12738">
        <ele>15.3</ele>
        <time>2024-04-17T13:53:32Z</time>
      </trkpt>
      <trkpt lat="49.96442" lon="2.12739">
        <ele>15.3</ele>
        <time>2024-04-17T13:53:33Z</time>
      </trkpt>
      <trkpt lat="49.96442" lon="2.12741">
        <ele>15.3</ele>
        <time>2024-04-17T13:53:34Z</time>
      </trkpt>
      <trkpt lat="49.96442" lon="2.12742">
        <ele>15.3</ele>
        <time>2024-04-17T13:53:35Z</time>
      </trkpt>
      <trkpt lat="49.96441" lon="2.12743">
        <ele>15.4</ele>
        <time>2024-04-17T13:53:36Z</time>
      </trkpt>
      <trkpt lat="49.96441" lon="2.12744">
        <ele>15.4</ele>
        <time>2024-04-17T13:53:37Z</time>
      </trkpt>
      <trkpt lat="49.9644" lon="2.12746">
        <ele>15.4</ele>
        <time>2024-04-17T13:53:38Z</time>
      </trkpt>
      <trkpt lat="49.9644" lon="2.12747">
        <ele>15.5</ele>
        <time>2024-04-17T13:53:39Z</time>
      </trkpt>
      <trkpt lat="49.96439" lon="2.12749">
        <ele>15.5</ele>
        <time>2024-04-17T13:53:40Z</time>
      </trkpt>
      <trkpt lat="49.96438" lon="2.1275">
        <ele>15.5</ele>
        <time>2024-04-17T13:53:41Z</time>
      </trkpt>
      <trkpt lat="49.96438" lon="2.12752">
        <ele>15.5</ele>
        <time>2024-04-17T13:53:42Z</time>
      </trkpt>
      <trkpt lat="49.96437" lon="2.12753">
        <ele>15.5</ele>
        <time>2024-04-17T13:53:43Z</time>
      </trkpt>
      <trkpt lat="49.96437" lon="2.12755">
        <ele>15.6</ele>
        <time>2024-04-17T13:53:44Z</time>
      </trkpt>
      <trkpt lat="49.96436" lon="2.12756">
        <ele>15.6</ele>
        <time>2024-04-17T13:53:45Z</time>
      </trkpt>
      <trkpt lat="49.96436" lon="2.12758">
        <ele>15.6</ele>
        <time>2024-04-17T13:53:46Z</time>
      </trkpt>
      <trkpt lat="49.96435" lon="2.12759">
        <ele>15.6</ele>
        <time>2024-04-17T13:53:47Z</time>
      </trkpt>
      <trkpt lat="49.96435" lon="2.12761">
        <ele>15.6</ele>
        <time>2024-04-17T13:53:48Z</time>
      </trkpt>
      <trkpt lat="49.96434" lon="2.12764">
        <ele>15.6</ele>
        <time>2024-04-17T13:53:49Z</time>
      </trkpt>
      <trkpt lat="49.96433" lon="2.12765">
        <ele>15.7</ele>
        <time>2024-04-17T13:53:50Z</time>
      </trkpt>
      <trkpt lat="49.96433" lon="2.12766">
        <ele>15.7</ele>
        <time>2024-04-17T13:53:51Z</time>
      </trkpt>
      <trkpt lat="49.96432" lon="2.12768">
        <ele>15.7</ele>
        <time>2024-04-17T13:53:52Z</time>
      </trkpt>
      <trkpt lat="49.96432" lon="2.12769">
        <ele>15.7</ele>
        <time>2024-04-17T13:53:53Z</time>
      </trkpt>
      <trkpt lat="49.96431" lon="2.1277">
        <ele>15.7</ele>
        <time>2024-04-17T13:53:54Z</time>
      </trkpt>
      <trkpt lat="49.96431" lon="2.12772">
        <ele>15.7</ele>
        <time>2024-04-17T13:53:55Z</time>
      </trkpt>
      <trkpt lat="49.96431" lon="2.12773">
        <ele>15.7</ele>
        <time>2024-04-17T13:53:56Z</time>
      </trkpt>
      <trkpt lat="49.9643" lon="2.12775">
        <ele>15.7</ele>
        <time>2024-04-17T13:53:57Z</time>
      </trkpt>
      <trkpt lat="49.96429" lon="2.12776">
        <ele>15.7</ele>
        <time>2024-04-17T13:53:58Z</time>
      </trkpt>
      <trkpt lat="49.96429" lon="2.12778">
        <ele>15.7</ele>
        <time>2024-04-17T13:53:59Z</time>
      </trkpt>
      <trkpt lat="49.96428" lon="2.12779">
        <ele>15.7</ele>
        <time>2024-04-17T13:54:00Z</time>
      </trkpt>
      <trkpt lat="49.96428" lon="2.12781">
        <ele>15.8</ele>
        <time>2024-04-17T13:54:01Z</time>
      </trkpt>
      <trkpt lat="49.96427" lon="2.12782">
        <ele>15.8</ele>
        <time>2024-04-17T13:54:02Z</time>
      </trkpt>
      <trkpt lat="49.96427" lon="2.12784">
        <ele>15.8</ele>
        <time>2024-04-17T13:54:03Z</time>
      </trkpt>
      <trkpt lat="49.96425" lon="2.12786">
        <ele>15.8</ele>
        <time>2024-04-17T13:54:04Z</time>
      </trkpt>
      <trkpt lat="49.96425" lon="2.12787">
        <ele>15.8</ele>
        <time>2024-04-17T13:54:05Z</time>
      </trkpt>
      <trkpt lat="49.96424" lon="2.12789">
        <ele>15.8</ele>
        <time>2024-04-17T13:54:06Z</time>
      </trkpt>
      <trkpt lat="49.96423" lon="2.12791">
        <ele>15.8</ele>
        <time>2024-04-17T13:54:07Z</time>
      </trkpt>
      <trkpt lat="49.96423" lon="2.12792">
        <ele>15.8</ele>
        <time>2024-04-17T13:54:08Z</time>
      </trkpt>
      <trkpt lat="49.96422" lon="2.12793">
        <ele>15.8</ele>
        <time>2024-04-17T13:54:09Z</time>
      </trkpt>
      <trkpt lat="49.96422" lon="2.12795">
        <ele>15.8</ele>
        <time>2024-04-17T13:54:10Z</time>
      </trkpt>
      <trkpt lat="49.96421" lon="2.12797">
        <ele>15.9</ele>
        <time>2024-04-17T13:54:11Z</time>
      </trkpt>
      <trkpt lat="49.96421" lon="2.12798">
        <ele>15.9</ele>
        <time>2024-04-17T13:54:12Z</time>
      </trkpt>
      <trkpt lat="49.9642" lon="2.12799">
        <ele>15.9</ele>
        <time>2024-04-17T13:54:13Z</time>
      </trkpt>
      <trkpt lat="49.9642" lon="2.12801">
        <ele>15.9</ele>
        <time>2024-04-17T13:54:14Z</time>
      </trkpt>
      <trkpt lat="49.96419" lon="2.12802">
        <ele>15.9</ele>
        <time>2024-04-17T13:54:15Z</time>
      </trkpt>
      <trkpt lat="49.96419" lon="2.12804">
        <ele>15.9</ele>
        <time>2024-04-17T13:54:16Z</time>
      </trkpt>
      <trkpt lat="49.96418" lon="2.12805">
        <ele>15.9</ele>
        <time>2024-04-17T13:54:17Z</time>
      </trkpt>
      <trkpt lat="49.96418" lon="2.12807">
        <ele>15.9</ele>
        <time>2024-04-17T13:54:18Z</time>
      </trkpt>
      <trkpt lat="49.96417" lon="2.12808">
        <ele>15.9</ele>
        <time>2024-04-17T13:54:19Z</time>
      </trkpt>
      <trkpt lat="49.96417" lon="2.1281">
        <ele>16</ele>
        <time>2024-04-17T13:54:20Z</time>
      </trkpt>
      <trkpt lat="49.96416" lon="2.12811">
        <ele>16</ele>
        <time>2024-04-17T13:54:21Z</time>
      </trkpt>
      <trkpt lat="49.96416" lon="2.12813">
        <ele>16</ele>
        <time>2024-04-17T13:54:22Z</time>
      </trkpt>
      <trkpt lat="49.96415" lon="2.12814">
        <ele>16</ele>
        <time>2024-04-17T13:54:23Z</time>
      </trkpt>
      <trkpt lat="49.96415" lon="2.12815">
        <ele>16</ele>
        <time>2024-04-17T13:54:24Z</time>
      </trkpt>
      <trkpt lat="49.96414" lon="2.12817">
        <ele>16</ele>
        <time>2024-04-17T13:54:25Z</time>
      </trkpt>
      <trkpt lat="49.96414" lon="2.12818">
        <ele>16</ele>
        <time>2024-04-17T13:54:26Z</time>
      </trkpt>
      <trkpt lat="49.96413" lon="2.1282">
        <ele>16.1</ele>
        <time>2024-04-17T13:54:27Z</time>
      </trkpt>
      <trkpt lat="49.96413" lon="2.12821">
        <ele>16.1</ele>
        <time>2024-04-17T13:54:28Z</time>
      </trkpt>
      <trkpt lat="49.96412" lon="2.12823">
        <ele>16.1</ele>
        <time>2024-04-17T13:54:29Z</time>
      </trkpt>
      <trkpt lat="49.96412" lon="2.12824">
        <ele>16.1</ele>
        <time>2024-04-17T13:54:30Z</time>
      </trkpt>
      <trkpt lat="49.96411" lon="2.12826">
        <ele>16.1</ele>
        <time>2024-04-17T13:54:31Z</time>
      </trkpt>
      <trkpt lat="49.96411" lon="2.12827">
        <ele>16.1</ele>
        <time>2024-04-17T13:54:32Z</time>
      </trkpt>
      <trkpt lat="49.9641" lon="2.12828">
        <ele>16.1</ele>
        <time>2024-04-17T13:54:33Z</time>
      </trkpt>
      <trkpt lat="49.9641" lon="2.12829">
        <ele>16.2</ele>
        <time>2024-04-17T13:54:34Z</time>
      </trkpt>
      <trkpt lat="49.96409" lon="2.1283">
        <ele>16.2</ele>
        <time>2024-04-17T13:54:35Z</time>
      </trkpt>
      <trkpt lat="49.96408" lon="2.12831">
        <ele>16.2</ele>
        <time>2024-04-17T13:54:36Z</time>
      </trkpt>
      <trkpt lat="49.96408" lon="2.12833">
        <ele>16.2</ele>
        <time>2024-04-17T13:54:37Z</time>
      </trkpt>
      <trkpt lat="49.96407" lon="2.12834">
        <ele>16.2</ele>
        <time>2024-04-17T13:54:38Z</time>
      </trkpt>
      <trkpt lat="49.96406" lon="2.12835">
        <ele>16.2</ele>
        <time>2024-04-17T13:54:39Z</time>
      </trkpt>
      <trkpt lat="49.96406" lon="2.12836">
        <ele>16.2</ele>
        <time>2024-04-17T13:54:40Z</time>
      </trkpt>
      <trkpt lat="49.96405" lon="2.12838">
        <ele>16.2</ele>
        <time>2024-04-17T13:54:41Z</time>
      </trkpt>
      <trkpt lat="49.96404" lon="2.12839">
        <ele>16.2</ele>
        <time>2024-04-17T13:54:42Z</time>
      </trkpt>
      <trkpt lat="49.96404" lon="2.1284">
        <ele>16.2</ele>
        <time>2024-04-17T13:54:43Z</time>
      </trkpt>
      <trkpt lat="49.96403" lon="2.12841">
        <ele>16.3</ele>
        <time>2024-04-17T13:54:44Z</time>
      </trkpt>
      <trkpt lat="49.96403" lon="2.12843">
        <ele>16.3</ele>
        <time>2024-04-17T13:54:45Z</time>
      </trkpt>
      <trkpt lat="49.96402" lon="2.12844">
        <ele>16.3</ele>
        <time>2024-04-17T13:54:46Z</time>
      </trkpt>
      <trkpt lat="49.96402" lon="2.12845">
        <ele>16.3</ele>
        <time>2024-04-17T13:54:47Z</time>
      </trkpt>
      <trkpt lat="49.96401" lon="2.12846">
        <ele>16.3</ele>
        <time>2024-04-17T13:54:48Z</time>
      </trkpt>
      <trkpt lat="49.964" lon="2.12848">
        <ele>16.3</ele>
        <time>2024-04-17T13:54:49Z</time>
      </trkpt>
      <trkpt lat="49.964" lon="2.1285">
        <ele>16.3</ele>
        <time>2024-04-17T13:54:50Z</time>
      </trkpt>
      <trkpt lat="49.96399" lon="2.12851">
        <ele>16.3</ele>
        <time>2024-04-17T13:54:51Z</time>
      </trkpt>
      <trkpt lat="49.96399" lon="2.12852">
        <ele>16.3</ele>
        <time>2024-04-17T13:54:52Z</time>
      </trkpt>
      <trkpt lat="49.96398" lon="2.12852">
        <ele>16.3</ele>
        <time>2024-04-17T13:54:53Z</time>
      </trkpt>
      <trkpt lat="49.96398" lon="2.12854">
        <ele>16.3</ele>
        <time>2024-04-17T13:54:54Z</time>
      </trkpt>
      <trkpt lat="49.96397" lon="2.12855">
        <ele>16.3</ele>
        <time>2024-04-17T13:54:55Z</time>
      </trkpt>
      <trkpt lat="49.96397" lon="2.12857">
        <ele>16.3</ele>
        <time>2024-04-17T13:54:56Z</time>
      </trkpt>
      <trkpt lat="49.96396" lon="2.12858">
        <ele>16.3</ele>
        <time>2024-04-17T13:54:57Z</time>
      </trkpt>
      <trkpt lat="49.96396" lon="2.1286">
        <ele>16.3</ele>
        <time>2024-04-17T13:54:58Z</time>
      </trkpt>
      <trkpt lat="49.96395" lon="2.12861">
        <ele>16.3</ele>
        <time>2024-04-17T13:54:59Z</time>
      </trkpt>
      <trkpt lat="49.96395" lon="2.12862">
        <ele>16.3</ele>
        <time>2024-04-17T13:55:00Z</time>
      </trkpt>
      <trkpt lat="49.96394" lon="2.12864">
        <ele>16.3</ele>
        <time>2024-04-17T13:55:01Z</time>
      </trkpt>
      <trkpt lat="49.96394" lon="2.12865">
        <ele>16.3</ele>
        <time>2024-04-17T13:55:02Z</time>
      </trkpt>
      <trkpt lat="49.96393" lon="2.12867">
        <ele>16.3</ele>
        <time>2024-04-17T13:55:03Z</time>
      </trkpt>
      <trkpt lat="49.96393" lon="2.12869">
        <ele>16.3</ele>
        <time>2024-04-17T13:55:04Z</time>
      </trkpt>
      <trkpt lat="49.96392" lon="2.1287">
        <ele>16.3</ele>
        <time>2024-04-17T13:55:05Z</time>
      </trkpt>
      <trkpt lat="49.96392" lon="2.12871">
        <ele>16.3</ele>
        <time>2024-04-17T13:55:06Z</time>
      </trkpt>
      <trkpt lat="49.96391" lon="2.12873">
        <ele>16.3</ele>
        <time>2024-04-17T13:55:07Z</time>
      </trkpt>
      <trkpt lat="49.96391" lon="2.12874">
        <ele>16.3</ele>
        <time>2024-04-17T13:55:08Z</time>
      </trkpt>
      <trkpt lat="49.9639" lon="2.12875">
        <ele>16.3</ele>
        <time>2024-04-17T13:55:09Z</time>
      </trkpt>
      <trkpt lat="49.9639" lon="2.12877">
        <ele>16.4</ele>
        <time>2024-04-17T13:55:10Z</time>
      </trkpt>
      <trkpt lat="49.96389" lon="2.12878">
        <ele>16.4</ele>
        <time>2024-04-17T13:55:11Z</time>
      </trkpt>
      <trkpt lat="49.96389" lon="2.12879">
        <ele>16.4</ele>
        <time>2024-04-17T13:55:12Z</time>
      </trkpt>
      <trkpt lat="49.96388" lon="2.12881">
        <ele>16.4</ele>
        <time>2024-04-17T13:55:13Z</time>
      </trkpt>
      <trkpt lat="49.96388" lon="2.12883">
        <ele>16.4</ele>
        <time>2024-04-17T13:55:14Z</time>
      </trkpt>
      <trkpt lat="49.96387" lon="2.12884">
        <ele>16.4</ele>
        <time>2024-04-17T13:55:15Z</time>
      </trkpt>
      <trkpt lat="49.96387" lon="2.12886">
        <ele>16.4</ele>
        <time>2024-04-17T13:55:16Z</time>
      </trkpt>
      <trkpt lat="49.96386" lon="2.12887">
        <ele>16.4</ele>
        <time>2024-04-17T13:55:17Z</time>
      </trkpt>
      <trkpt lat="49.96385" lon="2.12888">
        <ele>16.4</ele>
        <time>2024-04-17T13:55:18Z</time>
      </trkpt>
      <trkpt lat="49.96385" lon="2.1289">
        <ele>16.4</ele>
        <time>2024-04-17T13:55:19Z</time>
      </trkpt>
      <trkpt lat="49.96384" lon="2.12891">
        <ele>16.4</ele>
        <time>2024-04-17T13:55:20Z</time>
      </trkpt>
      <trkpt lat="49.96384" lon="2.12893">
        <ele>16.4</ele>
        <time>2024-04-17T13:55:21Z</time>
      </trkpt>
      <trkpt lat="49.96383" lon="2.12894">
        <ele>16.4</ele>
        <time>2024-04-17T13:55:22Z</time>
      </trkpt>
      <trkpt lat="49.96382" lon="2.12896">
        <ele>16.4</ele>
        <time>2024-04-17T13:55:23Z</time>
      </trkpt>
      <trkpt lat="49.96381" lon="2.12898">
        <ele>16.4</ele>
        <time>2024-04-17T13:55:24Z</time>
      </trkpt>
      <trkpt lat="49.96381" lon="2.129">
        <ele>16.5</ele>
        <time>2024-04-17T13:55:25Z</time>
      </trkpt>
      <trkpt lat="49.96381" lon="2.12901">
        <ele>16.5</ele>
        <time>2024-04-17T13:55:26Z</time>
      </trkpt>
      <trkpt lat="49.9638" lon="2.12902">
        <ele>16.5</ele>
        <time>2024-04-17T13:55:27Z</time>
      </trkpt>
      <trkpt lat="49.96379" lon="2.12904">
        <ele>16.5</ele>
        <time>2024-04-17T13:55:28Z</time>
      </trkpt>
      <trkpt lat="49.96379" lon="2.12906">
        <ele>16.5</ele>
        <time>2024-04-17T13:55:29Z</time>
      </trkpt>
      <trkpt lat="49.96378" lon="2.12908">
        <ele>16.5</ele>
        <time>2024-04-17T13:55:30Z</time>
      </trkpt>
      <trkpt lat="49.96378" lon="2.12909">
        <ele>16.5</ele>
        <time>2024-04-17T13:55:31Z</time>
      </trkpt>
      <trkpt lat="49.96377" lon="2.1291">
        <ele>16.5</ele>
        <time>2024-04-17T13:55:32Z</time>
      </trkpt>
      <trkpt lat="49.96377" lon="2.1291">
        <ele>16.5</ele>
        <time>2024-04-17T13:55:33Z</time>
      </trkpt>
      <trkpt lat="49.96377" lon="2.12912">
        <ele>16.5</ele>
        <time>2024-04-17T13:55:34Z</time>
      </trkpt>
      <trkpt lat="49.96376" lon="2.12913">
        <ele>16.5</ele>
        <time>2024-04-17T13:55:35Z</time>
      </trkpt>
      <trkpt lat="49.96376" lon="2.12915">
        <ele>16.5</ele>
        <time>2024-04-17T13:55:36Z</time>
      </trkpt>
      <trkpt lat="49.96375" lon="2.12916">
        <ele>16.5</ele>
        <time>2024-04-17T13:55:37Z</time>
      </trkpt>
      <trkpt lat="49.96374" lon="2.12918">
        <ele>16.5</ele>
        <time>2024-04-17T13:55:38Z</time>
      </trkpt>
      <trkpt lat="49.96374" lon="2.1292">
        <ele>16.5</ele>
        <time>2024-04-17T13:55:39Z</time>
      </trkpt>
      <trkpt lat="49.96373" lon="2.12921">
        <ele>16.5</ele>
        <time>2024-04-17T13:55:40Z</time>
      </trkpt>
      <trkpt lat="49.96373" lon="2.12923">
        <ele>16.6</ele>
        <time>2024-04-17T13:55:41Z</time>
      </trkpt>
      <trkpt lat="49.96372" lon="2.12924">
        <ele>16.6</ele>
        <time>2024-04-17T13:55:42Z</time>
      </trkpt>
      <trkpt lat="49.96372" lon="2.12926">
        <ele>16.6</ele>
        <time>2024-04-17T13:55:43Z</time>
      </trkpt>
      <trkpt lat="49.96372" lon="2.12927">
        <ele>16.6</ele>
        <time>2024-04-17T13:55:44Z</time>
      </trkpt>
      <trkpt lat="49.96371" lon="2.12929">
        <ele>16.6</ele>
        <time>2024-04-17T13:55:45Z</time>
      </trkpt>
      <trkpt lat="49.96371" lon="2.1293">
        <ele>16.6</ele>
        <time>2024-04-17T13:55:46Z</time>
      </trkpt>
      <trkpt lat="49.9637" lon="2.12932">
        <ele>16.6</ele>
        <time>2024-04-17T13:55:47Z</time>
      </trkpt>
      <trkpt lat="49.9637" lon="2.12933">
        <ele>16.6</ele>
        <time>2024-04-17T13:55:48Z</time>
      </trkpt>
      <trkpt lat="49.96369" lon="2.12935">
        <ele>16.6</ele>
        <time>2024-04-17T13:55:49Z</time>
      </trkpt>
      <trkpt lat="49.96369" lon="2.12936">
        <ele>16.6</ele>
        <time>2024-04-17T13:55:50Z</time>
      </trkpt>
      <trkpt lat="49.96369" lon="2.12938">
        <ele>16.6</ele>
        <time>2024-04-17T13:55:51Z</time>
      </trkpt>
      <trkpt lat="49.96368" lon="2.12939">
        <ele>16.6</ele>
        <time>2024-04-17T13:55:52Z</time>
      </trkpt>
      <trkpt lat="49.96367" lon="2.12941">
        <ele>16.6</ele>
        <time>2024-04-17T13:55:53Z</time>
      </trkpt>
      <trkpt lat="49.96367" lon="2.12942">
        <ele>16.6</ele>
        <time>2024-04-17T13:55:54Z</time>
      </trkpt>
      <trkpt lat="49.96366" lon="2.12944">
        <ele>16.6</ele>
        <time>2024-04-17T13:55:55Z</time>
      </trkpt>
      <trkpt lat="49.96365" lon="2.12945">
        <ele>16.6</ele>
        <time>2024-04-17T13:55:56Z</time>
      </trkpt>
      <trkpt lat="49.96365" lon="2.12946">
        <ele>16.7</ele>
        <time>2024-04-17T13:55:57Z</time>
      </trkpt>
      <trkpt lat="49.96364" lon="2.12947">
        <ele>16.7</ele>
        <time>2024-04-17T13:55:58Z</time>
      </trkpt>
      <trkpt lat="49.96363" lon="2.12947">
        <ele>16.7</ele>
        <time>2024-04-17T13:55:59Z</time>
      </trkpt>
      <trkpt lat="49.96363" lon="2.12949">
        <ele>16.7</ele>
        <time>2024-04-17T13:56:00Z</time>
      </trkpt>
      <trkpt lat="49.96362" lon="2.1295">
        <ele>16.7</ele>
        <time>2024-04-17T13:56:01Z</time>
      </trkpt>
      <trkpt lat="49.96362" lon="2.12951">
        <ele>16.7</ele>
        <time>2024-04-17T13:56:02Z</time>
      </trkpt>
      <trkpt lat="49.96361" lon="2.12952">
        <ele>16.7</ele>
        <time>2024-04-17T13:56:03Z</time>
      </trkpt>
      <trkpt lat="49.9636" lon="2.12954">
        <ele>16.7</ele>
        <time>2024-04-17T13:56:04Z</time>
      </trkpt>
      <trkpt lat="49.9636" lon="2.12955">
        <ele>16.7</ele>
        <time>2024-04-17T13:56:05Z</time>
      </trkpt>
      <trkpt lat="49.96359" lon="2.12956">
        <ele>16.7</ele>
        <time>2024-04-17T13:56:06Z</time>
      </trkpt>
      <trkpt lat="49.96358" lon="2.12957">
        <ele>16.7</ele>
        <time>2024-04-17T13:56:07Z</time>
      </trkpt>
      <trkpt lat="49.96357" lon="2.12959">
        <ele>16.8</ele>
        <time>2024-04-17T13:56:08Z</time>
      </trkpt>
      <trkpt lat="49.96357" lon="2.1296">
        <ele>16.8</ele>
        <time>2024-04-17T13:56:09Z</time>
      </trkpt>
      <trkpt lat="49.96356" lon="2.12962">
        <ele>16.8</ele>
        <time>2024-04-17T13:56:10Z</time>
      </trkpt>
      <trkpt lat="49.96355" lon="2.12963">
        <ele>16.8</ele>
        <time>2024-04-17T13:56:11Z</time>
      </trkpt>
      <trkpt lat="49.96355" lon="2.12964">
        <ele>16.8</ele>
        <time>2024-04-17T13:56:12Z</time>
      </trkpt>
      <trkpt lat="49.96354" lon="2.12964">
        <ele>16.8</ele>
        <time>2024-04-17T13:56:13Z</time>
      </trkpt>
      <trkpt lat="49.96353" lon="2.12965">
        <ele>16.8</ele>
        <time>2024-04-17T13:56:14Z</time>
      </trkpt>
      <trkpt lat="49.96353" lon="2.12967">
        <ele>16.8</ele>
        <time>2024-04-17T13:56:15Z</time>
      </trkpt>
      <trkpt lat="49.96352" lon="2.12968">
        <ele>16.8</ele>
        <time>2024-04-17T13:56:16Z</time>
      </trkpt>
      <trkpt lat="49.96352" lon="2.12969">
        <ele>16.8</ele>
        <time>2024-04-17T13:56:17Z</time>
      </trkpt>
      <trkpt lat="49.96351" lon="2.12971">
        <ele>16.8</ele>
        <time>2024-04-17T13:56:18Z</time>
      </trkpt>
      <trkpt lat="49.9635" lon="2.12972">
        <ele>16.9</ele>
        <time>2024-04-17T13:56:19Z</time>
      </trkpt>
      <trkpt lat="49.9635" lon="2.12973">
        <ele>16.9</ele>
        <time>2024-04-17T13:56:20Z</time>
      </trkpt>
      <trkpt lat="49.96349" lon="2.12974">
        <ele>16.9</ele>
        <time>2024-04-17T13:56:21Z</time>
      </trkpt>
      <trkpt lat="49.96349" lon="2.12975">
        <ele>16.9</ele>
        <time>2024-04-17T13:56:22Z</time>
      </trkpt>
      <trkpt lat="49.96348" lon="2.12976">
        <ele>16.9</ele>
        <time>2024-04-17T13:56:23Z</time>
      </trkpt>
      <trkpt lat="49.96347" lon="2.12977">
        <ele>16.9</ele>
        <time>2024-04-17T13:56:24Z</time>
      </trkpt>
      <trkpt lat="49.96347" lon="2.12979">
        <ele>16.9</ele>
        <time>2024-04-17T13:56:25Z</time>
      </trkpt>
      <trkpt lat="49.96346" lon="2.1298">
        <ele>16.9</ele>
        <time>2024-04-17T13:56:26Z</time>
      </trkpt>
      <trkpt lat="49.96345" lon="2.12981">
        <ele>16.9</ele>
        <time>2024-04-17T13:56:27Z</time>
      </trkpt>
      <trkpt lat="49.96345" lon="2.12982">
        <ele>16.9</ele>
        <time>2024-04-17T13:56:28Z</time>
      </trkpt>
      <trkpt lat="49.96344" lon="2.12984">
        <ele>16.9</ele>
        <time>2024-04-17T13:56:29Z</time>
      </trkpt>
      <trkpt lat="49.96344" lon="2.12985">
        <ele>16.9</ele>
        <time>2024-04-17T13:56:30Z</time>
      </trkpt>
      <trkpt lat="49.96343" lon="2.12986">
        <ele>16.9</ele>
        <time>2024-04-17T13:56:31Z</time>
      </trkpt>
      <trkpt lat="49.96342" lon="2.12988">
        <ele>16.9</ele>
        <time>2024-04-17T13:56:32Z</time>
      </trkpt>
      <trkpt lat="49.96342" lon="2.12989">
        <ele>16.9</ele>
        <time>2024-04-17T13:56:33Z</time>
      </trkpt>
      <trkpt lat="49.96342" lon="2.1299">
        <ele>17</ele>
        <time>2024-04-17T13:56:34Z</time>
      </trkpt>
      <trkpt lat="49.96341" lon="2.12991">
        <ele>17</ele>
        <time>2024-04-17T13:56:35Z</time>
      </trkpt>
      <trkpt lat="49.96341" lon="2.12992">
        <ele>17</ele>
        <time>2024-04-17T13:56:36Z</time>
      </trkpt>
      <trkpt lat="49.9634" lon="2.12993">
        <ele>17</ele>
        <time>2024-04-17T13:56:37Z</time>
      </trkpt>
      <trkpt lat="49.9634" lon="2.12995">
        <ele>17</ele>
        <time>2024-04-17T13:56:38Z</time>
      </trkpt>
      <trkpt lat="49.96339" lon="2.12998">
        <ele>17</ele>
        <time>2024-04-17T13:56:39Z</time>
      </trkpt>
      <trkpt lat="49.96339" lon="2.12999">
        <ele>17</ele>
        <time>2024-04-17T13:56:40Z</time>
      </trkpt>
      <trkpt lat="49.96338" lon="2.13">
        <ele>17</ele>
        <time>2024-04-17T13:56:41Z</time>
      </trkpt>
      <trkpt lat="49.96338" lon="2.13002">
        <ele>17</ele>
        <time>2024-04-17T13:56:42Z</time>
      </trkpt>
      <trkpt lat="49.96337" lon="2.13003">
        <ele>17</ele>
        <time>2024-04-17T13:56:43Z</time>
      </trkpt>
      <trkpt lat="49.96337" lon="2.13005">
        <ele>17</ele>
        <time>2024-04-17T13:56:44Z</time>
      </trkpt>
      <trkpt lat="49.96336" lon="2.13006">
        <ele>17</ele>
        <time>2024-04-17T13:56:45Z</time>
      </trkpt>
      <trkpt lat="49.96336" lon="2.13007">
        <ele>17</ele>
        <time>2024-04-17T13:56:46Z</time>
      </trkpt>
      <trkpt lat="49.96335" lon="2.13009">
        <ele>17.1</ele>
        <time>2024-04-17T13:56:47Z</time>
      </trkpt>
      <trkpt lat="49.96335" lon="2.1301">
        <ele>17.1</ele>
        <time>2024-04-17T13:56:48Z</time>
      </trkpt>
      <trkpt lat="49.96335" lon="2.13011">
        <ele>17.1</ele>
        <time>2024-04-17T13:56:49Z</time>
      </trkpt>
      <trkpt lat="49.96334" lon="2.13013">
        <ele>17.1</ele>
        <time>2024-04-17T13:56:50Z</time>
      </trkpt>
      <trkpt lat="49.96334" lon="2.13014">
        <ele>17.1</ele>
        <time>2024-04-17T13:56:51Z</time>
      </trkpt>
      <trkpt lat="49.96333" lon="2.13015">
        <ele>17.1</ele>
        <time>2024-04-17T13:56:52Z</time>
      </trkpt>
      <trkpt lat="49.96333" lon="2.13017">
        <ele>17.1</ele>
        <time>2024-04-17T13:56:53Z</time>
      </trkpt>
      <trkpt lat="49.96332" lon="2.13018">
        <ele>17.1</ele>
        <time>2024-04-17T13:56:54Z</time>
      </trkpt>
      <trkpt lat="49.96332" lon="2.1302">
        <ele>17.1</ele>
        <time>2024-04-17T13:56:55Z</time>
      </trkpt>
      <trkpt lat="49.96331" lon="2.13021">
        <ele>17.1</ele>
        <time>2024-04-17T13:56:56Z</time>
      </trkpt>
      <trkpt lat="49.96331" lon="2.13024">
        <ele>17.1</ele>
        <time>2024-04-17T13:56:57Z</time>
      </trkpt>
      <trkpt lat="49.96331" lon="2.13025">
        <ele>17.1</ele>
        <time>2024-04-17T13:56:58Z</time>
      </trkpt>
      <trkpt lat="49.96331" lon="2.13026">
        <ele>17.2</ele>
        <time>2024-04-17T13:56:59Z</time>
      </trkpt>
      <trkpt lat="49.9633" lon="2.13027">
        <ele>17.2</ele>
        <time>2024-04-17T13:57:00Z</time>
      </trkpt>
      <trkpt lat="49.9633" lon="2.13028">
        <ele>17.2</ele>
        <time>2024-04-17T13:57:01Z</time>
      </trkpt>
      <trkpt lat="49.96329" lon="2.1303">
        <ele>17.2</ele>
        <time>2024-04-17T13:57:02Z</time>
      </trkpt>
      <trkpt lat="49.96328" lon="2.13031">
        <ele>17.2</ele>
        <time>2024-04-17T13:57:03Z</time>
      </trkpt>
      <trkpt lat="49.96328" lon="2.13033">
        <ele>17.2</ele>
        <time>2024-04-17T13:57:04Z</time>
      </trkpt>
      <trkpt lat="49.96327" lon="2.13034">
        <ele>17.2</ele>
        <time>2024-04-17T13:57:05Z</time>
      </trkpt>
      <trkpt lat="49.96327" lon="2.13036">
        <ele>17.2</ele>
        <time>2024-04-17T13:57:06Z</time>
      </trkpt>
      <trkpt lat="49.96326" lon="2.13037">
        <ele>17.2</ele>
        <time>2024-04-17T13:57:07Z</time>
      </trkpt>
      <trkpt lat="49.96326" lon="2.13038">
        <ele>17.3</ele>
        <time>2024-04-17T13:57:08Z</time>
      </trkpt>
      <trkpt lat="49.96325" lon="2.1304">
        <ele>17.3</ele>
        <time>2024-04-17T13:57:09Z</time>
      </trkpt>
      <trkpt lat="49.96325" lon="2.13041">
        <ele>17.3</ele>
        <time>2024-04-17T13:57:10Z</time>
      </trkpt>
      <trkpt lat="49.96324" lon="2.13043">
        <ele>17.3</ele>
        <time>2024-04-17T13:57:11Z</time>
      </trkpt>
      <trkpt lat="49.96324" lon="2.13044">
        <ele>17.3</ele>
        <time>2024-04-17T13:57:12Z</time>
      </trkpt>
      <trkpt lat="49.96323" lon="2.13046">
        <ele>17.3</ele>
        <time>2024-04-17T13:57:13Z</time>
      </trkpt>
      <trkpt lat="49.96323" lon="2.13047">
        <ele>17.3</ele>
        <time>2024-04-17T13:57:14Z</time>
      </trkpt>
      <trkpt lat="49.96322" lon="2.13048">
        <ele>17.4</ele>
        <time>2024-04-17T13:57:15Z</time>
      </trkpt>
      <trkpt lat="49.96322" lon="2.1305">
        <ele>17.4</ele>
        <time>2024-04-17T13:57:16Z</time>
      </trkpt>
      <trkpt lat="49.96321" lon="2.13051">
        <ele>17.4</ele>
        <time>2024-04-17T13:57:17Z</time>
      </trkpt>
      <trkpt lat="49.96321" lon="2.13053">
        <ele>17.4</ele>
        <time>2024-04-17T13:57:18Z</time>
      </trkpt>
      <trkpt lat="49.9632" lon="2.13054">
        <ele>17.4</ele>
        <time>2024-04-17T13:57:19Z</time>
      </trkpt>
      <trkpt lat="49.9632" lon="2.13055">
        <ele>17.4</ele>
        <time>2024-04-17T13:57:20Z</time>
      </trkpt>
      <trkpt lat="49.96319" lon="2.13057">
        <ele>17.5</ele>
        <time>2024-04-17T13:57:21Z</time>
      </trkpt>
      <trkpt lat="49.96319" lon="2.13058">
        <ele>17.5</ele>
        <time>2024-04-17T13:57:22Z</time>
      </trkpt>
      <trkpt lat="49.96318" lon="2.1306">
        <ele>17.5</ele>
        <time>2024-04-17T13:57:23Z</time>
      </trkpt>
      <trkpt lat="49.96318" lon="2.13061">
        <ele>17.5</ele>
        <time>2024-04-17T13:57:24Z</time>
      </trkpt>
      <trkpt lat="49.96317" lon="2.13063">
        <ele>17.5</ele>
        <time>2024-04-17T13:57:25Z</time>
      </trkpt>
      <trkpt lat="49.96317" lon="2.13065">
        <ele>17.5</ele>
        <time>2024-04-17T13:57:26Z</time>
      </trkpt>
      <trkpt lat="49.96316" lon="2.13066">
        <ele>17.6</ele>
        <time>2024-04-17T13:57:27Z</time>
      </trkpt>
      <trkpt lat="49.96316" lon="2.13067">
        <ele>17.6</ele>
        <time>2024-04-17T13:57:28Z</time>
      </trkpt>
      <trkpt lat="49.96315" lon="2.13069">
        <ele>17.6</ele>
        <time>2024-04-17T13:57:29Z</time>
      </trkpt>
      <trkpt lat="49.96315" lon="2.1307">
        <ele>17.6</ele>
        <time>2024-04-17T13:57:30Z</time>
      </trkpt>
      <trkpt lat="49.96314" lon="2.13072">
        <ele>17.6</ele>
        <time>2024-04-17T13:57:31Z</time>
      </trkpt>
      <trkpt lat="49.96314" lon="2.13073">
        <ele>17.6</ele>
        <time>2024-04-17T13:57:32Z</time>
      </trkpt>
      <trkpt lat="49.96313" lon="2.13075">
        <ele>17.6</ele>
        <time>2024-04-17T13:57:33Z</time>
      </trkpt>
      <trkpt lat="49.96313" lon="2.13076">
        <ele>17.7</ele>
        <time>2024-04-17T13:57:34Z</time>
      </trkpt>
      <trkpt lat="49.96312" lon="2.13078">
        <ele>17.7</ele>
        <time>2024-04-17T13:57:35Z</time>
      </trkpt>
      <trkpt lat="49.96312" lon="2.13079">
        <ele>17.7</ele>
        <time>2024-04-17T13:57:36Z</time>
      </trkpt>
      <trkpt lat="49.96311" lon="2.13081">
        <ele>17.7</ele>
        <time>2024-04-17T13:57:37Z</time>
      </trkpt>
      <trkpt lat="49.96311" lon="2.13082">
        <ele>17.7</ele>
        <time>2024-04-17T13:57:38Z</time>
      </trkpt>
      <trkpt lat="49.9631" lon="2.13084">
        <ele>17.7</ele>
        <time>2024-04-17T13:57:39Z</time>
      </trkpt>
      <trkpt lat="49.9631" lon="2.13085">
        <ele>17.8</ele>
        <time>2024-04-17T13:57:40Z</time>
      </trkpt>
      <trkpt lat="49.96309" lon="2.13087">
        <ele>17.8</ele>
        <time>2024-04-17T13:57:41Z</time>
      </trkpt>
      <trkpt lat="49.96309" lon="2.13088">
        <ele>17.8</ele>
        <time>2024-04-17T13:57:42Z</time>
      </trkpt>
      <trkpt lat="49.96308" lon="2.1309">
        <ele>17.8</ele>
        <time>2024-04-17T13:57:43Z</time>
      </trkpt>
      <trkpt lat="49.96308" lon="2.13092">
        <ele>17.8</ele>
        <time>2024-04-17T13:57:44Z</time>
      </trkpt>
      <trkpt lat="49.96307" lon="2.13093">
        <ele>17.8</ele>
        <time>2024-04-17T13:57:45Z</time>
      </trkpt>
      <trkpt lat="49.96307" lon="2.13095">
        <ele>17.8</ele>
        <time>2024-04-17T13:57:46Z</time>
      </trkpt>
      <trkpt lat="49.96306" lon="2.13096">
        <ele>17.8</ele>
        <time>2024-04-17T13:57:47Z</time>
      </trkpt>
      <trkpt lat="49.96306" lon="2.13097">
        <ele>17.9</ele>
        <time>2024-04-17T13:57:48Z</time>
      </trkpt>
      <trkpt lat="49.96305" lon="2.13099">
        <ele>17.9</ele>
        <time>2024-04-17T13:57:49Z</time>
      </trkpt>
      <trkpt lat="49.96305" lon="2.131">
        <ele>17.9</ele>
        <time>2024-04-17T13:57:50Z</time>
      </trkpt>
      <trkpt lat="49.96304" lon="2.13102">
        <ele>17.9</ele>
        <time>2024-04-17T13:57:51Z</time>
      </trkpt>
      <trkpt lat="49.96303" lon="2.13105">
        <ele>17.9</ele>
        <time>2024-04-17T13:57:52Z</time>
      </trkpt>
      <trkpt lat="49.96303" lon="2.13106">
        <ele>17.9</ele>
        <time>2024-04-17T13:57:53Z</time>
      </trkpt>
      <trkpt lat="49.96302" lon="2.13107">
        <ele>17.9</ele>
        <time>2024-04-17T13:57:54Z</time>
      </trkpt>
      <trkpt lat="49.96302" lon="2.13109">
        <ele>18</ele>
        <time>2024-04-17T13:57:55Z</time>
      </trkpt>
      <trkpt lat="49.96301" lon="2.13111">
        <ele>18</ele>
        <time>2024-04-17T13:57:56Z</time>
      </trkpt>
      <trkpt lat="49.96301" lon="2.13112">
        <ele>18</ele>
        <time>2024-04-17T13:57:57Z</time>
      </trkpt>
      <trkpt lat="49.96301" lon="2.13114">
        <ele>18</ele>
        <time>2024-04-17T13:57:58Z</time>
      </trkpt>
      <trkpt lat="49.963" lon="2.13115">
        <ele>18</ele>
        <time>2024-04-17T13:57:59Z</time>
      </trkpt>
      <trkpt lat="49.963" lon="2.13117">
        <ele>18</ele>
        <time>2024-04-17T13:58:00Z</time>
      </trkpt>
      <trkpt lat="49.963" lon="2.13118">
        <ele>18</ele>
        <time>2024-04-17T13:58:01Z</time>
      </trkpt>
      <trkpt lat="49.96299" lon="2.13119">
        <ele>18.1</ele>
        <time>2024-04-17T13:58:02Z</time>
      </trkpt>
      <trkpt lat="49.96299" lon="2.13121">
        <ele>18.1</ele>
        <time>2024-04-17T13:58:03Z</time>
      </trkpt>
      <trkpt lat="49.96299" lon="2.13122">
        <ele>18.1</ele>
        <time>2024-04-17T13:58:04Z</time>
      </trkpt>
      <trkpt lat="49.96298" lon="2.13124">
        <ele>18.1</ele>
        <time>2024-04-17T13:58:05Z</time>
      </trkpt>
      <trkpt lat="49.96298" lon="2.13125">
        <ele>18.1</ele>
        <time>2024-04-17T13:58:06Z</time>
      </trkpt>
      <trkpt lat="49.96298" lon="2.13127">
        <ele>18.1</ele>
        <time>2024-04-17T13:58:07Z</time>
      </trkpt>
      <trkpt lat="49.96298" lon="2.13129">
        <ele>18.1</ele>
        <time>2024-04-17T13:58:08Z</time>
      </trkpt>
      <trkpt lat="49.96298" lon="2.1313">
        <ele>18.1</ele>
        <time>2024-04-17T13:58:09Z</time>
      </trkpt>
      <trkpt lat="49.96298" lon="2.13132">
        <ele>18.1</ele>
        <time>2024-04-17T13:58:10Z</time>
      </trkpt>
      <trkpt lat="49.96297" lon="2.13133">
        <ele>18.2</ele>
        <time>2024-04-17T13:58:11Z</time>
      </trkpt>
      <trkpt lat="49.96297" lon="2.13134">
        <ele>18.2</ele>
        <time>2024-04-17T13:58:12Z</time>
      </trkpt>
      <trkpt lat="49.96297" lon="2.13136">
        <ele>18.2</ele>
        <time>2024-04-17T13:58:13Z</time>
      </trkpt>
      <trkpt lat="49.96297" lon="2.13137">
        <ele>18.2</ele>
        <time>2024-04-17T13:58:14Z</time>
      </trkpt>
      <trkpt lat="49.96296" lon="2.13139">
        <ele>18.2</ele>
        <time>2024-04-17T13:58:15Z</time>
      </trkpt>
      <trkpt lat="49.96296" lon="2.13143">
        <ele>18.2</ele>
        <time>2024-04-17T13:58:16Z</time>
      </trkpt>
      <trkpt lat="49.96296" lon="2.13144">
        <ele>18.2</ele>
        <time>2024-04-17T13:58:17Z</time>
      </trkpt>
      <trkpt lat="49.96296" lon="2.13145">
        <ele>18.2</ele>
        <time>2024-04-17T13:58:18Z</time>
      </trkpt>
      <trkpt lat="49.96296" lon="2.13149">
        <ele>18.3</ele>
        <time>2024-04-17T13:58:19Z</time>
      </trkpt>
      <trkpt lat="49.96296" lon="2.1315">
        <ele>18.3</ele>
        <time>2024-04-17T13:58:20Z</time>
      </trkpt>
      <trkpt lat="49.96296" lon="2.13151">
        <ele>18.3</ele>
        <time>2024-04-17T13:58:21Z</time>
      </trkpt>
      <trkpt lat="49.96296" lon="2.13153">
        <ele>18.3</ele>
        <time>2024-04-17T13:58:22Z</time>
      </trkpt>
      <trkpt lat="49.96295" lon="2.13154">
        <ele>18.3</ele>
        <time>2024-04-17T13:58:23Z</time>
      </trkpt>
      <trkpt lat="49.96295" lon="2.13156">
        <ele>18.3</ele>
        <time>2024-04-17T13:58:24Z</time>
      </trkpt>
      <trkpt lat="49.96294" lon="2.13157">
        <ele>18.3</ele>
        <time>2024-04-17T13:58:25Z</time>
      </trkpt>
      <trkpt lat="49.96294" lon="2.13159">
        <ele>18.3</ele>
        <time>2024-04-17T13:58:26Z</time>
      </trkpt>
      <trkpt lat="49.96294" lon="2.13161">
        <ele>18.3</ele>
        <time>2024-04-17T13:58:27Z</time>
      </trkpt>
      <trkpt lat="49.96293" lon="2.13163">
        <ele>18.3</ele>
        <time>2024-04-17T13:58:28Z</time>
      </trkpt>
      <trkpt lat="49.96293" lon="2.13164">
        <ele>18.3</ele>
        <time>2024-04-17T13:58:29Z</time>
      </trkpt>
      <trkpt lat="49.96292" lon="2.13166">
        <ele>18.3</ele>
        <time>2024-04-17T13:58:30Z</time>
      </trkpt>
      <trkpt lat="49.96292" lon="2.13167">
        <ele>18.3</ele>
        <time>2024-04-17T13:58:31Z</time>
      </trkpt>
      <trkpt lat="49.96292" lon="2.13168">
        <ele>18.3</ele>
        <time>2024-04-17T13:58:32Z</time>
      </trkpt>
      <trkpt lat="49.96292" lon="2.1317">
        <ele>18.3</ele>
        <time>2024-04-17T13:58:33Z</time>
      </trkpt>
      <trkpt lat="49.96292" lon="2.13172">
        <ele>18.4</ele>
        <time>2024-04-17T13:58:34Z</time>
      </trkpt>
      <trkpt lat="49.96292" lon="2.13173">
        <ele>18.4</ele>
        <time>2024-04-17T13:58:35Z</time>
      </trkpt>
      <trkpt lat="49.96292" lon="2.13175">
        <ele>18.4</ele>
        <time>2024-04-17T13:58:36Z</time>
      </trkpt>
      <trkpt lat="49.96292" lon="2.13177">
        <ele>18.4</ele>
        <time>2024-04-17T13:58:37Z</time>
      </trkpt>
      <trkpt lat="49.96292" lon="2.13178">
        <ele>18.4</ele>
        <time>2024-04-17T13:58:38Z</time>
      </trkpt>
      <trkpt lat="49.96292" lon="2.1318">
        <ele>18.4</ele>
        <time>2024-04-17T13:58:39Z</time>
      </trkpt>
      <trkpt lat="49.96292" lon="2.13181">
        <ele>18.4</ele>
        <time>2024-04-17T13:58:40Z</time>
      </trkpt>
      <trkpt lat="49.96292" lon="2.13183">
        <ele>18.4</ele>
        <time>2024-04-17T13:58:41Z</time>
      </trkpt>
      <trkpt lat="49.96292" lon="2.13185">
        <ele>18.4</ele>
        <time>2024-04-17T13:58:42Z</time>
      </trkpt>
      <trkpt lat="49.96292" lon="2.13187">
        <ele>18.4</ele>
        <time>2024-04-17T13:58:43Z</time>
      </trkpt>
      <trkpt lat="49.96292" lon="2.13189">
        <ele>18.5</ele>
        <time>2024-04-17T13:58:44Z</time>
      </trkpt>
      <trkpt lat="49.96293" lon="2.1319">
        <ele>18.5</ele>
        <time>2024-04-17T13:58:45Z</time>
      </trkpt>
      <trkpt lat="49.96293" lon="2.13192">
        <ele>18.5</ele>
        <time>2024-04-17T13:58:46Z</time>
      </trkpt>
      <trkpt lat="49.96293" lon="2.13193">
        <ele>18.5</ele>
        <time>2024-04-17T13:58:47Z</time>
      </trkpt>
      <trkpt lat="49.96293" lon="2.13195">
        <ele>18.5</ele>
        <time>2024-04-17T13:58:48Z</time>
      </trkpt>
      <trkpt lat="49.96293" lon="2.13196">
        <ele>18.5</ele>
        <time>2024-04-17T13:58:49Z</time>
      </trkpt>
      <trkpt lat="49.96293" lon="2.13198">
        <ele>18.5</ele>
        <time>2024-04-17T13:58:50Z</time>
      </trkpt>
      <trkpt lat="49.96293" lon="2.132">
        <ele>18.5</ele>
        <time>2024-04-17T13:58:51Z</time>
      </trkpt>
      <trkpt lat="49.96294" lon="2.13202">
        <ele>18.6</ele>
        <time>2024-04-17T13:58:52Z</time>
      </trkpt>
      <trkpt lat="49.96294" lon="2.13203">
        <ele>18.6</ele>
        <time>2024-04-17T13:58:53Z</time>
      </trkpt>
      <trkpt lat="49.96294" lon="2.13205">
        <ele>18.6</ele>
        <time>2024-04-17T13:58:54Z</time>
      </trkpt>
      <trkpt lat="49.96294" lon="2.13206">
        <ele>18.6</ele>
        <time>2024-04-17T13:58:55Z</time>
      </trkpt>
      <trkpt lat="49.96295" lon="2.13208">
        <ele>18.6</ele>
        <time>2024-04-17T13:58:56Z</time>
      </trkpt>
      <trkpt lat="49.96295" lon="2.13209">
        <ele>18.6</ele>
        <time>2024-04-17T13:58:57Z</time>
      </trkpt>
      <trkpt lat="49.96295" lon="2.13211">
        <ele>18.6</ele>
        <time>2024-04-17T13:58:58Z</time>
      </trkpt>
      <trkpt lat="49.96296" lon="2.13213">
        <ele>18.6</ele>
        <time>2024-04-17T13:58:59Z</time>
      </trkpt>
      <trkpt lat="49.96296" lon="2.13214">
        <ele>18.7</ele>
        <time>2024-04-17T13:59:00Z</time>
      </trkpt>
      <trkpt lat="49.96296" lon="2.13216">
        <ele>18.7</ele>
        <time>2024-04-17T13:59:01Z</time>
      </trkpt>
      <trkpt lat="49.96297" lon="2.13217">
        <ele>18.7</ele>
        <time>2024-04-17T13:59:02Z</time>
      </trkpt>
      <trkpt lat="49.96297" lon="2.13219">
        <ele>18.7</ele>
        <time>2024-04-17T13:59:03Z</time>
      </trkpt>
      <trkpt lat="49.96297" lon="2.1322">
        <ele>18.7</ele>
        <time>2024-04-17T13:59:04Z</time>
      </trkpt>
      <trkpt lat="49.96297" lon="2.13221">
        <ele>18.7</ele>
        <time>2024-04-17T13:59:05Z</time>
      </trkpt>
      <trkpt lat="49.96298" lon="2.13223">
        <ele>18.7</ele>
        <time>2024-04-17T13:59:06Z</time>
      </trkpt>
      <trkpt lat="49.96298" lon="2.13224">
        <ele>18.8</ele>
        <time>2024-04-17T13:59:07Z</time>
      </trkpt>
      <trkpt lat="49.96299" lon="2.13224">
        <ele>18.8</ele>
        <time>2024-04-17T13:59:08Z</time>
      </trkpt>
      <trkpt lat="49.963" lon="2.13225">
        <ele>18.8</ele>
        <time>2024-04-17T13:59:09Z</time>
      </trkpt>
      <trkpt lat="49.96301" lon="2.13225">
        <ele>18.8</ele>
        <time>2024-04-17T13:59:10Z</time>
      </trkpt>
      <trkpt lat="49.96302" lon="2.13225">
        <ele>18.8</ele>
        <time>2024-04-17T13:59:11Z</time>
      </trkpt>
      <trkpt lat="49.96303" lon="2.13226">
        <ele>18.8</ele>
        <time>2024-04-17T13:59:12Z</time>
      </trkpt>
      <trkpt lat="49.96304" lon="2.13227">
        <ele>18.9</ele>
        <time>2024-04-17T13:59:13Z</time>
      </trkpt>
      <trkpt lat="49.96304" lon="2.13228">
        <ele>18.9</ele>
        <time>2024-04-17T13:59:14Z</time>
      </trkpt>
      <trkpt lat="49.96305" lon="2.13229">
        <ele>18.9</ele>
        <time>2024-04-17T13:59:15Z</time>
      </trkpt>
      <trkpt lat="49.96306" lon="2.1323">
        <ele>18.9</ele>
        <time>2024-04-17T13:59:16Z</time>
      </trkpt>
      <trkpt lat="49.96306" lon="2.13231">
        <ele>18.9</ele>
        <time>2024-04-17T13:59:17Z</time>
      </trkpt>
      <trkpt lat="49.96307" lon="2.13232">
        <ele>18.9</ele>
        <time>2024-04-17T13:59:18Z</time>
      </trkpt>
      <trkpt lat="49.96308" lon="2.13233">
        <ele>19</ele>
        <time>2024-04-17T13:59:19Z</time>
      </trkpt>
      <trkpt lat="49.96308" lon="2.13234">
        <ele>19</ele>
        <time>2024-04-17T13:59:20Z</time>
      </trkpt>
      <trkpt lat="49.96309" lon="2.13236">
        <ele>19</ele>
        <time>2024-04-17T13:59:21Z</time>
      </trkpt>
      <trkpt lat="49.96309" lon="2.13237">
        <ele>19</ele>
        <time>2024-04-17T13:59:22Z</time>
      </trkpt>
      <trkpt lat="49.9631" lon="2.13238">
        <ele>19</ele>
        <time>2024-04-17T13:59:23Z</time>
      </trkpt>
      <trkpt lat="49.96311" lon="2.13239">
        <ele>19</ele>
        <time>2024-04-17T13:59:24Z</time>
      </trkpt>
      <trkpt lat="49.96312" lon="2.13239">
        <ele>19.1</ele>
        <time>2024-04-17T13:59:25Z</time>
      </trkpt>
      <trkpt lat="49.96312" lon="2.1324">
        <ele>19.1</ele>
        <time>2024-04-17T13:59:26Z</time>
      </trkpt>
      <trkpt lat="49.96313" lon="2.13241">
        <ele>19.1</ele>
        <time>2024-04-17T13:59:27Z</time>
      </trkpt>
      <trkpt lat="49.96314" lon="2.13242">
        <ele>19.1</ele>
        <time>2024-04-17T13:59:28Z</time>
      </trkpt>
      <trkpt lat="49.96315" lon="2.13242">
        <ele>19.1</ele>
        <time>2024-04-17T13:59:29Z</time>
      </trkpt>
      <trkpt lat="49.96315" lon="2.13243">
        <ele>19.2</ele>
        <time>2024-04-17T13:59:30Z</time>
      </trkpt>
      <trkpt lat="49.96316" lon="2.13244">
        <ele>19.2</ele>
        <time>2024-04-17T13:59:31Z</time>
      </trkpt>
      <trkpt lat="49.96317" lon="2.13244">
        <ele>19.2</ele>
        <time>2024-04-17T13:59:32Z</time>
      </trkpt>
      <trkpt lat="49.96318" lon="2.13245">
        <ele>19.2</ele>
        <time>2024-04-17T13:59:33Z</time>
      </trkpt>
      <trkpt lat="49.96318" lon="2.13246">
        <ele>19.2</ele>
        <time>2024-04-17T13:59:34Z</time>
      </trkpt>
      <trkpt lat="49.96319" lon="2.13247">
        <ele>19.2</ele>
        <time>2024-04-17T13:59:35Z</time>
      </trkpt>
      <trkpt lat="49.9632" lon="2.13248">
        <ele>19.3</ele>
        <time>2024-04-17T13:59:36Z</time>
      </trkpt>
      <trkpt lat="49.96321" lon="2.13248">
        <ele>19.3</ele>
        <time>2024-04-17T13:59:37Z</time>
      </trkpt>
      <trkpt lat="49.96321" lon="2.13249">
        <ele>19.3</ele>
        <time>2024-04-17T13:59:38Z</time>
      </trkpt>
      <trkpt lat="49.96322" lon="2.13249">
        <ele>19.3</ele>
        <time>2024-04-17T13:59:39Z</time>
      </trkpt>
      <trkpt lat="49.96323" lon="2.13249">
        <ele>19.3</ele>
        <time>2024-04-17T13:59:40Z</time>
      </trkpt>
      <trkpt lat="49.96323" lon="2.13249">
        <ele>19.3</ele>
        <time>2024-04-17T13:59:41Z</time>
      </trkpt>
      <trkpt lat="49.96324" lon="2.13249">
        <ele>19.4</ele>
        <time>2024-04-17T13:59:42Z</time>
      </trkpt>
      <trkpt lat="49.96324" lon="2.13249">
        <ele>19.4</ele>
        <time>2024-04-17T13:59:43Z</time>
      </trkpt>
      <trkpt lat="49.96325" lon="2.13249">
        <ele>19.4</ele>
        <time>2024-04-17T13:59:44Z</time>
      </trkpt>
      <trkpt lat="49.96325" lon="2.13249">
        <ele>19.4</ele>
        <time>2024-04-17T13:59:45Z</time>
      </trkpt>
      <trkpt lat="49.96325" lon="2.13248">
        <ele>19.4</ele>
        <time>2024-04-17T13:59:46Z</time>
      </trkpt>
      <trkpt lat="49.96325" lon="2.13248">
        <ele>19.4</ele>
        <time>2024-04-17T13:59:47Z</time>
      </trkpt>
      <trkpt lat="49.96325" lon="2.13248">
        <ele>19.4</ele>
        <time>2024-04-17T13:59:48Z</time>
      </trkpt>
      <trkpt lat="49.96325" lon="2.13248">
        <ele>19.4</ele>
        <time>2024-04-17T13:59:49Z</time>
      </trkpt>
      <trkpt lat="49.96325" lon="2.13248">
        <ele>19.4</ele>
        <time>2024-04-17T13:59:50Z</time>
      </trkpt>
      <trkpt lat="49.96325" lon="2.13248">
        <ele>19.4</ele>
        <time>2024-04-17T13:59:51Z</time>
      </trkpt>
      <trkpt lat="49.96325" lon="2.13248">
        <ele>19.4</ele>
        <time>2024-04-17T13:59:52Z</time>
      </trkpt>
      <trkpt lat="49.96324" lon="2.13248">
        <ele>19.4</ele>
        <time>2024-04-17T13:59:53Z</time>
      </trkpt>
      <trkpt lat="49.96324" lon="2.13248">
        <ele>19.4</ele>
        <time>2024-04-17T13:59:54Z</time>
      </trkpt>
      <trkpt lat="49.96324" lon="2.13248">
        <ele>19.4</ele>
        <time>2024-04-17T13:59:55Z</time>
      </trkpt>
      <trkpt lat="49.96324" lon="2.13248">
        <ele>19.4</ele>
        <time>2024-04-17T13:59:56Z</time>
      </trkpt>
      <trkpt lat="49.96324" lon="2.13248">
        <ele>19.4</ele>
        <time>2024-04-17T13:59:57Z</time>
      </trkpt>
      <trkpt lat="49.96324" lon="2.13248">
        <ele>19.4</ele>
        <time>2024-04-17T13:59:58Z</time>
      </trkpt>
      <trkpt lat="49.96324" lon="2.13248">
        <ele>19.4</ele>
        <time>2024-04-17T13:59:59Z</time>
      </trkpt>
      <trkpt lat="49.96324" lon="2.13248">
        <ele>19.4</ele>
        <time>2024-04-17T14:00:00Z</time>
      </trkpt>
      <trkpt lat="49.96324" lon="2.13248">
        <ele>19.4</ele>
        <time>2024-04-17T14:00:01Z</time>
      </trkpt>
      <trkpt lat="49.96324" lon="2.13248">
        <ele>19.4</ele>
        <time>2024-04-17T14:00:02Z</time>
      </trkpt>
      <trkpt lat="49.96324" lon="2.13248">
        <ele>19.4</ele>
        <time>2024-04-17T14:00:03Z</time>
      </trkpt>
      <trkpt lat="49.96324" lon="2.13248">
        <ele>19.4</ele>
        <time>2024-04-17T14:00:04Z</time>
      </trkpt>
      <trkpt lat="49.96324" lon="2.13248">
        <ele>19.4</ele>
        <time>2024-04-17T14:00:05Z</time>
      </trkpt>
      <trkpt lat="49.96324" lon="2.13248">
        <ele>19.4</ele>
        <time>2024-04-17T14:00:06Z</time>
      </trkpt>
      <trkpt lat="49.96324" lon="2.13248">
        <ele>19.4</ele>
        <time>2024-04-17T14:00:07Z</time>
      </trkpt>
      <trkpt lat="49.96324" lon="2.13248">
        <ele>19.4</ele>
        <time>2024-04-17T14:00:08Z</time>
      </trkpt>
      <trkpt lat="49.96324" lon="2.13248">
        <ele>19.4</ele>
        <time>2024-04-17T14:00:09Z</time>
      </trkpt>
      <trkpt lat="49.96324" lon="2.13248">
        <ele>19.4</ele>
        <time>2024-04-17T14:00:10Z</time>
      </trkpt>
      <trkpt lat="49.96324" lon="2.13248">
        <ele>19.4</ele>
        <time>2024-04-17T14:00:11Z</time>
      </trkpt>
      <trkpt lat="49.96324" lon="2.13248">
        <ele>19.4</ele>
        <time>2024-04-17T14:00:12Z</time>
      </trkpt>
      <trkpt lat="49.96324" lon="2.13248">
        <ele>19.4</ele>
        <time>2024-04-17T14:00:13Z</time>
      </trkpt>
      <trkpt lat="49.96323" lon="2.13248">
        <ele>19.4</ele>
        <time>2024-04-17T14:00:14Z</time>
      </trkpt>
      <trkpt lat="49.96323" lon="2.13248">
        <ele>19.4</ele>
        <time>2024-04-17T14:00:15Z</time>
      </trkpt>
      <trkpt lat="49.96323" lon="2.13248">
        <ele>19.4</ele>
        <time>2024-04-17T14:00:16Z</time>
      </trkpt>
      <trkpt lat="49.96323" lon="2.13248">
        <ele>19.4</ele>
        <time>2024-04-17T14:00:17Z</time>
      </trkpt>
      <trkpt lat="49.96323" lon="2.13248">
        <ele>19.4</ele>
        <time>2024-04-17T14:00:18Z</time>
      </trkpt>
      <trkpt lat="49.96323" lon="2.13248">
        <ele>19.4</ele>
        <time>2024-04-17T14:00:19Z</time>
      </trkpt>
      <trkpt lat="49.96323" lon="2.13248">
        <ele>19.4</ele>
        <time>2024-04-17T14:00:20Z</time>
      </trkpt>
      <trkpt lat="49.96323" lon="2.13248">
        <ele>19.4</ele>
        <time>2024-04-17T14:00:21Z</time>
      </trkpt>
      <trkpt lat="49.96323" lon="2.13248">
        <ele>19.4</ele>
        <time>2024-04-17T14:00:22Z</time>
      </trkpt>
      <trkpt lat="49.96323" lon="2.13248">
        <ele>19.4</ele>
        <time>2024-04-17T14:00:23Z</time>
      </trkpt>
      <trkpt lat="49.96323" lon="2.13248">
        <ele>19.4</ele>
        <time>2024-04-17T14:00:24Z</time>
      </trkpt>
      <trkpt lat="49.96323" lon="2.13248">
        <ele>19.4</ele>
        <time>2024-04-17T14:00:25Z</time>
      </trkpt>
      <trkpt lat="49.96323" lon="2.13248">
        <ele>19.4</ele>
        <time>2024-04-17T14:00:26Z</time>
      </trkpt>
      <trkpt lat="49.96323" lon="2.13247">
        <ele>19.4</ele>
        <time>2024-04-17T14:00:27Z</time>
      </trkpt>
      <trkpt lat="49.96323" lon="2.13247">
        <ele>19.4</ele>
        <time>2024-04-17T14:00:28Z</time>
      </trkpt>
      <trkpt lat="49.96323" lon="2.13247">
        <ele>19.4</ele>
        <time>2024-04-17T14:00:29Z</time>
      </trkpt>
      <trkpt lat="49.96323" lon="2.13247">
        <ele>19.4</ele>
        <time>2024-04-17T14:00:30Z</time>
      </trkpt>
      <trkpt lat="49.96323" lon="2.13247">
        <ele>19.5</ele>
        <time>2024-04-17T14:00:31Z</time>
      </trkpt>
      <trkpt lat="49.96323" lon="2.13247">
        <ele>19.5</ele>
        <time>2024-04-17T14:00:32Z</time>
      </trkpt>
      <trkpt lat="49.96323" lon="2.13247">
        <ele>19.5</ele>
        <time>2024-04-17T14:00:33Z</time>
      </trkpt>
      <trkpt lat="49.96323" lon="2.13247">
        <ele>19.5</ele>
        <time>2024-04-17T14:00:34Z</time>
      </trkpt>
      <trkpt lat="49.96322" lon="2.13247">
        <ele>19.5</ele>
        <time>2024-04-17T14:00:35Z</time>
      </trkpt>
      <trkpt lat="49.96322" lon="2.13247">
        <ele>19.5</ele>
        <time>2024-04-17T14:00:36Z</time>
      </trkpt>
      <trkpt lat="49.96322" lon="2.13247">
        <ele>19.5</ele>
        <time>2024-04-17T14:00:37Z</time>
      </trkpt>
      <trkpt lat="49.96322" lon="2.13247">
        <ele>19.5</ele>
        <time>2024-04-17T14:00:38Z</time>
      </trkpt>
      <trkpt lat="49.96322" lon="2.13247">
        <ele>19.5</ele>
        <time>2024-04-17T14:00:39Z</time>
      </trkpt>
      <trkpt lat="49.96322" lon="2.13247">
        <ele>19.5</ele>
        <time>2024-04-17T14:00:40Z</time>
      </trkpt>
      <trkpt lat="49.96322" lon="2.13247">
        <ele>19.5</ele>
        <time>2024-04-17T14:00:41Z</time>
      </trkpt>
      <trkpt lat="49.96322" lon="2.13247">
        <ele>19.5</ele>
        <time>2024-04-17T14:00:42Z</time>
      </trkpt>
      <trkpt lat="49.96322" lon="2.13247">
        <ele>19.5</ele>
        <time>2024-04-17T14:00:43Z</time>
      </trkpt>
      <trkpt lat="49.96322" lon="2.13247">
        <ele>19.5</ele>
        <time>2024-04-17T14:00:44Z</time>
      </trkpt>
      <trkpt lat="49.96322" lon="2.13247">
        <ele>19.5</ele>
        <time>2024-04-17T14:00:45Z</time>
      </trkpt>
      <trkpt lat="49.96322" lon="2.13247">
        <ele>19.5</ele>
        <time>2024-04-17T14:00:46Z</time>
      </trkpt>
      <trkpt lat="49.96322" lon="2.13247">
        <ele>19.5</ele>
        <time>2024-04-17T14:00:47Z</time>
      </trkpt>
      <trkpt lat="49.96322" lon="2.13247">
        <ele>19.5</ele>
        <time>2024-04-17T14:00:48Z</time>
      </trkpt>
      <trkpt lat="49.96322" lon="2.13247">
        <ele>19.5</ele>
        <time>2024-04-17T14:00:49Z</time>
      </trkpt>
      <trkpt lat="49.96322" lon="2.13247">
        <ele>19.5</ele>
        <time>2024-04-17T14:00:50Z</time>
      </trkpt>
      <trkpt lat="49.96322" lon="2.13247">
        <ele>19.5</ele>
        <time>2024-04-17T14:00:51Z</time>
      </trkpt>
      <trkpt lat="49.96322" lon="2.13247">
        <ele>19.5</ele>
        <time>2024-04-17T14:00:52Z</time>
      </trkpt>
      <trkpt lat="49.96322" lon="2.13247">
        <ele>19.5</ele>
        <time>2024-04-17T14:00:53Z</time>
      </trkpt>
      <trkpt lat="49.96322" lon="2.13247">
        <ele>19.5</ele>
        <time>2024-04-17T14:00:54Z</time>
      </trkpt>
      <trkpt lat="49.96322" lon="2.13247">
        <ele>19.5</ele>
        <time>2024-04-17T14:00:55Z</time>
      </trkpt>
      <trkpt lat="49.96322" lon="2.13247">
        <ele>19.5</ele>
        <time>2024-04-17T14:00:56Z</time>
      </trkpt>
      <trkpt lat="49.96321" lon="2.13247">
        <ele>19.5</ele>
        <time>2024-04-17T14:00:57Z</time>
      </trkpt>
      <trkpt lat="49.96321" lon="2.13247">
        <ele>19.5</ele>
        <time>2024-04-17T14:00:58Z</time>
      </trkpt>
      <trkpt lat="49.96321" lon="2.13247">
        <ele>19.5</ele>
        <time>2024-04-17T14:00:59Z</time>
      </trkpt>
      <trkpt lat="49.96321" lon="2.13247">
        <ele>19.5</ele>
        <time>2024-04-17T14:01:00Z</time>
      </trkpt>
      <trkpt lat="49.96321" lon="2.13247">
        <ele>19.5</ele>
        <time>2024-04-17T14:01:01Z</time>
      </trkpt>
      <trkpt lat="49.9632" lon="2.13247">
        <ele>19.5</ele>
        <time>2024-04-17T14:01:02Z</time>
      </trkpt>
      <trkpt lat="49.96321" lon="2.13247">
        <ele>19.5</ele>
        <time>2024-04-17T14:01:03Z</time>
      </trkpt>
      <trkpt lat="49.96321" lon="2.13247">
        <ele>19.5</ele>
        <time>2024-04-17T14:01:04Z</time>
      </trkpt>
      <trkpt lat="49.96321" lon="2.13247">
        <ele>19.5</ele>
        <time>2024-04-17T14:01:05Z</time>
      </trkpt>
      <trkpt lat="49.96321" lon="2.13248">
        <ele>19.5</ele>
        <time>2024-04-17T14:01:06Z</time>
      </trkpt>
      <trkpt lat="49.96321" lon="2.13248">
        <ele>19.5</ele>
        <time>2024-04-17T14:01:07Z</time>
      </trkpt>
      <trkpt lat="49.96321" lon="2.13248">
        <ele>19.5</ele>
        <time>2024-04-17T14:01:08Z</time>
      </trkpt>
      <trkpt lat="49.96321" lon="2.13249">
        <ele>19.5</ele>
        <time>2024-04-17T14:01:09Z</time>
      </trkpt>
      <trkpt lat="49.96321" lon="2.13249">
        <ele>19.6</ele>
        <time>2024-04-17T14:01:10Z</time>
      </trkpt>
      <trkpt lat="49.96322" lon="2.13249">
        <ele>19.6</ele>
        <time>2024-04-17T14:01:11Z</time>
      </trkpt>
      <trkpt lat="49.96322" lon="2.13249">
        <ele>19.6</ele>
        <time>2024-04-17T14:01:12Z</time>
      </trkpt>
      <trkpt lat="49.96322" lon="2.1325">
        <ele>19.6</ele>
        <time>2024-04-17T14:01:13Z</time>
      </trkpt>
      <trkpt lat="49.96322" lon="2.1325">
        <ele>19.6</ele>
        <time>2024-04-17T14:01:14Z</time>
      </trkpt>
      <trkpt lat="49.96322" lon="2.1325">
        <ele>19.6</ele>
        <time>2024-04-17T14:01:15Z</time>
      </trkpt>
      <trkpt lat="49.96322" lon="2.1325">
        <ele>19.6</ele>
        <time>2024-04-17T14:01:16Z</time>
      </trkpt>
      <trkpt lat="49.96322" lon="2.13251">
        <ele>19.6</ele>
        <time>2024-04-17T14:01:17Z</time>
      </trkpt>
      <trkpt lat="49.96322" lon="2.13251">
        <ele>19.6</ele>
        <time>2024-04-17T14:01:18Z</time>
      </trkpt>
      <trkpt lat="49.96322" lon="2.13251">
        <ele>19.6</ele>
        <time>2024-04-17T14:01:19Z</time>
      </trkpt>
      <trkpt lat="49.96323" lon="2.13251">
        <ele>19.6</ele>
        <time>2024-04-17T14:01:20Z</time>
      </trkpt>
      <trkpt lat="49.96323" lon="2.13252">
        <ele>19.6</ele>
        <time>2024-04-17T14:01:21Z</time>
      </trkpt>
      <trkpt lat="49.96323" lon="2.13252">
        <ele>19.6</ele>
        <time>2024-04-17T14:01:22Z</time>
      </trkpt>
      <trkpt lat="49.96323" lon="2.13255">
        <ele>19.7</ele>
        <time>2024-04-17T14:01:23Z</time>
      </trkpt>
      <trkpt lat="49.96324" lon="2.13256">
        <ele>19.7</ele>
        <time>2024-04-17T14:01:24Z</time>
      </trkpt>
      <trkpt lat="49.96324" lon="2.13257">
        <ele>19.7</ele>
        <time>2024-04-17T14:01:25Z</time>
      </trkpt>
      <trkpt lat="49.96324" lon="2.13258">
        <ele>19.7</ele>
        <time>2024-04-17T14:01:26Z</time>
      </trkpt>
      <trkpt lat="49.96324" lon="2.1326">
        <ele>19.7</ele>
        <time>2024-04-17T14:01:27Z</time>
      </trkpt>
      <trkpt lat="49.96324" lon="2.13261">
        <ele>19.8</ele>
        <time>2024-04-17T14:01:28Z</time>
      </trkpt>
      <trkpt lat="49.96324" lon="2.13261">
        <ele>19.8</ele>
        <time>2024-04-17T14:01:29Z</time>
      </trkpt>
      <trkpt lat="49.96325" lon="2.13262">
        <ele>19.8</ele>
        <time>2024-04-17T14:01:30Z</time>
      </trkpt>
      <trkpt lat="49.96325" lon="2.13262">
        <ele>19.8</ele>
        <time>2024-04-17T14:01:31Z</time>
      </trkpt>
      <trkpt lat="49.96325" lon="2.13262">
        <ele>19.8</ele>
        <time>2024-04-17T14:01:32Z</time>
      </trkpt>
      <trkpt lat="49.96325" lon="2.13261">
        <ele>19.8</ele>
        <time>2024-04-17T14:01:33Z</time>
      </trkpt>
      <trkpt lat="49.96325" lon="2.13261">
        <ele>19.8</ele>
        <time>2024-04-17T14:01:34Z</time>
      </trkpt>
      <trkpt lat="49.96325" lon="2.1326">
        <ele>19.8</ele>
        <time>2024-04-17T14:01:35Z</time>
      </trkpt>
      <trkpt lat="49.96325" lon="2.1326">
        <ele>19.8</ele>
        <time>2024-04-17T14:01:36Z</time>
      </trkpt>
      <trkpt lat="49.96325" lon="2.1326">
        <ele>19.8</ele>
        <time>2024-04-17T14:01:37Z</time>
      </trkpt>
      <trkpt lat="49.96325" lon="2.1326">
        <ele>19.8</ele>
        <time>2024-04-17T14:01:38Z</time>
      </trkpt>
      <trkpt lat="49.96325" lon="2.13259">
        <ele>19.8</ele>
        <time>2024-04-17T14:01:39Z</time>
      </trkpt>
      <trkpt lat="49.96325" lon="2.13259">
        <ele>19.8</ele>
        <time>2024-04-17T14:01:40Z</time>
      </trkpt>
      <trkpt lat="49.96325" lon="2.13259">
        <ele>19.8</ele>
        <time>2024-04-17T14:01:41Z</time>
      </trkpt>
      <trkpt lat="49.96325" lon="2.13258">
        <ele>19.9</ele>
        <time>2024-04-17T14:01:42Z</time>
      </trkpt>
      <trkpt lat="49.96326" lon="2.13256">
        <ele>19.9</ele>
        <time>2024-04-17T14:01:43Z</time>
      </trkpt>
      <trkpt lat="49.96326" lon="2.13255">
        <ele>19.9</ele>
        <time>2024-04-17T14:01:44Z</time>
      </trkpt>
      <trkpt lat="49.96327" lon="2.13254">
        <ele>19.9</ele>
        <time>2024-04-17T14:01:45Z</time>
      </trkpt>
      <trkpt lat="49.96327" lon="2.13253">
        <ele>20</ele>
        <time>2024-04-17T14:01:46Z</time>
      </trkpt>
      <trkpt lat="49.96328" lon="2.13252">
        <ele>20</ele>
        <time>2024-04-17T14:01:47Z</time>
      </trkpt>
      <trkpt lat="49.96328" lon="2.13252">
        <ele>20</ele>
        <time>2024-04-17T14:01:48Z</time>
      </trkpt>
      <trkpt lat="49.96329" lon="2.13253">
        <ele>20</ele>
        <time>2024-04-17T14:01:49Z</time>
      </trkpt>
      <trkpt lat="49.96329" lon="2.13253">
        <ele>20</ele>
        <time>2024-04-17T14:01:50Z</time>
      </trkpt>
      <trkpt lat="49.9633" lon="2.13254">
        <ele>20</ele>
        <time>2024-04-17T14:01:51Z</time>
      </trkpt>
      <trkpt lat="49.96331" lon="2.13255">
        <ele>20.1</ele>
        <time>2024-04-17T14:01:52Z</time>
      </trkpt>
      <trkpt lat="49.96332" lon="2.13256">
        <ele>20.1</ele>
        <time>2024-04-17T14:01:53Z</time>
      </trkpt>
      <trkpt lat="49.96332" lon="2.13257">
        <ele>20.1</ele>
        <time>2024-04-17T14:01:54Z</time>
      </trkpt>
      <trkpt lat="49.96333" lon="2.13258">
        <ele>20.1</ele>
        <time>2024-04-17T14:01:55Z</time>
      </trkpt>
      <trkpt lat="49.96333" lon="2.13259">
        <ele>20.1</ele>
        <time>2024-04-17T14:01:56Z</time>
      </trkpt>
      <trkpt lat="49.96334" lon="2.13259">
        <ele>20.1</ele>
        <time>2024-04-17T14:01:57Z</time>
      </trkpt>
      <trkpt lat="49.96334" lon="2.1326">
        <ele>20.2</ele>
        <time>2024-04-17T14:01:58Z</time>
      </trkpt>
      <trkpt lat="49.96335" lon="2.13261">
        <ele>20.2</ele>
        <time>2024-04-17T14:01:59Z</time>
      </trkpt>
      <trkpt lat="49.96336" lon="2.13261">
        <ele>20.2</ele>
        <time>2024-04-17T14:02:00Z</time>
      </trkpt>
      <trkpt lat="49.96337" lon="2.13261">
        <ele>20.2</ele>
        <time>2024-04-17T14:02:01Z</time>
      </trkpt>
      <trkpt lat="49.96337" lon="2.13262">
        <ele>20.2</ele>
        <time>2024-04-17T14:02:02Z</time>
      </trkpt>
      <trkpt lat="49.96338" lon="2.13262">
        <ele>20.3</ele>
        <time>2024-04-17T14:02:03Z</time>
      </trkpt>
      <trkpt lat="49.96339" lon="2.13263">
        <ele>20.3</ele>
        <time>2024-04-17T14:02:04Z</time>
      </trkpt>
      <trkpt lat="49.9634" lon="2.13264">
        <ele>20.3</ele>
        <time>2024-04-17T14:02:05Z</time>
      </trkpt>
      <trkpt lat="49.96341" lon="2.13264">
        <ele>20.3</ele>
        <time>2024-04-17T14:02:06Z</time>
      </trkpt>
      <trkpt lat="49.96341" lon="2.13265">
        <ele>20.3</ele>
        <time>2024-04-17T14:02:07Z</time>
      </trkpt>
      <trkpt lat="49.96342" lon="2.13266">
        <ele>20.4</ele>
        <time>2024-04-17T14:02:08Z</time>
      </trkpt>
      <trkpt lat="49.96343" lon="2.13267">
        <ele>20.4</ele>
        <time>2024-04-17T14:02:09Z</time>
      </trkpt>
      <trkpt lat="49.96344" lon="2.13267">
        <ele>20.4</ele>
        <time>2024-04-17T14:02:10Z</time>
      </trkpt>
      <trkpt lat="49.96345" lon="2.13268">
        <ele>20.4</ele>
        <time>2024-04-17T14:02:11Z</time>
      </trkpt>
      <trkpt lat="49.96346" lon="2.13269">
        <ele>20.5</ele>
        <time>2024-04-17T14:02:12Z</time>
      </trkpt>
      <trkpt lat="49.96346" lon="2.13271">
        <ele>20.5</ele>
        <time>2024-04-17T14:02:13Z</time>
      </trkpt>
      <trkpt lat="49.96346" lon="2.13272">
        <ele>20.5</ele>
        <time>2024-04-17T14:02:14Z</time>
      </trkpt>
      <trkpt lat="49.96347" lon="2.13274">
        <ele>20.5</ele>
        <time>2024-04-17T14:02:15Z</time>
      </trkpt>
      <trkpt lat="49.96347" lon="2.13275">
        <ele>20.6</ele>
        <time>2024-04-17T14:02:16Z</time>
      </trkpt>
      <trkpt lat="49.96348" lon="2.13276">
        <ele>20.6</ele>
        <time>2024-04-17T14:02:17Z</time>
      </trkpt>
      <trkpt lat="49.96349" lon="2.13276">
        <ele>20.6</ele>
        <time>2024-04-17T14:02:18Z</time>
      </trkpt>
      <trkpt lat="49.9635" lon="2.13277">
        <ele>20.6</ele>
        <time>2024-04-17T14:02:19Z</time>
      </trkpt>
      <trkpt lat="49.9635" lon="2.13277">
        <ele>20.7</ele>
        <time>2024-04-17T14:02:20Z</time>
      </trkpt>
      <trkpt lat="49.96351" lon="2.13278">
        <ele>20.7</ele>
        <time>2024-04-17T14:02:21Z</time>
      </trkpt>
      <trkpt lat="49.96352" lon="2.13278">
        <ele>20.7</ele>
        <time>2024-04-17T14:02:22Z</time>
      </trkpt>
      <trkpt lat="49.96352" lon="2.13279">
        <ele>20.7</ele>
        <time>2024-04-17T14:02:23Z</time>
      </trkpt>
      <trkpt lat="49.96353" lon="2.1328">
        <ele>20.8</ele>
        <time>2024-04-17T14:02:24Z</time>
      </trkpt>
      <trkpt lat="49.96354" lon="2.1328">
        <ele>20.8</ele>
        <time>2024-04-17T14:02:25Z</time>
      </trkpt>
      <trkpt lat="49.96355" lon="2.13281">
        <ele>20.8</ele>
        <time>2024-04-17T14:02:26Z</time>
      </trkpt>
      <trkpt lat="49.96355" lon="2.13282">
        <ele>20.8</ele>
        <time>2024-04-17T14:02:27Z</time>
      </trkpt>
      <trkpt lat="49.96356" lon="2.13282">
        <ele>20.9</ele>
        <time>2024-04-17T14:02:28Z</time>
      </trkpt>
      <trkpt lat="49.96357" lon="2.13283">
        <ele>20.9</ele>
        <time>2024-04-17T14:02:29Z</time>
      </trkpt>
      <trkpt lat="49.96357" lon="2.13284">
        <ele>20.9</ele>
        <time>2024-04-17T14:02:30Z</time>
      </trkpt>
      <trkpt lat="49.96358" lon="2.13285">
        <ele>20.9</ele>
        <time>2024-04-17T14:02:31Z</time>
      </trkpt>
      <trkpt lat="49.96358" lon="2.13286">
        <ele>21</ele>
        <time>2024-04-17T14:02:32Z</time>
      </trkpt>
      <trkpt lat="49.96359" lon="2.13288">
        <ele>21</ele>
        <time>2024-04-17T14:02:33Z</time>
      </trkpt>
      <trkpt lat="49.96359" lon="2.13289">
        <ele>21</ele>
        <time>2024-04-17T14:02:34Z</time>
      </trkpt>
      <trkpt lat="49.9636" lon="2.1329">
        <ele>21</ele>
        <time>2024-04-17T14:02:35Z</time>
      </trkpt>
      <trkpt lat="49.9636" lon="2.13291">
        <ele>21.1</ele>
        <time>2024-04-17T14:02:36Z</time>
      </trkpt>
      <trkpt lat="49.96361" lon="2.13292">
        <ele>21.1</ele>
        <time>2024-04-17T14:02:37Z</time>
      </trkpt>
      <trkpt lat="49.96362" lon="2.13293">
        <ele>21.1</ele>
        <time>2024-04-17T14:02:38Z</time>
      </trkpt>
      <trkpt lat="49.96362" lon="2.13294">
        <ele>21.1</ele>
        <time>2024-04-17T14:02:39Z</time>
      </trkpt>
      <trkpt lat="49.96363" lon="2.13294">
        <ele>21.1</ele>
        <time>2024-04-17T14:02:40Z</time>
      </trkpt>
      <trkpt lat="49.96364" lon="2.13294">
        <ele>21.1</ele>
        <time>2024-04-17T14:02:41Z</time>
      </trkpt>
      <trkpt lat="49.96365" lon="2.13295">
        <ele>21.1</ele>
        <time>2024-04-17T14:02:42Z</time>
      </trkpt>
      <trkpt lat="49.96365" lon="2.13295">
        <ele>21.1</ele>
        <time>2024-04-17T14:02:43Z</time>
      </trkpt>
      <trkpt lat="49.96366" lon="2.13296">
        <ele>21.2</ele>
        <time>2024-04-17T14:02:44Z</time>
      </trkpt>
      <trkpt lat="49.96366" lon="2.13296">
        <ele>21.2</ele>
        <time>2024-04-17T14:02:45Z</time>
      </trkpt>
      <trkpt lat="49.96367" lon="2.13297">
        <ele>21.2</ele>
        <time>2024-04-17T14:02:46Z</time>
      </trkpt>
      <trkpt lat="49.96367" lon="2.13298">
        <ele>21.2</ele>
        <time>2024-04-17T14:02:47Z</time>
      </trkpt>
      <trkpt lat="49.96367" lon="2.13298">
        <ele>21.2</ele>
        <time>2024-04-17T14:02:48Z</time>
      </trkpt>
      <trkpt lat="49.96368" lon="2.13299">
        <ele>21.2</ele>
        <time>2024-04-17T14:02:49Z</time>
      </trkpt>
      <trkpt lat="49.96368" lon="2.133">
        <ele>21.2</ele>
        <time>2024-04-17T14:02:50Z</time>
      </trkpt>
      <trkpt lat="49.96368" lon="2.13301">
        <ele>21.2</ele>
        <time>2024-04-17T14:02:51Z</time>
      </trkpt>
      <trkpt lat="49.96368" lon="2.13302">
        <ele>21.2</ele>
        <time>2024-04-17T14:02:52Z</time>
      </trkpt>
      <trkpt lat="49.96369" lon="2.13302">
        <ele>21.2</ele>
        <time>2024-04-17T14:02:53Z</time>
      </trkpt>
      <trkpt lat="49.96369" lon="2.13303">
        <ele>21.2</ele>
        <time>2024-04-17T14:02:54Z</time>
      </trkpt>
      <trkpt lat="49.96369" lon="2.13304">
        <ele>21.2</ele>
        <time>2024-04-17T14:02:55Z</time>
      </trkpt>
      <trkpt lat="49.96369" lon="2.13305">
        <ele>21.3</ele>
        <time>2024-04-17T14:02:56Z</time>
      </trkpt>
      <trkpt lat="49.96369" lon="2.13306">
        <ele>21.3</ele>
        <time>2024-04-17T14:02:57Z</time>
      </trkpt>
      <trkpt lat="49.96369" lon="2.13306">
        <ele>21.3</ele>
        <time>2024-04-17T14:02:58Z</time>
      </trkpt>
      <trkpt lat="49.96369" lon="2.13307">
        <ele>21.3</ele>
        <time>2024-04-17T14:02:59Z</time>
      </trkpt>
      <trkpt lat="49.96369" lon="2.13307">
        <ele>21.3</ele>
        <time>2024-04-17T14:03:00Z</time>
      </trkpt>
      <trkpt lat="49.96369" lon="2.13306">
        <ele>21.3</ele>
        <time>2024-04-17T14:03:01Z</time>
      </trkpt>
      <trkpt lat="49.96369" lon="2.13306">
        <ele>21.3</ele>
        <time>2024-04-17T14:03:02Z</time>
      </trkpt>
      <trkpt lat="49.96369" lon="2.13306">
        <ele>21.3</ele>
        <time>2024-04-17T14:03:03Z</time>
      </trkpt>
      <trkpt lat="49.96369" lon="2.13306">
        <ele>21.3</ele>
        <time>2024-04-17T14:03:04Z</time>
      </trkpt>
      <trkpt lat="49.96369" lon="2.13306">
        <ele>21.3</ele>
        <time>2024-04-17T14:03:05Z</time>
      </trkpt>
      <trkpt lat="49.96369" lon="2.13306">
        <ele>21.3</ele>
        <time>2024-04-17T14:03:06Z</time>
      </trkpt>
      <trkpt lat="49.96369" lon="2.13306">
        <ele>21.3</ele>
        <time>2024-04-17T14:03:07Z</time>
      </trkpt>
      <trkpt lat="49.96369" lon="2.13306">
        <ele>21.3</ele>
        <time>2024-04-17T14:03:08Z</time>
      </trkpt>
      <trkpt lat="49.96369" lon="2.13306">
        <ele>21.3</ele>
        <time>2024-04-17T14:03:09Z</time>
      </trkpt>
      <trkpt lat="49.96369" lon="2.13306">
        <ele>21.3</ele>
        <time>2024-04-17T14:03:10Z</time>
      </trkpt>
      <trkpt lat="49.96369" lon="2.13305">
        <ele>21.3</ele>
        <time>2024-04-17T14:03:11Z</time>
      </trkpt>
      <trkpt lat="49.96369" lon="2.13305">
        <ele>21.3</ele>
        <time>2024-04-17T14:03:12Z</time>
      </trkpt>
      <trkpt lat="49.96369" lon="2.13305">
        <ele>21.3</ele>
        <time>2024-04-17T14:03:13Z</time>
      </trkpt>
      <trkpt lat="49.96369" lon="2.13305">
        <ele>21.3</ele>
        <time>2024-04-17T14:03:14Z</time>
      </trkpt>
      <trkpt lat="49.96369" lon="2.13305">
        <ele>21.3</ele>
        <time>2024-04-17T14:03:15Z</time>
      </trkpt>
      <trkpt lat="49.96369" lon="2.13305">
        <ele>21.3</ele>
        <time>2024-04-17T14:03:16Z</time>
      </trkpt>
      <trkpt lat="49.96369" lon="2.13305">
        <ele>21.3</ele>
        <time>2024-04-17T14:03:17Z</time>
      </trkpt>
      <trkpt lat="49.96369" lon="2.13305">
        <ele>21.3</ele>
        <time>2024-04-17T14:03:18Z</time>
      </trkpt>
      <trkpt lat="49.96369" lon="2.13305">
        <ele>21.3</ele>
        <time>2024-04-17T14:03:19Z</time>
      </trkpt>
      <trkpt lat="49.96369" lon="2.13304">
        <ele>21.3</ele>
        <time>2024-04-17T14:03:20Z</time>
      </trkpt>
      <trkpt lat="49.96369" lon="2.13304">
        <ele>21.3</ele>
        <time>2024-04-17T14:03:21Z</time>
      </trkpt>
      <trkpt lat="49.96369" lon="2.13304">
        <ele>21.3</ele>
        <time>2024-04-17T14:03:22Z</time>
      </trkpt>
      <trkpt lat="49.96369" lon="2.13304">
        <ele>21.3</ele>
        <time>2024-04-17T14:03:23Z</time>
      </trkpt>
      <trkpt lat="49.96369" lon="2.13304">
        <ele>21.3</ele>
        <time>2024-04-17T14:03:24Z</time>
      </trkpt>
      <trkpt lat="49.96369" lon="2.13304">
        <ele>21.3</ele>
        <time>2024-04-17T14:03:25Z</time>
      </trkpt>
      <trkpt lat="49.96369" lon="2.13304">
        <ele>21.3</ele>
        <time>2024-04-17T14:03:26Z</time>
      </trkpt>
      <trkpt lat="49.96369" lon="2.13304">
        <ele>21.3</ele>
        <time>2024-04-17T14:03:27Z</time>
      </trkpt>
      <trkpt lat="49.96369" lon="2.13304">
        <ele>21.3</ele>
        <time>2024-04-17T14:03:28Z</time>
      </trkpt>
      <trkpt lat="49.96369" lon="2.13303">
        <ele>21.3</ele>
        <time>2024-04-17T14:03:29Z</time>
      </trkpt>
      <trkpt lat="49.96368" lon="2.13303">
        <ele>21.3</ele>
        <time>2024-04-17T14:03:30Z</time>
      </trkpt>
      <trkpt lat="49.96368" lon="2.13303">
        <ele>21.3</ele>
        <time>2024-04-17T14:03:31Z</time>
      </trkpt>
      <trkpt lat="49.96368" lon="2.13303">
        <ele>21.3</ele>
        <time>2024-04-17T14:03:32Z</time>
      </trkpt>
      <trkpt lat="49.96368" lon="2.13303">
        <ele>21.3</ele>
        <time>2024-04-17T14:03:33Z</time>
      </trkpt>
      <trkpt lat="49.96368" lon="2.13303">
        <ele>21.3</ele>
        <time>2024-04-17T14:03:34Z</time>
      </trkpt>
      <trkpt lat="49.96368" lon="2.13303">
        <ele>21.3</ele>
        <time>2024-04-17T14:03:35Z</time>
      </trkpt>
      <trkpt lat="49.96368" lon="2.13303">
        <ele>21.3</ele>
        <time>2024-04-17T14:03:36Z</time>
      </trkpt>
      <trkpt lat="49.96368" lon="2.13303">
        <ele>21.3</ele>
        <time>2024-04-17T14:03:37Z</time>
      </trkpt>
      <trkpt lat="49.96368" lon="2.13303">
        <ele>21.3</ele>
        <time>2024-04-17T14:03:38Z</time>
      </trkpt>
      <trkpt lat="49.96368" lon="2.13302">
        <ele>21.3</ele>
        <time>2024-04-17T14:03:39Z</time>
      </trkpt>
      <trkpt lat="49.96368" lon="2.13302">
        <ele>21.3</ele>
        <time>2024-04-17T14:03:40Z</time>
      </trkpt>
      <trkpt lat="49.96368" lon="2.13302">
        <ele>21.3</ele>
        <time>2024-04-17T14:03:41Z</time>
      </trkpt>
      <trkpt lat="49.96368" lon="2.13302">
        <ele>21.3</ele>
        <time>2024-04-17T14:03:42Z</time>
      </trkpt>
      <trkpt lat="49.96368" lon="2.13302">
        <ele>21.3</ele>
        <time>2024-04-17T14:03:43Z</time>
      </trkpt>
      <trkpt lat="49.96368" lon="2.13302">
        <ele>21.3</ele>
        <time>2024-04-17T14:03:44Z</time>
      </trkpt>
      <trkpt lat="49.96368" lon="2.13302">
        <ele>21.3</ele>
        <time>2024-04-17T14:03:45Z</time>
      </trkpt>
      <trkpt lat="49.96368" lon="2.13302">
        <ele>21.4</ele>
        <time>2024-04-17T14:03:46Z</time>
      </trkpt>
      <trkpt lat="49.96368" lon="2.13302">
        <ele>21.4</ele>
        <time>2024-04-17T14:03:47Z</time>
      </trkpt>
      <trkpt lat="49.96368" lon="2.13301">
        <ele>21.4</ele>
        <time>2024-04-17T14:03:48Z</time>
      </trkpt>
      <trkpt lat="49.96368" lon="2.13301">
        <ele>21.4</ele>
        <time>2024-04-17T14:03:49Z</time>
      </trkpt>
      <trkpt lat="49.96368" lon="2.13301">
        <ele>21.4</ele>
        <time>2024-04-17T14:03:50Z</time>
      </trkpt>
      <trkpt lat="49.96368" lon="2.13301">
        <ele>21.4</ele>
        <time>2024-04-17T14:03:51Z</time>
      </trkpt>
      <trkpt lat="49.96368" lon="2.13301">
        <ele>21.4</ele>
        <time>2024-04-17T14:03:52Z</time>
      </trkpt>
      <trkpt lat="49.96368" lon="2.13301">
        <ele>21.4</ele>
        <time>2024-04-17T14:03:53Z</time>
      </trkpt>
      <trkpt lat="49.96368" lon="2.13301">
        <ele>21.4</ele>
        <time>2024-04-17T14:03:54Z</time>
      </trkpt>
      <trkpt lat="49.96368" lon="2.13301">
        <ele>21.4</ele>
        <time>2024-04-17T14:03:55Z</time>
      </trkpt>
      <trkpt lat="49.96368" lon="2.13301">
        <ele>21.4</ele>
        <time>2024-04-17T14:03:56Z</time>
      </trkpt>
      <trkpt lat="49.96368" lon="2.133">
        <ele>21.4</ele>
        <time>2024-04-17T14:03:57Z</time>
      </trkpt>
      <trkpt lat="49.96368" lon="2.133">
        <ele>21.4</ele>
        <time>2024-04-17T14:03:58Z</time>
      </trkpt>
      <trkpt lat="49.96368" lon="2.133">
        <ele>21.4</ele>
        <time>2024-04-17T14:03:59Z</time>
      </trkpt>
      <trkpt lat="49.96368" lon="2.133">
        <ele>21.4</ele>
        <time>2024-04-17T14:04:00Z</time>
      </trkpt>
      <trkpt lat="49.96368" lon="2.133">
        <ele>21.4</ele>
        <time>2024-04-17T14:04:01Z</time>
      </trkpt>
      <trkpt lat="49.96368" lon="2.133">
        <ele>21.4</ele>
        <time>2024-04-17T14:04:02Z</time>
      </trkpt>
      <trkpt lat="49.96368" lon="2.133">
        <ele>21.4</ele>
        <time>2024-04-17T14:04:03Z</time>
      </trkpt>
      <trkpt lat="49.96368" lon="2.133">
        <ele>21.4</ele>
        <time>2024-04-17T14:04:04Z</time>
      </trkpt>
      <trkpt lat="49.96368" lon="2.133">
        <ele>21.4</ele>
        <time>2024-04-17T14:04:05Z</time>
      </trkpt>
      <trkpt lat="49.96368" lon="2.133">
        <ele>21.4</ele>
        <time>2024-04-17T14:04:06Z</time>
      </trkpt>
      <trkpt lat="49.96368" lon="2.13299">
        <ele>21.4</ele>
        <time>2024-04-17T14:04:07Z</time>
      </trkpt>
      <trkpt lat="49.96369" lon="2.13298">
        <ele>21.4</ele>
        <time>2024-04-17T14:04:08Z</time>
      </trkpt>
      <trkpt lat="49.96369" lon="2.13298">
        <ele>21.4</ele>
        <time>2024-04-17T14:04:09Z</time>
      </trkpt>
      <trkpt lat="49.96369" lon="2.13298">
        <ele>21.4</ele>
        <time>2024-04-17T14:04:10Z</time>
      </trkpt>
      <trkpt lat="49.9637" lon="2.13298">
        <ele>21.4</ele>
        <time>2024-04-17T14:04:11Z</time>
      </trkpt>
      <trkpt lat="49.96371" lon="2.13298">
        <ele>21.5</ele>
        <time>2024-04-17T14:04:12Z</time>
      </trkpt>
      <trkpt lat="49.96372" lon="2.13299">
        <ele>21.5</ele>
        <time>2024-04-17T14:04:13Z</time>
      </trkpt>
      <trkpt lat="49.96372" lon="2.133">
        <ele>21.5</ele>
        <time>2024-04-17T14:04:14Z</time>
      </trkpt>
      <trkpt lat="49.96373" lon="2.13301">
        <ele>21.6</ele>
        <time>2024-04-17T14:04:15Z</time>
      </trkpt>
      <trkpt lat="49.96374" lon="2.13302">
        <ele>21.6</ele>
        <time>2024-04-17T14:04:16Z</time>
      </trkpt>
      <trkpt lat="49.96375" lon="2.13303">
        <ele>21.6</ele>
        <time>2024-04-17T14:04:17Z</time>
      </trkpt>
      <trkpt lat="49.96376" lon="2.13304">
        <ele>21.6</ele>
        <time>2024-04-17T14:04:18Z</time>
      </trkpt>
      <trkpt lat="49.96376" lon="2.13305">
        <ele>21.6</ele>
        <time>2024-04-17T14:04:19Z</time>
      </trkpt>
      <trkpt lat="49.96377" lon="2.13305">
        <ele>21.7</ele>
        <time>2024-04-17T14:04:20Z</time>
      </trkpt>
      <trkpt lat="49.96378" lon="2.13306">
        <ele>21.7</ele>
        <time>2024-04-17T14:04:21Z</time>
      </trkpt>
      <trkpt lat="49.96378" lon="2.13307">
        <ele>21.7</ele>
        <time>2024-04-17T14:04:22Z</time>
      </trkpt>
      <trkpt lat="49.96379" lon="2.13308">
        <ele>21.7</ele>
        <time>2024-04-17T14:04:23Z</time>
      </trkpt>
      <trkpt lat="49.9638" lon="2.13308">
        <ele>21.8</ele>
        <time>2024-04-17T14:04:24Z</time>
      </trkpt>
      <trkpt lat="49.9638" lon="2.13309">
        <ele>21.8</ele>
        <time>2024-04-17T14:04:25Z</time>
      </trkpt>
      <trkpt lat="49.96381" lon="2.1331">
        <ele>21.8</ele>
        <time>2024-04-17T14:04:26Z</time>
      </trkpt>
      <trkpt lat="49.96382" lon="2.13311">
        <ele>21.8</ele>
        <time>2024-04-17T14:04:27Z</time>
      </trkpt>
      <trkpt lat="49.96383" lon="2.13311">
        <ele>21.9</ele>
        <time>2024-04-17T14:04:28Z</time>
      </trkpt>
      <trkpt lat="49.96384" lon="2.13312">
        <ele>21.9</ele>
        <time>2024-04-17T14:04:29Z</time>
      </trkpt>
      <trkpt lat="49.96384" lon="2.13313">
        <ele>21.9</ele>
        <time>2024-04-17T14:04:30Z</time>
      </trkpt>
      <trkpt lat="49.96385" lon="2.13313">
        <ele>22</ele>
        <time>2024-04-17T14:04:31Z</time>
      </trkpt>
      <trkpt lat="49.96386" lon="2.13314">
        <ele>22</ele>
        <time>2024-04-17T14:04:32Z</time>
      </trkpt>
      <trkpt lat="49.96386" lon="2.13315">
        <ele>22</ele>
        <time>2024-04-17T14:04:33Z</time>
      </trkpt>
      <trkpt lat="49.96387" lon="2.13316">
        <ele>22</ele>
        <time>2024-04-17T14:04:34Z</time>
      </trkpt>
      <trkpt lat="49.96388" lon="2.13316">
        <ele>22.1</ele>
        <time>2024-04-17T14:04:35Z</time>
      </trkpt>
      <trkpt lat="49.96389" lon="2.13317">
        <ele>22.1</ele>
        <time>2024-04-17T14:04:36Z</time>
      </trkpt>
      <trkpt lat="49.96389" lon="2.13318">
        <ele>22.1</ele>
        <time>2024-04-17T14:04:37Z</time>
      </trkpt>
      <trkpt lat="49.9639" lon="2.13319">
        <ele>22.2</ele>
        <time>2024-04-17T14:04:38Z</time>
      </trkpt>
      <trkpt lat="49.96391" lon="2.1332">
        <ele>22.2</ele>
        <time>2024-04-17T14:04:39Z</time>
      </trkpt>
      <trkpt lat="49.96391" lon="2.13321">
        <ele>22.2</ele>
        <time>2024-04-17T14:04:40Z</time>
      </trkpt>
      <trkpt lat="49.96392" lon="2.13322">
        <ele>22.3</ele>
        <time>2024-04-17T14:04:41Z</time>
      </trkpt>
      <trkpt lat="49.96393" lon="2.13323">
        <ele>22.3</ele>
        <time>2024-04-17T14:04:42Z</time>
      </trkpt>
      <trkpt lat="49.96394" lon="2.13324">
        <ele>22.3</ele>
        <time>2024-04-17T14:04:43Z</time>
      </trkpt>
      <trkpt lat="49.96394" lon="2.13325">
        <ele>22.4</ele>
        <time>2024-04-17T14:04:44Z</time>
      </trkpt>
      <trkpt lat="49.96395" lon="2.13326">
        <ele>22.4</ele>
        <time>2024-04-17T14:04:45Z</time>
      </trkpt>
      <trkpt lat="49.96396" lon="2.13327">
        <ele>22.4</ele>
        <time>2024-04-17T14:04:46Z</time>
      </trkpt>
      <trkpt lat="49.96397" lon="2.13328">
        <ele>22.5</ele>
        <time>2024-04-17T14:04:47Z</time>
      </trkpt>
      <trkpt lat="49.96397" lon="2.13329">
        <ele>22.5</ele>
        <time>2024-04-17T14:04:48Z</time>
      </trkpt>
      <trkpt lat="49.96398" lon="2.1333">
        <ele>22.5</ele>
        <time>2024-04-17T14:04:49Z</time>
      </trkpt>
      <trkpt lat="49.96399" lon="2.1333">
        <ele>22.6</ele>
        <time>2024-04-17T14:04:50Z</time>
      </trkpt>
      <trkpt lat="49.964" lon="2.13331">
        <ele>22.6</ele>
        <time>2024-04-17T14:04:51Z</time>
      </trkpt>
      <trkpt lat="49.96401" lon="2.13332">
        <ele>22.6</ele>
        <time>2024-04-17T14:04:52Z</time>
      </trkpt>
      <trkpt lat="49.96402" lon="2.13333">
        <ele>22.7</ele>
        <time>2024-04-17T14:04:53Z</time>
      </trkpt>
      <trkpt lat="49.96402" lon="2.13334">
        <ele>22.7</ele>
        <time>2024-04-17T14:04:54Z</time>
      </trkpt>
      <trkpt lat="49.96403" lon="2.13335">
        <ele>22.7</ele>
        <time>2024-04-17T14:04:55Z</time>
      </trkpt>
      <trkpt lat="49.96404" lon="2.13336">
        <ele>22.8</ele>
        <time>2024-04-17T14:04:56Z</time>
      </trkpt>
      <trkpt lat="49.96404" lon="2.13337">
        <ele>22.8</ele>
        <time>2024-04-17T14:04:57Z</time>
      </trkpt>
      <trkpt lat="49.96405" lon="2.13338">
        <ele>22.8</ele>
        <time>2024-04-17T14:04:58Z</time>
      </trkpt>
      <trkpt lat="49.96405" lon="2.13339">
        <ele>22.9</ele>
        <time>2024-04-17T14:04:59Z</time>
      </trkpt>
      <trkpt lat="49.96406" lon="2.1334">
        <ele>22.9</ele>
        <time>2024-04-17T14:05:00Z</time>
      </trkpt>
      <trkpt lat="49.96406" lon="2.13341">
        <ele>22.9</ele>
        <time>2024-04-17T14:05:01Z</time>
      </trkpt>
      <trkpt lat="49.96407" lon="2.13342">
        <ele>22.9</ele>
        <time>2024-04-17T14:05:02Z</time>
      </trkpt>
      <trkpt lat="49.96408" lon="2.13342">
        <ele>23</ele>
        <time>2024-04-17T14:05:03Z</time>
      </trkpt>
      <trkpt lat="49.96408" lon="2.13343">
        <ele>23</ele>
        <time>2024-04-17T14:05:04Z</time>
      </trkpt>
      <trkpt lat="49.96409" lon="2.13344">
        <ele>23</ele>
        <time>2024-04-17T14:05:05Z</time>
      </trkpt>
      <trkpt lat="49.96409" lon="2.13345">
        <ele>23.1</ele>
        <time>2024-04-17T14:05:06Z</time>
      </trkpt>
      <trkpt lat="49.9641" lon="2.13345">
        <ele>23.1</ele>
        <time>2024-04-17T14:05:07Z</time>
      </trkpt>
      <trkpt lat="49.96411" lon="2.13346">
        <ele>23.1</ele>
        <time>2024-04-17T14:05:08Z</time>
      </trkpt>
      <trkpt lat="49.96412" lon="2.13346">
        <ele>23.1</ele>
        <time>2024-04-17T14:05:09Z</time>
      </trkpt>
      <trkpt lat="49.96412" lon="2.13347">
        <ele>23.2</ele>
        <time>2024-04-17T14:05:10Z</time>
      </trkpt>
      <trkpt lat="49.96413" lon="2.13348">
        <ele>23.2</ele>
        <time>2024-04-17T14:05:11Z</time>
      </trkpt>
      <trkpt lat="49.96414" lon="2.13348">
        <ele>23.2</ele>
        <time>2024-04-17T14:05:12Z</time>
      </trkpt>
      <trkpt lat="49.96414" lon="2.13349">
        <ele>23.3</ele>
        <time>2024-04-17T14:05:13Z</time>
      </trkpt>
      <trkpt lat="49.96415" lon="2.13349">
        <ele>23.3</ele>
        <time>2024-04-17T14:05:14Z</time>
      </trkpt>
      <trkpt lat="49.96416" lon="2.1335">
        <ele>23.3</ele>
        <time>2024-04-17T14:05:15Z</time>
      </trkpt>
      <trkpt lat="49.96417" lon="2.1335">
        <ele>23.3</ele>
        <time>2024-04-17T14:05:16Z</time>
      </trkpt>
      <trkpt lat="49.96418" lon="2.1335">
        <ele>23.3</ele>
        <time>2024-04-17T14:05:17Z</time>
      </trkpt>
      <trkpt lat="49.96419" lon="2.13351">
        <ele>23.3</ele>
        <time>2024-04-17T14:05:18Z</time>
      </trkpt>
      <trkpt lat="49.9642" lon="2.13352">
        <ele>23.3</ele>
        <time>2024-04-17T14:05:19Z</time>
      </trkpt>
      <trkpt lat="49.9642" lon="2.13352">
        <ele>23.3</ele>
        <time>2024-04-17T14:05:20Z</time>
      </trkpt>
      <trkpt lat="49.96421" lon="2.13353">
        <ele>23.3</ele>
        <time>2024-04-17T14:05:21Z</time>
      </trkpt>
      <trkpt lat="49.96422" lon="2.13354">
        <ele>23.4</ele>
        <time>2024-04-17T14:05:22Z</time>
      </trkpt>
      <trkpt lat="49.96423" lon="2.13354">
        <ele>23.4</ele>
        <time>2024-04-17T14:05:23Z</time>
      </trkpt>
      <trkpt lat="49.96424" lon="2.13355">
        <ele>23.5</ele>
        <time>2024-04-17T14:05:24Z</time>
      </trkpt>
      <trkpt lat="49.96425" lon="2.13355">
        <ele>23.5</ele>
        <time>2024-04-17T14:05:25Z</time>
      </trkpt>
      <trkpt lat="49.96426" lon="2.13356">
        <ele>23.6</ele>
        <time>2024-04-17T14:05:26Z</time>
      </trkpt>
      <trkpt lat="49.96426" lon="2.13357">
        <ele>23.6</ele>
        <time>2024-04-17T14:05:27Z</time>
      </trkpt>
      <trkpt lat="49.96427" lon="2.13358">
        <ele>23.7</ele>
        <time>2024-04-17T14:05:28Z</time>
      </trkpt>
      <trkpt lat="49.96428" lon="2.13359">
        <ele>23.7</ele>
        <time>2024-04-17T14:05:29Z</time>
      </trkpt>
      <trkpt lat="49.96428" lon="2.13359">
        <ele>23.8</ele>
        <time>2024-04-17T14:05:30Z</time>
      </trkpt>
      <trkpt lat="49.96429" lon="2.1336">
        <ele>23.8</ele>
        <time>2024-04-17T14:05:31Z</time>
      </trkpt>
      <trkpt lat="49.96429" lon="2.13361">
        <ele>23.9</ele>
        <time>2024-04-17T14:05:32Z</time>
      </trkpt>
      <trkpt lat="49.9643" lon="2.13362">
        <ele>23.9</ele>
        <time>2024-04-17T14:05:33Z</time>
      </trkpt>
      <trkpt lat="49.96431" lon="2.13363">
        <ele>24</ele>
        <time>2024-04-17T14:05:34Z</time>
      </trkpt>
      <trkpt lat="49.96432" lon="2.13364">
        <ele>24.1</ele>
        <time>2024-04-17T14:05:35Z</time>
      </trkpt>
      <trkpt lat="49.96433" lon="2.13365">
        <ele>24.1</ele>
        <time>2024-04-17T14:05:36Z</time>
      </trkpt>
      <trkpt lat="49.96433" lon="2.13366">
        <ele>24.1</ele>
        <time>2024-04-17T14:05:37Z</time>
      </trkpt>
      <trkpt lat="49.96434" lon="2.13366">
        <ele>24.2</ele>
        <time>2024-04-17T14:05:38Z</time>
      </trkpt>
      <trkpt lat="49.96435" lon="2.13367">
        <ele>24.2</ele>
        <time>2024-04-17T14:05:39Z</time>
      </trkpt>
      <trkpt lat="49.96435" lon="2.13368">
        <ele>24.3</ele>
        <time>2024-04-17T14:05:40Z</time>
      </trkpt>
      <trkpt lat="49.96436" lon="2.13368">
        <ele>24.4</ele>
        <time>2024-04-17T14:05:41Z</time>
      </trkpt>
      <trkpt lat="49.96437" lon="2.13369">
        <ele>24.4</ele>
        <time>2024-04-17T14:05:42Z</time>
      </trkpt>
      <trkpt lat="49.96438" lon="2.1337">
        <ele>24.5</ele>
        <time>2024-04-17T14:05:43Z</time>
      </trkpt>
      <trkpt lat="49.9644" lon="2.13371">
        <ele>24.6</ele>
        <time>2024-04-17T14:05:45Z</time>
      </trkpt>
      <trkpt lat="49.9644" lon="2.13371">
        <ele>24.7</ele>
        <time>2024-04-17T14:05:46Z</time>
      </trkpt>
      <trkpt lat="49.96441" lon="2.13372">
        <ele>24.7</ele>
        <time>2024-04-17T14:05:47Z</time>
      </trkpt>
      <trkpt lat="49.96442" lon="2.13373">
        <ele>24.8</ele>
        <time>2024-04-17T14:05:48Z</time>
      </trkpt>
      <trkpt lat="49.96443" lon="2.13374">
        <ele>24.9</ele>
        <time>2024-04-17T14:05:49Z</time>
      </trkpt>
      <trkpt lat="49.96444" lon="2.13375">
        <ele>24.9</ele>
        <time>2024-04-17T14:05:50Z</time>
      </trkpt>
      <trkpt lat="49.96444" lon="2.13375">
        <ele>25</ele>
        <time>2024-04-17T14:05:51Z</time>
      </trkpt>
      <trkpt lat="49.96445" lon="2.13376">
        <ele>25</ele>
        <time>2024-04-17T14:05:52Z</time>
      </trkpt>
      <trkpt lat="49.96446" lon="2.13377">
        <ele>25.1</ele>
        <time>2024-04-17T14:05:53Z</time>
      </trkpt>
      <trkpt lat="49.96447" lon="2.13378">
        <ele>25.2</ele>
        <time>2024-04-17T14:05:54Z</time>
      </trkpt>
      <trkpt lat="49.96447" lon="2.13379">
        <ele>25.2</ele>
        <time>2024-04-17T14:05:55Z</time>
      </trkpt>
      <trkpt lat="49.96448" lon="2.1338">
        <ele>25.3</ele>
        <time>2024-04-17T14:05:56Z</time>
      </trkpt>
      <trkpt lat="49.96449" lon="2.13381">
        <ele>25.3</ele>
        <time>2024-04-17T14:05:57Z</time>
      </trkpt>
      <trkpt lat="49.96449" lon="2.13382">
        <ele>25.4</ele>
        <time>2024-04-17T14:05:58Z</time>
      </trkpt>
      <trkpt lat="49.96449" lon="2.13383">
        <ele>25.5</ele>
        <time>2024-04-17T14:05:59Z</time>
      </trkpt>
      <trkpt lat="49.96449" lon="2.13384">
        <ele>25.5</ele>
        <time>2024-04-17T14:06:00Z</time>
      </trkpt>
      <trkpt lat="49.96449" lon="2.13386">
        <ele>25.6</ele>
        <time>2024-04-17T14:06:01Z</time>
      </trkpt>
      <trkpt lat="49.96449" lon="2.13387">
        <ele>25.6</ele>
        <time>2024-04-17T14:06:02Z</time>
      </trkpt>
      <trkpt lat="49.9645" lon="2.13387">
        <ele>25.7</ele>
        <time>2024-04-17T14:06:03Z</time>
      </trkpt>
      <trkpt lat="49.96451" lon="2.13388">
        <ele>25.8</ele>
        <time>2024-04-17T14:06:04Z</time>
      </trkpt>
      <trkpt lat="49.96451" lon="2.13389">
        <ele>25.8</ele>
        <time>2024-04-17T14:06:05Z</time>
      </trkpt>
      <trkpt lat="49.96452" lon="2.1339">
        <ele>25.9</ele>
        <time>2024-04-17T14:06:06Z</time>
      </trkpt>
      <trkpt lat="49.96453" lon="2.13391">
        <ele>26</ele>
        <time>2024-04-17T14:06:07Z</time>
      </trkpt>
      <trkpt lat="49.96454" lon="2.13391">
        <ele>26</ele>
        <time>2024-04-17T14:06:08Z</time>
      </trkpt>
      <trkpt lat="49.96455" lon="2.13392">
        <ele>26.1</ele>
        <time>2024-04-17T14:06:09Z</time>
      </trkpt>
      <trkpt lat="49.96456" lon="2.13392">
        <ele>26.2</ele>
        <time>2024-04-17T14:06:10Z</time>
      </trkpt>
      <trkpt lat="49.96457" lon="2.13393">
        <ele>26.3</ele>
        <time>2024-04-17T14:06:11Z</time>
      </trkpt>
      <trkpt lat="49.96458" lon="2.13393">
        <ele>26.3</ele>
        <time>2024-04-17T14:06:12Z</time>
      </trkpt>
      <trkpt lat="49.96459" lon="2.13393">
        <ele>26.4</ele>
        <time>2024-04-17T14:06:13Z</time>
      </trkpt>
      <trkpt lat="49.9646" lon="2.13393">
        <ele>26.5</ele>
        <time>2024-04-17T14:06:14Z</time>
      </trkpt>
      <trkpt lat="49.96461" lon="2.13393">
        <ele>26.5</ele>
        <time>2024-04-17T14:06:15Z</time>
      </trkpt>
      <trkpt lat="49.96462" lon="2.13394">
        <ele>26.6</ele>
        <time>2024-04-17T14:06:16Z</time>
      </trkpt>
      <trkpt lat="49.96463" lon="2.13394">
        <ele>26.7</ele>
        <time>2024-04-17T14:06:17Z</time>
      </trkpt>
      <trkpt lat="49.96463" lon="2.13395">
        <ele>26.8</ele>
        <time>2024-04-17T14:06:18Z</time>
      </trkpt>
      <trkpt lat="49.96464" lon="2.13395">
        <ele>26.8</ele>
        <time>2024-04-17T14:06:19Z</time>
      </trkpt>
      <trkpt lat="49.96465" lon="2.13396">
        <ele>26.9</ele>
        <time>2024-04-17T14:06:20Z</time>
      </trkpt>
      <trkpt lat="49.96466" lon="2.13396">
        <ele>27</ele>
        <time>2024-04-17T14:06:21Z</time>
      </trkpt>
      <trkpt lat="49.96467" lon="2.13397">
        <ele>27</ele>
        <time>2024-04-17T14:06:22Z</time>
      </trkpt>
      <trkpt lat="49.96468" lon="2.13397">
        <ele>27.1</ele>
        <time>2024-04-17T14:06:23Z</time>
      </trkpt>
      <trkpt lat="49.96468" lon="2.13398">
        <ele>27.1</ele>
        <time>2024-04-17T14:06:24Z</time>
      </trkpt>
      <trkpt lat="49.96469" lon="2.13398">
        <ele>27.2</ele>
        <time>2024-04-17T14:06:25Z</time>
      </trkpt>
      <trkpt lat="49.9647" lon="2.13399">
        <ele>27.3</ele>
        <time>2024-04-17T14:06:26Z</time>
      </trkpt>
      <trkpt lat="49.96471" lon="2.134">
        <ele>27.3</ele>
        <time>2024-04-17T14:06:27Z</time>
      </trkpt>
      <trkpt lat="49.96471" lon="2.134">
        <ele>27.4</ele>
        <time>2024-04-17T14:06:28Z</time>
      </trkpt>
      <trkpt lat="49.96472" lon="2.13401">
        <ele>27.5</ele>
        <time>2024-04-17T14:06:29Z</time>
      </trkpt>
      <trkpt lat="49.96473" lon="2.13402">
        <ele>27.5</ele>
        <time>2024-04-17T14:06:30Z</time>
      </trkpt>
      <trkpt lat="49.96473" lon="2.13403">
        <ele>27.6</ele>
        <time>2024-04-17T14:06:31Z</time>
      </trkpt>
      <trkpt lat="49.96474" lon="2.13404">
        <ele>27.7</ele>
        <time>2024-04-17T14:06:32Z</time>
      </trkpt>
      <trkpt lat="49.96475" lon="2.13405">
        <ele>27.8</ele>
        <time>2024-04-17T14:06:33Z</time>
      </trkpt>
      <trkpt lat="49.96475" lon="2.13406">
        <ele>27.8</ele>
        <time>2024-04-17T14:06:34Z</time>
      </trkpt>
      <trkpt lat="49.96476" lon="2.13407">
        <ele>27.9</ele>
        <time>2024-04-17T14:06:35Z</time>
      </trkpt>
      <trkpt lat="49.96477" lon="2.13407">
        <ele>28</ele>
        <time>2024-04-17T14:06:36Z</time>
      </trkpt>
      <trkpt lat="49.96477" lon="2.13408">
        <ele>28</ele>
        <time>2024-04-17T14:06:37Z</time>
      </trkpt>
      <trkpt lat="49.96478" lon="2.13409">
        <ele>28.1</ele>
        <time>2024-04-17T14:06:38Z</time>
      </trkpt>
      <trkpt lat="49.96478" lon="2.13409">
        <ele>28.1</ele>
        <time>2024-04-17T14:06:39Z</time>
      </trkpt>
      <trkpt lat="49.96479" lon="2.1341">
        <ele>28.2</ele>
        <time>2024-04-17T14:06:40Z</time>
      </trkpt>
      <trkpt lat="49.9648" lon="2.13411">
        <ele>28.2</ele>
        <time>2024-04-17T14:06:41Z</time>
      </trkpt>
      <trkpt lat="49.9648" lon="2.13412">
        <ele>28.3</ele>
        <time>2024-04-17T14:06:42Z</time>
      </trkpt>
      <trkpt lat="49.96481" lon="2.13412">
        <ele>28.4</ele>
        <time>2024-04-17T14:06:43Z</time>
      </trkpt>
      <trkpt lat="49.96481" lon="2.13413">
        <ele>28.4</ele>
        <time>2024-04-17T14:06:44Z</time>
      </trkpt>
      <trkpt lat="49.96481" lon="2.13413">
        <ele>28.5</ele>
        <time>2024-04-17T14:06:45Z</time>
      </trkpt>
      <trkpt lat="49.96482" lon="2.13414">
        <ele>28.5</ele>
        <time>2024-04-17T14:06:46Z</time>
      </trkpt>
      <trkpt lat="49.96482" lon="2.13414">
        <ele>28.5</ele>
        <time>2024-04-17T14:06:47Z</time>
      </trkpt>
      <trkpt lat="49.96483" lon="2.13415">
        <ele>28.6</ele>
        <time>2024-04-17T14:06:48Z</time>
      </trkpt>
      <trkpt lat="49.96483" lon="2.13415">
        <ele>28.6</ele>
        <time>2024-04-17T14:06:49Z</time>
      </trkpt>
      <trkpt lat="49.96483" lon="2.13416">
        <ele>28.7</ele>
        <time>2024-04-17T14:06:50Z</time>
      </trkpt>
      <trkpt lat="49.96483" lon="2.13417">
        <ele>28.7</ele>
        <time>2024-04-17T14:06:51Z</time>
      </trkpt>
      <trkpt lat="49.96484" lon="2.13418">
        <ele>28.8</ele>
        <time>2024-04-17T14:06:52Z</time>
      </trkpt>
      <trkpt lat="49.96484" lon="2.13419">
        <ele>28.8</ele>
        <time>2024-04-17T14:06:53Z</time>
      </trkpt>
      <trkpt lat="49.96485" lon="2.1342">
        <ele>28.9</ele>
        <time>2024-04-17T14:06:54Z</time>
      </trkpt>
      <trkpt lat="49.96485" lon="2.1342">
        <ele>29</ele>
        <time>2024-04-17T14:06:55Z</time>
      </trkpt>
      <trkpt lat="49.96486" lon="2.13421">
        <ele>29</ele>
        <time>2024-04-17T14:06:56Z</time>
      </trkpt>
      <trkpt lat="49.96486" lon="2.13422">
        <ele>29.1</ele>
        <time>2024-04-17T14:06:57Z</time>
      </trkpt>
      <trkpt lat="49.96487" lon="2.13423">
        <ele>29.1</ele>
        <time>2024-04-17T14:06:58Z</time>
      </trkpt>
      <trkpt lat="49.96487" lon="2.13424">
        <ele>29.2</ele>
        <time>2024-04-17T14:06:59Z</time>
      </trkpt>
      <trkpt lat="49.96488" lon="2.13425">
        <ele>29.3</ele>
        <time>2024-04-17T14:07:00Z</time>
      </trkpt>
      <trkpt lat="49.96488" lon="2.13425">
        <ele>29.3</ele>
        <time>2024-04-17T14:07:01Z</time>
      </trkpt>
      <trkpt lat="49.96489" lon="2.13426">
        <ele>29.4</ele>
        <time>2024-04-17T14:07:02Z</time>
      </trkpt>
      <trkpt lat="49.96489" lon="2.13426">
        <ele>29.4</ele>
        <time>2024-04-17T14:07:03Z</time>
      </trkpt>
      <trkpt lat="49.9649" lon="2.13427">
        <ele>29.5</ele>
        <time>2024-04-17T14:07:04Z</time>
      </trkpt>
      <trkpt lat="49.9649" lon="2.13428">
        <ele>29.6</ele>
        <time>2024-04-17T14:07:05Z</time>
      </trkpt>
      <trkpt lat="49.96491" lon="2.13429">
        <ele>29.7</ele>
        <time>2024-04-17T14:07:06Z</time>
      </trkpt>
      <trkpt lat="49.96492" lon="2.1343">
        <ele>29.7</ele>
        <time>2024-04-17T14:07:07Z</time>
      </trkpt>
      <trkpt lat="49.96492" lon="2.1343">
        <ele>29.8</ele>
        <time>2024-04-17T14:07:08Z</time>
      </trkpt>
      <trkpt lat="49.96493" lon="2.13431">
        <ele>29.9</ele>
        <time>2024-04-17T14:07:09Z</time>
      </trkpt>
      <trkpt lat="49.96494" lon="2.13432">
        <ele>30</ele>
        <time>2024-04-17T14:07:10Z</time>
      </trkpt>
      <trkpt lat="49.96494" lon="2.13432">
        <ele>30</ele>
        <time>2024-04-17T14:07:11Z</time>
      </trkpt>
      <trkpt lat="49.96495" lon="2.13433">
        <ele>30.1</ele>
        <time>2024-04-17T14:07:12Z</time>
      </trkpt>
      <trkpt lat="49.96495" lon="2.13434">
        <ele>30.2</ele>
        <time>2024-04-17T14:07:13Z</time>
      </trkpt>
      <trkpt lat="49.96496" lon="2.13434">
        <ele>30.2</ele>
        <time>2024-04-17T14:07:14Z</time>
      </trkpt>
      <trkpt lat="49.96497" lon="2.13435">
        <ele>30.3</ele>
        <time>2024-04-17T14:07:15Z</time>
      </trkpt>
      <trkpt lat="49.96497" lon="2.13436">
        <ele>30.4</ele>
        <time>2024-04-17T14:07:16Z</time>
      </trkpt>
      <trkpt lat="49.96498" lon="2.13437">
        <ele>30.5</ele>
        <time>2024-04-17T14:07:17Z</time>
      </trkpt>
      <trkpt lat="49.96498" lon="2.13437">
        <ele>30.5</ele>
        <time>2024-04-17T14:07:18Z</time>
      </trkpt>
      <trkpt lat="49.96499" lon="2.13438">
        <ele>30.6</ele>
        <time>2024-04-17T14:07:19Z</time>
      </trkpt>
      <trkpt lat="49.96499" lon="2.13439">
        <ele>30.7</ele>
        <time>2024-04-17T14:07:20Z</time>
      </trkpt>
      <trkpt lat="49.965" lon="2.1344">
        <ele>30.8</ele>
        <time>2024-04-17T14:07:21Z</time>
      </trkpt>
      <trkpt lat="49.965" lon="2.13441">
        <ele>30.8</ele>
        <time>2024-04-17T14:07:22Z</time>
      </trkpt>
      <trkpt lat="49.96501" lon="2.13441">
        <ele>30.9</ele>
        <time>2024-04-17T14:07:23Z</time>
      </trkpt>
      <trkpt lat="49.96501" lon="2.13442">
        <ele>31</ele>
        <time>2024-04-17T14:07:24Z</time>
      </trkpt>
      <trkpt lat="49.96502" lon="2.13443">
        <ele>31.1</ele>
        <time>2024-04-17T14:07:25Z</time>
      </trkpt>
      <trkpt lat="49.96503" lon="2.13443">
        <ele>31.2</ele>
        <time>2024-04-17T14:07:26Z</time>
      </trkpt>
      <trkpt lat="49.96503" lon="2.13444">
        <ele>31.3</ele>
        <time>2024-04-17T14:07:27Z</time>
      </trkpt>
      <trkpt lat="49.96504" lon="2.13445">
        <ele>31.4</ele>
        <time>2024-04-17T14:07:28Z</time>
      </trkpt>
      <trkpt lat="49.96505" lon="2.13445">
        <ele>31.4</ele>
        <time>2024-04-17T14:07:29Z</time>
      </trkpt>
      <trkpt lat="49.96505" lon="2.13446">
        <ele>31.5</ele>
        <time>2024-04-17T14:07:30Z</time>
      </trkpt>
      <trkpt lat="49.96506" lon="2.13447">
        <ele>31.6</ele>
        <time>2024-04-17T14:07:31Z</time>
      </trkpt>
      <trkpt lat="49.96507" lon="2.13447">
        <ele>31.7</ele>
        <time>2024-04-17T14:07:32Z</time>
      </trkpt>
      <trkpt lat="49.96507" lon="2.13448">
        <ele>31.8</ele>
        <time>2024-04-17T14:07:33Z</time>
      </trkpt>
      <trkpt lat="49.96508" lon="2.13449">
        <ele>31.9</ele>
        <time>2024-04-17T14:07:34Z</time>
      </trkpt>
      <trkpt lat="49.96509" lon="2.13449">
        <ele>32</ele>
        <time>2024-04-17T14:07:35Z</time>
      </trkpt>
      <trkpt lat="49.96509" lon="2.1345">
        <ele>32.1</ele>
        <time>2024-04-17T14:07:36Z</time>
      </trkpt>
      <trkpt lat="49.9651" lon="2.1345">
        <ele>32.1</ele>
        <time>2024-04-17T14:07:37Z</time>
      </trkpt>
      <trkpt lat="49.96511" lon="2.13451">
        <ele>32.2</ele>
        <time>2024-04-17T14:07:38Z</time>
      </trkpt>
      <trkpt lat="49.96512" lon="2.13451">
        <ele>32.3</ele>
        <time>2024-04-17T14:07:39Z</time>
      </trkpt>
      <trkpt lat="49.96512" lon="2.13452">
        <ele>32.4</ele>
        <time>2024-04-17T14:07:40Z</time>
      </trkpt>
      <trkpt lat="49.96513" lon="2.13452">
        <ele>32.5</ele>
        <time>2024-04-17T14:07:41Z</time>
      </trkpt>
      <trkpt lat="49.96513" lon="2.13453">
        <ele>32.6</ele>
        <time>2024-04-17T14:07:42Z</time>
      </trkpt>
      <trkpt lat="49.96514" lon="2.13454">
        <ele>32.7</ele>
        <time>2024-04-17T14:07:43Z</time>
      </trkpt>
      <trkpt lat="49.96515" lon="2.13455">
        <ele>32.8</ele>
        <time>2024-04-17T14:07:44Z</time>
      </trkpt>
      <trkpt lat="49.96515" lon="2.13456">
        <ele>32.9</ele>
        <time>2024-04-17T14:07:45Z</time>
      </trkpt>
      <trkpt lat="49.96516" lon="2.13456">
        <ele>32.9</ele>
        <time>2024-04-17T14:07:46Z</time>
      </trkpt>
      <trkpt lat="49.96517" lon="2.13457">
        <ele>33</ele>
        <time>2024-04-17T14:07:47Z</time>
      </trkpt>
      <trkpt lat="49.96517" lon="2.13458">
        <ele>33.1</ele>
        <time>2024-04-17T14:07:48Z</time>
      </trkpt>
      <trkpt lat="49.96518" lon="2.13458">
        <ele>33.2</ele>
        <time>2024-04-17T14:07:49Z</time>
      </trkpt>
      <trkpt lat="49.96519" lon="2.13459">
        <ele>33.3</ele>
        <time>2024-04-17T14:07:50Z</time>
      </trkpt>
      <trkpt lat="49.96519" lon="2.1346">
        <ele>33.4</ele>
        <time>2024-04-17T14:07:51Z</time>
      </trkpt>
      <trkpt lat="49.9652" lon="2.1346">
        <ele>33.5</ele>
        <time>2024-04-17T14:07:52Z</time>
      </trkpt>
      <trkpt lat="49.9652" lon="2.13461">
        <ele>33.6</ele>
        <time>2024-04-17T14:07:53Z</time>
      </trkpt>
      <trkpt lat="49.96521" lon="2.13461">
        <ele>33.6</ele>
        <time>2024-04-17T14:07:54Z</time>
      </trkpt>
      <trkpt lat="49.96522" lon="2.13462">
        <ele>33.7</ele>
        <time>2024-04-17T14:07:55Z</time>
      </trkpt>
      <trkpt lat="49.96522" lon="2.13462">
        <ele>33.8</ele>
        <time>2024-04-17T14:07:56Z</time>
      </trkpt>
      <trkpt lat="49.96523" lon="2.13462">
        <ele>33.9</ele>
        <time>2024-04-17T14:07:57Z</time>
      </trkpt>
      <trkpt lat="49.96523" lon="2.13463">
        <ele>33.9</ele>
        <time>2024-04-17T14:07:58Z</time>
      </trkpt>
      <trkpt lat="49.96523" lon="2.13464">
        <ele>34</ele>
        <time>2024-04-17T14:07:59Z</time>
      </trkpt>
      <trkpt lat="49.96524" lon="2.13465">
        <ele>34.1</ele>
        <time>2024-04-17T14:08:00Z</time>
      </trkpt>
      <trkpt lat="49.96524" lon="2.13466">
        <ele>34.1</ele>
        <time>2024-04-17T14:08:01Z</time>
      </trkpt>
      <trkpt lat="49.96524" lon="2.13466">
        <ele>34.2</ele>
        <time>2024-04-17T14:08:02Z</time>
      </trkpt>
      <trkpt lat="49.96524" lon="2.13467">
        <ele>34.3</ele>
        <time>2024-04-17T14:08:03Z</time>
      </trkpt>
      <trkpt lat="49.96524" lon="2.13468">
        <ele>34.3</ele>
        <time>2024-04-17T14:08:04Z</time>
      </trkpt>
      <trkpt lat="49.96525" lon="2.13469">
        <ele>34.4</ele>
        <time>2024-04-17T14:08:05Z</time>
      </trkpt>
      <trkpt lat="49.96525" lon="2.1347">
        <ele>34.5</ele>
        <time>2024-04-17T14:08:06Z</time>
      </trkpt>
      <trkpt lat="49.96525" lon="2.1347">
        <ele>34.5</ele>
        <time>2024-04-17T14:08:07Z</time>
      </trkpt>
      <trkpt lat="49.96525" lon="2.13471">
        <ele>34.6</ele>
        <time>2024-04-17T14:08:08Z</time>
      </trkpt>
      <trkpt lat="49.96525" lon="2.13471">
        <ele>34.6</ele>
        <time>2024-04-17T14:08:09Z</time>
      </trkpt>
      <trkpt lat="49.96526" lon="2.13471">
        <ele>34.6</ele>
        <time>2024-04-17T14:08:10Z</time>
      </trkpt>
      <trkpt lat="49.96526" lon="2.13471">
        <ele>34.6</ele>
        <time>2024-04-17T14:08:11Z</time>
      </trkpt>
      <trkpt lat="49.96527" lon="2.13471">
        <ele>34.6</ele>
        <time>2024-04-17T14:08:12Z</time>
      </trkpt>
      <trkpt lat="49.96527" lon="2.13471">
        <ele>34.7</ele>
        <time>2024-04-17T14:08:13Z</time>
      </trkpt>
      <trkpt lat="49.96528" lon="2.13472">
        <ele>34.7</ele>
        <time>2024-04-17T14:08:14Z</time>
      </trkpt>
      <trkpt lat="49.96528" lon="2.13472">
        <ele>34.7</ele>
        <time>2024-04-17T14:08:15Z</time>
      </trkpt>
      <trkpt lat="49.96529" lon="2.13472">
        <ele>34.7</ele>
        <time>2024-04-17T14:08:16Z</time>
      </trkpt>
      <trkpt lat="49.96529" lon="2.13472">
        <ele>34.8</ele>
        <time>2024-04-17T14:08:17Z</time>
      </trkpt>
      <trkpt lat="49.9653" lon="2.13471">
        <ele>34.8</ele>
        <time>2024-04-17T14:08:18Z</time>
      </trkpt>
      <trkpt lat="49.9653" lon="2.13471">
        <ele>34.8</ele>
        <time>2024-04-17T14:08:19Z</time>
      </trkpt>
      <trkpt lat="49.96531" lon="2.13471">
        <ele>34.8</ele>
        <time>2024-04-17T14:08:20Z</time>
      </trkpt>
      <trkpt lat="49.96531" lon="2.13471">
        <ele>34.8</ele>
        <time>2024-04-17T14:08:21Z</time>
      </trkpt>
      <trkpt lat="49.96532" lon="2.13471">
        <ele>34.9</ele>
        <time>2024-04-17T14:08:22Z</time>
      </trkpt>
      <trkpt lat="49.96533" lon="2.13471">
        <ele>34.9</ele>
        <time>2024-04-17T14:08:23Z</time>
      </trkpt>
      <trkpt lat="49.96533" lon="2.13471">
        <ele>34.9</ele>
        <time>2024-04-17T14:08:24Z</time>
      </trkpt>
      <trkpt lat="49.96534" lon="2.13472">
        <ele>35</ele>
        <time>2024-04-17T14:08:25Z</time>
      </trkpt>
      <trkpt lat="49.96535" lon="2.13473">
        <ele>35</ele>
        <time>2024-04-17T14:08:26Z</time>
      </trkpt>
      <trkpt lat="49.96535" lon="2.13473">
        <ele>35</ele>
        <time>2024-04-17T14:08:27Z</time>
      </trkpt>
      <trkpt lat="49.96536" lon="2.13474">
        <ele>35.1</ele>
        <time>2024-04-17T14:08:28Z</time>
      </trkpt>
      <trkpt lat="49.96537" lon="2.13475">
        <ele>35.1</ele>
        <time>2024-04-17T14:08:29Z</time>
      </trkpt>
      <trkpt lat="49.96538" lon="2.13475">
        <ele>35.1</ele>
        <time>2024-04-17T14:08:30Z</time>
      </trkpt>
      <trkpt lat="49.96539" lon="2.13476">
        <ele>35.2</ele>
        <time>2024-04-17T14:08:31Z</time>
      </trkpt>
      <trkpt lat="49.96539" lon="2.13477">
        <ele>35.2</ele>
        <time>2024-04-17T14:08:32Z</time>
      </trkpt>
      <trkpt lat="49.9654" lon="2.13477">
        <ele>35.3</ele>
        <time>2024-04-17T14:08:33Z</time>
      </trkpt>
      <trkpt lat="49.96541" lon="2.13478">
        <ele>35.3</ele>
        <time>2024-04-17T14:08:34Z</time>
      </trkpt>
      <trkpt lat="49.96542" lon="2.13479">
        <ele>35.4</ele>
        <time>2024-04-17T14:08:35Z</time>
      </trkpt>
      <trkpt lat="49.96543" lon="2.13479">
        <ele>35.4</ele>
        <time>2024-04-17T14:08:36Z</time>
      </trkpt>
      <trkpt lat="49.96544" lon="2.1348">
        <ele>35.5</ele>
        <time>2024-04-17T14:08:37Z</time>
      </trkpt>
      <trkpt lat="49.96546" lon="2.13481">
        <ele>35.5</ele>
        <time>2024-04-17T14:08:38Z</time>
      </trkpt>
      <trkpt lat="49.96546" lon="2.13482">
        <ele>35.6</ele>
        <time>2024-04-17T14:08:39Z</time>
      </trkpt>
      <trkpt lat="49.96547" lon="2.13482">
        <ele>35.6</ele>
        <time>2024-04-17T14:08:40Z</time>
      </trkpt>
      <trkpt lat="49.96549" lon="2.13483">
        <ele>35.7</ele>
        <time>2024-04-17T14:08:41Z</time>
      </trkpt>
      <trkpt lat="49.9655" lon="2.13484">
        <ele>35.8</ele>
        <time>2024-04-17T14:08:42Z</time>
      </trkpt>
      <trkpt lat="49.96551" lon="2.13484">
        <ele>35.8</ele>
        <time>2024-04-17T14:08:43Z</time>
      </trkpt>
      <trkpt lat="49.96552" lon="2.13485">
        <ele>35.8</ele>
        <time>2024-04-17T14:08:44Z</time>
      </trkpt>
      <trkpt lat="49.96552" lon="2.13485">
        <ele>35.9</ele>
        <time>2024-04-17T14:08:45Z</time>
      </trkpt>
      <trkpt lat="49.96553" lon="2.13486">
        <ele>35.9</ele>
        <time>2024-04-17T14:08:46Z</time>
      </trkpt>
      <trkpt lat="49.96554" lon="2.13487">
        <ele>36</ele>
        <time>2024-04-17T14:08:47Z</time>
      </trkpt>
      <trkpt lat="49.96555" lon="2.13487">
        <ele>36</ele>
        <time>2024-04-17T14:08:48Z</time>
      </trkpt>
      <trkpt lat="49.96556" lon="2.13488">
        <ele>36.1</ele>
        <time>2024-04-17T14:08:49Z</time>
      </trkpt>
      <trkpt lat="49.96557" lon="2.13489">
        <ele>36.1</ele>
        <time>2024-04-17T14:08:50Z</time>
      </trkpt>
      <trkpt lat="49.96557" lon="2.13489">
        <ele>36.2</ele>
        <time>2024-04-17T14:08:51Z</time>
      </trkpt>
      <trkpt lat="49.96558" lon="2.1349">
        <ele>36.2</ele>
        <time>2024-04-17T14:08:52Z</time>
      </trkpt>
      <trkpt lat="49.96559" lon="2.1349">
        <ele>36.3</ele>
        <time>2024-04-17T14:08:53Z</time>
      </trkpt>
      <trkpt lat="49.96559" lon="2.13491">
        <ele>36.3</ele>
        <time>2024-04-17T14:08:54Z</time>
      </trkpt>
      <trkpt lat="49.9656" lon="2.13492">
        <ele>36.3</ele>
        <time>2024-04-17T14:08:55Z</time>
      </trkpt>
      <trkpt lat="49.96561" lon="2.13493">
        <ele>36.4</ele>
        <time>2024-04-17T14:08:56Z</time>
      </trkpt>
      <trkpt lat="49.96561" lon="2.13493">
        <ele>36.4</ele>
        <time>2024-04-17T14:08:57Z</time>
      </trkpt>
      <trkpt lat="49.96562" lon="2.13494">
        <ele>36.5</ele>
        <time>2024-04-17T14:08:58Z</time>
      </trkpt>
      <trkpt lat="49.96563" lon="2.13495">
        <ele>36.5</ele>
        <time>2024-04-17T14:08:59Z</time>
      </trkpt>
      <trkpt lat="49.96564" lon="2.13495">
        <ele>36.6</ele>
        <time>2024-04-17T14:09:00Z</time>
      </trkpt>
      <trkpt lat="49.96564" lon="2.13496">
        <ele>36.6</ele>
        <time>2024-04-17T14:09:01Z</time>
      </trkpt>
      <trkpt lat="49.96565" lon="2.13497">
        <ele>36.7</ele>
        <time>2024-04-17T14:09:02Z</time>
      </trkpt>
      <trkpt lat="49.96566" lon="2.13497">
        <ele>36.7</ele>
        <time>2024-04-17T14:09:03Z</time>
      </trkpt>
      <trkpt lat="49.96567" lon="2.13498">
        <ele>36.7</ele>
        <time>2024-04-17T14:09:04Z</time>
      </trkpt>
      <trkpt lat="49.96568" lon="2.13498">
        <ele>36.8</ele>
        <time>2024-04-17T14:09:05Z</time>
      </trkpt>
      <trkpt lat="49.96569" lon="2.13498">
        <ele>36.8</ele>
        <time>2024-04-17T14:09:06Z</time>
      </trkpt>
      <trkpt lat="49.96569" lon="2.13498">
        <ele>36.9</ele>
        <time>2024-04-17T14:09:07Z</time>
      </trkpt>
      <trkpt lat="49.9657" lon="2.13499">
        <ele>36.9</ele>
        <time>2024-04-17T14:09:08Z</time>
      </trkpt>
      <trkpt lat="49.96571" lon="2.135">
        <ele>37</ele>
        <time>2024-04-17T14:09:09Z</time>
      </trkpt>
      <trkpt lat="49.96571" lon="2.13501">
        <ele>37</ele>
        <time>2024-04-17T14:09:10Z</time>
      </trkpt>
      <trkpt lat="49.96572" lon="2.13502">
        <ele>37.1</ele>
        <time>2024-04-17T14:09:11Z</time>
      </trkpt>
      <trkpt lat="49.96573" lon="2.13503">
        <ele>37.1</ele>
        <time>2024-04-17T14:09:12Z</time>
      </trkpt>
      <trkpt lat="49.96573" lon="2.13504">
        <ele>37.2</ele>
        <time>2024-04-17T14:09:13Z</time>
      </trkpt>
      <trkpt lat="49.96574" lon="2.13505">
        <ele>37.2</ele>
        <time>2024-04-17T14:09:14Z</time>
      </trkpt>
      <trkpt lat="49.96575" lon="2.13506">
        <ele>37.3</ele>
        <time>2024-04-17T14:09:15Z</time>
      </trkpt>
      <trkpt lat="49.96577" lon="2.13508">
        <ele>37.4</ele>
        <time>2024-04-17T14:09:16Z</time>
      </trkpt>
      <trkpt lat="49.96577" lon="2.13509">
        <ele>37.4</ele>
        <time>2024-04-17T14:09:17Z</time>
      </trkpt>
      <trkpt lat="49.96578" lon="2.1351">
        <ele>37.4</ele>
        <time>2024-04-17T14:09:18Z</time>
      </trkpt>
      <trkpt lat="49.96579" lon="2.13511">
        <ele>37.5</ele>
        <time>2024-04-17T14:09:19Z</time>
      </trkpt>
      <trkpt lat="49.96579" lon="2.13512">
        <ele>37.5</ele>
        <time>2024-04-17T14:09:20Z</time>
      </trkpt>
      <trkpt lat="49.9658" lon="2.13513">
        <ele>37.6</ele>
        <time>2024-04-17T14:09:21Z</time>
      </trkpt>
      <trkpt lat="49.96581" lon="2.13514">
        <ele>37.7</ele>
        <time>2024-04-17T14:09:22Z</time>
      </trkpt>
      <trkpt lat="49.96581" lon="2.13515">
        <ele>37.7</ele>
        <time>2024-04-17T14:09:23Z</time>
      </trkpt>
      <trkpt lat="49.96582" lon="2.13515">
        <ele>37.8</ele>
        <time>2024-04-17T14:09:24Z</time>
      </trkpt>
      <trkpt lat="49.96582" lon="2.13516">
        <ele>37.9</ele>
        <time>2024-04-17T14:09:25Z</time>
      </trkpt>
      <trkpt lat="49.96583" lon="2.13518">
        <ele>37.9</ele>
        <time>2024-04-17T14:09:26Z</time>
      </trkpt>
      <trkpt lat="49.96584" lon="2.13519">
        <ele>38</ele>
        <time>2024-04-17T14:09:27Z</time>
      </trkpt>
      <trkpt lat="49.96584" lon="2.1352">
        <ele>38.1</ele>
        <time>2024-04-17T14:09:28Z</time>
      </trkpt>
      <trkpt lat="49.96585" lon="2.13521">
        <ele>38.1</ele>
        <time>2024-04-17T14:09:29Z</time>
      </trkpt>
      <trkpt lat="49.96585" lon="2.13522">
        <ele>38.2</ele>
        <time>2024-04-17T14:09:30Z</time>
      </trkpt>
      <trkpt lat="49.96586" lon="2.13522">
        <ele>38.3</ele>
        <time>2024-04-17T14:09:31Z</time>
      </trkpt>
      <trkpt lat="49.96587" lon="2.13523">
        <ele>38.4</ele>
        <time>2024-04-17T14:09:32Z</time>
      </trkpt>
      <trkpt lat="49.96588" lon="2.13524">
        <ele>38.4</ele>
        <time>2024-04-17T14:09:33Z</time>
      </trkpt>
      <trkpt lat="49.96589" lon="2.13524">
        <ele>38.5</ele>
        <time>2024-04-17T14:09:34Z</time>
      </trkpt>
      <trkpt lat="49.96589" lon="2.13525">
        <ele>38.6</ele>
        <time>2024-04-17T14:09:35Z</time>
      </trkpt>
      <trkpt lat="49.9659" lon="2.13526">
        <ele>38.6</ele>
        <time>2024-04-17T14:09:36Z</time>
      </trkpt>
      <trkpt lat="49.96591" lon="2.13526">
        <ele>38.7</ele>
        <time>2024-04-17T14:09:37Z</time>
      </trkpt>
      <trkpt lat="49.96592" lon="2.13527">
        <ele>38.8</ele>
        <time>2024-04-17T14:09:38Z</time>
      </trkpt>
      <trkpt lat="49.96593" lon="2.13527">
        <ele>38.9</ele>
        <time>2024-04-17T14:09:39Z</time>
      </trkpt>
      <trkpt lat="49.96594" lon="2.13528">
        <ele>38.9</ele>
        <time>2024-04-17T14:09:40Z</time>
      </trkpt>
      <trkpt lat="49.96595" lon="2.13528">
        <ele>39</ele>
        <time>2024-04-17T14:09:41Z</time>
      </trkpt>
      <trkpt lat="49.96595" lon="2.13529">
        <ele>39.1</ele>
        <time>2024-04-17T14:09:42Z</time>
      </trkpt>
      <trkpt lat="49.96596" lon="2.13529">
        <ele>39.1</ele>
        <time>2024-04-17T14:09:43Z</time>
      </trkpt>
      <trkpt lat="49.96597" lon="2.13529">
        <ele>39.2</ele>
        <time>2024-04-17T14:09:44Z</time>
      </trkpt>
      <trkpt lat="49.96598" lon="2.1353">
        <ele>39.2</ele>
        <time>2024-04-17T14:09:45Z</time>
      </trkpt>
      <trkpt lat="49.96598" lon="2.1353">
        <ele>39.3</ele>
        <time>2024-04-17T14:09:46Z</time>
      </trkpt>
      <trkpt lat="49.96599" lon="2.13531">
        <ele>39.4</ele>
        <time>2024-04-17T14:09:47Z</time>
      </trkpt>
      <trkpt lat="49.966" lon="2.13532">
        <ele>39.4</ele>
        <time>2024-04-17T14:09:48Z</time>
      </trkpt>
      <trkpt lat="49.96601" lon="2.13532">
        <ele>39.5</ele>
        <time>2024-04-17T14:09:49Z</time>
      </trkpt>
      <trkpt lat="49.96602" lon="2.13533">
        <ele>39.6</ele>
        <time>2024-04-17T14:09:50Z</time>
      </trkpt>
      <trkpt lat="49.96602" lon="2.13533">
        <ele>39.6</ele>
        <time>2024-04-17T14:09:51Z</time>
      </trkpt>
      <trkpt lat="49.96603" lon="2.13533">
        <ele>39.6</ele>
        <time>2024-04-17T14:09:52Z</time>
      </trkpt>
      <trkpt lat="49.96604" lon="2.13533">
        <ele>39.7</ele>
        <time>2024-04-17T14:09:53Z</time>
      </trkpt>
      <trkpt lat="49.96605" lon="2.13534">
        <ele>39.8</ele>
        <time>2024-04-17T14:09:54Z</time>
      </trkpt>
      <trkpt lat="49.96606" lon="2.13534">
        <ele>39.8</ele>
        <time>2024-04-17T14:09:55Z</time>
      </trkpt>
      <trkpt lat="49.96607" lon="2.13534">
        <ele>39.9</ele>
        <time>2024-04-17T14:09:56Z</time>
      </trkpt>
      <trkpt lat="49.96608" lon="2.13534">
        <ele>40</ele>
        <time>2024-04-17T14:09:57Z</time>
      </trkpt>
      <trkpt lat="49.96609" lon="2.13535">
        <ele>40</ele>
        <time>2024-04-17T14:09:58Z</time>
      </trkpt>
      <trkpt lat="49.9661" lon="2.13535">
        <ele>40.1</ele>
        <time>2024-04-17T14:09:59Z</time>
      </trkpt>
      <trkpt lat="49.9661" lon="2.13535">
        <ele>40.1</ele>
        <time>2024-04-17T14:10:00Z</time>
      </trkpt>
      <trkpt lat="49.96611" lon="2.13535">
        <ele>40.2</ele>
        <time>2024-04-17T14:10:01Z</time>
      </trkpt>
      <trkpt lat="49.96612" lon="2.13536">
        <ele>40.3</ele>
        <time>2024-04-17T14:10:02Z</time>
      </trkpt>
      <trkpt lat="49.96613" lon="2.13536">
        <ele>40.3</ele>
        <time>2024-04-17T14:10:03Z</time>
      </trkpt>
      <trkpt lat="49.96614" lon="2.13536">
        <ele>40.4</ele>
        <time>2024-04-17T14:10:04Z</time>
      </trkpt>
      <trkpt lat="49.96615" lon="2.13537">
        <ele>40.5</ele>
        <time>2024-04-17T14:10:05Z</time>
      </trkpt>
      <trkpt lat="49.96617" lon="2.13537">
        <ele>40.6</ele>
        <time>2024-04-17T14:10:06Z</time>
      </trkpt>
      <trkpt lat="49.96618" lon="2.13537">
        <ele>40.7</ele>
        <time>2024-04-17T14:10:07Z</time>
      </trkpt>
      <trkpt lat="49.96619" lon="2.13537">
        <ele>40.7</ele>
        <time>2024-04-17T14:10:08Z</time>
      </trkpt>
      <trkpt lat="49.9662" lon="2.13538">
        <ele>40.8</ele>
        <time>2024-04-17T14:10:09Z</time>
      </trkpt>
      <trkpt lat="49.96621" lon="2.13538">
        <ele>40.9</ele>
        <time>2024-04-17T14:10:10Z</time>
      </trkpt>
      <trkpt lat="49.96623" lon="2.13538">
        <ele>41</ele>
        <time>2024-04-17T14:10:11Z</time>
      </trkpt>
      <trkpt lat="49.96625" lon="2.13538">
        <ele>41.1</ele>
        <time>2024-04-17T14:10:12Z</time>
      </trkpt>
      <trkpt lat="49.96625" lon="2.13538">
        <ele>41.1</ele>
        <time>2024-04-17T14:10:13Z</time>
      </trkpt>
      <trkpt lat="49.96626" lon="2.13538">
        <ele>41.2</ele>
        <time>2024-04-17T14:10:14Z</time>
      </trkpt>
      <trkpt lat="49.96627" lon="2.13538">
        <ele>41.3</ele>
        <time>2024-04-17T14:10:15Z</time>
      </trkpt>
      <trkpt lat="49.96629" lon="2.13538">
        <ele>41.4</ele>
        <time>2024-04-17T14:10:16Z</time>
      </trkpt>
      <trkpt lat="49.9663" lon="2.13538">
        <ele>41.4</ele>
        <time>2024-04-17T14:10:17Z</time>
      </trkpt>
      <trkpt lat="49.96631" lon="2.13539">
        <ele>41.5</ele>
        <time>2024-04-17T14:10:18Z</time>
      </trkpt>
      <trkpt lat="49.96632" lon="2.13539">
        <ele>41.6</ele>
        <time>2024-04-17T14:10:19Z</time>
      </trkpt>
      <trkpt lat="49.96633" lon="2.13539">
        <ele>41.6</ele>
        <time>2024-04-17T14:10:20Z</time>
      </trkpt>
      <trkpt lat="49.96634" lon="2.13539">
        <ele>41.7</ele>
        <time>2024-04-17T14:10:21Z</time>
      </trkpt>
      <trkpt lat="49.96635" lon="2.13539">
        <ele>41.8</ele>
        <time>2024-04-17T14:10:22Z</time>
      </trkpt>
      <trkpt lat="49.96636" lon="2.1354">
        <ele>41.8</ele>
        <time>2024-04-17T14:10:23Z</time>
      </trkpt>
      <trkpt lat="49.96637" lon="2.1354">
        <ele>41.9</ele>
        <time>2024-04-17T14:10:24Z</time>
      </trkpt>
      <trkpt lat="49.96638" lon="2.13541">
        <ele>42</ele>
        <time>2024-04-17T14:10:25Z</time>
      </trkpt>
      <trkpt lat="49.96639" lon="2.13541">
        <ele>42</ele>
        <time>2024-04-17T14:10:26Z</time>
      </trkpt>
      <trkpt lat="49.9664" lon="2.13542">
        <ele>42.1</ele>
        <time>2024-04-17T14:10:27Z</time>
      </trkpt>
      <trkpt lat="49.96641" lon="2.13543">
        <ele>42.1</ele>
        <time>2024-04-17T14:10:28Z</time>
      </trkpt>
      <trkpt lat="49.96642" lon="2.13543">
        <ele>42.2</ele>
        <time>2024-04-17T14:10:29Z</time>
      </trkpt>
      <trkpt lat="49.96643" lon="2.13543">
        <ele>42.2</ele>
        <time>2024-04-17T14:10:30Z</time>
      </trkpt>
      <trkpt lat="49.96644" lon="2.13544">
        <ele>42.3</ele>
        <time>2024-04-17T14:10:31Z</time>
      </trkpt>
      <trkpt lat="49.96644" lon="2.13544">
        <ele>42.3</ele>
        <time>2024-04-17T14:10:32Z</time>
      </trkpt>
      <trkpt lat="49.96645" lon="2.13544">
        <ele>42.4</ele>
        <time>2024-04-17T14:10:33Z</time>
      </trkpt>
      <trkpt lat="49.96646" lon="2.13544">
        <ele>42.4</ele>
        <time>2024-04-17T14:10:34Z</time>
      </trkpt>
      <trkpt lat="49.96646" lon="2.13544">
        <ele>42.5</ele>
        <time>2024-04-17T14:10:35Z</time>
      </trkpt>
      <trkpt lat="49.96647" lon="2.13544">
        <ele>42.5</ele>
        <time>2024-04-17T14:10:36Z</time>
      </trkpt>
      <trkpt lat="49.96647" lon="2.13544">
        <ele>42.5</ele>
        <time>2024-04-17T14:10:37Z</time>
      </trkpt>
      <trkpt lat="49.96648" lon="2.13544">
        <ele>42.6</ele>
        <time>2024-04-17T14:10:38Z</time>
      </trkpt>
      <trkpt lat="49.96649" lon="2.13544">
        <ele>42.6</ele>
        <time>2024-04-17T14:10:39Z</time>
      </trkpt>
      <trkpt lat="49.96649" lon="2.13543">
        <ele>42.7</ele>
        <time>2024-04-17T14:10:40Z</time>
      </trkpt>
      <trkpt lat="49.9665" lon="2.13543">
        <ele>42.7</ele>
        <time>2024-04-17T14:10:41Z</time>
      </trkpt>
      <trkpt lat="49.9665" lon="2.13543">
        <ele>42.7</ele>
        <time>2024-04-17T14:10:42Z</time>
      </trkpt>
      <trkpt lat="49.9665" lon="2.13543">
        <ele>42.7</ele>
        <time>2024-04-17T14:10:43Z</time>
      </trkpt>
      <trkpt lat="49.96651" lon="2.13542">
        <ele>42.7</ele>
        <time>2024-04-17T14:10:44Z</time>
      </trkpt>
      <trkpt lat="49.96651" lon="2.13542">
        <ele>42.7</ele>
        <time>2024-04-17T14:10:45Z</time>
      </trkpt>
      <trkpt lat="49.96651" lon="2.13542">
        <ele>42.8</ele>
        <time>2024-04-17T14:10:46Z</time>
      </trkpt>
      <trkpt lat="49.96651" lon="2.13541">
        <ele>42.8</ele>
        <time>2024-04-17T14:10:47Z</time>
      </trkpt>
      <trkpt lat="49.96652" lon="2.1354">
        <ele>42.8</ele>
        <time>2024-04-17T14:10:48Z</time>
      </trkpt>
      <trkpt lat="49.96652" lon="2.13539">
        <ele>42.8</ele>
        <time>2024-04-17T14:10:49Z</time>
      </trkpt>
      <trkpt lat="49.96653" lon="2.13539">
        <ele>42.9</ele>
        <time>2024-04-17T14:10:50Z</time>
      </trkpt>
      <trkpt lat="49.96654" lon="2.13538">
        <ele>42.9</ele>
        <time>2024-04-17T14:10:51Z</time>
      </trkpt>
      <trkpt lat="49.96654" lon="2.13538">
        <ele>42.9</ele>
        <time>2024-04-17T14:10:52Z</time>
      </trkpt>
      <trkpt lat="49.96655" lon="2.13537">
        <ele>42.9</ele>
        <time>2024-04-17T14:10:53Z</time>
      </trkpt>
      <trkpt lat="49.96656" lon="2.13537">
        <ele>43</ele>
        <time>2024-04-17T14:10:54Z</time>
      </trkpt>
      <trkpt lat="49.96656" lon="2.13537">
        <ele>43</ele>
        <time>2024-04-17T14:10:55Z</time>
      </trkpt>
      <trkpt lat="49.96657" lon="2.13536">
        <ele>43</ele>
        <time>2024-04-17T14:10:56Z</time>
      </trkpt>
      <trkpt lat="49.96658" lon="2.13536">
        <ele>43.1</ele>
        <time>2024-04-17T14:10:57Z</time>
      </trkpt>
      <trkpt lat="49.96659" lon="2.13536">
        <ele>43.1</ele>
        <time>2024-04-17T14:10:58Z</time>
      </trkpt>
      <trkpt lat="49.9666" lon="2.13535">
        <ele>43.1</ele>
        <time>2024-04-17T14:10:59Z</time>
      </trkpt>
      <trkpt lat="49.96661" lon="2.13535">
        <ele>43.2</ele>
        <time>2024-04-17T14:11:00Z</time>
      </trkpt>
      <trkpt lat="49.96662" lon="2.13536">
        <ele>43.2</ele>
        <time>2024-04-17T14:11:01Z</time>
      </trkpt>
      <trkpt lat="49.96663" lon="2.13537">
        <ele>43.2</ele>
        <time>2024-04-17T14:11:02Z</time>
      </trkpt>
      <trkpt lat="49.96663" lon="2.13538">
        <ele>43.3</ele>
        <time>2024-04-17T14:11:03Z</time>
      </trkpt>
      <trkpt lat="49.96664" lon="2.13539">
        <ele>43.3</ele>
        <time>2024-04-17T14:11:04Z</time>
      </trkpt>
      <trkpt lat="49.96665" lon="2.13539">
        <ele>43.4</ele>
        <time>2024-04-17T14:11:05Z</time>
      </trkpt>
      <trkpt lat="49.96666" lon="2.1354">
        <ele>43.4</ele>
        <time>2024-04-17T14:11:06Z</time>
      </trkpt>
      <trkpt lat="49.96667" lon="2.1354">
        <ele>43.5</ele>
        <time>2024-04-17T14:11:07Z</time>
      </trkpt>
      <trkpt lat="49.96669" lon="2.13541">
        <ele>43.6</ele>
        <time>2024-04-17T14:11:08Z</time>
      </trkpt>
      <trkpt lat="49.9667" lon="2.13541">
        <ele>43.6</ele>
        <time>2024-04-17T14:11:09Z</time>
      </trkpt>
      <trkpt lat="49.96671" lon="2.13542">
        <ele>43.7</ele>
        <time>2024-04-17T14:11:10Z</time>
      </trkpt>
      <trkpt lat="49.96672" lon="2.13542">
        <ele>43.7</ele>
        <time>2024-04-17T14:11:11Z</time>
      </trkpt>
      <trkpt lat="49.96673" lon="2.13542">
        <ele>43.8</ele>
        <time>2024-04-17T14:11:12Z</time>
      </trkpt>
      <trkpt lat="49.96674" lon="2.13542">
        <ele>43.8</ele>
        <time>2024-04-17T14:11:13Z</time>
      </trkpt>
      <trkpt lat="49.96675" lon="2.13542">
        <ele>43.9</ele>
        <time>2024-04-17T14:11:14Z</time>
      </trkpt>
      <trkpt lat="49.96676" lon="2.13543">
        <ele>43.9</ele>
        <time>2024-04-17T14:11:15Z</time>
      </trkpt>
      <trkpt lat="49.96677" lon="2.13543">
        <ele>43.9</ele>
        <time>2024-04-17T14:11:16Z</time>
      </trkpt>
      <trkpt lat="49.96678" lon="2.13543">
        <ele>43.9</ele>
        <time>2024-04-17T14:11:17Z</time>
      </trkpt>
      <trkpt lat="49.96678" lon="2.13543">
        <ele>43.9</ele>
        <time>2024-04-17T14:11:18Z</time>
      </trkpt>
      <trkpt lat="49.96679" lon="2.13544">
        <ele>44</ele>
        <time>2024-04-17T14:11:19Z</time>
      </trkpt>
      <trkpt lat="49.9668" lon="2.13545">
        <ele>44</ele>
        <time>2024-04-17T14:11:20Z</time>
      </trkpt>
      <trkpt lat="49.9668" lon="2.13545">
        <ele>44</ele>
        <time>2024-04-17T14:11:21Z</time>
      </trkpt>
      <trkpt lat="49.96681" lon="2.13546">
        <ele>44</ele>
        <time>2024-04-17T14:11:22Z</time>
      </trkpt>
      <trkpt lat="49.96682" lon="2.13547">
        <ele>44</ele>
        <time>2024-04-17T14:11:23Z</time>
      </trkpt>
      <trkpt lat="49.96683" lon="2.13548">
        <ele>44.1</ele>
        <time>2024-04-17T14:11:24Z</time>
      </trkpt>
      <trkpt lat="49.96684" lon="2.13548">
        <ele>44.1</ele>
        <time>2024-04-17T14:11:25Z</time>
      </trkpt>
      <trkpt lat="49.96684" lon="2.13549">
        <ele>44.1</ele>
        <time>2024-04-17T14:11:26Z</time>
      </trkpt>
      <trkpt lat="49.96685" lon="2.1355">
        <ele>44.1</ele>
        <time>2024-04-17T14:11:27Z</time>
      </trkpt>
      <trkpt lat="49.96686" lon="2.1355">
        <ele>44.1</ele>
        <time>2024-04-17T14:11:28Z</time>
      </trkpt>
      <trkpt lat="49.96687" lon="2.13551">
        <ele>44.2</ele>
        <time>2024-04-17T14:11:29Z</time>
      </trkpt>
      <trkpt lat="49.96688" lon="2.13552">
        <ele>44.2</ele>
        <time>2024-04-17T14:11:30Z</time>
      </trkpt>
      <trkpt lat="49.96688" lon="2.13552">
        <ele>44.2</ele>
        <time>2024-04-17T14:11:31Z</time>
      </trkpt>
      <trkpt lat="49.96689" lon="2.13553">
        <ele>44.2</ele>
        <time>2024-04-17T14:11:32Z</time>
      </trkpt>
      <trkpt lat="49.9669" lon="2.13553">
        <ele>44.3</ele>
        <time>2024-04-17T14:11:33Z</time>
      </trkpt>
      <trkpt lat="49.96691" lon="2.13553">
        <ele>44.3</ele>
        <time>2024-04-17T14:11:34Z</time>
      </trkpt>
      <trkpt lat="49.96692" lon="2.13553">
        <ele>44.3</ele>
        <time>2024-04-17T14:11:35Z</time>
      </trkpt>
      <trkpt lat="49.96693" lon="2.13554">
        <ele>44.3</ele>
        <time>2024-04-17T14:11:36Z</time>
      </trkpt>
      <trkpt lat="49.96694" lon="2.13554">
        <ele>44.3</ele>
        <time>2024-04-17T14:11:37Z</time>
      </trkpt>
      <trkpt lat="49.96695" lon="2.13553">
        <ele>44.4</ele>
        <time>2024-04-17T14:11:38Z</time>
      </trkpt>
      <trkpt lat="49.96695" lon="2.13554">
        <ele>44.4</ele>
        <time>2024-04-17T14:11:39Z</time>
      </trkpt>
      <trkpt lat="49.96696" lon="2.13554">
        <ele>44.4</ele>
        <time>2024-04-17T14:11:40Z</time>
      </trkpt>
      <trkpt lat="49.96697" lon="2.13554">
        <ele>44.4</ele>
        <time>2024-04-17T14:11:41Z</time>
      </trkpt>
      <trkpt lat="49.96698" lon="2.13555">
        <ele>44.5</ele>
        <time>2024-04-17T14:11:42Z</time>
      </trkpt>
      <trkpt lat="49.967" lon="2.13555">
        <ele>44.5</ele>
        <time>2024-04-17T14:11:43Z</time>
      </trkpt>
      <trkpt lat="49.967" lon="2.13555">
        <ele>44.5</ele>
        <time>2024-04-17T14:11:44Z</time>
      </trkpt>
      <trkpt lat="49.96701" lon="2.13555">
        <ele>44.5</ele>
        <time>2024-04-17T14:11:45Z</time>
      </trkpt>
      <trkpt lat="49.96702" lon="2.13555">
        <ele>44.5</ele>
        <time>2024-04-17T14:11:46Z</time>
      </trkpt>
      <trkpt lat="49.96702" lon="2.13555">
        <ele>44.6</ele>
        <time>2024-04-17T14:11:47Z</time>
      </trkpt>
      <trkpt lat="49.96703" lon="2.13556">
        <ele>44.6</ele>
        <time>2024-04-17T14:11:48Z</time>
      </trkpt>
      <trkpt lat="49.96704" lon="2.13556">
        <ele>44.6</ele>
        <time>2024-04-17T14:11:49Z</time>
      </trkpt>
      <trkpt lat="49.96705" lon="2.13556">
        <ele>44.6</ele>
        <time>2024-04-17T14:11:50Z</time>
      </trkpt>
      <trkpt lat="49.96706" lon="2.13557">
        <ele>44.7</ele>
        <time>2024-04-17T14:11:51Z</time>
      </trkpt>
      <trkpt lat="49.96707" lon="2.13557">
        <ele>44.7</ele>
        <time>2024-04-17T14:11:52Z</time>
      </trkpt>
      <trkpt lat="49.96707" lon="2.13558">
        <ele>44.7</ele>
        <time>2024-04-17T14:11:53Z</time>
      </trkpt>
      <trkpt lat="49.96708" lon="2.13559">
        <ele>44.7</ele>
        <time>2024-04-17T14:11:54Z</time>
      </trkpt>
      <trkpt lat="49.96709" lon="2.1356">
        <ele>44.7</ele>
        <time>2024-04-17T14:11:55Z</time>
      </trkpt>
      <trkpt lat="49.96709" lon="2.1356">
        <ele>44.8</ele>
        <time>2024-04-17T14:11:56Z</time>
      </trkpt>
      <trkpt lat="49.9671" lon="2.13561">
        <ele>44.8</ele>
        <time>2024-04-17T14:11:57Z</time>
      </trkpt>
      <trkpt lat="49.9671" lon="2.13561">
        <ele>44.8</ele>
        <time>2024-04-17T14:11:58Z</time>
      </trkpt>
      <trkpt lat="49.96711" lon="2.13562">
        <ele>44.8</ele>
        <time>2024-04-17T14:11:59Z</time>
      </trkpt>
      <trkpt lat="49.96711" lon="2.13563">
        <ele>44.8</ele>
        <time>2024-04-17T14:12:00Z</time>
      </trkpt>
      <trkpt lat="49.96711" lon="2.13564">
        <ele>44.8</ele>
        <time>2024-04-17T14:12:01Z</time>
      </trkpt>
      <trkpt lat="49.96712" lon="2.13564">
        <ele>44.8</ele>
        <time>2024-04-17T14:12:02Z</time>
      </trkpt>
      <trkpt lat="49.96712" lon="2.13565">
        <ele>44.9</ele>
        <time>2024-04-17T14:12:03Z</time>
      </trkpt>
      <trkpt lat="49.96713" lon="2.13566">
        <ele>44.9</ele>
        <time>2024-04-17T14:12:04Z</time>
      </trkpt>
      <trkpt lat="49.96714" lon="2.13567">
        <ele>44.9</ele>
        <time>2024-04-17T14:12:05Z</time>
      </trkpt>
      <trkpt lat="49.96714" lon="2.13567">
        <ele>44.9</ele>
        <time>2024-04-17T14:12:06Z</time>
      </trkpt>
      <trkpt lat="49.96715" lon="2.13568">
        <ele>44.9</ele>
        <time>2024-04-17T14:12:07Z</time>
      </trkpt>
      <trkpt lat="49.96715" lon="2.13569">
        <ele>44.9</ele>
        <time>2024-04-17T14:12:08Z</time>
      </trkpt>
      <trkpt lat="49.96716" lon="2.1357">
        <ele>45</ele>
        <time>2024-04-17T14:12:09Z</time>
      </trkpt>
      <trkpt lat="49.96716" lon="2.13571">
        <ele>45</ele>
        <time>2024-04-17T14:12:10Z</time>
      </trkpt>
      <trkpt lat="49.96716" lon="2.13572">
        <ele>45</ele>
        <time>2024-04-17T14:12:11Z</time>
      </trkpt>
      <trkpt lat="49.96717" lon="2.13573">
        <ele>45</ele>
        <time>2024-04-17T14:12:12Z</time>
      </trkpt>
      <trkpt lat="49.96718" lon="2.13574">
        <ele>45</ele>
        <time>2024-04-17T14:12:13Z</time>
      </trkpt>
      <trkpt lat="49.96718" lon="2.13575">
        <ele>45.1</ele>
        <time>2024-04-17T14:12:14Z</time>
      </trkpt>
      <trkpt lat="49.96719" lon="2.13576">
        <ele>45.1</ele>
        <time>2024-04-17T14:12:15Z</time>
      </trkpt>
      <trkpt lat="49.96719" lon="2.13577">
        <ele>45.1</ele>
        <time>2024-04-17T14:12:16Z</time>
      </trkpt>
      <trkpt lat="49.9672" lon="2.13578">
        <ele>45.1</ele>
        <time>2024-04-17T14:12:17Z</time>
      </trkpt>
      <trkpt lat="49.96721" lon="2.13578">
        <ele>45.1</ele>
        <time>2024-04-17T14:12:18Z</time>
      </trkpt>
      <trkpt lat="49.96722" lon="2.13579">
        <ele>45.2</ele>
        <time>2024-04-17T14:12:19Z</time>
      </trkpt>
      <trkpt lat="49.96723" lon="2.13578">
        <ele>45.2</ele>
        <time>2024-04-17T14:12:20Z</time>
      </trkpt>
      <trkpt lat="49.96723" lon="2.13577">
        <ele>45.2</ele>
        <time>2024-04-17T14:12:21Z</time>
      </trkpt>
      <trkpt lat="49.96723" lon="2.13576">
        <ele>45.2</ele>
        <time>2024-04-17T14:12:22Z</time>
      </trkpt>
      <trkpt lat="49.96723" lon="2.13575">
        <ele>45.2</ele>
        <time>2024-04-17T14:12:23Z</time>
      </trkpt>
      <trkpt lat="49.96723" lon="2.13575">
        <ele>45.2</ele>
        <time>2024-04-17T14:12:24Z</time>
      </trkpt>
      <trkpt lat="49.96723" lon="2.13575">
        <ele>45.2</ele>
        <time>2024-04-17T14:12:25Z</time>
      </trkpt>
      <trkpt lat="49.96723" lon="2.13574">
        <ele>45.2</ele>
        <time>2024-04-17T14:12:26Z</time>
      </trkpt>
      <trkpt lat="49.96723" lon="2.13574">
        <ele>45.2</ele>
        <time>2024-04-17T14:12:27Z</time>
      </trkpt>
      <trkpt lat="49.96723" lon="2.13574">
        <ele>45.2</ele>
        <time>2024-04-17T14:12:28Z</time>
      </trkpt>
      <trkpt lat="49.96723" lon="2.13574">
        <ele>45.2</ele>
        <time>2024-04-17T14:12:29Z</time>
      </trkpt>
      <trkpt lat="49.96723" lon="2.13574">
        <ele>45.2</ele>
        <time>2024-04-17T14:12:30Z</time>
      </trkpt>
      <trkpt lat="49.96723" lon="2.13574">
        <ele>45.2</ele>
        <time>2024-04-17T14:12:31Z</time>
      </trkpt>
      <trkpt lat="49.96723" lon="2.13574">
        <ele>45.2</ele>
        <time>2024-04-17T14:12:32Z</time>
      </trkpt>
      <trkpt lat="49.96723" lon="2.13574">
        <ele>45.2</ele>
        <time>2024-04-17T14:12:33Z</time>
      </trkpt>
      <trkpt lat="49.96723" lon="2.13574">
        <ele>45.2</ele>
        <time>2024-04-17T14:12:34Z</time>
      </trkpt>
      <trkpt lat="49.96723" lon="2.13574">
        <ele>45.2</ele>
        <time>2024-04-17T14:12:35Z</time>
      </trkpt>
      <trkpt lat="49.96723" lon="2.13574">
        <ele>45.2</ele>
        <time>2024-04-17T14:12:36Z</time>
      </trkpt>
      <trkpt lat="49.96723" lon="2.13574">
        <ele>45.2</ele>
        <time>2024-04-17T14:12:37Z</time>
      </trkpt>
      <trkpt lat="49.96723" lon="2.13574">
        <ele>45.2</ele>
        <time>2024-04-17T14:12:38Z</time>
      </trkpt>
      <trkpt lat="49.96723" lon="2.13574">
        <ele>45.2</ele>
        <time>2024-04-17T14:12:39Z</time>
      </trkpt>
      <trkpt lat="49.96723" lon="2.13574">
        <ele>45.2</ele>
        <time>2024-04-17T14:12:40Z</time>
      </trkpt>
      <trkpt lat="49.96723" lon="2.13574">
        <ele>45.2</ele>
        <time>2024-04-17T14:12:41Z</time>
      </trkpt>
      <trkpt lat="49.96723" lon="2.13574">
        <ele>45.2</ele>
        <time>2024-04-17T14:12:42Z</time>
      </trkpt>
      <trkpt lat="49.96723" lon="2.13574">
        <ele>45.2</ele>
        <time>2024-04-17T14:12:43Z</time>
      </trkpt>
      <trkpt lat="49.96723" lon="2.13574">
        <ele>45.2</ele>
        <time>2024-04-17T14:12:44Z</time>
      </trkpt>
      <trkpt lat="49.96723" lon="2.13574">
        <ele>45.2</ele>
        <time>2024-04-17T14:12:45Z</time>
      </trkpt>
      <trkpt lat="49.96723" lon="2.13574">
        <ele>45.2</ele>
        <time>2024-04-17T14:12:46Z</time>
      </trkpt>
      <trkpt lat="49.96723" lon="2.13574">
        <ele>45.2</ele>
        <time>2024-04-17T14:12:47Z</time>
      </trkpt>
      <trkpt lat="49.96723" lon="2.13574">
        <ele>45.2</ele>
        <time>2024-04-17T14:12:48Z</time>
      </trkpt>
      <trkpt lat="49.96723" lon="2.13574">
        <ele>45.2</ele>
        <time>2024-04-17T14:12:49Z</time>
      </trkpt>
      <trkpt lat="49.96723" lon="2.13574">
        <ele>45.2</ele>
        <time>2024-04-17T14:12:50Z</time>
      </trkpt>
      <trkpt lat="49.96723" lon="2.13574">
        <ele>45.2</ele>
        <time>2024-04-17T14:12:51Z</time>
      </trkpt>
      <trkpt lat="49.96723" lon="2.13574">
        <ele>45.2</ele>
        <time>2024-04-17T14:12:52Z</time>
      </trkpt>
      <trkpt lat="49.96723" lon="2.13574">
        <ele>45.2</ele>
        <time>2024-04-17T14:12:53Z</time>
      </trkpt>
      <trkpt lat="49.96723" lon="2.13574">
        <ele>45.2</ele>
        <time>2024-04-17T14:12:54Z</time>
      </trkpt>
      <trkpt lat="49.96723" lon="2.13574">
        <ele>45.2</ele>
        <time>2024-04-17T14:12:55Z</time>
      </trkpt>
      <trkpt lat="49.96723" lon="2.13574">
        <ele>45.2</ele>
        <time>2024-04-17T14:12:56Z</time>
      </trkpt>
      <trkpt lat="49.96723" lon="2.13574">
        <ele>45.2</ele>
        <time>2024-04-17T14:12:57Z</time>
      </trkpt>
      <trkpt lat="49.96723" lon="2.13574">
        <ele>45.2</ele>
        <time>2024-04-17T14:12:58Z</time>
      </trkpt>
      <trkpt lat="49.96723" lon="2.13574">
        <ele>45.2</ele>
        <time>2024-04-17T14:12:59Z</time>
      </trkpt>
      <trkpt lat="49.96723" lon="2.13574">
        <ele>45.2</ele>
        <time>2024-04-17T14:13:00Z</time>
      </trkpt>
      <trkpt lat="49.96723" lon="2.13574">
        <ele>45.2</ele>
        <time>2024-04-17T14:13:01Z</time>
      </trkpt>
      <trkpt lat="49.96723" lon="2.13574">
        <ele>45.2</ele>
        <time>2024-04-17T14:13:02Z</time>
      </trkpt>
      <trkpt lat="49.96723" lon="2.13574">
        <ele>45.2</ele>
        <time>2024-04-17T14:13:03Z</time>
      </trkpt>
      <trkpt lat="49.96723" lon="2.13574">
        <ele>45.2</ele>
        <time>2024-04-17T14:13:04Z</time>
      </trkpt>
      <trkpt lat="49.96723" lon="2.13574">
        <ele>45.2</ele>
        <time>2024-04-17T14:13:05Z</time>
      </trkpt>
      <trkpt lat="49.96723" lon="2.13574">
        <ele>45.2</ele>
        <time>2024-04-17T14:13:06Z</time>
      </trkpt>
      <trkpt lat="49.96723" lon="2.13574">
        <ele>45.2</ele>
        <time>2024-04-17T14:13:07Z</time>
      </trkpt>
      <trkpt lat="49.96723" lon="2.13574">
        <ele>45.2</ele>
        <time>2024-04-17T14:13:08Z</time>
      </trkpt>
      <trkpt lat="49.96723" lon="2.13574">
        <ele>45.2</ele>
        <time>2024-04-17T14:13:09Z</time>
      </trkpt>
      <trkpt lat="49.96723" lon="2.13574">
        <ele>45.2</ele>
        <time>2024-04-17T14:13:10Z</time>
      </trkpt>
      <trkpt lat="49.96723" lon="2.13574">
        <ele>45.2</ele>
        <time>2024-04-17T14:13:11Z</time>
      </trkpt>
      <trkpt lat="49.96723" lon="2.13574">
        <ele>45.2</ele>
        <time>2024-04-17T14:13:12Z</time>
      </trkpt>
      <trkpt lat="49.96723" lon="2.13574">
        <ele>45.2</ele>
        <time>2024-04-17T14:13:13Z</time>
      </trkpt>
      <trkpt lat="49.96723" lon="2.13574">
        <ele>45.2</ele>
        <time>2024-04-17T14:13:14Z</time>
      </trkpt>
      <trkpt lat="49.96723" lon="2.13574">
        <ele>45.2</ele>
        <time>2024-04-17T14:13:15Z</time>
      </trkpt>
      <trkpt lat="49.96723" lon="2.13574">
        <ele>45.2</ele>
        <time>2024-04-17T14:13:16Z</time>
      </trkpt>
      <trkpt lat="49.96723" lon="2.13574">
        <ele>45.2</ele>
        <time>2024-04-17T14:13:17Z</time>
      </trkpt>
      <trkpt lat="49.96723" lon="2.13574">
        <ele>45.2</ele>
        <time>2024-04-17T14:13:18Z</time>
      </trkpt>
      <trkpt lat="49.96723" lon="2.13574">
        <ele>45.2</ele>
        <time>2024-04-17T14:13:19Z</time>
      </trkpt>
      <trkpt lat="49.96723" lon="2.13574">
        <ele>45.2</ele>
        <time>2024-04-17T14:13:20Z</time>
      </trkpt>
      <trkpt lat="49.96723" lon="2.13574">
        <ele>45.2</ele>
        <time>2024-04-17T14:13:21Z</time>
      </trkpt>
      <trkpt lat="49.96723" lon="2.13574">
        <ele>45.2</ele>
        <time>2024-04-17T14:13:22Z</time>
      </trkpt>
      <trkpt lat="49.96723" lon="2.13574">
        <ele>45.2</ele>
        <time>2024-04-17T14:13:23Z</time>
      </trkpt>
      <trkpt lat="49.96723" lon="2.13574">
        <ele>45.2</ele>
        <time>2024-04-17T14:13:24Z</time>
      </trkpt>
      <trkpt lat="49.96723" lon="2.13574">
        <ele>45.2</ele>
        <time>2024-04-17T14:13:25Z</time>
      </trkpt>
      <trkpt lat="49.96723" lon="2.13574">
        <ele>45.2</ele>
        <time>2024-04-17T14:13:26Z</time>
      </trkpt>
      <trkpt lat="49.96723" lon="2.13574">
        <ele>45.2</ele>
        <time>2024-04-17T14:13:27Z</time>
      </trkpt>
      <trkpt lat="49.96723" lon="2.13574">
        <ele>45.2</ele>
        <time>2024-04-17T14:13:28Z</time>
      </trkpt>
      <trkpt lat="49.96723" lon="2.13574">
        <ele>45.2</ele>
        <time>2024-04-17T14:13:29Z</time>
      </trkpt>
      <trkpt lat="49.96723" lon="2.13574">
        <ele>45.2</ele>
        <time>2024-04-17T14:13:30Z</time>
      </trkpt>
      <trkpt lat="49.96723" lon="2.13574">
        <ele>45.2</ele>
        <time>2024-04-17T14:13:31Z</time>
      </trkpt>
      <trkpt lat="49.96723" lon="2.13574">
        <ele>45.2</ele>
        <time>2024-04-17T14:13:32Z</time>
      </trkpt>
      <trkpt lat="49.96723" lon="2.13574">
        <ele>45.2</ele>
        <time>2024-04-17T14:13:33Z</time>
      </trkpt>
      <trkpt lat="49.96723" lon="2.13574">
        <ele>45.2</ele>
        <time>2024-04-17T14:13:34Z</time>
      </trkpt>
      <trkpt lat="49.96723" lon="2.13574">
        <ele>45.2</ele>
        <time>2024-04-17T14:13:35Z</time>
      </trkpt>
      <trkpt lat="49.96723" lon="2.13574">
        <ele>45.2</ele>
        <time>2024-04-17T14:13:36Z</time>
      </trkpt>
      <trkpt lat="49.96723" lon="2.13574">
        <ele>45.2</ele>
        <time>2024-04-17T14:13:37Z</time>
      </trkpt>
      <trkpt lat="49.96723" lon="2.13574">
        <ele>45.2</ele>
        <time>2024-04-17T14:13:38Z</time>
      </trkpt>
      <trkpt lat="49.96723" lon="2.13574">
        <ele>45.2</ele>
        <time>2024-04-17T14:13:39Z</time>
      </trkpt>
      <trkpt lat="49.96723" lon="2.13574">
        <ele>45.2</ele>
        <time>2024-04-17T14:13:40Z</time>
      </trkpt>
      <trkpt lat="49.96723" lon="2.13574">
        <ele>45.2</ele>
        <time>2024-04-17T14:13:41Z</time>
      </trkpt>
      <trkpt lat="49.96723" lon="2.13574">
        <ele>45.2</ele>
        <time>2024-04-17T14:13:42Z</time>
      </trkpt>
      <trkpt lat="49.96723" lon="2.13574">
        <ele>45.2</ele>
        <time>2024-04-17T14:13:43Z</time>
      </trkpt>
      <trkpt lat="49.96723" lon="2.13574">
        <ele>45.2</ele>
        <time>2024-04-17T14:13:44Z</time>
      </trkpt>
      <trkpt lat="49.9672" lon="2.13576">
        <ele>45.3</ele>
        <time>2024-04-17T14:13:45Z</time>
      </trkpt>
      <trkpt lat="49.9672" lon="2.13577">
        <ele>45.3</ele>
        <time>2024-04-17T14:13:46Z</time>
      </trkpt>
      <trkpt lat="49.96719" lon="2.13577">
        <ele>45.3</ele>
        <time>2024-04-17T14:13:47Z</time>
      </trkpt>
      <trkpt lat="49.96719" lon="2.13578">
        <ele>45.3</ele>
        <time>2024-04-17T14:13:48Z</time>
      </trkpt>
      <trkpt lat="49.96719" lon="2.13578">
        <ele>45.3</ele>
        <time>2024-04-17T14:13:49Z</time>
      </trkpt>
      <trkpt lat="49.96719" lon="2.13578">
        <ele>45.3</ele>
        <time>2024-04-17T14:13:50Z</time>
      </trkpt>
      <trkpt lat="49.96719" lon="2.13578">
        <ele>45.3</ele>
        <time>2024-04-17T14:13:51Z</time>
      </trkpt>
      <trkpt lat="49.96719" lon="2.13578">
        <ele>45.3</ele>
        <time>2024-04-17T14:13:52Z</time>
      </trkpt>
      <trkpt lat="49.96719" lon="2.13578">
        <ele>45.3</ele>
        <time>2024-04-17T14:13:53Z</time>
      </trkpt>
      <trkpt lat="49.96719" lon="2.13578">
        <ele>45.3</ele>
        <time>2024-04-17T14:13:54Z</time>
      </trkpt>
      <trkpt lat="49.96719" lon="2.13578">
        <ele>45.3</ele>
        <time>2024-04-17T14:13:55Z</time>
      </trkpt>
      <trkpt lat="49.96719" lon="2.13578">
        <ele>45.3</ele>
        <time>2024-04-17T14:13:56Z</time>
      </trkpt>
      <trkpt lat="49.96719" lon="2.13578">
        <ele>45.3</ele>
        <time>2024-04-17T14:13:57Z</time>
      </trkpt>
      <trkpt lat="49.96719" lon="2.13578">
        <ele>45.3</ele>
        <time>2024-04-17T14:13:58Z</time>
      </trkpt>
      <trkpt lat="49.96719" lon="2.13578">
        <ele>45.3</ele>
        <time>2024-04-17T14:13:59Z</time>
      </trkpt>
      <trkpt lat="49.96719" lon="2.13578">
        <ele>45.3</ele>
        <time>2024-04-17T14:14:00Z</time>
      </trkpt>
      <trkpt lat="49.96719" lon="2.13578">
        <ele>45.3</ele>
        <time>2024-04-17T14:14:01Z</time>
      </trkpt>
      <trkpt lat="49.96719" lon="2.13578">
        <ele>45.3</ele>
        <time>2024-04-17T14:14:02Z</time>
      </trkpt>
      <trkpt lat="49.96719" lon="2.13578">
        <ele>45.3</ele>
        <time>2024-04-17T14:14:03Z</time>
      </trkpt>
      <trkpt lat="49.96719" lon="2.13578">
        <ele>45.3</ele>
        <time>2024-04-17T14:14:04Z</time>
      </trkpt>
      <trkpt lat="49.96719" lon="2.13578">
        <ele>45.3</ele>
        <time>2024-04-17T14:14:05Z</time>
      </trkpt>
      <trkpt lat="49.96719" lon="2.13578">
        <ele>45.3</ele>
        <time>2024-04-17T14:14:06Z</time>
      </trkpt>
      <trkpt lat="49.96719" lon="2.13578">
        <ele>45.3</ele>
        <time>2024-04-17T14:14:07Z</time>
      </trkpt>
      <trkpt lat="49.96719" lon="2.13578">
        <ele>45.3</ele>
        <time>2024-04-17T14:14:08Z</time>
      </trkpt>
      <trkpt lat="49.96719" lon="2.13578">
        <ele>45.3</ele>
        <time>2024-04-17T14:14:09Z</time>
      </trkpt>
      <trkpt lat="49.96719" lon="2.13578">
        <ele>45.3</ele>
        <time>2024-04-17T14:14:10Z</time>
      </trkpt>
      <trkpt lat="49.96719" lon="2.13578">
        <ele>45.3</ele>
        <time>2024-04-17T14:14:11Z</time>
      </trkpt>
      <trkpt lat="49.96719" lon="2.13578">
        <ele>45.3</ele>
        <time>2024-04-17T14:14:12Z</time>
      </trkpt>
      <trkpt lat="49.96719" lon="2.13578">
        <ele>45.3</ele>
        <time>2024-04-17T14:14:13Z</time>
      </trkpt>
      <trkpt lat="49.96719" lon="2.13578">
        <ele>45.3</ele>
        <time>2024-04-17T14:14:14Z</time>
      </trkpt>
      <trkpt lat="49.96719" lon="2.13578">
        <ele>45.3</ele>
        <time>2024-04-17T14:14:15Z</time>
      </trkpt>
      <trkpt lat="49.96719" lon="2.13578">
        <ele>45.3</ele>
        <time>2024-04-17T14:14:16Z</time>
      </trkpt>
      <trkpt lat="49.96719" lon="2.13578">
        <ele>45.3</ele>
        <time>2024-04-17T14:14:17Z</time>
      </trkpt>
      <trkpt lat="49.96719" lon="2.13578">
        <ele>45.3</ele>
        <time>2024-04-17T14:14:18Z</time>
      </trkpt>
      <trkpt lat="49.96719" lon="2.13578">
        <ele>45.3</ele>
        <time>2024-04-17T14:14:19Z</time>
      </trkpt>
      <trkpt lat="49.96719" lon="2.13578">
        <ele>45.3</ele>
        <time>2024-04-17T14:14:20Z</time>
      </trkpt>
      <trkpt lat="49.96719" lon="2.13578">
        <ele>45.3</ele>
        <time>2024-04-17T14:14:21Z</time>
      </trkpt>
      <trkpt lat="49.96719" lon="2.13578">
        <ele>45.3</ele>
        <time>2024-04-17T14:14:22Z</time>
      </trkpt>
      <trkpt lat="49.96719" lon="2.13578">
        <ele>45.3</ele>
        <time>2024-04-17T14:14:23Z</time>
      </trkpt>
      <trkpt lat="49.96719" lon="2.13578">
        <ele>45.3</ele>
        <time>2024-04-17T14:14:24Z</time>
      </trkpt>
      <trkpt lat="49.96719" lon="2.13578">
        <ele>45.3</ele>
        <time>2024-04-17T14:14:25Z</time>
      </trkpt>
      <trkpt lat="49.96719" lon="2.13578">
        <ele>45.3</ele>
        <time>2024-04-17T14:14:26Z</time>
      </trkpt>
      <trkpt lat="49.96719" lon="2.13578">
        <ele>45.3</ele>
        <time>2024-04-17T14:14:27Z</time>
      </trkpt>
      <trkpt lat="49.96719" lon="2.13578">
        <ele>45.3</ele>
        <time>2024-04-17T14:14:28Z</time>
      </trkpt>
      <trkpt lat="49.96719" lon="2.13578">
        <ele>45.3</ele>
        <time>2024-04-17T14:14:29Z</time>
      </trkpt>
      <trkpt lat="49.96719" lon="2.13578">
        <ele>45.3</ele>
        <time>2024-04-17T14:14:30Z</time>
      </trkpt>
      <trkpt lat="49.96719" lon="2.13578">
        <ele>45.3</ele>
        <time>2024-04-17T14:14:31Z</time>
      </trkpt>
      <trkpt lat="49.96719" lon="2.13578">
        <ele>45.3</ele>
        <time>2024-04-17T14:14:32Z</time>
      </trkpt>
      <trkpt lat="49.96719" lon="2.13578">
        <ele>45.3</ele>
        <time>2024-04-17T14:14:33Z</time>
      </trkpt>
      <trkpt lat="49.96719" lon="2.13578">
        <ele>45.3</ele>
        <time>2024-04-17T14:14:34Z</time>
      </trkpt>
      <trkpt lat="49.96719" lon="2.13578">
        <ele>45.3</ele>
        <time>2024-04-17T14:14:35Z</time>
      </trkpt>
      <trkpt lat="49.96719" lon="2.13578">
        <ele>45.3</ele>
        <time>2024-04-17T14:14:36Z</time>
      </trkpt>
      <trkpt lat="49.96719" lon="2.13578">
        <ele>45.3</ele>
        <time>2024-04-17T14:14:37Z</time>
      </trkpt>
      <trkpt lat="49.96719" lon="2.13578">
        <ele>45.3</ele>
        <time>2024-04-17T14:14:38Z</time>
      </trkpt>
      <trkpt lat="49.96719" lon="2.13578">
        <ele>45.3</ele>
        <time>2024-04-17T14:14:39Z</time>
      </trkpt>
      <trkpt lat="49.96719" lon="2.13578">
        <ele>45.3</ele>
        <time>2024-04-17T14:14:40Z</time>
      </trkpt>
      <trkpt lat="49.96719" lon="2.13578">
        <ele>45.3</ele>
        <time>2024-04-17T14:14:41Z</time>
      </trkpt>
      <trkpt lat="49.96719" lon="2.13578">
        <ele>45.3</ele>
        <time>2024-04-17T14:14:42Z</time>
      </trkpt>
      <trkpt lat="49.96719" lon="2.13578">
        <ele>45.3</ele>
        <time>2024-04-17T14:14:43Z</time>
      </trkpt>
      <trkpt lat="49.96719" lon="2.13578">
        <ele>45.3</ele>
        <time>2024-04-17T14:14:44Z</time>
      </trkpt>
      <trkpt lat="49.96719" lon="2.13578">
        <ele>45.3</ele>
        <time>2024-04-17T14:14:45Z</time>
      </trkpt>
      <trkpt lat="49.96719" lon="2.13578">
        <ele>45.3</ele>
        <time>2024-04-17T14:14:46Z</time>
      </trkpt>
      <trkpt lat="49.96719" lon="2.13578">
        <ele>45.3</ele>
        <time>2024-04-17T14:14:47Z</time>
      </trkpt>
      <trkpt lat="49.96719" lon="2.13578">
        <ele>45.3</ele>
        <time>2024-04-17T14:14:48Z</time>
      </trkpt>
      <trkpt lat="49.96719" lon="2.13578">
        <ele>45.3</ele>
        <time>2024-04-17T14:14:49Z</time>
      </trkpt>
      <trkpt lat="49.96719" lon="2.13578">
        <ele>45.3</ele>
        <time>2024-04-17T14:14:50Z</time>
      </trkpt>
      <trkpt lat="49.96719" lon="2.13578">
        <ele>45.3</ele>
        <time>2024-04-17T14:14:51Z</time>
      </trkpt>
      <trkpt lat="49.96719" lon="2.13578">
        <ele>45.3</ele>
        <time>2024-04-17T14:14:52Z</time>
      </trkpt>
      <trkpt lat="49.96719" lon="2.13578">
        <ele>45.3</ele>
        <time>2024-04-17T14:14:53Z</time>
      </trkpt>
      <trkpt lat="49.96719" lon="2.13578">
        <ele>45.3</ele>
        <time>2024-04-17T14:14:54Z</time>
      </trkpt>
      <trkpt lat="49.96719" lon="2.13578">
        <ele>45.3</ele>
        <time>2024-04-17T14:14:55Z</time>
      </trkpt>
      <trkpt lat="49.96719" lon="2.13578">
        <ele>45.3</ele>
        <time>2024-04-17T14:14:56Z</time>
      </trkpt>
      <trkpt lat="49.96719" lon="2.13578">
        <ele>45.3</ele>
        <time>2024-04-17T14:14:57Z</time>
      </trkpt>
      <trkpt lat="49.96719" lon="2.13578">
        <ele>45.3</ele>
        <time>2024-04-17T14:14:58Z</time>
      </trkpt>
      <trkpt lat="49.96719" lon="2.13578">
        <ele>45.3</ele>
        <time>2024-04-17T14:14:59Z</time>
      </trkpt>
      <trkpt lat="49.96719" lon="2.13578">
        <ele>45.3</ele>
        <time>2024-04-17T14:15:00Z</time>
      </trkpt>
      <trkpt lat="49.96719" lon="2.13578">
        <ele>45.3</ele>
        <time>2024-04-17T14:15:01Z</time>
      </trkpt>
      <trkpt lat="49.96719" lon="2.13578">
        <ele>45.3</ele>
        <time>2024-04-17T14:15:02Z</time>
      </trkpt>
      <trkpt lat="49.96719" lon="2.13578">
        <ele>45.3</ele>
        <time>2024-04-17T14:15:03Z</time>
      </trkpt>
      <trkpt lat="49.96719" lon="2.13578">
        <ele>45.3</ele>
        <time>2024-04-17T14:15:04Z</time>
      </trkpt>
      <trkpt lat="49.96719" lon="2.13578">
        <ele>45.3</ele>
        <time>2024-04-17T14:15:05Z</time>
      </trkpt>
      <trkpt lat="49.96719" lon="2.13578">
        <ele>45.3</ele>
        <time>2024-04-17T14:15:06Z</time>
      </trkpt>
      <trkpt lat="49.96719" lon="2.13578">
        <ele>45.3</ele>
        <time>2024-04-17T14:15:07Z</time>
      </trkpt>
      <trkpt lat="49.96719" lon="2.13578">
        <ele>45.3</ele>
        <time>2024-04-17T14:15:08Z</time>
      </trkpt>
      <trkpt lat="49.96719" lon="2.13578">
        <ele>45.3</ele>
        <time>2024-04-17T14:15:09Z</time>
      </trkpt>
      <trkpt lat="49.96719" lon="2.13578">
        <ele>45.3</ele>
        <time>2024-04-17T14:15:10Z</time>
      </trkpt>
      <trkpt lat="49.96719" lon="2.13578">
        <ele>45.3</ele>
        <time>2024-04-17T14:15:11Z</time>
      </trkpt>
      <trkpt lat="49.96719" lon="2.13578">
        <ele>45.3</ele>
        <time>2024-04-17T14:15:12Z</time>
      </trkpt>
      <trkpt lat="49.96719" lon="2.13578">
        <ele>45.3</ele>
        <time>2024-04-17T14:15:13Z</time>
      </trkpt>
      <trkpt lat="49.96719" lon="2.13578">
        <ele>45.3</ele>
        <time>2024-04-17T14:15:14Z</time>
      </trkpt>
      <trkpt lat="49.96719" lon="2.13578">
        <ele>45.3</ele>
        <time>2024-04-17T14:15:15Z</time>
      </trkpt>
      <trkpt lat="49.96719" lon="2.13578">
        <ele>45.3</ele>
        <time>2024-04-17T14:15:16Z</time>
      </trkpt>
      <trkpt lat="49.96719" lon="2.13578">
        <ele>45.3</ele>
        <time>2024-04-17T14:15:17Z</time>
      </trkpt>
      <trkpt lat="49.96719" lon="2.13578">
        <ele>45.3</ele>
        <time>2024-04-17T14:15:18Z</time>
      </trkpt>
      <trkpt lat="49.96719" lon="2.13578">
        <ele>45.3</ele>
        <time>2024-04-17T14:15:19Z</time>
      </trkpt>
      <trkpt lat="49.96719" lon="2.13578">
        <ele>45.3</ele>
        <time>2024-04-17T14:15:20Z</time>
      </trkpt>
      <trkpt lat="49.96719" lon="2.13578">
        <ele>45.3</ele>
        <time>2024-04-17T14:15:21Z</time>
      </trkpt>
      <trkpt lat="49.96719" lon="2.13578">
        <ele>45.3</ele>
        <time>2024-04-17T14:15:22Z</time>
      </trkpt>
      <trkpt lat="49.96719" lon="2.13578">
        <ele>45.3</ele>
        <time>2024-04-17T14:15:23Z</time>
      </trkpt>
      <trkpt lat="49.96719" lon="2.13578">
        <ele>45.3</ele>
        <time>2024-04-17T14:15:24Z</time>
      </trkpt>
      <trkpt lat="49.96719" lon="2.13578">
        <ele>45.3</ele>
        <time>2024-04-17T14:15:25Z</time>
      </trkpt>
      <trkpt lat="49.96719" lon="2.13578">
        <ele>45.3</ele>
        <time>2024-04-17T14:15:26Z</time>
      </trkpt>
      <trkpt lat="49.96719" lon="2.13578">
        <ele>45.3</ele>
        <time>2024-04-17T14:15:27Z</time>
      </trkpt>
      <trkpt lat="49.96719" lon="2.13578">
        <ele>45.3</ele>
        <time>2024-04-17T14:15:28Z</time>
      </trkpt>
      <trkpt lat="49.96719" lon="2.13578">
        <ele>45.3</ele>
        <time>2024-04-17T14:15:29Z</time>
      </trkpt>
      <trkpt lat="49.96719" lon="2.13578">
        <ele>45.3</ele>
        <time>2024-04-17T14:15:30Z</time>
      </trkpt>
      <trkpt lat="49.96719" lon="2.13578">
        <ele>45.3</ele>
        <time>2024-04-17T14:15:31Z</time>
      </trkpt>
      <trkpt lat="49.96719" lon="2.13578">
        <ele>45.3</ele>
        <time>2024-04-17T14:15:32Z</time>
      </trkpt>
      <trkpt lat="49.96719" lon="2.13578">
        <ele>45.3</ele>
        <time>2024-04-17T14:15:33Z</time>
      </trkpt>
      <trkpt lat="49.96719" lon="2.13578">
        <ele>45.3</ele>
        <time>2024-04-17T14:15:34Z</time>
      </trkpt>
      <trkpt lat="49.96719" lon="2.13578">
        <ele>45.3</ele>
        <time>2024-04-17T14:15:35Z</time>
      </trkpt>
      <trkpt lat="49.96719" lon="2.13578">
        <ele>45.3</ele>
        <time>2024-04-17T14:15:36Z</time>
      </trkpt>
      <trkpt lat="49.96719" lon="2.13578">
        <ele>45.3</ele>
        <time>2024-04-17T14:15:37Z</time>
      </trkpt>
      <trkpt lat="49.96723" lon="2.13576">
        <ele>45.4</ele>
        <time>2024-04-17T14:15:38Z</time>
      </trkpt>
      <trkpt lat="49.96723" lon="2.13576">
        <ele>45.4</ele>
        <time>2024-04-17T14:15:39Z</time>
      </trkpt>
      <trkpt lat="49.96723" lon="2.13576">
        <ele>45.4</ele>
        <time>2024-04-17T14:15:40Z</time>
      </trkpt>
      <trkpt lat="49.96723" lon="2.13576">
        <ele>45.4</ele>
        <time>2024-04-17T14:15:41Z</time>
      </trkpt>
      <trkpt lat="49.96723" lon="2.13576">
        <ele>45.4</ele>
        <time>2024-04-17T14:15:42Z</time>
      </trkpt>
      <trkpt lat="49.96723" lon="2.13576">
        <ele>45.4</ele>
        <time>2024-04-17T14:15:43Z</time>
      </trkpt>
      <trkpt lat="49.96723" lon="2.13576">
        <ele>45.4</ele>
        <time>2024-04-17T14:15:44Z</time>
      </trkpt>
      <trkpt lat="49.96724" lon="2.13576">
        <ele>45.4</ele>
        <time>2024-04-17T14:15:45Z</time>
      </trkpt>
      <trkpt lat="49.96724" lon="2.13576">
        <ele>45.4</ele>
        <time>2024-04-17T14:15:46Z</time>
      </trkpt>
      <trkpt lat="49.96724" lon="2.13575">
        <ele>45.4</ele>
        <time>2024-04-17T14:15:47Z</time>
      </trkpt>
      <trkpt lat="49.96724" lon="2.13575">
        <ele>45.4</ele>
        <time>2024-04-17T14:15:48Z</time>
      </trkpt>
      <trkpt lat="49.96724" lon="2.13575">
        <ele>45.4</ele>
        <time>2024-04-17T14:15:49Z</time>
      </trkpt>
      <trkpt lat="49.96724" lon="2.13575">
        <ele>45.5</ele>
        <time>2024-04-17T14:15:50Z</time>
      </trkpt>
      <trkpt lat="49.96724" lon="2.13575">
        <ele>45.5</ele>
        <time>2024-04-17T14:15:51Z</time>
      </trkpt>
      <trkpt lat="49.96724" lon="2.13575">
        <ele>45.5</ele>
        <time>2024-04-17T14:15:52Z</time>
      </trkpt>
      <trkpt lat="49.96724" lon="2.13575">
        <ele>45.5</ele>
        <time>2024-04-17T14:15:53Z</time>
      </trkpt>
      <trkpt lat="49.96724" lon="2.13575">
        <ele>45.5</ele>
        <time>2024-04-17T14:15:54Z</time>
      </trkpt>
      <trkpt lat="49.96724" lon="2.13574">
        <ele>45.5</ele>
        <time>2024-04-17T14:15:55Z</time>
      </trkpt>
      <trkpt lat="49.96724" lon="2.13574">
        <ele>45.5</ele>
        <time>2024-04-17T14:15:56Z</time>
      </trkpt>
      <trkpt lat="49.96724" lon="2.13574">
        <ele>45.5</ele>
        <time>2024-04-17T14:15:57Z</time>
      </trkpt>
      <trkpt lat="49.96724" lon="2.13574">
        <ele>45.5</ele>
        <time>2024-04-17T14:15:58Z</time>
      </trkpt>
      <trkpt lat="49.96724" lon="2.13574">
        <ele>45.5</ele>
        <time>2024-04-17T14:15:59Z</time>
      </trkpt>
      <trkpt lat="49.96724" lon="2.13574">
        <ele>45.5</ele>
        <time>2024-04-17T14:16:00Z</time>
      </trkpt>
      <trkpt lat="49.96724" lon="2.13574">
        <ele>45.5</ele>
        <time>2024-04-17T14:16:01Z</time>
      </trkpt>
      <trkpt lat="49.96724" lon="2.13574">
        <ele>45.5</ele>
        <time>2024-04-17T14:16:02Z</time>
      </trkpt>
      <trkpt lat="49.96724" lon="2.13574">
        <ele>45.5</ele>
        <time>2024-04-17T14:16:03Z</time>
      </trkpt>
      <trkpt lat="49.96724" lon="2.13574">
        <ele>45.5</ele>
        <time>2024-04-17T14:16:04Z</time>
      </trkpt>
      <trkpt lat="49.96724" lon="2.13574">
        <ele>45.5</ele>
        <time>2024-04-17T14:16:05Z</time>
      </trkpt>
      <trkpt lat="49.96724" lon="2.13574">
        <ele>45.5</ele>
        <time>2024-04-17T14:16:06Z</time>
      </trkpt>
      <trkpt lat="49.96724" lon="2.13574">
        <ele>45.5</ele>
        <time>2024-04-17T14:16:07Z</time>
      </trkpt>
      <trkpt lat="49.96724" lon="2.13574">
        <ele>45.5</ele>
        <time>2024-04-17T14:16:08Z</time>
      </trkpt>
      <trkpt lat="49.96724" lon="2.13574">
        <ele>45.5</ele>
        <time>2024-04-17T14:16:09Z</time>
      </trkpt>
      <trkpt lat="49.96724" lon="2.13574">
        <ele>45.5</ele>
        <time>2024-04-17T14:16:10Z</time>
      </trkpt>
      <trkpt lat="49.96724" lon="2.13574">
        <ele>45.5</ele>
        <time>2024-04-17T14:16:11Z</time>
      </trkpt>
      <trkpt lat="49.96724" lon="2.13574">
        <ele>45.5</ele>
        <time>2024-04-17T14:16:12Z</time>
      </trkpt>
      <trkpt lat="49.96724" lon="2.13574">
        <ele>45.5</ele>
        <time>2024-04-17T14:16:13Z</time>
      </trkpt>
      <trkpt lat="49.96724" lon="2.13574">
        <ele>45.5</ele>
        <time>2024-04-17T14:16:14Z</time>
      </trkpt>
      <trkpt lat="49.96724" lon="2.13574">
        <ele>45.5</ele>
        <time>2024-04-17T14:16:15Z</time>
      </trkpt>
      <trkpt lat="49.96724" lon="2.13574">
        <ele>45.5</ele>
        <time>2024-04-17T14:16:16Z</time>
      </trkpt>
      <trkpt lat="49.96724" lon="2.13574">
        <ele>45.5</ele>
        <time>2024-04-17T14:16:17Z</time>
      </trkpt>
      <trkpt lat="49.96724" lon="2.13574">
        <ele>45.5</ele>
        <time>2024-04-17T14:16:18Z</time>
      </trkpt>
      <trkpt lat="49.96724" lon="2.13574">
        <ele>45.5</ele>
        <time>2024-04-17T14:16:19Z</time>
      </trkpt>
      <trkpt lat="49.96724" lon="2.13574">
        <ele>45.5</ele>
        <time>2024-04-17T14:16:20Z</time>
      </trkpt>
      <trkpt lat="49.96724" lon="2.13574">
        <ele>45.5</ele>
        <time>2024-04-17T14:16:21Z</time>
      </trkpt>
      <trkpt lat="49.96724" lon="2.13574">
        <ele>45.5</ele>
        <time>2024-04-17T14:16:22Z</time>
      </trkpt>
      <trkpt lat="49.96724" lon="2.13574">
        <ele>45.5</ele>
        <time>2024-04-17T14:16:23Z</time>
      </trkpt>
      <trkpt lat="49.96724" lon="2.13574">
        <ele>45.5</ele>
        <time>2024-04-17T14:16:24Z</time>
      </trkpt>
      <trkpt lat="49.96724" lon="2.13574">
        <ele>45.5</ele>
        <time>2024-04-17T14:16:25Z</time>
      </trkpt>
      <trkpt lat="49.96724" lon="2.13574">
        <ele>45.5</ele>
        <time>2024-04-17T14:16:26Z</time>
      </trkpt>
      <trkpt lat="49.96724" lon="2.13574">
        <ele>45.5</ele>
        <time>2024-04-17T14:16:27Z</time>
      </trkpt>
      <trkpt lat="49.96724" lon="2.13575">
        <ele>45.5</ele>
        <time>2024-04-17T14:16:28Z</time>
      </trkpt>
      <trkpt lat="49.96724" lon="2.13575">
        <ele>45.5</ele>
        <time>2024-04-17T14:16:29Z</time>
      </trkpt>
      <trkpt lat="49.96724" lon="2.13574">
        <ele>45.5</ele>
        <time>2024-04-17T14:16:30Z</time>
      </trkpt>
      <trkpt lat="49.96724" lon="2.13574">
        <ele>45.5</ele>
        <time>2024-04-17T14:16:31Z</time>
      </trkpt>
      <trkpt lat="49.96724" lon="2.13574">
        <ele>45.5</ele>
        <time>2024-04-17T14:16:32Z</time>
      </trkpt>
      <trkpt lat="49.96724" lon="2.13574">
        <ele>45.5</ele>
        <time>2024-04-17T14:16:33Z</time>
      </trkpt>
      <trkpt lat="49.96724" lon="2.13574">
        <ele>45.5</ele>
        <time>2024-04-17T14:16:34Z</time>
      </trkpt>
      <trkpt lat="49.96724" lon="2.13574">
        <ele>45.5</ele>
        <time>2024-04-17T14:16:35Z</time>
      </trkpt>
      <trkpt lat="49.96724" lon="2.13574">
        <ele>45.4</ele>
        <time>2024-04-17T14:16:36Z</time>
      </trkpt>
      <trkpt lat="49.96724" lon="2.13574">
        <ele>45.4</ele>
        <time>2024-04-17T14:16:37Z</time>
      </trkpt>
      <trkpt lat="49.96723" lon="2.13574">
        <ele>45.4</ele>
        <time>2024-04-17T14:16:38Z</time>
      </trkpt>
      <trkpt lat="49.96723" lon="2.13574">
        <ele>45.4</ele>
        <time>2024-04-17T14:16:39Z</time>
      </trkpt>
      <trkpt lat="49.96723" lon="2.13574">
        <ele>45.4</ele>
        <time>2024-04-17T14:16:40Z</time>
      </trkpt>
      <trkpt lat="49.96723" lon="2.13573">
        <ele>45.4</ele>
        <time>2024-04-17T14:16:41Z</time>
      </trkpt>
      <trkpt lat="49.96723" lon="2.13573">
        <ele>45.4</ele>
        <time>2024-04-17T14:16:42Z</time>
      </trkpt>
      <trkpt lat="49.96723" lon="2.13573">
        <ele>45.4</ele>
        <time>2024-04-17T14:16:43Z</time>
      </trkpt>
      <trkpt lat="49.96723" lon="2.13573">
        <ele>45.4</ele>
        <time>2024-04-17T14:16:44Z</time>
      </trkpt>
      <trkpt lat="49.96723" lon="2.13573">
        <ele>45.4</ele>
        <time>2024-04-17T14:16:45Z</time>
      </trkpt>
      <trkpt lat="49.96723" lon="2.13573">
        <ele>45.4</ele>
        <time>2024-04-17T14:16:46Z</time>
      </trkpt>
      <trkpt lat="49.96723" lon="2.13573">
        <ele>45.4</ele>
        <time>2024-04-17T14:16:47Z</time>
      </trkpt>
      <trkpt lat="49.96723" lon="2.13573">
        <ele>45.4</ele>
        <time>2024-04-17T14:16:48Z</time>
      </trkpt>
      <trkpt lat="49.96723" lon="2.13573">
        <ele>45.4</ele>
        <time>2024-04-17T14:16:49Z</time>
      </trkpt>
      <trkpt lat="49.96723" lon="2.13573">
        <ele>45.4</ele>
        <time>2024-04-17T14:16:50Z</time>
      </trkpt>
      <trkpt lat="49.96723" lon="2.13573">
        <ele>45.4</ele>
        <time>2024-04-17T14:16:51Z</time>
      </trkpt>
      <trkpt lat="49.96723" lon="2.13573">
        <ele>45.4</ele>
        <time>2024-04-17T14:16:52Z</time>
      </trkpt>
      <trkpt lat="49.96723" lon="2.13573">
        <ele>45.4</ele>
        <time>2024-04-17T14:16:53Z</time>
      </trkpt>
      <trkpt lat="49.96723" lon="2.13573">
        <ele>45.4</ele>
        <time>2024-04-17T14:16:54Z</time>
      </trkpt>
      <trkpt lat="49.96723" lon="2.13573">
        <ele>45.4</ele>
        <time>2024-04-17T14:16:55Z</time>
      </trkpt>
      <trkpt lat="49.96723" lon="2.13573">
        <ele>45.4</ele>
        <time>2024-04-17T14:16:56Z</time>
      </trkpt>
      <trkpt lat="49.96722" lon="2.13572">
        <ele>45.4</ele>
        <time>2024-04-17T14:16:57Z</time>
      </trkpt>
      <trkpt lat="49.96722" lon="2.13572">
        <ele>45.4</ele>
        <time>2024-04-17T14:16:58Z</time>
      </trkpt>
      <trkpt lat="49.96722" lon="2.13572">
        <ele>45.4</ele>
        <time>2024-04-17T14:16:59Z</time>
      </trkpt>
      <trkpt lat="49.96722" lon="2.13572">
        <ele>45.4</ele>
        <time>2024-04-17T14:17:00Z</time>
      </trkpt>
      <trkpt lat="49.96722" lon="2.13571">
        <ele>45.4</ele>
        <time>2024-04-17T14:17:01Z</time>
      </trkpt>
      <trkpt lat="49.96722" lon="2.13571">
        <ele>45.4</ele>
        <time>2024-04-17T14:17:02Z</time>
      </trkpt>
      <trkpt lat="49.96723" lon="2.13571">
        <ele>45.4</ele>
        <time>2024-04-17T14:17:03Z</time>
      </trkpt>
      <trkpt lat="49.96723" lon="2.13571">
        <ele>45.4</ele>
        <time>2024-04-17T14:17:04Z</time>
      </trkpt>
      <trkpt lat="49.96723" lon="2.13571">
        <ele>45.4</ele>
        <time>2024-04-17T14:17:05Z</time>
      </trkpt>
      <trkpt lat="49.96722" lon="2.13571">
        <ele>45.4</ele>
        <time>2024-04-17T14:17:06Z</time>
      </trkpt>
      <trkpt lat="49.96722" lon="2.13571">
        <ele>45.4</ele>
        <time>2024-04-17T14:17:07Z</time>
      </trkpt>
      <trkpt lat="49.96722" lon="2.13571">
        <ele>45.4</ele>
        <time>2024-04-17T14:17:08Z</time>
      </trkpt>
      <trkpt lat="49.96722" lon="2.13571">
        <ele>45.4</ele>
        <time>2024-04-17T14:17:09Z</time>
      </trkpt>
      <trkpt lat="49.96722" lon="2.13571">
        <ele>45.4</ele>
        <time>2024-04-17T14:17:10Z</time>
      </trkpt>
      <trkpt lat="49.96722" lon="2.13571">
        <ele>45.4</ele>
        <time>2024-04-17T14:17:11Z</time>
      </trkpt>
      <trkpt lat="49.96722" lon="2.13571">
        <ele>45.4</ele>
        <time>2024-04-17T14:17:12Z</time>
      </trkpt>
      <trkpt lat="49.96722" lon="2.13571">
        <ele>45.4</ele>
        <time>2024-04-17T14:17:13Z</time>
      </trkpt>
      <trkpt lat="49.96722" lon="2.13571">
        <ele>45.4</ele>
        <time>2024-04-17T14:17:14Z</time>
      </trkpt>
      <trkpt lat="49.96722" lon="2.13571">
        <ele>45.4</ele>
        <time>2024-04-17T14:17:15Z</time>
      </trkpt>
      <trkpt lat="49.96722" lon="2.13571">
        <ele>45.4</ele>
        <time>2024-04-17T14:17:16Z</time>
      </trkpt>
      <trkpt lat="49.96722" lon="2.13571">
        <ele>45.4</ele>
        <time>2024-04-17T14:17:17Z</time>
      </trkpt>
      <trkpt lat="49.96721" lon="2.13572">
        <ele>45.4</ele>
        <time>2024-04-17T14:17:18Z</time>
      </trkpt>
      <trkpt lat="49.96721" lon="2.13573">
        <ele>45.4</ele>
        <time>2024-04-17T14:17:20Z</time>
      </trkpt>
      <trkpt lat="49.96721" lon="2.13574">
        <ele>45.3</ele>
        <time>2024-04-17T14:17:21Z</time>
      </trkpt>
      <trkpt lat="49.96721" lon="2.13574">
        <ele>45.3</ele>
        <time>2024-04-17T14:17:22Z</time>
      </trkpt>
      <trkpt lat="49.96721" lon="2.13574">
        <ele>45.3</ele>
        <time>2024-04-17T14:17:23Z</time>
      </trkpt>
      <trkpt lat="49.96722" lon="2.13574">
        <ele>45.3</ele>
        <time>2024-04-17T14:17:24Z</time>
      </trkpt>
      <trkpt lat="49.96722" lon="2.13574">
        <ele>45.3</ele>
        <time>2024-04-17T14:17:25Z</time>
      </trkpt>
      <trkpt lat="49.96722" lon="2.13574">
        <ele>45.3</ele>
        <time>2024-04-17T14:17:26Z</time>
      </trkpt>
      <trkpt lat="49.96722" lon="2.13574">
        <ele>45.3</ele>
        <time>2024-04-17T14:17:27Z</time>
      </trkpt>
      <trkpt lat="49.96722" lon="2.13574">
        <ele>45.3</ele>
        <time>2024-04-17T14:17:28Z</time>
      </trkpt>
      <trkpt lat="49.96722" lon="2.13574">
        <ele>45.3</ele>
        <time>2024-04-17T14:17:29Z</time>
      </trkpt>
      <trkpt lat="49.96722" lon="2.13574">
        <ele>45.3</ele>
        <time>2024-04-17T14:17:30Z</time>
      </trkpt>
      <trkpt lat="49.96722" lon="2.13574">
        <ele>45.3</ele>
        <time>2024-04-17T14:17:31Z</time>
      </trkpt>
      <trkpt lat="49.96722" lon="2.13575">
        <ele>45.3</ele>
        <time>2024-04-17T14:17:32Z</time>
      </trkpt>
      <trkpt lat="49.96722" lon="2.13575">
        <ele>45.3</ele>
        <time>2024-04-17T14:17:33Z</time>
      </trkpt>
      <trkpt lat="49.96722" lon="2.13575">
        <ele>45.3</ele>
        <time>2024-04-17T14:17:34Z</time>
      </trkpt>
      <trkpt lat="49.96722" lon="2.13575">
        <ele>45.3</ele>
        <time>2024-04-17T14:17:35Z</time>
      </trkpt>
      <trkpt lat="49.96722" lon="2.13575">
        <ele>45.3</ele>
        <time>2024-04-17T14:17:36Z</time>
      </trkpt>
      <trkpt lat="49.96722" lon="2.13575">
        <ele>45.3</ele>
        <time>2024-04-17T14:17:37Z</time>
      </trkpt>
      <trkpt lat="49.96722" lon="2.13575">
        <ele>45.3</ele>
        <time>2024-04-17T14:17:38Z</time>
      </trkpt>
      <trkpt lat="49.96722" lon="2.13575">
        <ele>45.3</ele>
        <time>2024-04-17T14:17:39Z</time>
      </trkpt>
      <trkpt lat="49.96722" lon="2.13575">
        <ele>45.3</ele>
        <time>2024-04-17T14:17:40Z</time>
      </trkpt>
      <trkpt lat="49.96722" lon="2.13575">
        <ele>45.3</ele>
        <time>2024-04-17T14:17:41Z</time>
      </trkpt>
      <trkpt lat="49.96722" lon="2.13575">
        <ele>45.3</ele>
        <time>2024-04-17T14:17:42Z</time>
      </trkpt>
      <trkpt lat="49.96722" lon="2.13575">
        <ele>45.3</ele>
        <time>2024-04-17T14:17:43Z</time>
      </trkpt>
      <trkpt lat="49.96722" lon="2.13575">
        <ele>45.3</ele>
        <time>2024-04-17T14:17:44Z</time>
      </trkpt>
      <trkpt lat="49.96722" lon="2.13575">
        <ele>45.3</ele>
        <time>2024-04-17T14:17:45Z</time>
      </trkpt>
      <trkpt lat="49.96722" lon="2.13575">
        <ele>45.3</ele>
        <time>2024-04-17T14:17:46Z</time>
      </trkpt>
      <trkpt lat="49.96722" lon="2.13575">
        <ele>45.3</ele>
        <time>2024-04-17T14:17:47Z</time>
      </trkpt>
      <trkpt lat="49.96722" lon="2.13575">
        <ele>45.3</ele>
        <time>2024-04-17T14:17:48Z</time>
      </trkpt>
      <trkpt lat="49.96722" lon="2.13575">
        <ele>45.3</ele>
        <time>2024-04-17T14:17:49Z</time>
      </trkpt>
      <trkpt lat="49.96722" lon="2.13575">
        <ele>45.3</ele>
        <time>2024-04-17T14:17:50Z</time>
      </trkpt>
      <trkpt lat="49.96722" lon="2.13575">
        <ele>45.3</ele>
        <time>2024-04-17T14:17:51Z</time>
      </trkpt>
      <trkpt lat="49.96722" lon="2.13575">
        <ele>45.3</ele>
        <time>2024-04-17T14:17:52Z</time>
      </trkpt>
      <trkpt lat="49.96722" lon="2.13575">
        <ele>45.3</ele>
        <time>2024-04-17T14:17:53Z</time>
      </trkpt>
      <trkpt lat="49.96722" lon="2.13575">
        <ele>45.3</ele>
        <time>2024-04-17T14:17:54Z</time>
      </trkpt>
      <trkpt lat="49.96722" lon="2.13575">
        <ele>45.3</ele>
        <time>2024-04-17T14:17:55Z</time>
      </trkpt>
      <trkpt lat="49.96722" lon="2.13575">
        <ele>45.3</ele>
        <time>2024-04-17T14:17:56Z</time>
      </trkpt>
      <trkpt lat="49.96722" lon="2.13575">
        <ele>45.3</ele>
        <time>2024-04-17T14:17:57Z</time>
      </trkpt>
      <trkpt lat="49.96722" lon="2.13575">
        <ele>45.3</ele>
        <time>2024-04-17T14:17:58Z</time>
      </trkpt>
      <trkpt lat="49.96722" lon="2.13575">
        <ele>45.3</ele>
        <time>2024-04-17T14:17:59Z</time>
      </trkpt>
      <trkpt lat="49.96722" lon="2.13575">
        <ele>45.3</ele>
        <time>2024-04-17T14:18:00Z</time>
      </trkpt>
      <trkpt lat="49.96722" lon="2.13575">
        <ele>45.3</ele>
        <time>2024-04-17T14:18:01Z</time>
      </trkpt>
      <trkpt lat="49.96722" lon="2.13575">
        <ele>45.3</ele>
        <time>2024-04-17T14:18:02Z</time>
      </trkpt>
      <trkpt lat="49.96722" lon="2.13575">
        <ele>45.3</ele>
        <time>2024-04-17T14:18:03Z</time>
      </trkpt>
      <trkpt lat="49.96722" lon="2.13575">
        <ele>45.3</ele>
        <time>2024-04-17T14:18:04Z</time>
      </trkpt>
      <trkpt lat="49.96722" lon="2.13575">
        <ele>45.3</ele>
        <time>2024-04-17T14:18:05Z</time>
      </trkpt>
      <trkpt lat="49.96722" lon="2.13575">
        <ele>45.3</ele>
        <time>2024-04-17T14:18:06Z</time>
      </trkpt>
      <trkpt lat="49.96722" lon="2.13575">
        <ele>45.3</ele>
        <time>2024-04-17T14:18:07Z</time>
      </trkpt>
      <trkpt lat="49.96722" lon="2.13575">
        <ele>45.3</ele>
        <time>2024-04-17T14:18:08Z</time>
      </trkpt>
      <trkpt lat="49.96722" lon="2.13575">
        <ele>45.3</ele>
        <time>2024-04-17T14:18:09Z</time>
      </trkpt>
      <trkpt lat="49.96722" lon="2.13575">
        <ele>45.3</ele>
        <time>2024-04-17T14:18:10Z</time>
      </trkpt>
      <trkpt lat="49.96722" lon="2.13575">
        <ele>45.3</ele>
        <time>2024-04-17T14:18:11Z</time>
      </trkpt>
      <trkpt lat="49.96722" lon="2.13575">
        <ele>45.3</ele>
        <time>2024-04-17T14:18:12Z</time>
      </trkpt>
      <trkpt lat="49.96722" lon="2.13575">
        <ele>45.3</ele>
        <time>2024-04-17T14:18:13Z</time>
      </trkpt>
      <trkpt lat="49.96722" lon="2.13575">
        <ele>45.3</ele>
        <time>2024-04-17T14:18:14Z</time>
      </trkpt>
      <trkpt lat="49.96722" lon="2.13575">
        <ele>45.3</ele>
        <time>2024-04-17T14:18:15Z</time>
      </trkpt>
      <trkpt lat="49.96722" lon="2.13575">
        <ele>45.3</ele>
        <time>2024-04-17T14:18:16Z</time>
      </trkpt>
      <trkpt lat="49.96722" lon="2.13575">
        <ele>45.3</ele>
        <time>2024-04-17T14:18:17Z</time>
      </trkpt>
      <trkpt lat="49.96722" lon="2.13575">
        <ele>45.3</ele>
        <time>2024-04-17T14:18:18Z</time>
      </trkpt>
      <trkpt lat="49.96722" lon="2.13575">
        <ele>45.3</ele>
        <time>2024-04-17T14:18:19Z</time>
      </trkpt>
      <trkpt lat="49.96722" lon="2.13575">
        <ele>45.3</ele>
        <time>2024-04-17T14:18:20Z</time>
      </trkpt>
      <trkpt lat="49.96722" lon="2.13575">
        <ele>45.3</ele>
        <time>2024-04-17T14:18:21Z</time>
      </trkpt>
      <trkpt lat="49.96722" lon="2.13575">
        <ele>45.3</ele>
        <time>2024-04-17T14:18:22Z</time>
      </trkpt>
      <trkpt lat="49.96722" lon="2.13575">
        <ele>45.3</ele>
        <time>2024-04-17T14:18:23Z</time>
      </trkpt>
      <trkpt lat="49.96722" lon="2.13575">
        <ele>45.3</ele>
        <time>2024-04-17T14:18:24Z</time>
      </trkpt>
      <trkpt lat="49.96722" lon="2.13575">
        <ele>45.3</ele>
        <time>2024-04-17T14:18:25Z</time>
      </trkpt>
      <trkpt lat="49.96722" lon="2.13575">
        <ele>45.3</ele>
        <time>2024-04-17T14:18:26Z</time>
      </trkpt>
      <trkpt lat="49.96722" lon="2.13575">
        <ele>45.3</ele>
        <time>2024-04-17T14:18:27Z</time>
      </trkpt>
      <trkpt lat="49.96722" lon="2.13575">
        <ele>45.3</ele>
        <time>2024-04-17T14:18:28Z</time>
      </trkpt>
      <trkpt lat="49.96722" lon="2.13575">
        <ele>45.3</ele>
        <time>2024-04-17T14:18:29Z</time>
      </trkpt>
      <trkpt lat="49.96722" lon="2.13575">
        <ele>45.3</ele>
        <time>2024-04-17T14:18:30Z</time>
      </trkpt>
      <trkpt lat="49.96722" lon="2.13575">
        <ele>45.3</ele>
        <time>2024-04-17T14:18:31Z</time>
      </trkpt>
      <trkpt lat="49.96722" lon="2.13575">
        <ele>45.3</ele>
        <time>2024-04-17T14:18:32Z</time>
      </trkpt>
      <trkpt lat="49.96722" lon="2.13575">
        <ele>45.3</ele>
        <time>2024-04-17T14:18:33Z</time>
      </trkpt>
      <trkpt lat="49.96722" lon="2.13575">
        <ele>45.3</ele>
        <time>2024-04-17T14:18:34Z</time>
      </trkpt>
      <trkpt lat="49.96722" lon="2.13575">
        <ele>45.3</ele>
        <time>2024-04-17T14:18:35Z</time>
      </trkpt>
      <trkpt lat="49.96722" lon="2.13575">
        <ele>45.3</ele>
        <time>2024-04-17T14:18:36Z</time>
      </trkpt>
      <trkpt lat="49.96722" lon="2.13575">
        <ele>45.3</ele>
        <time>2024-04-17T14:18:37Z</time>
      </trkpt>
      <trkpt lat="49.96722" lon="2.13575">
        <ele>45.3</ele>
        <time>2024-04-17T14:18:38Z</time>
      </trkpt>
      <trkpt lat="49.96722" lon="2.13575">
        <ele>45.3</ele>
        <time>2024-04-17T14:18:39Z</time>
      </trkpt>
      <trkpt lat="49.96722" lon="2.13575">
        <ele>45.3</ele>
        <time>2024-04-17T14:18:40Z</time>
      </trkpt>
      <trkpt lat="49.96722" lon="2.13575">
        <ele>45.3</ele>
        <time>2024-04-17T14:18:41Z</time>
      </trkpt>
      <trkpt lat="49.96722" lon="2.13575">
        <ele>45.3</ele>
        <time>2024-04-17T14:18:42Z</time>
      </trkpt>
      <trkpt lat="49.96722" lon="2.13575">
        <ele>45.3</ele>
        <time>2024-04-17T14:18:43Z</time>
      </trkpt>
      <trkpt lat="49.96722" lon="2.13575">
        <ele>45.3</ele>
        <time>2024-04-17T14:18:44Z</time>
      </trkpt>
      <trkpt lat="49.96722" lon="2.13575">
        <ele>45.3</ele>
        <time>2024-04-17T14:18:45Z</time>
      </trkpt>
      <trkpt lat="49.96722" lon="2.13575">
        <ele>45.3</ele>
        <time>2024-04-17T14:18:46Z</time>
      </trkpt>
      <trkpt lat="49.96722" lon="2.13575">
        <ele>45.3</ele>
        <time>2024-04-17T14:18:47Z</time>
      </trkpt>
      <trkpt lat="49.96722" lon="2.13575">
        <ele>45.3</ele>
        <time>2024-04-17T14:18:48Z</time>
      </trkpt>
      <trkpt lat="49.96722" lon="2.13575">
        <ele>45.3</ele>
        <time>2024-04-17T14:18:49Z</time>
      </trkpt>
      <trkpt lat="49.96722" lon="2.13575">
        <ele>45.3</ele>
        <time>2024-04-17T14:18:50Z</time>
      </trkpt>
      <trkpt lat="49.96722" lon="2.13575">
        <ele>45.3</ele>
        <time>2024-04-17T14:18:51Z</time>
      </trkpt>
      <trkpt lat="49.96722" lon="2.13575">
        <ele>45.3</ele>
        <time>2024-04-17T14:18:52Z</time>
      </trkpt>
      <trkpt lat="49.96722" lon="2.13575">
        <ele>45.3</ele>
        <time>2024-04-17T14:18:53Z</time>
      </trkpt>
      <trkpt lat="49.96722" lon="2.13575">
        <ele>45.3</ele>
        <time>2024-04-17T14:18:54Z</time>
      </trkpt>
      <trkpt lat="49.96722" lon="2.13575">
        <ele>45.3</ele>
        <time>2024-04-17T14:18:55Z</time>
      </trkpt>
      <trkpt lat="49.96722" lon="2.13575">
        <ele>45.3</ele>
        <time>2024-04-17T14:18:56Z</time>
      </trkpt>
      <trkpt lat="49.96722" lon="2.13575">
        <ele>45.3</ele>
        <time>2024-04-17T14:18:57Z</time>
      </trkpt>
      <trkpt lat="49.96722" lon="2.13575">
        <ele>45.3</ele>
        <time>2024-04-17T14:18:58Z</time>
      </trkpt>
      <trkpt lat="49.96722" lon="2.13575">
        <ele>45.3</ele>
        <time>2024-04-17T14:18:59Z</time>
      </trkpt>
      <trkpt lat="49.96722" lon="2.13575">
        <ele>45.3</ele>
        <time>2024-04-17T14:19:00Z</time>
      </trkpt>
      <trkpt lat="49.96722" lon="2.13575">
        <ele>45.3</ele>
        <time>2024-04-17T14:19:01Z</time>
      </trkpt>
      <trkpt lat="49.96722" lon="2.13575">
        <ele>45.3</ele>
        <time>2024-04-17T14:19:02Z</time>
      </trkpt>
      <trkpt lat="49.96722" lon="2.13575">
        <ele>45.3</ele>
        <time>2024-04-17T14:19:03Z</time>
      </trkpt>
      <trkpt lat="49.96722" lon="2.13575">
        <ele>45.3</ele>
        <time>2024-04-17T14:19:04Z</time>
      </trkpt>
      <trkpt lat="49.96722" lon="2.13575">
        <ele>45.3</ele>
        <time>2024-04-17T14:19:05Z</time>
      </trkpt>
      <trkpt lat="49.96722" lon="2.13575">
        <ele>45.3</ele>
        <time>2024-04-17T14:19:06Z</time>
      </trkpt>
      <trkpt lat="49.96722" lon="2.13575">
        <ele>45.3</ele>
        <time>2024-04-17T14:19:07Z</time>
      </trkpt>
      <trkpt lat="49.96722" lon="2.13575">
        <ele>45.3</ele>
        <time>2024-04-17T14:19:08Z</time>
      </trkpt>
      <trkpt lat="49.96722" lon="2.13575">
        <ele>45.3</ele>
        <time>2024-04-17T14:19:09Z</time>
      </trkpt>
      <trkpt lat="49.96722" lon="2.13575">
        <ele>45.3</ele>
        <time>2024-04-17T14:19:10Z</time>
      </trkpt>
      <trkpt lat="49.96722" lon="2.13575">
        <ele>45.3</ele>
        <time>2024-04-17T14:19:11Z</time>
      </trkpt>
      <trkpt lat="49.96722" lon="2.13575">
        <ele>45.3</ele>
        <time>2024-04-17T14:19:12Z</time>
      </trkpt>
      <trkpt lat="49.96722" lon="2.13575">
        <ele>45.3</ele>
        <time>2024-04-17T14:19:13Z</time>
      </trkpt>
      <trkpt lat="49.96722" lon="2.13575">
        <ele>45.3</ele>
        <time>2024-04-17T14:19:14Z</time>
      </trkpt>
      <trkpt lat="49.96722" lon="2.13575">
        <ele>45.3</ele>
        <time>2024-04-17T14:19:15Z</time>
      </trkpt>
      <trkpt lat="49.96722" lon="2.13575">
        <ele>45.3</ele>
        <time>2024-04-17T14:19:16Z</time>
      </trkpt>
      <trkpt lat="49.96722" lon="2.13575">
        <ele>45.3</ele>
        <time>2024-04-17T14:19:17Z</time>
      </trkpt>
      <trkpt lat="49.96722" lon="2.13575">
        <ele>45.3</ele>
        <time>2024-04-17T14:19:18Z</time>
      </trkpt>
      <trkpt lat="49.96722" lon="2.13576">
        <ele>45.3</ele>
        <time>2024-04-17T14:19:19Z</time>
      </trkpt>
      <trkpt lat="49.96722" lon="2.13576">
        <ele>45.3</ele>
        <time>2024-04-17T14:19:20Z</time>
      </trkpt>
      <trkpt lat="49.96721" lon="2.13576">
        <ele>45.3</ele>
        <time>2024-04-17T14:19:21Z</time>
      </trkpt>
      <trkpt lat="49.9672" lon="2.13577">
        <ele>45.3</ele>
        <time>2024-04-17T14:19:22Z</time>
      </trkpt>
      <trkpt lat="49.96719" lon="2.13577">
        <ele>45.3</ele>
        <time>2024-04-17T14:19:23Z</time>
      </trkpt>
      <trkpt lat="49.96719" lon="2.13578">
        <ele>45.3</ele>
        <time>2024-04-17T14:19:24Z</time>
      </trkpt>
      <trkpt lat="49.96718" lon="2.13578">
        <ele>45.3</ele>
        <time>2024-04-17T14:19:25Z</time>
      </trkpt>
      <trkpt lat="49.96718" lon="2.13579">
        <ele>45.2</ele>
        <time>2024-04-17T14:19:26Z</time>
      </trkpt>
      <trkpt lat="49.96717" lon="2.13579">
        <ele>45.2</ele>
        <time>2024-04-17T14:19:27Z</time>
      </trkpt>
      <trkpt lat="49.96717" lon="2.13579">
        <ele>45.2</ele>
        <time>2024-04-17T14:19:28Z</time>
      </trkpt>
      <trkpt lat="49.96716" lon="2.13579">
        <ele>45.2</ele>
        <time>2024-04-17T14:19:29Z</time>
      </trkpt>
      <trkpt lat="49.96716" lon="2.13579">
        <ele>45.2</ele>
        <time>2024-04-17T14:19:30Z</time>
      </trkpt>
      <trkpt lat="49.96716" lon="2.13579">
        <ele>45.2</ele>
        <time>2024-04-17T14:19:31Z</time>
      </trkpt>
      <trkpt lat="49.96716" lon="2.13579">
        <ele>45.2</ele>
        <time>2024-04-17T14:19:32Z</time>
      </trkpt>
      <trkpt lat="49.96716" lon="2.13579">
        <ele>45.2</ele>
        <time>2024-04-17T14:19:33Z</time>
      </trkpt>
      <trkpt lat="49.96716" lon="2.13579">
        <ele>45.2</ele>
        <time>2024-04-17T14:19:34Z</time>
      </trkpt>
      <trkpt lat="49.96716" lon="2.13578">
        <ele>45.2</ele>
        <time>2024-04-17T14:19:35Z</time>
      </trkpt>
      <trkpt lat="49.96717" lon="2.13578">
        <ele>45.2</ele>
        <time>2024-04-17T14:19:36Z</time>
      </trkpt>
      <trkpt lat="49.96717" lon="2.13578">
        <ele>45.2</ele>
        <time>2024-04-17T14:19:37Z</time>
      </trkpt>
      <trkpt lat="49.96717" lon="2.13578">
        <ele>45.2</ele>
        <time>2024-04-17T14:19:38Z</time>
      </trkpt>
      <trkpt lat="49.96717" lon="2.13578">
        <ele>45.2</ele>
        <time>2024-04-17T14:19:39Z</time>
      </trkpt>
      <trkpt lat="49.96717" lon="2.13578">
        <ele>45.2</ele>
        <time>2024-04-17T14:19:40Z</time>
      </trkpt>
      <trkpt lat="49.96718" lon="2.13578">
        <ele>45.2</ele>
        <time>2024-04-17T14:19:41Z</time>
      </trkpt>
      <trkpt lat="49.96718" lon="2.13578">
        <ele>45.2</ele>
        <time>2024-04-17T14:19:42Z</time>
      </trkpt>
      <trkpt lat="49.96718" lon="2.13578">
        <ele>45.2</ele>
        <time>2024-04-17T14:19:43Z</time>
      </trkpt>
      <trkpt lat="49.96718" lon="2.13578">
        <ele>45.2</ele>
        <time>2024-04-17T14:19:44Z</time>
      </trkpt>
      <trkpt lat="49.96718" lon="2.13578">
        <ele>45.2</ele>
        <time>2024-04-17T14:19:45Z</time>
      </trkpt>
      <trkpt lat="49.96718" lon="2.13578">
        <ele>45.2</ele>
        <time>2024-04-17T14:19:46Z</time>
      </trkpt>
      <trkpt lat="49.96718" lon="2.13578">
        <ele>45.2</ele>
        <time>2024-04-17T14:19:47Z</time>
      </trkpt>
      <trkpt lat="49.96718" lon="2.13578">
        <ele>45.2</ele>
        <time>2024-04-17T14:19:49Z</time>
      </trkpt>
      <trkpt lat="49.96718" lon="2.13578">
        <ele>45.2</ele>
        <time>2024-04-17T14:19:50Z</time>
      </trkpt>
      <trkpt lat="49.96718" lon="2.13578">
        <ele>45.2</ele>
        <time>2024-04-17T14:19:51Z</time>
      </trkpt>
      <trkpt lat="49.96718" lon="2.13578">
        <ele>45.2</ele>
        <time>2024-04-17T14:19:52Z</time>
      </trkpt>
      <trkpt lat="49.96718" lon="2.13578">
        <ele>45.2</ele>
        <time>2024-04-17T14:19:53Z</time>
      </trkpt>
      <trkpt lat="49.96718" lon="2.13578">
        <ele>45.2</ele>
        <time>2024-04-17T14:19:54Z</time>
      </trkpt>
      <trkpt lat="49.96718" lon="2.13578">
        <ele>45.2</ele>
        <time>2024-04-17T14:19:55Z</time>
      </trkpt>
      <trkpt lat="49.96718" lon="2.13578">
        <ele>45.2</ele>
        <time>2024-04-17T14:19:56Z</time>
      </trkpt>
      <trkpt lat="49.96718" lon="2.13578">
        <ele>45.2</ele>
        <time>2024-04-17T14:19:58Z</time>
      </trkpt>
      <trkpt lat="49.96718" lon="2.13578">
        <ele>45.2</ele>
        <time>2024-04-17T14:19:59Z</time>
      </trkpt>
      <trkpt lat="49.96718" lon="2.13578">
        <ele>45.2</ele>
        <time>2024-04-17T14:20:00Z</time>
      </trkpt>
      <trkpt lat="49.96717" lon="2.13578">
        <ele>45.2</ele>
        <time>2024-04-17T14:20:01Z</time>
      </trkpt>
      <trkpt lat="49.96717" lon="2.13578">
        <ele>45.2</ele>
        <time>2024-04-17T14:20:02Z</time>
      </trkpt>
      <trkpt lat="49.96718" lon="2.13577">
        <ele>45.2</ele>
        <time>2024-04-17T14:20:03Z</time>
      </trkpt>
      <trkpt lat="49.96718" lon="2.13576">
        <ele>45.2</ele>
        <time>2024-04-17T14:20:04Z</time>
      </trkpt>
      <trkpt lat="49.96719" lon="2.13576">
        <ele>45.1</ele>
        <time>2024-04-17T14:20:05Z</time>
      </trkpt>
      <trkpt lat="49.96719" lon="2.13576">
        <ele>45.1</ele>
        <time>2024-04-17T14:20:06Z</time>
      </trkpt>
      <trkpt lat="49.96719" lon="2.13576">
        <ele>45.1</ele>
        <time>2024-04-17T14:20:07Z</time>
      </trkpt>
      <trkpt lat="49.96719" lon="2.13576">
        <ele>45.1</ele>
        <time>2024-04-17T14:20:08Z</time>
      </trkpt>
      <trkpt lat="49.96719" lon="2.13576">
        <ele>45.1</ele>
        <time>2024-04-17T14:20:09Z</time>
      </trkpt>
      <trkpt lat="49.96719" lon="2.13576">
        <ele>45.1</ele>
        <time>2024-04-17T14:20:10Z</time>
      </trkpt>
      <trkpt lat="49.96719" lon="2.13576">
        <ele>45.1</ele>
        <time>2024-04-17T14:20:11Z</time>
      </trkpt>
      <trkpt lat="49.96719" lon="2.13576">
        <ele>45.1</ele>
        <time>2024-04-17T14:20:12Z</time>
      </trkpt>
      <trkpt lat="49.96719" lon="2.13576">
        <ele>45.1</ele>
        <time>2024-04-17T14:20:13Z</time>
      </trkpt>
      <trkpt lat="49.96719" lon="2.13576">
        <ele>45.1</ele>
        <time>2024-04-17T14:20:14Z</time>
      </trkpt>
      <trkpt lat="49.96719" lon="2.13576">
        <ele>45.1</ele>
        <time>2024-04-17T14:20:15Z</time>
      </trkpt>
      <trkpt lat="49.96719" lon="2.13576">
        <ele>45.1</ele>
        <time>2024-04-17T14:20:16Z</time>
      </trkpt>
      <trkpt lat="49.96719" lon="2.13575">
        <ele>45.1</ele>
        <time>2024-04-17T14:20:17Z</time>
      </trkpt>
      <trkpt lat="49.96719" lon="2.13575">
        <ele>45.1</ele>
        <time>2024-04-17T14:20:18Z</time>
      </trkpt>
      <trkpt lat="49.96719" lon="2.13575">
        <ele>45.1</ele>
        <time>2024-04-17T14:20:19Z</time>
      </trkpt>
      <trkpt lat="49.96719" lon="2.13575">
        <ele>45.1</ele>
        <time>2024-04-17T14:20:20Z</time>
      </trkpt>
      <trkpt lat="49.96719" lon="2.13576">
        <ele>45.1</ele>
        <time>2024-04-17T14:20:21Z</time>
      </trkpt>
      <trkpt lat="49.96719" lon="2.13576">
        <ele>45.1</ele>
        <time>2024-04-17T14:20:22Z</time>
      </trkpt>
      <trkpt lat="49.96719" lon="2.13576">
        <ele>45.1</ele>
        <time>2024-04-17T14:20:23Z</time>
      </trkpt>
      <trkpt lat="49.96719" lon="2.13576">
        <ele>45.1</ele>
        <time>2024-04-17T14:20:24Z</time>
      </trkpt>
      <trkpt lat="49.96719" lon="2.13576">
        <ele>45.1</ele>
        <time>2024-04-17T14:20:25Z</time>
      </trkpt>
      <trkpt lat="49.96719" lon="2.13576">
        <ele>45.1</ele>
        <time>2024-04-17T14:20:26Z</time>
      </trkpt>
      <trkpt lat="49.96719" lon="2.13576">
        <ele>45.1</ele>
        <time>2024-04-17T14:20:27Z</time>
      </trkpt>
      <trkpt lat="49.96719" lon="2.13576">
        <ele>45.1</ele>
        <time>2024-04-17T14:20:28Z</time>
      </trkpt>
      <trkpt lat="49.96719" lon="2.13576">
        <ele>45.1</ele>
        <time>2024-04-17T14:20:29Z</time>
      </trkpt>
      <trkpt lat="49.96719" lon="2.13576">
        <ele>45.1</ele>
        <time>2024-04-17T14:20:30Z</time>
      </trkpt>
      <trkpt lat="49.96719" lon="2.13576">
        <ele>45.1</ele>
        <time>2024-04-17T14:20:31Z</time>
      </trkpt>
      <trkpt lat="49.96719" lon="2.13577">
        <ele>45.1</ele>
        <time>2024-04-17T14:20:32Z</time>
      </trkpt>
      <trkpt lat="49.96719" lon="2.13577">
        <ele>45.1</ele>
        <time>2024-04-17T14:20:33Z</time>
      </trkpt>
      <trkpt lat="49.96719" lon="2.13577">
        <ele>45.1</ele>
        <time>2024-04-17T14:20:34Z</time>
      </trkpt>
      <trkpt lat="49.96719" lon="2.13577">
        <ele>45.1</ele>
        <time>2024-04-17T14:20:35Z</time>
      </trkpt>
      <trkpt lat="49.96719" lon="2.13577">
        <ele>45.1</ele>
        <time>2024-04-17T14:20:36Z</time>
      </trkpt>
      <trkpt lat="49.96719" lon="2.13577">
        <ele>45.1</ele>
        <time>2024-04-17T14:20:37Z</time>
      </trkpt>
      <trkpt lat="49.96719" lon="2.13577">
        <ele>45.1</ele>
        <time>2024-04-17T14:20:38Z</time>
      </trkpt>
      <trkpt lat="49.96719" lon="2.13577">
        <ele>45.1</ele>
        <time>2024-04-17T14:20:39Z</time>
      </trkpt>
      <trkpt lat="49.96719" lon="2.13578">
        <ele>45.1</ele>
        <time>2024-04-17T14:20:40Z</time>
      </trkpt>
      <trkpt lat="49.96719" lon="2.13578">
        <ele>45.1</ele>
        <time>2024-04-17T14:20:41Z</time>
      </trkpt>
      <trkpt lat="49.96719" lon="2.13578">
        <ele>45.1</ele>
        <time>2024-04-17T14:20:42Z</time>
      </trkpt>
      <trkpt lat="49.96719" lon="2.13578">
        <ele>45.1</ele>
        <time>2024-04-17T14:20:43Z</time>
      </trkpt>
      <trkpt lat="49.96719" lon="2.13578">
        <ele>45.1</ele>
        <time>2024-04-17T14:20:44Z</time>
      </trkpt>
      <trkpt lat="49.96719" lon="2.13578">
        <ele>45.1</ele>
        <time>2024-04-17T14:20:45Z</time>
      </trkpt>
      <trkpt lat="49.96719" lon="2.13578">
        <ele>45.1</ele>
        <time>2024-04-17T14:20:46Z</time>
      </trkpt>
      <trkpt lat="49.96719" lon="2.13578">
        <ele>45.1</ele>
        <time>2024-04-17T14:20:47Z</time>
      </trkpt>
      <trkpt lat="49.96719" lon="2.13578">
        <ele>45.1</ele>
        <time>2024-04-17T14:20:48Z</time>
      </trkpt>
      <trkpt lat="49.96719" lon="2.13578">
        <ele>45.1</ele>
        <time>2024-04-17T14:20:49Z</time>
      </trkpt>
      <trkpt lat="49.96719" lon="2.13578">
        <ele>45.1</ele>
        <time>2024-04-17T14:20:50Z</time>
      </trkpt>
      <trkpt lat="49.96719" lon="2.13578">
        <ele>45.1</ele>
        <time>2024-04-17T14:20:51Z</time>
      </trkpt>
      <trkpt lat="49.96719" lon="2.13578">
        <ele>45.1</ele>
        <time>2024-04-17T14:20:52Z</time>
      </trkpt>
      <trkpt lat="49.96719" lon="2.13578">
        <ele>45.1</ele>
        <time>2024-04-17T14:20:53Z</time>
      </trkpt>
      <trkpt lat="49.96719" lon="2.13578">
        <ele>45.1</ele>
        <time>2024-04-17T14:20:54Z</time>
      </trkpt>
      <trkpt lat="49.96719" lon="2.13578">
        <ele>45.1</ele>
        <time>2024-04-17T14:20:55Z</time>
      </trkpt>
      <trkpt lat="49.96719" lon="2.13578">
        <ele>45.1</ele>
        <time>2024-04-17T14:20:56Z</time>
      </trkpt>
      <trkpt lat="49.96719" lon="2.13578">
        <ele>45.1</ele>
        <time>2024-04-17T14:20:57Z</time>
      </trkpt>
      <trkpt lat="49.96719" lon="2.13578">
        <ele>45.1</ele>
        <time>2024-04-17T14:20:58Z</time>
      </trkpt>
      <trkpt lat="49.96719" lon="2.13578">
        <ele>45.1</ele>
        <time>2024-04-17T14:20:59Z</time>
      </trkpt>
      <trkpt lat="49.96719" lon="2.13578">
        <ele>45.1</ele>
        <time>2024-04-17T14:21:00Z</time>
      </trkpt>
      <trkpt lat="49.96719" lon="2.13578">
        <ele>45.1</ele>
        <time>2024-04-17T14:21:01Z</time>
      </trkpt>
      <trkpt lat="49.96719" lon="2.13578">
        <ele>45.1</ele>
        <time>2024-04-17T14:21:02Z</time>
      </trkpt>
      <trkpt lat="49.96719" lon="2.13578">
        <ele>45.1</ele>
        <time>2024-04-17T14:21:03Z</time>
      </trkpt>
      <trkpt lat="49.96719" lon="2.13578">
        <ele>45.1</ele>
        <time>2024-04-17T14:21:04Z</time>
      </trkpt>
      <trkpt lat="49.96719" lon="2.13577">
        <ele>45.1</ele>
        <time>2024-04-17T14:21:05Z</time>
      </trkpt>
      <trkpt lat="49.96719" lon="2.13577">
        <ele>45.1</ele>
        <time>2024-04-17T14:21:06Z</time>
      </trkpt>
      <trkpt lat="49.96719" lon="2.13577">
        <ele>45.1</ele>
        <time>2024-04-17T14:21:07Z</time>
      </trkpt>
      <trkpt lat="49.96719" lon="2.13578">
        <ele>45.1</ele>
        <time>2024-04-17T14:21:08Z</time>
      </trkpt>
      <trkpt lat="49.96719" lon="2.13577">
        <ele>45.1</ele>
        <time>2024-04-17T14:21:09Z</time>
      </trkpt>
      <trkpt lat="49.96718" lon="2.13577">
        <ele>45.1</ele>
        <time>2024-04-17T14:21:10Z</time>
      </trkpt>
      <trkpt lat="49.96718" lon="2.13577">
        <ele>45.1</ele>
        <time>2024-04-17T14:21:11Z</time>
      </trkpt>
      <trkpt lat="49.96718" lon="2.13576">
        <ele>45.1</ele>
        <time>2024-04-17T14:21:12Z</time>
      </trkpt>
      <trkpt lat="49.96718" lon="2.13576">
        <ele>45.1</ele>
        <time>2024-04-17T14:21:13Z</time>
      </trkpt>
      <trkpt lat="49.96717" lon="2.13576">
        <ele>45.1</ele>
        <time>2024-04-17T14:21:14Z</time>
      </trkpt>
      <trkpt lat="49.96717" lon="2.13576">
        <ele>45.1</ele>
        <time>2024-04-17T14:21:15Z</time>
      </trkpt>
      <trkpt lat="49.96716" lon="2.13576">
        <ele>45</ele>
        <time>2024-04-17T14:21:16Z</time>
      </trkpt>
      <trkpt lat="49.96716" lon="2.13576">
        <ele>45</ele>
        <time>2024-04-17T14:21:17Z</time>
      </trkpt>
      <trkpt lat="49.96715" lon="2.13575">
        <ele>45</ele>
        <time>2024-04-17T14:21:18Z</time>
      </trkpt>
      <trkpt lat="49.96715" lon="2.13575">
        <ele>45</ele>
        <time>2024-04-17T14:21:19Z</time>
      </trkpt>
      <trkpt lat="49.96714" lon="2.13574">
        <ele>45</ele>
        <time>2024-04-17T14:21:20Z</time>
      </trkpt>
      <trkpt lat="49.96714" lon="2.13574">
        <ele>45</ele>
        <time>2024-04-17T14:21:21Z</time>
      </trkpt>
      <trkpt lat="49.96713" lon="2.13573">
        <ele>45</ele>
        <time>2024-04-17T14:21:22Z</time>
      </trkpt>
      <trkpt lat="49.96712" lon="2.13572">
        <ele>45</ele>
        <time>2024-04-17T14:21:23Z</time>
      </trkpt>
      <trkpt lat="49.96711" lon="2.13572">
        <ele>45</ele>
        <time>2024-04-17T14:21:24Z</time>
      </trkpt>
      <trkpt lat="49.9671" lon="2.13571">
        <ele>45</ele>
        <time>2024-04-17T14:21:25Z</time>
      </trkpt>
      <trkpt lat="49.9671" lon="2.13571">
        <ele>45</ele>
        <time>2024-04-17T14:21:26Z</time>
      </trkpt>
      <trkpt lat="49.96709" lon="2.13571">
        <ele>44.9</ele>
        <time>2024-04-17T14:21:27Z</time>
      </trkpt>
      <trkpt lat="49.96707" lon="2.1357">
        <ele>44.9</ele>
        <time>2024-04-17T14:21:28Z</time>
      </trkpt>
      <trkpt lat="49.96706" lon="2.1357">
        <ele>44.9</ele>
        <time>2024-04-17T14:21:29Z</time>
      </trkpt>
      <trkpt lat="49.96705" lon="2.13569">
        <ele>44.9</ele>
        <time>2024-04-17T14:21:30Z</time>
      </trkpt>
      <trkpt lat="49.96705" lon="2.13569">
        <ele>44.9</ele>
        <time>2024-04-17T14:21:31Z</time>
      </trkpt>
      <trkpt lat="49.96704" lon="2.13568">
        <ele>44.9</ele>
        <time>2024-04-17T14:21:32Z</time>
      </trkpt>
      <trkpt lat="49.96703" lon="2.13569">
        <ele>44.9</ele>
        <time>2024-04-17T14:21:33Z</time>
      </trkpt>
      <trkpt lat="49.96703" lon="2.13569">
        <ele>44.9</ele>
        <time>2024-04-17T14:21:34Z</time>
      </trkpt>
      <trkpt lat="49.96702" lon="2.13569">
        <ele>44.8</ele>
        <time>2024-04-17T14:21:35Z</time>
      </trkpt>
      <trkpt lat="49.96702" lon="2.13569">
        <ele>44.8</ele>
        <time>2024-04-17T14:21:36Z</time>
      </trkpt>
      <trkpt lat="49.96701" lon="2.13569">
        <ele>44.8</ele>
        <time>2024-04-17T14:21:37Z</time>
      </trkpt>
      <trkpt lat="49.96701" lon="2.13568">
        <ele>44.8</ele>
        <time>2024-04-17T14:21:38Z</time>
      </trkpt>
      <trkpt lat="49.967" lon="2.13568">
        <ele>44.8</ele>
        <time>2024-04-17T14:21:39Z</time>
      </trkpt>
      <trkpt lat="49.967" lon="2.13567">
        <ele>44.8</ele>
        <time>2024-04-17T14:21:40Z</time>
      </trkpt>
      <trkpt lat="49.96699" lon="2.13567">
        <ele>44.8</ele>
        <time>2024-04-17T14:21:41Z</time>
      </trkpt>
      <trkpt lat="49.96699" lon="2.13567">
        <ele>44.8</ele>
        <time>2024-04-17T14:21:42Z</time>
      </trkpt>
      <trkpt lat="49.96699" lon="2.13567">
        <ele>44.8</ele>
        <time>2024-04-17T14:21:43Z</time>
      </trkpt>
      <trkpt lat="49.96698" lon="2.13567">
        <ele>44.8</ele>
        <time>2024-04-17T14:21:44Z</time>
      </trkpt>
      <trkpt lat="49.96698" lon="2.13567">
        <ele>44.8</ele>
        <time>2024-04-17T14:21:45Z</time>
      </trkpt>
      <trkpt lat="49.96698" lon="2.13568">
        <ele>44.8</ele>
        <time>2024-04-17T14:21:46Z</time>
      </trkpt>
      <trkpt lat="49.96698" lon="2.13568">
        <ele>44.8</ele>
        <time>2024-04-17T14:21:47Z</time>
      </trkpt>
      <trkpt lat="49.96698" lon="2.13568">
        <ele>44.8</ele>
        <time>2024-04-17T14:21:48Z</time>
      </trkpt>
      <trkpt lat="49.96698" lon="2.13568">
        <ele>44.8</ele>
        <time>2024-04-17T14:21:49Z</time>
      </trkpt>
      <trkpt lat="49.96698" lon="2.13567">
        <ele>44.8</ele>
        <time>2024-04-17T14:21:50Z</time>
      </trkpt>
      <trkpt lat="49.96698" lon="2.13567">
        <ele>44.7</ele>
        <time>2024-04-17T14:21:51Z</time>
      </trkpt>
      <trkpt lat="49.96697" lon="2.13566">
        <ele>44.7</ele>
        <time>2024-04-17T14:21:52Z</time>
      </trkpt>
      <trkpt lat="49.96697" lon="2.13566">
        <ele>44.7</ele>
        <time>2024-04-17T14:21:53Z</time>
      </trkpt>
      <trkpt lat="49.96697" lon="2.13566">
        <ele>44.7</ele>
        <time>2024-04-17T14:21:54Z</time>
      </trkpt>
      <trkpt lat="49.96697" lon="2.13566">
        <ele>44.7</ele>
        <time>2024-04-17T14:21:55Z</time>
      </trkpt>
      <trkpt lat="49.96697" lon="2.13566">
        <ele>44.7</ele>
        <time>2024-04-17T14:21:56Z</time>
      </trkpt>
      <trkpt lat="49.96699" lon="2.13566">
        <ele>44.7</ele>
        <time>2024-04-17T14:21:57Z</time>
      </trkpt>
      <trkpt lat="49.967" lon="2.13566">
        <ele>44.7</ele>
        <time>2024-04-17T14:21:58Z</time>
      </trkpt>
      <trkpt lat="49.967" lon="2.13566">
        <ele>44.7</ele>
        <time>2024-04-17T14:21:59Z</time>
      </trkpt>
      <trkpt lat="49.967" lon="2.13566">
        <ele>44.7</ele>
        <time>2024-04-17T14:22:00Z</time>
      </trkpt>
      <trkpt lat="49.967" lon="2.13566">
        <ele>44.7</ele>
        <time>2024-04-17T14:22:01Z</time>
      </trkpt>
      <trkpt lat="49.967" lon="2.13566">
        <ele>44.7</ele>
        <time>2024-04-17T14:22:02Z</time>
      </trkpt>
      <trkpt lat="49.967" lon="2.13566">
        <ele>44.7</ele>
        <time>2024-04-17T14:22:03Z</time>
      </trkpt>
      <trkpt lat="49.967" lon="2.13566">
        <ele>44.7</ele>
        <time>2024-04-17T14:22:04Z</time>
      </trkpt>
      <trkpt lat="49.967" lon="2.13566">
        <ele>44.7</ele>
        <time>2024-04-17T14:22:05Z</time>
      </trkpt>
      <trkpt lat="49.967" lon="2.13566">
        <ele>44.7</ele>
        <time>2024-04-17T14:22:06Z</time>
      </trkpt>
      <trkpt lat="49.967" lon="2.13566">
        <ele>44.7</ele>
        <time>2024-04-17T14:22:07Z</time>
      </trkpt>
      <trkpt lat="49.967" lon="2.13566">
        <ele>44.7</ele>
        <time>2024-04-17T14:22:08Z</time>
      </trkpt>
      <trkpt lat="49.967" lon="2.13566">
        <ele>44.7</ele>
        <time>2024-04-17T14:22:09Z</time>
      </trkpt>
      <trkpt lat="49.967" lon="2.13566">
        <ele>44.7</ele>
        <time>2024-04-17T14:22:10Z</time>
      </trkpt>
      <trkpt lat="49.967" lon="2.13565">
        <ele>44.7</ele>
        <time>2024-04-17T14:22:11Z</time>
      </trkpt>
      <trkpt lat="49.967" lon="2.13565">
        <ele>44.7</ele>
        <time>2024-04-17T14:22:12Z</time>
      </trkpt>
      <trkpt lat="49.967" lon="2.13565">
        <ele>44.7</ele>
        <time>2024-04-17T14:22:13Z</time>
      </trkpt>
      <trkpt lat="49.967" lon="2.13565">
        <ele>44.7</ele>
        <time>2024-04-17T14:22:14Z</time>
      </trkpt>
      <trkpt lat="49.967" lon="2.13565">
        <ele>44.7</ele>
        <time>2024-04-17T14:22:15Z</time>
      </trkpt>
      <trkpt lat="49.967" lon="2.13565">
        <ele>44.7</ele>
        <time>2024-04-17T14:22:16Z</time>
      </trkpt>
      <trkpt lat="49.967" lon="2.13565">
        <ele>44.7</ele>
        <time>2024-04-17T14:22:17Z</time>
      </trkpt>
      <trkpt lat="49.967" lon="2.13565">
        <ele>44.7</ele>
        <time>2024-04-17T14:22:18Z</time>
      </trkpt>
      <trkpt lat="49.967" lon="2.13565">
        <ele>44.7</ele>
        <time>2024-04-17T14:22:19Z</time>
      </trkpt>
      <trkpt lat="49.967" lon="2.13565">
        <ele>44.7</ele>
        <time>2024-04-17T14:22:20Z</time>
      </trkpt>
      <trkpt lat="49.967" lon="2.13565">
        <ele>44.7</ele>
        <time>2024-04-17T14:22:21Z</time>
      </trkpt>
      <trkpt lat="49.967" lon="2.13565">
        <ele>44.7</ele>
        <time>2024-04-17T14:22:22Z</time>
      </trkpt>
      <trkpt lat="49.967" lon="2.13565">
        <ele>44.7</ele>
        <time>2024-04-17T14:22:23Z</time>
      </trkpt>
      <trkpt lat="49.967" lon="2.13565">
        <ele>44.7</ele>
        <time>2024-04-17T14:22:24Z</time>
      </trkpt>
      <trkpt lat="49.967" lon="2.13565">
        <ele>44.7</ele>
        <time>2024-04-17T14:22:25Z</time>
      </trkpt>
      <trkpt lat="49.967" lon="2.13565">
        <ele>44.7</ele>
        <time>2024-04-17T14:22:26Z</time>
      </trkpt>
      <trkpt lat="49.967" lon="2.13565">
        <ele>44.7</ele>
        <time>2024-04-17T14:22:27Z</time>
      </trkpt>
      <trkpt lat="49.967" lon="2.13565">
        <ele>44.7</ele>
        <time>2024-04-17T14:22:28Z</time>
      </trkpt>
      <trkpt lat="49.967" lon="2.13565">
        <ele>44.7</ele>
        <time>2024-04-17T14:22:29Z</time>
      </trkpt>
      <trkpt lat="49.967" lon="2.13565">
        <ele>44.7</ele>
        <time>2024-04-17T14:22:30Z</time>
      </trkpt>
      <trkpt lat="49.967" lon="2.13565">
        <ele>44.7</ele>
        <time>2024-04-17T14:22:31Z</time>
      </trkpt>
      <trkpt lat="49.967" lon="2.13565">
        <ele>44.7</ele>
        <time>2024-04-17T14:22:32Z</time>
      </trkpt>
      <trkpt lat="49.967" lon="2.13565">
        <ele>44.7</ele>
        <time>2024-04-17T14:22:33Z</time>
      </trkpt>
      <trkpt lat="49.967" lon="2.13565">
        <ele>44.7</ele>
        <time>2024-04-17T14:22:34Z</time>
      </trkpt>
      <trkpt lat="49.967" lon="2.13565">
        <ele>44.7</ele>
        <time>2024-04-17T14:22:35Z</time>
      </trkpt>
      <trkpt lat="49.967" lon="2.13565">
        <ele>44.7</ele>
        <time>2024-04-17T14:22:36Z</time>
      </trkpt>
      <trkpt lat="49.967" lon="2.13565">
        <ele>44.7</ele>
        <time>2024-04-17T14:22:37Z</time>
      </trkpt>
      <trkpt lat="49.967" lon="2.13565">
        <ele>44.7</ele>
        <time>2024-04-17T14:22:38Z</time>
      </trkpt>
      <trkpt lat="49.967" lon="2.13565">
        <ele>44.7</ele>
        <time>2024-04-17T14:22:39Z</time>
      </trkpt>
      <trkpt lat="49.967" lon="2.13565">
        <ele>44.7</ele>
        <time>2024-04-17T14:22:40Z</time>
      </trkpt>
      <trkpt lat="49.967" lon="2.13565">
        <ele>44.7</ele>
        <time>2024-04-17T14:22:41Z</time>
      </trkpt>
      <trkpt lat="49.967" lon="2.13565">
        <ele>44.7</ele>
        <time>2024-04-17T14:22:42Z</time>
      </trkpt>
      <trkpt lat="49.967" lon="2.13565">
        <ele>44.7</ele>
        <time>2024-04-17T14:22:43Z</time>
      </trkpt>
      <trkpt lat="49.967" lon="2.13565">
        <ele>44.7</ele>
        <time>2024-04-17T14:22:44Z</time>
      </trkpt>
      <trkpt lat="49.967" lon="2.13565">
        <ele>44.7</ele>
        <time>2024-04-17T14:22:45Z</time>
      </trkpt>
      <trkpt lat="49.967" lon="2.13565">
        <ele>44.7</ele>
        <time>2024-04-17T14:22:46Z</time>
      </trkpt>
      <trkpt lat="49.967" lon="2.13565">
        <ele>44.7</ele>
        <time>2024-04-17T14:22:47Z</time>
      </trkpt>
      <trkpt lat="49.967" lon="2.13565">
        <ele>44.7</ele>
        <time>2024-04-17T14:22:48Z</time>
      </trkpt>
      <trkpt lat="49.967" lon="2.13565">
        <ele>44.7</ele>
        <time>2024-04-17T14:22:49Z</time>
      </trkpt>
      <trkpt lat="49.96699" lon="2.13565">
        <ele>44.7</ele>
        <time>2024-04-17T14:22:50Z</time>
      </trkpt>
      <trkpt lat="49.96698" lon="2.13565">
        <ele>44.6</ele>
        <time>2024-04-17T14:22:51Z</time>
      </trkpt>
      <trkpt lat="49.96697" lon="2.13565">
        <ele>44.6</ele>
        <time>2024-04-17T14:22:52Z</time>
      </trkpt>
      <trkpt lat="49.96696" lon="2.13565">
        <ele>44.6</ele>
        <time>2024-04-17T14:22:53Z</time>
      </trkpt>
      <trkpt lat="49.96695" lon="2.13565">
        <ele>44.6</ele>
        <time>2024-04-17T14:22:54Z</time>
      </trkpt>
      <trkpt lat="49.96694" lon="2.13564">
        <ele>44.6</ele>
        <time>2024-04-17T14:22:55Z</time>
      </trkpt>
      <trkpt lat="49.96693" lon="2.13564">
        <ele>44.6</ele>
        <time>2024-04-17T14:22:56Z</time>
      </trkpt>
      <trkpt lat="49.96693" lon="2.13564">
        <ele>44.6</ele>
        <time>2024-04-17T14:22:57Z</time>
      </trkpt>
      <trkpt lat="49.96693" lon="2.13564">
        <ele>44.6</ele>
        <time>2024-04-17T14:22:58Z</time>
      </trkpt>
      <trkpt lat="49.96693" lon="2.13564">
        <ele>44.6</ele>
        <time>2024-04-17T14:22:59Z</time>
      </trkpt>
      <trkpt lat="49.96693" lon="2.13564">
        <ele>44.6</ele>
        <time>2024-04-17T14:23:00Z</time>
      </trkpt>
      <trkpt lat="49.96693" lon="2.13564">
        <ele>44.6</ele>
        <time>2024-04-17T14:23:01Z</time>
      </trkpt>
      <trkpt lat="49.96692" lon="2.13564">
        <ele>44.6</ele>
        <time>2024-04-17T14:23:02Z</time>
      </trkpt>
      <trkpt lat="49.96692" lon="2.13564">
        <ele>44.6</ele>
        <time>2024-04-17T14:23:03Z</time>
      </trkpt>
      <trkpt lat="49.96692" lon="2.13563">
        <ele>44.6</ele>
        <time>2024-04-17T14:23:04Z</time>
      </trkpt>
      <trkpt lat="49.96692" lon="2.13563">
        <ele>44.6</ele>
        <time>2024-04-17T14:23:05Z</time>
      </trkpt>
      <trkpt lat="49.96692" lon="2.13563">
        <ele>44.6</ele>
        <time>2024-04-17T14:23:06Z</time>
      </trkpt>
      <trkpt lat="49.96692" lon="2.13563">
        <ele>44.5</ele>
        <time>2024-04-17T14:23:07Z</time>
      </trkpt>
      <trkpt lat="49.96692" lon="2.13563">
        <ele>44.5</ele>
        <time>2024-04-17T14:23:08Z</time>
      </trkpt>
      <trkpt lat="49.96692" lon="2.13563">
        <ele>44.5</ele>
        <time>2024-04-17T14:23:09Z</time>
      </trkpt>
      <trkpt lat="49.96691" lon="2.13563">
        <ele>44.5</ele>
        <time>2024-04-17T14:23:10Z</time>
      </trkpt>
      <trkpt lat="49.96691" lon="2.13563">
        <ele>44.5</ele>
        <time>2024-04-17T14:23:11Z</time>
      </trkpt>
      <trkpt lat="49.96691" lon="2.13563">
        <ele>44.5</ele>
        <time>2024-04-17T14:23:12Z</time>
      </trkpt>
      <trkpt lat="49.96691" lon="2.13563">
        <ele>44.5</ele>
        <time>2024-04-17T14:23:13Z</time>
      </trkpt>
      <trkpt lat="49.96691" lon="2.13563">
        <ele>44.5</ele>
        <time>2024-04-17T14:23:14Z</time>
      </trkpt>
      <trkpt lat="49.96691" lon="2.13563">
        <ele>44.5</ele>
        <time>2024-04-17T14:23:15Z</time>
      </trkpt>
      <trkpt lat="49.96691" lon="2.13563">
        <ele>44.5</ele>
        <time>2024-04-17T14:23:16Z</time>
      </trkpt>
      <trkpt lat="49.96691" lon="2.13562">
        <ele>44.5</ele>
        <time>2024-04-17T14:23:17Z</time>
      </trkpt>
      <trkpt lat="49.9669" lon="2.13562">
        <ele>44.5</ele>
        <time>2024-04-17T14:23:18Z</time>
      </trkpt>
      <trkpt lat="49.9669" lon="2.13562">
        <ele>44.5</ele>
        <time>2024-04-17T14:23:19Z</time>
      </trkpt>
      <trkpt lat="49.9669" lon="2.13562">
        <ele>44.5</ele>
        <time>2024-04-17T14:23:20Z</time>
      </trkpt>
      <trkpt lat="49.9669" lon="2.13562">
        <ele>44.5</ele>
        <time>2024-04-17T14:23:21Z</time>
      </trkpt>
      <trkpt lat="49.9669" lon="2.13562">
        <ele>44.5</ele>
        <time>2024-04-17T14:23:22Z</time>
      </trkpt>
      <trkpt lat="49.9669" lon="2.13562">
        <ele>44.5</ele>
        <time>2024-04-17T14:23:23Z</time>
      </trkpt>
      <trkpt lat="49.9669" lon="2.13562">
        <ele>44.5</ele>
        <time>2024-04-17T14:23:24Z</time>
      </trkpt>
      <trkpt lat="49.9669" lon="2.13562">
        <ele>44.5</ele>
        <time>2024-04-17T14:23:25Z</time>
      </trkpt>
      <trkpt lat="49.9669" lon="2.13562">
        <ele>44.5</ele>
        <time>2024-04-17T14:23:26Z</time>
      </trkpt>
      <trkpt lat="49.9669" lon="2.13562">
        <ele>44.5</ele>
        <time>2024-04-17T14:23:27Z</time>
      </trkpt>
      <trkpt lat="49.9669" lon="2.13562">
        <ele>44.5</ele>
        <time>2024-04-17T14:23:28Z</time>
      </trkpt>
      <trkpt lat="49.9669" lon="2.13562">
        <ele>44.5</ele>
        <time>2024-04-17T14:23:29Z</time>
      </trkpt>
      <trkpt lat="49.9669" lon="2.13562">
        <ele>44.5</ele>
        <time>2024-04-17T14:23:30Z</time>
      </trkpt>
      <trkpt lat="49.9669" lon="2.13562">
        <ele>44.5</ele>
        <time>2024-04-17T14:23:31Z</time>
      </trkpt>
      <trkpt lat="49.9669" lon="2.13562">
        <ele>44.5</ele>
        <time>2024-04-17T14:23:32Z</time>
      </trkpt>
      <trkpt lat="49.9669" lon="2.13562">
        <ele>44.5</ele>
        <time>2024-04-17T14:23:33Z</time>
      </trkpt>
      <trkpt lat="49.9669" lon="2.13562">
        <ele>44.5</ele>
        <time>2024-04-17T14:23:34Z</time>
      </trkpt>
      <trkpt lat="49.9669" lon="2.13562">
        <ele>44.5</ele>
        <time>2024-04-17T14:23:35Z</time>
      </trkpt>
      <trkpt lat="49.9669" lon="2.13562">
        <ele>44.5</ele>
        <time>2024-04-17T14:23:36Z</time>
      </trkpt>
      <trkpt lat="49.9669" lon="2.13562">
        <ele>44.5</ele>
        <time>2024-04-17T14:23:37Z</time>
      </trkpt>
      <trkpt lat="49.9669" lon="2.13562">
        <ele>44.5</ele>
        <time>2024-04-17T14:23:38Z</time>
      </trkpt>
      <trkpt lat="49.9669" lon="2.13562">
        <ele>44.5</ele>
        <time>2024-04-17T14:23:39Z</time>
      </trkpt>
      <trkpt lat="49.9669" lon="2.13562">
        <ele>44.5</ele>
        <time>2024-04-17T14:23:40Z</time>
      </trkpt>
      <trkpt lat="49.9669" lon="2.13562">
        <ele>44.5</ele>
        <time>2024-04-17T14:23:41Z</time>
      </trkpt>
      <trkpt lat="49.9669" lon="2.13562">
        <ele>44.5</ele>
        <time>2024-04-17T14:23:42Z</time>
      </trkpt>
      <trkpt lat="49.9669" lon="2.13562">
        <ele>44.5</ele>
        <time>2024-04-17T14:23:43Z</time>
      </trkpt>
      <trkpt lat="49.9669" lon="2.13562">
        <ele>44.5</ele>
        <time>2024-04-17T14:23:44Z</time>
      </trkpt>
      <trkpt lat="49.9669" lon="2.13562">
        <ele>44.5</ele>
        <time>2024-04-17T14:23:45Z</time>
      </trkpt>
      <trkpt lat="49.9669" lon="2.13562">
        <ele>44.5</ele>
        <time>2024-04-17T14:23:46Z</time>
      </trkpt>
      <trkpt lat="49.9669" lon="2.13562">
        <ele>44.5</ele>
        <time>2024-04-17T14:23:47Z</time>
      </trkpt>
      <trkpt lat="49.9669" lon="2.13562">
        <ele>44.5</ele>
        <time>2024-04-17T14:23:48Z</time>
      </trkpt>
      <trkpt lat="49.9669" lon="2.13562">
        <ele>44.5</ele>
        <time>2024-04-17T14:23:49Z</time>
      </trkpt>
      <trkpt lat="49.9669" lon="2.13562">
        <ele>44.5</ele>
        <time>2024-04-17T14:23:50Z</time>
      </trkpt>
      <trkpt lat="49.9669" lon="2.13562">
        <ele>44.5</ele>
        <time>2024-04-17T14:23:51Z</time>
      </trkpt>
      <trkpt lat="49.9669" lon="2.13562">
        <ele>44.5</ele>
        <time>2024-04-17T14:23:52Z</time>
      </trkpt>
      <trkpt lat="49.9669" lon="2.13562">
        <ele>44.5</ele>
        <time>2024-04-17T14:23:53Z</time>
      </trkpt>
      <trkpt lat="49.9669" lon="2.13562">
        <ele>44.5</ele>
        <time>2024-04-17T14:23:54Z</time>
      </trkpt>
      <trkpt lat="49.9669" lon="2.13562">
        <ele>44.5</ele>
        <time>2024-04-17T14:23:55Z</time>
      </trkpt>
      <trkpt lat="49.9669" lon="2.13562">
        <ele>44.5</ele>
        <time>2024-04-17T14:23:56Z</time>
      </trkpt>
      <trkpt lat="49.9669" lon="2.13562">
        <ele>44.5</ele>
        <time>2024-04-17T14:23:57Z</time>
      </trkpt>
      <trkpt lat="49.9669" lon="2.13562">
        <ele>44.5</ele>
        <time>2024-04-17T14:23:58Z</time>
      </trkpt>
      <trkpt lat="49.9669" lon="2.13562">
        <ele>44.5</ele>
        <time>2024-04-17T14:23:59Z</time>
      </trkpt>
      <trkpt lat="49.9669" lon="2.13562">
        <ele>44.5</ele>
        <time>2024-04-17T14:24:00Z</time>
      </trkpt>
      <trkpt lat="49.9669" lon="2.13562">
        <ele>44.5</ele>
        <time>2024-04-17T14:24:01Z</time>
      </trkpt>
      <trkpt lat="49.9669" lon="2.13562">
        <ele>44.5</ele>
        <time>2024-04-17T14:24:02Z</time>
      </trkpt>
      <trkpt lat="49.9669" lon="2.13562">
        <ele>44.5</ele>
        <time>2024-04-17T14:24:03Z</time>
      </trkpt>
      <trkpt lat="49.9669" lon="2.13562">
        <ele>44.5</ele>
        <time>2024-04-17T14:24:04Z</time>
      </trkpt>
      <trkpt lat="49.9669" lon="2.13562">
        <ele>44.5</ele>
        <time>2024-04-17T14:24:05Z</time>
      </trkpt>
      <trkpt lat="49.9669" lon="2.13562">
        <ele>44.5</ele>
        <time>2024-04-17T14:24:06Z</time>
      </trkpt>
      <trkpt lat="49.9669" lon="2.13562">
        <ele>44.5</ele>
        <time>2024-04-17T14:24:07Z</time>
      </trkpt>
      <trkpt lat="49.9669" lon="2.13562">
        <ele>44.5</ele>
        <time>2024-04-17T14:24:08Z</time>
      </trkpt>
      <trkpt lat="49.9669" lon="2.13562">
        <ele>44.5</ele>
        <time>2024-04-17T14:24:09Z</time>
      </trkpt>
      <trkpt lat="49.9669" lon="2.13562">
        <ele>44.5</ele>
        <time>2024-04-17T14:24:10Z</time>
      </trkpt>
      <trkpt lat="49.9669" lon="2.13562">
        <ele>44.5</ele>
        <time>2024-04-17T14:24:11Z</time>
      </trkpt>
      <trkpt lat="49.9669" lon="2.13562">
        <ele>44.5</ele>
        <time>2024-04-17T14:24:12Z</time>
      </trkpt>
      <trkpt lat="49.9669" lon="2.13562">
        <ele>44.5</ele>
        <time>2024-04-17T14:24:13Z</time>
      </trkpt>
      <trkpt lat="49.9669" lon="2.13562">
        <ele>44.5</ele>
        <time>2024-04-17T14:24:14Z</time>
      </trkpt>
      <trkpt lat="49.9669" lon="2.13562">
        <ele>44.5</ele>
        <time>2024-04-17T14:24:15Z</time>
      </trkpt>
      <trkpt lat="49.9669" lon="2.13562">
        <ele>44.5</ele>
        <time>2024-04-17T14:24:16Z</time>
      </trkpt>
      <trkpt lat="49.9669" lon="2.13562">
        <ele>44.5</ele>
        <time>2024-04-17T14:24:17Z</time>
      </trkpt>
      <trkpt lat="49.9669" lon="2.13562">
        <ele>44.5</ele>
        <time>2024-04-17T14:24:18Z</time>
      </trkpt>
      <trkpt lat="49.9669" lon="2.13562">
        <ele>44.5</ele>
        <time>2024-04-17T14:24:19Z</time>
      </trkpt>
      <trkpt lat="49.9669" lon="2.13562">
        <ele>44.5</ele>
        <time>2024-04-17T14:24:20Z</time>
      </trkpt>
      <trkpt lat="49.9669" lon="2.13562">
        <ele>44.5</ele>
        <time>2024-04-17T14:24:21Z</time>
      </trkpt>
      <trkpt lat="49.9669" lon="2.13562">
        <ele>44.5</ele>
        <time>2024-04-17T14:24:22Z</time>
      </trkpt>
      <trkpt lat="49.9669" lon="2.13562">
        <ele>44.5</ele>
        <time>2024-04-17T14:24:23Z</time>
      </trkpt>
      <trkpt lat="49.9669" lon="2.13562">
        <ele>44.5</ele>
        <time>2024-04-17T14:24:24Z</time>
      </trkpt>
      <trkpt lat="49.9669" lon="2.13562">
        <ele>44.5</ele>
        <time>2024-04-17T14:24:25Z</time>
      </trkpt>
      <trkpt lat="49.9669" lon="2.13562">
        <ele>44.5</ele>
        <time>2024-04-17T14:24:26Z</time>
      </trkpt>
      <trkpt lat="49.9669" lon="2.13562">
        <ele>44.5</ele>
        <time>2024-04-17T14:24:27Z</time>
      </trkpt>
      <trkpt lat="49.9669" lon="2.13562">
        <ele>44.5</ele>
        <time>2024-04-17T14:24:28Z</time>
      </trkpt>
      <trkpt lat="49.9669" lon="2.13562">
        <ele>44.5</ele>
        <time>2024-04-17T14:24:29Z</time>
      </trkpt>
      <trkpt lat="49.9669" lon="2.13562">
        <ele>44.5</ele>
        <time>2024-04-17T14:24:30Z</time>
      </trkpt>
      <trkpt lat="49.9669" lon="2.13562">
        <ele>44.5</ele>
        <time>2024-04-17T14:24:31Z</time>
      </trkpt>
      <trkpt lat="49.9669" lon="2.13562">
        <ele>44.5</ele>
        <time>2024-04-17T14:24:32Z</time>
      </trkpt>
      <trkpt lat="49.9669" lon="2.13562">
        <ele>44.5</ele>
        <time>2024-04-17T14:24:33Z</time>
      </trkpt>
      <trkpt lat="49.9669" lon="2.13562">
        <ele>44.5</ele>
        <time>2024-04-17T14:24:34Z</time>
      </trkpt>
      <trkpt lat="49.9669" lon="2.13562">
        <ele>44.5</ele>
        <time>2024-04-17T14:24:35Z</time>
      </trkpt>
      <trkpt lat="49.9669" lon="2.13562">
        <ele>44.5</ele>
        <time>2024-04-17T14:24:36Z</time>
      </trkpt>
      <trkpt lat="49.9669" lon="2.13562">
        <ele>44.5</ele>
        <time>2024-04-17T14:24:37Z</time>
      </trkpt>
      <trkpt lat="49.9669" lon="2.13562">
        <ele>44.5</ele>
        <time>2024-04-17T14:24:38Z</time>
      </trkpt>
      <trkpt lat="49.9669" lon="2.13562">
        <ele>44.5</ele>
        <time>2024-04-17T14:24:39Z</time>
      </trkpt>
      <trkpt lat="49.9669" lon="2.13562">
        <ele>44.5</ele>
        <time>2024-04-17T14:24:40Z</time>
      </trkpt>
      <trkpt lat="49.9669" lon="2.13562">
        <ele>44.5</ele>
        <time>2024-04-17T14:24:41Z</time>
      </trkpt>
      <trkpt lat="49.9669" lon="2.13562">
        <ele>44.5</ele>
        <time>2024-04-17T14:24:42Z</time>
      </trkpt>
      <trkpt lat="49.9669" lon="2.13562">
        <ele>44.5</ele>
        <time>2024-04-17T14:24:43Z</time>
      </trkpt>
      <trkpt lat="49.9669" lon="2.13562">
        <ele>44.5</ele>
        <time>2024-04-17T14:24:44Z</time>
      </trkpt>
      <trkpt lat="49.9669" lon="2.13562">
        <ele>44.5</ele>
        <time>2024-04-17T14:24:45Z</time>
      </trkpt>
      <trkpt lat="49.9669" lon="2.13562">
        <ele>44.5</ele>
        <time>2024-04-17T14:24:46Z</time>
      </trkpt>
      <trkpt lat="49.9669" lon="2.13562">
        <ele>44.5</ele>
        <time>2024-04-17T14:24:47Z</time>
      </trkpt>
      <trkpt lat="49.9669" lon="2.13562">
        <ele>44.5</ele>
        <time>2024-04-17T14:24:48Z</time>
      </trkpt>
      <trkpt lat="49.9669" lon="2.13562">
        <ele>44.5</ele>
        <time>2024-04-17T14:24:49Z</time>
      </trkpt>
      <trkpt lat="49.9669" lon="2.13562">
        <ele>44.5</ele>
        <time>2024-04-17T14:24:50Z</time>
      </trkpt>
      <trkpt lat="49.9669" lon="2.13562">
        <ele>44.5</ele>
        <time>2024-04-17T14:24:51Z</time>
      </trkpt>
      <trkpt lat="49.9669" lon="2.13562">
        <ele>44.5</ele>
        <time>2024-04-17T14:24:52Z</time>
      </trkpt>
      <trkpt lat="49.9669" lon="2.13562">
        <ele>44.5</ele>
        <time>2024-04-17T14:24:53Z</time>
      </trkpt>
      <trkpt lat="49.9669" lon="2.13562">
        <ele>44.5</ele>
        <time>2024-04-17T14:24:54Z</time>
      </trkpt>
      <trkpt lat="49.9669" lon="2.13562">
        <ele>44.5</ele>
        <time>2024-04-17T14:24:55Z</time>
      </trkpt>
      <trkpt lat="49.9669" lon="2.13562">
        <ele>44.5</ele>
        <time>2024-04-17T14:24:56Z</time>
      </trkpt>
      <trkpt lat="49.9669" lon="2.13562">
        <ele>44.5</ele>
        <time>2024-04-17T14:24:57Z</time>
      </trkpt>
      <trkpt lat="49.9669" lon="2.13562">
        <ele>44.5</ele>
        <time>2024-04-17T14:24:58Z</time>
      </trkpt>
      <trkpt lat="49.9669" lon="2.13562">
        <ele>44.5</ele>
        <time>2024-04-17T14:24:59Z</time>
      </trkpt>
      <trkpt lat="49.9669" lon="2.13562">
        <ele>44.5</ele>
        <time>2024-04-17T14:25:00Z</time>
      </trkpt>
      <trkpt lat="49.9669" lon="2.13562">
        <ele>44.5</ele>
        <time>2024-04-17T14:25:01Z</time>
      </trkpt>
      <trkpt lat="49.9669" lon="2.13562">
        <ele>44.5</ele>
        <time>2024-04-17T14:25:02Z</time>
      </trkpt>
      <trkpt lat="49.9669" lon="2.13562">
        <ele>44.5</ele>
        <time>2024-04-17T14:25:03Z</time>
      </trkpt>
      <trkpt lat="49.9669" lon="2.13562">
        <ele>44.5</ele>
        <time>2024-04-17T14:25:04Z</time>
      </trkpt>
      <trkpt lat="49.9669" lon="2.13562">
        <ele>44.5</ele>
        <time>2024-04-17T14:25:05Z</time>
      </trkpt>
      <trkpt lat="49.9669" lon="2.13562">
        <ele>44.5</ele>
        <time>2024-04-17T14:25:06Z</time>
      </trkpt>
      <trkpt lat="49.9669" lon="2.13562">
        <ele>44.5</ele>
        <time>2024-04-17T14:25:07Z</time>
      </trkpt>
      <trkpt lat="49.9669" lon="2.13562">
        <ele>44.5</ele>
        <time>2024-04-17T14:25:08Z</time>
      </trkpt>
      <trkpt lat="49.9669" lon="2.13562">
        <ele>44.5</ele>
        <time>2024-04-17T14:25:09Z</time>
      </trkpt>
      <trkpt lat="49.9669" lon="2.13562">
        <ele>44.5</ele>
        <time>2024-04-17T14:25:10Z</time>
      </trkpt>
      <trkpt lat="49.9669" lon="2.13562">
        <ele>44.5</ele>
        <time>2024-04-17T14:25:11Z</time>
      </trkpt>
      <trkpt lat="49.9669" lon="2.13562">
        <ele>44.5</ele>
        <time>2024-04-17T14:25:12Z</time>
      </trkpt>
      <trkpt lat="49.9669" lon="2.13562">
        <ele>44.5</ele>
        <time>2024-04-17T14:25:13Z</time>
      </trkpt>
      <trkpt lat="49.9669" lon="2.13562">
        <ele>44.5</ele>
        <time>2024-04-17T14:25:14Z</time>
      </trkpt>
      <trkpt lat="49.9669" lon="2.13562">
        <ele>44.5</ele>
        <time>2024-04-17T14:25:15Z</time>
      </trkpt>
    </trkseg>
  </trk>
</gpx>